<?xml version="1.0" encoding="UTF-8" standalone="no" ?>
<gpx xmlns="http://www.topografix.com/GPX/1/1" xmlns:xsi="http://www.w3.org/2001/XMLSchema-instance" xsi:schemaLocation="http://www.topografix.com/GPX/1/1 http://www.topografix.com/GPX/1/1/gpx.xsd" version="1.1" creator="VisuGPX - https://www.visugpx.com">
  <metadata>
    <name>Sortie 3h avec UVL</name>
    <desc><![CDATA[Sortie avec UVL. 
Bon dénivelé et parcours avec passage technique et single]]></desc>
  </metadata>
  <trk>
    <name><![CDATA[Sortie 3h avec UVL_1]]></name>
    <trkseg>
      <trkpt lat="49.20989" lon="1.17184">
        <ele>19</ele>
        <time>2016-07-10T06:36:23.000Z</time>
      </trkpt>
      <trkpt lat="49.20989" lon="1.17184">
        <ele>19</ele>
        <time>2016-07-10T06:36:24.000Z</time>
      </trkpt>
      <trkpt lat="49.20989" lon="1.17184">
        <ele>18</ele>
        <time>2016-07-10T06:36:25.000Z</time>
      </trkpt>
      <trkpt lat="49.20989" lon="1.17184">
        <ele>19</ele>
        <time>2016-07-10T06:36:26.000Z</time>
      </trkpt>
      <trkpt lat="49.20989" lon="1.17184">
        <ele>19</ele>
        <time>2016-07-10T06:36:27.000Z</time>
      </trkpt>
      <trkpt lat="49.20988" lon="1.17184">
        <ele>19</ele>
        <time>2016-07-10T06:36:28.000Z</time>
      </trkpt>
      <trkpt lat="49.20988" lon="1.17184">
        <ele>19</ele>
        <time>2016-07-10T06:36:29.000Z</time>
      </trkpt>
      <trkpt lat="49.20988" lon="1.17184">
        <ele>19</ele>
        <time>2016-07-10T06:36:30.000Z</time>
      </trkpt>
      <trkpt lat="49.20988" lon="1.17184">
        <ele>19</ele>
        <time>2016-07-10T06:36:31.000Z</time>
      </trkpt>
      <trkpt lat="49.20988" lon="1.17184">
        <ele>19</ele>
        <time>2016-07-10T06:36:32.000Z</time>
      </trkpt>
      <trkpt lat="49.20988" lon="1.17184">
        <ele>20</ele>
        <time>2016-07-10T06:36:33.000Z</time>
      </trkpt>
      <trkpt lat="49.20988" lon="1.17184">
        <ele>20</ele>
        <time>2016-07-10T06:36:34.000Z</time>
      </trkpt>
      <trkpt lat="49.20988" lon="1.17184">
        <ele>19</ele>
        <time>2016-07-10T06:36:35.000Z</time>
      </trkpt>
      <trkpt lat="49.20988" lon="1.17184">
        <ele>19</ele>
        <time>2016-07-10T06:36:36.000Z</time>
      </trkpt>
      <trkpt lat="49.20988" lon="1.17183">
        <ele>20</ele>
        <time>2016-07-10T06:36:37.000Z</time>
      </trkpt>
      <trkpt lat="49.20989" lon="1.17182">
        <ele>20</ele>
        <time>2016-07-10T06:36:38.000Z</time>
      </trkpt>
      <trkpt lat="49.2099" lon="1.17181">
        <ele>19</ele>
        <time>2016-07-10T06:36:39.000Z</time>
      </trkpt>
      <trkpt lat="49.20991" lon="1.17179">
        <ele>19</ele>
        <time>2016-07-10T06:36:40.000Z</time>
      </trkpt>
      <trkpt lat="49.20993" lon="1.17178">
        <ele>19</ele>
        <time>2016-07-10T06:36:41.000Z</time>
      </trkpt>
      <trkpt lat="49.20995" lon="1.17178">
        <ele>19</ele>
        <time>2016-07-10T06:36:42.000Z</time>
      </trkpt>
      <trkpt lat="49.20997" lon="1.17178">
        <ele>18</ele>
        <time>2016-07-10T06:36:43.000Z</time>
      </trkpt>
      <trkpt lat="49.20999" lon="1.17177">
        <ele>19</ele>
        <time>2016-07-10T06:36:44.000Z</time>
      </trkpt>
      <trkpt lat="49.21002" lon="1.17176">
        <ele>19</ele>
        <time>2016-07-10T06:36:45.000Z</time>
      </trkpt>
      <trkpt lat="49.21004" lon="1.17175">
        <ele>19</ele>
        <time>2016-07-10T06:36:46.000Z</time>
      </trkpt>
      <trkpt lat="49.21007" lon="1.17174">
        <ele>19</ele>
        <time>2016-07-10T06:36:47.000Z</time>
      </trkpt>
      <trkpt lat="49.2101" lon="1.17173">
        <ele>18</ele>
        <time>2016-07-10T06:36:48.000Z</time>
      </trkpt>
      <trkpt lat="49.21013" lon="1.17172">
        <ele>18</ele>
        <time>2016-07-10T06:36:49.000Z</time>
      </trkpt>
      <trkpt lat="49.21016" lon="1.17171">
        <ele>18</ele>
        <time>2016-07-10T06:36:50.000Z</time>
      </trkpt>
      <trkpt lat="49.21018" lon="1.17171">
        <ele>17</ele>
        <time>2016-07-10T06:36:51.000Z</time>
      </trkpt>
      <trkpt lat="49.21021" lon="1.1717">
        <ele>17</ele>
        <time>2016-07-10T06:36:52.000Z</time>
      </trkpt>
      <trkpt lat="49.21023" lon="1.17169">
        <ele>17</ele>
        <time>2016-07-10T06:36:53.000Z</time>
      </trkpt>
      <trkpt lat="49.21025" lon="1.17167">
        <ele>17</ele>
        <time>2016-07-10T06:36:54.000Z</time>
      </trkpt>
      <trkpt lat="49.21026" lon="1.17165">
        <ele>16</ele>
        <time>2016-07-10T06:36:55.000Z</time>
      </trkpt>
      <trkpt lat="49.21026" lon="1.17163">
        <ele>16</ele>
        <time>2016-07-10T06:36:56.000Z</time>
      </trkpt>
      <trkpt lat="49.21027" lon="1.17161">
        <ele>16</ele>
        <time>2016-07-10T06:36:57.000Z</time>
      </trkpt>
      <trkpt lat="49.21028" lon="1.17157">
        <ele>16</ele>
        <time>2016-07-10T06:36:58.000Z</time>
      </trkpt>
      <trkpt lat="49.21029" lon="1.17153">
        <ele>16</ele>
        <time>2016-07-10T06:36:59.000Z</time>
      </trkpt>
      <trkpt lat="49.21029" lon="1.17148">
        <ele>16</ele>
        <time>2016-07-10T06:37:00.000Z</time>
      </trkpt>
      <trkpt lat="49.21029" lon="1.17142">
        <ele>17</ele>
        <time>2016-07-10T06:37:01.000Z</time>
      </trkpt>
      <trkpt lat="49.21029" lon="1.17135">
        <ele>17</ele>
        <time>2016-07-10T06:37:02.000Z</time>
      </trkpt>
      <trkpt lat="49.21028" lon="1.17129">
        <ele>17</ele>
        <time>2016-07-10T06:37:03.000Z</time>
      </trkpt>
      <trkpt lat="49.21027" lon="1.17123">
        <ele>17</ele>
        <time>2016-07-10T06:37:04.000Z</time>
      </trkpt>
      <trkpt lat="49.21027" lon="1.17116">
        <ele>17</ele>
        <time>2016-07-10T06:37:05.000Z</time>
      </trkpt>
      <trkpt lat="49.21027" lon="1.1711">
        <ele>17</ele>
        <time>2016-07-10T06:37:06.000Z</time>
      </trkpt>
      <trkpt lat="49.21027" lon="1.17103">
        <ele>17</ele>
        <time>2016-07-10T06:37:07.000Z</time>
      </trkpt>
      <trkpt lat="49.21027" lon="1.17097">
        <ele>17</ele>
        <time>2016-07-10T06:37:08.000Z</time>
      </trkpt>
      <trkpt lat="49.21027" lon="1.1709">
        <ele>18</ele>
        <time>2016-07-10T06:37:09.000Z</time>
      </trkpt>
      <trkpt lat="49.21026" lon="1.17083">
        <ele>18</ele>
        <time>2016-07-10T06:37:10.000Z</time>
      </trkpt>
      <trkpt lat="49.21025" lon="1.17076">
        <ele>18</ele>
        <time>2016-07-10T06:37:11.000Z</time>
      </trkpt>
      <trkpt lat="49.21024" lon="1.17069">
        <ele>17</ele>
        <time>2016-07-10T06:37:12.000Z</time>
      </trkpt>
      <trkpt lat="49.21023" lon="1.17062">
        <ele>18</ele>
        <time>2016-07-10T06:37:13.000Z</time>
      </trkpt>
      <trkpt lat="49.21022" lon="1.17055">
        <ele>18</ele>
        <time>2016-07-10T06:37:14.000Z</time>
      </trkpt>
      <trkpt lat="49.2102" lon="1.17047">
        <ele>18</ele>
        <time>2016-07-10T06:37:15.000Z</time>
      </trkpt>
      <trkpt lat="49.21019" lon="1.1704">
        <ele>18</ele>
        <time>2016-07-10T06:37:16.000Z</time>
      </trkpt>
      <trkpt lat="49.21018" lon="1.17032">
        <ele>18</ele>
        <time>2016-07-10T06:37:17.000Z</time>
      </trkpt>
      <trkpt lat="49.21018" lon="1.17024">
        <ele>18</ele>
        <time>2016-07-10T06:37:18.000Z</time>
      </trkpt>
      <trkpt lat="49.21017" lon="1.17016">
        <ele>18</ele>
        <time>2016-07-10T06:37:19.000Z</time>
      </trkpt>
      <trkpt lat="49.21016" lon="1.17008">
        <ele>18</ele>
        <time>2016-07-10T06:37:20.000Z</time>
      </trkpt>
      <trkpt lat="49.21016" lon="1.17">
        <ele>18</ele>
        <time>2016-07-10T06:37:21.000Z</time>
      </trkpt>
      <trkpt lat="49.21016" lon="1.16992">
        <ele>18</ele>
        <time>2016-07-10T06:37:22.000Z</time>
      </trkpt>
      <trkpt lat="49.21015" lon="1.16984">
        <ele>19</ele>
        <time>2016-07-10T06:37:23.000Z</time>
      </trkpt>
      <trkpt lat="49.21015" lon="1.16976">
        <ele>19</ele>
        <time>2016-07-10T06:37:24.000Z</time>
      </trkpt>
      <trkpt lat="49.21015" lon="1.16968">
        <ele>19</ele>
        <time>2016-07-10T06:37:25.000Z</time>
      </trkpt>
      <trkpt lat="49.21014" lon="1.1696">
        <ele>20</ele>
        <time>2016-07-10T06:37:26.000Z</time>
      </trkpt>
      <trkpt lat="49.21014" lon="1.16952">
        <ele>20</ele>
        <time>2016-07-10T06:37:27.000Z</time>
      </trkpt>
      <trkpt lat="49.21014" lon="1.16944">
        <ele>20</ele>
        <time>2016-07-10T06:37:28.000Z</time>
      </trkpt>
      <trkpt lat="49.21014" lon="1.16936">
        <ele>20</ele>
        <time>2016-07-10T06:37:29.000Z</time>
      </trkpt>
      <trkpt lat="49.21013" lon="1.16927">
        <ele>21</ele>
        <time>2016-07-10T06:37:30.000Z</time>
      </trkpt>
      <trkpt lat="49.21013" lon="1.16919">
        <ele>21</ele>
        <time>2016-07-10T06:37:31.000Z</time>
      </trkpt>
      <trkpt lat="49.21013" lon="1.16911">
        <ele>21</ele>
        <time>2016-07-10T06:37:32.000Z</time>
      </trkpt>
      <trkpt lat="49.21013" lon="1.16902">
        <ele>21</ele>
        <time>2016-07-10T06:37:33.000Z</time>
      </trkpt>
      <trkpt lat="49.21012" lon="1.16894">
        <ele>21</ele>
        <time>2016-07-10T06:37:34.000Z</time>
      </trkpt>
      <trkpt lat="49.21012" lon="1.16886">
        <ele>21</ele>
        <time>2016-07-10T06:37:35.000Z</time>
      </trkpt>
      <trkpt lat="49.21012" lon="1.16877">
        <ele>21</ele>
        <time>2016-07-10T06:37:36.000Z</time>
      </trkpt>
      <trkpt lat="49.21011" lon="1.16869">
        <ele>22</ele>
        <time>2016-07-10T06:37:37.000Z</time>
      </trkpt>
      <trkpt lat="49.21011" lon="1.16861">
        <ele>22</ele>
        <time>2016-07-10T06:37:38.000Z</time>
      </trkpt>
      <trkpt lat="49.21011" lon="1.16852">
        <ele>23</ele>
        <time>2016-07-10T06:37:39.000Z</time>
      </trkpt>
      <trkpt lat="49.2101" lon="1.16844">
        <ele>23</ele>
        <time>2016-07-10T06:37:40.000Z</time>
      </trkpt>
      <trkpt lat="49.2101" lon="1.16836">
        <ele>23</ele>
        <time>2016-07-10T06:37:41.000Z</time>
      </trkpt>
      <trkpt lat="49.2101" lon="1.16828">
        <ele>24</ele>
        <time>2016-07-10T06:37:42.000Z</time>
      </trkpt>
      <trkpt lat="49.21009" lon="1.16819">
        <ele>23</ele>
        <time>2016-07-10T06:37:43.000Z</time>
      </trkpt>
      <trkpt lat="49.21009" lon="1.16811">
        <ele>24</ele>
        <time>2016-07-10T06:37:44.000Z</time>
      </trkpt>
      <trkpt lat="49.21009" lon="1.16804">
        <ele>24</ele>
        <time>2016-07-10T06:37:45.000Z</time>
      </trkpt>
      <trkpt lat="49.21009" lon="1.16796">
        <ele>24</ele>
        <time>2016-07-10T06:37:46.000Z</time>
      </trkpt>
      <trkpt lat="49.21009" lon="1.16789">
        <ele>23</ele>
        <time>2016-07-10T06:37:47.000Z</time>
      </trkpt>
      <trkpt lat="49.21009" lon="1.16781">
        <ele>23</ele>
        <time>2016-07-10T06:37:48.000Z</time>
      </trkpt>
      <trkpt lat="49.21008" lon="1.16773">
        <ele>23</ele>
        <time>2016-07-10T06:37:49.000Z</time>
      </trkpt>
      <trkpt lat="49.21008" lon="1.16765">
        <ele>23</ele>
        <time>2016-07-10T06:37:50.000Z</time>
      </trkpt>
      <trkpt lat="49.21007" lon="1.16756">
        <ele>23</ele>
        <time>2016-07-10T06:37:51.000Z</time>
      </trkpt>
      <trkpt lat="49.21007" lon="1.16748">
        <ele>23</ele>
        <time>2016-07-10T06:37:52.000Z</time>
      </trkpt>
      <trkpt lat="49.21006" lon="1.16739">
        <ele>23</ele>
        <time>2016-07-10T06:37:53.000Z</time>
      </trkpt>
      <trkpt lat="49.21006" lon="1.16729">
        <ele>23</ele>
        <time>2016-07-10T06:37:54.000Z</time>
      </trkpt>
      <trkpt lat="49.21005" lon="1.16719">
        <ele>23</ele>
        <time>2016-07-10T06:37:55.000Z</time>
      </trkpt>
      <trkpt lat="49.21005" lon="1.16709">
        <ele>23</ele>
        <time>2016-07-10T06:37:56.000Z</time>
      </trkpt>
      <trkpt lat="49.21005" lon="1.16698">
        <ele>23</ele>
        <time>2016-07-10T06:37:57.000Z</time>
      </trkpt>
      <trkpt lat="49.21005" lon="1.16687">
        <ele>23</ele>
        <time>2016-07-10T06:37:58.000Z</time>
      </trkpt>
      <trkpt lat="49.21005" lon="1.16675">
        <ele>23</ele>
        <time>2016-07-10T06:37:59.000Z</time>
      </trkpt>
      <trkpt lat="49.21006" lon="1.16664">
        <ele>23</ele>
        <time>2016-07-10T06:38:00.000Z</time>
      </trkpt>
      <trkpt lat="49.21007" lon="1.16653">
        <ele>24</ele>
        <time>2016-07-10T06:38:01.000Z</time>
      </trkpt>
      <trkpt lat="49.21008" lon="1.16642">
        <ele>24</ele>
        <time>2016-07-10T06:38:02.000Z</time>
      </trkpt>
      <trkpt lat="49.21009" lon="1.16631">
        <ele>24</ele>
        <time>2016-07-10T06:38:03.000Z</time>
      </trkpt>
      <trkpt lat="49.21011" lon="1.16621">
        <ele>23</ele>
        <time>2016-07-10T06:38:04.000Z</time>
      </trkpt>
      <trkpt lat="49.21013" lon="1.16611">
        <ele>23</ele>
        <time>2016-07-10T06:38:05.000Z</time>
      </trkpt>
      <trkpt lat="49.21017" lon="1.16602">
        <ele>23</ele>
        <time>2016-07-10T06:38:06.000Z</time>
      </trkpt>
      <trkpt lat="49.21021" lon="1.16594">
        <ele>23</ele>
        <time>2016-07-10T06:38:07.000Z</time>
      </trkpt>
      <trkpt lat="49.21025" lon="1.16587">
        <ele>23</ele>
        <time>2016-07-10T06:38:08.000Z</time>
      </trkpt>
      <trkpt lat="49.21031" lon="1.16581">
        <ele>22</ele>
        <time>2016-07-10T06:38:09.000Z</time>
      </trkpt>
      <trkpt lat="49.21037" lon="1.16577">
        <ele>22</ele>
        <time>2016-07-10T06:38:10.000Z</time>
      </trkpt>
      <trkpt lat="49.21043" lon="1.16573">
        <ele>22</ele>
        <time>2016-07-10T06:38:11.000Z</time>
      </trkpt>
      <trkpt lat="49.2105" lon="1.16569">
        <ele>21</ele>
        <time>2016-07-10T06:38:12.000Z</time>
      </trkpt>
      <trkpt lat="49.21056" lon="1.16565">
        <ele>20</ele>
        <time>2016-07-10T06:38:13.000Z</time>
      </trkpt>
      <trkpt lat="49.21062" lon="1.16562">
        <ele>20</ele>
        <time>2016-07-10T06:38:14.000Z</time>
      </trkpt>
      <trkpt lat="49.21068" lon="1.16559">
        <ele>20</ele>
        <time>2016-07-10T06:38:15.000Z</time>
      </trkpt>
      <trkpt lat="49.21073" lon="1.16557">
        <ele>20</ele>
        <time>2016-07-10T06:38:16.000Z</time>
      </trkpt>
      <trkpt lat="49.21077" lon="1.16555">
        <ele>20</ele>
        <time>2016-07-10T06:38:17.000Z</time>
      </trkpt>
      <trkpt lat="49.21082" lon="1.16553">
        <ele>20</ele>
        <time>2016-07-10T06:38:18.000Z</time>
      </trkpt>
      <trkpt lat="49.21087" lon="1.16551">
        <ele>20</ele>
        <time>2016-07-10T06:38:19.000Z</time>
      </trkpt>
      <trkpt lat="49.21092" lon="1.16549">
        <ele>21</ele>
        <time>2016-07-10T06:38:20.000Z</time>
      </trkpt>
      <trkpt lat="49.21097" lon="1.16547">
        <ele>22</ele>
        <time>2016-07-10T06:38:21.000Z</time>
      </trkpt>
      <trkpt lat="49.21103" lon="1.16546">
        <ele>22</ele>
        <time>2016-07-10T06:38:22.000Z</time>
      </trkpt>
      <trkpt lat="49.21108" lon="1.16544">
        <ele>21</ele>
        <time>2016-07-10T06:38:23.000Z</time>
      </trkpt>
      <trkpt lat="49.21114" lon="1.16542">
        <ele>21</ele>
        <time>2016-07-10T06:38:24.000Z</time>
      </trkpt>
      <trkpt lat="49.2112" lon="1.1654">
        <ele>21</ele>
        <time>2016-07-10T06:38:25.000Z</time>
      </trkpt>
      <trkpt lat="49.21126" lon="1.16537">
        <ele>20</ele>
        <time>2016-07-10T06:38:26.000Z</time>
      </trkpt>
      <trkpt lat="49.21131" lon="1.16535">
        <ele>19</ele>
        <time>2016-07-10T06:38:27.000Z</time>
      </trkpt>
      <trkpt lat="49.21137" lon="1.16533">
        <ele>19</ele>
        <time>2016-07-10T06:38:28.000Z</time>
      </trkpt>
      <trkpt lat="49.21141" lon="1.16531">
        <ele>19</ele>
        <time>2016-07-10T06:38:29.000Z</time>
      </trkpt>
      <trkpt lat="49.21146" lon="1.16528">
        <ele>18</ele>
        <time>2016-07-10T06:38:30.000Z</time>
      </trkpt>
      <trkpt lat="49.2115" lon="1.16525">
        <ele>18</ele>
        <time>2016-07-10T06:38:31.000Z</time>
      </trkpt>
      <trkpt lat="49.21154" lon="1.16521">
        <ele>18</ele>
        <time>2016-07-10T06:38:32.000Z</time>
      </trkpt>
      <trkpt lat="49.21157" lon="1.16516">
        <ele>15</ele>
        <time>2016-07-10T06:38:33.000Z</time>
      </trkpt>
      <trkpt lat="49.21158" lon="1.16508">
        <ele>15</ele>
        <time>2016-07-10T06:38:34.000Z</time>
      </trkpt>
      <trkpt lat="49.21158" lon="1.16499">
        <ele>17</ele>
        <time>2016-07-10T06:38:35.000Z</time>
      </trkpt>
      <trkpt lat="49.21157" lon="1.16489">
        <ele>17</ele>
        <time>2016-07-10T06:38:36.000Z</time>
      </trkpt>
      <trkpt lat="49.21155" lon="1.16478">
        <ele>18</ele>
        <time>2016-07-10T06:38:37.000Z</time>
      </trkpt>
      <trkpt lat="49.21153" lon="1.16467">
        <ele>19</ele>
        <time>2016-07-10T06:38:38.000Z</time>
      </trkpt>
      <trkpt lat="49.21152" lon="1.16457">
        <ele>19</ele>
        <time>2016-07-10T06:38:39.000Z</time>
      </trkpt>
      <trkpt lat="49.2115" lon="1.16447">
        <ele>20</ele>
        <time>2016-07-10T06:38:40.000Z</time>
      </trkpt>
      <trkpt lat="49.21148" lon="1.16438">
        <ele>20</ele>
        <time>2016-07-10T06:38:41.000Z</time>
      </trkpt>
      <trkpt lat="49.21147" lon="1.16428">
        <ele>20</ele>
        <time>2016-07-10T06:38:42.000Z</time>
      </trkpt>
      <trkpt lat="49.21145" lon="1.16419">
        <ele>21</ele>
        <time>2016-07-10T06:38:43.000Z</time>
      </trkpt>
      <trkpt lat="49.21144" lon="1.1641">
        <ele>22</ele>
        <time>2016-07-10T06:38:44.000Z</time>
      </trkpt>
      <trkpt lat="49.21142" lon="1.16401">
        <ele>21</ele>
        <time>2016-07-10T06:38:45.000Z</time>
      </trkpt>
      <trkpt lat="49.2114" lon="1.16392">
        <ele>21</ele>
        <time>2016-07-10T06:38:46.000Z</time>
      </trkpt>
      <trkpt lat="49.21139" lon="1.16383">
        <ele>22</ele>
        <time>2016-07-10T06:38:47.000Z</time>
      </trkpt>
      <trkpt lat="49.21137" lon="1.16375">
        <ele>22</ele>
        <time>2016-07-10T06:38:48.000Z</time>
      </trkpt>
      <trkpt lat="49.21136" lon="1.16367">
        <ele>23</ele>
        <time>2016-07-10T06:38:49.000Z</time>
      </trkpt>
      <trkpt lat="49.21134" lon="1.16359">
        <ele>23</ele>
        <time>2016-07-10T06:38:50.000Z</time>
      </trkpt>
      <trkpt lat="49.21133" lon="1.16352">
        <ele>23</ele>
        <time>2016-07-10T06:38:51.000Z</time>
      </trkpt>
      <trkpt lat="49.21132" lon="1.16344">
        <ele>24</ele>
        <time>2016-07-10T06:38:52.000Z</time>
      </trkpt>
      <trkpt lat="49.21131" lon="1.16335">
        <ele>24</ele>
        <time>2016-07-10T06:38:53.000Z</time>
      </trkpt>
      <trkpt lat="49.2113" lon="1.16327">
        <ele>24</ele>
        <time>2016-07-10T06:38:54.000Z</time>
      </trkpt>
      <trkpt lat="49.21129" lon="1.16319">
        <ele>24</ele>
        <time>2016-07-10T06:38:55.000Z</time>
      </trkpt>
      <trkpt lat="49.21127" lon="1.16311">
        <ele>25</ele>
        <time>2016-07-10T06:38:56.000Z</time>
      </trkpt>
      <trkpt lat="49.21126" lon="1.16302">
        <ele>25</ele>
        <time>2016-07-10T06:38:57.000Z</time>
      </trkpt>
      <trkpt lat="49.21125" lon="1.16294">
        <ele>25</ele>
        <time>2016-07-10T06:38:58.000Z</time>
      </trkpt>
      <trkpt lat="49.21123" lon="1.16286">
        <ele>25</ele>
        <time>2016-07-10T06:38:59.000Z</time>
      </trkpt>
      <trkpt lat="49.21122" lon="1.16278">
        <ele>26</ele>
        <time>2016-07-10T06:39:00.000Z</time>
      </trkpt>
      <trkpt lat="49.21121" lon="1.1627">
        <ele>26</ele>
        <time>2016-07-10T06:39:01.000Z</time>
      </trkpt>
      <trkpt lat="49.2112" lon="1.16262">
        <ele>26</ele>
        <time>2016-07-10T06:39:02.000Z</time>
      </trkpt>
      <trkpt lat="49.21118" lon="1.16255">
        <ele>26</ele>
        <time>2016-07-10T06:39:03.000Z</time>
      </trkpt>
      <trkpt lat="49.21117" lon="1.16247">
        <ele>26</ele>
        <time>2016-07-10T06:39:04.000Z</time>
      </trkpt>
      <trkpt lat="49.21115" lon="1.16239">
        <ele>26</ele>
        <time>2016-07-10T06:39:05.000Z</time>
      </trkpt>
      <trkpt lat="49.21114" lon="1.16231">
        <ele>26</ele>
        <time>2016-07-10T06:39:06.000Z</time>
      </trkpt>
      <trkpt lat="49.21112" lon="1.16223">
        <ele>26</ele>
        <time>2016-07-10T06:39:07.000Z</time>
      </trkpt>
      <trkpt lat="49.21111" lon="1.16215">
        <ele>26</ele>
        <time>2016-07-10T06:39:08.000Z</time>
      </trkpt>
      <trkpt lat="49.21109" lon="1.16207">
        <ele>27</ele>
        <time>2016-07-10T06:39:09.000Z</time>
      </trkpt>
      <trkpt lat="49.21108" lon="1.16199">
        <ele>27</ele>
        <time>2016-07-10T06:39:10.000Z</time>
      </trkpt>
      <trkpt lat="49.21106" lon="1.16191">
        <ele>27</ele>
        <time>2016-07-10T06:39:11.000Z</time>
      </trkpt>
      <trkpt lat="49.21105" lon="1.16183">
        <ele>27</ele>
        <time>2016-07-10T06:39:12.000Z</time>
      </trkpt>
      <trkpt lat="49.21103" lon="1.16174">
        <ele>27</ele>
        <time>2016-07-10T06:39:13.000Z</time>
      </trkpt>
      <trkpt lat="49.21102" lon="1.16166">
        <ele>27</ele>
        <time>2016-07-10T06:39:14.000Z</time>
      </trkpt>
      <trkpt lat="49.21102" lon="1.16158">
        <ele>27</ele>
        <time>2016-07-10T06:39:15.000Z</time>
      </trkpt>
      <trkpt lat="49.21102" lon="1.1615">
        <ele>27</ele>
        <time>2016-07-10T06:39:16.000Z</time>
      </trkpt>
      <trkpt lat="49.21102" lon="1.16142">
        <ele>27</ele>
        <time>2016-07-10T06:39:17.000Z</time>
      </trkpt>
      <trkpt lat="49.21103" lon="1.16134">
        <ele>27</ele>
        <time>2016-07-10T06:39:18.000Z</time>
      </trkpt>
      <trkpt lat="49.21103" lon="1.16125">
        <ele>27</ele>
        <time>2016-07-10T06:39:19.000Z</time>
      </trkpt>
      <trkpt lat="49.21103" lon="1.16117">
        <ele>27</ele>
        <time>2016-07-10T06:39:20.000Z</time>
      </trkpt>
      <trkpt lat="49.21103" lon="1.16108">
        <ele>27</ele>
        <time>2016-07-10T06:39:21.000Z</time>
      </trkpt>
      <trkpt lat="49.21104" lon="1.161">
        <ele>27</ele>
        <time>2016-07-10T06:39:22.000Z</time>
      </trkpt>
      <trkpt lat="49.21105" lon="1.16091">
        <ele>27</ele>
        <time>2016-07-10T06:39:23.000Z</time>
      </trkpt>
      <trkpt lat="49.21105" lon="1.16082">
        <ele>27</ele>
        <time>2016-07-10T06:39:24.000Z</time>
      </trkpt>
      <trkpt lat="49.21106" lon="1.16073">
        <ele>27</ele>
        <time>2016-07-10T06:39:25.000Z</time>
      </trkpt>
      <trkpt lat="49.21106" lon="1.16065">
        <ele>27</ele>
        <time>2016-07-10T06:39:26.000Z</time>
      </trkpt>
      <trkpt lat="49.21107" lon="1.16056">
        <ele>27</ele>
        <time>2016-07-10T06:39:27.000Z</time>
      </trkpt>
      <trkpt lat="49.21107" lon="1.16047">
        <ele>27</ele>
        <time>2016-07-10T06:39:28.000Z</time>
      </trkpt>
      <trkpt lat="49.21108" lon="1.16038">
        <ele>27</ele>
        <time>2016-07-10T06:39:29.000Z</time>
      </trkpt>
      <trkpt lat="49.21109" lon="1.1603">
        <ele>27</ele>
        <time>2016-07-10T06:39:30.000Z</time>
      </trkpt>
      <trkpt lat="49.21109" lon="1.16021">
        <ele>27</ele>
        <time>2016-07-10T06:39:31.000Z</time>
      </trkpt>
      <trkpt lat="49.2111" lon="1.16012">
        <ele>28</ele>
        <time>2016-07-10T06:39:32.000Z</time>
      </trkpt>
      <trkpt lat="49.21111" lon="1.16003">
        <ele>28</ele>
        <time>2016-07-10T06:39:33.000Z</time>
      </trkpt>
      <trkpt lat="49.21111" lon="1.15994">
        <ele>28</ele>
        <time>2016-07-10T06:39:34.000Z</time>
      </trkpt>
      <trkpt lat="49.21112" lon="1.15985">
        <ele>28</ele>
        <time>2016-07-10T06:39:35.000Z</time>
      </trkpt>
      <trkpt lat="49.21112" lon="1.15976">
        <ele>28</ele>
        <time>2016-07-10T06:39:36.000Z</time>
      </trkpt>
      <trkpt lat="49.21113" lon="1.15966">
        <ele>28</ele>
        <time>2016-07-10T06:39:37.000Z</time>
      </trkpt>
      <trkpt lat="49.21113" lon="1.15957">
        <ele>29</ele>
        <time>2016-07-10T06:39:38.000Z</time>
      </trkpt>
      <trkpt lat="49.21114" lon="1.15948">
        <ele>29</ele>
        <time>2016-07-10T06:39:39.000Z</time>
      </trkpt>
      <trkpt lat="49.21115" lon="1.15938">
        <ele>29</ele>
        <time>2016-07-10T06:39:40.000Z</time>
      </trkpt>
      <trkpt lat="49.21115" lon="1.15929">
        <ele>29</ele>
        <time>2016-07-10T06:39:41.000Z</time>
      </trkpt>
      <trkpt lat="49.21116" lon="1.1592">
        <ele>29</ele>
        <time>2016-07-10T06:39:42.000Z</time>
      </trkpt>
      <trkpt lat="49.21117" lon="1.15911">
        <ele>29</ele>
        <time>2016-07-10T06:39:43.000Z</time>
      </trkpt>
      <trkpt lat="49.21117" lon="1.15901">
        <ele>29</ele>
        <time>2016-07-10T06:39:44.000Z</time>
      </trkpt>
      <trkpt lat="49.21118" lon="1.15892">
        <ele>29</ele>
        <time>2016-07-10T06:39:45.000Z</time>
      </trkpt>
      <trkpt lat="49.21118" lon="1.15882">
        <ele>29</ele>
        <time>2016-07-10T06:39:46.000Z</time>
      </trkpt>
      <trkpt lat="49.21119" lon="1.15873">
        <ele>30</ele>
        <time>2016-07-10T06:39:47.000Z</time>
      </trkpt>
      <trkpt lat="49.2112" lon="1.15863">
        <ele>30</ele>
        <time>2016-07-10T06:39:48.000Z</time>
      </trkpt>
      <trkpt lat="49.2112" lon="1.15854">
        <ele>30</ele>
        <time>2016-07-10T06:39:49.000Z</time>
      </trkpt>
      <trkpt lat="49.21121" lon="1.15844">
        <ele>30</ele>
        <time>2016-07-10T06:39:50.000Z</time>
      </trkpt>
      <trkpt lat="49.21122" lon="1.15835">
        <ele>30</ele>
        <time>2016-07-10T06:39:51.000Z</time>
      </trkpt>
      <trkpt lat="49.21123" lon="1.15826">
        <ele>30</ele>
        <time>2016-07-10T06:39:52.000Z</time>
      </trkpt>
      <trkpt lat="49.21124" lon="1.15816">
        <ele>30</ele>
        <time>2016-07-10T06:39:53.000Z</time>
      </trkpt>
      <trkpt lat="49.21125" lon="1.15807">
        <ele>30</ele>
        <time>2016-07-10T06:39:54.000Z</time>
      </trkpt>
      <trkpt lat="49.21126" lon="1.15797">
        <ele>30</ele>
        <time>2016-07-10T06:39:55.000Z</time>
      </trkpt>
      <trkpt lat="49.21127" lon="1.15788">
        <ele>30</ele>
        <time>2016-07-10T06:39:56.000Z</time>
      </trkpt>
      <trkpt lat="49.21128" lon="1.15779">
        <ele>30</ele>
        <time>2016-07-10T06:39:57.000Z</time>
      </trkpt>
      <trkpt lat="49.21129" lon="1.1577">
        <ele>30</ele>
        <time>2016-07-10T06:39:58.000Z</time>
      </trkpt>
      <trkpt lat="49.2113" lon="1.15761">
        <ele>31</ele>
        <time>2016-07-10T06:39:59.000Z</time>
      </trkpt>
      <trkpt lat="49.21131" lon="1.15752">
        <ele>31</ele>
        <time>2016-07-10T06:40:00.000Z</time>
      </trkpt>
      <trkpt lat="49.21132" lon="1.15743">
        <ele>31</ele>
        <time>2016-07-10T06:40:01.000Z</time>
      </trkpt>
      <trkpt lat="49.21134" lon="1.15734">
        <ele>31</ele>
        <time>2016-07-10T06:40:02.000Z</time>
      </trkpt>
      <trkpt lat="49.21135" lon="1.15724">
        <ele>31</ele>
        <time>2016-07-10T06:40:03.000Z</time>
      </trkpt>
      <trkpt lat="49.21136" lon="1.15715">
        <ele>31</ele>
        <time>2016-07-10T06:40:04.000Z</time>
      </trkpt>
      <trkpt lat="49.21137" lon="1.15706">
        <ele>32</ele>
        <time>2016-07-10T06:40:05.000Z</time>
      </trkpt>
      <trkpt lat="49.21138" lon="1.15696">
        <ele>32</ele>
        <time>2016-07-10T06:40:06.000Z</time>
      </trkpt>
      <trkpt lat="49.21139" lon="1.15687">
        <ele>32</ele>
        <time>2016-07-10T06:40:07.000Z</time>
      </trkpt>
      <trkpt lat="49.2114" lon="1.15678">
        <ele>32</ele>
        <time>2016-07-10T06:40:08.000Z</time>
      </trkpt>
      <trkpt lat="49.21141" lon="1.15668">
        <ele>32</ele>
        <time>2016-07-10T06:40:09.000Z</time>
      </trkpt>
      <trkpt lat="49.21143" lon="1.15659">
        <ele>33</ele>
        <time>2016-07-10T06:40:10.000Z</time>
      </trkpt>
      <trkpt lat="49.21144" lon="1.15651">
        <ele>33</ele>
        <time>2016-07-10T06:40:11.000Z</time>
      </trkpt>
      <trkpt lat="49.21145" lon="1.15642">
        <ele>33</ele>
        <time>2016-07-10T06:40:12.000Z</time>
      </trkpt>
      <trkpt lat="49.21147" lon="1.15634">
        <ele>34</ele>
        <time>2016-07-10T06:40:13.000Z</time>
      </trkpt>
      <trkpt lat="49.21148" lon="1.15625">
        <ele>34</ele>
        <time>2016-07-10T06:40:14.000Z</time>
      </trkpt>
      <trkpt lat="49.21149" lon="1.15618">
        <ele>34</ele>
        <time>2016-07-10T06:40:15.000Z</time>
      </trkpt>
      <trkpt lat="49.2115" lon="1.1561">
        <ele>34</ele>
        <time>2016-07-10T06:40:16.000Z</time>
      </trkpt>
      <trkpt lat="49.21151" lon="1.15603">
        <ele>35</ele>
        <time>2016-07-10T06:40:17.000Z</time>
      </trkpt>
      <trkpt lat="49.21152" lon="1.15595">
        <ele>35</ele>
        <time>2016-07-10T06:40:18.000Z</time>
      </trkpt>
      <trkpt lat="49.21153" lon="1.15589">
        <ele>35</ele>
        <time>2016-07-10T06:40:19.000Z</time>
      </trkpt>
      <trkpt lat="49.21154" lon="1.15582">
        <ele>35</ele>
        <time>2016-07-10T06:40:20.000Z</time>
      </trkpt>
      <trkpt lat="49.21155" lon="1.15576">
        <ele>35</ele>
        <time>2016-07-10T06:40:21.000Z</time>
      </trkpt>
      <trkpt lat="49.21156" lon="1.15569">
        <ele>36</ele>
        <time>2016-07-10T06:40:22.000Z</time>
      </trkpt>
      <trkpt lat="49.21157" lon="1.15563">
        <ele>36</ele>
        <time>2016-07-10T06:40:23.000Z</time>
      </trkpt>
      <trkpt lat="49.21158" lon="1.15556">
        <ele>37</ele>
        <time>2016-07-10T06:40:24.000Z</time>
      </trkpt>
      <trkpt lat="49.21159" lon="1.15551">
        <ele>37</ele>
        <time>2016-07-10T06:40:25.000Z</time>
      </trkpt>
      <trkpt lat="49.2116" lon="1.15545">
        <ele>38</ele>
        <time>2016-07-10T06:40:26.000Z</time>
      </trkpt>
      <trkpt lat="49.21161" lon="1.1554">
        <ele>38</ele>
        <time>2016-07-10T06:40:27.000Z</time>
      </trkpt>
      <trkpt lat="49.21163" lon="1.15534">
        <ele>38</ele>
        <time>2016-07-10T06:40:28.000Z</time>
      </trkpt>
      <trkpt lat="49.21164" lon="1.15529">
        <ele>38</ele>
        <time>2016-07-10T06:40:29.000Z</time>
      </trkpt>
      <trkpt lat="49.21165" lon="1.15524">
        <ele>39</ele>
        <time>2016-07-10T06:40:30.000Z</time>
      </trkpt>
      <trkpt lat="49.21166" lon="1.15518">
        <ele>39</ele>
        <time>2016-07-10T06:40:31.000Z</time>
      </trkpt>
      <trkpt lat="49.21167" lon="1.15513">
        <ele>39</ele>
        <time>2016-07-10T06:40:32.000Z</time>
      </trkpt>
      <trkpt lat="49.21168" lon="1.15507">
        <ele>39</ele>
        <time>2016-07-10T06:40:33.000Z</time>
      </trkpt>
      <trkpt lat="49.21169" lon="1.15501">
        <ele>40</ele>
        <time>2016-07-10T06:40:34.000Z</time>
      </trkpt>
      <trkpt lat="49.2117" lon="1.15496">
        <ele>40</ele>
        <time>2016-07-10T06:40:35.000Z</time>
      </trkpt>
      <trkpt lat="49.21171" lon="1.1549">
        <ele>40</ele>
        <time>2016-07-10T06:40:36.000Z</time>
      </trkpt>
      <trkpt lat="49.21172" lon="1.15484">
        <ele>41</ele>
        <time>2016-07-10T06:40:37.000Z</time>
      </trkpt>
      <trkpt lat="49.21173" lon="1.15479">
        <ele>41</ele>
        <time>2016-07-10T06:40:38.000Z</time>
      </trkpt>
      <trkpt lat="49.21174" lon="1.15474">
        <ele>42</ele>
        <time>2016-07-10T06:40:39.000Z</time>
      </trkpt>
      <trkpt lat="49.21175" lon="1.15469">
        <ele>42</ele>
        <time>2016-07-10T06:40:40.000Z</time>
      </trkpt>
      <trkpt lat="49.21176" lon="1.15464">
        <ele>42</ele>
        <time>2016-07-10T06:40:41.000Z</time>
      </trkpt>
      <trkpt lat="49.21177" lon="1.15459">
        <ele>42</ele>
        <time>2016-07-10T06:40:42.000Z</time>
      </trkpt>
      <trkpt lat="49.21178" lon="1.15454">
        <ele>43</ele>
        <time>2016-07-10T06:40:43.000Z</time>
      </trkpt>
      <trkpt lat="49.21179" lon="1.15448">
        <ele>43</ele>
        <time>2016-07-10T06:40:44.000Z</time>
      </trkpt>
      <trkpt lat="49.2118" lon="1.15443">
        <ele>43</ele>
        <time>2016-07-10T06:40:45.000Z</time>
      </trkpt>
      <trkpt lat="49.21181" lon="1.15438">
        <ele>44</ele>
        <time>2016-07-10T06:40:46.000Z</time>
      </trkpt>
      <trkpt lat="49.21182" lon="1.15434">
        <ele>44</ele>
        <time>2016-07-10T06:40:47.000Z</time>
      </trkpt>
      <trkpt lat="49.21183" lon="1.15429">
        <ele>45</ele>
        <time>2016-07-10T06:40:48.000Z</time>
      </trkpt>
      <trkpt lat="49.21184" lon="1.15424">
        <ele>45</ele>
        <time>2016-07-10T06:40:49.000Z</time>
      </trkpt>
      <trkpt lat="49.21184" lon="1.15419">
        <ele>45</ele>
        <time>2016-07-10T06:40:50.000Z</time>
      </trkpt>
      <trkpt lat="49.21185" lon="1.15414">
        <ele>46</ele>
        <time>2016-07-10T06:40:51.000Z</time>
      </trkpt>
      <trkpt lat="49.21186" lon="1.1541">
        <ele>46</ele>
        <time>2016-07-10T06:40:52.000Z</time>
      </trkpt>
      <trkpt lat="49.21187" lon="1.15405">
        <ele>46</ele>
        <time>2016-07-10T06:40:53.000Z</time>
      </trkpt>
      <trkpt lat="49.21188" lon="1.154">
        <ele>47</ele>
        <time>2016-07-10T06:40:54.000Z</time>
      </trkpt>
      <trkpt lat="49.21188" lon="1.15395">
        <ele>47</ele>
        <time>2016-07-10T06:40:55.000Z</time>
      </trkpt>
      <trkpt lat="49.21189" lon="1.15391">
        <ele>47</ele>
        <time>2016-07-10T06:40:56.000Z</time>
      </trkpt>
      <trkpt lat="49.2119" lon="1.15386">
        <ele>48</ele>
        <time>2016-07-10T06:40:57.000Z</time>
      </trkpt>
      <trkpt lat="49.21191" lon="1.15382">
        <ele>48</ele>
        <time>2016-07-10T06:40:58.000Z</time>
      </trkpt>
      <trkpt lat="49.21191" lon="1.15378">
        <ele>49</ele>
        <time>2016-07-10T06:40:59.000Z</time>
      </trkpt>
      <trkpt lat="49.21192" lon="1.15373">
        <ele>49</ele>
        <time>2016-07-10T06:41:00.000Z</time>
      </trkpt>
      <trkpt lat="49.21192" lon="1.15369">
        <ele>50</ele>
        <time>2016-07-10T06:41:01.000Z</time>
      </trkpt>
      <trkpt lat="49.21193" lon="1.15365">
        <ele>50</ele>
        <time>2016-07-10T06:41:02.000Z</time>
      </trkpt>
      <trkpt lat="49.21193" lon="1.15361">
        <ele>51</ele>
        <time>2016-07-10T06:41:03.000Z</time>
      </trkpt>
      <trkpt lat="49.21194" lon="1.15357">
        <ele>51</ele>
        <time>2016-07-10T06:41:04.000Z</time>
      </trkpt>
      <trkpt lat="49.21194" lon="1.15353">
        <ele>51</ele>
        <time>2016-07-10T06:41:05.000Z</time>
      </trkpt>
      <trkpt lat="49.21195" lon="1.15349">
        <ele>52</ele>
        <time>2016-07-10T06:41:06.000Z</time>
      </trkpt>
      <trkpt lat="49.21195" lon="1.15345">
        <ele>52</ele>
        <time>2016-07-10T06:41:07.000Z</time>
      </trkpt>
      <trkpt lat="49.21195" lon="1.15341">
        <ele>52</ele>
        <time>2016-07-10T06:41:08.000Z</time>
      </trkpt>
      <trkpt lat="49.21195" lon="1.15337">
        <ele>53</ele>
        <time>2016-07-10T06:41:09.000Z</time>
      </trkpt>
      <trkpt lat="49.21195" lon="1.15334">
        <ele>53</ele>
        <time>2016-07-10T06:41:10.000Z</time>
      </trkpt>
      <trkpt lat="49.21195" lon="1.1533">
        <ele>54</ele>
        <time>2016-07-10T06:41:11.000Z</time>
      </trkpt>
      <trkpt lat="49.21195" lon="1.15326">
        <ele>54</ele>
        <time>2016-07-10T06:41:12.000Z</time>
      </trkpt>
      <trkpt lat="49.21195" lon="1.15323">
        <ele>54</ele>
        <time>2016-07-10T06:41:13.000Z</time>
      </trkpt>
      <trkpt lat="49.21195" lon="1.15319">
        <ele>55</ele>
        <time>2016-07-10T06:41:14.000Z</time>
      </trkpt>
      <trkpt lat="49.21194" lon="1.15315">
        <ele>55</ele>
        <time>2016-07-10T06:41:15.000Z</time>
      </trkpt>
      <trkpt lat="49.21193" lon="1.15312">
        <ele>55</ele>
        <time>2016-07-10T06:41:16.000Z</time>
      </trkpt>
      <trkpt lat="49.21192" lon="1.15309">
        <ele>55</ele>
        <time>2016-07-10T06:41:17.000Z</time>
      </trkpt>
      <trkpt lat="49.21191" lon="1.15306">
        <ele>56</ele>
        <time>2016-07-10T06:41:18.000Z</time>
      </trkpt>
      <trkpt lat="49.2119" lon="1.15303">
        <ele>56</ele>
        <time>2016-07-10T06:41:19.000Z</time>
      </trkpt>
      <trkpt lat="49.21188" lon="1.15301">
        <ele>56</ele>
        <time>2016-07-10T06:41:20.000Z</time>
      </trkpt>
      <trkpt lat="49.21187" lon="1.15299">
        <ele>57</ele>
        <time>2016-07-10T06:41:21.000Z</time>
      </trkpt>
      <trkpt lat="49.21185" lon="1.15297">
        <ele>57</ele>
        <time>2016-07-10T06:41:22.000Z</time>
      </trkpt>
      <trkpt lat="49.21183" lon="1.15295">
        <ele>57</ele>
        <time>2016-07-10T06:41:23.000Z</time>
      </trkpt>
      <trkpt lat="49.21181" lon="1.15293">
        <ele>57</ele>
        <time>2016-07-10T06:41:24.000Z</time>
      </trkpt>
      <trkpt lat="49.2118" lon="1.15291">
        <ele>57</ele>
        <time>2016-07-10T06:41:25.000Z</time>
      </trkpt>
      <trkpt lat="49.21178" lon="1.15289">
        <ele>58</ele>
        <time>2016-07-10T06:41:26.000Z</time>
      </trkpt>
      <trkpt lat="49.21177" lon="1.15287">
        <ele>58</ele>
        <time>2016-07-10T06:41:27.000Z</time>
      </trkpt>
      <trkpt lat="49.21175" lon="1.15285">
        <ele>58</ele>
        <time>2016-07-10T06:41:28.000Z</time>
      </trkpt>
      <trkpt lat="49.21174" lon="1.15283">
        <ele>58</ele>
        <time>2016-07-10T06:41:29.000Z</time>
      </trkpt>
      <trkpt lat="49.21172" lon="1.15281">
        <ele>59</ele>
        <time>2016-07-10T06:41:30.000Z</time>
      </trkpt>
      <trkpt lat="49.21171" lon="1.15279">
        <ele>59</ele>
        <time>2016-07-10T06:41:31.000Z</time>
      </trkpt>
      <trkpt lat="49.21169" lon="1.15277">
        <ele>59</ele>
        <time>2016-07-10T06:41:32.000Z</time>
      </trkpt>
      <trkpt lat="49.21167" lon="1.15274">
        <ele>59</ele>
        <time>2016-07-10T06:41:33.000Z</time>
      </trkpt>
      <trkpt lat="49.21166" lon="1.15272">
        <ele>59</ele>
        <time>2016-07-10T06:41:34.000Z</time>
      </trkpt>
      <trkpt lat="49.21164" lon="1.1527">
        <ele>59</ele>
        <time>2016-07-10T06:41:35.000Z</time>
      </trkpt>
      <trkpt lat="49.21163" lon="1.15267">
        <ele>59</ele>
        <time>2016-07-10T06:41:36.000Z</time>
      </trkpt>
      <trkpt lat="49.21162" lon="1.15264">
        <ele>60</ele>
        <time>2016-07-10T06:41:37.000Z</time>
      </trkpt>
      <trkpt lat="49.2116" lon="1.15261">
        <ele>61</ele>
        <time>2016-07-10T06:41:38.000Z</time>
      </trkpt>
      <trkpt lat="49.21159" lon="1.15258">
        <ele>61</ele>
        <time>2016-07-10T06:41:39.000Z</time>
      </trkpt>
      <trkpt lat="49.21157" lon="1.15255">
        <ele>62</ele>
        <time>2016-07-10T06:41:40.000Z</time>
      </trkpt>
      <trkpt lat="49.21156" lon="1.15252">
        <ele>62</ele>
        <time>2016-07-10T06:41:41.000Z</time>
      </trkpt>
      <trkpt lat="49.21155" lon="1.15249">
        <ele>62</ele>
        <time>2016-07-10T06:41:42.000Z</time>
      </trkpt>
      <trkpt lat="49.21154" lon="1.15245">
        <ele>63</ele>
        <time>2016-07-10T06:41:43.000Z</time>
      </trkpt>
      <trkpt lat="49.21153" lon="1.15242">
        <ele>63</ele>
        <time>2016-07-10T06:41:44.000Z</time>
      </trkpt>
      <trkpt lat="49.21153" lon="1.15238">
        <ele>63</ele>
        <time>2016-07-10T06:41:45.000Z</time>
      </trkpt>
      <trkpt lat="49.21152" lon="1.15235">
        <ele>63</ele>
        <time>2016-07-10T06:41:46.000Z</time>
      </trkpt>
      <trkpt lat="49.21151" lon="1.15232">
        <ele>64</ele>
        <time>2016-07-10T06:41:47.000Z</time>
      </trkpt>
      <trkpt lat="49.21151" lon="1.15229">
        <ele>64</ele>
        <time>2016-07-10T06:41:48.000Z</time>
      </trkpt>
      <trkpt lat="49.21151" lon="1.15225">
        <ele>64</ele>
        <time>2016-07-10T06:41:49.000Z</time>
      </trkpt>
      <trkpt lat="49.2115" lon="1.15222">
        <ele>64</ele>
        <time>2016-07-10T06:41:50.000Z</time>
      </trkpt>
      <trkpt lat="49.2115" lon="1.15219">
        <ele>65</ele>
        <time>2016-07-10T06:41:51.000Z</time>
      </trkpt>
      <trkpt lat="49.2115" lon="1.15216">
        <ele>66</ele>
        <time>2016-07-10T06:41:52.000Z</time>
      </trkpt>
      <trkpt lat="49.2115" lon="1.15213">
        <ele>66</ele>
        <time>2016-07-10T06:41:53.000Z</time>
      </trkpt>
      <trkpt lat="49.2115" lon="1.1521">
        <ele>66</ele>
        <time>2016-07-10T06:41:54.000Z</time>
      </trkpt>
      <trkpt lat="49.2115" lon="1.15207">
        <ele>67</ele>
        <time>2016-07-10T06:41:55.000Z</time>
      </trkpt>
      <trkpt lat="49.2115" lon="1.15204">
        <ele>67</ele>
        <time>2016-07-10T06:41:56.000Z</time>
      </trkpt>
      <trkpt lat="49.2115" lon="1.15201">
        <ele>67</ele>
        <time>2016-07-10T06:41:57.000Z</time>
      </trkpt>
      <trkpt lat="49.2115" lon="1.15199">
        <ele>67</ele>
        <time>2016-07-10T06:41:58.000Z</time>
      </trkpt>
      <trkpt lat="49.2115" lon="1.15196">
        <ele>68</ele>
        <time>2016-07-10T06:41:59.000Z</time>
      </trkpt>
      <trkpt lat="49.2115" lon="1.15194">
        <ele>69</ele>
        <time>2016-07-10T06:42:00.000Z</time>
      </trkpt>
      <trkpt lat="49.21151" lon="1.15192">
        <ele>69</ele>
        <time>2016-07-10T06:42:01.000Z</time>
      </trkpt>
      <trkpt lat="49.21151" lon="1.15191">
        <ele>69</ele>
        <time>2016-07-10T06:42:02.000Z</time>
      </trkpt>
      <trkpt lat="49.21151" lon="1.15189">
        <ele>68</ele>
        <time>2016-07-10T06:42:03.000Z</time>
      </trkpt>
      <trkpt lat="49.21151" lon="1.15187">
        <ele>68</ele>
        <time>2016-07-10T06:42:04.000Z</time>
      </trkpt>
      <trkpt lat="49.21151" lon="1.15184">
        <ele>68</ele>
        <time>2016-07-10T06:42:05.000Z</time>
      </trkpt>
      <trkpt lat="49.21151" lon="1.15182">
        <ele>69</ele>
        <time>2016-07-10T06:42:06.000Z</time>
      </trkpt>
      <trkpt lat="49.21152" lon="1.15179">
        <ele>69</ele>
        <time>2016-07-10T06:42:07.000Z</time>
      </trkpt>
      <trkpt lat="49.21152" lon="1.15176">
        <ele>70</ele>
        <time>2016-07-10T06:42:08.000Z</time>
      </trkpt>
      <trkpt lat="49.21152" lon="1.15174">
        <ele>70</ele>
        <time>2016-07-10T06:42:09.000Z</time>
      </trkpt>
      <trkpt lat="49.21153" lon="1.15171">
        <ele>71</ele>
        <time>2016-07-10T06:42:10.000Z</time>
      </trkpt>
      <trkpt lat="49.21153" lon="1.15168">
        <ele>71</ele>
        <time>2016-07-10T06:42:11.000Z</time>
      </trkpt>
      <trkpt lat="49.21154" lon="1.15165">
        <ele>71</ele>
        <time>2016-07-10T06:42:12.000Z</time>
      </trkpt>
      <trkpt lat="49.21154" lon="1.15163">
        <ele>71</ele>
        <time>2016-07-10T06:42:13.000Z</time>
      </trkpt>
      <trkpt lat="49.21154" lon="1.1516">
        <ele>71</ele>
        <time>2016-07-10T06:42:14.000Z</time>
      </trkpt>
      <trkpt lat="49.21155" lon="1.15158">
        <ele>72</ele>
        <time>2016-07-10T06:42:15.000Z</time>
      </trkpt>
      <trkpt lat="49.21155" lon="1.15155">
        <ele>72</ele>
        <time>2016-07-10T06:42:16.000Z</time>
      </trkpt>
      <trkpt lat="49.21156" lon="1.15153">
        <ele>73</ele>
        <time>2016-07-10T06:42:17.000Z</time>
      </trkpt>
      <trkpt lat="49.21156" lon="1.15151">
        <ele>73</ele>
        <time>2016-07-10T06:42:18.000Z</time>
      </trkpt>
      <trkpt lat="49.21157" lon="1.15149">
        <ele>74</ele>
        <time>2016-07-10T06:42:19.000Z</time>
      </trkpt>
      <trkpt lat="49.21157" lon="1.15146">
        <ele>73</ele>
        <time>2016-07-10T06:42:20.000Z</time>
      </trkpt>
      <trkpt lat="49.21158" lon="1.15144">
        <ele>73</ele>
        <time>2016-07-10T06:42:21.000Z</time>
      </trkpt>
      <trkpt lat="49.21159" lon="1.15142">
        <ele>74</ele>
        <time>2016-07-10T06:42:22.000Z</time>
      </trkpt>
      <trkpt lat="49.21159" lon="1.1514">
        <ele>74</ele>
        <time>2016-07-10T06:42:23.000Z</time>
      </trkpt>
      <trkpt lat="49.21161" lon="1.15138">
        <ele>75</ele>
        <time>2016-07-10T06:42:24.000Z</time>
      </trkpt>
      <trkpt lat="49.21161" lon="1.15136">
        <ele>75</ele>
        <time>2016-07-10T06:42:25.000Z</time>
      </trkpt>
      <trkpt lat="49.21162" lon="1.15133">
        <ele>75</ele>
        <time>2016-07-10T06:42:26.000Z</time>
      </trkpt>
      <trkpt lat="49.21162" lon="1.1513">
        <ele>76</ele>
        <time>2016-07-10T06:42:27.000Z</time>
      </trkpt>
      <trkpt lat="49.21162" lon="1.15127">
        <ele>75</ele>
        <time>2016-07-10T06:42:28.000Z</time>
      </trkpt>
      <trkpt lat="49.21163" lon="1.15125">
        <ele>75</ele>
        <time>2016-07-10T06:42:29.000Z</time>
      </trkpt>
      <trkpt lat="49.21163" lon="1.15122">
        <ele>75</ele>
        <time>2016-07-10T06:42:30.000Z</time>
      </trkpt>
      <trkpt lat="49.21164" lon="1.15119">
        <ele>76</ele>
        <time>2016-07-10T06:42:31.000Z</time>
      </trkpt>
      <trkpt lat="49.21164" lon="1.15116">
        <ele>76</ele>
        <time>2016-07-10T06:42:32.000Z</time>
      </trkpt>
      <trkpt lat="49.21165" lon="1.15113">
        <ele>77</ele>
        <time>2016-07-10T06:42:33.000Z</time>
      </trkpt>
      <trkpt lat="49.21165" lon="1.1511">
        <ele>77</ele>
        <time>2016-07-10T06:42:34.000Z</time>
      </trkpt>
      <trkpt lat="49.21166" lon="1.15107">
        <ele>77</ele>
        <time>2016-07-10T06:42:35.000Z</time>
      </trkpt>
      <trkpt lat="49.21166" lon="1.15105">
        <ele>78</ele>
        <time>2016-07-10T06:42:36.000Z</time>
      </trkpt>
      <trkpt lat="49.21167" lon="1.15102">
        <ele>78</ele>
        <time>2016-07-10T06:42:37.000Z</time>
      </trkpt>
      <trkpt lat="49.21167" lon="1.15099">
        <ele>78</ele>
        <time>2016-07-10T06:42:38.000Z</time>
      </trkpt>
      <trkpt lat="49.21168" lon="1.15097">
        <ele>79</ele>
        <time>2016-07-10T06:42:39.000Z</time>
      </trkpt>
      <trkpt lat="49.21169" lon="1.15094">
        <ele>80</ele>
        <time>2016-07-10T06:42:40.000Z</time>
      </trkpt>
      <trkpt lat="49.2117" lon="1.15091">
        <ele>80</ele>
        <time>2016-07-10T06:42:41.000Z</time>
      </trkpt>
      <trkpt lat="49.21171" lon="1.15089">
        <ele>81</ele>
        <time>2016-07-10T06:42:42.000Z</time>
      </trkpt>
      <trkpt lat="49.21172" lon="1.15087">
        <ele>82</ele>
        <time>2016-07-10T06:42:43.000Z</time>
      </trkpt>
      <trkpt lat="49.21173" lon="1.15084">
        <ele>83</ele>
        <time>2016-07-10T06:42:44.000Z</time>
      </trkpt>
      <trkpt lat="49.21174" lon="1.15082">
        <ele>84</ele>
        <time>2016-07-10T06:42:45.000Z</time>
      </trkpt>
      <trkpt lat="49.21175" lon="1.1508">
        <ele>84</ele>
        <time>2016-07-10T06:42:46.000Z</time>
      </trkpt>
      <trkpt lat="49.21177" lon="1.15078">
        <ele>86</ele>
        <time>2016-07-10T06:42:47.000Z</time>
      </trkpt>
      <trkpt lat="49.21178" lon="1.15076">
        <ele>86</ele>
        <time>2016-07-10T06:42:48.000Z</time>
      </trkpt>
      <trkpt lat="49.21179" lon="1.15072">
        <ele>87</ele>
        <time>2016-07-10T06:42:49.000Z</time>
      </trkpt>
      <trkpt lat="49.2118" lon="1.15069">
        <ele>87</ele>
        <time>2016-07-10T06:42:50.000Z</time>
      </trkpt>
      <trkpt lat="49.2118" lon="1.15065">
        <ele>88</ele>
        <time>2016-07-10T06:42:51.000Z</time>
      </trkpt>
      <trkpt lat="49.21181" lon="1.15062">
        <ele>89</ele>
        <time>2016-07-10T06:42:52.000Z</time>
      </trkpt>
      <trkpt lat="49.21181" lon="1.15058">
        <ele>89</ele>
        <time>2016-07-10T06:42:53.000Z</time>
      </trkpt>
      <trkpt lat="49.21182" lon="1.15055">
        <ele>89</ele>
        <time>2016-07-10T06:42:54.000Z</time>
      </trkpt>
      <trkpt lat="49.21182" lon="1.15052">
        <ele>90</ele>
        <time>2016-07-10T06:42:55.000Z</time>
      </trkpt>
      <trkpt lat="49.21183" lon="1.15049">
        <ele>90</ele>
        <time>2016-07-10T06:42:56.000Z</time>
      </trkpt>
      <trkpt lat="49.21183" lon="1.15046">
        <ele>90</ele>
        <time>2016-07-10T06:42:57.000Z</time>
      </trkpt>
      <trkpt lat="49.21184" lon="1.15042">
        <ele>90</ele>
        <time>2016-07-10T06:42:58.000Z</time>
      </trkpt>
      <trkpt lat="49.21184" lon="1.15039">
        <ele>91</ele>
        <time>2016-07-10T06:42:59.000Z</time>
      </trkpt>
      <trkpt lat="49.21185" lon="1.15035">
        <ele>91</ele>
        <time>2016-07-10T06:43:00.000Z</time>
      </trkpt>
      <trkpt lat="49.21185" lon="1.15032">
        <ele>91</ele>
        <time>2016-07-10T06:43:01.000Z</time>
      </trkpt>
      <trkpt lat="49.21186" lon="1.15029">
        <ele>91</ele>
        <time>2016-07-10T06:43:02.000Z</time>
      </trkpt>
      <trkpt lat="49.21186" lon="1.15027">
        <ele>92</ele>
        <time>2016-07-10T06:43:03.000Z</time>
      </trkpt>
      <trkpt lat="49.21187" lon="1.15024">
        <ele>91</ele>
        <time>2016-07-10T06:43:04.000Z</time>
      </trkpt>
      <trkpt lat="49.21187" lon="1.15022">
        <ele>91</ele>
        <time>2016-07-10T06:43:05.000Z</time>
      </trkpt>
      <trkpt lat="49.21188" lon="1.15019">
        <ele>92</ele>
        <time>2016-07-10T06:43:06.000Z</time>
      </trkpt>
      <trkpt lat="49.21189" lon="1.15017">
        <ele>91</ele>
        <time>2016-07-10T06:43:07.000Z</time>
      </trkpt>
      <trkpt lat="49.2119" lon="1.15014">
        <ele>92</ele>
        <time>2016-07-10T06:43:08.000Z</time>
      </trkpt>
      <trkpt lat="49.21191" lon="1.15011">
        <ele>91</ele>
        <time>2016-07-10T06:43:09.000Z</time>
      </trkpt>
      <trkpt lat="49.21193" lon="1.15007">
        <ele>91</ele>
        <time>2016-07-10T06:43:10.000Z</time>
      </trkpt>
      <trkpt lat="49.21194" lon="1.15004">
        <ele>91</ele>
        <time>2016-07-10T06:43:11.000Z</time>
      </trkpt>
      <trkpt lat="49.21195" lon="1.15002">
        <ele>91</ele>
        <time>2016-07-10T06:43:12.000Z</time>
      </trkpt>
      <trkpt lat="49.21196" lon="1.14999">
        <ele>90</ele>
        <time>2016-07-10T06:43:13.000Z</time>
      </trkpt>
      <trkpt lat="49.21197" lon="1.14996">
        <ele>88</ele>
        <time>2016-07-10T06:43:14.000Z</time>
      </trkpt>
      <trkpt lat="49.21198" lon="1.14992">
        <ele>88</ele>
        <time>2016-07-10T06:43:15.000Z</time>
      </trkpt>
      <trkpt lat="49.21199" lon="1.14989">
        <ele>88</ele>
        <time>2016-07-10T06:43:16.000Z</time>
      </trkpt>
      <trkpt lat="49.21199" lon="1.14985">
        <ele>88</ele>
        <time>2016-07-10T06:43:17.000Z</time>
      </trkpt>
      <trkpt lat="49.212" lon="1.14982">
        <ele>88</ele>
        <time>2016-07-10T06:43:18.000Z</time>
      </trkpt>
      <trkpt lat="49.21201" lon="1.14979">
        <ele>86</ele>
        <time>2016-07-10T06:43:19.000Z</time>
      </trkpt>
      <trkpt lat="49.21202" lon="1.14975">
        <ele>86</ele>
        <time>2016-07-10T06:43:20.000Z</time>
      </trkpt>
      <trkpt lat="49.21203" lon="1.14973">
        <ele>86</ele>
        <time>2016-07-10T06:43:21.000Z</time>
      </trkpt>
      <trkpt lat="49.21205" lon="1.1497">
        <ele>87</ele>
        <time>2016-07-10T06:43:22.000Z</time>
      </trkpt>
      <trkpt lat="49.21206" lon="1.14967">
        <ele>87</ele>
        <time>2016-07-10T06:43:23.000Z</time>
      </trkpt>
      <trkpt lat="49.21207" lon="1.14963">
        <ele>86</ele>
        <time>2016-07-10T06:43:24.000Z</time>
      </trkpt>
      <trkpt lat="49.21208" lon="1.1496">
        <ele>86</ele>
        <time>2016-07-10T06:43:25.000Z</time>
      </trkpt>
      <trkpt lat="49.21209" lon="1.14958">
        <ele>85</ele>
        <time>2016-07-10T06:43:26.000Z</time>
      </trkpt>
      <trkpt lat="49.2121" lon="1.14955">
        <ele>85</ele>
        <time>2016-07-10T06:43:27.000Z</time>
      </trkpt>
      <trkpt lat="49.21211" lon="1.14952">
        <ele>85</ele>
        <time>2016-07-10T06:43:28.000Z</time>
      </trkpt>
      <trkpt lat="49.21212" lon="1.1495">
        <ele>85</ele>
        <time>2016-07-10T06:43:29.000Z</time>
      </trkpt>
      <trkpt lat="49.21213" lon="1.14947">
        <ele>86</ele>
        <time>2016-07-10T06:43:30.000Z</time>
      </trkpt>
      <trkpt lat="49.21215" lon="1.14945">
        <ele>86</ele>
        <time>2016-07-10T06:43:31.000Z</time>
      </trkpt>
      <trkpt lat="49.21216" lon="1.14943">
        <ele>85</ele>
        <time>2016-07-10T06:43:32.000Z</time>
      </trkpt>
      <trkpt lat="49.21217" lon="1.1494">
        <ele>86</ele>
        <time>2016-07-10T06:43:33.000Z</time>
      </trkpt>
      <trkpt lat="49.21218" lon="1.14938">
        <ele>86</ele>
        <time>2016-07-10T06:43:34.000Z</time>
      </trkpt>
      <trkpt lat="49.21219" lon="1.14936">
        <ele>86</ele>
        <time>2016-07-10T06:43:35.000Z</time>
      </trkpt>
      <trkpt lat="49.2122" lon="1.14934">
        <ele>85</ele>
        <time>2016-07-10T06:43:36.000Z</time>
      </trkpt>
      <trkpt lat="49.21221" lon="1.14932">
        <ele>86</ele>
        <time>2016-07-10T06:43:37.000Z</time>
      </trkpt>
      <trkpt lat="49.21222" lon="1.14931">
        <ele>86</ele>
        <time>2016-07-10T06:43:38.000Z</time>
      </trkpt>
      <trkpt lat="49.21223" lon="1.14929">
        <ele>87</ele>
        <time>2016-07-10T06:43:39.000Z</time>
      </trkpt>
      <trkpt lat="49.21224" lon="1.14928">
        <ele>87</ele>
        <time>2016-07-10T06:43:40.000Z</time>
      </trkpt>
      <trkpt lat="49.21226" lon="1.14926">
        <ele>89</ele>
        <time>2016-07-10T06:43:41.000Z</time>
      </trkpt>
      <trkpt lat="49.21227" lon="1.14925">
        <ele>89</ele>
        <time>2016-07-10T06:43:42.000Z</time>
      </trkpt>
      <trkpt lat="49.21228" lon="1.14923">
        <ele>91</ele>
        <time>2016-07-10T06:43:43.000Z</time>
      </trkpt>
      <trkpt lat="49.2123" lon="1.14922">
        <ele>92</ele>
        <time>2016-07-10T06:43:44.000Z</time>
      </trkpt>
      <trkpt lat="49.21231" lon="1.14921">
        <ele>92</ele>
        <time>2016-07-10T06:43:45.000Z</time>
      </trkpt>
      <trkpt lat="49.21231" lon="1.14921">
        <ele>93</ele>
        <time>2016-07-10T06:43:46.000Z</time>
      </trkpt>
      <trkpt lat="49.21232" lon="1.1492">
        <ele>93</ele>
        <time>2016-07-10T06:43:47.000Z</time>
      </trkpt>
      <trkpt lat="49.21233" lon="1.14919">
        <ele>93</ele>
        <time>2016-07-10T06:43:48.000Z</time>
      </trkpt>
      <trkpt lat="49.21234" lon="1.14918">
        <ele>93</ele>
        <time>2016-07-10T06:43:49.000Z</time>
      </trkpt>
      <trkpt lat="49.21235" lon="1.14917">
        <ele>93</ele>
        <time>2016-07-10T06:43:50.000Z</time>
      </trkpt>
      <trkpt lat="49.21237" lon="1.14916">
        <ele>94</ele>
        <time>2016-07-10T06:43:51.000Z</time>
      </trkpt>
      <trkpt lat="49.21238" lon="1.14915">
        <ele>95</ele>
        <time>2016-07-10T06:43:52.000Z</time>
      </trkpt>
      <trkpt lat="49.21239" lon="1.14913">
        <ele>96</ele>
        <time>2016-07-10T06:43:53.000Z</time>
      </trkpt>
      <trkpt lat="49.2124" lon="1.14909">
        <ele>97</ele>
        <time>2016-07-10T06:43:54.000Z</time>
      </trkpt>
      <trkpt lat="49.21241" lon="1.14906">
        <ele>98</ele>
        <time>2016-07-10T06:43:55.000Z</time>
      </trkpt>
      <trkpt lat="49.21242" lon="1.14902">
        <ele>98</ele>
        <time>2016-07-10T06:43:56.000Z</time>
      </trkpt>
      <trkpt lat="49.21243" lon="1.14899">
        <ele>99</ele>
        <time>2016-07-10T06:43:57.000Z</time>
      </trkpt>
      <trkpt lat="49.21244" lon="1.14895">
        <ele>100</ele>
        <time>2016-07-10T06:43:58.000Z</time>
      </trkpt>
      <trkpt lat="49.21245" lon="1.14892">
        <ele>101</ele>
        <time>2016-07-10T06:43:59.000Z</time>
      </trkpt>
      <trkpt lat="49.21247" lon="1.14888">
        <ele>101</ele>
        <time>2016-07-10T06:44:00.000Z</time>
      </trkpt>
      <trkpt lat="49.21248" lon="1.14885">
        <ele>102</ele>
        <time>2016-07-10T06:44:01.000Z</time>
      </trkpt>
      <trkpt lat="49.21249" lon="1.14882">
        <ele>102</ele>
        <time>2016-07-10T06:44:02.000Z</time>
      </trkpt>
      <trkpt lat="49.2125" lon="1.14879">
        <ele>103</ele>
        <time>2016-07-10T06:44:03.000Z</time>
      </trkpt>
      <trkpt lat="49.21252" lon="1.14876">
        <ele>104</ele>
        <time>2016-07-10T06:44:04.000Z</time>
      </trkpt>
      <trkpt lat="49.21253" lon="1.14873">
        <ele>103</ele>
        <time>2016-07-10T06:44:05.000Z</time>
      </trkpt>
      <trkpt lat="49.21255" lon="1.14871">
        <ele>103</ele>
        <time>2016-07-10T06:44:06.000Z</time>
      </trkpt>
      <trkpt lat="49.21256" lon="1.14868">
        <ele>103</ele>
        <time>2016-07-10T06:44:07.000Z</time>
      </trkpt>
      <trkpt lat="49.21258" lon="1.14865">
        <ele>103</ele>
        <time>2016-07-10T06:44:08.000Z</time>
      </trkpt>
      <trkpt lat="49.21259" lon="1.14863">
        <ele>101</ele>
        <time>2016-07-10T06:44:09.000Z</time>
      </trkpt>
      <trkpt lat="49.21261" lon="1.1486">
        <ele>101</ele>
        <time>2016-07-10T06:44:10.000Z</time>
      </trkpt>
      <trkpt lat="49.21263" lon="1.14858">
        <ele>102</ele>
        <time>2016-07-10T06:44:11.000Z</time>
      </trkpt>
      <trkpt lat="49.21265" lon="1.14855">
        <ele>102</ele>
        <time>2016-07-10T06:44:12.000Z</time>
      </trkpt>
      <trkpt lat="49.21267" lon="1.14853">
        <ele>102</ele>
        <time>2016-07-10T06:44:13.000Z</time>
      </trkpt>
      <trkpt lat="49.21268" lon="1.1485">
        <ele>102</ele>
        <time>2016-07-10T06:44:14.000Z</time>
      </trkpt>
      <trkpt lat="49.2127" lon="1.14848">
        <ele>103</ele>
        <time>2016-07-10T06:44:15.000Z</time>
      </trkpt>
      <trkpt lat="49.21272" lon="1.14846">
        <ele>103</ele>
        <time>2016-07-10T06:44:16.000Z</time>
      </trkpt>
      <trkpt lat="49.21273" lon="1.14844">
        <ele>103</ele>
        <time>2016-07-10T06:44:17.000Z</time>
      </trkpt>
      <trkpt lat="49.21275" lon="1.14842">
        <ele>104</ele>
        <time>2016-07-10T06:44:18.000Z</time>
      </trkpt>
      <trkpt lat="49.21276" lon="1.1484">
        <ele>104</ele>
        <time>2016-07-10T06:44:19.000Z</time>
      </trkpt>
      <trkpt lat="49.21278" lon="1.14839">
        <ele>105</ele>
        <time>2016-07-10T06:44:20.000Z</time>
      </trkpt>
      <trkpt lat="49.2128" lon="1.14838">
        <ele>106</ele>
        <time>2016-07-10T06:44:21.000Z</time>
      </trkpt>
      <trkpt lat="49.21281" lon="1.14836">
        <ele>107</ele>
        <time>2016-07-10T06:44:22.000Z</time>
      </trkpt>
      <trkpt lat="49.21283" lon="1.14835">
        <ele>108</ele>
        <time>2016-07-10T06:44:23.000Z</time>
      </trkpt>
      <trkpt lat="49.21285" lon="1.14835">
        <ele>108</ele>
        <time>2016-07-10T06:44:24.000Z</time>
      </trkpt>
      <trkpt lat="49.21286" lon="1.14834">
        <ele>108</ele>
        <time>2016-07-10T06:44:25.000Z</time>
      </trkpt>
      <trkpt lat="49.21288" lon="1.14833">
        <ele>109</ele>
        <time>2016-07-10T06:44:26.000Z</time>
      </trkpt>
      <trkpt lat="49.2129" lon="1.14833">
        <ele>109</ele>
        <time>2016-07-10T06:44:27.000Z</time>
      </trkpt>
      <trkpt lat="49.21292" lon="1.14833">
        <ele>110</ele>
        <time>2016-07-10T06:44:28.000Z</time>
      </trkpt>
      <trkpt lat="49.21294" lon="1.14833">
        <ele>112</ele>
        <time>2016-07-10T06:44:29.000Z</time>
      </trkpt>
      <trkpt lat="49.21296" lon="1.14832">
        <ele>112</ele>
        <time>2016-07-10T06:44:30.000Z</time>
      </trkpt>
      <trkpt lat="49.21297" lon="1.14832">
        <ele>112</ele>
        <time>2016-07-10T06:44:31.000Z</time>
      </trkpt>
      <trkpt lat="49.213" lon="1.14832">
        <ele>113</ele>
        <time>2016-07-10T06:44:32.000Z</time>
      </trkpt>
      <trkpt lat="49.21302" lon="1.14833">
        <ele>113</ele>
        <time>2016-07-10T06:44:33.000Z</time>
      </trkpt>
      <trkpt lat="49.21304" lon="1.14833">
        <ele>114</ele>
        <time>2016-07-10T06:44:34.000Z</time>
      </trkpt>
      <trkpt lat="49.21306" lon="1.14833">
        <ele>115</ele>
        <time>2016-07-10T06:44:35.000Z</time>
      </trkpt>
      <trkpt lat="49.21308" lon="1.14833">
        <ele>115</ele>
        <time>2016-07-10T06:44:36.000Z</time>
      </trkpt>
      <trkpt lat="49.2131" lon="1.14833">
        <ele>115</ele>
        <time>2016-07-10T06:44:37.000Z</time>
      </trkpt>
      <trkpt lat="49.21312" lon="1.14834">
        <ele>116</ele>
        <time>2016-07-10T06:44:38.000Z</time>
      </trkpt>
      <trkpt lat="49.21314" lon="1.14834">
        <ele>116</ele>
        <time>2016-07-10T06:44:39.000Z</time>
      </trkpt>
      <trkpt lat="49.21316" lon="1.14834">
        <ele>116</ele>
        <time>2016-07-10T06:44:40.000Z</time>
      </trkpt>
      <trkpt lat="49.21318" lon="1.14835">
        <ele>117</ele>
        <time>2016-07-10T06:44:41.000Z</time>
      </trkpt>
      <trkpt lat="49.2132" lon="1.14835">
        <ele>117</ele>
        <time>2016-07-10T06:44:42.000Z</time>
      </trkpt>
      <trkpt lat="49.21322" lon="1.14836">
        <ele>117</ele>
        <time>2016-07-10T06:44:43.000Z</time>
      </trkpt>
      <trkpt lat="49.21324" lon="1.14836">
        <ele>118</ele>
        <time>2016-07-10T06:44:44.000Z</time>
      </trkpt>
      <trkpt lat="49.21326" lon="1.14837">
        <ele>118</ele>
        <time>2016-07-10T06:44:45.000Z</time>
      </trkpt>
      <trkpt lat="49.21328" lon="1.14837">
        <ele>118</ele>
        <time>2016-07-10T06:44:46.000Z</time>
      </trkpt>
      <trkpt lat="49.2133" lon="1.14838">
        <ele>118</ele>
        <time>2016-07-10T06:44:47.000Z</time>
      </trkpt>
      <trkpt lat="49.21332" lon="1.14839">
        <ele>118</ele>
        <time>2016-07-10T06:44:48.000Z</time>
      </trkpt>
      <trkpt lat="49.21335" lon="1.14839">
        <ele>117</ele>
        <time>2016-07-10T06:44:49.000Z</time>
      </trkpt>
      <trkpt lat="49.21337" lon="1.1484">
        <ele>118</ele>
        <time>2016-07-10T06:44:50.000Z</time>
      </trkpt>
      <trkpt lat="49.21339" lon="1.14841">
        <ele>118</ele>
        <time>2016-07-10T06:44:51.000Z</time>
      </trkpt>
      <trkpt lat="49.21341" lon="1.14842">
        <ele>118</ele>
        <time>2016-07-10T06:44:52.000Z</time>
      </trkpt>
      <trkpt lat="49.21343" lon="1.14843">
        <ele>118</ele>
        <time>2016-07-10T06:44:53.000Z</time>
      </trkpt>
      <trkpt lat="49.21345" lon="1.14844">
        <ele>118</ele>
        <time>2016-07-10T06:44:54.000Z</time>
      </trkpt>
      <trkpt lat="49.21347" lon="1.14844">
        <ele>118</ele>
        <time>2016-07-10T06:44:55.000Z</time>
      </trkpt>
      <trkpt lat="49.21349" lon="1.14845">
        <ele>118</ele>
        <time>2016-07-10T06:44:56.000Z</time>
      </trkpt>
      <trkpt lat="49.21351" lon="1.14846">
        <ele>118</ele>
        <time>2016-07-10T06:44:57.000Z</time>
      </trkpt>
      <trkpt lat="49.21352" lon="1.14846">
        <ele>119</ele>
        <time>2016-07-10T06:44:58.000Z</time>
      </trkpt>
      <trkpt lat="49.21355" lon="1.14847">
        <ele>118</ele>
        <time>2016-07-10T06:44:59.000Z</time>
      </trkpt>
      <trkpt lat="49.21357" lon="1.14847">
        <ele>118</ele>
        <time>2016-07-10T06:45:00.000Z</time>
      </trkpt>
      <trkpt lat="49.21359" lon="1.14848">
        <ele>117</ele>
        <time>2016-07-10T06:45:01.000Z</time>
      </trkpt>
      <trkpt lat="49.21361" lon="1.14848">
        <ele>117</ele>
        <time>2016-07-10T06:45:02.000Z</time>
      </trkpt>
      <trkpt lat="49.21363" lon="1.14849">
        <ele>117</ele>
        <time>2016-07-10T06:45:03.000Z</time>
      </trkpt>
      <trkpt lat="49.21365" lon="1.1485">
        <ele>118</ele>
        <time>2016-07-10T06:45:04.000Z</time>
      </trkpt>
      <trkpt lat="49.21367" lon="1.1485">
        <ele>118</ele>
        <time>2016-07-10T06:45:05.000Z</time>
      </trkpt>
      <trkpt lat="49.21369" lon="1.14851">
        <ele>118</ele>
        <time>2016-07-10T06:45:06.000Z</time>
      </trkpt>
      <trkpt lat="49.2137" lon="1.14851">
        <ele>118</ele>
        <time>2016-07-10T06:45:07.000Z</time>
      </trkpt>
      <trkpt lat="49.21372" lon="1.14852">
        <ele>118</ele>
        <time>2016-07-10T06:45:08.000Z</time>
      </trkpt>
      <trkpt lat="49.21374" lon="1.14853">
        <ele>118</ele>
        <time>2016-07-10T06:45:09.000Z</time>
      </trkpt>
      <trkpt lat="49.21376" lon="1.14854">
        <ele>119</ele>
        <time>2016-07-10T06:45:10.000Z</time>
      </trkpt>
      <trkpt lat="49.21379" lon="1.14854">
        <ele>119</ele>
        <time>2016-07-10T06:45:11.000Z</time>
      </trkpt>
      <trkpt lat="49.21381" lon="1.14855">
        <ele>119</ele>
        <time>2016-07-10T06:45:12.000Z</time>
      </trkpt>
      <trkpt lat="49.21383" lon="1.14855">
        <ele>119</ele>
        <time>2016-07-10T06:45:13.000Z</time>
      </trkpt>
      <trkpt lat="49.21385" lon="1.14854">
        <ele>119</ele>
        <time>2016-07-10T06:45:14.000Z</time>
      </trkpt>
      <trkpt lat="49.21388" lon="1.14853">
        <ele>118</ele>
        <time>2016-07-10T06:45:15.000Z</time>
      </trkpt>
      <trkpt lat="49.2139" lon="1.14851">
        <ele>118</ele>
        <time>2016-07-10T06:45:16.000Z</time>
      </trkpt>
      <trkpt lat="49.21393" lon="1.14849">
        <ele>117</ele>
        <time>2016-07-10T06:45:17.000Z</time>
      </trkpt>
      <trkpt lat="49.21395" lon="1.14847">
        <ele>117</ele>
        <time>2016-07-10T06:45:18.000Z</time>
      </trkpt>
      <trkpt lat="49.21397" lon="1.14844">
        <ele>116</ele>
        <time>2016-07-10T06:45:19.000Z</time>
      </trkpt>
      <trkpt lat="49.21399" lon="1.14842">
        <ele>116</ele>
        <time>2016-07-10T06:45:20.000Z</time>
      </trkpt>
      <trkpt lat="49.214" lon="1.14839">
        <ele>116</ele>
        <time>2016-07-10T06:45:21.000Z</time>
      </trkpt>
      <trkpt lat="49.21402" lon="1.14836">
        <ele>116</ele>
        <time>2016-07-10T06:45:22.000Z</time>
      </trkpt>
      <trkpt lat="49.21404" lon="1.14833">
        <ele>116</ele>
        <time>2016-07-10T06:45:23.000Z</time>
      </trkpt>
      <trkpt lat="49.21405" lon="1.1483">
        <ele>116</ele>
        <time>2016-07-10T06:45:24.000Z</time>
      </trkpt>
      <trkpt lat="49.21407" lon="1.14827">
        <ele>116</ele>
        <time>2016-07-10T06:45:25.000Z</time>
      </trkpt>
      <trkpt lat="49.21409" lon="1.14824">
        <ele>116</ele>
        <time>2016-07-10T06:45:26.000Z</time>
      </trkpt>
      <trkpt lat="49.21411" lon="1.1482">
        <ele>116</ele>
        <time>2016-07-10T06:45:27.000Z</time>
      </trkpt>
      <trkpt lat="49.21413" lon="1.14817">
        <ele>116</ele>
        <time>2016-07-10T06:45:28.000Z</time>
      </trkpt>
      <trkpt lat="49.21414" lon="1.14813">
        <ele>116</ele>
        <time>2016-07-10T06:45:29.000Z</time>
      </trkpt>
      <trkpt lat="49.21416" lon="1.14809">
        <ele>116</ele>
        <time>2016-07-10T06:45:30.000Z</time>
      </trkpt>
      <trkpt lat="49.21417" lon="1.14805">
        <ele>116</ele>
        <time>2016-07-10T06:45:31.000Z</time>
      </trkpt>
      <trkpt lat="49.21418" lon="1.148">
        <ele>116</ele>
        <time>2016-07-10T06:45:32.000Z</time>
      </trkpt>
      <trkpt lat="49.21419" lon="1.14795">
        <ele>116</ele>
        <time>2016-07-10T06:45:33.000Z</time>
      </trkpt>
      <trkpt lat="49.21419" lon="1.1479">
        <ele>117</ele>
        <time>2016-07-10T06:45:34.000Z</time>
      </trkpt>
      <trkpt lat="49.2142" lon="1.14785">
        <ele>117</ele>
        <time>2016-07-10T06:45:35.000Z</time>
      </trkpt>
      <trkpt lat="49.2142" lon="1.14779">
        <ele>117</ele>
        <time>2016-07-10T06:45:36.000Z</time>
      </trkpt>
      <trkpt lat="49.2142" lon="1.14774">
        <ele>117</ele>
        <time>2016-07-10T06:45:37.000Z</time>
      </trkpt>
      <trkpt lat="49.2142" lon="1.14769">
        <ele>117</ele>
        <time>2016-07-10T06:45:38.000Z</time>
      </trkpt>
      <trkpt lat="49.2142" lon="1.14764">
        <ele>117</ele>
        <time>2016-07-10T06:45:39.000Z</time>
      </trkpt>
      <trkpt lat="49.2142" lon="1.14759">
        <ele>117</ele>
        <time>2016-07-10T06:45:40.000Z</time>
      </trkpt>
      <trkpt lat="49.2142" lon="1.14754">
        <ele>117</ele>
        <time>2016-07-10T06:45:41.000Z</time>
      </trkpt>
      <trkpt lat="49.2142" lon="1.14749">
        <ele>117</ele>
        <time>2016-07-10T06:45:42.000Z</time>
      </trkpt>
      <trkpt lat="49.21419" lon="1.14744">
        <ele>117</ele>
        <time>2016-07-10T06:45:43.000Z</time>
      </trkpt>
      <trkpt lat="49.21419" lon="1.14739">
        <ele>117</ele>
        <time>2016-07-10T06:45:44.000Z</time>
      </trkpt>
      <trkpt lat="49.21419" lon="1.14734">
        <ele>117</ele>
        <time>2016-07-10T06:45:45.000Z</time>
      </trkpt>
      <trkpt lat="49.21418" lon="1.1473">
        <ele>117</ele>
        <time>2016-07-10T06:45:46.000Z</time>
      </trkpt>
      <trkpt lat="49.21418" lon="1.14725">
        <ele>117</ele>
        <time>2016-07-10T06:45:47.000Z</time>
      </trkpt>
      <trkpt lat="49.21418" lon="1.14719">
        <ele>117</ele>
        <time>2016-07-10T06:45:48.000Z</time>
      </trkpt>
      <trkpt lat="49.21418" lon="1.14714">
        <ele>118</ele>
        <time>2016-07-10T06:45:49.000Z</time>
      </trkpt>
      <trkpt lat="49.21417" lon="1.14709">
        <ele>118</ele>
        <time>2016-07-10T06:45:50.000Z</time>
      </trkpt>
      <trkpt lat="49.21417" lon="1.14703">
        <ele>118</ele>
        <time>2016-07-10T06:45:51.000Z</time>
      </trkpt>
      <trkpt lat="49.21417" lon="1.14698">
        <ele>118</ele>
        <time>2016-07-10T06:45:52.000Z</time>
      </trkpt>
      <trkpt lat="49.21417" lon="1.14693">
        <ele>118</ele>
        <time>2016-07-10T06:45:53.000Z</time>
      </trkpt>
      <trkpt lat="49.21417" lon="1.14688">
        <ele>118</ele>
        <time>2016-07-10T06:45:54.000Z</time>
      </trkpt>
      <trkpt lat="49.21417" lon="1.14683">
        <ele>118</ele>
        <time>2016-07-10T06:45:55.000Z</time>
      </trkpt>
      <trkpt lat="49.21417" lon="1.14677">
        <ele>118</ele>
        <time>2016-07-10T06:45:56.000Z</time>
      </trkpt>
      <trkpt lat="49.21416" lon="1.14672">
        <ele>119</ele>
        <time>2016-07-10T06:45:57.000Z</time>
      </trkpt>
      <trkpt lat="49.21416" lon="1.14667">
        <ele>119</ele>
        <time>2016-07-10T06:45:58.000Z</time>
      </trkpt>
      <trkpt lat="49.21416" lon="1.14662">
        <ele>119</ele>
        <time>2016-07-10T06:45:59.000Z</time>
      </trkpt>
      <trkpt lat="49.21416" lon="1.14657">
        <ele>120</ele>
        <time>2016-07-10T06:46:00.000Z</time>
      </trkpt>
      <trkpt lat="49.21415" lon="1.14652">
        <ele>120</ele>
        <time>2016-07-10T06:46:01.000Z</time>
      </trkpt>
      <trkpt lat="49.21415" lon="1.14646">
        <ele>120</ele>
        <time>2016-07-10T06:46:02.000Z</time>
      </trkpt>
      <trkpt lat="49.21415" lon="1.14641">
        <ele>120</ele>
        <time>2016-07-10T06:46:03.000Z</time>
      </trkpt>
      <trkpt lat="49.21415" lon="1.14635">
        <ele>121</ele>
        <time>2016-07-10T06:46:04.000Z</time>
      </trkpt>
      <trkpt lat="49.21415" lon="1.1463">
        <ele>121</ele>
        <time>2016-07-10T06:46:05.000Z</time>
      </trkpt>
      <trkpt lat="49.21414" lon="1.14624">
        <ele>120</ele>
        <time>2016-07-10T06:46:06.000Z</time>
      </trkpt>
      <trkpt lat="49.21413" lon="1.14618">
        <ele>120</ele>
        <time>2016-07-10T06:46:07.000Z</time>
      </trkpt>
      <trkpt lat="49.21412" lon="1.14613">
        <ele>119</ele>
        <time>2016-07-10T06:46:08.000Z</time>
      </trkpt>
      <trkpt lat="49.21411" lon="1.14607">
        <ele>118</ele>
        <time>2016-07-10T06:46:09.000Z</time>
      </trkpt>
      <trkpt lat="49.2141" lon="1.14601">
        <ele>118</ele>
        <time>2016-07-10T06:46:10.000Z</time>
      </trkpt>
      <trkpt lat="49.21409" lon="1.14596">
        <ele>118</ele>
        <time>2016-07-10T06:46:11.000Z</time>
      </trkpt>
      <trkpt lat="49.21408" lon="1.1459">
        <ele>118</ele>
        <time>2016-07-10T06:46:12.000Z</time>
      </trkpt>
      <trkpt lat="49.21408" lon="1.14584">
        <ele>118</ele>
        <time>2016-07-10T06:46:13.000Z</time>
      </trkpt>
      <trkpt lat="49.21408" lon="1.14578">
        <ele>117</ele>
        <time>2016-07-10T06:46:14.000Z</time>
      </trkpt>
      <trkpt lat="49.21408" lon="1.14572">
        <ele>117</ele>
        <time>2016-07-10T06:46:15.000Z</time>
      </trkpt>
      <trkpt lat="49.21408" lon="1.14566">
        <ele>116</ele>
        <time>2016-07-10T06:46:16.000Z</time>
      </trkpt>
      <trkpt lat="49.21408" lon="1.1456">
        <ele>116</ele>
        <time>2016-07-10T06:46:17.000Z</time>
      </trkpt>
      <trkpt lat="49.21408" lon="1.14554">
        <ele>116</ele>
        <time>2016-07-10T06:46:18.000Z</time>
      </trkpt>
      <trkpt lat="49.21408" lon="1.14548">
        <ele>115</ele>
        <time>2016-07-10T06:46:19.000Z</time>
      </trkpt>
      <trkpt lat="49.21408" lon="1.14542">
        <ele>114</ele>
        <time>2016-07-10T06:46:20.000Z</time>
      </trkpt>
      <trkpt lat="49.21408" lon="1.14536">
        <ele>113</ele>
        <time>2016-07-10T06:46:21.000Z</time>
      </trkpt>
      <trkpt lat="49.21408" lon="1.1453">
        <ele>112</ele>
        <time>2016-07-10T06:46:22.000Z</time>
      </trkpt>
      <trkpt lat="49.21408" lon="1.14524">
        <ele>112</ele>
        <time>2016-07-10T06:46:23.000Z</time>
      </trkpt>
      <trkpt lat="49.21408" lon="1.14517">
        <ele>112</ele>
        <time>2016-07-10T06:46:24.000Z</time>
      </trkpt>
      <trkpt lat="49.21408" lon="1.1451">
        <ele>113</ele>
        <time>2016-07-10T06:46:25.000Z</time>
      </trkpt>
      <trkpt lat="49.21409" lon="1.14503">
        <ele>113</ele>
        <time>2016-07-10T06:46:26.000Z</time>
      </trkpt>
      <trkpt lat="49.21409" lon="1.14496">
        <ele>114</ele>
        <time>2016-07-10T06:46:27.000Z</time>
      </trkpt>
      <trkpt lat="49.21409" lon="1.14489">
        <ele>115</ele>
        <time>2016-07-10T06:46:28.000Z</time>
      </trkpt>
      <trkpt lat="49.21409" lon="1.14481">
        <ele>115</ele>
        <time>2016-07-10T06:46:29.000Z</time>
      </trkpt>
      <trkpt lat="49.21409" lon="1.14474">
        <ele>116</ele>
        <time>2016-07-10T06:46:30.000Z</time>
      </trkpt>
      <trkpt lat="49.2141" lon="1.14467">
        <ele>116</ele>
        <time>2016-07-10T06:46:31.000Z</time>
      </trkpt>
      <trkpt lat="49.2141" lon="1.1446">
        <ele>117</ele>
        <time>2016-07-10T06:46:32.000Z</time>
      </trkpt>
      <trkpt lat="49.2141" lon="1.14452">
        <ele>117</ele>
        <time>2016-07-10T06:46:33.000Z</time>
      </trkpt>
      <trkpt lat="49.2141" lon="1.14445">
        <ele>117</ele>
        <time>2016-07-10T06:46:34.000Z</time>
      </trkpt>
      <trkpt lat="49.2141" lon="1.14438">
        <ele>118</ele>
        <time>2016-07-10T06:46:35.000Z</time>
      </trkpt>
      <trkpt lat="49.21411" lon="1.14431">
        <ele>118</ele>
        <time>2016-07-10T06:46:36.000Z</time>
      </trkpt>
      <trkpt lat="49.21411" lon="1.14424">
        <ele>118</ele>
        <time>2016-07-10T06:46:37.000Z</time>
      </trkpt>
      <trkpt lat="49.21411" lon="1.14417">
        <ele>118</ele>
        <time>2016-07-10T06:46:38.000Z</time>
      </trkpt>
      <trkpt lat="49.21411" lon="1.14411">
        <ele>119</ele>
        <time>2016-07-10T06:46:39.000Z</time>
      </trkpt>
      <trkpt lat="49.21412" lon="1.14404">
        <ele>119</ele>
        <time>2016-07-10T06:46:40.000Z</time>
      </trkpt>
      <trkpt lat="49.21413" lon="1.14397">
        <ele>119</ele>
        <time>2016-07-10T06:46:41.000Z</time>
      </trkpt>
      <trkpt lat="49.21414" lon="1.1439">
        <ele>119</ele>
        <time>2016-07-10T06:46:42.000Z</time>
      </trkpt>
      <trkpt lat="49.21416" lon="1.14384">
        <ele>119</ele>
        <time>2016-07-10T06:46:43.000Z</time>
      </trkpt>
      <trkpt lat="49.21418" lon="1.14378">
        <ele>119</ele>
        <time>2016-07-10T06:46:44.000Z</time>
      </trkpt>
      <trkpt lat="49.2142" lon="1.14372">
        <ele>120</ele>
        <time>2016-07-10T06:46:45.000Z</time>
      </trkpt>
      <trkpt lat="49.21422" lon="1.14366">
        <ele>120</ele>
        <time>2016-07-10T06:46:46.000Z</time>
      </trkpt>
      <trkpt lat="49.21425" lon="1.1436">
        <ele>121</ele>
        <time>2016-07-10T06:46:47.000Z</time>
      </trkpt>
      <trkpt lat="49.21427" lon="1.14354">
        <ele>121</ele>
        <time>2016-07-10T06:46:48.000Z</time>
      </trkpt>
      <trkpt lat="49.21429" lon="1.14348">
        <ele>120</ele>
        <time>2016-07-10T06:46:49.000Z</time>
      </trkpt>
      <trkpt lat="49.21431" lon="1.14342">
        <ele>120</ele>
        <time>2016-07-10T06:46:50.000Z</time>
      </trkpt>
      <trkpt lat="49.21434" lon="1.14336">
        <ele>120</ele>
        <time>2016-07-10T06:46:51.000Z</time>
      </trkpt>
      <trkpt lat="49.21436" lon="1.1433">
        <ele>120</ele>
        <time>2016-07-10T06:46:52.000Z</time>
      </trkpt>
      <trkpt lat="49.21439" lon="1.14324">
        <ele>120</ele>
        <time>2016-07-10T06:46:53.000Z</time>
      </trkpt>
      <trkpt lat="49.21441" lon="1.14318">
        <ele>120</ele>
        <time>2016-07-10T06:46:54.000Z</time>
      </trkpt>
      <trkpt lat="49.21444" lon="1.14311">
        <ele>120</ele>
        <time>2016-07-10T06:46:55.000Z</time>
      </trkpt>
      <trkpt lat="49.21446" lon="1.14305">
        <ele>120</ele>
        <time>2016-07-10T06:46:56.000Z</time>
      </trkpt>
      <trkpt lat="49.21449" lon="1.14298">
        <ele>119</ele>
        <time>2016-07-10T06:46:57.000Z</time>
      </trkpt>
      <trkpt lat="49.21451" lon="1.14292">
        <ele>119</ele>
        <time>2016-07-10T06:46:58.000Z</time>
      </trkpt>
      <trkpt lat="49.21453" lon="1.14285">
        <ele>119</ele>
        <time>2016-07-10T06:46:59.000Z</time>
      </trkpt>
      <trkpt lat="49.21456" lon="1.14278">
        <ele>119</ele>
        <time>2016-07-10T06:47:00.000Z</time>
      </trkpt>
      <trkpt lat="49.21458" lon="1.14271">
        <ele>119</ele>
        <time>2016-07-10T06:47:01.000Z</time>
      </trkpt>
      <trkpt lat="49.2146" lon="1.14264">
        <ele>119</ele>
        <time>2016-07-10T06:47:02.000Z</time>
      </trkpt>
      <trkpt lat="49.21462" lon="1.14257">
        <ele>119</ele>
        <time>2016-07-10T06:47:03.000Z</time>
      </trkpt>
      <trkpt lat="49.21464" lon="1.14251">
        <ele>119</ele>
        <time>2016-07-10T06:47:04.000Z</time>
      </trkpt>
      <trkpt lat="49.21466" lon="1.14244">
        <ele>119</ele>
        <time>2016-07-10T06:47:05.000Z</time>
      </trkpt>
      <trkpt lat="49.21469" lon="1.14238">
        <ele>119</ele>
        <time>2016-07-10T06:47:06.000Z</time>
      </trkpt>
      <trkpt lat="49.21472" lon="1.14231">
        <ele>119</ele>
        <time>2016-07-10T06:47:07.000Z</time>
      </trkpt>
      <trkpt lat="49.21474" lon="1.14224">
        <ele>119</ele>
        <time>2016-07-10T06:47:08.000Z</time>
      </trkpt>
      <trkpt lat="49.21477" lon="1.14217">
        <ele>119</ele>
        <time>2016-07-10T06:47:09.000Z</time>
      </trkpt>
      <trkpt lat="49.21479" lon="1.1421">
        <ele>119</ele>
        <time>2016-07-10T06:47:10.000Z</time>
      </trkpt>
      <trkpt lat="49.21482" lon="1.14204">
        <ele>119</ele>
        <time>2016-07-10T06:47:11.000Z</time>
      </trkpt>
      <trkpt lat="49.21485" lon="1.14196">
        <ele>119</ele>
        <time>2016-07-10T06:47:12.000Z</time>
      </trkpt>
      <trkpt lat="49.21487" lon="1.14189">
        <ele>120</ele>
        <time>2016-07-10T06:47:13.000Z</time>
      </trkpt>
      <trkpt lat="49.2149" lon="1.14182">
        <ele>120</ele>
        <time>2016-07-10T06:47:14.000Z</time>
      </trkpt>
      <trkpt lat="49.21493" lon="1.14175">
        <ele>120</ele>
        <time>2016-07-10T06:47:15.000Z</time>
      </trkpt>
      <trkpt lat="49.21495" lon="1.14168">
        <ele>120</ele>
        <time>2016-07-10T06:47:16.000Z</time>
      </trkpt>
      <trkpt lat="49.21498" lon="1.14161">
        <ele>120</ele>
        <time>2016-07-10T06:47:17.000Z</time>
      </trkpt>
      <trkpt lat="49.21501" lon="1.14154">
        <ele>120</ele>
        <time>2016-07-10T06:47:18.000Z</time>
      </trkpt>
      <trkpt lat="49.21504" lon="1.14147">
        <ele>120</ele>
        <time>2016-07-10T06:47:19.000Z</time>
      </trkpt>
      <trkpt lat="49.21506" lon="1.1414">
        <ele>120</ele>
        <time>2016-07-10T06:47:20.000Z</time>
      </trkpt>
      <trkpt lat="49.21509" lon="1.14133">
        <ele>120</ele>
        <time>2016-07-10T06:47:21.000Z</time>
      </trkpt>
      <trkpt lat="49.21511" lon="1.14127">
        <ele>120</ele>
        <time>2016-07-10T06:47:22.000Z</time>
      </trkpt>
      <trkpt lat="49.21514" lon="1.1412">
        <ele>120</ele>
        <time>2016-07-10T06:47:23.000Z</time>
      </trkpt>
      <trkpt lat="49.21516" lon="1.14113">
        <ele>120</ele>
        <time>2016-07-10T06:47:24.000Z</time>
      </trkpt>
      <trkpt lat="49.21519" lon="1.14106">
        <ele>120</ele>
        <time>2016-07-10T06:47:25.000Z</time>
      </trkpt>
      <trkpt lat="49.21521" lon="1.14099">
        <ele>120</ele>
        <time>2016-07-10T06:47:26.000Z</time>
      </trkpt>
      <trkpt lat="49.21524" lon="1.14092">
        <ele>120</ele>
        <time>2016-07-10T06:47:27.000Z</time>
      </trkpt>
      <trkpt lat="49.21526" lon="1.14085">
        <ele>120</ele>
        <time>2016-07-10T06:47:28.000Z</time>
      </trkpt>
      <trkpt lat="49.21529" lon="1.14079">
        <ele>120</ele>
        <time>2016-07-10T06:47:29.000Z</time>
      </trkpt>
      <trkpt lat="49.21531" lon="1.14072">
        <ele>120</ele>
        <time>2016-07-10T06:47:30.000Z</time>
      </trkpt>
      <trkpt lat="49.21534" lon="1.14065">
        <ele>120</ele>
        <time>2016-07-10T06:47:31.000Z</time>
      </trkpt>
      <trkpt lat="49.21536" lon="1.14058">
        <ele>121</ele>
        <time>2016-07-10T06:47:32.000Z</time>
      </trkpt>
      <trkpt lat="49.21539" lon="1.14051">
        <ele>121</ele>
        <time>2016-07-10T06:47:33.000Z</time>
      </trkpt>
      <trkpt lat="49.21541" lon="1.14044">
        <ele>120</ele>
        <time>2016-07-10T06:47:34.000Z</time>
      </trkpt>
      <trkpt lat="49.21544" lon="1.14037">
        <ele>120</ele>
        <time>2016-07-10T06:47:35.000Z</time>
      </trkpt>
      <trkpt lat="49.21547" lon="1.1403">
        <ele>120</ele>
        <time>2016-07-10T06:47:36.000Z</time>
      </trkpt>
      <trkpt lat="49.21549" lon="1.14023">
        <ele>120</ele>
        <time>2016-07-10T06:47:37.000Z</time>
      </trkpt>
      <trkpt lat="49.21552" lon="1.14015">
        <ele>120</ele>
        <time>2016-07-10T06:47:38.000Z</time>
      </trkpt>
      <trkpt lat="49.21555" lon="1.14008">
        <ele>120</ele>
        <time>2016-07-10T06:47:39.000Z</time>
      </trkpt>
      <trkpt lat="49.21557" lon="1.14001">
        <ele>120</ele>
        <time>2016-07-10T06:47:40.000Z</time>
      </trkpt>
      <trkpt lat="49.2156" lon="1.13994">
        <ele>120</ele>
        <time>2016-07-10T06:47:41.000Z</time>
      </trkpt>
      <trkpt lat="49.21563" lon="1.13987">
        <ele>120</ele>
        <time>2016-07-10T06:47:42.000Z</time>
      </trkpt>
      <trkpt lat="49.21566" lon="1.1398">
        <ele>120</ele>
        <time>2016-07-10T06:47:43.000Z</time>
      </trkpt>
      <trkpt lat="49.21568" lon="1.13973">
        <ele>120</ele>
        <time>2016-07-10T06:47:44.000Z</time>
      </trkpt>
      <trkpt lat="49.21571" lon="1.13965">
        <ele>120</ele>
        <time>2016-07-10T06:47:45.000Z</time>
      </trkpt>
      <trkpt lat="49.21574" lon="1.13958">
        <ele>120</ele>
        <time>2016-07-10T06:47:46.000Z</time>
      </trkpt>
      <trkpt lat="49.21577" lon="1.1395">
        <ele>120</ele>
        <time>2016-07-10T06:47:47.000Z</time>
      </trkpt>
      <trkpt lat="49.21579" lon="1.13943">
        <ele>120</ele>
        <time>2016-07-10T06:47:48.000Z</time>
      </trkpt>
      <trkpt lat="49.21582" lon="1.13936">
        <ele>120</ele>
        <time>2016-07-10T06:47:49.000Z</time>
      </trkpt>
      <trkpt lat="49.21585" lon="1.13928">
        <ele>120</ele>
        <time>2016-07-10T06:47:50.000Z</time>
      </trkpt>
      <trkpt lat="49.21588" lon="1.13921">
        <ele>119</ele>
        <time>2016-07-10T06:47:51.000Z</time>
      </trkpt>
      <trkpt lat="49.21591" lon="1.13914">
        <ele>119</ele>
        <time>2016-07-10T06:47:52.000Z</time>
      </trkpt>
      <trkpt lat="49.21593" lon="1.13907">
        <ele>119</ele>
        <time>2016-07-10T06:47:53.000Z</time>
      </trkpt>
      <trkpt lat="49.21596" lon="1.13899">
        <ele>119</ele>
        <time>2016-07-10T06:47:54.000Z</time>
      </trkpt>
      <trkpt lat="49.21599" lon="1.13892">
        <ele>119</ele>
        <time>2016-07-10T06:47:55.000Z</time>
      </trkpt>
      <trkpt lat="49.21603" lon="1.13884">
        <ele>119</ele>
        <time>2016-07-10T06:47:56.000Z</time>
      </trkpt>
      <trkpt lat="49.21606" lon="1.13876">
        <ele>119</ele>
        <time>2016-07-10T06:47:57.000Z</time>
      </trkpt>
      <trkpt lat="49.21609" lon="1.13868">
        <ele>118</ele>
        <time>2016-07-10T06:47:58.000Z</time>
      </trkpt>
      <trkpt lat="49.21613" lon="1.1386">
        <ele>118</ele>
        <time>2016-07-10T06:47:59.000Z</time>
      </trkpt>
      <trkpt lat="49.21617" lon="1.13852">
        <ele>118</ele>
        <time>2016-07-10T06:48:00.000Z</time>
      </trkpt>
      <trkpt lat="49.2162" lon="1.13844">
        <ele>118</ele>
        <time>2016-07-10T06:48:01.000Z</time>
      </trkpt>
      <trkpt lat="49.21624" lon="1.13836">
        <ele>118</ele>
        <time>2016-07-10T06:48:02.000Z</time>
      </trkpt>
      <trkpt lat="49.21629" lon="1.13828">
        <ele>118</ele>
        <time>2016-07-10T06:48:03.000Z</time>
      </trkpt>
      <trkpt lat="49.21633" lon="1.1382">
        <ele>118</ele>
        <time>2016-07-10T06:48:04.000Z</time>
      </trkpt>
      <trkpt lat="49.21637" lon="1.13812">
        <ele>117</ele>
        <time>2016-07-10T06:48:05.000Z</time>
      </trkpt>
      <trkpt lat="49.21642" lon="1.13804">
        <ele>117</ele>
        <time>2016-07-10T06:48:06.000Z</time>
      </trkpt>
      <trkpt lat="49.21647" lon="1.13796">
        <ele>117</ele>
        <time>2016-07-10T06:48:07.000Z</time>
      </trkpt>
      <trkpt lat="49.21652" lon="1.13788">
        <ele>117</ele>
        <time>2016-07-10T06:48:08.000Z</time>
      </trkpt>
      <trkpt lat="49.21657" lon="1.1378">
        <ele>116</ele>
        <time>2016-07-10T06:48:09.000Z</time>
      </trkpt>
      <trkpt lat="49.21662" lon="1.13772">
        <ele>116</ele>
        <time>2016-07-10T06:48:10.000Z</time>
      </trkpt>
      <trkpt lat="49.21667" lon="1.13765">
        <ele>116</ele>
        <time>2016-07-10T06:48:11.000Z</time>
      </trkpt>
      <trkpt lat="49.21672" lon="1.13757">
        <ele>116</ele>
        <time>2016-07-10T06:48:12.000Z</time>
      </trkpt>
      <trkpt lat="49.21677" lon="1.1375">
        <ele>116</ele>
        <time>2016-07-10T06:48:13.000Z</time>
      </trkpt>
      <trkpt lat="49.21682" lon="1.13742">
        <ele>115</ele>
        <time>2016-07-10T06:48:14.000Z</time>
      </trkpt>
      <trkpt lat="49.21688" lon="1.13735">
        <ele>115</ele>
        <time>2016-07-10T06:48:15.000Z</time>
      </trkpt>
      <trkpt lat="49.21693" lon="1.13728">
        <ele>115</ele>
        <time>2016-07-10T06:48:16.000Z</time>
      </trkpt>
      <trkpt lat="49.21699" lon="1.13721">
        <ele>115</ele>
        <time>2016-07-10T06:48:17.000Z</time>
      </trkpt>
      <trkpt lat="49.21704" lon="1.13715">
        <ele>115</ele>
        <time>2016-07-10T06:48:18.000Z</time>
      </trkpt>
      <trkpt lat="49.2171" lon="1.13708">
        <ele>115</ele>
        <time>2016-07-10T06:48:19.000Z</time>
      </trkpt>
      <trkpt lat="49.21716" lon="1.13702">
        <ele>115</ele>
        <time>2016-07-10T06:48:20.000Z</time>
      </trkpt>
      <trkpt lat="49.21722" lon="1.13696">
        <ele>115</ele>
        <time>2016-07-10T06:48:21.000Z</time>
      </trkpt>
      <trkpt lat="49.21728" lon="1.1369">
        <ele>115</ele>
        <time>2016-07-10T06:48:22.000Z</time>
      </trkpt>
      <trkpt lat="49.21734" lon="1.13684">
        <ele>115</ele>
        <time>2016-07-10T06:48:23.000Z</time>
      </trkpt>
      <trkpt lat="49.2174" lon="1.13678">
        <ele>115</ele>
        <time>2016-07-10T06:48:24.000Z</time>
      </trkpt>
      <trkpt lat="49.21746" lon="1.13672">
        <ele>115</ele>
        <time>2016-07-10T06:48:25.000Z</time>
      </trkpt>
      <trkpt lat="49.21752" lon="1.13667">
        <ele>115</ele>
        <time>2016-07-10T06:48:26.000Z</time>
      </trkpt>
      <trkpt lat="49.21757" lon="1.13661">
        <ele>115</ele>
        <time>2016-07-10T06:48:27.000Z</time>
      </trkpt>
      <trkpt lat="49.21763" lon="1.13655">
        <ele>115</ele>
        <time>2016-07-10T06:48:28.000Z</time>
      </trkpt>
      <trkpt lat="49.21768" lon="1.1365">
        <ele>115</ele>
        <time>2016-07-10T06:48:29.000Z</time>
      </trkpt>
      <trkpt lat="49.21774" lon="1.13644">
        <ele>115</ele>
        <time>2016-07-10T06:48:30.000Z</time>
      </trkpt>
      <trkpt lat="49.21779" lon="1.13639">
        <ele>116</ele>
        <time>2016-07-10T06:48:31.000Z</time>
      </trkpt>
      <trkpt lat="49.21784" lon="1.13633">
        <ele>116</ele>
        <time>2016-07-10T06:48:32.000Z</time>
      </trkpt>
      <trkpt lat="49.21789" lon="1.13628">
        <ele>116</ele>
        <time>2016-07-10T06:48:33.000Z</time>
      </trkpt>
      <trkpt lat="49.21794" lon="1.13622">
        <ele>116</ele>
        <time>2016-07-10T06:48:34.000Z</time>
      </trkpt>
      <trkpt lat="49.21799" lon="1.13617">
        <ele>116</ele>
        <time>2016-07-10T06:48:35.000Z</time>
      </trkpt>
      <trkpt lat="49.21804" lon="1.13611">
        <ele>116</ele>
        <time>2016-07-10T06:48:36.000Z</time>
      </trkpt>
      <trkpt lat="49.21808" lon="1.13606">
        <ele>116</ele>
        <time>2016-07-10T06:48:37.000Z</time>
      </trkpt>
      <trkpt lat="49.21813" lon="1.13601">
        <ele>117</ele>
        <time>2016-07-10T06:48:38.000Z</time>
      </trkpt>
      <trkpt lat="49.21818" lon="1.13595">
        <ele>117</ele>
        <time>2016-07-10T06:48:39.000Z</time>
      </trkpt>
      <trkpt lat="49.21823" lon="1.1359">
        <ele>117</ele>
        <time>2016-07-10T06:48:40.000Z</time>
      </trkpt>
      <trkpt lat="49.21827" lon="1.13584">
        <ele>117</ele>
        <time>2016-07-10T06:48:41.000Z</time>
      </trkpt>
      <trkpt lat="49.21832" lon="1.13579">
        <ele>117</ele>
        <time>2016-07-10T06:48:42.000Z</time>
      </trkpt>
      <trkpt lat="49.21837" lon="1.13574">
        <ele>118</ele>
        <time>2016-07-10T06:48:43.000Z</time>
      </trkpt>
      <trkpt lat="49.21842" lon="1.13569">
        <ele>118</ele>
        <time>2016-07-10T06:48:44.000Z</time>
      </trkpt>
      <trkpt lat="49.21847" lon="1.13564">
        <ele>118</ele>
        <time>2016-07-10T06:48:45.000Z</time>
      </trkpt>
      <trkpt lat="49.21851" lon="1.13558">
        <ele>118</ele>
        <time>2016-07-10T06:48:46.000Z</time>
      </trkpt>
      <trkpt lat="49.21856" lon="1.13553">
        <ele>118</ele>
        <time>2016-07-10T06:48:47.000Z</time>
      </trkpt>
      <trkpt lat="49.2186" lon="1.13547">
        <ele>118</ele>
        <time>2016-07-10T06:48:48.000Z</time>
      </trkpt>
      <trkpt lat="49.21865" lon="1.13541">
        <ele>118</ele>
        <time>2016-07-10T06:48:49.000Z</time>
      </trkpt>
      <trkpt lat="49.21869" lon="1.13535">
        <ele>118</ele>
        <time>2016-07-10T06:48:50.000Z</time>
      </trkpt>
      <trkpt lat="49.21874" lon="1.13529">
        <ele>118</ele>
        <time>2016-07-10T06:48:51.000Z</time>
      </trkpt>
      <trkpt lat="49.21878" lon="1.13523">
        <ele>118</ele>
        <time>2016-07-10T06:48:52.000Z</time>
      </trkpt>
      <trkpt lat="49.21883" lon="1.13517">
        <ele>118</ele>
        <time>2016-07-10T06:48:53.000Z</time>
      </trkpt>
      <trkpt lat="49.21888" lon="1.13511">
        <ele>118</ele>
        <time>2016-07-10T06:48:54.000Z</time>
      </trkpt>
      <trkpt lat="49.21892" lon="1.13505">
        <ele>118</ele>
        <time>2016-07-10T06:48:55.000Z</time>
      </trkpt>
      <trkpt lat="49.21897" lon="1.13499">
        <ele>118</ele>
        <time>2016-07-10T06:48:56.000Z</time>
      </trkpt>
      <trkpt lat="49.21901" lon="1.13493">
        <ele>118</ele>
        <time>2016-07-10T06:48:57.000Z</time>
      </trkpt>
      <trkpt lat="49.21906" lon="1.13487">
        <ele>118</ele>
        <time>2016-07-10T06:48:58.000Z</time>
      </trkpt>
      <trkpt lat="49.2191" lon="1.1348">
        <ele>118</ele>
        <time>2016-07-10T06:48:59.000Z</time>
      </trkpt>
      <trkpt lat="49.21915" lon="1.13474">
        <ele>118</ele>
        <time>2016-07-10T06:49:00.000Z</time>
      </trkpt>
      <trkpt lat="49.21919" lon="1.13468">
        <ele>118</ele>
        <time>2016-07-10T06:49:01.000Z</time>
      </trkpt>
      <trkpt lat="49.21924" lon="1.13462">
        <ele>118</ele>
        <time>2016-07-10T06:49:02.000Z</time>
      </trkpt>
      <trkpt lat="49.21928" lon="1.13456">
        <ele>118</ele>
        <time>2016-07-10T06:49:03.000Z</time>
      </trkpt>
      <trkpt lat="49.21933" lon="1.1345">
        <ele>117</ele>
        <time>2016-07-10T06:49:04.000Z</time>
      </trkpt>
      <trkpt lat="49.21938" lon="1.13444">
        <ele>117</ele>
        <time>2016-07-10T06:49:05.000Z</time>
      </trkpt>
      <trkpt lat="49.21942" lon="1.13437">
        <ele>117</ele>
        <time>2016-07-10T06:49:06.000Z</time>
      </trkpt>
      <trkpt lat="49.21947" lon="1.13431">
        <ele>118</ele>
        <time>2016-07-10T06:49:07.000Z</time>
      </trkpt>
      <trkpt lat="49.21951" lon="1.13425">
        <ele>118</ele>
        <time>2016-07-10T06:49:08.000Z</time>
      </trkpt>
      <trkpt lat="49.21956" lon="1.13419">
        <ele>118</ele>
        <time>2016-07-10T06:49:09.000Z</time>
      </trkpt>
      <trkpt lat="49.2196" lon="1.13413">
        <ele>118</ele>
        <time>2016-07-10T06:49:10.000Z</time>
      </trkpt>
      <trkpt lat="49.21965" lon="1.13407">
        <ele>118</ele>
        <time>2016-07-10T06:49:11.000Z</time>
      </trkpt>
      <trkpt lat="49.21969" lon="1.13401">
        <ele>118</ele>
        <time>2016-07-10T06:49:12.000Z</time>
      </trkpt>
      <trkpt lat="49.21974" lon="1.13395">
        <ele>118</ele>
        <time>2016-07-10T06:49:13.000Z</time>
      </trkpt>
      <trkpt lat="49.21978" lon="1.13389">
        <ele>117</ele>
        <time>2016-07-10T06:49:14.000Z</time>
      </trkpt>
      <trkpt lat="49.21983" lon="1.13382">
        <ele>117</ele>
        <time>2016-07-10T06:49:15.000Z</time>
      </trkpt>
      <trkpt lat="49.21988" lon="1.13376">
        <ele>117</ele>
        <time>2016-07-10T06:49:16.000Z</time>
      </trkpt>
      <trkpt lat="49.21992" lon="1.1337">
        <ele>117</ele>
        <time>2016-07-10T06:49:17.000Z</time>
      </trkpt>
      <trkpt lat="49.21997" lon="1.13364">
        <ele>117</ele>
        <time>2016-07-10T06:49:18.000Z</time>
      </trkpt>
      <trkpt lat="49.22001" lon="1.13358">
        <ele>117</ele>
        <time>2016-07-10T06:49:19.000Z</time>
      </trkpt>
      <trkpt lat="49.22006" lon="1.13352">
        <ele>117</ele>
        <time>2016-07-10T06:49:20.000Z</time>
      </trkpt>
      <trkpt lat="49.22011" lon="1.13345">
        <ele>117</ele>
        <time>2016-07-10T06:49:21.000Z</time>
      </trkpt>
      <trkpt lat="49.22015" lon="1.13339">
        <ele>117</ele>
        <time>2016-07-10T06:49:22.000Z</time>
      </trkpt>
      <trkpt lat="49.2202" lon="1.13332">
        <ele>116</ele>
        <time>2016-07-10T06:49:23.000Z</time>
      </trkpt>
      <trkpt lat="49.22025" lon="1.13326">
        <ele>116</ele>
        <time>2016-07-10T06:49:24.000Z</time>
      </trkpt>
      <trkpt lat="49.2203" lon="1.13319">
        <ele>116</ele>
        <time>2016-07-10T06:49:25.000Z</time>
      </trkpt>
      <trkpt lat="49.22035" lon="1.13313">
        <ele>116</ele>
        <time>2016-07-10T06:49:26.000Z</time>
      </trkpt>
      <trkpt lat="49.2204" lon="1.13306">
        <ele>116</ele>
        <time>2016-07-10T06:49:27.000Z</time>
      </trkpt>
      <trkpt lat="49.22046" lon="1.133">
        <ele>116</ele>
        <time>2016-07-10T06:49:28.000Z</time>
      </trkpt>
      <trkpt lat="49.22051" lon="1.13294">
        <ele>115</ele>
        <time>2016-07-10T06:49:29.000Z</time>
      </trkpt>
      <trkpt lat="49.22057" lon="1.13289">
        <ele>115</ele>
        <time>2016-07-10T06:49:30.000Z</time>
      </trkpt>
      <trkpt lat="49.22063" lon="1.13284">
        <ele>115</ele>
        <time>2016-07-10T06:49:31.000Z</time>
      </trkpt>
      <trkpt lat="49.2207" lon="1.13279">
        <ele>114</ele>
        <time>2016-07-10T06:49:32.000Z</time>
      </trkpt>
      <trkpt lat="49.22076" lon="1.13274">
        <ele>114</ele>
        <time>2016-07-10T06:49:33.000Z</time>
      </trkpt>
      <trkpt lat="49.22083" lon="1.13268">
        <ele>113</ele>
        <time>2016-07-10T06:49:34.000Z</time>
      </trkpt>
      <trkpt lat="49.22089" lon="1.13263">
        <ele>113</ele>
        <time>2016-07-10T06:49:35.000Z</time>
      </trkpt>
      <trkpt lat="49.22096" lon="1.13257">
        <ele>113</ele>
        <time>2016-07-10T06:49:36.000Z</time>
      </trkpt>
      <trkpt lat="49.22103" lon="1.13252">
        <ele>112</ele>
        <time>2016-07-10T06:49:37.000Z</time>
      </trkpt>
      <trkpt lat="49.2211" lon="1.13246">
        <ele>111</ele>
        <time>2016-07-10T06:49:38.000Z</time>
      </trkpt>
      <trkpt lat="49.22118" lon="1.13241">
        <ele>111</ele>
        <time>2016-07-10T06:49:39.000Z</time>
      </trkpt>
      <trkpt lat="49.22125" lon="1.13235">
        <ele>110</ele>
        <time>2016-07-10T06:49:40.000Z</time>
      </trkpt>
      <trkpt lat="49.22132" lon="1.1323">
        <ele>109</ele>
        <time>2016-07-10T06:49:41.000Z</time>
      </trkpt>
      <trkpt lat="49.2214" lon="1.13224">
        <ele>109</ele>
        <time>2016-07-10T06:49:42.000Z</time>
      </trkpt>
      <trkpt lat="49.22147" lon="1.13218">
        <ele>109</ele>
        <time>2016-07-10T06:49:43.000Z</time>
      </trkpt>
      <trkpt lat="49.22155" lon="1.13212">
        <ele>108</ele>
        <time>2016-07-10T06:49:44.000Z</time>
      </trkpt>
      <trkpt lat="49.22163" lon="1.13206">
        <ele>108</ele>
        <time>2016-07-10T06:49:45.000Z</time>
      </trkpt>
      <trkpt lat="49.2217" lon="1.132">
        <ele>107</ele>
        <time>2016-07-10T06:49:46.000Z</time>
      </trkpt>
      <trkpt lat="49.22177" lon="1.13195">
        <ele>107</ele>
        <time>2016-07-10T06:49:47.000Z</time>
      </trkpt>
      <trkpt lat="49.22184" lon="1.13189">
        <ele>107</ele>
        <time>2016-07-10T06:49:48.000Z</time>
      </trkpt>
      <trkpt lat="49.2219" lon="1.13184">
        <ele>107</ele>
        <time>2016-07-10T06:49:49.000Z</time>
      </trkpt>
      <trkpt lat="49.22195" lon="1.13179">
        <ele>107</ele>
        <time>2016-07-10T06:49:50.000Z</time>
      </trkpt>
      <trkpt lat="49.22201" lon="1.13174">
        <ele>106</ele>
        <time>2016-07-10T06:49:51.000Z</time>
      </trkpt>
      <trkpt lat="49.22206" lon="1.1317">
        <ele>106</ele>
        <time>2016-07-10T06:49:52.000Z</time>
      </trkpt>
      <trkpt lat="49.2221" lon="1.13165">
        <ele>106</ele>
        <time>2016-07-10T06:49:53.000Z</time>
      </trkpt>
      <trkpt lat="49.22215" lon="1.1316">
        <ele>106</ele>
        <time>2016-07-10T06:49:54.000Z</time>
      </trkpt>
      <trkpt lat="49.22219" lon="1.13156">
        <ele>105</ele>
        <time>2016-07-10T06:49:55.000Z</time>
      </trkpt>
      <trkpt lat="49.22222" lon="1.13151">
        <ele>105</ele>
        <time>2016-07-10T06:49:56.000Z</time>
      </trkpt>
      <trkpt lat="49.22225" lon="1.13147">
        <ele>105</ele>
        <time>2016-07-10T06:49:57.000Z</time>
      </trkpt>
      <trkpt lat="49.22228" lon="1.13143">
        <ele>105</ele>
        <time>2016-07-10T06:49:58.000Z</time>
      </trkpt>
      <trkpt lat="49.22231" lon="1.13138">
        <ele>105</ele>
        <time>2016-07-10T06:49:59.000Z</time>
      </trkpt>
      <trkpt lat="49.22233" lon="1.13133">
        <ele>105</ele>
        <time>2016-07-10T06:50:00.000Z</time>
      </trkpt>
      <trkpt lat="49.22235" lon="1.13128">
        <ele>105</ele>
        <time>2016-07-10T06:50:01.000Z</time>
      </trkpt>
      <trkpt lat="49.22237" lon="1.13123">
        <ele>105</ele>
        <time>2016-07-10T06:50:02.000Z</time>
      </trkpt>
      <trkpt lat="49.22239" lon="1.13118">
        <ele>105</ele>
        <time>2016-07-10T06:50:03.000Z</time>
      </trkpt>
      <trkpt lat="49.2224" lon="1.13113">
        <ele>105</ele>
        <time>2016-07-10T06:50:04.000Z</time>
      </trkpt>
      <trkpt lat="49.22241" lon="1.13108">
        <ele>105</ele>
        <time>2016-07-10T06:50:05.000Z</time>
      </trkpt>
      <trkpt lat="49.22242" lon="1.13102">
        <ele>105</ele>
        <time>2016-07-10T06:50:06.000Z</time>
      </trkpt>
      <trkpt lat="49.22242" lon="1.13097">
        <ele>106</ele>
        <time>2016-07-10T06:50:07.000Z</time>
      </trkpt>
      <trkpt lat="49.22241" lon="1.13091">
        <ele>105</ele>
        <time>2016-07-10T06:50:08.000Z</time>
      </trkpt>
      <trkpt lat="49.22239" lon="1.13085">
        <ele>105</ele>
        <time>2016-07-10T06:50:09.000Z</time>
      </trkpt>
      <trkpt lat="49.22238" lon="1.13079">
        <ele>105</ele>
        <time>2016-07-10T06:50:10.000Z</time>
      </trkpt>
      <trkpt lat="49.22237" lon="1.13072">
        <ele>105</ele>
        <time>2016-07-10T06:50:11.000Z</time>
      </trkpt>
      <trkpt lat="49.22235" lon="1.13064">
        <ele>105</ele>
        <time>2016-07-10T06:50:12.000Z</time>
      </trkpt>
      <trkpt lat="49.22232" lon="1.13055">
        <ele>105</ele>
        <time>2016-07-10T06:50:13.000Z</time>
      </trkpt>
      <trkpt lat="49.2223" lon="1.13045">
        <ele>105</ele>
        <time>2016-07-10T06:50:14.000Z</time>
      </trkpt>
      <trkpt lat="49.22227" lon="1.13036">
        <ele>105</ele>
        <time>2016-07-10T06:50:15.000Z</time>
      </trkpt>
      <trkpt lat="49.22225" lon="1.13028">
        <ele>105</ele>
        <time>2016-07-10T06:50:16.000Z</time>
      </trkpt>
      <trkpt lat="49.22223" lon="1.13019">
        <ele>104</ele>
        <time>2016-07-10T06:50:17.000Z</time>
      </trkpt>
      <trkpt lat="49.22221" lon="1.13011">
        <ele>105</ele>
        <time>2016-07-10T06:50:18.000Z</time>
      </trkpt>
      <trkpt lat="49.22219" lon="1.13002">
        <ele>104</ele>
        <time>2016-07-10T06:50:19.000Z</time>
      </trkpt>
      <trkpt lat="49.22218" lon="1.12994">
        <ele>104</ele>
        <time>2016-07-10T06:50:20.000Z</time>
      </trkpt>
      <trkpt lat="49.22215" lon="1.12987">
        <ele>104</ele>
        <time>2016-07-10T06:50:21.000Z</time>
      </trkpt>
      <trkpt lat="49.22213" lon="1.12979">
        <ele>100</ele>
        <time>2016-07-10T06:50:22.000Z</time>
      </trkpt>
      <trkpt lat="49.2221" lon="1.12971">
        <ele>99</ele>
        <time>2016-07-10T06:50:23.000Z</time>
      </trkpt>
      <trkpt lat="49.22207" lon="1.12964">
        <ele>99</ele>
        <time>2016-07-10T06:50:24.000Z</time>
      </trkpt>
      <trkpt lat="49.22205" lon="1.12956">
        <ele>99</ele>
        <time>2016-07-10T06:50:25.000Z</time>
      </trkpt>
      <trkpt lat="49.22203" lon="1.12947">
        <ele>99</ele>
        <time>2016-07-10T06:50:26.000Z</time>
      </trkpt>
      <trkpt lat="49.222" lon="1.12938">
        <ele>101</ele>
        <time>2016-07-10T06:50:27.000Z</time>
      </trkpt>
      <trkpt lat="49.22197" lon="1.12929">
        <ele>102</ele>
        <time>2016-07-10T06:50:28.000Z</time>
      </trkpt>
      <trkpt lat="49.22195" lon="1.12919">
        <ele>103</ele>
        <time>2016-07-10T06:50:29.000Z</time>
      </trkpt>
      <trkpt lat="49.22193" lon="1.1291">
        <ele>103</ele>
        <time>2016-07-10T06:50:30.000Z</time>
      </trkpt>
      <trkpt lat="49.2219" lon="1.12901">
        <ele>104</ele>
        <time>2016-07-10T06:50:31.000Z</time>
      </trkpt>
      <trkpt lat="49.22187" lon="1.12893">
        <ele>105</ele>
        <time>2016-07-10T06:50:32.000Z</time>
      </trkpt>
      <trkpt lat="49.22183" lon="1.12885">
        <ele>105</ele>
        <time>2016-07-10T06:50:33.000Z</time>
      </trkpt>
      <trkpt lat="49.2218" lon="1.12877">
        <ele>106</ele>
        <time>2016-07-10T06:50:34.000Z</time>
      </trkpt>
      <trkpt lat="49.22176" lon="1.1287">
        <ele>105</ele>
        <time>2016-07-10T06:50:35.000Z</time>
      </trkpt>
      <trkpt lat="49.22174" lon="1.12863">
        <ele>105</ele>
        <time>2016-07-10T06:50:36.000Z</time>
      </trkpt>
      <trkpt lat="49.22172" lon="1.12855">
        <ele>104</ele>
        <time>2016-07-10T06:50:37.000Z</time>
      </trkpt>
      <trkpt lat="49.22171" lon="1.12848">
        <ele>103</ele>
        <time>2016-07-10T06:50:38.000Z</time>
      </trkpt>
      <trkpt lat="49.22172" lon="1.1284">
        <ele>101</ele>
        <time>2016-07-10T06:50:39.000Z</time>
      </trkpt>
      <trkpt lat="49.22173" lon="1.12831">
        <ele>98</ele>
        <time>2016-07-10T06:50:40.000Z</time>
      </trkpt>
      <trkpt lat="49.22176" lon="1.12822">
        <ele>97</ele>
        <time>2016-07-10T06:50:41.000Z</time>
      </trkpt>
      <trkpt lat="49.22179" lon="1.12811">
        <ele>96</ele>
        <time>2016-07-10T06:50:42.000Z</time>
      </trkpt>
      <trkpt lat="49.22182" lon="1.12801">
        <ele>97</ele>
        <time>2016-07-10T06:50:43.000Z</time>
      </trkpt>
      <trkpt lat="49.22184" lon="1.12789">
        <ele>97</ele>
        <time>2016-07-10T06:50:44.000Z</time>
      </trkpt>
      <trkpt lat="49.22185" lon="1.12777">
        <ele>98</ele>
        <time>2016-07-10T06:50:45.000Z</time>
      </trkpt>
      <trkpt lat="49.22185" lon="1.12765">
        <ele>100</ele>
        <time>2016-07-10T06:50:46.000Z</time>
      </trkpt>
      <trkpt lat="49.22185" lon="1.12753">
        <ele>101</ele>
        <time>2016-07-10T06:50:47.000Z</time>
      </trkpt>
      <trkpt lat="49.22184" lon="1.12742">
        <ele>102</ele>
        <time>2016-07-10T06:50:48.000Z</time>
      </trkpt>
      <trkpt lat="49.22184" lon="1.12732">
        <ele>102</ele>
        <time>2016-07-10T06:50:49.000Z</time>
      </trkpt>
      <trkpt lat="49.22184" lon="1.12723">
        <ele>102</ele>
        <time>2016-07-10T06:50:50.000Z</time>
      </trkpt>
      <trkpt lat="49.22184" lon="1.12715">
        <ele>103</ele>
        <time>2016-07-10T06:50:51.000Z</time>
      </trkpt>
      <trkpt lat="49.22184" lon="1.12707">
        <ele>102</ele>
        <time>2016-07-10T06:50:52.000Z</time>
      </trkpt>
      <trkpt lat="49.22183" lon="1.127">
        <ele>103</ele>
        <time>2016-07-10T06:50:53.000Z</time>
      </trkpt>
      <trkpt lat="49.22183" lon="1.12693">
        <ele>106</ele>
        <time>2016-07-10T06:50:54.000Z</time>
      </trkpt>
      <trkpt lat="49.22182" lon="1.12685">
        <ele>107</ele>
        <time>2016-07-10T06:50:55.000Z</time>
      </trkpt>
      <trkpt lat="49.22182" lon="1.12678">
        <ele>108</ele>
        <time>2016-07-10T06:50:56.000Z</time>
      </trkpt>
      <trkpt lat="49.22182" lon="1.12673">
        <ele>108</ele>
        <time>2016-07-10T06:50:57.000Z</time>
      </trkpt>
      <trkpt lat="49.22182" lon="1.12669">
        <ele>109</ele>
        <time>2016-07-10T06:50:58.000Z</time>
      </trkpt>
      <trkpt lat="49.22181" lon="1.12665">
        <ele>110</ele>
        <time>2016-07-10T06:50:59.000Z</time>
      </trkpt>
      <trkpt lat="49.22181" lon="1.12661">
        <ele>111</ele>
        <time>2016-07-10T06:51:00.000Z</time>
      </trkpt>
      <trkpt lat="49.22181" lon="1.12657">
        <ele>111</ele>
        <time>2016-07-10T06:51:01.000Z</time>
      </trkpt>
      <trkpt lat="49.2218" lon="1.12653">
        <ele>111</ele>
        <time>2016-07-10T06:51:02.000Z</time>
      </trkpt>
      <trkpt lat="49.2218" lon="1.12649">
        <ele>112</ele>
        <time>2016-07-10T06:51:03.000Z</time>
      </trkpt>
      <trkpt lat="49.22179" lon="1.12645">
        <ele>112</ele>
        <time>2016-07-10T06:51:04.000Z</time>
      </trkpt>
      <trkpt lat="49.22179" lon="1.12642">
        <ele>113</ele>
        <time>2016-07-10T06:51:05.000Z</time>
      </trkpt>
      <trkpt lat="49.22178" lon="1.12639">
        <ele>112</ele>
        <time>2016-07-10T06:51:06.000Z</time>
      </trkpt>
      <trkpt lat="49.22178" lon="1.12636">
        <ele>112</ele>
        <time>2016-07-10T06:51:07.000Z</time>
      </trkpt>
      <trkpt lat="49.22178" lon="1.12633">
        <ele>113</ele>
        <time>2016-07-10T06:51:08.000Z</time>
      </trkpt>
      <trkpt lat="49.22178" lon="1.1263">
        <ele>113</ele>
        <time>2016-07-10T06:51:09.000Z</time>
      </trkpt>
      <trkpt lat="49.22178" lon="1.12627">
        <ele>114</ele>
        <time>2016-07-10T06:51:10.000Z</time>
      </trkpt>
      <trkpt lat="49.22178" lon="1.12625">
        <ele>114</ele>
        <time>2016-07-10T06:51:11.000Z</time>
      </trkpt>
      <trkpt lat="49.22178" lon="1.12621">
        <ele>116</ele>
        <time>2016-07-10T06:51:12.000Z</time>
      </trkpt>
      <trkpt lat="49.22178" lon="1.12618">
        <ele>117</ele>
        <time>2016-07-10T06:51:13.000Z</time>
      </trkpt>
      <trkpt lat="49.22178" lon="1.12615">
        <ele>117</ele>
        <time>2016-07-10T06:51:14.000Z</time>
      </trkpt>
      <trkpt lat="49.22177" lon="1.12612">
        <ele>118</ele>
        <time>2016-07-10T06:51:15.000Z</time>
      </trkpt>
      <trkpt lat="49.22177" lon="1.12609">
        <ele>117</ele>
        <time>2016-07-10T06:51:16.000Z</time>
      </trkpt>
      <trkpt lat="49.22178" lon="1.12605">
        <ele>117</ele>
        <time>2016-07-10T06:51:17.000Z</time>
      </trkpt>
      <trkpt lat="49.22178" lon="1.12601">
        <ele>118</ele>
        <time>2016-07-10T06:51:18.000Z</time>
      </trkpt>
      <trkpt lat="49.22179" lon="1.12596">
        <ele>119</ele>
        <time>2016-07-10T06:51:19.000Z</time>
      </trkpt>
      <trkpt lat="49.22179" lon="1.1259">
        <ele>120</ele>
        <time>2016-07-10T06:51:20.000Z</time>
      </trkpt>
      <trkpt lat="49.22178" lon="1.12583">
        <ele>120</ele>
        <time>2016-07-10T06:51:21.000Z</time>
      </trkpt>
      <trkpt lat="49.22178" lon="1.12577">
        <ele>120</ele>
        <time>2016-07-10T06:51:22.000Z</time>
      </trkpt>
      <trkpt lat="49.22178" lon="1.1257">
        <ele>120</ele>
        <time>2016-07-10T06:51:23.000Z</time>
      </trkpt>
      <trkpt lat="49.22178" lon="1.12563">
        <ele>120</ele>
        <time>2016-07-10T06:51:24.000Z</time>
      </trkpt>
      <trkpt lat="49.22177" lon="1.12555">
        <ele>120</ele>
        <time>2016-07-10T06:51:25.000Z</time>
      </trkpt>
      <trkpt lat="49.22177" lon="1.12547">
        <ele>120</ele>
        <time>2016-07-10T06:51:26.000Z</time>
      </trkpt>
      <trkpt lat="49.22177" lon="1.1254">
        <ele>120</ele>
        <time>2016-07-10T06:51:27.000Z</time>
      </trkpt>
      <trkpt lat="49.22176" lon="1.12532">
        <ele>120</ele>
        <time>2016-07-10T06:51:28.000Z</time>
      </trkpt>
      <trkpt lat="49.22176" lon="1.12524">
        <ele>120</ele>
        <time>2016-07-10T06:51:29.000Z</time>
      </trkpt>
      <trkpt lat="49.22176" lon="1.12517">
        <ele>120</ele>
        <time>2016-07-10T06:51:30.000Z</time>
      </trkpt>
      <trkpt lat="49.22175" lon="1.12509">
        <ele>120</ele>
        <time>2016-07-10T06:51:31.000Z</time>
      </trkpt>
      <trkpt lat="49.22175" lon="1.12502">
        <ele>121</ele>
        <time>2016-07-10T06:51:32.000Z</time>
      </trkpt>
      <trkpt lat="49.22175" lon="1.12494">
        <ele>121</ele>
        <time>2016-07-10T06:51:33.000Z</time>
      </trkpt>
      <trkpt lat="49.22174" lon="1.12487">
        <ele>121</ele>
        <time>2016-07-10T06:51:34.000Z</time>
      </trkpt>
      <trkpt lat="49.22174" lon="1.1248">
        <ele>121</ele>
        <time>2016-07-10T06:51:35.000Z</time>
      </trkpt>
      <trkpt lat="49.22174" lon="1.12472">
        <ele>121</ele>
        <time>2016-07-10T06:51:36.000Z</time>
      </trkpt>
      <trkpt lat="49.22174" lon="1.12465">
        <ele>120</ele>
        <time>2016-07-10T06:51:37.000Z</time>
      </trkpt>
      <trkpt lat="49.22174" lon="1.12457">
        <ele>120</ele>
        <time>2016-07-10T06:51:38.000Z</time>
      </trkpt>
      <trkpt lat="49.22174" lon="1.1245">
        <ele>120</ele>
        <time>2016-07-10T06:51:39.000Z</time>
      </trkpt>
      <trkpt lat="49.22174" lon="1.12443">
        <ele>120</ele>
        <time>2016-07-10T06:51:40.000Z</time>
      </trkpt>
      <trkpt lat="49.22175" lon="1.12436">
        <ele>120</ele>
        <time>2016-07-10T06:51:41.000Z</time>
      </trkpt>
      <trkpt lat="49.22175" lon="1.1243">
        <ele>120</ele>
        <time>2016-07-10T06:51:42.000Z</time>
      </trkpt>
      <trkpt lat="49.22176" lon="1.12423">
        <ele>121</ele>
        <time>2016-07-10T06:51:43.000Z</time>
      </trkpt>
      <trkpt lat="49.22177" lon="1.12416">
        <ele>120</ele>
        <time>2016-07-10T06:51:44.000Z</time>
      </trkpt>
      <trkpt lat="49.22178" lon="1.12409">
        <ele>120</ele>
        <time>2016-07-10T06:51:45.000Z</time>
      </trkpt>
      <trkpt lat="49.22179" lon="1.12402">
        <ele>120</ele>
        <time>2016-07-10T06:51:46.000Z</time>
      </trkpt>
      <trkpt lat="49.2218" lon="1.12395">
        <ele>121</ele>
        <time>2016-07-10T06:51:47.000Z</time>
      </trkpt>
      <trkpt lat="49.22181" lon="1.12389">
        <ele>119</ele>
        <time>2016-07-10T06:51:48.000Z</time>
      </trkpt>
      <trkpt lat="49.22182" lon="1.12382">
        <ele>119</ele>
        <time>2016-07-10T06:51:49.000Z</time>
      </trkpt>
      <trkpt lat="49.22183" lon="1.12375">
        <ele>118</ele>
        <time>2016-07-10T06:51:50.000Z</time>
      </trkpt>
      <trkpt lat="49.22184" lon="1.12368">
        <ele>119</ele>
        <time>2016-07-10T06:51:51.000Z</time>
      </trkpt>
      <trkpt lat="49.22186" lon="1.12362">
        <ele>119</ele>
        <time>2016-07-10T06:51:52.000Z</time>
      </trkpt>
      <trkpt lat="49.22187" lon="1.12355">
        <ele>121</ele>
        <time>2016-07-10T06:51:53.000Z</time>
      </trkpt>
      <trkpt lat="49.22188" lon="1.12348">
        <ele>122</ele>
        <time>2016-07-10T06:51:54.000Z</time>
      </trkpt>
      <trkpt lat="49.22189" lon="1.12341">
        <ele>123</ele>
        <time>2016-07-10T06:51:55.000Z</time>
      </trkpt>
      <trkpt lat="49.2219" lon="1.12335">
        <ele>122</ele>
        <time>2016-07-10T06:51:56.000Z</time>
      </trkpt>
      <trkpt lat="49.22192" lon="1.12328">
        <ele>122</ele>
        <time>2016-07-10T06:51:57.000Z</time>
      </trkpt>
      <trkpt lat="49.22193" lon="1.12321">
        <ele>122</ele>
        <time>2016-07-10T06:51:58.000Z</time>
      </trkpt>
      <trkpt lat="49.22194" lon="1.12314">
        <ele>122</ele>
        <time>2016-07-10T06:51:59.000Z</time>
      </trkpt>
      <trkpt lat="49.22195" lon="1.12307">
        <ele>122</ele>
        <time>2016-07-10T06:52:00.000Z</time>
      </trkpt>
      <trkpt lat="49.22196" lon="1.12301">
        <ele>121</ele>
        <time>2016-07-10T06:52:01.000Z</time>
      </trkpt>
      <trkpt lat="49.22197" lon="1.12294">
        <ele>121</ele>
        <time>2016-07-10T06:52:02.000Z</time>
      </trkpt>
      <trkpt lat="49.22198" lon="1.12288">
        <ele>120</ele>
        <time>2016-07-10T06:52:03.000Z</time>
      </trkpt>
      <trkpt lat="49.22199" lon="1.12281">
        <ele>120</ele>
        <time>2016-07-10T06:52:04.000Z</time>
      </trkpt>
      <trkpt lat="49.222" lon="1.12274">
        <ele>120</ele>
        <time>2016-07-10T06:52:05.000Z</time>
      </trkpt>
      <trkpt lat="49.22201" lon="1.12267">
        <ele>120</ele>
        <time>2016-07-10T06:52:06.000Z</time>
      </trkpt>
      <trkpt lat="49.22202" lon="1.1226">
        <ele>121</ele>
        <time>2016-07-10T06:52:07.000Z</time>
      </trkpt>
      <trkpt lat="49.22203" lon="1.12253">
        <ele>121</ele>
        <time>2016-07-10T06:52:08.000Z</time>
      </trkpt>
      <trkpt lat="49.22204" lon="1.12245">
        <ele>122</ele>
        <time>2016-07-10T06:52:09.000Z</time>
      </trkpt>
      <trkpt lat="49.22205" lon="1.12238">
        <ele>123</ele>
        <time>2016-07-10T06:52:10.000Z</time>
      </trkpt>
      <trkpt lat="49.22206" lon="1.12231">
        <ele>124</ele>
        <time>2016-07-10T06:52:11.000Z</time>
      </trkpt>
      <trkpt lat="49.22207" lon="1.12223">
        <ele>124</ele>
        <time>2016-07-10T06:52:12.000Z</time>
      </trkpt>
      <trkpt lat="49.22208" lon="1.12215">
        <ele>124</ele>
        <time>2016-07-10T06:52:13.000Z</time>
      </trkpt>
      <trkpt lat="49.22209" lon="1.12207">
        <ele>125</ele>
        <time>2016-07-10T06:52:14.000Z</time>
      </trkpt>
      <trkpt lat="49.2221" lon="1.12199">
        <ele>126</ele>
        <time>2016-07-10T06:52:15.000Z</time>
      </trkpt>
      <trkpt lat="49.2221" lon="1.12191">
        <ele>127</ele>
        <time>2016-07-10T06:52:16.000Z</time>
      </trkpt>
      <trkpt lat="49.22211" lon="1.12183">
        <ele>127</ele>
        <time>2016-07-10T06:52:17.000Z</time>
      </trkpt>
      <trkpt lat="49.22213" lon="1.12175">
        <ele>126</ele>
        <time>2016-07-10T06:52:18.000Z</time>
      </trkpt>
      <trkpt lat="49.22214" lon="1.12167">
        <ele>127</ele>
        <time>2016-07-10T06:52:19.000Z</time>
      </trkpt>
      <trkpt lat="49.22215" lon="1.1216">
        <ele>127</ele>
        <time>2016-07-10T06:52:20.000Z</time>
      </trkpt>
      <trkpt lat="49.22216" lon="1.12152">
        <ele>127</ele>
        <time>2016-07-10T06:52:21.000Z</time>
      </trkpt>
      <trkpt lat="49.22218" lon="1.12145">
        <ele>127</ele>
        <time>2016-07-10T06:52:22.000Z</time>
      </trkpt>
      <trkpt lat="49.22219" lon="1.12137">
        <ele>127</ele>
        <time>2016-07-10T06:52:23.000Z</time>
      </trkpt>
      <trkpt lat="49.2222" lon="1.1213">
        <ele>126</ele>
        <time>2016-07-10T06:52:24.000Z</time>
      </trkpt>
      <trkpt lat="49.22221" lon="1.12123">
        <ele>126</ele>
        <time>2016-07-10T06:52:25.000Z</time>
      </trkpt>
      <trkpt lat="49.22222" lon="1.12116">
        <ele>127</ele>
        <time>2016-07-10T06:52:26.000Z</time>
      </trkpt>
      <trkpt lat="49.22223" lon="1.12109">
        <ele>127</ele>
        <time>2016-07-10T06:52:27.000Z</time>
      </trkpt>
      <trkpt lat="49.22224" lon="1.12103">
        <ele>127</ele>
        <time>2016-07-10T06:52:28.000Z</time>
      </trkpt>
      <trkpt lat="49.22225" lon="1.12096">
        <ele>126</ele>
        <time>2016-07-10T06:52:29.000Z</time>
      </trkpt>
      <trkpt lat="49.22226" lon="1.12089">
        <ele>126</ele>
        <time>2016-07-10T06:52:30.000Z</time>
      </trkpt>
      <trkpt lat="49.22227" lon="1.12082">
        <ele>126</ele>
        <time>2016-07-10T06:52:31.000Z</time>
      </trkpt>
      <trkpt lat="49.22229" lon="1.12074">
        <ele>126</ele>
        <time>2016-07-10T06:52:32.000Z</time>
      </trkpt>
      <trkpt lat="49.22231" lon="1.12066">
        <ele>126</ele>
        <time>2016-07-10T06:52:33.000Z</time>
      </trkpt>
      <trkpt lat="49.22232" lon="1.12059">
        <ele>125</ele>
        <time>2016-07-10T06:52:34.000Z</time>
      </trkpt>
      <trkpt lat="49.22234" lon="1.12052">
        <ele>125</ele>
        <time>2016-07-10T06:52:35.000Z</time>
      </trkpt>
      <trkpt lat="49.22235" lon="1.12044">
        <ele>125</ele>
        <time>2016-07-10T06:52:36.000Z</time>
      </trkpt>
      <trkpt lat="49.22236" lon="1.12037">
        <ele>126</ele>
        <time>2016-07-10T06:52:37.000Z</time>
      </trkpt>
      <trkpt lat="49.22237" lon="1.12029">
        <ele>126</ele>
        <time>2016-07-10T06:52:38.000Z</time>
      </trkpt>
      <trkpt lat="49.22238" lon="1.12022">
        <ele>125</ele>
        <time>2016-07-10T06:52:39.000Z</time>
      </trkpt>
      <trkpt lat="49.2224" lon="1.12015">
        <ele>126</ele>
        <time>2016-07-10T06:52:40.000Z</time>
      </trkpt>
      <trkpt lat="49.22241" lon="1.12008">
        <ele>126</ele>
        <time>2016-07-10T06:52:41.000Z</time>
      </trkpt>
      <trkpt lat="49.22242" lon="1.12001">
        <ele>126</ele>
        <time>2016-07-10T06:52:42.000Z</time>
      </trkpt>
      <trkpt lat="49.22243" lon="1.11994">
        <ele>126</ele>
        <time>2016-07-10T06:52:43.000Z</time>
      </trkpt>
      <trkpt lat="49.22243" lon="1.11987">
        <ele>127</ele>
        <time>2016-07-10T06:52:44.000Z</time>
      </trkpt>
      <trkpt lat="49.22243" lon="1.11979">
        <ele>127</ele>
        <time>2016-07-10T06:52:45.000Z</time>
      </trkpt>
      <trkpt lat="49.22243" lon="1.11972">
        <ele>127</ele>
        <time>2016-07-10T06:52:46.000Z</time>
      </trkpt>
      <trkpt lat="49.22243" lon="1.11964">
        <ele>128</ele>
        <time>2016-07-10T06:52:47.000Z</time>
      </trkpt>
      <trkpt lat="49.22242" lon="1.11957">
        <ele>128</ele>
        <time>2016-07-10T06:52:48.000Z</time>
      </trkpt>
      <trkpt lat="49.22241" lon="1.1195">
        <ele>128</ele>
        <time>2016-07-10T06:52:49.000Z</time>
      </trkpt>
      <trkpt lat="49.22239" lon="1.11942">
        <ele>129</ele>
        <time>2016-07-10T06:52:50.000Z</time>
      </trkpt>
      <trkpt lat="49.22236" lon="1.11934">
        <ele>129</ele>
        <time>2016-07-10T06:52:51.000Z</time>
      </trkpt>
      <trkpt lat="49.22233" lon="1.11926">
        <ele>128</ele>
        <time>2016-07-10T06:52:52.000Z</time>
      </trkpt>
      <trkpt lat="49.2223" lon="1.1192">
        <ele>128</ele>
        <time>2016-07-10T06:52:53.000Z</time>
      </trkpt>
      <trkpt lat="49.22227" lon="1.11913">
        <ele>128</ele>
        <time>2016-07-10T06:52:54.000Z</time>
      </trkpt>
      <trkpt lat="49.22225" lon="1.11906">
        <ele>129</ele>
        <time>2016-07-10T06:52:55.000Z</time>
      </trkpt>
      <trkpt lat="49.22222" lon="1.11899">
        <ele>129</ele>
        <time>2016-07-10T06:52:56.000Z</time>
      </trkpt>
      <trkpt lat="49.2222" lon="1.11893">
        <ele>129</ele>
        <time>2016-07-10T06:52:57.000Z</time>
      </trkpt>
      <trkpt lat="49.22217" lon="1.11886">
        <ele>130</ele>
        <time>2016-07-10T06:52:58.000Z</time>
      </trkpt>
      <trkpt lat="49.22215" lon="1.11879">
        <ele>130</ele>
        <time>2016-07-10T06:52:59.000Z</time>
      </trkpt>
      <trkpt lat="49.22213" lon="1.11873">
        <ele>130</ele>
        <time>2016-07-10T06:53:00.000Z</time>
      </trkpt>
      <trkpt lat="49.2221" lon="1.11867">
        <ele>131</ele>
        <time>2016-07-10T06:53:01.000Z</time>
      </trkpt>
      <trkpt lat="49.22208" lon="1.1186">
        <ele>130</ele>
        <time>2016-07-10T06:53:02.000Z</time>
      </trkpt>
      <trkpt lat="49.22206" lon="1.11852">
        <ele>129</ele>
        <time>2016-07-10T06:53:03.000Z</time>
      </trkpt>
      <trkpt lat="49.22204" lon="1.11844">
        <ele>131</ele>
        <time>2016-07-10T06:53:04.000Z</time>
      </trkpt>
      <trkpt lat="49.22202" lon="1.11836">
        <ele>131</ele>
        <time>2016-07-10T06:53:05.000Z</time>
      </trkpt>
      <trkpt lat="49.222" lon="1.11828">
        <ele>132</ele>
        <time>2016-07-10T06:53:06.000Z</time>
      </trkpt>
      <trkpt lat="49.22199" lon="1.1182">
        <ele>132</ele>
        <time>2016-07-10T06:53:07.000Z</time>
      </trkpt>
      <trkpt lat="49.22198" lon="1.11813">
        <ele>132</ele>
        <time>2016-07-10T06:53:08.000Z</time>
      </trkpt>
      <trkpt lat="49.22197" lon="1.11806">
        <ele>132</ele>
        <time>2016-07-10T06:53:09.000Z</time>
      </trkpt>
      <trkpt lat="49.22195" lon="1.11798">
        <ele>132</ele>
        <time>2016-07-10T06:53:10.000Z</time>
      </trkpt>
      <trkpt lat="49.22194" lon="1.1179">
        <ele>132</ele>
        <time>2016-07-10T06:53:11.000Z</time>
      </trkpt>
      <trkpt lat="49.22192" lon="1.11783">
        <ele>132</ele>
        <time>2016-07-10T06:53:12.000Z</time>
      </trkpt>
      <trkpt lat="49.2219" lon="1.11775">
        <ele>133</ele>
        <time>2016-07-10T06:53:13.000Z</time>
      </trkpt>
      <trkpt lat="49.22188" lon="1.11767">
        <ele>134</ele>
        <time>2016-07-10T06:53:14.000Z</time>
      </trkpt>
      <trkpt lat="49.22185" lon="1.1176">
        <ele>135</ele>
        <time>2016-07-10T06:53:15.000Z</time>
      </trkpt>
      <trkpt lat="49.22182" lon="1.11754">
        <ele>136</ele>
        <time>2016-07-10T06:53:16.000Z</time>
      </trkpt>
      <trkpt lat="49.2218" lon="1.11748">
        <ele>136</ele>
        <time>2016-07-10T06:53:17.000Z</time>
      </trkpt>
      <trkpt lat="49.22176" lon="1.11742">
        <ele>137</ele>
        <time>2016-07-10T06:53:18.000Z</time>
      </trkpt>
      <trkpt lat="49.22173" lon="1.11736">
        <ele>137</ele>
        <time>2016-07-10T06:53:19.000Z</time>
      </trkpt>
      <trkpt lat="49.2217" lon="1.1173">
        <ele>138</ele>
        <time>2016-07-10T06:53:20.000Z</time>
      </trkpt>
      <trkpt lat="49.22167" lon="1.11725">
        <ele>138</ele>
        <time>2016-07-10T06:53:21.000Z</time>
      </trkpt>
      <trkpt lat="49.22163" lon="1.11719">
        <ele>138</ele>
        <time>2016-07-10T06:53:22.000Z</time>
      </trkpt>
      <trkpt lat="49.22159" lon="1.11714">
        <ele>138</ele>
        <time>2016-07-10T06:53:23.000Z</time>
      </trkpt>
      <trkpt lat="49.22156" lon="1.11709">
        <ele>139</ele>
        <time>2016-07-10T06:53:24.000Z</time>
      </trkpt>
      <trkpt lat="49.22152" lon="1.11705">
        <ele>138</ele>
        <time>2016-07-10T06:53:25.000Z</time>
      </trkpt>
      <trkpt lat="49.22148" lon="1.11701">
        <ele>138</ele>
        <time>2016-07-10T06:53:26.000Z</time>
      </trkpt>
      <trkpt lat="49.22145" lon="1.11697">
        <ele>138</ele>
        <time>2016-07-10T06:53:27.000Z</time>
      </trkpt>
      <trkpt lat="49.22141" lon="1.11694">
        <ele>137</ele>
        <time>2016-07-10T06:53:28.000Z</time>
      </trkpt>
      <trkpt lat="49.22138" lon="1.11689">
        <ele>137</ele>
        <time>2016-07-10T06:53:29.000Z</time>
      </trkpt>
      <trkpt lat="49.22134" lon="1.11685">
        <ele>137</ele>
        <time>2016-07-10T06:53:30.000Z</time>
      </trkpt>
      <trkpt lat="49.2213" lon="1.1168">
        <ele>136</ele>
        <time>2016-07-10T06:53:31.000Z</time>
      </trkpt>
      <trkpt lat="49.22126" lon="1.11674">
        <ele>136</ele>
        <time>2016-07-10T06:53:32.000Z</time>
      </trkpt>
      <trkpt lat="49.22123" lon="1.11668">
        <ele>137</ele>
        <time>2016-07-10T06:53:33.000Z</time>
      </trkpt>
      <trkpt lat="49.22119" lon="1.11661">
        <ele>137</ele>
        <time>2016-07-10T06:53:34.000Z</time>
      </trkpt>
      <trkpt lat="49.22116" lon="1.11654">
        <ele>137</ele>
        <time>2016-07-10T06:53:35.000Z</time>
      </trkpt>
      <trkpt lat="49.22112" lon="1.11647">
        <ele>136</ele>
        <time>2016-07-10T06:53:36.000Z</time>
      </trkpt>
      <trkpt lat="49.22109" lon="1.1164">
        <ele>136</ele>
        <time>2016-07-10T06:53:37.000Z</time>
      </trkpt>
      <trkpt lat="49.22106" lon="1.11634">
        <ele>136</ele>
        <time>2016-07-10T06:53:38.000Z</time>
      </trkpt>
      <trkpt lat="49.22102" lon="1.11628">
        <ele>136</ele>
        <time>2016-07-10T06:53:39.000Z</time>
      </trkpt>
      <trkpt lat="49.22099" lon="1.11621">
        <ele>135</ele>
        <time>2016-07-10T06:53:40.000Z</time>
      </trkpt>
      <trkpt lat="49.22096" lon="1.11615">
        <ele>135</ele>
        <time>2016-07-10T06:53:41.000Z</time>
      </trkpt>
      <trkpt lat="49.22092" lon="1.11608">
        <ele>134</ele>
        <time>2016-07-10T06:53:42.000Z</time>
      </trkpt>
      <trkpt lat="49.22089" lon="1.11602">
        <ele>134</ele>
        <time>2016-07-10T06:53:43.000Z</time>
      </trkpt>
      <trkpt lat="49.22086" lon="1.11596">
        <ele>133</ele>
        <time>2016-07-10T06:53:44.000Z</time>
      </trkpt>
      <trkpt lat="49.22083" lon="1.1159">
        <ele>133</ele>
        <time>2016-07-10T06:53:45.000Z</time>
      </trkpt>
      <trkpt lat="49.2208" lon="1.11584">
        <ele>133</ele>
        <time>2016-07-10T06:53:46.000Z</time>
      </trkpt>
      <trkpt lat="49.22077" lon="1.11578">
        <ele>132</ele>
        <time>2016-07-10T06:53:47.000Z</time>
      </trkpt>
      <trkpt lat="49.22074" lon="1.11572">
        <ele>132</ele>
        <time>2016-07-10T06:53:48.000Z</time>
      </trkpt>
      <trkpt lat="49.22071" lon="1.11566">
        <ele>133</ele>
        <time>2016-07-10T06:53:49.000Z</time>
      </trkpt>
      <trkpt lat="49.22067" lon="1.1156">
        <ele>133</ele>
        <time>2016-07-10T06:53:50.000Z</time>
      </trkpt>
      <trkpt lat="49.22064" lon="1.11554">
        <ele>134</ele>
        <time>2016-07-10T06:53:51.000Z</time>
      </trkpt>
      <trkpt lat="49.2206" lon="1.11548">
        <ele>134</ele>
        <time>2016-07-10T06:53:52.000Z</time>
      </trkpt>
      <trkpt lat="49.22057" lon="1.11543">
        <ele>134</ele>
        <time>2016-07-10T06:53:53.000Z</time>
      </trkpt>
      <trkpt lat="49.22053" lon="1.11537">
        <ele>134</ele>
        <time>2016-07-10T06:53:54.000Z</time>
      </trkpt>
      <trkpt lat="49.22049" lon="1.11532">
        <ele>134</ele>
        <time>2016-07-10T06:53:55.000Z</time>
      </trkpt>
      <trkpt lat="49.22045" lon="1.11526">
        <ele>134</ele>
        <time>2016-07-10T06:53:56.000Z</time>
      </trkpt>
      <trkpt lat="49.22042" lon="1.11521">
        <ele>134</ele>
        <time>2016-07-10T06:53:57.000Z</time>
      </trkpt>
      <trkpt lat="49.22038" lon="1.11515">
        <ele>135</ele>
        <time>2016-07-10T06:53:58.000Z</time>
      </trkpt>
      <trkpt lat="49.22034" lon="1.11509">
        <ele>135</ele>
        <time>2016-07-10T06:53:59.000Z</time>
      </trkpt>
      <trkpt lat="49.22031" lon="1.11504">
        <ele>135</ele>
        <time>2016-07-10T06:54:00.000Z</time>
      </trkpt>
      <trkpt lat="49.22027" lon="1.11497">
        <ele>135</ele>
        <time>2016-07-10T06:54:01.000Z</time>
      </trkpt>
      <trkpt lat="49.22024" lon="1.11491">
        <ele>135</ele>
        <time>2016-07-10T06:54:02.000Z</time>
      </trkpt>
      <trkpt lat="49.22021" lon="1.11485">
        <ele>135</ele>
        <time>2016-07-10T06:54:03.000Z</time>
      </trkpt>
      <trkpt lat="49.22018" lon="1.11478">
        <ele>136</ele>
        <time>2016-07-10T06:54:04.000Z</time>
      </trkpt>
      <trkpt lat="49.22016" lon="1.11471">
        <ele>136</ele>
        <time>2016-07-10T06:54:05.000Z</time>
      </trkpt>
      <trkpt lat="49.22013" lon="1.11464">
        <ele>136</ele>
        <time>2016-07-10T06:54:06.000Z</time>
      </trkpt>
      <trkpt lat="49.22011" lon="1.11457">
        <ele>136</ele>
        <time>2016-07-10T06:54:07.000Z</time>
      </trkpt>
      <trkpt lat="49.22009" lon="1.1145">
        <ele>136</ele>
        <time>2016-07-10T06:54:08.000Z</time>
      </trkpt>
      <trkpt lat="49.22007" lon="1.11443">
        <ele>136</ele>
        <time>2016-07-10T06:54:09.000Z</time>
      </trkpt>
      <trkpt lat="49.22005" lon="1.11436">
        <ele>137</ele>
        <time>2016-07-10T06:54:10.000Z</time>
      </trkpt>
      <trkpt lat="49.22002" lon="1.11429">
        <ele>137</ele>
        <time>2016-07-10T06:54:11.000Z</time>
      </trkpt>
      <trkpt lat="49.22" lon="1.11422">
        <ele>137</ele>
        <time>2016-07-10T06:54:12.000Z</time>
      </trkpt>
      <trkpt lat="49.21998" lon="1.11415">
        <ele>137</ele>
        <time>2016-07-10T06:54:13.000Z</time>
      </trkpt>
      <trkpt lat="49.21996" lon="1.11408">
        <ele>137</ele>
        <time>2016-07-10T06:54:14.000Z</time>
      </trkpt>
      <trkpt lat="49.21994" lon="1.11401">
        <ele>137</ele>
        <time>2016-07-10T06:54:15.000Z</time>
      </trkpt>
      <trkpt lat="49.21992" lon="1.11394">
        <ele>137</ele>
        <time>2016-07-10T06:54:16.000Z</time>
      </trkpt>
      <trkpt lat="49.21989" lon="1.11387">
        <ele>137</ele>
        <time>2016-07-10T06:54:17.000Z</time>
      </trkpt>
      <trkpt lat="49.21987" lon="1.1138">
        <ele>137</ele>
        <time>2016-07-10T06:54:18.000Z</time>
      </trkpt>
      <trkpt lat="49.21984" lon="1.11374">
        <ele>137</ele>
        <time>2016-07-10T06:54:19.000Z</time>
      </trkpt>
      <trkpt lat="49.21982" lon="1.11367">
        <ele>137</ele>
        <time>2016-07-10T06:54:20.000Z</time>
      </trkpt>
      <trkpt lat="49.21979" lon="1.11361">
        <ele>137</ele>
        <time>2016-07-10T06:54:21.000Z</time>
      </trkpt>
      <trkpt lat="49.21976" lon="1.11355">
        <ele>137</ele>
        <time>2016-07-10T06:54:22.000Z</time>
      </trkpt>
      <trkpt lat="49.21973" lon="1.11349">
        <ele>137</ele>
        <time>2016-07-10T06:54:23.000Z</time>
      </trkpt>
      <trkpt lat="49.2197" lon="1.11342">
        <ele>137</ele>
        <time>2016-07-10T06:54:24.000Z</time>
      </trkpt>
      <trkpt lat="49.21968" lon="1.11336">
        <ele>137</ele>
        <time>2016-07-10T06:54:25.000Z</time>
      </trkpt>
      <trkpt lat="49.21965" lon="1.1133">
        <ele>138</ele>
        <time>2016-07-10T06:54:26.000Z</time>
      </trkpt>
      <trkpt lat="49.21962" lon="1.11325">
        <ele>138</ele>
        <time>2016-07-10T06:54:27.000Z</time>
      </trkpt>
      <trkpt lat="49.21959" lon="1.11319">
        <ele>138</ele>
        <time>2016-07-10T06:54:28.000Z</time>
      </trkpt>
      <trkpt lat="49.21956" lon="1.11314">
        <ele>139</ele>
        <time>2016-07-10T06:54:29.000Z</time>
      </trkpt>
      <trkpt lat="49.21953" lon="1.11309">
        <ele>139</ele>
        <time>2016-07-10T06:54:30.000Z</time>
      </trkpt>
      <trkpt lat="49.2195" lon="1.11303">
        <ele>139</ele>
        <time>2016-07-10T06:54:31.000Z</time>
      </trkpt>
      <trkpt lat="49.21947" lon="1.11297">
        <ele>140</ele>
        <time>2016-07-10T06:54:32.000Z</time>
      </trkpt>
      <trkpt lat="49.21944" lon="1.11292">
        <ele>139</ele>
        <time>2016-07-10T06:54:33.000Z</time>
      </trkpt>
      <trkpt lat="49.21942" lon="1.11286">
        <ele>139</ele>
        <time>2016-07-10T06:54:34.000Z</time>
      </trkpt>
      <trkpt lat="49.21939" lon="1.1128">
        <ele>140</ele>
        <time>2016-07-10T06:54:35.000Z</time>
      </trkpt>
      <trkpt lat="49.21936" lon="1.11274">
        <ele>140</ele>
        <time>2016-07-10T06:54:36.000Z</time>
      </trkpt>
      <trkpt lat="49.21933" lon="1.11269">
        <ele>140</ele>
        <time>2016-07-10T06:54:37.000Z</time>
      </trkpt>
      <trkpt lat="49.2193" lon="1.11263">
        <ele>141</ele>
        <time>2016-07-10T06:54:38.000Z</time>
      </trkpt>
      <trkpt lat="49.21927" lon="1.11258">
        <ele>141</ele>
        <time>2016-07-10T06:54:39.000Z</time>
      </trkpt>
      <trkpt lat="49.21925" lon="1.11252">
        <ele>141</ele>
        <time>2016-07-10T06:54:40.000Z</time>
      </trkpt>
      <trkpt lat="49.21922" lon="1.11246">
        <ele>142</ele>
        <time>2016-07-10T06:54:41.000Z</time>
      </trkpt>
      <trkpt lat="49.21919" lon="1.1124">
        <ele>142</ele>
        <time>2016-07-10T06:54:42.000Z</time>
      </trkpt>
      <trkpt lat="49.21917" lon="1.11234">
        <ele>142</ele>
        <time>2016-07-10T06:54:43.000Z</time>
      </trkpt>
      <trkpt lat="49.21915" lon="1.11227">
        <ele>142</ele>
        <time>2016-07-10T06:54:44.000Z</time>
      </trkpt>
      <trkpt lat="49.21912" lon="1.1122">
        <ele>142</ele>
        <time>2016-07-10T06:54:45.000Z</time>
      </trkpt>
      <trkpt lat="49.2191" lon="1.11213">
        <ele>142</ele>
        <time>2016-07-10T06:54:46.000Z</time>
      </trkpt>
      <trkpt lat="49.21908" lon="1.11206">
        <ele>141</ele>
        <time>2016-07-10T06:54:47.000Z</time>
      </trkpt>
      <trkpt lat="49.21906" lon="1.11199">
        <ele>141</ele>
        <time>2016-07-10T06:54:48.000Z</time>
      </trkpt>
      <trkpt lat="49.21904" lon="1.11191">
        <ele>141</ele>
        <time>2016-07-10T06:54:49.000Z</time>
      </trkpt>
      <trkpt lat="49.21902" lon="1.11184">
        <ele>142</ele>
        <time>2016-07-10T06:54:50.000Z</time>
      </trkpt>
      <trkpt lat="49.219" lon="1.11176">
        <ele>141</ele>
        <time>2016-07-10T06:54:51.000Z</time>
      </trkpt>
      <trkpt lat="49.21898" lon="1.11169">
        <ele>142</ele>
        <time>2016-07-10T06:54:52.000Z</time>
      </trkpt>
      <trkpt lat="49.21897" lon="1.11161">
        <ele>142</ele>
        <time>2016-07-10T06:54:53.000Z</time>
      </trkpt>
      <trkpt lat="49.21895" lon="1.11154">
        <ele>142</ele>
        <time>2016-07-10T06:54:54.000Z</time>
      </trkpt>
      <trkpt lat="49.21893" lon="1.11146">
        <ele>143</ele>
        <time>2016-07-10T06:54:55.000Z</time>
      </trkpt>
      <trkpt lat="49.21891" lon="1.11139">
        <ele>143</ele>
        <time>2016-07-10T06:54:56.000Z</time>
      </trkpt>
      <trkpt lat="49.21889" lon="1.11132">
        <ele>143</ele>
        <time>2016-07-10T06:54:57.000Z</time>
      </trkpt>
      <trkpt lat="49.21887" lon="1.11125">
        <ele>143</ele>
        <time>2016-07-10T06:54:58.000Z</time>
      </trkpt>
      <trkpt lat="49.21885" lon="1.11118">
        <ele>143</ele>
        <time>2016-07-10T06:54:59.000Z</time>
      </trkpt>
      <trkpt lat="49.21882" lon="1.11111">
        <ele>143</ele>
        <time>2016-07-10T06:55:00.000Z</time>
      </trkpt>
      <trkpt lat="49.2188" lon="1.11104">
        <ele>143</ele>
        <time>2016-07-10T06:55:01.000Z</time>
      </trkpt>
      <trkpt lat="49.21877" lon="1.11098">
        <ele>143</ele>
        <time>2016-07-10T06:55:02.000Z</time>
      </trkpt>
      <trkpt lat="49.21875" lon="1.11091">
        <ele>143</ele>
        <time>2016-07-10T06:55:03.000Z</time>
      </trkpt>
      <trkpt lat="49.21872" lon="1.11086">
        <ele>144</ele>
        <time>2016-07-10T06:55:04.000Z</time>
      </trkpt>
      <trkpt lat="49.2187" lon="1.1108">
        <ele>144</ele>
        <time>2016-07-10T06:55:05.000Z</time>
      </trkpt>
      <trkpt lat="49.21867" lon="1.11074">
        <ele>144</ele>
        <time>2016-07-10T06:55:06.000Z</time>
      </trkpt>
      <trkpt lat="49.21864" lon="1.11069">
        <ele>144</ele>
        <time>2016-07-10T06:55:07.000Z</time>
      </trkpt>
      <trkpt lat="49.21861" lon="1.11063">
        <ele>145</ele>
        <time>2016-07-10T06:55:08.000Z</time>
      </trkpt>
      <trkpt lat="49.21859" lon="1.11058">
        <ele>145</ele>
        <time>2016-07-10T06:55:09.000Z</time>
      </trkpt>
      <trkpt lat="49.21856" lon="1.11052">
        <ele>145</ele>
        <time>2016-07-10T06:55:10.000Z</time>
      </trkpt>
      <trkpt lat="49.21853" lon="1.11046">
        <ele>145</ele>
        <time>2016-07-10T06:55:11.000Z</time>
      </trkpt>
      <trkpt lat="49.2185" lon="1.1104">
        <ele>145</ele>
        <time>2016-07-10T06:55:12.000Z</time>
      </trkpt>
      <trkpt lat="49.21847" lon="1.11035">
        <ele>145</ele>
        <time>2016-07-10T06:55:13.000Z</time>
      </trkpt>
      <trkpt lat="49.21844" lon="1.11029">
        <ele>145</ele>
        <time>2016-07-10T06:55:14.000Z</time>
      </trkpt>
      <trkpt lat="49.21841" lon="1.11023">
        <ele>146</ele>
        <time>2016-07-10T06:55:15.000Z</time>
      </trkpt>
      <trkpt lat="49.21838" lon="1.11017">
        <ele>147</ele>
        <time>2016-07-10T06:55:16.000Z</time>
      </trkpt>
      <trkpt lat="49.21834" lon="1.11012">
        <ele>148</ele>
        <time>2016-07-10T06:55:17.000Z</time>
      </trkpt>
      <trkpt lat="49.21831" lon="1.11006">
        <ele>148</ele>
        <time>2016-07-10T06:55:18.000Z</time>
      </trkpt>
      <trkpt lat="49.21827" lon="1.11001">
        <ele>149</ele>
        <time>2016-07-10T06:55:19.000Z</time>
      </trkpt>
      <trkpt lat="49.21824" lon="1.10996">
        <ele>149</ele>
        <time>2016-07-10T06:55:20.000Z</time>
      </trkpt>
      <trkpt lat="49.2182" lon="1.10991">
        <ele>149</ele>
        <time>2016-07-10T06:55:21.000Z</time>
      </trkpt>
      <trkpt lat="49.21816" lon="1.10986">
        <ele>149</ele>
        <time>2016-07-10T06:55:22.000Z</time>
      </trkpt>
      <trkpt lat="49.21812" lon="1.10981">
        <ele>149</ele>
        <time>2016-07-10T06:55:23.000Z</time>
      </trkpt>
      <trkpt lat="49.21808" lon="1.10977">
        <ele>149</ele>
        <time>2016-07-10T06:55:24.000Z</time>
      </trkpt>
      <trkpt lat="49.21805" lon="1.10972">
        <ele>149</ele>
        <time>2016-07-10T06:55:25.000Z</time>
      </trkpt>
      <trkpt lat="49.21802" lon="1.10968">
        <ele>148</ele>
        <time>2016-07-10T06:55:26.000Z</time>
      </trkpt>
      <trkpt lat="49.21799" lon="1.10964">
        <ele>148</ele>
        <time>2016-07-10T06:55:27.000Z</time>
      </trkpt>
      <trkpt lat="49.21796" lon="1.10961">
        <ele>148</ele>
        <time>2016-07-10T06:55:28.000Z</time>
      </trkpt>
      <trkpt lat="49.21794" lon="1.10958">
        <ele>148</ele>
        <time>2016-07-10T06:55:29.000Z</time>
      </trkpt>
      <trkpt lat="49.21793" lon="1.10956">
        <ele>148</ele>
        <time>2016-07-10T06:55:30.000Z</time>
      </trkpt>
      <trkpt lat="49.21791" lon="1.10954">
        <ele>148</ele>
        <time>2016-07-10T06:55:31.000Z</time>
      </trkpt>
      <trkpt lat="49.2179" lon="1.10951">
        <ele>147</ele>
        <time>2016-07-10T06:55:32.000Z</time>
      </trkpt>
      <trkpt lat="49.21789" lon="1.10949">
        <ele>147</ele>
        <time>2016-07-10T06:55:33.000Z</time>
      </trkpt>
      <trkpt lat="49.21787" lon="1.10946">
        <ele>146</ele>
        <time>2016-07-10T06:55:34.000Z</time>
      </trkpt>
      <trkpt lat="49.21785" lon="1.10943">
        <ele>146</ele>
        <time>2016-07-10T06:55:35.000Z</time>
      </trkpt>
      <trkpt lat="49.21784" lon="1.1094">
        <ele>145</ele>
        <time>2016-07-10T06:55:36.000Z</time>
      </trkpt>
      <trkpt lat="49.21782" lon="1.10937">
        <ele>144</ele>
        <time>2016-07-10T06:55:37.000Z</time>
      </trkpt>
      <trkpt lat="49.21781" lon="1.10934">
        <ele>144</ele>
        <time>2016-07-10T06:55:38.000Z</time>
      </trkpt>
      <trkpt lat="49.21781" lon="1.10932">
        <ele>144</ele>
        <time>2016-07-10T06:55:39.000Z</time>
      </trkpt>
      <trkpt lat="49.21781" lon="1.10932">
        <ele>145</ele>
        <time>2016-07-10T06:55:40.000Z</time>
      </trkpt>
      <trkpt lat="49.21781" lon="1.10931">
        <ele>146</ele>
        <time>2016-07-10T06:55:41.000Z</time>
      </trkpt>
      <trkpt lat="49.21781" lon="1.10931">
        <ele>146</ele>
        <time>2016-07-10T06:55:42.000Z</time>
      </trkpt>
      <trkpt lat="49.21781" lon="1.10931">
        <ele>147</ele>
        <time>2016-07-10T06:55:43.000Z</time>
      </trkpt>
      <trkpt lat="49.21781" lon="1.1093">
        <ele>147</ele>
        <time>2016-07-10T06:55:44.000Z</time>
      </trkpt>
      <trkpt lat="49.21781" lon="1.1093">
        <ele>147</ele>
        <time>2016-07-10T06:55:45.000Z</time>
      </trkpt>
      <trkpt lat="49.2178" lon="1.10929">
        <ele>147</ele>
        <time>2016-07-10T06:55:46.000Z</time>
      </trkpt>
      <trkpt lat="49.2178" lon="1.10928">
        <ele>147</ele>
        <time>2016-07-10T06:55:47.000Z</time>
      </trkpt>
      <trkpt lat="49.2178" lon="1.10927">
        <ele>147</ele>
        <time>2016-07-10T06:55:48.000Z</time>
      </trkpt>
      <trkpt lat="49.2178" lon="1.10927">
        <ele>147</ele>
        <time>2016-07-10T06:55:49.000Z</time>
      </trkpt>
      <trkpt lat="49.2178" lon="1.10927">
        <ele>147</ele>
        <time>2016-07-10T06:55:50.000Z</time>
      </trkpt>
      <trkpt lat="49.2178" lon="1.10927">
        <ele>147</ele>
        <time>2016-07-10T06:55:51.000Z</time>
      </trkpt>
      <trkpt lat="49.2178" lon="1.10927">
        <ele>147</ele>
        <time>2016-07-10T06:55:52.000Z</time>
      </trkpt>
      <trkpt lat="49.2178" lon="1.10927">
        <ele>147</ele>
        <time>2016-07-10T06:55:53.000Z</time>
      </trkpt>
      <trkpt lat="49.21779" lon="1.10926">
        <ele>147</ele>
        <time>2016-07-10T06:55:54.000Z</time>
      </trkpt>
      <trkpt lat="49.21779" lon="1.10926">
        <ele>147</ele>
        <time>2016-07-10T06:55:55.000Z</time>
      </trkpt>
      <trkpt lat="49.21778" lon="1.10925">
        <ele>147</ele>
        <time>2016-07-10T06:55:56.000Z</time>
      </trkpt>
      <trkpt lat="49.21777" lon="1.10922">
        <ele>148</ele>
        <time>2016-07-10T06:55:57.000Z</time>
      </trkpt>
      <trkpt lat="49.21776" lon="1.10918">
        <ele>149</ele>
        <time>2016-07-10T06:55:58.000Z</time>
      </trkpt>
      <trkpt lat="49.21776" lon="1.10913">
        <ele>149</ele>
        <time>2016-07-10T06:55:59.000Z</time>
      </trkpt>
      <trkpt lat="49.21775" lon="1.10907">
        <ele>148</ele>
        <time>2016-07-10T06:56:00.000Z</time>
      </trkpt>
      <trkpt lat="49.21775" lon="1.10902">
        <ele>148</ele>
        <time>2016-07-10T06:56:01.000Z</time>
      </trkpt>
      <trkpt lat="49.21775" lon="1.10895">
        <ele>148</ele>
        <time>2016-07-10T06:56:02.000Z</time>
      </trkpt>
      <trkpt lat="49.21776" lon="1.10889">
        <ele>148</ele>
        <time>2016-07-10T06:56:03.000Z</time>
      </trkpt>
      <trkpt lat="49.21777" lon="1.10882">
        <ele>148</ele>
        <time>2016-07-10T06:56:04.000Z</time>
      </trkpt>
      <trkpt lat="49.21778" lon="1.10875">
        <ele>148</ele>
        <time>2016-07-10T06:56:05.000Z</time>
      </trkpt>
      <trkpt lat="49.21779" lon="1.10869">
        <ele>148</ele>
        <time>2016-07-10T06:56:06.000Z</time>
      </trkpt>
      <trkpt lat="49.2178" lon="1.10863">
        <ele>148</ele>
        <time>2016-07-10T06:56:07.000Z</time>
      </trkpt>
      <trkpt lat="49.21781" lon="1.10856">
        <ele>148</ele>
        <time>2016-07-10T06:56:08.000Z</time>
      </trkpt>
      <trkpt lat="49.21781" lon="1.1085">
        <ele>147</ele>
        <time>2016-07-10T06:56:09.000Z</time>
      </trkpt>
      <trkpt lat="49.21782" lon="1.10843">
        <ele>147</ele>
        <time>2016-07-10T06:56:10.000Z</time>
      </trkpt>
      <trkpt lat="49.21783" lon="1.10837">
        <ele>147</ele>
        <time>2016-07-10T06:56:11.000Z</time>
      </trkpt>
      <trkpt lat="49.21783" lon="1.10829">
        <ele>147</ele>
        <time>2016-07-10T06:56:12.000Z</time>
      </trkpt>
      <trkpt lat="49.21784" lon="1.10822">
        <ele>147</ele>
        <time>2016-07-10T06:56:13.000Z</time>
      </trkpt>
      <trkpt lat="49.21785" lon="1.10815">
        <ele>146</ele>
        <time>2016-07-10T06:56:14.000Z</time>
      </trkpt>
      <trkpt lat="49.21786" lon="1.10808">
        <ele>146</ele>
        <time>2016-07-10T06:56:15.000Z</time>
      </trkpt>
      <trkpt lat="49.21787" lon="1.108">
        <ele>147</ele>
        <time>2016-07-10T06:56:16.000Z</time>
      </trkpt>
      <trkpt lat="49.21789" lon="1.10792">
        <ele>147</ele>
        <time>2016-07-10T06:56:17.000Z</time>
      </trkpt>
      <trkpt lat="49.2179" lon="1.10784">
        <ele>147</ele>
        <time>2016-07-10T06:56:18.000Z</time>
      </trkpt>
      <trkpt lat="49.21792" lon="1.10776">
        <ele>146</ele>
        <time>2016-07-10T06:56:19.000Z</time>
      </trkpt>
      <trkpt lat="49.21793" lon="1.10768">
        <ele>146</ele>
        <time>2016-07-10T06:56:20.000Z</time>
      </trkpt>
      <trkpt lat="49.21795" lon="1.10761">
        <ele>146</ele>
        <time>2016-07-10T06:56:21.000Z</time>
      </trkpt>
      <trkpt lat="49.21797" lon="1.10753">
        <ele>146</ele>
        <time>2016-07-10T06:56:22.000Z</time>
      </trkpt>
      <trkpt lat="49.21799" lon="1.10746">
        <ele>146</ele>
        <time>2016-07-10T06:56:23.000Z</time>
      </trkpt>
      <trkpt lat="49.21802" lon="1.10739">
        <ele>146</ele>
        <time>2016-07-10T06:56:24.000Z</time>
      </trkpt>
      <trkpt lat="49.21805" lon="1.10731">
        <ele>145</ele>
        <time>2016-07-10T06:56:25.000Z</time>
      </trkpt>
      <trkpt lat="49.21807" lon="1.10724">
        <ele>145</ele>
        <time>2016-07-10T06:56:26.000Z</time>
      </trkpt>
      <trkpt lat="49.2181" lon="1.10717">
        <ele>145</ele>
        <time>2016-07-10T06:56:27.000Z</time>
      </trkpt>
      <trkpt lat="49.21813" lon="1.10709">
        <ele>145</ele>
        <time>2016-07-10T06:56:28.000Z</time>
      </trkpt>
      <trkpt lat="49.21816" lon="1.10701">
        <ele>145</ele>
        <time>2016-07-10T06:56:29.000Z</time>
      </trkpt>
      <trkpt lat="49.21819" lon="1.10694">
        <ele>145</ele>
        <time>2016-07-10T06:56:30.000Z</time>
      </trkpt>
      <trkpt lat="49.21822" lon="1.10686">
        <ele>145</ele>
        <time>2016-07-10T06:56:31.000Z</time>
      </trkpt>
      <trkpt lat="49.21826" lon="1.10677">
        <ele>145</ele>
        <time>2016-07-10T06:56:32.000Z</time>
      </trkpt>
      <trkpt lat="49.21829" lon="1.10669">
        <ele>145</ele>
        <time>2016-07-10T06:56:33.000Z</time>
      </trkpt>
      <trkpt lat="49.21833" lon="1.1066">
        <ele>144</ele>
        <time>2016-07-10T06:56:34.000Z</time>
      </trkpt>
      <trkpt lat="49.21836" lon="1.10651">
        <ele>144</ele>
        <time>2016-07-10T06:56:35.000Z</time>
      </trkpt>
      <trkpt lat="49.2184" lon="1.10642">
        <ele>144</ele>
        <time>2016-07-10T06:56:36.000Z</time>
      </trkpt>
      <trkpt lat="49.21843" lon="1.10633">
        <ele>143</ele>
        <time>2016-07-10T06:56:37.000Z</time>
      </trkpt>
      <trkpt lat="49.21847" lon="1.10624">
        <ele>143</ele>
        <time>2016-07-10T06:56:38.000Z</time>
      </trkpt>
      <trkpt lat="49.2185" lon="1.10615">
        <ele>143</ele>
        <time>2016-07-10T06:56:39.000Z</time>
      </trkpt>
      <trkpt lat="49.21854" lon="1.10607">
        <ele>143</ele>
        <time>2016-07-10T06:56:40.000Z</time>
      </trkpt>
      <trkpt lat="49.21857" lon="1.10598">
        <ele>142</ele>
        <time>2016-07-10T06:56:41.000Z</time>
      </trkpt>
      <trkpt lat="49.2186" lon="1.10589">
        <ele>142</ele>
        <time>2016-07-10T06:56:42.000Z</time>
      </trkpt>
      <trkpt lat="49.21864" lon="1.10581">
        <ele>142</ele>
        <time>2016-07-10T06:56:43.000Z</time>
      </trkpt>
      <trkpt lat="49.21867" lon="1.10572">
        <ele>142</ele>
        <time>2016-07-10T06:56:44.000Z</time>
      </trkpt>
      <trkpt lat="49.2187" lon="1.10564">
        <ele>142</ele>
        <time>2016-07-10T06:56:45.000Z</time>
      </trkpt>
      <trkpt lat="49.21873" lon="1.10555">
        <ele>142</ele>
        <time>2016-07-10T06:56:46.000Z</time>
      </trkpt>
      <trkpt lat="49.21876" lon="1.10546">
        <ele>142</ele>
        <time>2016-07-10T06:56:47.000Z</time>
      </trkpt>
      <trkpt lat="49.21879" lon="1.10536">
        <ele>142</ele>
        <time>2016-07-10T06:56:48.000Z</time>
      </trkpt>
      <trkpt lat="49.21881" lon="1.10526">
        <ele>142</ele>
        <time>2016-07-10T06:56:49.000Z</time>
      </trkpt>
      <trkpt lat="49.21883" lon="1.10516">
        <ele>142</ele>
        <time>2016-07-10T06:56:50.000Z</time>
      </trkpt>
      <trkpt lat="49.21884" lon="1.10506">
        <ele>142</ele>
        <time>2016-07-10T06:56:51.000Z</time>
      </trkpt>
      <trkpt lat="49.21885" lon="1.10496">
        <ele>142</ele>
        <time>2016-07-10T06:56:52.000Z</time>
      </trkpt>
      <trkpt lat="49.21885" lon="1.10486">
        <ele>142</ele>
        <time>2016-07-10T06:56:53.000Z</time>
      </trkpt>
      <trkpt lat="49.21885" lon="1.10475">
        <ele>142</ele>
        <time>2016-07-10T06:56:54.000Z</time>
      </trkpt>
      <trkpt lat="49.21885" lon="1.10464">
        <ele>142</ele>
        <time>2016-07-10T06:56:55.000Z</time>
      </trkpt>
      <trkpt lat="49.21885" lon="1.10453">
        <ele>142</ele>
        <time>2016-07-10T06:56:56.000Z</time>
      </trkpt>
      <trkpt lat="49.21885" lon="1.10442">
        <ele>142</ele>
        <time>2016-07-10T06:56:57.000Z</time>
      </trkpt>
      <trkpt lat="49.21885" lon="1.1043">
        <ele>142</ele>
        <time>2016-07-10T06:56:58.000Z</time>
      </trkpt>
      <trkpt lat="49.21884" lon="1.10418">
        <ele>142</ele>
        <time>2016-07-10T06:56:59.000Z</time>
      </trkpt>
      <trkpt lat="49.21884" lon="1.10407">
        <ele>142</ele>
        <time>2016-07-10T06:57:00.000Z</time>
      </trkpt>
      <trkpt lat="49.21884" lon="1.10395">
        <ele>142</ele>
        <time>2016-07-10T06:57:01.000Z</time>
      </trkpt>
      <trkpt lat="49.21884" lon="1.10383">
        <ele>142</ele>
        <time>2016-07-10T06:57:02.000Z</time>
      </trkpt>
      <trkpt lat="49.21883" lon="1.10372">
        <ele>142</ele>
        <time>2016-07-10T06:57:03.000Z</time>
      </trkpt>
      <trkpt lat="49.21883" lon="1.1036">
        <ele>142</ele>
        <time>2016-07-10T06:57:04.000Z</time>
      </trkpt>
      <trkpt lat="49.21883" lon="1.10349">
        <ele>142</ele>
        <time>2016-07-10T06:57:05.000Z</time>
      </trkpt>
      <trkpt lat="49.21883" lon="1.10338">
        <ele>142</ele>
        <time>2016-07-10T06:57:06.000Z</time>
      </trkpt>
      <trkpt lat="49.21883" lon="1.10327">
        <ele>142</ele>
        <time>2016-07-10T06:57:07.000Z</time>
      </trkpt>
      <trkpt lat="49.21882" lon="1.10316">
        <ele>142</ele>
        <time>2016-07-10T06:57:08.000Z</time>
      </trkpt>
      <trkpt lat="49.21882" lon="1.10306">
        <ele>142</ele>
        <time>2016-07-10T06:57:09.000Z</time>
      </trkpt>
      <trkpt lat="49.21882" lon="1.10296">
        <ele>142</ele>
        <time>2016-07-10T06:57:10.000Z</time>
      </trkpt>
      <trkpt lat="49.21881" lon="1.10285">
        <ele>142</ele>
        <time>2016-07-10T06:57:11.000Z</time>
      </trkpt>
      <trkpt lat="49.21881" lon="1.10275">
        <ele>142</ele>
        <time>2016-07-10T06:57:12.000Z</time>
      </trkpt>
      <trkpt lat="49.21881" lon="1.10265">
        <ele>142</ele>
        <time>2016-07-10T06:57:13.000Z</time>
      </trkpt>
      <trkpt lat="49.2188" lon="1.10254">
        <ele>143</ele>
        <time>2016-07-10T06:57:14.000Z</time>
      </trkpt>
      <trkpt lat="49.2188" lon="1.10244">
        <ele>142</ele>
        <time>2016-07-10T06:57:15.000Z</time>
      </trkpt>
      <trkpt lat="49.2188" lon="1.10233">
        <ele>143</ele>
        <time>2016-07-10T06:57:16.000Z</time>
      </trkpt>
      <trkpt lat="49.2188" lon="1.10223">
        <ele>142</ele>
        <time>2016-07-10T06:57:17.000Z</time>
      </trkpt>
      <trkpt lat="49.2188" lon="1.10212">
        <ele>142</ele>
        <time>2016-07-10T06:57:18.000Z</time>
      </trkpt>
      <trkpt lat="49.2188" lon="1.10201">
        <ele>142</ele>
        <time>2016-07-10T06:57:19.000Z</time>
      </trkpt>
      <trkpt lat="49.2188" lon="1.1019">
        <ele>142</ele>
        <time>2016-07-10T06:57:20.000Z</time>
      </trkpt>
      <trkpt lat="49.21879" lon="1.1018">
        <ele>142</ele>
        <time>2016-07-10T06:57:21.000Z</time>
      </trkpt>
      <trkpt lat="49.21879" lon="1.1017">
        <ele>142</ele>
        <time>2016-07-10T06:57:22.000Z</time>
      </trkpt>
      <trkpt lat="49.21879" lon="1.1016">
        <ele>142</ele>
        <time>2016-07-10T06:57:23.000Z</time>
      </trkpt>
      <trkpt lat="49.21879" lon="1.1015">
        <ele>142</ele>
        <time>2016-07-10T06:57:24.000Z</time>
      </trkpt>
      <trkpt lat="49.21879" lon="1.1014">
        <ele>142</ele>
        <time>2016-07-10T06:57:25.000Z</time>
      </trkpt>
      <trkpt lat="49.21879" lon="1.1013">
        <ele>142</ele>
        <time>2016-07-10T06:57:26.000Z</time>
      </trkpt>
      <trkpt lat="49.2188" lon="1.1012">
        <ele>142</ele>
        <time>2016-07-10T06:57:27.000Z</time>
      </trkpt>
      <trkpt lat="49.2188" lon="1.1011">
        <ele>142</ele>
        <time>2016-07-10T06:57:28.000Z</time>
      </trkpt>
      <trkpt lat="49.21881" lon="1.101">
        <ele>142</ele>
        <time>2016-07-10T06:57:29.000Z</time>
      </trkpt>
      <trkpt lat="49.21881" lon="1.1009">
        <ele>141</ele>
        <time>2016-07-10T06:57:30.000Z</time>
      </trkpt>
      <trkpt lat="49.21883" lon="1.1008">
        <ele>141</ele>
        <time>2016-07-10T06:57:31.000Z</time>
      </trkpt>
      <trkpt lat="49.21884" lon="1.10069">
        <ele>141</ele>
        <time>2016-07-10T06:57:32.000Z</time>
      </trkpt>
      <trkpt lat="49.21886" lon="1.10058">
        <ele>141</ele>
        <time>2016-07-10T06:57:33.000Z</time>
      </trkpt>
      <trkpt lat="49.21888" lon="1.10048">
        <ele>140</ele>
        <time>2016-07-10T06:57:34.000Z</time>
      </trkpt>
      <trkpt lat="49.21889" lon="1.10038">
        <ele>140</ele>
        <time>2016-07-10T06:57:35.000Z</time>
      </trkpt>
      <trkpt lat="49.21891" lon="1.10028">
        <ele>140</ele>
        <time>2016-07-10T06:57:36.000Z</time>
      </trkpt>
      <trkpt lat="49.21893" lon="1.10019">
        <ele>140</ele>
        <time>2016-07-10T06:57:37.000Z</time>
      </trkpt>
      <trkpt lat="49.21895" lon="1.1001">
        <ele>139</ele>
        <time>2016-07-10T06:57:38.000Z</time>
      </trkpt>
      <trkpt lat="49.21898" lon="1.10001">
        <ele>139</ele>
        <time>2016-07-10T06:57:39.000Z</time>
      </trkpt>
      <trkpt lat="49.21904" lon="1.09995">
        <ele>138</ele>
        <time>2016-07-10T06:57:40.000Z</time>
      </trkpt>
      <trkpt lat="49.21911" lon="1.0999">
        <ele>137</ele>
        <time>2016-07-10T06:57:41.000Z</time>
      </trkpt>
      <trkpt lat="49.2192" lon="1.09987">
        <ele>136</ele>
        <time>2016-07-10T06:57:42.000Z</time>
      </trkpt>
      <trkpt lat="49.21927" lon="1.09982">
        <ele>136</ele>
        <time>2016-07-10T06:57:43.000Z</time>
      </trkpt>
      <trkpt lat="49.21935" lon="1.09977">
        <ele>135</ele>
        <time>2016-07-10T06:57:44.000Z</time>
      </trkpt>
      <trkpt lat="49.21942" lon="1.09972">
        <ele>134</ele>
        <time>2016-07-10T06:57:45.000Z</time>
      </trkpt>
      <trkpt lat="49.2195" lon="1.09965">
        <ele>133</ele>
        <time>2016-07-10T06:57:46.000Z</time>
      </trkpt>
      <trkpt lat="49.21958" lon="1.09959">
        <ele>134</ele>
        <time>2016-07-10T06:57:47.000Z</time>
      </trkpt>
      <trkpt lat="49.21966" lon="1.09952">
        <ele>134</ele>
        <time>2016-07-10T06:57:48.000Z</time>
      </trkpt>
      <trkpt lat="49.21975" lon="1.09945">
        <ele>133</ele>
        <time>2016-07-10T06:57:49.000Z</time>
      </trkpt>
      <trkpt lat="49.21983" lon="1.09939">
        <ele>133</ele>
        <time>2016-07-10T06:57:50.000Z</time>
      </trkpt>
      <trkpt lat="49.21991" lon="1.09933">
        <ele>133</ele>
        <time>2016-07-10T06:57:51.000Z</time>
      </trkpt>
      <trkpt lat="49.21999" lon="1.09926">
        <ele>133</ele>
        <time>2016-07-10T06:57:52.000Z</time>
      </trkpt>
      <trkpt lat="49.22006" lon="1.0992">
        <ele>133</ele>
        <time>2016-07-10T06:57:53.000Z</time>
      </trkpt>
      <trkpt lat="49.22013" lon="1.09914">
        <ele>133</ele>
        <time>2016-07-10T06:57:54.000Z</time>
      </trkpt>
      <trkpt lat="49.2202" lon="1.09908">
        <ele>133</ele>
        <time>2016-07-10T06:57:55.000Z</time>
      </trkpt>
      <trkpt lat="49.22027" lon="1.09902">
        <ele>133</ele>
        <time>2016-07-10T06:57:56.000Z</time>
      </trkpt>
      <trkpt lat="49.22034" lon="1.09897">
        <ele>133</ele>
        <time>2016-07-10T06:57:57.000Z</time>
      </trkpt>
      <trkpt lat="49.22041" lon="1.09892">
        <ele>133</ele>
        <time>2016-07-10T06:57:58.000Z</time>
      </trkpt>
      <trkpt lat="49.22047" lon="1.09887">
        <ele>133</ele>
        <time>2016-07-10T06:57:59.000Z</time>
      </trkpt>
      <trkpt lat="49.22053" lon="1.09882">
        <ele>133</ele>
        <time>2016-07-10T06:58:00.000Z</time>
      </trkpt>
      <trkpt lat="49.22059" lon="1.09877">
        <ele>133</ele>
        <time>2016-07-10T06:58:01.000Z</time>
      </trkpt>
      <trkpt lat="49.22065" lon="1.09872">
        <ele>133</ele>
        <time>2016-07-10T06:58:02.000Z</time>
      </trkpt>
      <trkpt lat="49.22072" lon="1.09867">
        <ele>133</ele>
        <time>2016-07-10T06:58:03.000Z</time>
      </trkpt>
      <trkpt lat="49.22078" lon="1.09862">
        <ele>133</ele>
        <time>2016-07-10T06:58:04.000Z</time>
      </trkpt>
      <trkpt lat="49.22084" lon="1.09856">
        <ele>133</ele>
        <time>2016-07-10T06:58:05.000Z</time>
      </trkpt>
      <trkpt lat="49.2209" lon="1.09851">
        <ele>133</ele>
        <time>2016-07-10T06:58:06.000Z</time>
      </trkpt>
      <trkpt lat="49.22095" lon="1.09846">
        <ele>134</ele>
        <time>2016-07-10T06:58:07.000Z</time>
      </trkpt>
      <trkpt lat="49.22101" lon="1.09842">
        <ele>134</ele>
        <time>2016-07-10T06:58:08.000Z</time>
      </trkpt>
      <trkpt lat="49.22106" lon="1.09837">
        <ele>134</ele>
        <time>2016-07-10T06:58:09.000Z</time>
      </trkpt>
      <trkpt lat="49.22111" lon="1.09832">
        <ele>134</ele>
        <time>2016-07-10T06:58:10.000Z</time>
      </trkpt>
      <trkpt lat="49.22116" lon="1.09827">
        <ele>134</ele>
        <time>2016-07-10T06:58:11.000Z</time>
      </trkpt>
      <trkpt lat="49.22121" lon="1.09822">
        <ele>135</ele>
        <time>2016-07-10T06:58:12.000Z</time>
      </trkpt>
      <trkpt lat="49.22125" lon="1.09817">
        <ele>135</ele>
        <time>2016-07-10T06:58:13.000Z</time>
      </trkpt>
      <trkpt lat="49.2213" lon="1.09811">
        <ele>135</ele>
        <time>2016-07-10T06:58:14.000Z</time>
      </trkpt>
      <trkpt lat="49.22134" lon="1.09805">
        <ele>135</ele>
        <time>2016-07-10T06:58:15.000Z</time>
      </trkpt>
      <trkpt lat="49.22138" lon="1.09799">
        <ele>136</ele>
        <time>2016-07-10T06:58:16.000Z</time>
      </trkpt>
      <trkpt lat="49.22142" lon="1.09793">
        <ele>136</ele>
        <time>2016-07-10T06:58:17.000Z</time>
      </trkpt>
      <trkpt lat="49.22146" lon="1.09786">
        <ele>136</ele>
        <time>2016-07-10T06:58:18.000Z</time>
      </trkpt>
      <trkpt lat="49.2215" lon="1.0978">
        <ele>136</ele>
        <time>2016-07-10T06:58:19.000Z</time>
      </trkpt>
      <trkpt lat="49.22153" lon="1.09772">
        <ele>136</ele>
        <time>2016-07-10T06:58:20.000Z</time>
      </trkpt>
      <trkpt lat="49.22157" lon="1.09765">
        <ele>137</ele>
        <time>2016-07-10T06:58:21.000Z</time>
      </trkpt>
      <trkpt lat="49.2216" lon="1.09759">
        <ele>137</ele>
        <time>2016-07-10T06:58:22.000Z</time>
      </trkpt>
      <trkpt lat="49.22163" lon="1.09753">
        <ele>137</ele>
        <time>2016-07-10T06:58:23.000Z</time>
      </trkpt>
      <trkpt lat="49.22166" lon="1.09746">
        <ele>138</ele>
        <time>2016-07-10T06:58:24.000Z</time>
      </trkpt>
      <trkpt lat="49.22169" lon="1.09739">
        <ele>138</ele>
        <time>2016-07-10T06:58:25.000Z</time>
      </trkpt>
      <trkpt lat="49.22172" lon="1.09732">
        <ele>138</ele>
        <time>2016-07-10T06:58:26.000Z</time>
      </trkpt>
      <trkpt lat="49.22175" lon="1.09725">
        <ele>139</ele>
        <time>2016-07-10T06:58:27.000Z</time>
      </trkpt>
      <trkpt lat="49.22178" lon="1.09718">
        <ele>139</ele>
        <time>2016-07-10T06:58:28.000Z</time>
      </trkpt>
      <trkpt lat="49.22181" lon="1.09711">
        <ele>139</ele>
        <time>2016-07-10T06:58:29.000Z</time>
      </trkpt>
      <trkpt lat="49.22183" lon="1.09704">
        <ele>138</ele>
        <time>2016-07-10T06:58:30.000Z</time>
      </trkpt>
      <trkpt lat="49.22185" lon="1.09696">
        <ele>138</ele>
        <time>2016-07-10T06:58:31.000Z</time>
      </trkpt>
      <trkpt lat="49.22187" lon="1.09687">
        <ele>138</ele>
        <time>2016-07-10T06:58:32.000Z</time>
      </trkpt>
      <trkpt lat="49.22187" lon="1.09678">
        <ele>139</ele>
        <time>2016-07-10T06:58:33.000Z</time>
      </trkpt>
      <trkpt lat="49.22187" lon="1.09669">
        <ele>139</ele>
        <time>2016-07-10T06:58:34.000Z</time>
      </trkpt>
      <trkpt lat="49.22187" lon="1.09659">
        <ele>140</ele>
        <time>2016-07-10T06:58:35.000Z</time>
      </trkpt>
      <trkpt lat="49.22187" lon="1.0965">
        <ele>140</ele>
        <time>2016-07-10T06:58:36.000Z</time>
      </trkpt>
      <trkpt lat="49.22187" lon="1.09641">
        <ele>140</ele>
        <time>2016-07-10T06:58:37.000Z</time>
      </trkpt>
      <trkpt lat="49.22186" lon="1.09632">
        <ele>140</ele>
        <time>2016-07-10T06:58:38.000Z</time>
      </trkpt>
      <trkpt lat="49.22186" lon="1.09623">
        <ele>140</ele>
        <time>2016-07-10T06:58:39.000Z</time>
      </trkpt>
      <trkpt lat="49.22185" lon="1.09614">
        <ele>140</ele>
        <time>2016-07-10T06:58:40.000Z</time>
      </trkpt>
      <trkpt lat="49.22185" lon="1.09604">
        <ele>140</ele>
        <time>2016-07-10T06:58:41.000Z</time>
      </trkpt>
      <trkpt lat="49.22185" lon="1.09595">
        <ele>140</ele>
        <time>2016-07-10T06:58:42.000Z</time>
      </trkpt>
      <trkpt lat="49.22185" lon="1.09585">
        <ele>140</ele>
        <time>2016-07-10T06:58:43.000Z</time>
      </trkpt>
      <trkpt lat="49.22186" lon="1.09576">
        <ele>141</ele>
        <time>2016-07-10T06:58:44.000Z</time>
      </trkpt>
      <trkpt lat="49.22187" lon="1.09567">
        <ele>141</ele>
        <time>2016-07-10T06:58:45.000Z</time>
      </trkpt>
      <trkpt lat="49.22188" lon="1.09558">
        <ele>141</ele>
        <time>2016-07-10T06:58:46.000Z</time>
      </trkpt>
      <trkpt lat="49.2219" lon="1.09548">
        <ele>141</ele>
        <time>2016-07-10T06:58:47.000Z</time>
      </trkpt>
      <trkpt lat="49.22192" lon="1.09539">
        <ele>141</ele>
        <time>2016-07-10T06:58:48.000Z</time>
      </trkpt>
      <trkpt lat="49.22193" lon="1.0953">
        <ele>141</ele>
        <time>2016-07-10T06:58:49.000Z</time>
      </trkpt>
      <trkpt lat="49.22195" lon="1.09521">
        <ele>141</ele>
        <time>2016-07-10T06:58:50.000Z</time>
      </trkpt>
      <trkpt lat="49.22197" lon="1.09512">
        <ele>141</ele>
        <time>2016-07-10T06:58:51.000Z</time>
      </trkpt>
      <trkpt lat="49.22199" lon="1.09503">
        <ele>141</ele>
        <time>2016-07-10T06:58:52.000Z</time>
      </trkpt>
      <trkpt lat="49.22201" lon="1.09494">
        <ele>140</ele>
        <time>2016-07-10T06:58:53.000Z</time>
      </trkpt>
      <trkpt lat="49.22203" lon="1.09486">
        <ele>140</ele>
        <time>2016-07-10T06:58:54.000Z</time>
      </trkpt>
      <trkpt lat="49.22204" lon="1.09477">
        <ele>141</ele>
        <time>2016-07-10T06:58:55.000Z</time>
      </trkpt>
      <trkpt lat="49.22204" lon="1.09468">
        <ele>141</ele>
        <time>2016-07-10T06:58:56.000Z</time>
      </trkpt>
      <trkpt lat="49.22205" lon="1.0946">
        <ele>141</ele>
        <time>2016-07-10T06:58:57.000Z</time>
      </trkpt>
      <trkpt lat="49.22207" lon="1.09451">
        <ele>141</ele>
        <time>2016-07-10T06:58:58.000Z</time>
      </trkpt>
      <trkpt lat="49.22208" lon="1.09443">
        <ele>141</ele>
        <time>2016-07-10T06:58:59.000Z</time>
      </trkpt>
      <trkpt lat="49.22209" lon="1.09435">
        <ele>140</ele>
        <time>2016-07-10T06:59:00.000Z</time>
      </trkpt>
      <trkpt lat="49.2221" lon="1.09427">
        <ele>141</ele>
        <time>2016-07-10T06:59:01.000Z</time>
      </trkpt>
      <trkpt lat="49.22211" lon="1.09419">
        <ele>141</ele>
        <time>2016-07-10T06:59:02.000Z</time>
      </trkpt>
      <trkpt lat="49.22213" lon="1.09411">
        <ele>140</ele>
        <time>2016-07-10T06:59:03.000Z</time>
      </trkpt>
      <trkpt lat="49.22214" lon="1.09403">
        <ele>140</ele>
        <time>2016-07-10T06:59:04.000Z</time>
      </trkpt>
      <trkpt lat="49.22215" lon="1.09395">
        <ele>140</ele>
        <time>2016-07-10T06:59:05.000Z</time>
      </trkpt>
      <trkpt lat="49.22216" lon="1.09387">
        <ele>140</ele>
        <time>2016-07-10T06:59:06.000Z</time>
      </trkpt>
      <trkpt lat="49.22217" lon="1.09379">
        <ele>140</ele>
        <time>2016-07-10T06:59:07.000Z</time>
      </trkpt>
      <trkpt lat="49.22218" lon="1.09371">
        <ele>141</ele>
        <time>2016-07-10T06:59:08.000Z</time>
      </trkpt>
      <trkpt lat="49.2222" lon="1.09363">
        <ele>140</ele>
        <time>2016-07-10T06:59:09.000Z</time>
      </trkpt>
      <trkpt lat="49.22221" lon="1.09355">
        <ele>141</ele>
        <time>2016-07-10T06:59:10.000Z</time>
      </trkpt>
      <trkpt lat="49.22222" lon="1.09346">
        <ele>140</ele>
        <time>2016-07-10T06:59:11.000Z</time>
      </trkpt>
      <trkpt lat="49.22222" lon="1.09338">
        <ele>140</ele>
        <time>2016-07-10T06:59:12.000Z</time>
      </trkpt>
      <trkpt lat="49.22223" lon="1.0933">
        <ele>140</ele>
        <time>2016-07-10T06:59:13.000Z</time>
      </trkpt>
      <trkpt lat="49.22225" lon="1.09322">
        <ele>140</ele>
        <time>2016-07-10T06:59:14.000Z</time>
      </trkpt>
      <trkpt lat="49.22226" lon="1.09314">
        <ele>140</ele>
        <time>2016-07-10T06:59:15.000Z</time>
      </trkpt>
      <trkpt lat="49.22227" lon="1.09306">
        <ele>140</ele>
        <time>2016-07-10T06:59:16.000Z</time>
      </trkpt>
      <trkpt lat="49.22228" lon="1.09298">
        <ele>140</ele>
        <time>2016-07-10T06:59:17.000Z</time>
      </trkpt>
      <trkpt lat="49.22228" lon="1.09289">
        <ele>140</ele>
        <time>2016-07-10T06:59:18.000Z</time>
      </trkpt>
      <trkpt lat="49.22228" lon="1.09281">
        <ele>139</ele>
        <time>2016-07-10T06:59:19.000Z</time>
      </trkpt>
      <trkpt lat="49.22228" lon="1.09273">
        <ele>139</ele>
        <time>2016-07-10T06:59:20.000Z</time>
      </trkpt>
      <trkpt lat="49.22228" lon="1.09265">
        <ele>139</ele>
        <time>2016-07-10T06:59:21.000Z</time>
      </trkpt>
      <trkpt lat="49.22227" lon="1.09257">
        <ele>139</ele>
        <time>2016-07-10T06:59:22.000Z</time>
      </trkpt>
      <trkpt lat="49.22227" lon="1.09248">
        <ele>139</ele>
        <time>2016-07-10T06:59:23.000Z</time>
      </trkpt>
      <trkpt lat="49.22226" lon="1.0924">
        <ele>139</ele>
        <time>2016-07-10T06:59:24.000Z</time>
      </trkpt>
      <trkpt lat="49.22226" lon="1.09232">
        <ele>139</ele>
        <time>2016-07-10T06:59:25.000Z</time>
      </trkpt>
      <trkpt lat="49.22225" lon="1.09224">
        <ele>139</ele>
        <time>2016-07-10T06:59:26.000Z</time>
      </trkpt>
      <trkpt lat="49.22225" lon="1.09215">
        <ele>138</ele>
        <time>2016-07-10T06:59:27.000Z</time>
      </trkpt>
      <trkpt lat="49.22224" lon="1.09207">
        <ele>138</ele>
        <time>2016-07-10T06:59:28.000Z</time>
      </trkpt>
      <trkpt lat="49.22224" lon="1.09198">
        <ele>139</ele>
        <time>2016-07-10T06:59:29.000Z</time>
      </trkpt>
      <trkpt lat="49.22224" lon="1.0919">
        <ele>139</ele>
        <time>2016-07-10T06:59:30.000Z</time>
      </trkpt>
      <trkpt lat="49.22223" lon="1.09181">
        <ele>139</ele>
        <time>2016-07-10T06:59:31.000Z</time>
      </trkpt>
      <trkpt lat="49.22223" lon="1.09173">
        <ele>139</ele>
        <time>2016-07-10T06:59:32.000Z</time>
      </trkpt>
      <trkpt lat="49.22223" lon="1.09165">
        <ele>139</ele>
        <time>2016-07-10T06:59:33.000Z</time>
      </trkpt>
      <trkpt lat="49.22224" lon="1.09156">
        <ele>138</ele>
        <time>2016-07-10T06:59:34.000Z</time>
      </trkpt>
      <trkpt lat="49.22225" lon="1.09148">
        <ele>138</ele>
        <time>2016-07-10T06:59:35.000Z</time>
      </trkpt>
      <trkpt lat="49.22227" lon="1.09139">
        <ele>137</ele>
        <time>2016-07-10T06:59:36.000Z</time>
      </trkpt>
      <trkpt lat="49.2223" lon="1.09131">
        <ele>137</ele>
        <time>2016-07-10T06:59:37.000Z</time>
      </trkpt>
      <trkpt lat="49.22233" lon="1.09122">
        <ele>137</ele>
        <time>2016-07-10T06:59:38.000Z</time>
      </trkpt>
      <trkpt lat="49.22235" lon="1.09114">
        <ele>137</ele>
        <time>2016-07-10T06:59:39.000Z</time>
      </trkpt>
      <trkpt lat="49.22238" lon="1.09105">
        <ele>137</ele>
        <time>2016-07-10T06:59:40.000Z</time>
      </trkpt>
      <trkpt lat="49.22241" lon="1.09096">
        <ele>137</ele>
        <time>2016-07-10T06:59:41.000Z</time>
      </trkpt>
      <trkpt lat="49.22244" lon="1.09087">
        <ele>137</ele>
        <time>2016-07-10T06:59:42.000Z</time>
      </trkpt>
      <trkpt lat="49.22247" lon="1.09078">
        <ele>137</ele>
        <time>2016-07-10T06:59:43.000Z</time>
      </trkpt>
      <trkpt lat="49.2225" lon="1.0907">
        <ele>137</ele>
        <time>2016-07-10T06:59:44.000Z</time>
      </trkpt>
      <trkpt lat="49.22254" lon="1.09061">
        <ele>137</ele>
        <time>2016-07-10T06:59:45.000Z</time>
      </trkpt>
      <trkpt lat="49.22257" lon="1.09053">
        <ele>137</ele>
        <time>2016-07-10T06:59:46.000Z</time>
      </trkpt>
      <trkpt lat="49.2226" lon="1.09046">
        <ele>137</ele>
        <time>2016-07-10T06:59:47.000Z</time>
      </trkpt>
      <trkpt lat="49.22264" lon="1.09038">
        <ele>138</ele>
        <time>2016-07-10T06:59:48.000Z</time>
      </trkpt>
      <trkpt lat="49.22267" lon="1.09031">
        <ele>138</ele>
        <time>2016-07-10T06:59:49.000Z</time>
      </trkpt>
      <trkpt lat="49.22271" lon="1.09024">
        <ele>138</ele>
        <time>2016-07-10T06:59:50.000Z</time>
      </trkpt>
      <trkpt lat="49.22274" lon="1.09018">
        <ele>138</ele>
        <time>2016-07-10T06:59:51.000Z</time>
      </trkpt>
      <trkpt lat="49.22278" lon="1.09011">
        <ele>138</ele>
        <time>2016-07-10T06:59:52.000Z</time>
      </trkpt>
      <trkpt lat="49.22282" lon="1.09005">
        <ele>138</ele>
        <time>2016-07-10T06:59:53.000Z</time>
      </trkpt>
      <trkpt lat="49.22286" lon="1.09">
        <ele>138</ele>
        <time>2016-07-10T06:59:54.000Z</time>
      </trkpt>
      <trkpt lat="49.22291" lon="1.08994">
        <ele>138</ele>
        <time>2016-07-10T06:59:55.000Z</time>
      </trkpt>
      <trkpt lat="49.22296" lon="1.08989">
        <ele>138</ele>
        <time>2016-07-10T06:59:56.000Z</time>
      </trkpt>
      <trkpt lat="49.22301" lon="1.08983">
        <ele>138</ele>
        <time>2016-07-10T06:59:57.000Z</time>
      </trkpt>
      <trkpt lat="49.22306" lon="1.08978">
        <ele>138</ele>
        <time>2016-07-10T06:59:58.000Z</time>
      </trkpt>
      <trkpt lat="49.2231" lon="1.08972">
        <ele>138</ele>
        <time>2016-07-10T06:59:59.000Z</time>
      </trkpt>
      <trkpt lat="49.22315" lon="1.08967">
        <ele>139</ele>
        <time>2016-07-10T07:00:00.000Z</time>
      </trkpt>
      <trkpt lat="49.2232" lon="1.08962">
        <ele>139</ele>
        <time>2016-07-10T07:00:01.000Z</time>
      </trkpt>
      <trkpt lat="49.22325" lon="1.08957">
        <ele>139</ele>
        <time>2016-07-10T07:00:02.000Z</time>
      </trkpt>
      <trkpt lat="49.2233" lon="1.08951">
        <ele>139</ele>
        <time>2016-07-10T07:00:03.000Z</time>
      </trkpt>
      <trkpt lat="49.22334" lon="1.08946">
        <ele>139</ele>
        <time>2016-07-10T07:00:04.000Z</time>
      </trkpt>
      <trkpt lat="49.22339" lon="1.08941">
        <ele>139</ele>
        <time>2016-07-10T07:00:05.000Z</time>
      </trkpt>
      <trkpt lat="49.22344" lon="1.08936">
        <ele>139</ele>
        <time>2016-07-10T07:00:06.000Z</time>
      </trkpt>
      <trkpt lat="49.22348" lon="1.0893">
        <ele>140</ele>
        <time>2016-07-10T07:00:07.000Z</time>
      </trkpt>
      <trkpt lat="49.22353" lon="1.08925">
        <ele>140</ele>
        <time>2016-07-10T07:00:08.000Z</time>
      </trkpt>
      <trkpt lat="49.22357" lon="1.08921">
        <ele>140</ele>
        <time>2016-07-10T07:00:09.000Z</time>
      </trkpt>
      <trkpt lat="49.22362" lon="1.08916">
        <ele>140</ele>
        <time>2016-07-10T07:00:10.000Z</time>
      </trkpt>
      <trkpt lat="49.22367" lon="1.08912">
        <ele>140</ele>
        <time>2016-07-10T07:00:11.000Z</time>
      </trkpt>
      <trkpt lat="49.22371" lon="1.08909">
        <ele>141</ele>
        <time>2016-07-10T07:00:12.000Z</time>
      </trkpt>
      <trkpt lat="49.22376" lon="1.08905">
        <ele>141</ele>
        <time>2016-07-10T07:00:13.000Z</time>
      </trkpt>
      <trkpt lat="49.22382" lon="1.08902">
        <ele>141</ele>
        <time>2016-07-10T07:00:14.000Z</time>
      </trkpt>
      <trkpt lat="49.22387" lon="1.08899">
        <ele>141</ele>
        <time>2016-07-10T07:00:15.000Z</time>
      </trkpt>
      <trkpt lat="49.22392" lon="1.08896">
        <ele>141</ele>
        <time>2016-07-10T07:00:16.000Z</time>
      </trkpt>
      <trkpt lat="49.22397" lon="1.08892">
        <ele>141</ele>
        <time>2016-07-10T07:00:17.000Z</time>
      </trkpt>
      <trkpt lat="49.22403" lon="1.08889">
        <ele>141</ele>
        <time>2016-07-10T07:00:18.000Z</time>
      </trkpt>
      <trkpt lat="49.22408" lon="1.08886">
        <ele>141</ele>
        <time>2016-07-10T07:00:19.000Z</time>
      </trkpt>
      <trkpt lat="49.22413" lon="1.08883">
        <ele>141</ele>
        <time>2016-07-10T07:00:20.000Z</time>
      </trkpt>
      <trkpt lat="49.22419" lon="1.0888">
        <ele>141</ele>
        <time>2016-07-10T07:00:21.000Z</time>
      </trkpt>
      <trkpt lat="49.22425" lon="1.08877">
        <ele>141</ele>
        <time>2016-07-10T07:00:22.000Z</time>
      </trkpt>
      <trkpt lat="49.2243" lon="1.08873">
        <ele>140</ele>
        <time>2016-07-10T07:00:23.000Z</time>
      </trkpt>
      <trkpt lat="49.22436" lon="1.0887">
        <ele>141</ele>
        <time>2016-07-10T07:00:24.000Z</time>
      </trkpt>
      <trkpt lat="49.22441" lon="1.08867">
        <ele>140</ele>
        <time>2016-07-10T07:00:25.000Z</time>
      </trkpt>
      <trkpt lat="49.22447" lon="1.08863">
        <ele>141</ele>
        <time>2016-07-10T07:00:26.000Z</time>
      </trkpt>
      <trkpt lat="49.22452" lon="1.08858">
        <ele>140</ele>
        <time>2016-07-10T07:00:27.000Z</time>
      </trkpt>
      <trkpt lat="49.22456" lon="1.08852">
        <ele>140</ele>
        <time>2016-07-10T07:00:28.000Z</time>
      </trkpt>
      <trkpt lat="49.22459" lon="1.08843">
        <ele>140</ele>
        <time>2016-07-10T07:00:29.000Z</time>
      </trkpt>
      <trkpt lat="49.22462" lon="1.08835">
        <ele>140</ele>
        <time>2016-07-10T07:00:30.000Z</time>
      </trkpt>
      <trkpt lat="49.22465" lon="1.08825">
        <ele>139</ele>
        <time>2016-07-10T07:00:31.000Z</time>
      </trkpt>
      <trkpt lat="49.22468" lon="1.08817">
        <ele>139</ele>
        <time>2016-07-10T07:00:32.000Z</time>
      </trkpt>
      <trkpt lat="49.22472" lon="1.08808">
        <ele>139</ele>
        <time>2016-07-10T07:00:33.000Z</time>
      </trkpt>
      <trkpt lat="49.22476" lon="1.088">
        <ele>139</ele>
        <time>2016-07-10T07:00:34.000Z</time>
      </trkpt>
      <trkpt lat="49.2248" lon="1.08792">
        <ele>139</ele>
        <time>2016-07-10T07:00:35.000Z</time>
      </trkpt>
      <trkpt lat="49.22484" lon="1.08784">
        <ele>139</ele>
        <time>2016-07-10T07:00:36.000Z</time>
      </trkpt>
      <trkpt lat="49.22489" lon="1.08776">
        <ele>139</ele>
        <time>2016-07-10T07:00:37.000Z</time>
      </trkpt>
      <trkpt lat="49.22493" lon="1.08769">
        <ele>139</ele>
        <time>2016-07-10T07:00:38.000Z</time>
      </trkpt>
      <trkpt lat="49.22498" lon="1.08761">
        <ele>139</ele>
        <time>2016-07-10T07:00:39.000Z</time>
      </trkpt>
      <trkpt lat="49.22502" lon="1.08754">
        <ele>139</ele>
        <time>2016-07-10T07:00:40.000Z</time>
      </trkpt>
      <trkpt lat="49.22507" lon="1.08748">
        <ele>138</ele>
        <time>2016-07-10T07:00:41.000Z</time>
      </trkpt>
      <trkpt lat="49.22512" lon="1.08741">
        <ele>138</ele>
        <time>2016-07-10T07:00:42.000Z</time>
      </trkpt>
      <trkpt lat="49.22517" lon="1.08734">
        <ele>138</ele>
        <time>2016-07-10T07:00:43.000Z</time>
      </trkpt>
      <trkpt lat="49.22522" lon="1.08727">
        <ele>138</ele>
        <time>2016-07-10T07:00:44.000Z</time>
      </trkpt>
      <trkpt lat="49.22527" lon="1.08719">
        <ele>138</ele>
        <time>2016-07-10T07:00:45.000Z</time>
      </trkpt>
      <trkpt lat="49.22532" lon="1.08712">
        <ele>138</ele>
        <time>2016-07-10T07:00:46.000Z</time>
      </trkpt>
      <trkpt lat="49.22537" lon="1.08706">
        <ele>138</ele>
        <time>2016-07-10T07:00:47.000Z</time>
      </trkpt>
      <trkpt lat="49.22541" lon="1.08699">
        <ele>138</ele>
        <time>2016-07-10T07:00:48.000Z</time>
      </trkpt>
      <trkpt lat="49.22546" lon="1.08692">
        <ele>138</ele>
        <time>2016-07-10T07:00:49.000Z</time>
      </trkpt>
      <trkpt lat="49.2255" lon="1.08686">
        <ele>138</ele>
        <time>2016-07-10T07:00:50.000Z</time>
      </trkpt>
      <trkpt lat="49.22553" lon="1.08679">
        <ele>137</ele>
        <time>2016-07-10T07:00:51.000Z</time>
      </trkpt>
      <trkpt lat="49.22556" lon="1.08671">
        <ele>137</ele>
        <time>2016-07-10T07:00:52.000Z</time>
      </trkpt>
      <trkpt lat="49.22558" lon="1.08662">
        <ele>137</ele>
        <time>2016-07-10T07:00:53.000Z</time>
      </trkpt>
      <trkpt lat="49.22558" lon="1.08653">
        <ele>137</ele>
        <time>2016-07-10T07:00:54.000Z</time>
      </trkpt>
      <trkpt lat="49.22556" lon="1.08645">
        <ele>138</ele>
        <time>2016-07-10T07:00:55.000Z</time>
      </trkpt>
      <trkpt lat="49.22552" lon="1.08637">
        <ele>138</ele>
        <time>2016-07-10T07:00:56.000Z</time>
      </trkpt>
      <trkpt lat="49.22548" lon="1.08629">
        <ele>137</ele>
        <time>2016-07-10T07:00:57.000Z</time>
      </trkpt>
      <trkpt lat="49.22544" lon="1.08622">
        <ele>137</ele>
        <time>2016-07-10T07:00:58.000Z</time>
      </trkpt>
      <trkpt lat="49.22539" lon="1.08615">
        <ele>137</ele>
        <time>2016-07-10T07:00:59.000Z</time>
      </trkpt>
      <trkpt lat="49.22535" lon="1.08608">
        <ele>138</ele>
        <time>2016-07-10T07:01:00.000Z</time>
      </trkpt>
      <trkpt lat="49.2253" lon="1.08601">
        <ele>138</ele>
        <time>2016-07-10T07:01:01.000Z</time>
      </trkpt>
      <trkpt lat="49.22527" lon="1.08595">
        <ele>138</ele>
        <time>2016-07-10T07:01:02.000Z</time>
      </trkpt>
      <trkpt lat="49.22525" lon="1.0859">
        <ele>139</ele>
        <time>2016-07-10T07:01:03.000Z</time>
      </trkpt>
      <trkpt lat="49.22524" lon="1.08585">
        <ele>139</ele>
        <time>2016-07-10T07:01:04.000Z</time>
      </trkpt>
      <trkpt lat="49.22524" lon="1.0858">
        <ele>138</ele>
        <time>2016-07-10T07:01:05.000Z</time>
      </trkpt>
      <trkpt lat="49.22526" lon="1.08574">
        <ele>138</ele>
        <time>2016-07-10T07:01:06.000Z</time>
      </trkpt>
      <trkpt lat="49.22529" lon="1.08568">
        <ele>138</ele>
        <time>2016-07-10T07:01:07.000Z</time>
      </trkpt>
      <trkpt lat="49.22532" lon="1.08561">
        <ele>137</ele>
        <time>2016-07-10T07:01:08.000Z</time>
      </trkpt>
      <trkpt lat="49.22535" lon="1.08554">
        <ele>137</ele>
        <time>2016-07-10T07:01:09.000Z</time>
      </trkpt>
      <trkpt lat="49.22538" lon="1.08547">
        <ele>137</ele>
        <time>2016-07-10T07:01:10.000Z</time>
      </trkpt>
      <trkpt lat="49.22542" lon="1.08539">
        <ele>137</ele>
        <time>2016-07-10T07:01:11.000Z</time>
      </trkpt>
      <trkpt lat="49.22547" lon="1.08532">
        <ele>137</ele>
        <time>2016-07-10T07:01:12.000Z</time>
      </trkpt>
      <trkpt lat="49.22551" lon="1.08525">
        <ele>137</ele>
        <time>2016-07-10T07:01:13.000Z</time>
      </trkpt>
      <trkpt lat="49.22555" lon="1.08517">
        <ele>137</ele>
        <time>2016-07-10T07:01:14.000Z</time>
      </trkpt>
      <trkpt lat="49.22559" lon="1.0851">
        <ele>137</ele>
        <time>2016-07-10T07:01:15.000Z</time>
      </trkpt>
      <trkpt lat="49.22563" lon="1.08503">
        <ele>137</ele>
        <time>2016-07-10T07:01:16.000Z</time>
      </trkpt>
      <trkpt lat="49.22567" lon="1.08495">
        <ele>137</ele>
        <time>2016-07-10T07:01:17.000Z</time>
      </trkpt>
      <trkpt lat="49.22571" lon="1.08487">
        <ele>137</ele>
        <time>2016-07-10T07:01:18.000Z</time>
      </trkpt>
      <trkpt lat="49.22575" lon="1.08479">
        <ele>137</ele>
        <time>2016-07-10T07:01:19.000Z</time>
      </trkpt>
      <trkpt lat="49.22579" lon="1.08471">
        <ele>137</ele>
        <time>2016-07-10T07:01:20.000Z</time>
      </trkpt>
      <trkpt lat="49.22582" lon="1.08463">
        <ele>137</ele>
        <time>2016-07-10T07:01:21.000Z</time>
      </trkpt>
      <trkpt lat="49.22585" lon="1.08454">
        <ele>137</ele>
        <time>2016-07-10T07:01:22.000Z</time>
      </trkpt>
      <trkpt lat="49.22588" lon="1.08446">
        <ele>137</ele>
        <time>2016-07-10T07:01:23.000Z</time>
      </trkpt>
      <trkpt lat="49.22592" lon="1.08438">
        <ele>137</ele>
        <time>2016-07-10T07:01:24.000Z</time>
      </trkpt>
      <trkpt lat="49.22595" lon="1.08429">
        <ele>137</ele>
        <time>2016-07-10T07:01:25.000Z</time>
      </trkpt>
      <trkpt lat="49.22598" lon="1.08421">
        <ele>137</ele>
        <time>2016-07-10T07:01:26.000Z</time>
      </trkpt>
      <trkpt lat="49.22601" lon="1.08413">
        <ele>137</ele>
        <time>2016-07-10T07:01:27.000Z</time>
      </trkpt>
      <trkpt lat="49.22603" lon="1.08405">
        <ele>137</ele>
        <time>2016-07-10T07:01:28.000Z</time>
      </trkpt>
      <trkpt lat="49.22606" lon="1.08397">
        <ele>137</ele>
        <time>2016-07-10T07:01:29.000Z</time>
      </trkpt>
      <trkpt lat="49.22608" lon="1.08389">
        <ele>137</ele>
        <time>2016-07-10T07:01:30.000Z</time>
      </trkpt>
      <trkpt lat="49.22611" lon="1.08381">
        <ele>137</ele>
        <time>2016-07-10T07:01:31.000Z</time>
      </trkpt>
      <trkpt lat="49.22613" lon="1.08373">
        <ele>137</ele>
        <time>2016-07-10T07:01:32.000Z</time>
      </trkpt>
      <trkpt lat="49.22615" lon="1.08365">
        <ele>137</ele>
        <time>2016-07-10T07:01:33.000Z</time>
      </trkpt>
      <trkpt lat="49.22617" lon="1.08356">
        <ele>137</ele>
        <time>2016-07-10T07:01:34.000Z</time>
      </trkpt>
      <trkpt lat="49.2262" lon="1.08348">
        <ele>137</ele>
        <time>2016-07-10T07:01:35.000Z</time>
      </trkpt>
      <trkpt lat="49.22622" lon="1.08339">
        <ele>137</ele>
        <time>2016-07-10T07:01:36.000Z</time>
      </trkpt>
      <trkpt lat="49.22624" lon="1.08331">
        <ele>137</ele>
        <time>2016-07-10T07:01:37.000Z</time>
      </trkpt>
      <trkpt lat="49.22626" lon="1.08322">
        <ele>137</ele>
        <time>2016-07-10T07:01:38.000Z</time>
      </trkpt>
      <trkpt lat="49.22628" lon="1.08314">
        <ele>137</ele>
        <time>2016-07-10T07:01:39.000Z</time>
      </trkpt>
      <trkpt lat="49.22629" lon="1.08305">
        <ele>136</ele>
        <time>2016-07-10T07:01:40.000Z</time>
      </trkpt>
      <trkpt lat="49.22631" lon="1.08297">
        <ele>136</ele>
        <time>2016-07-10T07:01:41.000Z</time>
      </trkpt>
      <trkpt lat="49.22633" lon="1.08288">
        <ele>137</ele>
        <time>2016-07-10T07:01:42.000Z</time>
      </trkpt>
      <trkpt lat="49.22636" lon="1.0828">
        <ele>137</ele>
        <time>2016-07-10T07:01:43.000Z</time>
      </trkpt>
      <trkpt lat="49.22638" lon="1.08272">
        <ele>137</ele>
        <time>2016-07-10T07:01:44.000Z</time>
      </trkpt>
      <trkpt lat="49.2264" lon="1.08264">
        <ele>137</ele>
        <time>2016-07-10T07:01:45.000Z</time>
      </trkpt>
      <trkpt lat="49.22642" lon="1.08256">
        <ele>137</ele>
        <time>2016-07-10T07:01:46.000Z</time>
      </trkpt>
      <trkpt lat="49.22643" lon="1.08248">
        <ele>136</ele>
        <time>2016-07-10T07:01:47.000Z</time>
      </trkpt>
      <trkpt lat="49.22645" lon="1.0824">
        <ele>136</ele>
        <time>2016-07-10T07:01:48.000Z</time>
      </trkpt>
      <trkpt lat="49.22647" lon="1.08232">
        <ele>136</ele>
        <time>2016-07-10T07:01:49.000Z</time>
      </trkpt>
      <trkpt lat="49.22648" lon="1.08224">
        <ele>135</ele>
        <time>2016-07-10T07:01:50.000Z</time>
      </trkpt>
      <trkpt lat="49.2265" lon="1.08216">
        <ele>135</ele>
        <time>2016-07-10T07:01:51.000Z</time>
      </trkpt>
      <trkpt lat="49.22652" lon="1.08208">
        <ele>135</ele>
        <time>2016-07-10T07:01:52.000Z</time>
      </trkpt>
      <trkpt lat="49.22653" lon="1.08199">
        <ele>135</ele>
        <time>2016-07-10T07:01:53.000Z</time>
      </trkpt>
      <trkpt lat="49.22655" lon="1.08191">
        <ele>135</ele>
        <time>2016-07-10T07:01:54.000Z</time>
      </trkpt>
      <trkpt lat="49.22657" lon="1.08184">
        <ele>134</ele>
        <time>2016-07-10T07:01:55.000Z</time>
      </trkpt>
      <trkpt lat="49.2266" lon="1.08177">
        <ele>131</ele>
        <time>2016-07-10T07:01:56.000Z</time>
      </trkpt>
      <trkpt lat="49.22663" lon="1.08173">
        <ele>126</ele>
        <time>2016-07-10T07:01:57.000Z</time>
      </trkpt>
      <trkpt lat="49.22667" lon="1.0817">
        <ele>126</ele>
        <time>2016-07-10T07:01:58.000Z</time>
      </trkpt>
      <trkpt lat="49.22672" lon="1.08167">
        <ele>125</ele>
        <time>2016-07-10T07:01:59.000Z</time>
      </trkpt>
      <trkpt lat="49.22677" lon="1.08162">
        <ele>123</ele>
        <time>2016-07-10T07:02:00.000Z</time>
      </trkpt>
      <trkpt lat="49.2268" lon="1.08156">
        <ele>123</ele>
        <time>2016-07-10T07:02:01.000Z</time>
      </trkpt>
      <trkpt lat="49.22682" lon="1.08149">
        <ele>123</ele>
        <time>2016-07-10T07:02:02.000Z</time>
      </trkpt>
      <trkpt lat="49.22682" lon="1.08141">
        <ele>122</ele>
        <time>2016-07-10T07:02:03.000Z</time>
      </trkpt>
      <trkpt lat="49.22682" lon="1.08134">
        <ele>122</ele>
        <time>2016-07-10T07:02:04.000Z</time>
      </trkpt>
      <trkpt lat="49.22683" lon="1.08125">
        <ele>122</ele>
        <time>2016-07-10T07:02:05.000Z</time>
      </trkpt>
      <trkpt lat="49.22683" lon="1.08117">
        <ele>122</ele>
        <time>2016-07-10T07:02:06.000Z</time>
      </trkpt>
      <trkpt lat="49.22684" lon="1.08109">
        <ele>122</ele>
        <time>2016-07-10T07:02:07.000Z</time>
      </trkpt>
      <trkpt lat="49.22685" lon="1.081">
        <ele>122</ele>
        <time>2016-07-10T07:02:08.000Z</time>
      </trkpt>
      <trkpt lat="49.22685" lon="1.08091">
        <ele>122</ele>
        <time>2016-07-10T07:02:09.000Z</time>
      </trkpt>
      <trkpt lat="49.22686" lon="1.08082">
        <ele>123</ele>
        <time>2016-07-10T07:02:10.000Z</time>
      </trkpt>
      <trkpt lat="49.22688" lon="1.08073">
        <ele>123</ele>
        <time>2016-07-10T07:02:11.000Z</time>
      </trkpt>
      <trkpt lat="49.22689" lon="1.08064">
        <ele>124</ele>
        <time>2016-07-10T07:02:12.000Z</time>
      </trkpt>
      <trkpt lat="49.2269" lon="1.08055">
        <ele>124</ele>
        <time>2016-07-10T07:02:13.000Z</time>
      </trkpt>
      <trkpt lat="49.22691" lon="1.08047">
        <ele>123</ele>
        <time>2016-07-10T07:02:14.000Z</time>
      </trkpt>
      <trkpt lat="49.22693" lon="1.08039">
        <ele>121</ele>
        <time>2016-07-10T07:02:15.000Z</time>
      </trkpt>
      <trkpt lat="49.22696" lon="1.08033">
        <ele>119</ele>
        <time>2016-07-10T07:02:16.000Z</time>
      </trkpt>
      <trkpt lat="49.22701" lon="1.08028">
        <ele>118</ele>
        <time>2016-07-10T07:02:17.000Z</time>
      </trkpt>
      <trkpt lat="49.22707" lon="1.08025">
        <ele>118</ele>
        <time>2016-07-10T07:02:18.000Z</time>
      </trkpt>
      <trkpt lat="49.22715" lon="1.0802">
        <ele>117</ele>
        <time>2016-07-10T07:02:19.000Z</time>
      </trkpt>
      <trkpt lat="49.22721" lon="1.08015">
        <ele>117</ele>
        <time>2016-07-10T07:02:20.000Z</time>
      </trkpt>
      <trkpt lat="49.22727" lon="1.08007">
        <ele>117</ele>
        <time>2016-07-10T07:02:21.000Z</time>
      </trkpt>
      <trkpt lat="49.22733" lon="1.07998">
        <ele>118</ele>
        <time>2016-07-10T07:02:22.000Z</time>
      </trkpt>
      <trkpt lat="49.22738" lon="1.07989">
        <ele>118</ele>
        <time>2016-07-10T07:02:23.000Z</time>
      </trkpt>
      <trkpt lat="49.22742" lon="1.0798">
        <ele>118</ele>
        <time>2016-07-10T07:02:24.000Z</time>
      </trkpt>
      <trkpt lat="49.22746" lon="1.07972">
        <ele>117</ele>
        <time>2016-07-10T07:02:25.000Z</time>
      </trkpt>
      <trkpt lat="49.2275" lon="1.07963">
        <ele>117</ele>
        <time>2016-07-10T07:02:26.000Z</time>
      </trkpt>
      <trkpt lat="49.22754" lon="1.07955">
        <ele>117</ele>
        <time>2016-07-10T07:02:27.000Z</time>
      </trkpt>
      <trkpt lat="49.22757" lon="1.07948">
        <ele>117</ele>
        <time>2016-07-10T07:02:28.000Z</time>
      </trkpt>
      <trkpt lat="49.22759" lon="1.07942">
        <ele>117</ele>
        <time>2016-07-10T07:02:29.000Z</time>
      </trkpt>
      <trkpt lat="49.22761" lon="1.07936">
        <ele>118</ele>
        <time>2016-07-10T07:02:30.000Z</time>
      </trkpt>
      <trkpt lat="49.22763" lon="1.07929">
        <ele>119</ele>
        <time>2016-07-10T07:02:31.000Z</time>
      </trkpt>
      <trkpt lat="49.22764" lon="1.07922">
        <ele>119</ele>
        <time>2016-07-10T07:02:32.000Z</time>
      </trkpt>
      <trkpt lat="49.22764" lon="1.07914">
        <ele>119</ele>
        <time>2016-07-10T07:02:33.000Z</time>
      </trkpt>
      <trkpt lat="49.22763" lon="1.07907">
        <ele>120</ele>
        <time>2016-07-10T07:02:34.000Z</time>
      </trkpt>
      <trkpt lat="49.22761" lon="1.079">
        <ele>121</ele>
        <time>2016-07-10T07:02:35.000Z</time>
      </trkpt>
      <trkpt lat="49.22759" lon="1.07893">
        <ele>121</ele>
        <time>2016-07-10T07:02:36.000Z</time>
      </trkpt>
      <trkpt lat="49.22757" lon="1.07888">
        <ele>122</ele>
        <time>2016-07-10T07:02:37.000Z</time>
      </trkpt>
      <trkpt lat="49.22754" lon="1.07883">
        <ele>123</ele>
        <time>2016-07-10T07:02:38.000Z</time>
      </trkpt>
      <trkpt lat="49.22751" lon="1.07879">
        <ele>123</ele>
        <time>2016-07-10T07:02:39.000Z</time>
      </trkpt>
      <trkpt lat="49.22748" lon="1.07875">
        <ele>124</ele>
        <time>2016-07-10T07:02:40.000Z</time>
      </trkpt>
      <trkpt lat="49.22745" lon="1.07872">
        <ele>124</ele>
        <time>2016-07-10T07:02:41.000Z</time>
      </trkpt>
      <trkpt lat="49.22742" lon="1.07869">
        <ele>125</ele>
        <time>2016-07-10T07:02:42.000Z</time>
      </trkpt>
      <trkpt lat="49.2274" lon="1.07867">
        <ele>126</ele>
        <time>2016-07-10T07:02:43.000Z</time>
      </trkpt>
      <trkpt lat="49.22738" lon="1.07864">
        <ele>126</ele>
        <time>2016-07-10T07:02:44.000Z</time>
      </trkpt>
      <trkpt lat="49.22736" lon="1.07862">
        <ele>126</ele>
        <time>2016-07-10T07:02:45.000Z</time>
      </trkpt>
      <trkpt lat="49.22734" lon="1.07859">
        <ele>127</ele>
        <time>2016-07-10T07:02:46.000Z</time>
      </trkpt>
      <trkpt lat="49.22732" lon="1.07856">
        <ele>126</ele>
        <time>2016-07-10T07:02:47.000Z</time>
      </trkpt>
      <trkpt lat="49.2273" lon="1.07852">
        <ele>126</ele>
        <time>2016-07-10T07:02:48.000Z</time>
      </trkpt>
      <trkpt lat="49.22728" lon="1.07849">
        <ele>126</ele>
        <time>2016-07-10T07:02:49.000Z</time>
      </trkpt>
      <trkpt lat="49.22726" lon="1.07844">
        <ele>126</ele>
        <time>2016-07-10T07:02:50.000Z</time>
      </trkpt>
      <trkpt lat="49.22724" lon="1.0784">
        <ele>127</ele>
        <time>2016-07-10T07:02:51.000Z</time>
      </trkpt>
      <trkpt lat="49.22721" lon="1.07836">
        <ele>127</ele>
        <time>2016-07-10T07:02:52.000Z</time>
      </trkpt>
      <trkpt lat="49.22719" lon="1.07831">
        <ele>128</ele>
        <time>2016-07-10T07:02:53.000Z</time>
      </trkpt>
      <trkpt lat="49.22717" lon="1.07826">
        <ele>129</ele>
        <time>2016-07-10T07:02:54.000Z</time>
      </trkpt>
      <trkpt lat="49.22715" lon="1.07821">
        <ele>129</ele>
        <time>2016-07-10T07:02:55.000Z</time>
      </trkpt>
      <trkpt lat="49.22713" lon="1.07816">
        <ele>129</ele>
        <time>2016-07-10T07:02:56.000Z</time>
      </trkpt>
      <trkpt lat="49.22711" lon="1.07811">
        <ele>130</ele>
        <time>2016-07-10T07:02:57.000Z</time>
      </trkpt>
      <trkpt lat="49.2271" lon="1.07806">
        <ele>130</ele>
        <time>2016-07-10T07:02:58.000Z</time>
      </trkpt>
      <trkpt lat="49.22708" lon="1.07801">
        <ele>130</ele>
        <time>2016-07-10T07:02:59.000Z</time>
      </trkpt>
      <trkpt lat="49.22705" lon="1.07797">
        <ele>131</ele>
        <time>2016-07-10T07:03:00.000Z</time>
      </trkpt>
      <trkpt lat="49.22703" lon="1.07793">
        <ele>132</ele>
        <time>2016-07-10T07:03:01.000Z</time>
      </trkpt>
      <trkpt lat="49.227" lon="1.07789">
        <ele>132</ele>
        <time>2016-07-10T07:03:02.000Z</time>
      </trkpt>
      <trkpt lat="49.22698" lon="1.07785">
        <ele>132</ele>
        <time>2016-07-10T07:03:03.000Z</time>
      </trkpt>
      <trkpt lat="49.22695" lon="1.07782">
        <ele>132</ele>
        <time>2016-07-10T07:03:04.000Z</time>
      </trkpt>
      <trkpt lat="49.22693" lon="1.07779">
        <ele>132</ele>
        <time>2016-07-10T07:03:05.000Z</time>
      </trkpt>
      <trkpt lat="49.22691" lon="1.07777">
        <ele>132</ele>
        <time>2016-07-10T07:03:06.000Z</time>
      </trkpt>
      <trkpt lat="49.2269" lon="1.07775">
        <ele>132</ele>
        <time>2016-07-10T07:03:07.000Z</time>
      </trkpt>
      <trkpt lat="49.22689" lon="1.07774">
        <ele>132</ele>
        <time>2016-07-10T07:03:08.000Z</time>
      </trkpt>
      <trkpt lat="49.22688" lon="1.07773">
        <ele>132</ele>
        <time>2016-07-10T07:03:09.000Z</time>
      </trkpt>
      <trkpt lat="49.22687" lon="1.07773">
        <ele>132</ele>
        <time>2016-07-10T07:03:10.000Z</time>
      </trkpt>
      <trkpt lat="49.22686" lon="1.07772">
        <ele>133</ele>
        <time>2016-07-10T07:03:11.000Z</time>
      </trkpt>
      <trkpt lat="49.22685" lon="1.07772">
        <ele>133</ele>
        <time>2016-07-10T07:03:12.000Z</time>
      </trkpt>
      <trkpt lat="49.22685" lon="1.07771">
        <ele>133</ele>
        <time>2016-07-10T07:03:13.000Z</time>
      </trkpt>
      <trkpt lat="49.22684" lon="1.07771">
        <ele>134</ele>
        <time>2016-07-10T07:03:14.000Z</time>
      </trkpt>
      <trkpt lat="49.22684" lon="1.0777">
        <ele>134</ele>
        <time>2016-07-10T07:03:15.000Z</time>
      </trkpt>
      <trkpt lat="49.22683" lon="1.0777">
        <ele>134</ele>
        <time>2016-07-10T07:03:16.000Z</time>
      </trkpt>
      <trkpt lat="49.22683" lon="1.07769">
        <ele>134</ele>
        <time>2016-07-10T07:03:17.000Z</time>
      </trkpt>
      <trkpt lat="49.22682" lon="1.07769">
        <ele>134</ele>
        <time>2016-07-10T07:03:18.000Z</time>
      </trkpt>
      <trkpt lat="49.22681" lon="1.07768">
        <ele>134</ele>
        <time>2016-07-10T07:03:19.000Z</time>
      </trkpt>
      <trkpt lat="49.2268" lon="1.07768">
        <ele>134</ele>
        <time>2016-07-10T07:03:20.000Z</time>
      </trkpt>
      <trkpt lat="49.22679" lon="1.07768">
        <ele>134</ele>
        <time>2016-07-10T07:03:21.000Z</time>
      </trkpt>
      <trkpt lat="49.22678" lon="1.07768">
        <ele>134</ele>
        <time>2016-07-10T07:03:22.000Z</time>
      </trkpt>
      <trkpt lat="49.22676" lon="1.07767">
        <ele>135</ele>
        <time>2016-07-10T07:03:23.000Z</time>
      </trkpt>
      <trkpt lat="49.22674" lon="1.07767">
        <ele>134</ele>
        <time>2016-07-10T07:03:24.000Z</time>
      </trkpt>
      <trkpt lat="49.22672" lon="1.07766">
        <ele>135</ele>
        <time>2016-07-10T07:03:25.000Z</time>
      </trkpt>
      <trkpt lat="49.2267" lon="1.07765">
        <ele>135</ele>
        <time>2016-07-10T07:03:26.000Z</time>
      </trkpt>
      <trkpt lat="49.22668" lon="1.07764">
        <ele>135</ele>
        <time>2016-07-10T07:03:27.000Z</time>
      </trkpt>
      <trkpt lat="49.22667" lon="1.07763">
        <ele>136</ele>
        <time>2016-07-10T07:03:28.000Z</time>
      </trkpt>
      <trkpt lat="49.22666" lon="1.07761">
        <ele>136</ele>
        <time>2016-07-10T07:03:29.000Z</time>
      </trkpt>
      <trkpt lat="49.22665" lon="1.07758">
        <ele>136</ele>
        <time>2016-07-10T07:03:30.000Z</time>
      </trkpt>
      <trkpt lat="49.22664" lon="1.07755">
        <ele>135</ele>
        <time>2016-07-10T07:03:31.000Z</time>
      </trkpt>
      <trkpt lat="49.22663" lon="1.07752">
        <ele>134</ele>
        <time>2016-07-10T07:03:32.000Z</time>
      </trkpt>
      <trkpt lat="49.22662" lon="1.07748">
        <ele>133</ele>
        <time>2016-07-10T07:03:33.000Z</time>
      </trkpt>
      <trkpt lat="49.22662" lon="1.07744">
        <ele>133</ele>
        <time>2016-07-10T07:03:34.000Z</time>
      </trkpt>
      <trkpt lat="49.22661" lon="1.07742">
        <ele>133</ele>
        <time>2016-07-10T07:03:35.000Z</time>
      </trkpt>
      <trkpt lat="49.2266" lon="1.07738">
        <ele>134</ele>
        <time>2016-07-10T07:03:36.000Z</time>
      </trkpt>
      <trkpt lat="49.22659" lon="1.07734">
        <ele>134</ele>
        <time>2016-07-10T07:03:37.000Z</time>
      </trkpt>
      <trkpt lat="49.22658" lon="1.0773">
        <ele>134</ele>
        <time>2016-07-10T07:03:38.000Z</time>
      </trkpt>
      <trkpt lat="49.22659" lon="1.07726">
        <ele>133</ele>
        <time>2016-07-10T07:03:39.000Z</time>
      </trkpt>
      <trkpt lat="49.2266" lon="1.07722">
        <ele>133</ele>
        <time>2016-07-10T07:03:40.000Z</time>
      </trkpt>
      <trkpt lat="49.22661" lon="1.0772">
        <ele>133</ele>
        <time>2016-07-10T07:03:41.000Z</time>
      </trkpt>
      <trkpt lat="49.22661" lon="1.07717">
        <ele>133</ele>
        <time>2016-07-10T07:03:42.000Z</time>
      </trkpt>
      <trkpt lat="49.22662" lon="1.07715">
        <ele>132</ele>
        <time>2016-07-10T07:03:43.000Z</time>
      </trkpt>
      <trkpt lat="49.22662" lon="1.07712">
        <ele>132</ele>
        <time>2016-07-10T07:03:44.000Z</time>
      </trkpt>
      <trkpt lat="49.22662" lon="1.07709">
        <ele>132</ele>
        <time>2016-07-10T07:03:45.000Z</time>
      </trkpt>
      <trkpt lat="49.22663" lon="1.07705">
        <ele>131</ele>
        <time>2016-07-10T07:03:46.000Z</time>
      </trkpt>
      <trkpt lat="49.22665" lon="1.07702">
        <ele>130</ele>
        <time>2016-07-10T07:03:47.000Z</time>
      </trkpt>
      <trkpt lat="49.22666" lon="1.077">
        <ele>130</ele>
        <time>2016-07-10T07:03:48.000Z</time>
      </trkpt>
      <trkpt lat="49.22667" lon="1.07699">
        <ele>130</ele>
        <time>2016-07-10T07:03:49.000Z</time>
      </trkpt>
      <trkpt lat="49.22668" lon="1.07698">
        <ele>130</ele>
        <time>2016-07-10T07:03:50.000Z</time>
      </trkpt>
      <trkpt lat="49.22668" lon="1.07697">
        <ele>129</ele>
        <time>2016-07-10T07:03:51.000Z</time>
      </trkpt>
      <trkpt lat="49.22669" lon="1.07697">
        <ele>129</ele>
        <time>2016-07-10T07:03:52.000Z</time>
      </trkpt>
      <trkpt lat="49.2267" lon="1.07696">
        <ele>128</ele>
        <time>2016-07-10T07:03:53.000Z</time>
      </trkpt>
      <trkpt lat="49.22671" lon="1.07695">
        <ele>128</ele>
        <time>2016-07-10T07:03:54.000Z</time>
      </trkpt>
      <trkpt lat="49.22673" lon="1.07693">
        <ele>127</ele>
        <time>2016-07-10T07:03:55.000Z</time>
      </trkpt>
      <trkpt lat="49.22674" lon="1.07691">
        <ele>128</ele>
        <time>2016-07-10T07:03:56.000Z</time>
      </trkpt>
      <trkpt lat="49.22675" lon="1.07689">
        <ele>127</ele>
        <time>2016-07-10T07:03:57.000Z</time>
      </trkpt>
      <trkpt lat="49.22677" lon="1.07688">
        <ele>125</ele>
        <time>2016-07-10T07:03:58.000Z</time>
      </trkpt>
      <trkpt lat="49.22678" lon="1.07686">
        <ele>125</ele>
        <time>2016-07-10T07:03:59.000Z</time>
      </trkpt>
      <trkpt lat="49.2268" lon="1.07685">
        <ele>124</ele>
        <time>2016-07-10T07:04:00.000Z</time>
      </trkpt>
      <trkpt lat="49.22681" lon="1.07684">
        <ele>123</ele>
        <time>2016-07-10T07:04:01.000Z</time>
      </trkpt>
      <trkpt lat="49.22682" lon="1.07682">
        <ele>122</ele>
        <time>2016-07-10T07:04:02.000Z</time>
      </trkpt>
      <trkpt lat="49.22684" lon="1.0768">
        <ele>122</ele>
        <time>2016-07-10T07:04:03.000Z</time>
      </trkpt>
      <trkpt lat="49.22685" lon="1.07678">
        <ele>121</ele>
        <time>2016-07-10T07:04:04.000Z</time>
      </trkpt>
      <trkpt lat="49.22686" lon="1.07676">
        <ele>120</ele>
        <time>2016-07-10T07:04:05.000Z</time>
      </trkpt>
      <trkpt lat="49.22686" lon="1.07674">
        <ele>119</ele>
        <time>2016-07-10T07:04:06.000Z</time>
      </trkpt>
      <trkpt lat="49.22687" lon="1.07672">
        <ele>118</ele>
        <time>2016-07-10T07:04:07.000Z</time>
      </trkpt>
      <trkpt lat="49.22687" lon="1.0767">
        <ele>117</ele>
        <time>2016-07-10T07:04:08.000Z</time>
      </trkpt>
      <trkpt lat="49.22689" lon="1.07668">
        <ele>116</ele>
        <time>2016-07-10T07:04:09.000Z</time>
      </trkpt>
      <trkpt lat="49.22691" lon="1.07665">
        <ele>114</ele>
        <time>2016-07-10T07:04:10.000Z</time>
      </trkpt>
      <trkpt lat="49.22693" lon="1.07661">
        <ele>114</ele>
        <time>2016-07-10T07:04:11.000Z</time>
      </trkpt>
      <trkpt lat="49.22695" lon="1.07656">
        <ele>113</ele>
        <time>2016-07-10T07:04:12.000Z</time>
      </trkpt>
      <trkpt lat="49.22697" lon="1.07649">
        <ele>113</ele>
        <time>2016-07-10T07:04:13.000Z</time>
      </trkpt>
      <trkpt lat="49.227" lon="1.07644">
        <ele>112</ele>
        <time>2016-07-10T07:04:14.000Z</time>
      </trkpt>
      <trkpt lat="49.22703" lon="1.0764">
        <ele>111</ele>
        <time>2016-07-10T07:04:15.000Z</time>
      </trkpt>
      <trkpt lat="49.22708" lon="1.07637">
        <ele>111</ele>
        <time>2016-07-10T07:04:16.000Z</time>
      </trkpt>
      <trkpt lat="49.22712" lon="1.07634">
        <ele>110</ele>
        <time>2016-07-10T07:04:17.000Z</time>
      </trkpt>
      <trkpt lat="49.22716" lon="1.07632">
        <ele>109</ele>
        <time>2016-07-10T07:04:18.000Z</time>
      </trkpt>
      <trkpt lat="49.2272" lon="1.07629">
        <ele>109</ele>
        <time>2016-07-10T07:04:19.000Z</time>
      </trkpt>
      <trkpt lat="49.22724" lon="1.07626">
        <ele>109</ele>
        <time>2016-07-10T07:04:20.000Z</time>
      </trkpt>
      <trkpt lat="49.22726" lon="1.07622">
        <ele>109</ele>
        <time>2016-07-10T07:04:21.000Z</time>
      </trkpt>
      <trkpt lat="49.22729" lon="1.07618">
        <ele>108</ele>
        <time>2016-07-10T07:04:22.000Z</time>
      </trkpt>
      <trkpt lat="49.22731" lon="1.07615">
        <ele>108</ele>
        <time>2016-07-10T07:04:23.000Z</time>
      </trkpt>
      <trkpt lat="49.22733" lon="1.07613">
        <ele>108</ele>
        <time>2016-07-10T07:04:24.000Z</time>
      </trkpt>
      <trkpt lat="49.22735" lon="1.0761">
        <ele>107</ele>
        <time>2016-07-10T07:04:25.000Z</time>
      </trkpt>
      <trkpt lat="49.22737" lon="1.07608">
        <ele>108</ele>
        <time>2016-07-10T07:04:26.000Z</time>
      </trkpt>
      <trkpt lat="49.2274" lon="1.07607">
        <ele>108</ele>
        <time>2016-07-10T07:04:27.000Z</time>
      </trkpt>
      <trkpt lat="49.22743" lon="1.07607">
        <ele>111</ele>
        <time>2016-07-10T07:04:28.000Z</time>
      </trkpt>
      <trkpt lat="49.22745" lon="1.07608">
        <ele>114</ele>
        <time>2016-07-10T07:04:29.000Z</time>
      </trkpt>
      <trkpt lat="49.22746" lon="1.07608">
        <ele>114</ele>
        <time>2016-07-10T07:04:30.000Z</time>
      </trkpt>
      <trkpt lat="49.22747" lon="1.07607">
        <ele>115</ele>
        <time>2016-07-10T07:04:31.000Z</time>
      </trkpt>
      <trkpt lat="49.22748" lon="1.07606">
        <ele>115</ele>
        <time>2016-07-10T07:04:32.000Z</time>
      </trkpt>
      <trkpt lat="49.22749" lon="1.07606">
        <ele>116</ele>
        <time>2016-07-10T07:04:33.000Z</time>
      </trkpt>
      <trkpt lat="49.2275" lon="1.07605">
        <ele>116</ele>
        <time>2016-07-10T07:04:34.000Z</time>
      </trkpt>
      <trkpt lat="49.22752" lon="1.07604">
        <ele>117</ele>
        <time>2016-07-10T07:04:35.000Z</time>
      </trkpt>
      <trkpt lat="49.22753" lon="1.07603">
        <ele>117</ele>
        <time>2016-07-10T07:04:36.000Z</time>
      </trkpt>
      <trkpt lat="49.22754" lon="1.07603">
        <ele>117</ele>
        <time>2016-07-10T07:04:37.000Z</time>
      </trkpt>
      <trkpt lat="49.22754" lon="1.07602">
        <ele>118</ele>
        <time>2016-07-10T07:04:38.000Z</time>
      </trkpt>
      <trkpt lat="49.22755" lon="1.07601">
        <ele>118</ele>
        <time>2016-07-10T07:04:39.000Z</time>
      </trkpt>
      <trkpt lat="49.22755" lon="1.076">
        <ele>119</ele>
        <time>2016-07-10T07:04:40.000Z</time>
      </trkpt>
      <trkpt lat="49.22756" lon="1.07598">
        <ele>119</ele>
        <time>2016-07-10T07:04:41.000Z</time>
      </trkpt>
      <trkpt lat="49.22757" lon="1.07596">
        <ele>120</ele>
        <time>2016-07-10T07:04:42.000Z</time>
      </trkpt>
      <trkpt lat="49.22756" lon="1.07594">
        <ele>121</ele>
        <time>2016-07-10T07:04:43.000Z</time>
      </trkpt>
      <trkpt lat="49.22755" lon="1.07592">
        <ele>122</ele>
        <time>2016-07-10T07:04:44.000Z</time>
      </trkpt>
      <trkpt lat="49.22752" lon="1.07589">
        <ele>124</ele>
        <time>2016-07-10T07:04:45.000Z</time>
      </trkpt>
      <trkpt lat="49.2275" lon="1.07586">
        <ele>125</ele>
        <time>2016-07-10T07:04:46.000Z</time>
      </trkpt>
      <trkpt lat="49.22748" lon="1.07583">
        <ele>125</ele>
        <time>2016-07-10T07:04:47.000Z</time>
      </trkpt>
      <trkpt lat="49.22745" lon="1.0758">
        <ele>125</ele>
        <time>2016-07-10T07:04:48.000Z</time>
      </trkpt>
      <trkpt lat="49.22743" lon="1.07577">
        <ele>125</ele>
        <time>2016-07-10T07:04:49.000Z</time>
      </trkpt>
      <trkpt lat="49.2274" lon="1.07575">
        <ele>126</ele>
        <time>2016-07-10T07:04:50.000Z</time>
      </trkpt>
      <trkpt lat="49.22737" lon="1.07573">
        <ele>126</ele>
        <time>2016-07-10T07:04:51.000Z</time>
      </trkpt>
      <trkpt lat="49.22734" lon="1.07571">
        <ele>127</ele>
        <time>2016-07-10T07:04:52.000Z</time>
      </trkpt>
      <trkpt lat="49.2273" lon="1.07569">
        <ele>128</ele>
        <time>2016-07-10T07:04:53.000Z</time>
      </trkpt>
      <trkpt lat="49.22727" lon="1.07567">
        <ele>129</ele>
        <time>2016-07-10T07:04:54.000Z</time>
      </trkpt>
      <trkpt lat="49.22723" lon="1.07566">
        <ele>129</ele>
        <time>2016-07-10T07:04:55.000Z</time>
      </trkpt>
      <trkpt lat="49.2272" lon="1.07565">
        <ele>129</ele>
        <time>2016-07-10T07:04:56.000Z</time>
      </trkpt>
      <trkpt lat="49.22716" lon="1.07565">
        <ele>130</ele>
        <time>2016-07-10T07:04:57.000Z</time>
      </trkpt>
      <trkpt lat="49.22712" lon="1.07564">
        <ele>130</ele>
        <time>2016-07-10T07:04:58.000Z</time>
      </trkpt>
      <trkpt lat="49.22708" lon="1.07564">
        <ele>130</ele>
        <time>2016-07-10T07:04:59.000Z</time>
      </trkpt>
      <trkpt lat="49.22704" lon="1.07564">
        <ele>130</ele>
        <time>2016-07-10T07:05:00.000Z</time>
      </trkpt>
      <trkpt lat="49.227" lon="1.07564">
        <ele>129</ele>
        <time>2016-07-10T07:05:01.000Z</time>
      </trkpt>
      <trkpt lat="49.22696" lon="1.07564">
        <ele>129</ele>
        <time>2016-07-10T07:05:02.000Z</time>
      </trkpt>
      <trkpt lat="49.22692" lon="1.07564">
        <ele>129</ele>
        <time>2016-07-10T07:05:03.000Z</time>
      </trkpt>
      <trkpt lat="49.22687" lon="1.07563">
        <ele>129</ele>
        <time>2016-07-10T07:05:04.000Z</time>
      </trkpt>
      <trkpt lat="49.22683" lon="1.07563">
        <ele>129</ele>
        <time>2016-07-10T07:05:05.000Z</time>
      </trkpt>
      <trkpt lat="49.22678" lon="1.07563">
        <ele>128</ele>
        <time>2016-07-10T07:05:06.000Z</time>
      </trkpt>
      <trkpt lat="49.22673" lon="1.07562">
        <ele>127</ele>
        <time>2016-07-10T07:05:07.000Z</time>
      </trkpt>
      <trkpt lat="49.22669" lon="1.07561">
        <ele>126</ele>
        <time>2016-07-10T07:05:08.000Z</time>
      </trkpt>
      <trkpt lat="49.22664" lon="1.0756">
        <ele>126</ele>
        <time>2016-07-10T07:05:09.000Z</time>
      </trkpt>
      <trkpt lat="49.22659" lon="1.07559">
        <ele>126</ele>
        <time>2016-07-10T07:05:10.000Z</time>
      </trkpt>
      <trkpt lat="49.22654" lon="1.07558">
        <ele>126</ele>
        <time>2016-07-10T07:05:11.000Z</time>
      </trkpt>
      <trkpt lat="49.22649" lon="1.07557">
        <ele>126</ele>
        <time>2016-07-10T07:05:12.000Z</time>
      </trkpt>
      <trkpt lat="49.22644" lon="1.07555">
        <ele>126</ele>
        <time>2016-07-10T07:05:13.000Z</time>
      </trkpt>
      <trkpt lat="49.22639" lon="1.07554">
        <ele>126</ele>
        <time>2016-07-10T07:05:14.000Z</time>
      </trkpt>
      <trkpt lat="49.22633" lon="1.07552">
        <ele>125</ele>
        <time>2016-07-10T07:05:15.000Z</time>
      </trkpt>
      <trkpt lat="49.22628" lon="1.07551">
        <ele>125</ele>
        <time>2016-07-10T07:05:16.000Z</time>
      </trkpt>
      <trkpt lat="49.22622" lon="1.07549">
        <ele>125</ele>
        <time>2016-07-10T07:05:17.000Z</time>
      </trkpt>
      <trkpt lat="49.22617" lon="1.07548">
        <ele>125</ele>
        <time>2016-07-10T07:05:18.000Z</time>
      </trkpt>
      <trkpt lat="49.22611" lon="1.07546">
        <ele>125</ele>
        <time>2016-07-10T07:05:19.000Z</time>
      </trkpt>
      <trkpt lat="49.22606" lon="1.07545">
        <ele>125</ele>
        <time>2016-07-10T07:05:20.000Z</time>
      </trkpt>
      <trkpt lat="49.226" lon="1.07543">
        <ele>125</ele>
        <time>2016-07-10T07:05:21.000Z</time>
      </trkpt>
      <trkpt lat="49.22594" lon="1.07542">
        <ele>125</ele>
        <time>2016-07-10T07:05:22.000Z</time>
      </trkpt>
      <trkpt lat="49.22589" lon="1.07541">
        <ele>125</ele>
        <time>2016-07-10T07:05:23.000Z</time>
      </trkpt>
      <trkpt lat="49.22583" lon="1.0754">
        <ele>125</ele>
        <time>2016-07-10T07:05:24.000Z</time>
      </trkpt>
      <trkpt lat="49.22578" lon="1.07539">
        <ele>125</ele>
        <time>2016-07-10T07:05:25.000Z</time>
      </trkpt>
      <trkpt lat="49.22573" lon="1.07539">
        <ele>125</ele>
        <time>2016-07-10T07:05:26.000Z</time>
      </trkpt>
      <trkpt lat="49.22568" lon="1.07539">
        <ele>125</ele>
        <time>2016-07-10T07:05:27.000Z</time>
      </trkpt>
      <trkpt lat="49.22563" lon="1.07539">
        <ele>126</ele>
        <time>2016-07-10T07:05:28.000Z</time>
      </trkpt>
      <trkpt lat="49.22558" lon="1.0754">
        <ele>126</ele>
        <time>2016-07-10T07:05:29.000Z</time>
      </trkpt>
      <trkpt lat="49.22554" lon="1.0754">
        <ele>127</ele>
        <time>2016-07-10T07:05:30.000Z</time>
      </trkpt>
      <trkpt lat="49.22549" lon="1.07541">
        <ele>127</ele>
        <time>2016-07-10T07:05:31.000Z</time>
      </trkpt>
      <trkpt lat="49.22544" lon="1.07542">
        <ele>128</ele>
        <time>2016-07-10T07:05:32.000Z</time>
      </trkpt>
      <trkpt lat="49.22539" lon="1.07542">
        <ele>128</ele>
        <time>2016-07-10T07:05:33.000Z</time>
      </trkpt>
      <trkpt lat="49.22535" lon="1.07541">
        <ele>128</ele>
        <time>2016-07-10T07:05:34.000Z</time>
      </trkpt>
      <trkpt lat="49.2253" lon="1.07541">
        <ele>129</ele>
        <time>2016-07-10T07:05:35.000Z</time>
      </trkpt>
      <trkpt lat="49.22525" lon="1.0754">
        <ele>129</ele>
        <time>2016-07-10T07:05:36.000Z</time>
      </trkpt>
      <trkpt lat="49.22521" lon="1.07538">
        <ele>130</ele>
        <time>2016-07-10T07:05:37.000Z</time>
      </trkpt>
      <trkpt lat="49.22516" lon="1.07536">
        <ele>130</ele>
        <time>2016-07-10T07:05:38.000Z</time>
      </trkpt>
      <trkpt lat="49.22512" lon="1.07533">
        <ele>130</ele>
        <time>2016-07-10T07:05:39.000Z</time>
      </trkpt>
      <trkpt lat="49.22508" lon="1.07531">
        <ele>130</ele>
        <time>2016-07-10T07:05:40.000Z</time>
      </trkpt>
      <trkpt lat="49.22504" lon="1.07528">
        <ele>131</ele>
        <time>2016-07-10T07:05:41.000Z</time>
      </trkpt>
      <trkpt lat="49.225" lon="1.07525">
        <ele>131</ele>
        <time>2016-07-10T07:05:42.000Z</time>
      </trkpt>
      <trkpt lat="49.22496" lon="1.07521">
        <ele>131</ele>
        <time>2016-07-10T07:05:43.000Z</time>
      </trkpt>
      <trkpt lat="49.22492" lon="1.07518">
        <ele>132</ele>
        <time>2016-07-10T07:05:44.000Z</time>
      </trkpt>
      <trkpt lat="49.22488" lon="1.07514">
        <ele>132</ele>
        <time>2016-07-10T07:05:45.000Z</time>
      </trkpt>
      <trkpt lat="49.22484" lon="1.0751">
        <ele>132</ele>
        <time>2016-07-10T07:05:46.000Z</time>
      </trkpt>
      <trkpt lat="49.2248" lon="1.07506">
        <ele>132</ele>
        <time>2016-07-10T07:05:47.000Z</time>
      </trkpt>
      <trkpt lat="49.22476" lon="1.07502">
        <ele>132</ele>
        <time>2016-07-10T07:05:48.000Z</time>
      </trkpt>
      <trkpt lat="49.22472" lon="1.07498">
        <ele>132</ele>
        <time>2016-07-10T07:05:49.000Z</time>
      </trkpt>
      <trkpt lat="49.22469" lon="1.07495">
        <ele>133</ele>
        <time>2016-07-10T07:05:50.000Z</time>
      </trkpt>
      <trkpt lat="49.22465" lon="1.07491">
        <ele>133</ele>
        <time>2016-07-10T07:05:51.000Z</time>
      </trkpt>
      <trkpt lat="49.22462" lon="1.07487">
        <ele>133</ele>
        <time>2016-07-10T07:05:52.000Z</time>
      </trkpt>
      <trkpt lat="49.22458" lon="1.07483">
        <ele>134</ele>
        <time>2016-07-10T07:05:53.000Z</time>
      </trkpt>
      <trkpt lat="49.22455" lon="1.07479">
        <ele>134</ele>
        <time>2016-07-10T07:05:54.000Z</time>
      </trkpt>
      <trkpt lat="49.22452" lon="1.07476">
        <ele>134</ele>
        <time>2016-07-10T07:05:55.000Z</time>
      </trkpt>
      <trkpt lat="49.22449" lon="1.07472">
        <ele>134</ele>
        <time>2016-07-10T07:05:56.000Z</time>
      </trkpt>
      <trkpt lat="49.22446" lon="1.07468">
        <ele>134</ele>
        <time>2016-07-10T07:05:57.000Z</time>
      </trkpt>
      <trkpt lat="49.22443" lon="1.07464">
        <ele>135</ele>
        <time>2016-07-10T07:05:58.000Z</time>
      </trkpt>
      <trkpt lat="49.22442" lon="1.07459">
        <ele>135</ele>
        <time>2016-07-10T07:05:59.000Z</time>
      </trkpt>
      <trkpt lat="49.22441" lon="1.07453">
        <ele>134</ele>
        <time>2016-07-10T07:06:00.000Z</time>
      </trkpt>
      <trkpt lat="49.22443" lon="1.07446">
        <ele>133</ele>
        <time>2016-07-10T07:06:01.000Z</time>
      </trkpt>
      <trkpt lat="49.22445" lon="1.0744">
        <ele>134</ele>
        <time>2016-07-10T07:06:02.000Z</time>
      </trkpt>
      <trkpt lat="49.22447" lon="1.07434">
        <ele>134</ele>
        <time>2016-07-10T07:06:03.000Z</time>
      </trkpt>
      <trkpt lat="49.2245" lon="1.07429">
        <ele>134</ele>
        <time>2016-07-10T07:06:04.000Z</time>
      </trkpt>
      <trkpt lat="49.22453" lon="1.07425">
        <ele>134</ele>
        <time>2016-07-10T07:06:05.000Z</time>
      </trkpt>
      <trkpt lat="49.22457" lon="1.07421">
        <ele>134</ele>
        <time>2016-07-10T07:06:06.000Z</time>
      </trkpt>
      <trkpt lat="49.2246" lon="1.07416">
        <ele>134</ele>
        <time>2016-07-10T07:06:07.000Z</time>
      </trkpt>
      <trkpt lat="49.22463" lon="1.0741">
        <ele>133</ele>
        <time>2016-07-10T07:06:08.000Z</time>
      </trkpt>
      <trkpt lat="49.22465" lon="1.07404">
        <ele>133</ele>
        <time>2016-07-10T07:06:09.000Z</time>
      </trkpt>
      <trkpt lat="49.22467" lon="1.07398">
        <ele>134</ele>
        <time>2016-07-10T07:06:10.000Z</time>
      </trkpt>
      <trkpt lat="49.22469" lon="1.07391">
        <ele>134</ele>
        <time>2016-07-10T07:06:11.000Z</time>
      </trkpt>
      <trkpt lat="49.2247" lon="1.07384">
        <ele>134</ele>
        <time>2016-07-10T07:06:12.000Z</time>
      </trkpt>
      <trkpt lat="49.2247" lon="1.07376">
        <ele>134</ele>
        <time>2016-07-10T07:06:13.000Z</time>
      </trkpt>
      <trkpt lat="49.22469" lon="1.07368">
        <ele>133</ele>
        <time>2016-07-10T07:06:14.000Z</time>
      </trkpt>
      <trkpt lat="49.22468" lon="1.0736">
        <ele>132</ele>
        <time>2016-07-10T07:06:15.000Z</time>
      </trkpt>
      <trkpt lat="49.22467" lon="1.07353">
        <ele>133</ele>
        <time>2016-07-10T07:06:16.000Z</time>
      </trkpt>
      <trkpt lat="49.22466" lon="1.07346">
        <ele>132</ele>
        <time>2016-07-10T07:06:17.000Z</time>
      </trkpt>
      <trkpt lat="49.22465" lon="1.07338">
        <ele>133</ele>
        <time>2016-07-10T07:06:18.000Z</time>
      </trkpt>
      <trkpt lat="49.22464" lon="1.0733">
        <ele>134</ele>
        <time>2016-07-10T07:06:19.000Z</time>
      </trkpt>
      <trkpt lat="49.22463" lon="1.07322">
        <ele>133</ele>
        <time>2016-07-10T07:06:20.000Z</time>
      </trkpt>
      <trkpt lat="49.22462" lon="1.07315">
        <ele>133</ele>
        <time>2016-07-10T07:06:21.000Z</time>
      </trkpt>
      <trkpt lat="49.22462" lon="1.07307">
        <ele>133</ele>
        <time>2016-07-10T07:06:22.000Z</time>
      </trkpt>
      <trkpt lat="49.22461" lon="1.073">
        <ele>133</ele>
        <time>2016-07-10T07:06:23.000Z</time>
      </trkpt>
      <trkpt lat="49.22461" lon="1.07292">
        <ele>133</ele>
        <time>2016-07-10T07:06:24.000Z</time>
      </trkpt>
      <trkpt lat="49.2246" lon="1.07284">
        <ele>133</ele>
        <time>2016-07-10T07:06:25.000Z</time>
      </trkpt>
      <trkpt lat="49.22459" lon="1.07276">
        <ele>133</ele>
        <time>2016-07-10T07:06:26.000Z</time>
      </trkpt>
      <trkpt lat="49.22459" lon="1.07268">
        <ele>133</ele>
        <time>2016-07-10T07:06:27.000Z</time>
      </trkpt>
      <trkpt lat="49.22459" lon="1.07259">
        <ele>133</ele>
        <time>2016-07-10T07:06:28.000Z</time>
      </trkpt>
      <trkpt lat="49.22459" lon="1.07251">
        <ele>133</ele>
        <time>2016-07-10T07:06:29.000Z</time>
      </trkpt>
      <trkpt lat="49.22459" lon="1.07242">
        <ele>133</ele>
        <time>2016-07-10T07:06:30.000Z</time>
      </trkpt>
      <trkpt lat="49.22458" lon="1.07234">
        <ele>133</ele>
        <time>2016-07-10T07:06:31.000Z</time>
      </trkpt>
      <trkpt lat="49.22458" lon="1.07226">
        <ele>133</ele>
        <time>2016-07-10T07:06:32.000Z</time>
      </trkpt>
      <trkpt lat="49.22458" lon="1.07217">
        <ele>133</ele>
        <time>2016-07-10T07:06:33.000Z</time>
      </trkpt>
      <trkpt lat="49.22459" lon="1.07209">
        <ele>133</ele>
        <time>2016-07-10T07:06:34.000Z</time>
      </trkpt>
      <trkpt lat="49.22459" lon="1.072">
        <ele>133</ele>
        <time>2016-07-10T07:06:35.000Z</time>
      </trkpt>
      <trkpt lat="49.2246" lon="1.07192">
        <ele>133</ele>
        <time>2016-07-10T07:06:36.000Z</time>
      </trkpt>
      <trkpt lat="49.2246" lon="1.07184">
        <ele>133</ele>
        <time>2016-07-10T07:06:37.000Z</time>
      </trkpt>
      <trkpt lat="49.22461" lon="1.07176">
        <ele>133</ele>
        <time>2016-07-10T07:06:38.000Z</time>
      </trkpt>
      <trkpt lat="49.22462" lon="1.07168">
        <ele>133</ele>
        <time>2016-07-10T07:06:39.000Z</time>
      </trkpt>
      <trkpt lat="49.22463" lon="1.0716">
        <ele>133</ele>
        <time>2016-07-10T07:06:40.000Z</time>
      </trkpt>
      <trkpt lat="49.22463" lon="1.07152">
        <ele>134</ele>
        <time>2016-07-10T07:06:41.000Z</time>
      </trkpt>
      <trkpt lat="49.22464" lon="1.07143">
        <ele>134</ele>
        <time>2016-07-10T07:06:42.000Z</time>
      </trkpt>
      <trkpt lat="49.22465" lon="1.07135">
        <ele>134</ele>
        <time>2016-07-10T07:06:43.000Z</time>
      </trkpt>
      <trkpt lat="49.22466" lon="1.07127">
        <ele>134</ele>
        <time>2016-07-10T07:06:44.000Z</time>
      </trkpt>
      <trkpt lat="49.22467" lon="1.07119">
        <ele>134</ele>
        <time>2016-07-10T07:06:45.000Z</time>
      </trkpt>
      <trkpt lat="49.22467" lon="1.07111">
        <ele>135</ele>
        <time>2016-07-10T07:06:46.000Z</time>
      </trkpt>
      <trkpt lat="49.22468" lon="1.07104">
        <ele>135</ele>
        <time>2016-07-10T07:06:47.000Z</time>
      </trkpt>
      <trkpt lat="49.22468" lon="1.07096">
        <ele>135</ele>
        <time>2016-07-10T07:06:48.000Z</time>
      </trkpt>
      <trkpt lat="49.22469" lon="1.07089">
        <ele>135</ele>
        <time>2016-07-10T07:06:49.000Z</time>
      </trkpt>
      <trkpt lat="49.22469" lon="1.07081">
        <ele>136</ele>
        <time>2016-07-10T07:06:50.000Z</time>
      </trkpt>
      <trkpt lat="49.2247" lon="1.07074">
        <ele>136</ele>
        <time>2016-07-10T07:06:51.000Z</time>
      </trkpt>
      <trkpt lat="49.2247" lon="1.07067">
        <ele>137</ele>
        <time>2016-07-10T07:06:52.000Z</time>
      </trkpt>
      <trkpt lat="49.22471" lon="1.07059">
        <ele>137</ele>
        <time>2016-07-10T07:06:53.000Z</time>
      </trkpt>
      <trkpt lat="49.22471" lon="1.07052">
        <ele>137</ele>
        <time>2016-07-10T07:06:54.000Z</time>
      </trkpt>
      <trkpt lat="49.22472" lon="1.07045">
        <ele>137</ele>
        <time>2016-07-10T07:06:55.000Z</time>
      </trkpt>
      <trkpt lat="49.22472" lon="1.07038">
        <ele>137</ele>
        <time>2016-07-10T07:06:56.000Z</time>
      </trkpt>
      <trkpt lat="49.22473" lon="1.0703">
        <ele>137</ele>
        <time>2016-07-10T07:06:57.000Z</time>
      </trkpt>
      <trkpt lat="49.22473" lon="1.07023">
        <ele>137</ele>
        <time>2016-07-10T07:06:58.000Z</time>
      </trkpt>
      <trkpt lat="49.22474" lon="1.07015">
        <ele>137</ele>
        <time>2016-07-10T07:06:59.000Z</time>
      </trkpt>
      <trkpt lat="49.22475" lon="1.07007">
        <ele>137</ele>
        <time>2016-07-10T07:07:00.000Z</time>
      </trkpt>
      <trkpt lat="49.22476" lon="1.07">
        <ele>137</ele>
        <time>2016-07-10T07:07:01.000Z</time>
      </trkpt>
      <trkpt lat="49.22476" lon="1.06993">
        <ele>137</ele>
        <time>2016-07-10T07:07:02.000Z</time>
      </trkpt>
      <trkpt lat="49.22477" lon="1.06986">
        <ele>137</ele>
        <time>2016-07-10T07:07:03.000Z</time>
      </trkpt>
      <trkpt lat="49.22478" lon="1.06979">
        <ele>137</ele>
        <time>2016-07-10T07:07:04.000Z</time>
      </trkpt>
      <trkpt lat="49.22479" lon="1.06972">
        <ele>138</ele>
        <time>2016-07-10T07:07:05.000Z</time>
      </trkpt>
      <trkpt lat="49.22479" lon="1.06965">
        <ele>138</ele>
        <time>2016-07-10T07:07:06.000Z</time>
      </trkpt>
      <trkpt lat="49.2248" lon="1.06959">
        <ele>138</ele>
        <time>2016-07-10T07:07:07.000Z</time>
      </trkpt>
      <trkpt lat="49.2248" lon="1.06952">
        <ele>139</ele>
        <time>2016-07-10T07:07:08.000Z</time>
      </trkpt>
      <trkpt lat="49.22481" lon="1.06946">
        <ele>139</ele>
        <time>2016-07-10T07:07:09.000Z</time>
      </trkpt>
      <trkpt lat="49.22482" lon="1.0694">
        <ele>139</ele>
        <time>2016-07-10T07:07:10.000Z</time>
      </trkpt>
      <trkpt lat="49.22482" lon="1.06933">
        <ele>139</ele>
        <time>2016-07-10T07:07:11.000Z</time>
      </trkpt>
      <trkpt lat="49.22483" lon="1.06927">
        <ele>139</ele>
        <time>2016-07-10T07:07:12.000Z</time>
      </trkpt>
      <trkpt lat="49.22484" lon="1.0692">
        <ele>139</ele>
        <time>2016-07-10T07:07:13.000Z</time>
      </trkpt>
      <trkpt lat="49.22484" lon="1.06914">
        <ele>139</ele>
        <time>2016-07-10T07:07:14.000Z</time>
      </trkpt>
      <trkpt lat="49.22485" lon="1.06907">
        <ele>139</ele>
        <time>2016-07-10T07:07:15.000Z</time>
      </trkpt>
      <trkpt lat="49.22485" lon="1.06901">
        <ele>139</ele>
        <time>2016-07-10T07:07:16.000Z</time>
      </trkpt>
      <trkpt lat="49.22486" lon="1.06895">
        <ele>139</ele>
        <time>2016-07-10T07:07:17.000Z</time>
      </trkpt>
      <trkpt lat="49.22487" lon="1.06888">
        <ele>139</ele>
        <time>2016-07-10T07:07:18.000Z</time>
      </trkpt>
      <trkpt lat="49.22487" lon="1.06882">
        <ele>139</ele>
        <time>2016-07-10T07:07:19.000Z</time>
      </trkpt>
      <trkpt lat="49.22487" lon="1.06876">
        <ele>139</ele>
        <time>2016-07-10T07:07:20.000Z</time>
      </trkpt>
      <trkpt lat="49.22488" lon="1.06869">
        <ele>139</ele>
        <time>2016-07-10T07:07:21.000Z</time>
      </trkpt>
      <trkpt lat="49.22488" lon="1.06863">
        <ele>139</ele>
        <time>2016-07-10T07:07:22.000Z</time>
      </trkpt>
      <trkpt lat="49.22489" lon="1.06857">
        <ele>139</ele>
        <time>2016-07-10T07:07:23.000Z</time>
      </trkpt>
      <trkpt lat="49.2249" lon="1.06851">
        <ele>139</ele>
        <time>2016-07-10T07:07:24.000Z</time>
      </trkpt>
      <trkpt lat="49.2249" lon="1.06846">
        <ele>139</ele>
        <time>2016-07-10T07:07:25.000Z</time>
      </trkpt>
      <trkpt lat="49.22491" lon="1.06842">
        <ele>138</ele>
        <time>2016-07-10T07:07:26.000Z</time>
      </trkpt>
      <trkpt lat="49.22492" lon="1.0684">
        <ele>138</ele>
        <time>2016-07-10T07:07:27.000Z</time>
      </trkpt>
      <trkpt lat="49.22492" lon="1.06838">
        <ele>137</ele>
        <time>2016-07-10T07:07:28.000Z</time>
      </trkpt>
      <trkpt lat="49.22493" lon="1.06836">
        <ele>137</ele>
        <time>2016-07-10T07:07:29.000Z</time>
      </trkpt>
      <trkpt lat="49.22493" lon="1.06833">
        <ele>137</ele>
        <time>2016-07-10T07:07:30.000Z</time>
      </trkpt>
      <trkpt lat="49.22493" lon="1.0683">
        <ele>136</ele>
        <time>2016-07-10T07:07:31.000Z</time>
      </trkpt>
      <trkpt lat="49.22492" lon="1.06827">
        <ele>136</ele>
        <time>2016-07-10T07:07:32.000Z</time>
      </trkpt>
      <trkpt lat="49.22489" lon="1.06823">
        <ele>137</ele>
        <time>2016-07-10T07:07:33.000Z</time>
      </trkpt>
      <trkpt lat="49.22487" lon="1.0682">
        <ele>138</ele>
        <time>2016-07-10T07:07:34.000Z</time>
      </trkpt>
      <trkpt lat="49.22484" lon="1.06817">
        <ele>139</ele>
        <time>2016-07-10T07:07:35.000Z</time>
      </trkpt>
      <trkpt lat="49.22482" lon="1.06813">
        <ele>139</ele>
        <time>2016-07-10T07:07:36.000Z</time>
      </trkpt>
      <trkpt lat="49.2248" lon="1.06807">
        <ele>136</ele>
        <time>2016-07-10T07:07:37.000Z</time>
      </trkpt>
      <trkpt lat="49.2248" lon="1.06801">
        <ele>135</ele>
        <time>2016-07-10T07:07:38.000Z</time>
      </trkpt>
      <trkpt lat="49.2248" lon="1.06794">
        <ele>134</ele>
        <time>2016-07-10T07:07:39.000Z</time>
      </trkpt>
      <trkpt lat="49.22481" lon="1.06788">
        <ele>134</ele>
        <time>2016-07-10T07:07:40.000Z</time>
      </trkpt>
      <trkpt lat="49.22483" lon="1.06781">
        <ele>135</ele>
        <time>2016-07-10T07:07:41.000Z</time>
      </trkpt>
      <trkpt lat="49.22484" lon="1.06773">
        <ele>136</ele>
        <time>2016-07-10T07:07:42.000Z</time>
      </trkpt>
      <trkpt lat="49.22486" lon="1.06765">
        <ele>136</ele>
        <time>2016-07-10T07:07:43.000Z</time>
      </trkpt>
      <trkpt lat="49.22487" lon="1.06757">
        <ele>137</ele>
        <time>2016-07-10T07:07:44.000Z</time>
      </trkpt>
      <trkpt lat="49.22488" lon="1.06749">
        <ele>138</ele>
        <time>2016-07-10T07:07:45.000Z</time>
      </trkpt>
      <trkpt lat="49.22488" lon="1.06741">
        <ele>138</ele>
        <time>2016-07-10T07:07:46.000Z</time>
      </trkpt>
      <trkpt lat="49.22489" lon="1.06732">
        <ele>138</ele>
        <time>2016-07-10T07:07:47.000Z</time>
      </trkpt>
      <trkpt lat="49.2249" lon="1.06724">
        <ele>139</ele>
        <time>2016-07-10T07:07:48.000Z</time>
      </trkpt>
      <trkpt lat="49.2249" lon="1.06717">
        <ele>139</ele>
        <time>2016-07-10T07:07:49.000Z</time>
      </trkpt>
      <trkpt lat="49.22491" lon="1.06709">
        <ele>139</ele>
        <time>2016-07-10T07:07:50.000Z</time>
      </trkpt>
      <trkpt lat="49.22491" lon="1.06701">
        <ele>140</ele>
        <time>2016-07-10T07:07:51.000Z</time>
      </trkpt>
      <trkpt lat="49.22492" lon="1.06693">
        <ele>140</ele>
        <time>2016-07-10T07:07:52.000Z</time>
      </trkpt>
      <trkpt lat="49.22492" lon="1.06685">
        <ele>140</ele>
        <time>2016-07-10T07:07:53.000Z</time>
      </trkpt>
      <trkpt lat="49.22493" lon="1.06678">
        <ele>140</ele>
        <time>2016-07-10T07:07:54.000Z</time>
      </trkpt>
      <trkpt lat="49.22494" lon="1.06671">
        <ele>140</ele>
        <time>2016-07-10T07:07:55.000Z</time>
      </trkpt>
      <trkpt lat="49.22494" lon="1.06663">
        <ele>141</ele>
        <time>2016-07-10T07:07:56.000Z</time>
      </trkpt>
      <trkpt lat="49.22495" lon="1.06656">
        <ele>141</ele>
        <time>2016-07-10T07:07:57.000Z</time>
      </trkpt>
      <trkpt lat="49.22495" lon="1.06648">
        <ele>141</ele>
        <time>2016-07-10T07:07:58.000Z</time>
      </trkpt>
      <trkpt lat="49.22496" lon="1.06641">
        <ele>141</ele>
        <time>2016-07-10T07:07:59.000Z</time>
      </trkpt>
      <trkpt lat="49.22496" lon="1.06633">
        <ele>141</ele>
        <time>2016-07-10T07:08:00.000Z</time>
      </trkpt>
      <trkpt lat="49.22497" lon="1.06626">
        <ele>141</ele>
        <time>2016-07-10T07:08:01.000Z</time>
      </trkpt>
      <trkpt lat="49.22498" lon="1.06618">
        <ele>141</ele>
        <time>2016-07-10T07:08:02.000Z</time>
      </trkpt>
      <trkpt lat="49.225" lon="1.06611">
        <ele>141</ele>
        <time>2016-07-10T07:08:03.000Z</time>
      </trkpt>
      <trkpt lat="49.22502" lon="1.06604">
        <ele>141</ele>
        <time>2016-07-10T07:08:04.000Z</time>
      </trkpt>
      <trkpt lat="49.22504" lon="1.06597">
        <ele>141</ele>
        <time>2016-07-10T07:08:05.000Z</time>
      </trkpt>
      <trkpt lat="49.22506" lon="1.06591">
        <ele>142</ele>
        <time>2016-07-10T07:08:06.000Z</time>
      </trkpt>
      <trkpt lat="49.22509" lon="1.06584">
        <ele>142</ele>
        <time>2016-07-10T07:08:07.000Z</time>
      </trkpt>
      <trkpt lat="49.22512" lon="1.06579">
        <ele>141</ele>
        <time>2016-07-10T07:08:08.000Z</time>
      </trkpt>
      <trkpt lat="49.22516" lon="1.06574">
        <ele>141</ele>
        <time>2016-07-10T07:08:09.000Z</time>
      </trkpt>
      <trkpt lat="49.22521" lon="1.0657">
        <ele>141</ele>
        <time>2016-07-10T07:08:10.000Z</time>
      </trkpt>
      <trkpt lat="49.22525" lon="1.06566">
        <ele>141</ele>
        <time>2016-07-10T07:08:11.000Z</time>
      </trkpt>
      <trkpt lat="49.2253" lon="1.06561">
        <ele>141</ele>
        <time>2016-07-10T07:08:12.000Z</time>
      </trkpt>
      <trkpt lat="49.22534" lon="1.06557">
        <ele>142</ele>
        <time>2016-07-10T07:08:13.000Z</time>
      </trkpt>
      <trkpt lat="49.22538" lon="1.06552">
        <ele>142</ele>
        <time>2016-07-10T07:08:14.000Z</time>
      </trkpt>
      <trkpt lat="49.22542" lon="1.06546">
        <ele>142</ele>
        <time>2016-07-10T07:08:15.000Z</time>
      </trkpt>
      <trkpt lat="49.22545" lon="1.0654">
        <ele>142</ele>
        <time>2016-07-10T07:08:16.000Z</time>
      </trkpt>
      <trkpt lat="49.22548" lon="1.06534">
        <ele>142</ele>
        <time>2016-07-10T07:08:17.000Z</time>
      </trkpt>
      <trkpt lat="49.2255" lon="1.06526">
        <ele>142</ele>
        <time>2016-07-10T07:08:18.000Z</time>
      </trkpt>
      <trkpt lat="49.22551" lon="1.06519">
        <ele>142</ele>
        <time>2016-07-10T07:08:19.000Z</time>
      </trkpt>
      <trkpt lat="49.22553" lon="1.06511">
        <ele>142</ele>
        <time>2016-07-10T07:08:20.000Z</time>
      </trkpt>
      <trkpt lat="49.22553" lon="1.06503">
        <ele>142</ele>
        <time>2016-07-10T07:08:21.000Z</time>
      </trkpt>
      <trkpt lat="49.22554" lon="1.06495">
        <ele>142</ele>
        <time>2016-07-10T07:08:22.000Z</time>
      </trkpt>
      <trkpt lat="49.22555" lon="1.06487">
        <ele>142</ele>
        <time>2016-07-10T07:08:23.000Z</time>
      </trkpt>
      <trkpt lat="49.22555" lon="1.06479">
        <ele>142</ele>
        <time>2016-07-10T07:08:24.000Z</time>
      </trkpt>
      <trkpt lat="49.22556" lon="1.06471">
        <ele>142</ele>
        <time>2016-07-10T07:08:25.000Z</time>
      </trkpt>
      <trkpt lat="49.22557" lon="1.06464">
        <ele>142</ele>
        <time>2016-07-10T07:08:26.000Z</time>
      </trkpt>
      <trkpt lat="49.22558" lon="1.06456">
        <ele>142</ele>
        <time>2016-07-10T07:08:27.000Z</time>
      </trkpt>
      <trkpt lat="49.22559" lon="1.06449">
        <ele>142</ele>
        <time>2016-07-10T07:08:28.000Z</time>
      </trkpt>
      <trkpt lat="49.22561" lon="1.06443">
        <ele>143</ele>
        <time>2016-07-10T07:08:29.000Z</time>
      </trkpt>
      <trkpt lat="49.22562" lon="1.06437">
        <ele>143</ele>
        <time>2016-07-10T07:08:30.000Z</time>
      </trkpt>
      <trkpt lat="49.22563" lon="1.06433">
        <ele>143</ele>
        <time>2016-07-10T07:08:31.000Z</time>
      </trkpt>
      <trkpt lat="49.22563" lon="1.0643">
        <ele>143</ele>
        <time>2016-07-10T07:08:32.000Z</time>
      </trkpt>
      <trkpt lat="49.22564" lon="1.06427">
        <ele>143</ele>
        <time>2016-07-10T07:08:33.000Z</time>
      </trkpt>
      <trkpt lat="49.22564" lon="1.06424">
        <ele>142</ele>
        <time>2016-07-10T07:08:34.000Z</time>
      </trkpt>
      <trkpt lat="49.22564" lon="1.0642">
        <ele>141</ele>
        <time>2016-07-10T07:08:35.000Z</time>
      </trkpt>
      <trkpt lat="49.22563" lon="1.06416">
        <ele>141</ele>
        <time>2016-07-10T07:08:36.000Z</time>
      </trkpt>
      <trkpt lat="49.22561" lon="1.0641">
        <ele>141</ele>
        <time>2016-07-10T07:08:37.000Z</time>
      </trkpt>
      <trkpt lat="49.22559" lon="1.06405">
        <ele>141</ele>
        <time>2016-07-10T07:08:38.000Z</time>
      </trkpt>
      <trkpt lat="49.22557" lon="1.064">
        <ele>141</ele>
        <time>2016-07-10T07:08:39.000Z</time>
      </trkpt>
      <trkpt lat="49.22554" lon="1.06395">
        <ele>141</ele>
        <time>2016-07-10T07:08:40.000Z</time>
      </trkpt>
      <trkpt lat="49.22551" lon="1.0639">
        <ele>141</ele>
        <time>2016-07-10T07:08:41.000Z</time>
      </trkpt>
      <trkpt lat="49.22548" lon="1.06385">
        <ele>141</ele>
        <time>2016-07-10T07:08:42.000Z</time>
      </trkpt>
      <trkpt lat="49.22546" lon="1.06381">
        <ele>142</ele>
        <time>2016-07-10T07:08:43.000Z</time>
      </trkpt>
      <trkpt lat="49.22543" lon="1.06378">
        <ele>142</ele>
        <time>2016-07-10T07:08:44.000Z</time>
      </trkpt>
      <trkpt lat="49.22541" lon="1.06374">
        <ele>142</ele>
        <time>2016-07-10T07:08:45.000Z</time>
      </trkpt>
      <trkpt lat="49.22539" lon="1.06371">
        <ele>142</ele>
        <time>2016-07-10T07:08:46.000Z</time>
      </trkpt>
      <trkpt lat="49.22537" lon="1.06366">
        <ele>142</ele>
        <time>2016-07-10T07:08:47.000Z</time>
      </trkpt>
      <trkpt lat="49.22535" lon="1.06361">
        <ele>143</ele>
        <time>2016-07-10T07:08:48.000Z</time>
      </trkpt>
      <trkpt lat="49.22533" lon="1.06355">
        <ele>142</ele>
        <time>2016-07-10T07:08:49.000Z</time>
      </trkpt>
      <trkpt lat="49.22531" lon="1.06349">
        <ele>142</ele>
        <time>2016-07-10T07:08:50.000Z</time>
      </trkpt>
      <trkpt lat="49.22529" lon="1.06342">
        <ele>142</ele>
        <time>2016-07-10T07:08:51.000Z</time>
      </trkpt>
      <trkpt lat="49.22527" lon="1.06335">
        <ele>142</ele>
        <time>2016-07-10T07:08:52.000Z</time>
      </trkpt>
      <trkpt lat="49.22525" lon="1.06328">
        <ele>142</ele>
        <time>2016-07-10T07:08:53.000Z</time>
      </trkpt>
      <trkpt lat="49.22522" lon="1.06321">
        <ele>142</ele>
        <time>2016-07-10T07:08:54.000Z</time>
      </trkpt>
      <trkpt lat="49.2252" lon="1.06314">
        <ele>142</ele>
        <time>2016-07-10T07:08:55.000Z</time>
      </trkpt>
      <trkpt lat="49.22517" lon="1.06306">
        <ele>142</ele>
        <time>2016-07-10T07:08:56.000Z</time>
      </trkpt>
      <trkpt lat="49.22514" lon="1.06299">
        <ele>142</ele>
        <time>2016-07-10T07:08:57.000Z</time>
      </trkpt>
      <trkpt lat="49.22511" lon="1.06292">
        <ele>142</ele>
        <time>2016-07-10T07:08:58.000Z</time>
      </trkpt>
      <trkpt lat="49.22507" lon="1.06285">
        <ele>142</ele>
        <time>2016-07-10T07:08:59.000Z</time>
      </trkpt>
      <trkpt lat="49.22504" lon="1.06279">
        <ele>142</ele>
        <time>2016-07-10T07:09:00.000Z</time>
      </trkpt>
      <trkpt lat="49.225" lon="1.06272">
        <ele>141</ele>
        <time>2016-07-10T07:09:01.000Z</time>
      </trkpt>
      <trkpt lat="49.22497" lon="1.06266">
        <ele>142</ele>
        <time>2016-07-10T07:09:02.000Z</time>
      </trkpt>
      <trkpt lat="49.22493" lon="1.0626">
        <ele>142</ele>
        <time>2016-07-10T07:09:03.000Z</time>
      </trkpt>
      <trkpt lat="49.2249" lon="1.06255">
        <ele>142</ele>
        <time>2016-07-10T07:09:04.000Z</time>
      </trkpt>
      <trkpt lat="49.22486" lon="1.06249">
        <ele>142</ele>
        <time>2016-07-10T07:09:05.000Z</time>
      </trkpt>
      <trkpt lat="49.22483" lon="1.06244">
        <ele>142</ele>
        <time>2016-07-10T07:09:06.000Z</time>
      </trkpt>
      <trkpt lat="49.22479" lon="1.06239">
        <ele>142</ele>
        <time>2016-07-10T07:09:07.000Z</time>
      </trkpt>
      <trkpt lat="49.22476" lon="1.06234">
        <ele>142</ele>
        <time>2016-07-10T07:09:08.000Z</time>
      </trkpt>
      <trkpt lat="49.22473" lon="1.0623">
        <ele>142</ele>
        <time>2016-07-10T07:09:09.000Z</time>
      </trkpt>
      <trkpt lat="49.2247" lon="1.06225">
        <ele>142</ele>
        <time>2016-07-10T07:09:10.000Z</time>
      </trkpt>
      <trkpt lat="49.22466" lon="1.0622">
        <ele>142</ele>
        <time>2016-07-10T07:09:11.000Z</time>
      </trkpt>
      <trkpt lat="49.22463" lon="1.06216">
        <ele>142</ele>
        <time>2016-07-10T07:09:12.000Z</time>
      </trkpt>
      <trkpt lat="49.2246" lon="1.06211">
        <ele>142</ele>
        <time>2016-07-10T07:09:13.000Z</time>
      </trkpt>
      <trkpt lat="49.22457" lon="1.06206">
        <ele>142</ele>
        <time>2016-07-10T07:09:14.000Z</time>
      </trkpt>
      <trkpt lat="49.22455" lon="1.06199">
        <ele>141</ele>
        <time>2016-07-10T07:09:15.000Z</time>
      </trkpt>
      <trkpt lat="49.22453" lon="1.06193">
        <ele>141</ele>
        <time>2016-07-10T07:09:16.000Z</time>
      </trkpt>
      <trkpt lat="49.22452" lon="1.06186">
        <ele>141</ele>
        <time>2016-07-10T07:09:17.000Z</time>
      </trkpt>
      <trkpt lat="49.22451" lon="1.06179">
        <ele>140</ele>
        <time>2016-07-10T07:09:18.000Z</time>
      </trkpt>
      <trkpt lat="49.22451" lon="1.06172">
        <ele>140</ele>
        <time>2016-07-10T07:09:19.000Z</time>
      </trkpt>
      <trkpt lat="49.22451" lon="1.06164">
        <ele>139</ele>
        <time>2016-07-10T07:09:20.000Z</time>
      </trkpt>
      <trkpt lat="49.22451" lon="1.06157">
        <ele>139</ele>
        <time>2016-07-10T07:09:21.000Z</time>
      </trkpt>
      <trkpt lat="49.22451" lon="1.06149">
        <ele>138</ele>
        <time>2016-07-10T07:09:22.000Z</time>
      </trkpt>
      <trkpt lat="49.22451" lon="1.06142">
        <ele>137</ele>
        <time>2016-07-10T07:09:23.000Z</time>
      </trkpt>
      <trkpt lat="49.22453" lon="1.06134">
        <ele>137</ele>
        <time>2016-07-10T07:09:24.000Z</time>
      </trkpt>
      <trkpt lat="49.22454" lon="1.06126">
        <ele>136</ele>
        <time>2016-07-10T07:09:25.000Z</time>
      </trkpt>
      <trkpt lat="49.22457" lon="1.06118">
        <ele>136</ele>
        <time>2016-07-10T07:09:26.000Z</time>
      </trkpt>
      <trkpt lat="49.2246" lon="1.0611">
        <ele>136</ele>
        <time>2016-07-10T07:09:27.000Z</time>
      </trkpt>
      <trkpt lat="49.22463" lon="1.06102">
        <ele>135</ele>
        <time>2016-07-10T07:09:28.000Z</time>
      </trkpt>
      <trkpt lat="49.22466" lon="1.06093">
        <ele>135</ele>
        <time>2016-07-10T07:09:29.000Z</time>
      </trkpt>
      <trkpt lat="49.2247" lon="1.06084">
        <ele>134</ele>
        <time>2016-07-10T07:09:30.000Z</time>
      </trkpt>
      <trkpt lat="49.22474" lon="1.06075">
        <ele>133</ele>
        <time>2016-07-10T07:09:31.000Z</time>
      </trkpt>
      <trkpt lat="49.22478" lon="1.06067">
        <ele>133</ele>
        <time>2016-07-10T07:09:32.000Z</time>
      </trkpt>
      <trkpt lat="49.22482" lon="1.06059">
        <ele>133</ele>
        <time>2016-07-10T07:09:33.000Z</time>
      </trkpt>
      <trkpt lat="49.22486" lon="1.06052">
        <ele>133</ele>
        <time>2016-07-10T07:09:34.000Z</time>
      </trkpt>
      <trkpt lat="49.2249" lon="1.06045">
        <ele>133</ele>
        <time>2016-07-10T07:09:35.000Z</time>
      </trkpt>
      <trkpt lat="49.22495" lon="1.06038">
        <ele>133</ele>
        <time>2016-07-10T07:09:36.000Z</time>
      </trkpt>
      <trkpt lat="49.22499" lon="1.06032">
        <ele>133</ele>
        <time>2016-07-10T07:09:37.000Z</time>
      </trkpt>
      <trkpt lat="49.22503" lon="1.06025">
        <ele>134</ele>
        <time>2016-07-10T07:09:38.000Z</time>
      </trkpt>
      <trkpt lat="49.22507" lon="1.06019">
        <ele>133</ele>
        <time>2016-07-10T07:09:39.000Z</time>
      </trkpt>
      <trkpt lat="49.2251" lon="1.06013">
        <ele>134</ele>
        <time>2016-07-10T07:09:40.000Z</time>
      </trkpt>
      <trkpt lat="49.22513" lon="1.06007">
        <ele>135</ele>
        <time>2016-07-10T07:09:41.000Z</time>
      </trkpt>
      <trkpt lat="49.22515" lon="1.06001">
        <ele>135</ele>
        <time>2016-07-10T07:09:42.000Z</time>
      </trkpt>
      <trkpt lat="49.22518" lon="1.05994">
        <ele>136</ele>
        <time>2016-07-10T07:09:43.000Z</time>
      </trkpt>
      <trkpt lat="49.22521" lon="1.05988">
        <ele>137</ele>
        <time>2016-07-10T07:09:44.000Z</time>
      </trkpt>
      <trkpt lat="49.22524" lon="1.05981">
        <ele>137</ele>
        <time>2016-07-10T07:09:45.000Z</time>
      </trkpt>
      <trkpt lat="49.22526" lon="1.05974">
        <ele>138</ele>
        <time>2016-07-10T07:09:46.000Z</time>
      </trkpt>
      <trkpt lat="49.22529" lon="1.05968">
        <ele>138</ele>
        <time>2016-07-10T07:09:47.000Z</time>
      </trkpt>
      <trkpt lat="49.22532" lon="1.05961">
        <ele>138</ele>
        <time>2016-07-10T07:09:48.000Z</time>
      </trkpt>
      <trkpt lat="49.22534" lon="1.05955">
        <ele>138</ele>
        <time>2016-07-10T07:09:49.000Z</time>
      </trkpt>
      <trkpt lat="49.22537" lon="1.05948">
        <ele>139</ele>
        <time>2016-07-10T07:09:50.000Z</time>
      </trkpt>
      <trkpt lat="49.22539" lon="1.05941">
        <ele>139</ele>
        <time>2016-07-10T07:09:51.000Z</time>
      </trkpt>
      <trkpt lat="49.22541" lon="1.05935">
        <ele>139</ele>
        <time>2016-07-10T07:09:52.000Z</time>
      </trkpt>
      <trkpt lat="49.22544" lon="1.05929">
        <ele>139</ele>
        <time>2016-07-10T07:09:53.000Z</time>
      </trkpt>
      <trkpt lat="49.22546" lon="1.05923">
        <ele>139</ele>
        <time>2016-07-10T07:09:54.000Z</time>
      </trkpt>
      <trkpt lat="49.22548" lon="1.05917">
        <ele>139</ele>
        <time>2016-07-10T07:09:55.000Z</time>
      </trkpt>
      <trkpt lat="49.2255" lon="1.05911">
        <ele>139</ele>
        <time>2016-07-10T07:09:56.000Z</time>
      </trkpt>
      <trkpt lat="49.22552" lon="1.05906">
        <ele>139</ele>
        <time>2016-07-10T07:09:57.000Z</time>
      </trkpt>
      <trkpt lat="49.22554" lon="1.059">
        <ele>139</ele>
        <time>2016-07-10T07:09:58.000Z</time>
      </trkpt>
      <trkpt lat="49.22557" lon="1.05894">
        <ele>139</ele>
        <time>2016-07-10T07:09:59.000Z</time>
      </trkpt>
      <trkpt lat="49.22559" lon="1.05889">
        <ele>139</ele>
        <time>2016-07-10T07:10:00.000Z</time>
      </trkpt>
      <trkpt lat="49.22561" lon="1.05884">
        <ele>139</ele>
        <time>2016-07-10T07:10:01.000Z</time>
      </trkpt>
      <trkpt lat="49.22564" lon="1.05879">
        <ele>139</ele>
        <time>2016-07-10T07:10:02.000Z</time>
      </trkpt>
      <trkpt lat="49.22566" lon="1.05873">
        <ele>139</ele>
        <time>2016-07-10T07:10:03.000Z</time>
      </trkpt>
      <trkpt lat="49.22569" lon="1.05868">
        <ele>139</ele>
        <time>2016-07-10T07:10:04.000Z</time>
      </trkpt>
      <trkpt lat="49.22572" lon="1.05864">
        <ele>139</ele>
        <time>2016-07-10T07:10:05.000Z</time>
      </trkpt>
      <trkpt lat="49.22575" lon="1.05859">
        <ele>139</ele>
        <time>2016-07-10T07:10:06.000Z</time>
      </trkpt>
      <trkpt lat="49.22577" lon="1.05855">
        <ele>138</ele>
        <time>2016-07-10T07:10:07.000Z</time>
      </trkpt>
      <trkpt lat="49.2258" lon="1.05852">
        <ele>139</ele>
        <time>2016-07-10T07:10:08.000Z</time>
      </trkpt>
      <trkpt lat="49.22582" lon="1.05848">
        <ele>138</ele>
        <time>2016-07-10T07:10:09.000Z</time>
      </trkpt>
      <trkpt lat="49.22585" lon="1.05843">
        <ele>138</ele>
        <time>2016-07-10T07:10:10.000Z</time>
      </trkpt>
      <trkpt lat="49.22588" lon="1.05838">
        <ele>138</ele>
        <time>2016-07-10T07:10:11.000Z</time>
      </trkpt>
      <trkpt lat="49.22591" lon="1.05834">
        <ele>138</ele>
        <time>2016-07-10T07:10:12.000Z</time>
      </trkpt>
      <trkpt lat="49.22594" lon="1.05829">
        <ele>138</ele>
        <time>2016-07-10T07:10:13.000Z</time>
      </trkpt>
      <trkpt lat="49.22597" lon="1.05824">
        <ele>138</ele>
        <time>2016-07-10T07:10:14.000Z</time>
      </trkpt>
      <trkpt lat="49.226" lon="1.0582">
        <ele>138</ele>
        <time>2016-07-10T07:10:15.000Z</time>
      </trkpt>
      <trkpt lat="49.22603" lon="1.05815">
        <ele>138</ele>
        <time>2016-07-10T07:10:16.000Z</time>
      </trkpt>
      <trkpt lat="49.22606" lon="1.05811">
        <ele>138</ele>
        <time>2016-07-10T07:10:17.000Z</time>
      </trkpt>
      <trkpt lat="49.22609" lon="1.05807">
        <ele>138</ele>
        <time>2016-07-10T07:10:18.000Z</time>
      </trkpt>
      <trkpt lat="49.22612" lon="1.05802">
        <ele>138</ele>
        <time>2016-07-10T07:10:19.000Z</time>
      </trkpt>
      <trkpt lat="49.22615" lon="1.05797">
        <ele>138</ele>
        <time>2016-07-10T07:10:20.000Z</time>
      </trkpt>
      <trkpt lat="49.22618" lon="1.05793">
        <ele>137</ele>
        <time>2016-07-10T07:10:21.000Z</time>
      </trkpt>
      <trkpt lat="49.22622" lon="1.05788">
        <ele>137</ele>
        <time>2016-07-10T07:10:22.000Z</time>
      </trkpt>
      <trkpt lat="49.22625" lon="1.05783">
        <ele>137</ele>
        <time>2016-07-10T07:10:23.000Z</time>
      </trkpt>
      <trkpt lat="49.22628" lon="1.05779">
        <ele>137</ele>
        <time>2016-07-10T07:10:24.000Z</time>
      </trkpt>
      <trkpt lat="49.2263" lon="1.05774">
        <ele>137</ele>
        <time>2016-07-10T07:10:25.000Z</time>
      </trkpt>
      <trkpt lat="49.22633" lon="1.0577">
        <ele>137</ele>
        <time>2016-07-10T07:10:26.000Z</time>
      </trkpt>
      <trkpt lat="49.22636" lon="1.05766">
        <ele>136</ele>
        <time>2016-07-10T07:10:27.000Z</time>
      </trkpt>
      <trkpt lat="49.22639" lon="1.05762">
        <ele>136</ele>
        <time>2016-07-10T07:10:28.000Z</time>
      </trkpt>
      <trkpt lat="49.22641" lon="1.05757">
        <ele>136</ele>
        <time>2016-07-10T07:10:29.000Z</time>
      </trkpt>
      <trkpt lat="49.22644" lon="1.05753">
        <ele>136</ele>
        <time>2016-07-10T07:10:30.000Z</time>
      </trkpt>
      <trkpt lat="49.22647" lon="1.05748">
        <ele>136</ele>
        <time>2016-07-10T07:10:31.000Z</time>
      </trkpt>
      <trkpt lat="49.2265" lon="1.05743">
        <ele>136</ele>
        <time>2016-07-10T07:10:32.000Z</time>
      </trkpt>
      <trkpt lat="49.22654" lon="1.05738">
        <ele>136</ele>
        <time>2016-07-10T07:10:33.000Z</time>
      </trkpt>
      <trkpt lat="49.22658" lon="1.05733">
        <ele>136</ele>
        <time>2016-07-10T07:10:34.000Z</time>
      </trkpt>
      <trkpt lat="49.22661" lon="1.05727">
        <ele>135</ele>
        <time>2016-07-10T07:10:35.000Z</time>
      </trkpt>
      <trkpt lat="49.22665" lon="1.05722">
        <ele>135</ele>
        <time>2016-07-10T07:10:36.000Z</time>
      </trkpt>
      <trkpt lat="49.22668" lon="1.05717">
        <ele>135</ele>
        <time>2016-07-10T07:10:37.000Z</time>
      </trkpt>
      <trkpt lat="49.22672" lon="1.05711">
        <ele>135</ele>
        <time>2016-07-10T07:10:38.000Z</time>
      </trkpt>
      <trkpt lat="49.22675" lon="1.05706">
        <ele>135</ele>
        <time>2016-07-10T07:10:39.000Z</time>
      </trkpt>
      <trkpt lat="49.22679" lon="1.05701">
        <ele>134</ele>
        <time>2016-07-10T07:10:40.000Z</time>
      </trkpt>
      <trkpt lat="49.22682" lon="1.05696">
        <ele>134</ele>
        <time>2016-07-10T07:10:41.000Z</time>
      </trkpt>
      <trkpt lat="49.22686" lon="1.05691">
        <ele>134</ele>
        <time>2016-07-10T07:10:42.000Z</time>
      </trkpt>
      <trkpt lat="49.2269" lon="1.05686">
        <ele>133</ele>
        <time>2016-07-10T07:10:43.000Z</time>
      </trkpt>
      <trkpt lat="49.22693" lon="1.05681">
        <ele>133</ele>
        <time>2016-07-10T07:10:44.000Z</time>
      </trkpt>
      <trkpt lat="49.22696" lon="1.05676">
        <ele>132</ele>
        <time>2016-07-10T07:10:45.000Z</time>
      </trkpt>
      <trkpt lat="49.22699" lon="1.05672">
        <ele>131</ele>
        <time>2016-07-10T07:10:46.000Z</time>
      </trkpt>
      <trkpt lat="49.22701" lon="1.05668">
        <ele>131</ele>
        <time>2016-07-10T07:10:47.000Z</time>
      </trkpt>
      <trkpt lat="49.22704" lon="1.05664">
        <ele>131</ele>
        <time>2016-07-10T07:10:48.000Z</time>
      </trkpt>
      <trkpt lat="49.22707" lon="1.05661">
        <ele>130</ele>
        <time>2016-07-10T07:10:49.000Z</time>
      </trkpt>
      <trkpt lat="49.22709" lon="1.05657">
        <ele>130</ele>
        <time>2016-07-10T07:10:50.000Z</time>
      </trkpt>
      <trkpt lat="49.22712" lon="1.05652">
        <ele>130</ele>
        <time>2016-07-10T07:10:51.000Z</time>
      </trkpt>
      <trkpt lat="49.22715" lon="1.05647">
        <ele>129</ele>
        <time>2016-07-10T07:10:52.000Z</time>
      </trkpt>
      <trkpt lat="49.22717" lon="1.05642">
        <ele>129</ele>
        <time>2016-07-10T07:10:53.000Z</time>
      </trkpt>
      <trkpt lat="49.22721" lon="1.05637">
        <ele>127</ele>
        <time>2016-07-10T07:10:54.000Z</time>
      </trkpt>
      <trkpt lat="49.22726" lon="1.05631">
        <ele>126</ele>
        <time>2016-07-10T07:10:55.000Z</time>
      </trkpt>
      <trkpt lat="49.22732" lon="1.05625">
        <ele>126</ele>
        <time>2016-07-10T07:10:56.000Z</time>
      </trkpt>
      <trkpt lat="49.22738" lon="1.05621">
        <ele>125</ele>
        <time>2016-07-10T07:10:57.000Z</time>
      </trkpt>
      <trkpt lat="49.22744" lon="1.05616">
        <ele>125</ele>
        <time>2016-07-10T07:10:58.000Z</time>
      </trkpt>
      <trkpt lat="49.2275" lon="1.05612">
        <ele>125</ele>
        <time>2016-07-10T07:10:59.000Z</time>
      </trkpt>
      <trkpt lat="49.22756" lon="1.05608">
        <ele>125</ele>
        <time>2016-07-10T07:11:00.000Z</time>
      </trkpt>
      <trkpt lat="49.22761" lon="1.05604">
        <ele>125</ele>
        <time>2016-07-10T07:11:01.000Z</time>
      </trkpt>
      <trkpt lat="49.22767" lon="1.05601">
        <ele>124</ele>
        <time>2016-07-10T07:11:02.000Z</time>
      </trkpt>
      <trkpt lat="49.22772" lon="1.05598">
        <ele>123</ele>
        <time>2016-07-10T07:11:03.000Z</time>
      </trkpt>
      <trkpt lat="49.22778" lon="1.05595">
        <ele>123</ele>
        <time>2016-07-10T07:11:04.000Z</time>
      </trkpt>
      <trkpt lat="49.22783" lon="1.05592">
        <ele>122</ele>
        <time>2016-07-10T07:11:05.000Z</time>
      </trkpt>
      <trkpt lat="49.22789" lon="1.05591">
        <ele>122</ele>
        <time>2016-07-10T07:11:06.000Z</time>
      </trkpt>
      <trkpt lat="49.22794" lon="1.0559">
        <ele>120</ele>
        <time>2016-07-10T07:11:07.000Z</time>
      </trkpt>
      <trkpt lat="49.22798" lon="1.05589">
        <ele>119</ele>
        <time>2016-07-10T07:11:08.000Z</time>
      </trkpt>
      <trkpt lat="49.22803" lon="1.05589">
        <ele>118</ele>
        <time>2016-07-10T07:11:09.000Z</time>
      </trkpt>
      <trkpt lat="49.22809" lon="1.05589">
        <ele>118</ele>
        <time>2016-07-10T07:11:10.000Z</time>
      </trkpt>
      <trkpt lat="49.22814" lon="1.05589">
        <ele>117</ele>
        <time>2016-07-10T07:11:11.000Z</time>
      </trkpt>
      <trkpt lat="49.22818" lon="1.05589">
        <ele>116</ele>
        <time>2016-07-10T07:11:12.000Z</time>
      </trkpt>
      <trkpt lat="49.22823" lon="1.05589">
        <ele>116</ele>
        <time>2016-07-10T07:11:13.000Z</time>
      </trkpt>
      <trkpt lat="49.22827" lon="1.05588">
        <ele>117</ele>
        <time>2016-07-10T07:11:14.000Z</time>
      </trkpt>
      <trkpt lat="49.2283" lon="1.05587">
        <ele>116</ele>
        <time>2016-07-10T07:11:15.000Z</time>
      </trkpt>
      <trkpt lat="49.22833" lon="1.05586">
        <ele>116</ele>
        <time>2016-07-10T07:11:16.000Z</time>
      </trkpt>
      <trkpt lat="49.22835" lon="1.05585">
        <ele>116</ele>
        <time>2016-07-10T07:11:17.000Z</time>
      </trkpt>
      <trkpt lat="49.22837" lon="1.05584">
        <ele>118</ele>
        <time>2016-07-10T07:11:18.000Z</time>
      </trkpt>
      <trkpt lat="49.22839" lon="1.05583">
        <ele>119</ele>
        <time>2016-07-10T07:11:19.000Z</time>
      </trkpt>
      <trkpt lat="49.22841" lon="1.05582">
        <ele>120</ele>
        <time>2016-07-10T07:11:20.000Z</time>
      </trkpt>
      <trkpt lat="49.22844" lon="1.05581">
        <ele>121</ele>
        <time>2016-07-10T07:11:21.000Z</time>
      </trkpt>
      <trkpt lat="49.22846" lon="1.05579">
        <ele>121</ele>
        <time>2016-07-10T07:11:22.000Z</time>
      </trkpt>
      <trkpt lat="49.22849" lon="1.05578">
        <ele>121</ele>
        <time>2016-07-10T07:11:23.000Z</time>
      </trkpt>
      <trkpt lat="49.22851" lon="1.05577">
        <ele>122</ele>
        <time>2016-07-10T07:11:24.000Z</time>
      </trkpt>
      <trkpt lat="49.22855" lon="1.05576">
        <ele>123</ele>
        <time>2016-07-10T07:11:25.000Z</time>
      </trkpt>
      <trkpt lat="49.22858" lon="1.05575">
        <ele>124</ele>
        <time>2016-07-10T07:11:26.000Z</time>
      </trkpt>
      <trkpt lat="49.22861" lon="1.05574">
        <ele>125</ele>
        <time>2016-07-10T07:11:27.000Z</time>
      </trkpt>
      <trkpt lat="49.22864" lon="1.05574">
        <ele>125</ele>
        <time>2016-07-10T07:11:28.000Z</time>
      </trkpt>
      <trkpt lat="49.22868" lon="1.05572">
        <ele>126</ele>
        <time>2016-07-10T07:11:29.000Z</time>
      </trkpt>
      <trkpt lat="49.22872" lon="1.05571">
        <ele>127</ele>
        <time>2016-07-10T07:11:30.000Z</time>
      </trkpt>
      <trkpt lat="49.22875" lon="1.0557">
        <ele>127</ele>
        <time>2016-07-10T07:11:31.000Z</time>
      </trkpt>
      <trkpt lat="49.22878" lon="1.05568">
        <ele>128</ele>
        <time>2016-07-10T07:11:32.000Z</time>
      </trkpt>
      <trkpt lat="49.2288" lon="1.05567">
        <ele>129</ele>
        <time>2016-07-10T07:11:33.000Z</time>
      </trkpt>
      <trkpt lat="49.22883" lon="1.05566">
        <ele>130</ele>
        <time>2016-07-10T07:11:34.000Z</time>
      </trkpt>
      <trkpt lat="49.22886" lon="1.05565">
        <ele>131</ele>
        <time>2016-07-10T07:11:35.000Z</time>
      </trkpt>
      <trkpt lat="49.22889" lon="1.05564">
        <ele>131</ele>
        <time>2016-07-10T07:11:36.000Z</time>
      </trkpt>
      <trkpt lat="49.22892" lon="1.05563">
        <ele>131</ele>
        <time>2016-07-10T07:11:37.000Z</time>
      </trkpt>
      <trkpt lat="49.22894" lon="1.05561">
        <ele>132</ele>
        <time>2016-07-10T07:11:38.000Z</time>
      </trkpt>
      <trkpt lat="49.22897" lon="1.0556">
        <ele>132</ele>
        <time>2016-07-10T07:11:39.000Z</time>
      </trkpt>
      <trkpt lat="49.22899" lon="1.0556">
        <ele>131</ele>
        <time>2016-07-10T07:11:40.000Z</time>
      </trkpt>
      <trkpt lat="49.22901" lon="1.05559">
        <ele>132</ele>
        <time>2016-07-10T07:11:41.000Z</time>
      </trkpt>
      <trkpt lat="49.22903" lon="1.05558">
        <ele>134</ele>
        <time>2016-07-10T07:11:42.000Z</time>
      </trkpt>
      <trkpt lat="49.22906" lon="1.05556">
        <ele>136</ele>
        <time>2016-07-10T07:11:43.000Z</time>
      </trkpt>
      <trkpt lat="49.22908" lon="1.05555">
        <ele>135</ele>
        <time>2016-07-10T07:11:44.000Z</time>
      </trkpt>
      <trkpt lat="49.22911" lon="1.05552">
        <ele>135</ele>
        <time>2016-07-10T07:11:45.000Z</time>
      </trkpt>
      <trkpt lat="49.22913" lon="1.05549">
        <ele>134</ele>
        <time>2016-07-10T07:11:46.000Z</time>
      </trkpt>
      <trkpt lat="49.22917" lon="1.05546">
        <ele>133</ele>
        <time>2016-07-10T07:11:47.000Z</time>
      </trkpt>
      <trkpt lat="49.22921" lon="1.05543">
        <ele>133</ele>
        <time>2016-07-10T07:11:48.000Z</time>
      </trkpt>
      <trkpt lat="49.22924" lon="1.0554">
        <ele>132</ele>
        <time>2016-07-10T07:11:49.000Z</time>
      </trkpt>
      <trkpt lat="49.22927" lon="1.05537">
        <ele>132</ele>
        <time>2016-07-10T07:11:50.000Z</time>
      </trkpt>
      <trkpt lat="49.2293" lon="1.05534">
        <ele>131</ele>
        <time>2016-07-10T07:11:51.000Z</time>
      </trkpt>
      <trkpt lat="49.22933" lon="1.05529">
        <ele>132</ele>
        <time>2016-07-10T07:11:52.000Z</time>
      </trkpt>
      <trkpt lat="49.22937" lon="1.05524">
        <ele>132</ele>
        <time>2016-07-10T07:11:53.000Z</time>
      </trkpt>
      <trkpt lat="49.22941" lon="1.05519">
        <ele>130</ele>
        <time>2016-07-10T07:11:54.000Z</time>
      </trkpt>
      <trkpt lat="49.22945" lon="1.05514">
        <ele>128</ele>
        <time>2016-07-10T07:11:55.000Z</time>
      </trkpt>
      <trkpt lat="49.2295" lon="1.05508">
        <ele>127</ele>
        <time>2016-07-10T07:11:56.000Z</time>
      </trkpt>
      <trkpt lat="49.22954" lon="1.05504">
        <ele>127</ele>
        <time>2016-07-10T07:11:57.000Z</time>
      </trkpt>
      <trkpt lat="49.22958" lon="1.055">
        <ele>126</ele>
        <time>2016-07-10T07:11:58.000Z</time>
      </trkpt>
      <trkpt lat="49.22961" lon="1.05496">
        <ele>126</ele>
        <time>2016-07-10T07:11:59.000Z</time>
      </trkpt>
      <trkpt lat="49.22964" lon="1.05492">
        <ele>125</ele>
        <time>2016-07-10T07:12:00.000Z</time>
      </trkpt>
      <trkpt lat="49.22968" lon="1.05488">
        <ele>126</ele>
        <time>2016-07-10T07:12:01.000Z</time>
      </trkpt>
      <trkpt lat="49.22972" lon="1.05484">
        <ele>125</ele>
        <time>2016-07-10T07:12:02.000Z</time>
      </trkpt>
      <trkpt lat="49.22975" lon="1.05479">
        <ele>125</ele>
        <time>2016-07-10T07:12:03.000Z</time>
      </trkpt>
      <trkpt lat="49.22978" lon="1.05473">
        <ele>126</ele>
        <time>2016-07-10T07:12:04.000Z</time>
      </trkpt>
      <trkpt lat="49.22981" lon="1.05467">
        <ele>126</ele>
        <time>2016-07-10T07:12:05.000Z</time>
      </trkpt>
      <trkpt lat="49.22985" lon="1.05462">
        <ele>127</ele>
        <time>2016-07-10T07:12:06.000Z</time>
      </trkpt>
      <trkpt lat="49.22988" lon="1.05457">
        <ele>126</ele>
        <time>2016-07-10T07:12:07.000Z</time>
      </trkpt>
      <trkpt lat="49.22991" lon="1.05452">
        <ele>127</ele>
        <time>2016-07-10T07:12:08.000Z</time>
      </trkpt>
      <trkpt lat="49.22995" lon="1.05447">
        <ele>127</ele>
        <time>2016-07-10T07:12:09.000Z</time>
      </trkpt>
      <trkpt lat="49.22999" lon="1.05442">
        <ele>127</ele>
        <time>2016-07-10T07:12:10.000Z</time>
      </trkpt>
      <trkpt lat="49.23003" lon="1.05436">
        <ele>128</ele>
        <time>2016-07-10T07:12:11.000Z</time>
      </trkpt>
      <trkpt lat="49.23007" lon="1.05431">
        <ele>128</ele>
        <time>2016-07-10T07:12:12.000Z</time>
      </trkpt>
      <trkpt lat="49.23011" lon="1.05426">
        <ele>129</ele>
        <time>2016-07-10T07:12:13.000Z</time>
      </trkpt>
      <trkpt lat="49.23014" lon="1.05421">
        <ele>129</ele>
        <time>2016-07-10T07:12:14.000Z</time>
      </trkpt>
      <trkpt lat="49.23018" lon="1.05416">
        <ele>129</ele>
        <time>2016-07-10T07:12:15.000Z</time>
      </trkpt>
      <trkpt lat="49.23021" lon="1.05412">
        <ele>130</ele>
        <time>2016-07-10T07:12:16.000Z</time>
      </trkpt>
      <trkpt lat="49.23025" lon="1.05407">
        <ele>130</ele>
        <time>2016-07-10T07:12:17.000Z</time>
      </trkpt>
      <trkpt lat="49.23029" lon="1.05403">
        <ele>129</ele>
        <time>2016-07-10T07:12:18.000Z</time>
      </trkpt>
      <trkpt lat="49.23033" lon="1.05398">
        <ele>129</ele>
        <time>2016-07-10T07:12:19.000Z</time>
      </trkpt>
      <trkpt lat="49.23036" lon="1.05393">
        <ele>128</ele>
        <time>2016-07-10T07:12:20.000Z</time>
      </trkpt>
      <trkpt lat="49.2304" lon="1.05388">
        <ele>128</ele>
        <time>2016-07-10T07:12:21.000Z</time>
      </trkpt>
      <trkpt lat="49.23044" lon="1.05384">
        <ele>129</ele>
        <time>2016-07-10T07:12:22.000Z</time>
      </trkpt>
      <trkpt lat="49.23048" lon="1.05379">
        <ele>129</ele>
        <time>2016-07-10T07:12:23.000Z</time>
      </trkpt>
      <trkpt lat="49.23051" lon="1.05374">
        <ele>130</ele>
        <time>2016-07-10T07:12:24.000Z</time>
      </trkpt>
      <trkpt lat="49.23055" lon="1.05369">
        <ele>129</ele>
        <time>2016-07-10T07:12:25.000Z</time>
      </trkpt>
      <trkpt lat="49.23058" lon="1.05365">
        <ele>129</ele>
        <time>2016-07-10T07:12:26.000Z</time>
      </trkpt>
      <trkpt lat="49.23061" lon="1.0536">
        <ele>129</ele>
        <time>2016-07-10T07:12:27.000Z</time>
      </trkpt>
      <trkpt lat="49.23065" lon="1.05355">
        <ele>129</ele>
        <time>2016-07-10T07:12:28.000Z</time>
      </trkpt>
      <trkpt lat="49.23068" lon="1.0535">
        <ele>129</ele>
        <time>2016-07-10T07:12:29.000Z</time>
      </trkpt>
      <trkpt lat="49.23071" lon="1.05345">
        <ele>129</ele>
        <time>2016-07-10T07:12:30.000Z</time>
      </trkpt>
      <trkpt lat="49.23074" lon="1.05339">
        <ele>128</ele>
        <time>2016-07-10T07:12:31.000Z</time>
      </trkpt>
      <trkpt lat="49.23077" lon="1.05334">
        <ele>128</ele>
        <time>2016-07-10T07:12:32.000Z</time>
      </trkpt>
      <trkpt lat="49.2308" lon="1.0533">
        <ele>127</ele>
        <time>2016-07-10T07:12:33.000Z</time>
      </trkpt>
      <trkpt lat="49.23083" lon="1.05326">
        <ele>126</ele>
        <time>2016-07-10T07:12:34.000Z</time>
      </trkpt>
      <trkpt lat="49.23087" lon="1.05321">
        <ele>125</ele>
        <time>2016-07-10T07:12:35.000Z</time>
      </trkpt>
      <trkpt lat="49.23091" lon="1.05317">
        <ele>124</ele>
        <time>2016-07-10T07:12:36.000Z</time>
      </trkpt>
      <trkpt lat="49.23095" lon="1.05311">
        <ele>122</ele>
        <time>2016-07-10T07:12:37.000Z</time>
      </trkpt>
      <trkpt lat="49.231" lon="1.05305">
        <ele>120</ele>
        <time>2016-07-10T07:12:38.000Z</time>
      </trkpt>
      <trkpt lat="49.23104" lon="1.05299">
        <ele>119</ele>
        <time>2016-07-10T07:12:39.000Z</time>
      </trkpt>
      <trkpt lat="49.23108" lon="1.05294">
        <ele>118</ele>
        <time>2016-07-10T07:12:40.000Z</time>
      </trkpt>
      <trkpt lat="49.23112" lon="1.05289">
        <ele>117</ele>
        <time>2016-07-10T07:12:41.000Z</time>
      </trkpt>
      <trkpt lat="49.23115" lon="1.05283">
        <ele>116</ele>
        <time>2016-07-10T07:12:42.000Z</time>
      </trkpt>
      <trkpt lat="49.23119" lon="1.05277">
        <ele>115</ele>
        <time>2016-07-10T07:12:43.000Z</time>
      </trkpt>
      <trkpt lat="49.23122" lon="1.05271">
        <ele>115</ele>
        <time>2016-07-10T07:12:44.000Z</time>
      </trkpt>
      <trkpt lat="49.23126" lon="1.05266">
        <ele>115</ele>
        <time>2016-07-10T07:12:45.000Z</time>
      </trkpt>
      <trkpt lat="49.2313" lon="1.05261">
        <ele>114</ele>
        <time>2016-07-10T07:12:46.000Z</time>
      </trkpt>
      <trkpt lat="49.23134" lon="1.05256">
        <ele>114</ele>
        <time>2016-07-10T07:12:47.000Z</time>
      </trkpt>
      <trkpt lat="49.23138" lon="1.05251">
        <ele>114</ele>
        <time>2016-07-10T07:12:48.000Z</time>
      </trkpt>
      <trkpt lat="49.23142" lon="1.05247">
        <ele>115</ele>
        <time>2016-07-10T07:12:49.000Z</time>
      </trkpt>
      <trkpt lat="49.23147" lon="1.05241">
        <ele>115</ele>
        <time>2016-07-10T07:12:50.000Z</time>
      </trkpt>
      <trkpt lat="49.23151" lon="1.05235">
        <ele>116</ele>
        <time>2016-07-10T07:12:51.000Z</time>
      </trkpt>
      <trkpt lat="49.23155" lon="1.0523">
        <ele>116</ele>
        <time>2016-07-10T07:12:52.000Z</time>
      </trkpt>
      <trkpt lat="49.2316" lon="1.05224">
        <ele>115</ele>
        <time>2016-07-10T07:12:53.000Z</time>
      </trkpt>
      <trkpt lat="49.23164" lon="1.05219">
        <ele>115</ele>
        <time>2016-07-10T07:12:54.000Z</time>
      </trkpt>
      <trkpt lat="49.23167" lon="1.05215">
        <ele>114</ele>
        <time>2016-07-10T07:12:55.000Z</time>
      </trkpt>
      <trkpt lat="49.23171" lon="1.0521">
        <ele>114</ele>
        <time>2016-07-10T07:12:56.000Z</time>
      </trkpt>
      <trkpt lat="49.23175" lon="1.05205">
        <ele>113</ele>
        <time>2016-07-10T07:12:57.000Z</time>
      </trkpt>
      <trkpt lat="49.23179" lon="1.05199">
        <ele>113</ele>
        <time>2016-07-10T07:12:58.000Z</time>
      </trkpt>
      <trkpt lat="49.23183" lon="1.05193">
        <ele>112</ele>
        <time>2016-07-10T07:12:59.000Z</time>
      </trkpt>
      <trkpt lat="49.23186" lon="1.05187">
        <ele>112</ele>
        <time>2016-07-10T07:13:00.000Z</time>
      </trkpt>
      <trkpt lat="49.2319" lon="1.05181">
        <ele>112</ele>
        <time>2016-07-10T07:13:01.000Z</time>
      </trkpt>
      <trkpt lat="49.23194" lon="1.05173">
        <ele>113</ele>
        <time>2016-07-10T07:13:02.000Z</time>
      </trkpt>
      <trkpt lat="49.23197" lon="1.05165">
        <ele>113</ele>
        <time>2016-07-10T07:13:03.000Z</time>
      </trkpt>
      <trkpt lat="49.23201" lon="1.05157">
        <ele>113</ele>
        <time>2016-07-10T07:13:04.000Z</time>
      </trkpt>
      <trkpt lat="49.23204" lon="1.05149">
        <ele>112</ele>
        <time>2016-07-10T07:13:05.000Z</time>
      </trkpt>
      <trkpt lat="49.23207" lon="1.05141">
        <ele>112</ele>
        <time>2016-07-10T07:13:06.000Z</time>
      </trkpt>
      <trkpt lat="49.23211" lon="1.05134">
        <ele>113</ele>
        <time>2016-07-10T07:13:07.000Z</time>
      </trkpt>
      <trkpt lat="49.23215" lon="1.05127">
        <ele>113</ele>
        <time>2016-07-10T07:13:08.000Z</time>
      </trkpt>
      <trkpt lat="49.23218" lon="1.05119">
        <ele>115</ele>
        <time>2016-07-10T07:13:09.000Z</time>
      </trkpt>
      <trkpt lat="49.23223" lon="1.05111">
        <ele>120</ele>
        <time>2016-07-10T07:13:10.000Z</time>
      </trkpt>
      <trkpt lat="49.23227" lon="1.05102">
        <ele>123</ele>
        <time>2016-07-10T07:13:11.000Z</time>
      </trkpt>
      <trkpt lat="49.23232" lon="1.05095">
        <ele>123</ele>
        <time>2016-07-10T07:13:12.000Z</time>
      </trkpt>
      <trkpt lat="49.23237" lon="1.05089">
        <ele>123</ele>
        <time>2016-07-10T07:13:13.000Z</time>
      </trkpt>
      <trkpt lat="49.23242" lon="1.05085">
        <ele>124</ele>
        <time>2016-07-10T07:13:14.000Z</time>
      </trkpt>
      <trkpt lat="49.23246" lon="1.05081">
        <ele>124</ele>
        <time>2016-07-10T07:13:15.000Z</time>
      </trkpt>
      <trkpt lat="49.23251" lon="1.05077">
        <ele>125</ele>
        <time>2016-07-10T07:13:16.000Z</time>
      </trkpt>
      <trkpt lat="49.23257" lon="1.05073">
        <ele>127</ele>
        <time>2016-07-10T07:13:17.000Z</time>
      </trkpt>
      <trkpt lat="49.23262" lon="1.0507">
        <ele>127</ele>
        <time>2016-07-10T07:13:18.000Z</time>
      </trkpt>
      <trkpt lat="49.23267" lon="1.05066">
        <ele>128</ele>
        <time>2016-07-10T07:13:19.000Z</time>
      </trkpt>
      <trkpt lat="49.23272" lon="1.05063">
        <ele>128</ele>
        <time>2016-07-10T07:13:20.000Z</time>
      </trkpt>
      <trkpt lat="49.23276" lon="1.05058">
        <ele>129</ele>
        <time>2016-07-10T07:13:21.000Z</time>
      </trkpt>
      <trkpt lat="49.23279" lon="1.05054">
        <ele>130</ele>
        <time>2016-07-10T07:13:22.000Z</time>
      </trkpt>
      <trkpt lat="49.23283" lon="1.0505">
        <ele>131</ele>
        <time>2016-07-10T07:13:23.000Z</time>
      </trkpt>
      <trkpt lat="49.23286" lon="1.05047">
        <ele>131</ele>
        <time>2016-07-10T07:13:24.000Z</time>
      </trkpt>
      <trkpt lat="49.2329" lon="1.05043">
        <ele>131</ele>
        <time>2016-07-10T07:13:25.000Z</time>
      </trkpt>
      <trkpt lat="49.23293" lon="1.05039">
        <ele>131</ele>
        <time>2016-07-10T07:13:26.000Z</time>
      </trkpt>
      <trkpt lat="49.23296" lon="1.05034">
        <ele>131</ele>
        <time>2016-07-10T07:13:27.000Z</time>
      </trkpt>
      <trkpt lat="49.233" lon="1.05028">
        <ele>131</ele>
        <time>2016-07-10T07:13:28.000Z</time>
      </trkpt>
      <trkpt lat="49.23303" lon="1.05023">
        <ele>131</ele>
        <time>2016-07-10T07:13:29.000Z</time>
      </trkpt>
      <trkpt lat="49.23307" lon="1.05018">
        <ele>130</ele>
        <time>2016-07-10T07:13:30.000Z</time>
      </trkpt>
      <trkpt lat="49.23311" lon="1.05012">
        <ele>129</ele>
        <time>2016-07-10T07:13:31.000Z</time>
      </trkpt>
      <trkpt lat="49.23315" lon="1.05006">
        <ele>129</ele>
        <time>2016-07-10T07:13:32.000Z</time>
      </trkpt>
      <trkpt lat="49.23318" lon="1.05">
        <ele>128</ele>
        <time>2016-07-10T07:13:33.000Z</time>
      </trkpt>
      <trkpt lat="49.23322" lon="1.04995">
        <ele>127</ele>
        <time>2016-07-10T07:13:34.000Z</time>
      </trkpt>
      <trkpt lat="49.23326" lon="1.04989">
        <ele>127</ele>
        <time>2016-07-10T07:13:35.000Z</time>
      </trkpt>
      <trkpt lat="49.23329" lon="1.04983">
        <ele>127</ele>
        <time>2016-07-10T07:13:36.000Z</time>
      </trkpt>
      <trkpt lat="49.23333" lon="1.04977">
        <ele>126</ele>
        <time>2016-07-10T07:13:37.000Z</time>
      </trkpt>
      <trkpt lat="49.23337" lon="1.04972">
        <ele>126</ele>
        <time>2016-07-10T07:13:38.000Z</time>
      </trkpt>
      <trkpt lat="49.23341" lon="1.04966">
        <ele>125</ele>
        <time>2016-07-10T07:13:39.000Z</time>
      </trkpt>
      <trkpt lat="49.23344" lon="1.04961">
        <ele>125</ele>
        <time>2016-07-10T07:13:40.000Z</time>
      </trkpt>
      <trkpt lat="49.23348" lon="1.04956">
        <ele>125</ele>
        <time>2016-07-10T07:13:41.000Z</time>
      </trkpt>
      <trkpt lat="49.23352" lon="1.04951">
        <ele>126</ele>
        <time>2016-07-10T07:13:42.000Z</time>
      </trkpt>
      <trkpt lat="49.23355" lon="1.04946">
        <ele>126</ele>
        <time>2016-07-10T07:13:43.000Z</time>
      </trkpt>
      <trkpt lat="49.23359" lon="1.0494">
        <ele>126</ele>
        <time>2016-07-10T07:13:44.000Z</time>
      </trkpt>
      <trkpt lat="49.23363" lon="1.04935">
        <ele>126</ele>
        <time>2016-07-10T07:13:45.000Z</time>
      </trkpt>
      <trkpt lat="49.23367" lon="1.0493">
        <ele>126</ele>
        <time>2016-07-10T07:13:46.000Z</time>
      </trkpt>
      <trkpt lat="49.23371" lon="1.04925">
        <ele>126</ele>
        <time>2016-07-10T07:13:47.000Z</time>
      </trkpt>
      <trkpt lat="49.23375" lon="1.04919">
        <ele>126</ele>
        <time>2016-07-10T07:13:48.000Z</time>
      </trkpt>
      <trkpt lat="49.23379" lon="1.04914">
        <ele>126</ele>
        <time>2016-07-10T07:13:49.000Z</time>
      </trkpt>
      <trkpt lat="49.23384" lon="1.04908">
        <ele>126</ele>
        <time>2016-07-10T07:13:50.000Z</time>
      </trkpt>
      <trkpt lat="49.23387" lon="1.04904">
        <ele>127</ele>
        <time>2016-07-10T07:13:51.000Z</time>
      </trkpt>
      <trkpt lat="49.23391" lon="1.04899">
        <ele>127</ele>
        <time>2016-07-10T07:13:52.000Z</time>
      </trkpt>
      <trkpt lat="49.23393" lon="1.04896">
        <ele>127</ele>
        <time>2016-07-10T07:13:53.000Z</time>
      </trkpt>
      <trkpt lat="49.23396" lon="1.04893">
        <ele>127</ele>
        <time>2016-07-10T07:13:54.000Z</time>
      </trkpt>
      <trkpt lat="49.23397" lon="1.0489">
        <ele>126</ele>
        <time>2016-07-10T07:13:55.000Z</time>
      </trkpt>
      <trkpt lat="49.234" lon="1.04888">
        <ele>126</ele>
        <time>2016-07-10T07:13:56.000Z</time>
      </trkpt>
      <trkpt lat="49.23402" lon="1.04885">
        <ele>127</ele>
        <time>2016-07-10T07:13:57.000Z</time>
      </trkpt>
      <trkpt lat="49.23405" lon="1.04882">
        <ele>127</ele>
        <time>2016-07-10T07:13:58.000Z</time>
      </trkpt>
      <trkpt lat="49.23407" lon="1.04878">
        <ele>127</ele>
        <time>2016-07-10T07:13:59.000Z</time>
      </trkpt>
      <trkpt lat="49.2341" lon="1.04875">
        <ele>126</ele>
        <time>2016-07-10T07:14:00.000Z</time>
      </trkpt>
      <trkpt lat="49.23412" lon="1.04872">
        <ele>125</ele>
        <time>2016-07-10T07:14:01.000Z</time>
      </trkpt>
      <trkpt lat="49.23415" lon="1.04869">
        <ele>125</ele>
        <time>2016-07-10T07:14:02.000Z</time>
      </trkpt>
      <trkpt lat="49.23419" lon="1.04865">
        <ele>123</ele>
        <time>2016-07-10T07:14:03.000Z</time>
      </trkpt>
      <trkpt lat="49.23422" lon="1.04862">
        <ele>123</ele>
        <time>2016-07-10T07:14:04.000Z</time>
      </trkpt>
      <trkpt lat="49.23425" lon="1.04858">
        <ele>122</ele>
        <time>2016-07-10T07:14:05.000Z</time>
      </trkpt>
      <trkpt lat="49.23428" lon="1.04854">
        <ele>120</ele>
        <time>2016-07-10T07:14:06.000Z</time>
      </trkpt>
      <trkpt lat="49.23432" lon="1.04849">
        <ele>119</ele>
        <time>2016-07-10T07:14:07.000Z</time>
      </trkpt>
      <trkpt lat="49.23436" lon="1.04845">
        <ele>118</ele>
        <time>2016-07-10T07:14:08.000Z</time>
      </trkpt>
      <trkpt lat="49.23441" lon="1.0484">
        <ele>118</ele>
        <time>2016-07-10T07:14:09.000Z</time>
      </trkpt>
      <trkpt lat="49.23445" lon="1.04835">
        <ele>118</ele>
        <time>2016-07-10T07:14:10.000Z</time>
      </trkpt>
      <trkpt lat="49.2345" lon="1.04829">
        <ele>117</ele>
        <time>2016-07-10T07:14:11.000Z</time>
      </trkpt>
      <trkpt lat="49.23454" lon="1.04823">
        <ele>116</ele>
        <time>2016-07-10T07:14:12.000Z</time>
      </trkpt>
      <trkpt lat="49.23458" lon="1.04818">
        <ele>115</ele>
        <time>2016-07-10T07:14:13.000Z</time>
      </trkpt>
      <trkpt lat="49.23462" lon="1.04813">
        <ele>112</ele>
        <time>2016-07-10T07:14:14.000Z</time>
      </trkpt>
      <trkpt lat="49.23466" lon="1.04809">
        <ele>110</ele>
        <time>2016-07-10T07:14:15.000Z</time>
      </trkpt>
      <trkpt lat="49.23469" lon="1.04804">
        <ele>108</ele>
        <time>2016-07-10T07:14:16.000Z</time>
      </trkpt>
      <trkpt lat="49.23473" lon="1.04799">
        <ele>107</ele>
        <time>2016-07-10T07:14:17.000Z</time>
      </trkpt>
      <trkpt lat="49.23476" lon="1.04794">
        <ele>106</ele>
        <time>2016-07-10T07:14:18.000Z</time>
      </trkpt>
      <trkpt lat="49.2348" lon="1.04789">
        <ele>106</ele>
        <time>2016-07-10T07:14:19.000Z</time>
      </trkpt>
      <trkpt lat="49.23484" lon="1.04785">
        <ele>105</ele>
        <time>2016-07-10T07:14:20.000Z</time>
      </trkpt>
      <trkpt lat="49.23488" lon="1.0478">
        <ele>105</ele>
        <time>2016-07-10T07:14:21.000Z</time>
      </trkpt>
      <trkpt lat="49.23491" lon="1.04775">
        <ele>104</ele>
        <time>2016-07-10T07:14:22.000Z</time>
      </trkpt>
      <trkpt lat="49.23495" lon="1.04769">
        <ele>104</ele>
        <time>2016-07-10T07:14:23.000Z</time>
      </trkpt>
      <trkpt lat="49.23499" lon="1.04763">
        <ele>104</ele>
        <time>2016-07-10T07:14:24.000Z</time>
      </trkpt>
      <trkpt lat="49.23504" lon="1.04757">
        <ele>103</ele>
        <time>2016-07-10T07:14:25.000Z</time>
      </trkpt>
      <trkpt lat="49.23509" lon="1.04753">
        <ele>102</ele>
        <time>2016-07-10T07:14:26.000Z</time>
      </trkpt>
      <trkpt lat="49.23514" lon="1.04748">
        <ele>102</ele>
        <time>2016-07-10T07:14:27.000Z</time>
      </trkpt>
      <trkpt lat="49.23518" lon="1.04742">
        <ele>101</ele>
        <time>2016-07-10T07:14:28.000Z</time>
      </trkpt>
      <trkpt lat="49.23521" lon="1.04738">
        <ele>101</ele>
        <time>2016-07-10T07:14:29.000Z</time>
      </trkpt>
      <trkpt lat="49.23525" lon="1.04733">
        <ele>101</ele>
        <time>2016-07-10T07:14:30.000Z</time>
      </trkpt>
      <trkpt lat="49.23528" lon="1.04729">
        <ele>101</ele>
        <time>2016-07-10T07:14:31.000Z</time>
      </trkpt>
      <trkpt lat="49.23531" lon="1.04725">
        <ele>102</ele>
        <time>2016-07-10T07:14:32.000Z</time>
      </trkpt>
      <trkpt lat="49.23534" lon="1.0472">
        <ele>103</ele>
        <time>2016-07-10T07:14:33.000Z</time>
      </trkpt>
      <trkpt lat="49.23537" lon="1.04715">
        <ele>104</ele>
        <time>2016-07-10T07:14:34.000Z</time>
      </trkpt>
      <trkpt lat="49.2354" lon="1.0471">
        <ele>103</ele>
        <time>2016-07-10T07:14:35.000Z</time>
      </trkpt>
      <trkpt lat="49.23544" lon="1.04704">
        <ele>103</ele>
        <time>2016-07-10T07:14:36.000Z</time>
      </trkpt>
      <trkpt lat="49.23549" lon="1.04698">
        <ele>104</ele>
        <time>2016-07-10T07:14:37.000Z</time>
      </trkpt>
      <trkpt lat="49.23554" lon="1.04692">
        <ele>105</ele>
        <time>2016-07-10T07:14:38.000Z</time>
      </trkpt>
      <trkpt lat="49.23559" lon="1.04686">
        <ele>106</ele>
        <time>2016-07-10T07:14:39.000Z</time>
      </trkpt>
      <trkpt lat="49.23563" lon="1.0468">
        <ele>106</ele>
        <time>2016-07-10T07:14:40.000Z</time>
      </trkpt>
      <trkpt lat="49.23568" lon="1.04673">
        <ele>107</ele>
        <time>2016-07-10T07:14:41.000Z</time>
      </trkpt>
      <trkpt lat="49.23572" lon="1.04666">
        <ele>110</ele>
        <time>2016-07-10T07:14:42.000Z</time>
      </trkpt>
      <trkpt lat="49.23578" lon="1.0466">
        <ele>111</ele>
        <time>2016-07-10T07:14:43.000Z</time>
      </trkpt>
      <trkpt lat="49.23582" lon="1.04653">
        <ele>111</ele>
        <time>2016-07-10T07:14:44.000Z</time>
      </trkpt>
      <trkpt lat="49.23587" lon="1.04647">
        <ele>112</ele>
        <time>2016-07-10T07:14:45.000Z</time>
      </trkpt>
      <trkpt lat="49.23591" lon="1.04641">
        <ele>113</ele>
        <time>2016-07-10T07:14:46.000Z</time>
      </trkpt>
      <trkpt lat="49.23596" lon="1.04634">
        <ele>114</ele>
        <time>2016-07-10T07:14:47.000Z</time>
      </trkpt>
      <trkpt lat="49.236" lon="1.04628">
        <ele>115</ele>
        <time>2016-07-10T07:14:48.000Z</time>
      </trkpt>
      <trkpt lat="49.23604" lon="1.04622">
        <ele>116</ele>
        <time>2016-07-10T07:14:49.000Z</time>
      </trkpt>
      <trkpt lat="49.23608" lon="1.04615">
        <ele>117</ele>
        <time>2016-07-10T07:14:50.000Z</time>
      </trkpt>
      <trkpt lat="49.23611" lon="1.04609">
        <ele>117</ele>
        <time>2016-07-10T07:14:51.000Z</time>
      </trkpt>
      <trkpt lat="49.23614" lon="1.04604">
        <ele>117</ele>
        <time>2016-07-10T07:14:52.000Z</time>
      </trkpt>
      <trkpt lat="49.23618" lon="1.04598">
        <ele>118</ele>
        <time>2016-07-10T07:14:53.000Z</time>
      </trkpt>
      <trkpt lat="49.23622" lon="1.04592">
        <ele>119</ele>
        <time>2016-07-10T07:14:54.000Z</time>
      </trkpt>
      <trkpt lat="49.23626" lon="1.04587">
        <ele>120</ele>
        <time>2016-07-10T07:14:55.000Z</time>
      </trkpt>
      <trkpt lat="49.2363" lon="1.04581">
        <ele>121</ele>
        <time>2016-07-10T07:14:56.000Z</time>
      </trkpt>
      <trkpt lat="49.23634" lon="1.04576">
        <ele>121</ele>
        <time>2016-07-10T07:14:57.000Z</time>
      </trkpt>
      <trkpt lat="49.23637" lon="1.04571">
        <ele>119</ele>
        <time>2016-07-10T07:14:58.000Z</time>
      </trkpt>
      <trkpt lat="49.2364" lon="1.04566">
        <ele>119</ele>
        <time>2016-07-10T07:14:59.000Z</time>
      </trkpt>
      <trkpt lat="49.23643" lon="1.04561">
        <ele>120</ele>
        <time>2016-07-10T07:15:00.000Z</time>
      </trkpt>
      <trkpt lat="49.23647" lon="1.04556">
        <ele>120</ele>
        <time>2016-07-10T07:15:01.000Z</time>
      </trkpt>
      <trkpt lat="49.2365" lon="1.04552">
        <ele>121</ele>
        <time>2016-07-10T07:15:02.000Z</time>
      </trkpt>
      <trkpt lat="49.23652" lon="1.04549">
        <ele>121</ele>
        <time>2016-07-10T07:15:03.000Z</time>
      </trkpt>
      <trkpt lat="49.23654" lon="1.04545">
        <ele>120</ele>
        <time>2016-07-10T07:15:04.000Z</time>
      </trkpt>
      <trkpt lat="49.23655" lon="1.04542">
        <ele>119</ele>
        <time>2016-07-10T07:15:05.000Z</time>
      </trkpt>
      <trkpt lat="49.23656" lon="1.04538">
        <ele>119</ele>
        <time>2016-07-10T07:15:06.000Z</time>
      </trkpt>
      <trkpt lat="49.23656" lon="1.04534">
        <ele>116</ele>
        <time>2016-07-10T07:15:07.000Z</time>
      </trkpt>
      <trkpt lat="49.23657" lon="1.0453">
        <ele>115</ele>
        <time>2016-07-10T07:15:08.000Z</time>
      </trkpt>
      <trkpt lat="49.23658" lon="1.04525">
        <ele>114</ele>
        <time>2016-07-10T07:15:09.000Z</time>
      </trkpt>
      <trkpt lat="49.23658" lon="1.04521">
        <ele>113</ele>
        <time>2016-07-10T07:15:10.000Z</time>
      </trkpt>
      <trkpt lat="49.23659" lon="1.04516">
        <ele>111</ele>
        <time>2016-07-10T07:15:11.000Z</time>
      </trkpt>
      <trkpt lat="49.23661" lon="1.04511">
        <ele>109</ele>
        <time>2016-07-10T07:15:12.000Z</time>
      </trkpt>
      <trkpt lat="49.23663" lon="1.04506">
        <ele>107</ele>
        <time>2016-07-10T07:15:13.000Z</time>
      </trkpt>
      <trkpt lat="49.23666" lon="1.04501">
        <ele>105</ele>
        <time>2016-07-10T07:15:14.000Z</time>
      </trkpt>
      <trkpt lat="49.23671" lon="1.04499">
        <ele>101</ele>
        <time>2016-07-10T07:15:15.000Z</time>
      </trkpt>
      <trkpt lat="49.23675" lon="1.04498">
        <ele>99</ele>
        <time>2016-07-10T07:15:16.000Z</time>
      </trkpt>
      <trkpt lat="49.23679" lon="1.04496">
        <ele>99</ele>
        <time>2016-07-10T07:15:17.000Z</time>
      </trkpt>
      <trkpt lat="49.23683" lon="1.04492">
        <ele>98</ele>
        <time>2016-07-10T07:15:18.000Z</time>
      </trkpt>
      <trkpt lat="49.23686" lon="1.04488">
        <ele>97</ele>
        <time>2016-07-10T07:15:19.000Z</time>
      </trkpt>
      <trkpt lat="49.23689" lon="1.04485">
        <ele>95</ele>
        <time>2016-07-10T07:15:20.000Z</time>
      </trkpt>
      <trkpt lat="49.23692" lon="1.04482">
        <ele>94</ele>
        <time>2016-07-10T07:15:21.000Z</time>
      </trkpt>
      <trkpt lat="49.23695" lon="1.04479">
        <ele>93</ele>
        <time>2016-07-10T07:15:22.000Z</time>
      </trkpt>
      <trkpt lat="49.23697" lon="1.04475">
        <ele>94</ele>
        <time>2016-07-10T07:15:23.000Z</time>
      </trkpt>
      <trkpt lat="49.237" lon="1.04472">
        <ele>94</ele>
        <time>2016-07-10T07:15:24.000Z</time>
      </trkpt>
      <trkpt lat="49.23704" lon="1.0447">
        <ele>94</ele>
        <time>2016-07-10T07:15:25.000Z</time>
      </trkpt>
      <trkpt lat="49.23706" lon="1.04468">
        <ele>97</ele>
        <time>2016-07-10T07:15:26.000Z</time>
      </trkpt>
      <trkpt lat="49.23708" lon="1.04467">
        <ele>98</ele>
        <time>2016-07-10T07:15:27.000Z</time>
      </trkpt>
      <trkpt lat="49.23709" lon="1.04465">
        <ele>96</ele>
        <time>2016-07-10T07:15:28.000Z</time>
      </trkpt>
      <trkpt lat="49.23711" lon="1.04463">
        <ele>96</ele>
        <time>2016-07-10T07:15:29.000Z</time>
      </trkpt>
      <trkpt lat="49.23712" lon="1.04461">
        <ele>94</ele>
        <time>2016-07-10T07:15:30.000Z</time>
      </trkpt>
      <trkpt lat="49.23714" lon="1.04459">
        <ele>93</ele>
        <time>2016-07-10T07:15:31.000Z</time>
      </trkpt>
      <trkpt lat="49.23715" lon="1.04456">
        <ele>92</ele>
        <time>2016-07-10T07:15:32.000Z</time>
      </trkpt>
      <trkpt lat="49.23716" lon="1.04454">
        <ele>91</ele>
        <time>2016-07-10T07:15:33.000Z</time>
      </trkpt>
      <trkpt lat="49.23718" lon="1.04451">
        <ele>89</ele>
        <time>2016-07-10T07:15:34.000Z</time>
      </trkpt>
      <trkpt lat="49.23719" lon="1.04448">
        <ele>89</ele>
        <time>2016-07-10T07:15:35.000Z</time>
      </trkpt>
      <trkpt lat="49.23722" lon="1.04444">
        <ele>90</ele>
        <time>2016-07-10T07:15:36.000Z</time>
      </trkpt>
      <trkpt lat="49.23725" lon="1.0444">
        <ele>89</ele>
        <time>2016-07-10T07:15:37.000Z</time>
      </trkpt>
      <trkpt lat="49.23729" lon="1.04435">
        <ele>87</ele>
        <time>2016-07-10T07:15:38.000Z</time>
      </trkpt>
      <trkpt lat="49.23732" lon="1.04431">
        <ele>83</ele>
        <time>2016-07-10T07:15:39.000Z</time>
      </trkpt>
      <trkpt lat="49.23735" lon="1.04428">
        <ele>84</ele>
        <time>2016-07-10T07:15:40.000Z</time>
      </trkpt>
      <trkpt lat="49.23739" lon="1.04424">
        <ele>83</ele>
        <time>2016-07-10T07:15:41.000Z</time>
      </trkpt>
      <trkpt lat="49.23742" lon="1.04419">
        <ele>82</ele>
        <time>2016-07-10T07:15:42.000Z</time>
      </trkpt>
      <trkpt lat="49.23745" lon="1.04415">
        <ele>81</ele>
        <time>2016-07-10T07:15:43.000Z</time>
      </trkpt>
      <trkpt lat="49.23748" lon="1.04411">
        <ele>79</ele>
        <time>2016-07-10T07:15:44.000Z</time>
      </trkpt>
      <trkpt lat="49.23751" lon="1.04406">
        <ele>79</ele>
        <time>2016-07-10T07:15:45.000Z</time>
      </trkpt>
      <trkpt lat="49.23754" lon="1.04402">
        <ele>78</ele>
        <time>2016-07-10T07:15:46.000Z</time>
      </trkpt>
      <trkpt lat="49.23757" lon="1.04399">
        <ele>78</ele>
        <time>2016-07-10T07:15:47.000Z</time>
      </trkpt>
      <trkpt lat="49.23759" lon="1.04396">
        <ele>77</ele>
        <time>2016-07-10T07:15:48.000Z</time>
      </trkpt>
      <trkpt lat="49.23761" lon="1.04392">
        <ele>76</ele>
        <time>2016-07-10T07:15:49.000Z</time>
      </trkpt>
      <trkpt lat="49.23763" lon="1.04389">
        <ele>76</ele>
        <time>2016-07-10T07:15:50.000Z</time>
      </trkpt>
      <trkpt lat="49.23766" lon="1.04384">
        <ele>75</ele>
        <time>2016-07-10T07:15:51.000Z</time>
      </trkpt>
      <trkpt lat="49.2377" lon="1.0438">
        <ele>73</ele>
        <time>2016-07-10T07:15:52.000Z</time>
      </trkpt>
      <trkpt lat="49.23773" lon="1.04375">
        <ele>73</ele>
        <time>2016-07-10T07:15:53.000Z</time>
      </trkpt>
      <trkpt lat="49.23776" lon="1.0437">
        <ele>74</ele>
        <time>2016-07-10T07:15:54.000Z</time>
      </trkpt>
      <trkpt lat="49.23779" lon="1.04367">
        <ele>75</ele>
        <time>2016-07-10T07:15:55.000Z</time>
      </trkpt>
      <trkpt lat="49.23784" lon="1.04364">
        <ele>75</ele>
        <time>2016-07-10T07:15:56.000Z</time>
      </trkpt>
      <trkpt lat="49.23788" lon="1.04362">
        <ele>77</ele>
        <time>2016-07-10T07:15:57.000Z</time>
      </trkpt>
      <trkpt lat="49.2379" lon="1.04359">
        <ele>77</ele>
        <time>2016-07-10T07:15:58.000Z</time>
      </trkpt>
      <trkpt lat="49.23792" lon="1.04357">
        <ele>76</ele>
        <time>2016-07-10T07:15:59.000Z</time>
      </trkpt>
      <trkpt lat="49.23793" lon="1.04355">
        <ele>76</ele>
        <time>2016-07-10T07:16:00.000Z</time>
      </trkpt>
      <trkpt lat="49.23794" lon="1.04353">
        <ele>75</ele>
        <time>2016-07-10T07:16:01.000Z</time>
      </trkpt>
      <trkpt lat="49.23795" lon="1.04351">
        <ele>75</ele>
        <time>2016-07-10T07:16:02.000Z</time>
      </trkpt>
      <trkpt lat="49.23795" lon="1.04349">
        <ele>75</ele>
        <time>2016-07-10T07:16:03.000Z</time>
      </trkpt>
      <trkpt lat="49.23795" lon="1.04346">
        <ele>76</ele>
        <time>2016-07-10T07:16:04.000Z</time>
      </trkpt>
      <trkpt lat="49.23795" lon="1.04343">
        <ele>77</ele>
        <time>2016-07-10T07:16:05.000Z</time>
      </trkpt>
      <trkpt lat="49.23795" lon="1.04339">
        <ele>78</ele>
        <time>2016-07-10T07:16:06.000Z</time>
      </trkpt>
      <trkpt lat="49.23794" lon="1.04335">
        <ele>78</ele>
        <time>2016-07-10T07:16:07.000Z</time>
      </trkpt>
      <trkpt lat="49.23793" lon="1.04331">
        <ele>79</ele>
        <time>2016-07-10T07:16:08.000Z</time>
      </trkpt>
      <trkpt lat="49.23792" lon="1.04326">
        <ele>79</ele>
        <time>2016-07-10T07:16:09.000Z</time>
      </trkpt>
      <trkpt lat="49.23791" lon="1.04321">
        <ele>81</ele>
        <time>2016-07-10T07:16:10.000Z</time>
      </trkpt>
      <trkpt lat="49.2379" lon="1.04316">
        <ele>82</ele>
        <time>2016-07-10T07:16:11.000Z</time>
      </trkpt>
      <trkpt lat="49.23788" lon="1.04311">
        <ele>83</ele>
        <time>2016-07-10T07:16:12.000Z</time>
      </trkpt>
      <trkpt lat="49.23786" lon="1.04306">
        <ele>84</ele>
        <time>2016-07-10T07:16:13.000Z</time>
      </trkpt>
      <trkpt lat="49.23784" lon="1.04303">
        <ele>85</ele>
        <time>2016-07-10T07:16:14.000Z</time>
      </trkpt>
      <trkpt lat="49.23782" lon="1.043">
        <ele>85</ele>
        <time>2016-07-10T07:16:15.000Z</time>
      </trkpt>
      <trkpt lat="49.23779" lon="1.04298">
        <ele>86</ele>
        <time>2016-07-10T07:16:16.000Z</time>
      </trkpt>
      <trkpt lat="49.23776" lon="1.04295">
        <ele>86</ele>
        <time>2016-07-10T07:16:17.000Z</time>
      </trkpt>
      <trkpt lat="49.23774" lon="1.04293">
        <ele>87</ele>
        <time>2016-07-10T07:16:18.000Z</time>
      </trkpt>
      <trkpt lat="49.23772" lon="1.0429">
        <ele>88</ele>
        <time>2016-07-10T07:16:19.000Z</time>
      </trkpt>
      <trkpt lat="49.23769" lon="1.04288">
        <ele>89</ele>
        <time>2016-07-10T07:16:20.000Z</time>
      </trkpt>
      <trkpt lat="49.23766" lon="1.04287">
        <ele>89</ele>
        <time>2016-07-10T07:16:21.000Z</time>
      </trkpt>
      <trkpt lat="49.23763" lon="1.04285">
        <ele>90</ele>
        <time>2016-07-10T07:16:22.000Z</time>
      </trkpt>
      <trkpt lat="49.23759" lon="1.04283">
        <ele>91</ele>
        <time>2016-07-10T07:16:23.000Z</time>
      </trkpt>
      <trkpt lat="49.23756" lon="1.0428">
        <ele>92</ele>
        <time>2016-07-10T07:16:24.000Z</time>
      </trkpt>
      <trkpt lat="49.23753" lon="1.04278">
        <ele>94</ele>
        <time>2016-07-10T07:16:25.000Z</time>
      </trkpt>
      <trkpt lat="49.2375" lon="1.04276">
        <ele>94</ele>
        <time>2016-07-10T07:16:26.000Z</time>
      </trkpt>
      <trkpt lat="49.23748" lon="1.04274">
        <ele>95</ele>
        <time>2016-07-10T07:16:27.000Z</time>
      </trkpt>
      <trkpt lat="49.23745" lon="1.04273">
        <ele>95</ele>
        <time>2016-07-10T07:16:28.000Z</time>
      </trkpt>
      <trkpt lat="49.23742" lon="1.04271">
        <ele>95</ele>
        <time>2016-07-10T07:16:29.000Z</time>
      </trkpt>
      <trkpt lat="49.2374" lon="1.04269">
        <ele>95</ele>
        <time>2016-07-10T07:16:30.000Z</time>
      </trkpt>
      <trkpt lat="49.23738" lon="1.04267">
        <ele>94</ele>
        <time>2016-07-10T07:16:31.000Z</time>
      </trkpt>
      <trkpt lat="49.23736" lon="1.04266">
        <ele>94</ele>
        <time>2016-07-10T07:16:32.000Z</time>
      </trkpt>
      <trkpt lat="49.23735" lon="1.04265">
        <ele>95</ele>
        <time>2016-07-10T07:16:33.000Z</time>
      </trkpt>
      <trkpt lat="49.23733" lon="1.04263">
        <ele>96</ele>
        <time>2016-07-10T07:16:34.000Z</time>
      </trkpt>
      <trkpt lat="49.23732" lon="1.04262">
        <ele>95</ele>
        <time>2016-07-10T07:16:35.000Z</time>
      </trkpt>
      <trkpt lat="49.2373" lon="1.0426">
        <ele>94</ele>
        <time>2016-07-10T07:16:36.000Z</time>
      </trkpt>
      <trkpt lat="49.23729" lon="1.04259">
        <ele>95</ele>
        <time>2016-07-10T07:16:37.000Z</time>
      </trkpt>
      <trkpt lat="49.23728" lon="1.04258">
        <ele>95</ele>
        <time>2016-07-10T07:16:38.000Z</time>
      </trkpt>
      <trkpt lat="49.23727" lon="1.04257">
        <ele>95</ele>
        <time>2016-07-10T07:16:39.000Z</time>
      </trkpt>
      <trkpt lat="49.23726" lon="1.04257">
        <ele>96</ele>
        <time>2016-07-10T07:16:40.000Z</time>
      </trkpt>
      <trkpt lat="49.23725" lon="1.04256">
        <ele>96</ele>
        <time>2016-07-10T07:16:41.000Z</time>
      </trkpt>
      <trkpt lat="49.23724" lon="1.04256">
        <ele>96</ele>
        <time>2016-07-10T07:16:42.000Z</time>
      </trkpt>
      <trkpt lat="49.23723" lon="1.04256">
        <ele>96</ele>
        <time>2016-07-10T07:16:43.000Z</time>
      </trkpt>
      <trkpt lat="49.23722" lon="1.04256">
        <ele>96</ele>
        <time>2016-07-10T07:16:44.000Z</time>
      </trkpt>
      <trkpt lat="49.23721" lon="1.04256">
        <ele>96</ele>
        <time>2016-07-10T07:16:45.000Z</time>
      </trkpt>
      <trkpt lat="49.2372" lon="1.04257">
        <ele>96</ele>
        <time>2016-07-10T07:16:46.000Z</time>
      </trkpt>
      <trkpt lat="49.23718" lon="1.04258">
        <ele>96</ele>
        <time>2016-07-10T07:16:47.000Z</time>
      </trkpt>
      <trkpt lat="49.23717" lon="1.04259">
        <ele>96</ele>
        <time>2016-07-10T07:16:48.000Z</time>
      </trkpt>
      <trkpt lat="49.23715" lon="1.0426">
        <ele>96</ele>
        <time>2016-07-10T07:16:49.000Z</time>
      </trkpt>
      <trkpt lat="49.23713" lon="1.04261">
        <ele>96</ele>
        <time>2016-07-10T07:16:50.000Z</time>
      </trkpt>
      <trkpt lat="49.23711" lon="1.04262">
        <ele>97</ele>
        <time>2016-07-10T07:16:51.000Z</time>
      </trkpt>
      <trkpt lat="49.23708" lon="1.04262">
        <ele>97</ele>
        <time>2016-07-10T07:16:52.000Z</time>
      </trkpt>
      <trkpt lat="49.23705" lon="1.04261">
        <ele>97</ele>
        <time>2016-07-10T07:16:53.000Z</time>
      </trkpt>
      <trkpt lat="49.23702" lon="1.0426">
        <ele>98</ele>
        <time>2016-07-10T07:16:54.000Z</time>
      </trkpt>
      <trkpt lat="49.23699" lon="1.0426">
        <ele>98</ele>
        <time>2016-07-10T07:16:55.000Z</time>
      </trkpt>
      <trkpt lat="49.23697" lon="1.04258">
        <ele>98</ele>
        <time>2016-07-10T07:16:56.000Z</time>
      </trkpt>
      <trkpt lat="49.23696" lon="1.04255">
        <ele>97</ele>
        <time>2016-07-10T07:16:57.000Z</time>
      </trkpt>
      <trkpt lat="49.23695" lon="1.04251">
        <ele>97</ele>
        <time>2016-07-10T07:16:58.000Z</time>
      </trkpt>
      <trkpt lat="49.23695" lon="1.04248">
        <ele>97</ele>
        <time>2016-07-10T07:16:59.000Z</time>
      </trkpt>
      <trkpt lat="49.23695" lon="1.04246">
        <ele>97</ele>
        <time>2016-07-10T07:17:00.000Z</time>
      </trkpt>
      <trkpt lat="49.23694" lon="1.04245">
        <ele>97</ele>
        <time>2016-07-10T07:17:01.000Z</time>
      </trkpt>
      <trkpt lat="49.23693" lon="1.04244">
        <ele>97</ele>
        <time>2016-07-10T07:17:02.000Z</time>
      </trkpt>
      <trkpt lat="49.23691" lon="1.04242">
        <ele>96</ele>
        <time>2016-07-10T07:17:03.000Z</time>
      </trkpt>
      <trkpt lat="49.23689" lon="1.04238">
        <ele>96</ele>
        <time>2016-07-10T07:17:04.000Z</time>
      </trkpt>
      <trkpt lat="49.23686" lon="1.04233">
        <ele>96</ele>
        <time>2016-07-10T07:17:05.000Z</time>
      </trkpt>
      <trkpt lat="49.23684" lon="1.04228">
        <ele>95</ele>
        <time>2016-07-10T07:17:06.000Z</time>
      </trkpt>
      <trkpt lat="49.23681" lon="1.04221">
        <ele>96</ele>
        <time>2016-07-10T07:17:07.000Z</time>
      </trkpt>
      <trkpt lat="49.23679" lon="1.04214">
        <ele>96</ele>
        <time>2016-07-10T07:17:08.000Z</time>
      </trkpt>
      <trkpt lat="49.23677" lon="1.04208">
        <ele>96</ele>
        <time>2016-07-10T07:17:09.000Z</time>
      </trkpt>
      <trkpt lat="49.23675" lon="1.04202">
        <ele>95</ele>
        <time>2016-07-10T07:17:10.000Z</time>
      </trkpt>
      <trkpt lat="49.23673" lon="1.04198">
        <ele>96</ele>
        <time>2016-07-10T07:17:11.000Z</time>
      </trkpt>
      <trkpt lat="49.23671" lon="1.04193">
        <ele>95</ele>
        <time>2016-07-10T07:17:12.000Z</time>
      </trkpt>
      <trkpt lat="49.23669" lon="1.04189">
        <ele>95</ele>
        <time>2016-07-10T07:17:13.000Z</time>
      </trkpt>
      <trkpt lat="49.23666" lon="1.04184">
        <ele>95</ele>
        <time>2016-07-10T07:17:14.000Z</time>
      </trkpt>
      <trkpt lat="49.23663" lon="1.04179">
        <ele>95</ele>
        <time>2016-07-10T07:17:15.000Z</time>
      </trkpt>
      <trkpt lat="49.23661" lon="1.04174">
        <ele>94</ele>
        <time>2016-07-10T07:17:16.000Z</time>
      </trkpt>
      <trkpt lat="49.23658" lon="1.04169">
        <ele>95</ele>
        <time>2016-07-10T07:17:17.000Z</time>
      </trkpt>
      <trkpt lat="49.23656" lon="1.04164">
        <ele>95</ele>
        <time>2016-07-10T07:17:18.000Z</time>
      </trkpt>
      <trkpt lat="49.23654" lon="1.0416">
        <ele>95</ele>
        <time>2016-07-10T07:17:19.000Z</time>
      </trkpt>
      <trkpt lat="49.23652" lon="1.04157">
        <ele>95</ele>
        <time>2016-07-10T07:17:20.000Z</time>
      </trkpt>
      <trkpt lat="49.23651" lon="1.04155">
        <ele>95</ele>
        <time>2016-07-10T07:17:21.000Z</time>
      </trkpt>
      <trkpt lat="49.2365" lon="1.04152">
        <ele>96</ele>
        <time>2016-07-10T07:17:22.000Z</time>
      </trkpt>
      <trkpt lat="49.23648" lon="1.04148">
        <ele>96</ele>
        <time>2016-07-10T07:17:23.000Z</time>
      </trkpt>
      <trkpt lat="49.23646" lon="1.04144">
        <ele>97</ele>
        <time>2016-07-10T07:17:24.000Z</time>
      </trkpt>
      <trkpt lat="49.23645" lon="1.0414">
        <ele>97</ele>
        <time>2016-07-10T07:17:25.000Z</time>
      </trkpt>
      <trkpt lat="49.23643" lon="1.04136">
        <ele>98</ele>
        <time>2016-07-10T07:17:26.000Z</time>
      </trkpt>
      <trkpt lat="49.2364" lon="1.04131">
        <ele>98</ele>
        <time>2016-07-10T07:17:27.000Z</time>
      </trkpt>
      <trkpt lat="49.23638" lon="1.04126">
        <ele>99</ele>
        <time>2016-07-10T07:17:28.000Z</time>
      </trkpt>
      <trkpt lat="49.23636" lon="1.04121">
        <ele>99</ele>
        <time>2016-07-10T07:17:29.000Z</time>
      </trkpt>
      <trkpt lat="49.23635" lon="1.04116">
        <ele>99</ele>
        <time>2016-07-10T07:17:30.000Z</time>
      </trkpt>
      <trkpt lat="49.23634" lon="1.04112">
        <ele>99</ele>
        <time>2016-07-10T07:17:31.000Z</time>
      </trkpt>
      <trkpt lat="49.23633" lon="1.04106">
        <ele>99</ele>
        <time>2016-07-10T07:17:32.000Z</time>
      </trkpt>
      <trkpt lat="49.23632" lon="1.041">
        <ele>99</ele>
        <time>2016-07-10T07:17:33.000Z</time>
      </trkpt>
      <trkpt lat="49.23631" lon="1.04094">
        <ele>99</ele>
        <time>2016-07-10T07:17:34.000Z</time>
      </trkpt>
      <trkpt lat="49.23629" lon="1.04088">
        <ele>99</ele>
        <time>2016-07-10T07:17:35.000Z</time>
      </trkpt>
      <trkpt lat="49.23628" lon="1.04082">
        <ele>99</ele>
        <time>2016-07-10T07:17:36.000Z</time>
      </trkpt>
      <trkpt lat="49.23627" lon="1.04076">
        <ele>98</ele>
        <time>2016-07-10T07:17:37.000Z</time>
      </trkpt>
      <trkpt lat="49.23626" lon="1.04071">
        <ele>97</ele>
        <time>2016-07-10T07:17:38.000Z</time>
      </trkpt>
      <trkpt lat="49.23626" lon="1.04065">
        <ele>97</ele>
        <time>2016-07-10T07:17:39.000Z</time>
      </trkpt>
      <trkpt lat="49.23625" lon="1.04059">
        <ele>97</ele>
        <time>2016-07-10T07:17:40.000Z</time>
      </trkpt>
      <trkpt lat="49.23624" lon="1.04053">
        <ele>97</ele>
        <time>2016-07-10T07:17:41.000Z</time>
      </trkpt>
      <trkpt lat="49.23624" lon="1.04046">
        <ele>96</ele>
        <time>2016-07-10T07:17:42.000Z</time>
      </trkpt>
      <trkpt lat="49.23624" lon="1.04039">
        <ele>95</ele>
        <time>2016-07-10T07:17:43.000Z</time>
      </trkpt>
      <trkpt lat="49.23624" lon="1.04033">
        <ele>96</ele>
        <time>2016-07-10T07:17:44.000Z</time>
      </trkpt>
      <trkpt lat="49.23625" lon="1.04026">
        <ele>96</ele>
        <time>2016-07-10T07:17:45.000Z</time>
      </trkpt>
      <trkpt lat="49.23625" lon="1.04019">
        <ele>96</ele>
        <time>2016-07-10T07:17:46.000Z</time>
      </trkpt>
      <trkpt lat="49.23625" lon="1.04012">
        <ele>96</ele>
        <time>2016-07-10T07:17:47.000Z</time>
      </trkpt>
      <trkpt lat="49.23625" lon="1.04004">
        <ele>96</ele>
        <time>2016-07-10T07:17:48.000Z</time>
      </trkpt>
      <trkpt lat="49.23626" lon="1.03997">
        <ele>96</ele>
        <time>2016-07-10T07:17:49.000Z</time>
      </trkpt>
      <trkpt lat="49.23627" lon="1.03989">
        <ele>96</ele>
        <time>2016-07-10T07:17:50.000Z</time>
      </trkpt>
      <trkpt lat="49.23629" lon="1.03982">
        <ele>97</ele>
        <time>2016-07-10T07:17:51.000Z</time>
      </trkpt>
      <trkpt lat="49.2363" lon="1.03975">
        <ele>97</ele>
        <time>2016-07-10T07:17:52.000Z</time>
      </trkpt>
      <trkpt lat="49.23631" lon="1.03968">
        <ele>98</ele>
        <time>2016-07-10T07:17:53.000Z</time>
      </trkpt>
      <trkpt lat="49.23633" lon="1.0396">
        <ele>98</ele>
        <time>2016-07-10T07:17:54.000Z</time>
      </trkpt>
      <trkpt lat="49.23634" lon="1.03952">
        <ele>99</ele>
        <time>2016-07-10T07:17:55.000Z</time>
      </trkpt>
      <trkpt lat="49.23636" lon="1.03945">
        <ele>99</ele>
        <time>2016-07-10T07:17:56.000Z</time>
      </trkpt>
      <trkpt lat="49.23637" lon="1.03938">
        <ele>99</ele>
        <time>2016-07-10T07:17:57.000Z</time>
      </trkpt>
      <trkpt lat="49.23638" lon="1.03931">
        <ele>99</ele>
        <time>2016-07-10T07:17:58.000Z</time>
      </trkpt>
      <trkpt lat="49.23638" lon="1.03925">
        <ele>99</ele>
        <time>2016-07-10T07:17:59.000Z</time>
      </trkpt>
      <trkpt lat="49.23639" lon="1.03919">
        <ele>99</ele>
        <time>2016-07-10T07:18:00.000Z</time>
      </trkpt>
      <trkpt lat="49.2364" lon="1.03914">
        <ele>99</ele>
        <time>2016-07-10T07:18:01.000Z</time>
      </trkpt>
      <trkpt lat="49.23641" lon="1.03908">
        <ele>99</ele>
        <time>2016-07-10T07:18:02.000Z</time>
      </trkpt>
      <trkpt lat="49.23642" lon="1.03903">
        <ele>99</ele>
        <time>2016-07-10T07:18:03.000Z</time>
      </trkpt>
      <trkpt lat="49.23644" lon="1.03898">
        <ele>98</ele>
        <time>2016-07-10T07:18:04.000Z</time>
      </trkpt>
      <trkpt lat="49.23645" lon="1.03891">
        <ele>98</ele>
        <time>2016-07-10T07:18:05.000Z</time>
      </trkpt>
      <trkpt lat="49.23646" lon="1.03885">
        <ele>98</ele>
        <time>2016-07-10T07:18:06.000Z</time>
      </trkpt>
      <trkpt lat="49.23647" lon="1.03878">
        <ele>97</ele>
        <time>2016-07-10T07:18:07.000Z</time>
      </trkpt>
      <trkpt lat="49.23647" lon="1.03871">
        <ele>96</ele>
        <time>2016-07-10T07:18:08.000Z</time>
      </trkpt>
      <trkpt lat="49.23648" lon="1.03865">
        <ele>95</ele>
        <time>2016-07-10T07:18:09.000Z</time>
      </trkpt>
      <trkpt lat="49.23648" lon="1.03858">
        <ele>95</ele>
        <time>2016-07-10T07:18:10.000Z</time>
      </trkpt>
      <trkpt lat="49.23648" lon="1.03852">
        <ele>95</ele>
        <time>2016-07-10T07:18:11.000Z</time>
      </trkpt>
      <trkpt lat="49.23648" lon="1.03846">
        <ele>95</ele>
        <time>2016-07-10T07:18:12.000Z</time>
      </trkpt>
      <trkpt lat="49.23648" lon="1.0384">
        <ele>95</ele>
        <time>2016-07-10T07:18:13.000Z</time>
      </trkpt>
      <trkpt lat="49.23648" lon="1.03833">
        <ele>95</ele>
        <time>2016-07-10T07:18:14.000Z</time>
      </trkpt>
      <trkpt lat="49.23648" lon="1.03827">
        <ele>95</ele>
        <time>2016-07-10T07:18:15.000Z</time>
      </trkpt>
      <trkpt lat="49.23648" lon="1.03821">
        <ele>95</ele>
        <time>2016-07-10T07:18:16.000Z</time>
      </trkpt>
      <trkpt lat="49.23648" lon="1.03815">
        <ele>95</ele>
        <time>2016-07-10T07:18:17.000Z</time>
      </trkpt>
      <trkpt lat="49.23648" lon="1.03809">
        <ele>96</ele>
        <time>2016-07-10T07:18:18.000Z</time>
      </trkpt>
      <trkpt lat="49.23648" lon="1.03803">
        <ele>96</ele>
        <time>2016-07-10T07:18:19.000Z</time>
      </trkpt>
      <trkpt lat="49.23648" lon="1.03797">
        <ele>97</ele>
        <time>2016-07-10T07:18:20.000Z</time>
      </trkpt>
      <trkpt lat="49.23649" lon="1.0379">
        <ele>98</ele>
        <time>2016-07-10T07:18:21.000Z</time>
      </trkpt>
      <trkpt lat="49.23649" lon="1.03783">
        <ele>98</ele>
        <time>2016-07-10T07:18:22.000Z</time>
      </trkpt>
      <trkpt lat="49.23649" lon="1.03777">
        <ele>99</ele>
        <time>2016-07-10T07:18:23.000Z</time>
      </trkpt>
      <trkpt lat="49.23649" lon="1.03771">
        <ele>100</ele>
        <time>2016-07-10T07:18:24.000Z</time>
      </trkpt>
      <trkpt lat="49.23649" lon="1.03765">
        <ele>100</ele>
        <time>2016-07-10T07:18:25.000Z</time>
      </trkpt>
      <trkpt lat="49.23648" lon="1.03759">
        <ele>100</ele>
        <time>2016-07-10T07:18:26.000Z</time>
      </trkpt>
      <trkpt lat="49.23648" lon="1.03754">
        <ele>101</ele>
        <time>2016-07-10T07:18:27.000Z</time>
      </trkpt>
      <trkpt lat="49.23648" lon="1.03748">
        <ele>101</ele>
        <time>2016-07-10T07:18:28.000Z</time>
      </trkpt>
      <trkpt lat="49.23648" lon="1.03744">
        <ele>102</ele>
        <time>2016-07-10T07:18:29.000Z</time>
      </trkpt>
      <trkpt lat="49.23648" lon="1.0374">
        <ele>102</ele>
        <time>2016-07-10T07:18:30.000Z</time>
      </trkpt>
      <trkpt lat="49.23648" lon="1.03736">
        <ele>102</ele>
        <time>2016-07-10T07:18:31.000Z</time>
      </trkpt>
      <trkpt lat="49.23648" lon="1.03733">
        <ele>102</ele>
        <time>2016-07-10T07:18:32.000Z</time>
      </trkpt>
      <trkpt lat="49.23648" lon="1.03731">
        <ele>103</ele>
        <time>2016-07-10T07:18:33.000Z</time>
      </trkpt>
      <trkpt lat="49.23648" lon="1.03728">
        <ele>103</ele>
        <time>2016-07-10T07:18:34.000Z</time>
      </trkpt>
      <trkpt lat="49.23648" lon="1.03726">
        <ele>103</ele>
        <time>2016-07-10T07:18:35.000Z</time>
      </trkpt>
      <trkpt lat="49.23648" lon="1.03724">
        <ele>103</ele>
        <time>2016-07-10T07:18:36.000Z</time>
      </trkpt>
      <trkpt lat="49.23648" lon="1.03722">
        <ele>103</ele>
        <time>2016-07-10T07:18:37.000Z</time>
      </trkpt>
      <trkpt lat="49.23649" lon="1.0372">
        <ele>103</ele>
        <time>2016-07-10T07:18:38.000Z</time>
      </trkpt>
      <trkpt lat="49.2365" lon="1.03718">
        <ele>103</ele>
        <time>2016-07-10T07:18:39.000Z</time>
      </trkpt>
      <trkpt lat="49.23652" lon="1.03718">
        <ele>103</ele>
        <time>2016-07-10T07:18:40.000Z</time>
      </trkpt>
      <trkpt lat="49.23653" lon="1.0372">
        <ele>103</ele>
        <time>2016-07-10T07:18:41.000Z</time>
      </trkpt>
      <trkpt lat="49.23654" lon="1.03722">
        <ele>104</ele>
        <time>2016-07-10T07:18:42.000Z</time>
      </trkpt>
      <trkpt lat="49.23655" lon="1.03725">
        <ele>104</ele>
        <time>2016-07-10T07:18:43.000Z</time>
      </trkpt>
      <trkpt lat="49.23656" lon="1.03729">
        <ele>104</ele>
        <time>2016-07-10T07:18:44.000Z</time>
      </trkpt>
      <trkpt lat="49.23657" lon="1.03732">
        <ele>104</ele>
        <time>2016-07-10T07:18:45.000Z</time>
      </trkpt>
      <trkpt lat="49.23658" lon="1.03736">
        <ele>105</ele>
        <time>2016-07-10T07:18:46.000Z</time>
      </trkpt>
      <trkpt lat="49.23659" lon="1.03739">
        <ele>105</ele>
        <time>2016-07-10T07:18:47.000Z</time>
      </trkpt>
      <trkpt lat="49.23659" lon="1.03743">
        <ele>105</ele>
        <time>2016-07-10T07:18:48.000Z</time>
      </trkpt>
      <trkpt lat="49.2366" lon="1.03746">
        <ele>106</ele>
        <time>2016-07-10T07:18:49.000Z</time>
      </trkpt>
      <trkpt lat="49.23661" lon="1.0375">
        <ele>106</ele>
        <time>2016-07-10T07:18:50.000Z</time>
      </trkpt>
      <trkpt lat="49.23662" lon="1.03753">
        <ele>106</ele>
        <time>2016-07-10T07:18:51.000Z</time>
      </trkpt>
      <trkpt lat="49.23662" lon="1.03757">
        <ele>106</ele>
        <time>2016-07-10T07:18:52.000Z</time>
      </trkpt>
      <trkpt lat="49.23663" lon="1.03761">
        <ele>107</ele>
        <time>2016-07-10T07:18:53.000Z</time>
      </trkpt>
      <trkpt lat="49.23663" lon="1.03765">
        <ele>107</ele>
        <time>2016-07-10T07:18:54.000Z</time>
      </trkpt>
      <trkpt lat="49.23664" lon="1.03769">
        <ele>107</ele>
        <time>2016-07-10T07:18:55.000Z</time>
      </trkpt>
      <trkpt lat="49.23664" lon="1.03773">
        <ele>107</ele>
        <time>2016-07-10T07:18:56.000Z</time>
      </trkpt>
      <trkpt lat="49.23665" lon="1.03777">
        <ele>107</ele>
        <time>2016-07-10T07:18:57.000Z</time>
      </trkpt>
      <trkpt lat="49.23665" lon="1.03782">
        <ele>107</ele>
        <time>2016-07-10T07:18:58.000Z</time>
      </trkpt>
      <trkpt lat="49.23665" lon="1.03786">
        <ele>108</ele>
        <time>2016-07-10T07:18:59.000Z</time>
      </trkpt>
      <trkpt lat="49.23665" lon="1.03791">
        <ele>108</ele>
        <time>2016-07-10T07:19:00.000Z</time>
      </trkpt>
      <trkpt lat="49.23666" lon="1.03796">
        <ele>108</ele>
        <time>2016-07-10T07:19:01.000Z</time>
      </trkpt>
      <trkpt lat="49.23666" lon="1.038">
        <ele>108</ele>
        <time>2016-07-10T07:19:02.000Z</time>
      </trkpt>
      <trkpt lat="49.23666" lon="1.03805">
        <ele>108</ele>
        <time>2016-07-10T07:19:03.000Z</time>
      </trkpt>
      <trkpt lat="49.23666" lon="1.0381">
        <ele>108</ele>
        <time>2016-07-10T07:19:04.000Z</time>
      </trkpt>
      <trkpt lat="49.23667" lon="1.03815">
        <ele>107</ele>
        <time>2016-07-10T07:19:05.000Z</time>
      </trkpt>
      <trkpt lat="49.23667" lon="1.0382">
        <ele>107</ele>
        <time>2016-07-10T07:19:06.000Z</time>
      </trkpt>
      <trkpt lat="49.23667" lon="1.03825">
        <ele>107</ele>
        <time>2016-07-10T07:19:07.000Z</time>
      </trkpt>
      <trkpt lat="49.23668" lon="1.0383">
        <ele>107</ele>
        <time>2016-07-10T07:19:08.000Z</time>
      </trkpt>
      <trkpt lat="49.23668" lon="1.03835">
        <ele>107</ele>
        <time>2016-07-10T07:19:09.000Z</time>
      </trkpt>
      <trkpt lat="49.23668" lon="1.0384">
        <ele>108</ele>
        <time>2016-07-10T07:19:10.000Z</time>
      </trkpt>
      <trkpt lat="49.23668" lon="1.03844">
        <ele>108</ele>
        <time>2016-07-10T07:19:11.000Z</time>
      </trkpt>
      <trkpt lat="49.23669" lon="1.03849">
        <ele>108</ele>
        <time>2016-07-10T07:19:12.000Z</time>
      </trkpt>
      <trkpt lat="49.23669" lon="1.03854">
        <ele>108</ele>
        <time>2016-07-10T07:19:13.000Z</time>
      </trkpt>
      <trkpt lat="49.23669" lon="1.03859">
        <ele>109</ele>
        <time>2016-07-10T07:19:14.000Z</time>
      </trkpt>
      <trkpt lat="49.23669" lon="1.03863">
        <ele>109</ele>
        <time>2016-07-10T07:19:15.000Z</time>
      </trkpt>
      <trkpt lat="49.23669" lon="1.03868">
        <ele>109</ele>
        <time>2016-07-10T07:19:16.000Z</time>
      </trkpt>
      <trkpt lat="49.2367" lon="1.03872">
        <ele>109</ele>
        <time>2016-07-10T07:19:17.000Z</time>
      </trkpt>
      <trkpt lat="49.23671" lon="1.03876">
        <ele>109</ele>
        <time>2016-07-10T07:19:18.000Z</time>
      </trkpt>
      <trkpt lat="49.23672" lon="1.0388">
        <ele>109</ele>
        <time>2016-07-10T07:19:19.000Z</time>
      </trkpt>
      <trkpt lat="49.23674" lon="1.03884">
        <ele>109</ele>
        <time>2016-07-10T07:19:20.000Z</time>
      </trkpt>
      <trkpt lat="49.23676" lon="1.03887">
        <ele>110</ele>
        <time>2016-07-10T07:19:21.000Z</time>
      </trkpt>
      <trkpt lat="49.23678" lon="1.03889">
        <ele>110</ele>
        <time>2016-07-10T07:19:22.000Z</time>
      </trkpt>
      <trkpt lat="49.23681" lon="1.03891">
        <ele>110</ele>
        <time>2016-07-10T07:19:23.000Z</time>
      </trkpt>
      <trkpt lat="49.23684" lon="1.03892">
        <ele>110</ele>
        <time>2016-07-10T07:19:24.000Z</time>
      </trkpt>
      <trkpt lat="49.23687" lon="1.03893">
        <ele>110</ele>
        <time>2016-07-10T07:19:25.000Z</time>
      </trkpt>
      <trkpt lat="49.2369" lon="1.03893">
        <ele>111</ele>
        <time>2016-07-10T07:19:26.000Z</time>
      </trkpt>
      <trkpt lat="49.23692" lon="1.03892">
        <ele>111</ele>
        <time>2016-07-10T07:19:27.000Z</time>
      </trkpt>
      <trkpt lat="49.23695" lon="1.03891">
        <ele>112</ele>
        <time>2016-07-10T07:19:28.000Z</time>
      </trkpt>
      <trkpt lat="49.23698" lon="1.03889">
        <ele>112</ele>
        <time>2016-07-10T07:19:29.000Z</time>
      </trkpt>
      <trkpt lat="49.237" lon="1.03886">
        <ele>112</ele>
        <time>2016-07-10T07:19:30.000Z</time>
      </trkpt>
      <trkpt lat="49.23702" lon="1.03883">
        <ele>113</ele>
        <time>2016-07-10T07:19:31.000Z</time>
      </trkpt>
      <trkpt lat="49.23704" lon="1.03879">
        <ele>114</ele>
        <time>2016-07-10T07:19:32.000Z</time>
      </trkpt>
      <trkpt lat="49.23705" lon="1.03874">
        <ele>113</ele>
        <time>2016-07-10T07:19:33.000Z</time>
      </trkpt>
      <trkpt lat="49.23706" lon="1.03869">
        <ele>113</ele>
        <time>2016-07-10T07:19:34.000Z</time>
      </trkpt>
      <trkpt lat="49.23706" lon="1.03864">
        <ele>114</ele>
        <time>2016-07-10T07:19:35.000Z</time>
      </trkpt>
      <trkpt lat="49.23705" lon="1.03858">
        <ele>114</ele>
        <time>2016-07-10T07:19:36.000Z</time>
      </trkpt>
      <trkpt lat="49.23705" lon="1.03854">
        <ele>114</ele>
        <time>2016-07-10T07:19:37.000Z</time>
      </trkpt>
      <trkpt lat="49.23704" lon="1.03849">
        <ele>114</ele>
        <time>2016-07-10T07:19:38.000Z</time>
      </trkpt>
      <trkpt lat="49.23703" lon="1.03845">
        <ele>114</ele>
        <time>2016-07-10T07:19:39.000Z</time>
      </trkpt>
      <trkpt lat="49.23702" lon="1.03842">
        <ele>114</ele>
        <time>2016-07-10T07:19:40.000Z</time>
      </trkpt>
      <trkpt lat="49.23702" lon="1.03838">
        <ele>114</ele>
        <time>2016-07-10T07:19:41.000Z</time>
      </trkpt>
      <trkpt lat="49.23701" lon="1.03835">
        <ele>114</ele>
        <time>2016-07-10T07:19:42.000Z</time>
      </trkpt>
      <trkpt lat="49.237" lon="1.03831">
        <ele>114</ele>
        <time>2016-07-10T07:19:43.000Z</time>
      </trkpt>
      <trkpt lat="49.237" lon="1.03827">
        <ele>114</ele>
        <time>2016-07-10T07:19:44.000Z</time>
      </trkpt>
      <trkpt lat="49.23699" lon="1.03822">
        <ele>114</ele>
        <time>2016-07-10T07:19:45.000Z</time>
      </trkpt>
      <trkpt lat="49.23699" lon="1.03818">
        <ele>114</ele>
        <time>2016-07-10T07:19:46.000Z</time>
      </trkpt>
      <trkpt lat="49.23699" lon="1.03814">
        <ele>114</ele>
        <time>2016-07-10T07:19:47.000Z</time>
      </trkpt>
      <trkpt lat="49.23698" lon="1.03809">
        <ele>114</ele>
        <time>2016-07-10T07:19:48.000Z</time>
      </trkpt>
      <trkpt lat="49.23698" lon="1.03805">
        <ele>114</ele>
        <time>2016-07-10T07:19:49.000Z</time>
      </trkpt>
      <trkpt lat="49.23698" lon="1.03801">
        <ele>114</ele>
        <time>2016-07-10T07:19:50.000Z</time>
      </trkpt>
      <trkpt lat="49.23697" lon="1.03797">
        <ele>114</ele>
        <time>2016-07-10T07:19:51.000Z</time>
      </trkpt>
      <trkpt lat="49.23697" lon="1.03793">
        <ele>114</ele>
        <time>2016-07-10T07:19:52.000Z</time>
      </trkpt>
      <trkpt lat="49.23697" lon="1.03789">
        <ele>114</ele>
        <time>2016-07-10T07:19:53.000Z</time>
      </trkpt>
      <trkpt lat="49.23696" lon="1.03784">
        <ele>114</ele>
        <time>2016-07-10T07:19:54.000Z</time>
      </trkpt>
      <trkpt lat="49.23696" lon="1.03778">
        <ele>114</ele>
        <time>2016-07-10T07:19:55.000Z</time>
      </trkpt>
      <trkpt lat="49.23696" lon="1.03773">
        <ele>113</ele>
        <time>2016-07-10T07:19:56.000Z</time>
      </trkpt>
      <trkpt lat="49.23696" lon="1.03768">
        <ele>113</ele>
        <time>2016-07-10T07:19:57.000Z</time>
      </trkpt>
      <trkpt lat="49.23696" lon="1.03762">
        <ele>113</ele>
        <time>2016-07-10T07:19:58.000Z</time>
      </trkpt>
      <trkpt lat="49.23696" lon="1.03756">
        <ele>113</ele>
        <time>2016-07-10T07:19:59.000Z</time>
      </trkpt>
      <trkpt lat="49.23696" lon="1.0375">
        <ele>114</ele>
        <time>2016-07-10T07:20:00.000Z</time>
      </trkpt>
      <trkpt lat="49.23696" lon="1.03744">
        <ele>114</ele>
        <time>2016-07-10T07:20:01.000Z</time>
      </trkpt>
      <trkpt lat="49.23697" lon="1.03738">
        <ele>114</ele>
        <time>2016-07-10T07:20:02.000Z</time>
      </trkpt>
      <trkpt lat="49.23697" lon="1.03732">
        <ele>114</ele>
        <time>2016-07-10T07:20:03.000Z</time>
      </trkpt>
      <trkpt lat="49.23698" lon="1.03727">
        <ele>114</ele>
        <time>2016-07-10T07:20:04.000Z</time>
      </trkpt>
      <trkpt lat="49.23698" lon="1.03721">
        <ele>114</ele>
        <time>2016-07-10T07:20:05.000Z</time>
      </trkpt>
      <trkpt lat="49.23699" lon="1.03715">
        <ele>114</ele>
        <time>2016-07-10T07:20:06.000Z</time>
      </trkpt>
      <trkpt lat="49.237" lon="1.0371">
        <ele>115</ele>
        <time>2016-07-10T07:20:07.000Z</time>
      </trkpt>
      <trkpt lat="49.23701" lon="1.03704">
        <ele>115</ele>
        <time>2016-07-10T07:20:08.000Z</time>
      </trkpt>
      <trkpt lat="49.23702" lon="1.03699">
        <ele>115</ele>
        <time>2016-07-10T07:20:09.000Z</time>
      </trkpt>
      <trkpt lat="49.23703" lon="1.03693">
        <ele>116</ele>
        <time>2016-07-10T07:20:10.000Z</time>
      </trkpt>
      <trkpt lat="49.23703" lon="1.03688">
        <ele>116</ele>
        <time>2016-07-10T07:20:11.000Z</time>
      </trkpt>
      <trkpt lat="49.23704" lon="1.03682">
        <ele>117</ele>
        <time>2016-07-10T07:20:12.000Z</time>
      </trkpt>
      <trkpt lat="49.23705" lon="1.03677">
        <ele>117</ele>
        <time>2016-07-10T07:20:13.000Z</time>
      </trkpt>
      <trkpt lat="49.23706" lon="1.03672">
        <ele>118</ele>
        <time>2016-07-10T07:20:14.000Z</time>
      </trkpt>
      <trkpt lat="49.23707" lon="1.03667">
        <ele>118</ele>
        <time>2016-07-10T07:20:15.000Z</time>
      </trkpt>
      <trkpt lat="49.23708" lon="1.03662">
        <ele>119</ele>
        <time>2016-07-10T07:20:16.000Z</time>
      </trkpt>
      <trkpt lat="49.23709" lon="1.03657">
        <ele>119</ele>
        <time>2016-07-10T07:20:17.000Z</time>
      </trkpt>
      <trkpt lat="49.23712" lon="1.03652">
        <ele>120</ele>
        <time>2016-07-10T07:20:18.000Z</time>
      </trkpt>
      <trkpt lat="49.23715" lon="1.03648">
        <ele>122</ele>
        <time>2016-07-10T07:20:19.000Z</time>
      </trkpt>
      <trkpt lat="49.23719" lon="1.03647">
        <ele>122</ele>
        <time>2016-07-10T07:20:20.000Z</time>
      </trkpt>
      <trkpt lat="49.23723" lon="1.03648">
        <ele>122</ele>
        <time>2016-07-10T07:20:21.000Z</time>
      </trkpt>
      <trkpt lat="49.23728" lon="1.03651">
        <ele>123</ele>
        <time>2016-07-10T07:20:22.000Z</time>
      </trkpt>
      <trkpt lat="49.23731" lon="1.03655">
        <ele>123</ele>
        <time>2016-07-10T07:20:23.000Z</time>
      </trkpt>
      <trkpt lat="49.23733" lon="1.03659">
        <ele>124</ele>
        <time>2016-07-10T07:20:24.000Z</time>
      </trkpt>
      <trkpt lat="49.23735" lon="1.03664">
        <ele>124</ele>
        <time>2016-07-10T07:20:25.000Z</time>
      </trkpt>
      <trkpt lat="49.23737" lon="1.03668">
        <ele>125</ele>
        <time>2016-07-10T07:20:26.000Z</time>
      </trkpt>
      <trkpt lat="49.23738" lon="1.03672">
        <ele>125</ele>
        <time>2016-07-10T07:20:27.000Z</time>
      </trkpt>
      <trkpt lat="49.2374" lon="1.03676">
        <ele>125</ele>
        <time>2016-07-10T07:20:28.000Z</time>
      </trkpt>
      <trkpt lat="49.23742" lon="1.0368">
        <ele>126</ele>
        <time>2016-07-10T07:20:29.000Z</time>
      </trkpt>
      <trkpt lat="49.23743" lon="1.03684">
        <ele>126</ele>
        <time>2016-07-10T07:20:30.000Z</time>
      </trkpt>
      <trkpt lat="49.23745" lon="1.03687">
        <ele>126</ele>
        <time>2016-07-10T07:20:31.000Z</time>
      </trkpt>
      <trkpt lat="49.23746" lon="1.03691">
        <ele>127</ele>
        <time>2016-07-10T07:20:32.000Z</time>
      </trkpt>
      <trkpt lat="49.23747" lon="1.03695">
        <ele>127</ele>
        <time>2016-07-10T07:20:33.000Z</time>
      </trkpt>
      <trkpt lat="49.23749" lon="1.03699">
        <ele>127</ele>
        <time>2016-07-10T07:20:34.000Z</time>
      </trkpt>
      <trkpt lat="49.23751" lon="1.03703">
        <ele>127</ele>
        <time>2016-07-10T07:20:35.000Z</time>
      </trkpt>
      <trkpt lat="49.23752" lon="1.03706">
        <ele>127</ele>
        <time>2016-07-10T07:20:36.000Z</time>
      </trkpt>
      <trkpt lat="49.23753" lon="1.0371">
        <ele>127</ele>
        <time>2016-07-10T07:20:37.000Z</time>
      </trkpt>
      <trkpt lat="49.23755" lon="1.03714">
        <ele>127</ele>
        <time>2016-07-10T07:20:38.000Z</time>
      </trkpt>
      <trkpt lat="49.23756" lon="1.03717">
        <ele>127</ele>
        <time>2016-07-10T07:20:39.000Z</time>
      </trkpt>
      <trkpt lat="49.23758" lon="1.03721">
        <ele>127</ele>
        <time>2016-07-10T07:20:40.000Z</time>
      </trkpt>
      <trkpt lat="49.23759" lon="1.03724">
        <ele>127</ele>
        <time>2016-07-10T07:20:41.000Z</time>
      </trkpt>
      <trkpt lat="49.2376" lon="1.03725">
        <ele>127</ele>
        <time>2016-07-10T07:20:42.000Z</time>
      </trkpt>
      <trkpt lat="49.23762" lon="1.03725">
        <ele>126</ele>
        <time>2016-07-10T07:20:43.000Z</time>
      </trkpt>
      <trkpt lat="49.23762" lon="1.03722">
        <ele>126</ele>
        <time>2016-07-10T07:20:44.000Z</time>
      </trkpt>
      <trkpt lat="49.23762" lon="1.03718">
        <ele>126</ele>
        <time>2016-07-10T07:20:45.000Z</time>
      </trkpt>
      <trkpt lat="49.23761" lon="1.03713">
        <ele>126</ele>
        <time>2016-07-10T07:20:46.000Z</time>
      </trkpt>
      <trkpt lat="49.23761" lon="1.03708">
        <ele>126</ele>
        <time>2016-07-10T07:20:47.000Z</time>
      </trkpt>
      <trkpt lat="49.23762" lon="1.03703">
        <ele>126</ele>
        <time>2016-07-10T07:20:48.000Z</time>
      </trkpt>
      <trkpt lat="49.23762" lon="1.03698">
        <ele>126</ele>
        <time>2016-07-10T07:20:49.000Z</time>
      </trkpt>
      <trkpt lat="49.23762" lon="1.03693">
        <ele>126</ele>
        <time>2016-07-10T07:20:50.000Z</time>
      </trkpt>
      <trkpt lat="49.23763" lon="1.03689">
        <ele>126</ele>
        <time>2016-07-10T07:20:51.000Z</time>
      </trkpt>
      <trkpt lat="49.23764" lon="1.03685">
        <ele>127</ele>
        <time>2016-07-10T07:20:52.000Z</time>
      </trkpt>
      <trkpt lat="49.23766" lon="1.03681">
        <ele>127</ele>
        <time>2016-07-10T07:20:53.000Z</time>
      </trkpt>
      <trkpt lat="49.23767" lon="1.03677">
        <ele>127</ele>
        <time>2016-07-10T07:20:54.000Z</time>
      </trkpt>
      <trkpt lat="49.23769" lon="1.03673">
        <ele>128</ele>
        <time>2016-07-10T07:20:55.000Z</time>
      </trkpt>
      <trkpt lat="49.23771" lon="1.03669">
        <ele>128</ele>
        <time>2016-07-10T07:20:56.000Z</time>
      </trkpt>
      <trkpt lat="49.23773" lon="1.03666">
        <ele>128</ele>
        <time>2016-07-10T07:20:57.000Z</time>
      </trkpt>
      <trkpt lat="49.23774" lon="1.03663">
        <ele>128</ele>
        <time>2016-07-10T07:20:58.000Z</time>
      </trkpt>
      <trkpt lat="49.23776" lon="1.0366">
        <ele>129</ele>
        <time>2016-07-10T07:20:59.000Z</time>
      </trkpt>
      <trkpt lat="49.23778" lon="1.03657">
        <ele>129</ele>
        <time>2016-07-10T07:21:00.000Z</time>
      </trkpt>
      <trkpt lat="49.23779" lon="1.03654">
        <ele>129</ele>
        <time>2016-07-10T07:21:01.000Z</time>
      </trkpt>
      <trkpt lat="49.23781" lon="1.03651">
        <ele>129</ele>
        <time>2016-07-10T07:21:02.000Z</time>
      </trkpt>
      <trkpt lat="49.23782" lon="1.03648">
        <ele>130</ele>
        <time>2016-07-10T07:21:03.000Z</time>
      </trkpt>
      <trkpt lat="49.23784" lon="1.03646">
        <ele>130</ele>
        <time>2016-07-10T07:21:04.000Z</time>
      </trkpt>
      <trkpt lat="49.23786" lon="1.03643">
        <ele>130</ele>
        <time>2016-07-10T07:21:05.000Z</time>
      </trkpt>
      <trkpt lat="49.23787" lon="1.03641">
        <ele>131</ele>
        <time>2016-07-10T07:21:06.000Z</time>
      </trkpt>
      <trkpt lat="49.23789" lon="1.03639">
        <ele>131</ele>
        <time>2016-07-10T07:21:07.000Z</time>
      </trkpt>
      <trkpt lat="49.2379" lon="1.03638">
        <ele>132</ele>
        <time>2016-07-10T07:21:08.000Z</time>
      </trkpt>
      <trkpt lat="49.23792" lon="1.03636">
        <ele>132</ele>
        <time>2016-07-10T07:21:09.000Z</time>
      </trkpt>
      <trkpt lat="49.23794" lon="1.03635">
        <ele>132</ele>
        <time>2016-07-10T07:21:10.000Z</time>
      </trkpt>
      <trkpt lat="49.23795" lon="1.03634">
        <ele>132</ele>
        <time>2016-07-10T07:21:11.000Z</time>
      </trkpt>
      <trkpt lat="49.23796" lon="1.03633">
        <ele>132</ele>
        <time>2016-07-10T07:21:12.000Z</time>
      </trkpt>
      <trkpt lat="49.23797" lon="1.03631">
        <ele>132</ele>
        <time>2016-07-10T07:21:13.000Z</time>
      </trkpt>
      <trkpt lat="49.23797" lon="1.0363">
        <ele>132</ele>
        <time>2016-07-10T07:21:14.000Z</time>
      </trkpt>
      <trkpt lat="49.23798" lon="1.03627">
        <ele>133</ele>
        <time>2016-07-10T07:21:15.000Z</time>
      </trkpt>
      <trkpt lat="49.23798" lon="1.03625">
        <ele>133</ele>
        <time>2016-07-10T07:21:16.000Z</time>
      </trkpt>
      <trkpt lat="49.23799" lon="1.03624">
        <ele>133</ele>
        <time>2016-07-10T07:21:17.000Z</time>
      </trkpt>
      <trkpt lat="49.23799" lon="1.03623">
        <ele>133</ele>
        <time>2016-07-10T07:21:18.000Z</time>
      </trkpt>
      <trkpt lat="49.238" lon="1.03622">
        <ele>133</ele>
        <time>2016-07-10T07:21:19.000Z</time>
      </trkpt>
      <trkpt lat="49.23801" lon="1.03621">
        <ele>133</ele>
        <time>2016-07-10T07:21:20.000Z</time>
      </trkpt>
      <trkpt lat="49.23802" lon="1.03622">
        <ele>133</ele>
        <time>2016-07-10T07:21:21.000Z</time>
      </trkpt>
      <trkpt lat="49.23803" lon="1.03623">
        <ele>132</ele>
        <time>2016-07-10T07:21:22.000Z</time>
      </trkpt>
      <trkpt lat="49.23803" lon="1.03624">
        <ele>131</ele>
        <time>2016-07-10T07:21:23.000Z</time>
      </trkpt>
      <trkpt lat="49.23803" lon="1.03626">
        <ele>131</ele>
        <time>2016-07-10T07:21:24.000Z</time>
      </trkpt>
      <trkpt lat="49.23803" lon="1.03627">
        <ele>130</ele>
        <time>2016-07-10T07:21:25.000Z</time>
      </trkpt>
      <trkpt lat="49.23803" lon="1.03628">
        <ele>130</ele>
        <time>2016-07-10T07:21:26.000Z</time>
      </trkpt>
      <trkpt lat="49.23803" lon="1.0363">
        <ele>129</ele>
        <time>2016-07-10T07:21:27.000Z</time>
      </trkpt>
      <trkpt lat="49.23803" lon="1.03632">
        <ele>129</ele>
        <time>2016-07-10T07:21:28.000Z</time>
      </trkpt>
      <trkpt lat="49.23803" lon="1.03634">
        <ele>129</ele>
        <time>2016-07-10T07:21:29.000Z</time>
      </trkpt>
      <trkpt lat="49.23803" lon="1.03636">
        <ele>128</ele>
        <time>2016-07-10T07:21:30.000Z</time>
      </trkpt>
      <trkpt lat="49.23803" lon="1.03639">
        <ele>129</ele>
        <time>2016-07-10T07:21:31.000Z</time>
      </trkpt>
      <trkpt lat="49.23803" lon="1.03642">
        <ele>128</ele>
        <time>2016-07-10T07:21:32.000Z</time>
      </trkpt>
      <trkpt lat="49.23803" lon="1.03644">
        <ele>128</ele>
        <time>2016-07-10T07:21:33.000Z</time>
      </trkpt>
      <trkpt lat="49.23803" lon="1.03647">
        <ele>127</ele>
        <time>2016-07-10T07:21:34.000Z</time>
      </trkpt>
      <trkpt lat="49.23803" lon="1.0365">
        <ele>127</ele>
        <time>2016-07-10T07:21:35.000Z</time>
      </trkpt>
      <trkpt lat="49.23803" lon="1.03654">
        <ele>126</ele>
        <time>2016-07-10T07:21:36.000Z</time>
      </trkpt>
      <trkpt lat="49.23803" lon="1.03658">
        <ele>126</ele>
        <time>2016-07-10T07:21:37.000Z</time>
      </trkpt>
      <trkpt lat="49.23803" lon="1.03662">
        <ele>127</ele>
        <time>2016-07-10T07:21:38.000Z</time>
      </trkpt>
      <trkpt lat="49.23803" lon="1.03666">
        <ele>126</ele>
        <time>2016-07-10T07:21:39.000Z</time>
      </trkpt>
      <trkpt lat="49.23803" lon="1.03671">
        <ele>126</ele>
        <time>2016-07-10T07:21:40.000Z</time>
      </trkpt>
      <trkpt lat="49.23803" lon="1.03676">
        <ele>125</ele>
        <time>2016-07-10T07:21:41.000Z</time>
      </trkpt>
      <trkpt lat="49.23803" lon="1.03682">
        <ele>124</ele>
        <time>2016-07-10T07:21:42.000Z</time>
      </trkpt>
      <trkpt lat="49.23803" lon="1.03687">
        <ele>124</ele>
        <time>2016-07-10T07:21:43.000Z</time>
      </trkpt>
      <trkpt lat="49.23803" lon="1.03693">
        <ele>124</ele>
        <time>2016-07-10T07:21:44.000Z</time>
      </trkpt>
      <trkpt lat="49.23803" lon="1.03699">
        <ele>124</ele>
        <time>2016-07-10T07:21:45.000Z</time>
      </trkpt>
      <trkpt lat="49.23804" lon="1.03704">
        <ele>123</ele>
        <time>2016-07-10T07:21:46.000Z</time>
      </trkpt>
      <trkpt lat="49.23805" lon="1.0371">
        <ele>123</ele>
        <time>2016-07-10T07:21:47.000Z</time>
      </trkpt>
      <trkpt lat="49.23806" lon="1.03715">
        <ele>123</ele>
        <time>2016-07-10T07:21:48.000Z</time>
      </trkpt>
      <trkpt lat="49.23806" lon="1.03721">
        <ele>123</ele>
        <time>2016-07-10T07:21:49.000Z</time>
      </trkpt>
      <trkpt lat="49.23806" lon="1.03727">
        <ele>123</ele>
        <time>2016-07-10T07:21:50.000Z</time>
      </trkpt>
      <trkpt lat="49.23806" lon="1.03732">
        <ele>122</ele>
        <time>2016-07-10T07:21:51.000Z</time>
      </trkpt>
      <trkpt lat="49.23805" lon="1.03737">
        <ele>121</ele>
        <time>2016-07-10T07:21:52.000Z</time>
      </trkpt>
      <trkpt lat="49.23805" lon="1.03742">
        <ele>119</ele>
        <time>2016-07-10T07:21:53.000Z</time>
      </trkpt>
      <trkpt lat="49.23804" lon="1.03747">
        <ele>118</ele>
        <time>2016-07-10T07:21:54.000Z</time>
      </trkpt>
      <trkpt lat="49.23803" lon="1.03753">
        <ele>117</ele>
        <time>2016-07-10T07:21:55.000Z</time>
      </trkpt>
      <trkpt lat="49.23802" lon="1.03758">
        <ele>116</ele>
        <time>2016-07-10T07:21:56.000Z</time>
      </trkpt>
      <trkpt lat="49.23801" lon="1.03763">
        <ele>115</ele>
        <time>2016-07-10T07:21:57.000Z</time>
      </trkpt>
      <trkpt lat="49.238" lon="1.03768">
        <ele>114</ele>
        <time>2016-07-10T07:21:58.000Z</time>
      </trkpt>
      <trkpt lat="49.238" lon="1.03773">
        <ele>114</ele>
        <time>2016-07-10T07:21:59.000Z</time>
      </trkpt>
      <trkpt lat="49.238" lon="1.03777">
        <ele>115</ele>
        <time>2016-07-10T07:22:00.000Z</time>
      </trkpt>
      <trkpt lat="49.238" lon="1.03782">
        <ele>114</ele>
        <time>2016-07-10T07:22:01.000Z</time>
      </trkpt>
      <trkpt lat="49.238" lon="1.03787">
        <ele>114</ele>
        <time>2016-07-10T07:22:02.000Z</time>
      </trkpt>
      <trkpt lat="49.238" lon="1.03791">
        <ele>114</ele>
        <time>2016-07-10T07:22:03.000Z</time>
      </trkpt>
      <trkpt lat="49.238" lon="1.03795">
        <ele>114</ele>
        <time>2016-07-10T07:22:04.000Z</time>
      </trkpt>
      <trkpt lat="49.23799" lon="1.038">
        <ele>114</ele>
        <time>2016-07-10T07:22:05.000Z</time>
      </trkpt>
      <trkpt lat="49.23799" lon="1.03805">
        <ele>115</ele>
        <time>2016-07-10T07:22:06.000Z</time>
      </trkpt>
      <trkpt lat="49.23799" lon="1.0381">
        <ele>115</ele>
        <time>2016-07-10T07:22:07.000Z</time>
      </trkpt>
      <trkpt lat="49.23799" lon="1.03815">
        <ele>115</ele>
        <time>2016-07-10T07:22:08.000Z</time>
      </trkpt>
      <trkpt lat="49.238" lon="1.0382">
        <ele>115</ele>
        <time>2016-07-10T07:22:09.000Z</time>
      </trkpt>
      <trkpt lat="49.238" lon="1.03824">
        <ele>116</ele>
        <time>2016-07-10T07:22:10.000Z</time>
      </trkpt>
      <trkpt lat="49.23801" lon="1.03826">
        <ele>116</ele>
        <time>2016-07-10T07:22:11.000Z</time>
      </trkpt>
      <trkpt lat="49.23803" lon="1.03827">
        <ele>117</ele>
        <time>2016-07-10T07:22:12.000Z</time>
      </trkpt>
      <trkpt lat="49.23804" lon="1.03827">
        <ele>117</ele>
        <time>2016-07-10T07:22:13.000Z</time>
      </trkpt>
      <trkpt lat="49.23806" lon="1.03828">
        <ele>118</ele>
        <time>2016-07-10T07:22:14.000Z</time>
      </trkpt>
      <trkpt lat="49.23807" lon="1.0383">
        <ele>118</ele>
        <time>2016-07-10T07:22:15.000Z</time>
      </trkpt>
      <trkpt lat="49.23808" lon="1.03833">
        <ele>118</ele>
        <time>2016-07-10T07:22:16.000Z</time>
      </trkpt>
      <trkpt lat="49.23809" lon="1.03836">
        <ele>117</ele>
        <time>2016-07-10T07:22:17.000Z</time>
      </trkpt>
      <trkpt lat="49.23811" lon="1.03838">
        <ele>119</ele>
        <time>2016-07-10T07:22:18.000Z</time>
      </trkpt>
      <trkpt lat="49.23813" lon="1.03841">
        <ele>118</ele>
        <time>2016-07-10T07:22:19.000Z</time>
      </trkpt>
      <trkpt lat="49.23816" lon="1.03842">
        <ele>119</ele>
        <time>2016-07-10T07:22:20.000Z</time>
      </trkpt>
      <trkpt lat="49.23819" lon="1.03844">
        <ele>119</ele>
        <time>2016-07-10T07:22:21.000Z</time>
      </trkpt>
      <trkpt lat="49.23821" lon="1.03846">
        <ele>118</ele>
        <time>2016-07-10T07:22:22.000Z</time>
      </trkpt>
      <trkpt lat="49.23823" lon="1.0385">
        <ele>118</ele>
        <time>2016-07-10T07:22:23.000Z</time>
      </trkpt>
      <trkpt lat="49.23823" lon="1.03855">
        <ele>118</ele>
        <time>2016-07-10T07:22:24.000Z</time>
      </trkpt>
      <trkpt lat="49.23824" lon="1.03859">
        <ele>117</ele>
        <time>2016-07-10T07:22:25.000Z</time>
      </trkpt>
      <trkpt lat="49.23825" lon="1.03864">
        <ele>116</ele>
        <time>2016-07-10T07:22:26.000Z</time>
      </trkpt>
      <trkpt lat="49.23826" lon="1.03869">
        <ele>115</ele>
        <time>2016-07-10T07:22:27.000Z</time>
      </trkpt>
      <trkpt lat="49.23826" lon="1.03876">
        <ele>115</ele>
        <time>2016-07-10T07:22:28.000Z</time>
      </trkpt>
      <trkpt lat="49.23827" lon="1.03883">
        <ele>116</ele>
        <time>2016-07-10T07:22:29.000Z</time>
      </trkpt>
      <trkpt lat="49.23827" lon="1.03887">
        <ele>116</ele>
        <time>2016-07-10T07:22:30.000Z</time>
      </trkpt>
      <trkpt lat="49.23827" lon="1.0389">
        <ele>117</ele>
        <time>2016-07-10T07:22:31.000Z</time>
      </trkpt>
      <trkpt lat="49.23827" lon="1.0389">
        <ele>119</ele>
        <time>2016-07-10T07:22:32.000Z</time>
      </trkpt>
      <trkpt lat="49.23828" lon="1.03891">
        <ele>119</ele>
        <time>2016-07-10T07:22:33.000Z</time>
      </trkpt>
      <trkpt lat="49.23828" lon="1.03891">
        <ele>119</ele>
        <time>2016-07-10T07:22:34.000Z</time>
      </trkpt>
      <trkpt lat="49.23828" lon="1.03892">
        <ele>119</ele>
        <time>2016-07-10T07:22:35.000Z</time>
      </trkpt>
      <trkpt lat="49.23829" lon="1.03893">
        <ele>119</ele>
        <time>2016-07-10T07:22:36.000Z</time>
      </trkpt>
      <trkpt lat="49.23829" lon="1.03894">
        <ele>120</ele>
        <time>2016-07-10T07:22:37.000Z</time>
      </trkpt>
      <trkpt lat="49.23829" lon="1.03895">
        <ele>121</ele>
        <time>2016-07-10T07:22:38.000Z</time>
      </trkpt>
      <trkpt lat="49.2383" lon="1.03895">
        <ele>121</ele>
        <time>2016-07-10T07:22:39.000Z</time>
      </trkpt>
      <trkpt lat="49.23831" lon="1.03895">
        <ele>122</ele>
        <time>2016-07-10T07:22:40.000Z</time>
      </trkpt>
      <trkpt lat="49.23832" lon="1.03894">
        <ele>123</ele>
        <time>2016-07-10T07:22:41.000Z</time>
      </trkpt>
      <trkpt lat="49.23834" lon="1.03894">
        <ele>122</ele>
        <time>2016-07-10T07:22:42.000Z</time>
      </trkpt>
      <trkpt lat="49.23836" lon="1.03894">
        <ele>121</ele>
        <time>2016-07-10T07:22:43.000Z</time>
      </trkpt>
      <trkpt lat="49.23839" lon="1.03896">
        <ele>120</ele>
        <time>2016-07-10T07:22:44.000Z</time>
      </trkpt>
      <trkpt lat="49.23841" lon="1.039">
        <ele>120</ele>
        <time>2016-07-10T07:22:45.000Z</time>
      </trkpt>
      <trkpt lat="49.23842" lon="1.03904">
        <ele>120</ele>
        <time>2016-07-10T07:22:46.000Z</time>
      </trkpt>
      <trkpt lat="49.23841" lon="1.03911">
        <ele>119</ele>
        <time>2016-07-10T07:22:47.000Z</time>
      </trkpt>
      <trkpt lat="49.23841" lon="1.03917">
        <ele>118</ele>
        <time>2016-07-10T07:22:48.000Z</time>
      </trkpt>
      <trkpt lat="49.2384" lon="1.03924">
        <ele>118</ele>
        <time>2016-07-10T07:22:49.000Z</time>
      </trkpt>
      <trkpt lat="49.23839" lon="1.03931">
        <ele>118</ele>
        <time>2016-07-10T07:22:50.000Z</time>
      </trkpt>
      <trkpt lat="49.23838" lon="1.03937">
        <ele>118</ele>
        <time>2016-07-10T07:22:51.000Z</time>
      </trkpt>
      <trkpt lat="49.23836" lon="1.03942">
        <ele>118</ele>
        <time>2016-07-10T07:22:52.000Z</time>
      </trkpt>
      <trkpt lat="49.23835" lon="1.03945">
        <ele>118</ele>
        <time>2016-07-10T07:22:53.000Z</time>
      </trkpt>
      <trkpt lat="49.23835" lon="1.03949">
        <ele>117</ele>
        <time>2016-07-10T07:22:54.000Z</time>
      </trkpt>
      <trkpt lat="49.23836" lon="1.03952">
        <ele>117</ele>
        <time>2016-07-10T07:22:55.000Z</time>
      </trkpt>
      <trkpt lat="49.23836" lon="1.03955">
        <ele>118</ele>
        <time>2016-07-10T07:22:56.000Z</time>
      </trkpt>
      <trkpt lat="49.23837" lon="1.03958">
        <ele>118</ele>
        <time>2016-07-10T07:22:57.000Z</time>
      </trkpt>
      <trkpt lat="49.23839" lon="1.0396">
        <ele>118</ele>
        <time>2016-07-10T07:22:58.000Z</time>
      </trkpt>
      <trkpt lat="49.23841" lon="1.03961">
        <ele>118</ele>
        <time>2016-07-10T07:22:59.000Z</time>
      </trkpt>
      <trkpt lat="49.23844" lon="1.03962">
        <ele>118</ele>
        <time>2016-07-10T07:23:00.000Z</time>
      </trkpt>
      <trkpt lat="49.23847" lon="1.03963">
        <ele>117</ele>
        <time>2016-07-10T07:23:01.000Z</time>
      </trkpt>
      <trkpt lat="49.2385" lon="1.03965">
        <ele>117</ele>
        <time>2016-07-10T07:23:02.000Z</time>
      </trkpt>
      <trkpt lat="49.23853" lon="1.03966">
        <ele>116</ele>
        <time>2016-07-10T07:23:03.000Z</time>
      </trkpt>
      <trkpt lat="49.23856" lon="1.03967">
        <ele>116</ele>
        <time>2016-07-10T07:23:04.000Z</time>
      </trkpt>
      <trkpt lat="49.23859" lon="1.03969">
        <ele>115</ele>
        <time>2016-07-10T07:23:05.000Z</time>
      </trkpt>
      <trkpt lat="49.23862" lon="1.03971">
        <ele>115</ele>
        <time>2016-07-10T07:23:06.000Z</time>
      </trkpt>
      <trkpt lat="49.23865" lon="1.03973">
        <ele>114</ele>
        <time>2016-07-10T07:23:07.000Z</time>
      </trkpt>
      <trkpt lat="49.23869" lon="1.03975">
        <ele>114</ele>
        <time>2016-07-10T07:23:08.000Z</time>
      </trkpt>
      <trkpt lat="49.23874" lon="1.03977">
        <ele>113</ele>
        <time>2016-07-10T07:23:09.000Z</time>
      </trkpt>
      <trkpt lat="49.2388" lon="1.03979">
        <ele>112</ele>
        <time>2016-07-10T07:23:10.000Z</time>
      </trkpt>
      <trkpt lat="49.23885" lon="1.03981">
        <ele>112</ele>
        <time>2016-07-10T07:23:11.000Z</time>
      </trkpt>
      <trkpt lat="49.2389" lon="1.03983">
        <ele>111</ele>
        <time>2016-07-10T07:23:12.000Z</time>
      </trkpt>
      <trkpt lat="49.23895" lon="1.03985">
        <ele>111</ele>
        <time>2016-07-10T07:23:13.000Z</time>
      </trkpt>
      <trkpt lat="49.239" lon="1.03986">
        <ele>110</ele>
        <time>2016-07-10T07:23:14.000Z</time>
      </trkpt>
      <trkpt lat="49.23905" lon="1.03986">
        <ele>110</ele>
        <time>2016-07-10T07:23:15.000Z</time>
      </trkpt>
      <trkpt lat="49.23911" lon="1.03986">
        <ele>110</ele>
        <time>2016-07-10T07:23:16.000Z</time>
      </trkpt>
      <trkpt lat="49.23916" lon="1.03985">
        <ele>110</ele>
        <time>2016-07-10T07:23:17.000Z</time>
      </trkpt>
      <trkpt lat="49.23921" lon="1.03982">
        <ele>111</ele>
        <time>2016-07-10T07:23:18.000Z</time>
      </trkpt>
      <trkpt lat="49.23926" lon="1.03979">
        <ele>111</ele>
        <time>2016-07-10T07:23:19.000Z</time>
      </trkpt>
      <trkpt lat="49.2393" lon="1.03976">
        <ele>112</ele>
        <time>2016-07-10T07:23:20.000Z</time>
      </trkpt>
      <trkpt lat="49.23934" lon="1.03972">
        <ele>112</ele>
        <time>2016-07-10T07:23:21.000Z</time>
      </trkpt>
      <trkpt lat="49.23938" lon="1.03967">
        <ele>112</ele>
        <time>2016-07-10T07:23:22.000Z</time>
      </trkpt>
      <trkpt lat="49.23942" lon="1.03961">
        <ele>112</ele>
        <time>2016-07-10T07:23:23.000Z</time>
      </trkpt>
      <trkpt lat="49.23945" lon="1.03955">
        <ele>112</ele>
        <time>2016-07-10T07:23:24.000Z</time>
      </trkpt>
      <trkpt lat="49.23949" lon="1.0395">
        <ele>112</ele>
        <time>2016-07-10T07:23:25.000Z</time>
      </trkpt>
      <trkpt lat="49.23953" lon="1.03945">
        <ele>112</ele>
        <time>2016-07-10T07:23:26.000Z</time>
      </trkpt>
      <trkpt lat="49.23956" lon="1.0394">
        <ele>112</ele>
        <time>2016-07-10T07:23:27.000Z</time>
      </trkpt>
      <trkpt lat="49.2396" lon="1.03934">
        <ele>112</ele>
        <time>2016-07-10T07:23:28.000Z</time>
      </trkpt>
      <trkpt lat="49.23963" lon="1.03929">
        <ele>111</ele>
        <time>2016-07-10T07:23:29.000Z</time>
      </trkpt>
      <trkpt lat="49.23967" lon="1.03924">
        <ele>111</ele>
        <time>2016-07-10T07:23:30.000Z</time>
      </trkpt>
      <trkpt lat="49.23971" lon="1.03918">
        <ele>110</ele>
        <time>2016-07-10T07:23:31.000Z</time>
      </trkpt>
      <trkpt lat="49.23975" lon="1.03912">
        <ele>110</ele>
        <time>2016-07-10T07:23:32.000Z</time>
      </trkpt>
      <trkpt lat="49.23979" lon="1.03906">
        <ele>109</ele>
        <time>2016-07-10T07:23:33.000Z</time>
      </trkpt>
      <trkpt lat="49.23983" lon="1.03901">
        <ele>109</ele>
        <time>2016-07-10T07:23:34.000Z</time>
      </trkpt>
      <trkpt lat="49.23986" lon="1.03896">
        <ele>109</ele>
        <time>2016-07-10T07:23:35.000Z</time>
      </trkpt>
      <trkpt lat="49.2399" lon="1.0389">
        <ele>109</ele>
        <time>2016-07-10T07:23:36.000Z</time>
      </trkpt>
      <trkpt lat="49.23993" lon="1.03886">
        <ele>108</ele>
        <time>2016-07-10T07:23:37.000Z</time>
      </trkpt>
      <trkpt lat="49.23997" lon="1.03882">
        <ele>108</ele>
        <time>2016-07-10T07:23:38.000Z</time>
      </trkpt>
      <trkpt lat="49.24001" lon="1.03878">
        <ele>108</ele>
        <time>2016-07-10T07:23:39.000Z</time>
      </trkpt>
      <trkpt lat="49.24004" lon="1.03873">
        <ele>108</ele>
        <time>2016-07-10T07:23:40.000Z</time>
      </trkpt>
      <trkpt lat="49.24007" lon="1.03869">
        <ele>108</ele>
        <time>2016-07-10T07:23:41.000Z</time>
      </trkpt>
      <trkpt lat="49.24009" lon="1.03864">
        <ele>107</ele>
        <time>2016-07-10T07:23:42.000Z</time>
      </trkpt>
      <trkpt lat="49.24012" lon="1.0386">
        <ele>107</ele>
        <time>2016-07-10T07:23:43.000Z</time>
      </trkpt>
      <trkpt lat="49.24014" lon="1.03856">
        <ele>107</ele>
        <time>2016-07-10T07:23:44.000Z</time>
      </trkpt>
      <trkpt lat="49.24015" lon="1.03852">
        <ele>106</ele>
        <time>2016-07-10T07:23:45.000Z</time>
      </trkpt>
      <trkpt lat="49.24017" lon="1.03848">
        <ele>107</ele>
        <time>2016-07-10T07:23:46.000Z</time>
      </trkpt>
      <trkpt lat="49.24019" lon="1.03844">
        <ele>107</ele>
        <time>2016-07-10T07:23:47.000Z</time>
      </trkpt>
      <trkpt lat="49.24021" lon="1.0384">
        <ele>107</ele>
        <time>2016-07-10T07:23:48.000Z</time>
      </trkpt>
      <trkpt lat="49.24024" lon="1.03836">
        <ele>108</ele>
        <time>2016-07-10T07:23:49.000Z</time>
      </trkpt>
      <trkpt lat="49.24026" lon="1.03831">
        <ele>108</ele>
        <time>2016-07-10T07:23:50.000Z</time>
      </trkpt>
      <trkpt lat="49.24028" lon="1.03826">
        <ele>108</ele>
        <time>2016-07-10T07:23:51.000Z</time>
      </trkpt>
      <trkpt lat="49.2403" lon="1.0382">
        <ele>109</ele>
        <time>2016-07-10T07:23:52.000Z</time>
      </trkpt>
      <trkpt lat="49.24032" lon="1.03815">
        <ele>109</ele>
        <time>2016-07-10T07:23:53.000Z</time>
      </trkpt>
      <trkpt lat="49.24034" lon="1.0381">
        <ele>109</ele>
        <time>2016-07-10T07:23:54.000Z</time>
      </trkpt>
      <trkpt lat="49.24036" lon="1.03804">
        <ele>110</ele>
        <time>2016-07-10T07:23:55.000Z</time>
      </trkpt>
      <trkpt lat="49.24039" lon="1.03799">
        <ele>112</ele>
        <time>2016-07-10T07:23:56.000Z</time>
      </trkpt>
      <trkpt lat="49.24041" lon="1.03793">
        <ele>112</ele>
        <time>2016-07-10T07:23:57.000Z</time>
      </trkpt>
      <trkpt lat="49.24043" lon="1.03788">
        <ele>112</ele>
        <time>2016-07-10T07:23:58.000Z</time>
      </trkpt>
      <trkpt lat="49.24045" lon="1.03782">
        <ele>114</ele>
        <time>2016-07-10T07:23:59.000Z</time>
      </trkpt>
      <trkpt lat="49.24047" lon="1.03775">
        <ele>114</ele>
        <time>2016-07-10T07:24:00.000Z</time>
      </trkpt>
      <trkpt lat="49.24049" lon="1.03769">
        <ele>115</ele>
        <time>2016-07-10T07:24:01.000Z</time>
      </trkpt>
      <trkpt lat="49.24051" lon="1.03762">
        <ele>116</ele>
        <time>2016-07-10T07:24:02.000Z</time>
      </trkpt>
      <trkpt lat="49.24054" lon="1.03756">
        <ele>116</ele>
        <time>2016-07-10T07:24:03.000Z</time>
      </trkpt>
      <trkpt lat="49.24057" lon="1.03751">
        <ele>116</ele>
        <time>2016-07-10T07:24:04.000Z</time>
      </trkpt>
      <trkpt lat="49.24059" lon="1.03746">
        <ele>116</ele>
        <time>2016-07-10T07:24:05.000Z</time>
      </trkpt>
      <trkpt lat="49.24061" lon="1.03741">
        <ele>117</ele>
        <time>2016-07-10T07:24:06.000Z</time>
      </trkpt>
      <trkpt lat="49.24063" lon="1.03736">
        <ele>116</ele>
        <time>2016-07-10T07:24:07.000Z</time>
      </trkpt>
      <trkpt lat="49.24066" lon="1.03731">
        <ele>117</ele>
        <time>2016-07-10T07:24:08.000Z</time>
      </trkpt>
      <trkpt lat="49.24068" lon="1.03726">
        <ele>117</ele>
        <time>2016-07-10T07:24:09.000Z</time>
      </trkpt>
      <trkpt lat="49.24069" lon="1.03721">
        <ele>116</ele>
        <time>2016-07-10T07:24:10.000Z</time>
      </trkpt>
      <trkpt lat="49.24071" lon="1.03716">
        <ele>116</ele>
        <time>2016-07-10T07:24:11.000Z</time>
      </trkpt>
      <trkpt lat="49.24073" lon="1.0371">
        <ele>116</ele>
        <time>2016-07-10T07:24:12.000Z</time>
      </trkpt>
      <trkpt lat="49.24074" lon="1.03705">
        <ele>115</ele>
        <time>2016-07-10T07:24:13.000Z</time>
      </trkpt>
      <trkpt lat="49.24076" lon="1.037">
        <ele>115</ele>
        <time>2016-07-10T07:24:14.000Z</time>
      </trkpt>
      <trkpt lat="49.24077" lon="1.03694">
        <ele>115</ele>
        <time>2016-07-10T07:24:15.000Z</time>
      </trkpt>
      <trkpt lat="49.24079" lon="1.03688">
        <ele>115</ele>
        <time>2016-07-10T07:24:16.000Z</time>
      </trkpt>
      <trkpt lat="49.2408" lon="1.03681">
        <ele>115</ele>
        <time>2016-07-10T07:24:17.000Z</time>
      </trkpt>
      <trkpt lat="49.24081" lon="1.03674">
        <ele>115</ele>
        <time>2016-07-10T07:24:18.000Z</time>
      </trkpt>
      <trkpt lat="49.24082" lon="1.03667">
        <ele>114</ele>
        <time>2016-07-10T07:24:19.000Z</time>
      </trkpt>
      <trkpt lat="49.24084" lon="1.0366">
        <ele>114</ele>
        <time>2016-07-10T07:24:20.000Z</time>
      </trkpt>
      <trkpt lat="49.24085" lon="1.03653">
        <ele>113</ele>
        <time>2016-07-10T07:24:21.000Z</time>
      </trkpt>
      <trkpt lat="49.24086" lon="1.03645">
        <ele>113</ele>
        <time>2016-07-10T07:24:22.000Z</time>
      </trkpt>
      <trkpt lat="49.24087" lon="1.03637">
        <ele>113</ele>
        <time>2016-07-10T07:24:23.000Z</time>
      </trkpt>
      <trkpt lat="49.24088" lon="1.03629">
        <ele>113</ele>
        <time>2016-07-10T07:24:24.000Z</time>
      </trkpt>
      <trkpt lat="49.24089" lon="1.03621">
        <ele>113</ele>
        <time>2016-07-10T07:24:25.000Z</time>
      </trkpt>
      <trkpt lat="49.2409" lon="1.03612">
        <ele>113</ele>
        <time>2016-07-10T07:24:26.000Z</time>
      </trkpt>
      <trkpt lat="49.24091" lon="1.03604">
        <ele>113</ele>
        <time>2016-07-10T07:24:27.000Z</time>
      </trkpt>
      <trkpt lat="49.24092" lon="1.03597">
        <ele>114</ele>
        <time>2016-07-10T07:24:28.000Z</time>
      </trkpt>
      <trkpt lat="49.24093" lon="1.03591">
        <ele>115</ele>
        <time>2016-07-10T07:24:29.000Z</time>
      </trkpt>
      <trkpt lat="49.24094" lon="1.03586">
        <ele>115</ele>
        <time>2016-07-10T07:24:30.000Z</time>
      </trkpt>
      <trkpt lat="49.24095" lon="1.03582">
        <ele>115</ele>
        <time>2016-07-10T07:24:31.000Z</time>
      </trkpt>
      <trkpt lat="49.24096" lon="1.03578">
        <ele>116</ele>
        <time>2016-07-10T07:24:32.000Z</time>
      </trkpt>
      <trkpt lat="49.24097" lon="1.03575">
        <ele>116</ele>
        <time>2016-07-10T07:24:33.000Z</time>
      </trkpt>
      <trkpt lat="49.24097" lon="1.03572">
        <ele>116</ele>
        <time>2016-07-10T07:24:34.000Z</time>
      </trkpt>
      <trkpt lat="49.24098" lon="1.0357">
        <ele>116</ele>
        <time>2016-07-10T07:24:35.000Z</time>
      </trkpt>
      <trkpt lat="49.24099" lon="1.03567">
        <ele>116</ele>
        <time>2016-07-10T07:24:36.000Z</time>
      </trkpt>
      <trkpt lat="49.241" lon="1.03565">
        <ele>117</ele>
        <time>2016-07-10T07:24:37.000Z</time>
      </trkpt>
      <trkpt lat="49.241" lon="1.03563">
        <ele>117</ele>
        <time>2016-07-10T07:24:38.000Z</time>
      </trkpt>
      <trkpt lat="49.241" lon="1.03562">
        <ele>119</ele>
        <time>2016-07-10T07:24:39.000Z</time>
      </trkpt>
      <trkpt lat="49.24099" lon="1.0356">
        <ele>120</ele>
        <time>2016-07-10T07:24:40.000Z</time>
      </trkpt>
      <trkpt lat="49.24099" lon="1.03558">
        <ele>121</ele>
        <time>2016-07-10T07:24:41.000Z</time>
      </trkpt>
      <trkpt lat="49.24099" lon="1.03555">
        <ele>121</ele>
        <time>2016-07-10T07:24:42.000Z</time>
      </trkpt>
      <trkpt lat="49.24098" lon="1.03554">
        <ele>121</ele>
        <time>2016-07-10T07:24:43.000Z</time>
      </trkpt>
      <trkpt lat="49.24098" lon="1.03552">
        <ele>121</ele>
        <time>2016-07-10T07:24:44.000Z</time>
      </trkpt>
      <trkpt lat="49.24098" lon="1.03551">
        <ele>121</ele>
        <time>2016-07-10T07:24:45.000Z</time>
      </trkpt>
      <trkpt lat="49.24098" lon="1.0355">
        <ele>122</ele>
        <time>2016-07-10T07:24:46.000Z</time>
      </trkpt>
      <trkpt lat="49.24098" lon="1.03549">
        <ele>122</ele>
        <time>2016-07-10T07:24:47.000Z</time>
      </trkpt>
      <trkpt lat="49.24098" lon="1.03548">
        <ele>123</ele>
        <time>2016-07-10T07:24:48.000Z</time>
      </trkpt>
      <trkpt lat="49.24099" lon="1.03548">
        <ele>123</ele>
        <time>2016-07-10T07:24:49.000Z</time>
      </trkpt>
      <trkpt lat="49.24099" lon="1.03547">
        <ele>124</ele>
        <time>2016-07-10T07:24:50.000Z</time>
      </trkpt>
      <trkpt lat="49.24099" lon="1.03546">
        <ele>124</ele>
        <time>2016-07-10T07:24:51.000Z</time>
      </trkpt>
      <trkpt lat="49.24099" lon="1.03545">
        <ele>124</ele>
        <time>2016-07-10T07:24:52.000Z</time>
      </trkpt>
      <trkpt lat="49.24099" lon="1.03544">
        <ele>124</ele>
        <time>2016-07-10T07:24:53.000Z</time>
      </trkpt>
      <trkpt lat="49.24099" lon="1.03544">
        <ele>124</ele>
        <time>2016-07-10T07:24:54.000Z</time>
      </trkpt>
      <trkpt lat="49.24099" lon="1.03543">
        <ele>124</ele>
        <time>2016-07-10T07:24:55.000Z</time>
      </trkpt>
      <trkpt lat="49.24099" lon="1.03542">
        <ele>124</ele>
        <time>2016-07-10T07:24:56.000Z</time>
      </trkpt>
      <trkpt lat="49.24099" lon="1.03541">
        <ele>125</ele>
        <time>2016-07-10T07:24:57.000Z</time>
      </trkpt>
      <trkpt lat="49.24098" lon="1.0354">
        <ele>125</ele>
        <time>2016-07-10T07:24:58.000Z</time>
      </trkpt>
      <trkpt lat="49.24098" lon="1.03539">
        <ele>126</ele>
        <time>2016-07-10T07:24:59.000Z</time>
      </trkpt>
      <trkpt lat="49.24097" lon="1.03538">
        <ele>126</ele>
        <time>2016-07-10T07:25:00.000Z</time>
      </trkpt>
      <trkpt lat="49.24097" lon="1.03537">
        <ele>126</ele>
        <time>2016-07-10T07:25:01.000Z</time>
      </trkpt>
      <trkpt lat="49.24097" lon="1.03535">
        <ele>125</ele>
        <time>2016-07-10T07:25:02.000Z</time>
      </trkpt>
      <trkpt lat="49.24098" lon="1.03534">
        <ele>125</ele>
        <time>2016-07-10T07:25:03.000Z</time>
      </trkpt>
      <trkpt lat="49.24099" lon="1.03533">
        <ele>125</ele>
        <time>2016-07-10T07:25:04.000Z</time>
      </trkpt>
      <trkpt lat="49.24099" lon="1.03532">
        <ele>125</ele>
        <time>2016-07-10T07:25:05.000Z</time>
      </trkpt>
      <trkpt lat="49.24099" lon="1.03532">
        <ele>125</ele>
        <time>2016-07-10T07:25:06.000Z</time>
      </trkpt>
      <trkpt lat="49.24099" lon="1.03532">
        <ele>125</ele>
        <time>2016-07-10T07:25:07.000Z</time>
      </trkpt>
      <trkpt lat="49.241" lon="1.03531">
        <ele>126</ele>
        <time>2016-07-10T07:25:08.000Z</time>
      </trkpt>
      <trkpt lat="49.241" lon="1.03531">
        <ele>125</ele>
        <time>2016-07-10T07:25:09.000Z</time>
      </trkpt>
      <trkpt lat="49.241" lon="1.0353">
        <ele>125</ele>
        <time>2016-07-10T07:25:10.000Z</time>
      </trkpt>
      <trkpt lat="49.241" lon="1.0353">
        <ele>125</ele>
        <time>2016-07-10T07:25:11.000Z</time>
      </trkpt>
      <trkpt lat="49.241" lon="1.03529">
        <ele>125</ele>
        <time>2016-07-10T07:25:12.000Z</time>
      </trkpt>
      <trkpt lat="49.241" lon="1.03528">
        <ele>124</ele>
        <time>2016-07-10T07:25:13.000Z</time>
      </trkpt>
      <trkpt lat="49.24099" lon="1.03528">
        <ele>124</ele>
        <time>2016-07-10T07:25:14.000Z</time>
      </trkpt>
      <trkpt lat="49.24099" lon="1.03527">
        <ele>124</ele>
        <time>2016-07-10T07:25:15.000Z</time>
      </trkpt>
      <trkpt lat="49.241" lon="1.03527">
        <ele>124</ele>
        <time>2016-07-10T07:25:16.000Z</time>
      </trkpt>
      <trkpt lat="49.241" lon="1.03527">
        <ele>124</ele>
        <time>2016-07-10T07:25:17.000Z</time>
      </trkpt>
      <trkpt lat="49.241" lon="1.03527">
        <ele>124</ele>
        <time>2016-07-10T07:25:18.000Z</time>
      </trkpt>
      <trkpt lat="49.241" lon="1.03526">
        <ele>124</ele>
        <time>2016-07-10T07:25:19.000Z</time>
      </trkpt>
      <trkpt lat="49.241" lon="1.03524">
        <ele>124</ele>
        <time>2016-07-10T07:25:20.000Z</time>
      </trkpt>
      <trkpt lat="49.24099" lon="1.03523">
        <ele>125</ele>
        <time>2016-07-10T07:25:21.000Z</time>
      </trkpt>
      <trkpt lat="49.24098" lon="1.03521">
        <ele>125</ele>
        <time>2016-07-10T07:25:22.000Z</time>
      </trkpt>
      <trkpt lat="49.24097" lon="1.03519">
        <ele>125</ele>
        <time>2016-07-10T07:25:23.000Z</time>
      </trkpt>
      <trkpt lat="49.24095" lon="1.03516">
        <ele>126</ele>
        <time>2016-07-10T07:25:24.000Z</time>
      </trkpt>
      <trkpt lat="49.24092" lon="1.03514">
        <ele>126</ele>
        <time>2016-07-10T07:25:25.000Z</time>
      </trkpt>
      <trkpt lat="49.24089" lon="1.03512">
        <ele>126</ele>
        <time>2016-07-10T07:25:26.000Z</time>
      </trkpt>
      <trkpt lat="49.24086" lon="1.0351">
        <ele>126</ele>
        <time>2016-07-10T07:25:27.000Z</time>
      </trkpt>
      <trkpt lat="49.24082" lon="1.03508">
        <ele>127</ele>
        <time>2016-07-10T07:25:28.000Z</time>
      </trkpt>
      <trkpt lat="49.24078" lon="1.03506">
        <ele>127</ele>
        <time>2016-07-10T07:25:29.000Z</time>
      </trkpt>
      <trkpt lat="49.24074" lon="1.03504">
        <ele>127</ele>
        <time>2016-07-10T07:25:30.000Z</time>
      </trkpt>
      <trkpt lat="49.2407" lon="1.03501">
        <ele>127</ele>
        <time>2016-07-10T07:25:31.000Z</time>
      </trkpt>
      <trkpt lat="49.24066" lon="1.03499">
        <ele>127</ele>
        <time>2016-07-10T07:25:32.000Z</time>
      </trkpt>
      <trkpt lat="49.24063" lon="1.03497">
        <ele>128</ele>
        <time>2016-07-10T07:25:33.000Z</time>
      </trkpt>
      <trkpt lat="49.24059" lon="1.03494">
        <ele>128</ele>
        <time>2016-07-10T07:25:34.000Z</time>
      </trkpt>
      <trkpt lat="49.24056" lon="1.03491">
        <ele>128</ele>
        <time>2016-07-10T07:25:35.000Z</time>
      </trkpt>
      <trkpt lat="49.24052" lon="1.03488">
        <ele>128</ele>
        <time>2016-07-10T07:25:36.000Z</time>
      </trkpt>
      <trkpt lat="49.24048" lon="1.03485">
        <ele>128</ele>
        <time>2016-07-10T07:25:37.000Z</time>
      </trkpt>
      <trkpt lat="49.24044" lon="1.03482">
        <ele>128</ele>
        <time>2016-07-10T07:25:38.000Z</time>
      </trkpt>
      <trkpt lat="49.2404" lon="1.03479">
        <ele>129</ele>
        <time>2016-07-10T07:25:39.000Z</time>
      </trkpt>
      <trkpt lat="49.24036" lon="1.03476">
        <ele>129</ele>
        <time>2016-07-10T07:25:40.000Z</time>
      </trkpt>
      <trkpt lat="49.24032" lon="1.03474">
        <ele>129</ele>
        <time>2016-07-10T07:25:41.000Z</time>
      </trkpt>
      <trkpt lat="49.24029" lon="1.03472">
        <ele>129</ele>
        <time>2016-07-10T07:25:42.000Z</time>
      </trkpt>
      <trkpt lat="49.24025" lon="1.03469">
        <ele>129</ele>
        <time>2016-07-10T07:25:43.000Z</time>
      </trkpt>
      <trkpt lat="49.24021" lon="1.03467">
        <ele>129</ele>
        <time>2016-07-10T07:25:44.000Z</time>
      </trkpt>
      <trkpt lat="49.24018" lon="1.03464">
        <ele>129</ele>
        <time>2016-07-10T07:25:45.000Z</time>
      </trkpt>
      <trkpt lat="49.24014" lon="1.03461">
        <ele>130</ele>
        <time>2016-07-10T07:25:46.000Z</time>
      </trkpt>
      <trkpt lat="49.2401" lon="1.03459">
        <ele>130</ele>
        <time>2016-07-10T07:25:47.000Z</time>
      </trkpt>
      <trkpt lat="49.24007" lon="1.03456">
        <ele>130</ele>
        <time>2016-07-10T07:25:48.000Z</time>
      </trkpt>
      <trkpt lat="49.24003" lon="1.03454">
        <ele>130</ele>
        <time>2016-07-10T07:25:49.000Z</time>
      </trkpt>
      <trkpt lat="49.24" lon="1.03451">
        <ele>130</ele>
        <time>2016-07-10T07:25:50.000Z</time>
      </trkpt>
      <trkpt lat="49.23997" lon="1.03448">
        <ele>130</ele>
        <time>2016-07-10T07:25:51.000Z</time>
      </trkpt>
      <trkpt lat="49.23994" lon="1.03444">
        <ele>130</ele>
        <time>2016-07-10T07:25:52.000Z</time>
      </trkpt>
      <trkpt lat="49.23992" lon="1.0344">
        <ele>130</ele>
        <time>2016-07-10T07:25:53.000Z</time>
      </trkpt>
      <trkpt lat="49.23992" lon="1.03434">
        <ele>130</ele>
        <time>2016-07-10T07:25:54.000Z</time>
      </trkpt>
      <trkpt lat="49.23992" lon="1.03428">
        <ele>130</ele>
        <time>2016-07-10T07:25:55.000Z</time>
      </trkpt>
      <trkpt lat="49.23993" lon="1.03422">
        <ele>130</ele>
        <time>2016-07-10T07:25:56.000Z</time>
      </trkpt>
      <trkpt lat="49.23995" lon="1.03415">
        <ele>129</ele>
        <time>2016-07-10T07:25:57.000Z</time>
      </trkpt>
      <trkpt lat="49.23997" lon="1.03408">
        <ele>129</ele>
        <time>2016-07-10T07:25:58.000Z</time>
      </trkpt>
      <trkpt lat="49.23999" lon="1.03402">
        <ele>129</ele>
        <time>2016-07-10T07:25:59.000Z</time>
      </trkpt>
      <trkpt lat="49.24002" lon="1.03395">
        <ele>129</ele>
        <time>2016-07-10T07:26:00.000Z</time>
      </trkpt>
      <trkpt lat="49.24004" lon="1.03388">
        <ele>128</ele>
        <time>2016-07-10T07:26:01.000Z</time>
      </trkpt>
      <trkpt lat="49.24006" lon="1.03382">
        <ele>128</ele>
        <time>2016-07-10T07:26:02.000Z</time>
      </trkpt>
      <trkpt lat="49.24008" lon="1.03375">
        <ele>128</ele>
        <time>2016-07-10T07:26:03.000Z</time>
      </trkpt>
      <trkpt lat="49.24011" lon="1.03369">
        <ele>128</ele>
        <time>2016-07-10T07:26:04.000Z</time>
      </trkpt>
      <trkpt lat="49.24014" lon="1.03364">
        <ele>127</ele>
        <time>2016-07-10T07:26:05.000Z</time>
      </trkpt>
      <trkpt lat="49.24016" lon="1.03359">
        <ele>127</ele>
        <time>2016-07-10T07:26:06.000Z</time>
      </trkpt>
      <trkpt lat="49.24018" lon="1.03354">
        <ele>127</ele>
        <time>2016-07-10T07:26:07.000Z</time>
      </trkpt>
      <trkpt lat="49.24021" lon="1.03347">
        <ele>127</ele>
        <time>2016-07-10T07:26:08.000Z</time>
      </trkpt>
      <trkpt lat="49.24023" lon="1.03341">
        <ele>127</ele>
        <time>2016-07-10T07:26:09.000Z</time>
      </trkpt>
      <trkpt lat="49.24026" lon="1.03336">
        <ele>127</ele>
        <time>2016-07-10T07:26:10.000Z</time>
      </trkpt>
      <trkpt lat="49.24029" lon="1.0333">
        <ele>126</ele>
        <time>2016-07-10T07:26:11.000Z</time>
      </trkpt>
      <trkpt lat="49.24032" lon="1.03324">
        <ele>126</ele>
        <time>2016-07-10T07:26:12.000Z</time>
      </trkpt>
      <trkpt lat="49.24035" lon="1.03317">
        <ele>126</ele>
        <time>2016-07-10T07:26:13.000Z</time>
      </trkpt>
      <trkpt lat="49.24037" lon="1.03309">
        <ele>126</ele>
        <time>2016-07-10T07:26:14.000Z</time>
      </trkpt>
      <trkpt lat="49.24039" lon="1.03301">
        <ele>126</ele>
        <time>2016-07-10T07:26:15.000Z</time>
      </trkpt>
      <trkpt lat="49.24042" lon="1.03292">
        <ele>125</ele>
        <time>2016-07-10T07:26:16.000Z</time>
      </trkpt>
      <trkpt lat="49.24046" lon="1.03283">
        <ele>124</ele>
        <time>2016-07-10T07:26:17.000Z</time>
      </trkpt>
      <trkpt lat="49.24052" lon="1.03273">
        <ele>124</ele>
        <time>2016-07-10T07:26:18.000Z</time>
      </trkpt>
      <trkpt lat="49.24058" lon="1.03264">
        <ele>123</ele>
        <time>2016-07-10T07:26:19.000Z</time>
      </trkpt>
      <trkpt lat="49.24063" lon="1.03256">
        <ele>122</ele>
        <time>2016-07-10T07:26:20.000Z</time>
      </trkpt>
      <trkpt lat="49.24067" lon="1.03249">
        <ele>119</ele>
        <time>2016-07-10T07:26:21.000Z</time>
      </trkpt>
      <trkpt lat="49.24071" lon="1.03241">
        <ele>117</ele>
        <time>2016-07-10T07:26:22.000Z</time>
      </trkpt>
      <trkpt lat="49.24074" lon="1.03233">
        <ele>115</ele>
        <time>2016-07-10T07:26:23.000Z</time>
      </trkpt>
      <trkpt lat="49.24077" lon="1.03223">
        <ele>114</ele>
        <time>2016-07-10T07:26:24.000Z</time>
      </trkpt>
      <trkpt lat="49.2408" lon="1.03212">
        <ele>113</ele>
        <time>2016-07-10T07:26:25.000Z</time>
      </trkpt>
      <trkpt lat="49.24083" lon="1.032">
        <ele>111</ele>
        <time>2016-07-10T07:26:26.000Z</time>
      </trkpt>
      <trkpt lat="49.24087" lon="1.03189">
        <ele>108</ele>
        <time>2016-07-10T07:26:27.000Z</time>
      </trkpt>
      <trkpt lat="49.24091" lon="1.03179">
        <ele>105</ele>
        <time>2016-07-10T07:26:28.000Z</time>
      </trkpt>
      <trkpt lat="49.24096" lon="1.03169">
        <ele>103</ele>
        <time>2016-07-10T07:26:29.000Z</time>
      </trkpt>
      <trkpt lat="49.24101" lon="1.03158">
        <ele>101</ele>
        <time>2016-07-10T07:26:30.000Z</time>
      </trkpt>
      <trkpt lat="49.24107" lon="1.03146">
        <ele>100</ele>
        <time>2016-07-10T07:26:31.000Z</time>
      </trkpt>
      <trkpt lat="49.24116" lon="1.03133">
        <ele>96</ele>
        <time>2016-07-10T07:26:32.000Z</time>
      </trkpt>
      <trkpt lat="49.24127" lon="1.03118">
        <ele>95</ele>
        <time>2016-07-10T07:26:33.000Z</time>
      </trkpt>
      <trkpt lat="49.24138" lon="1.03102">
        <ele>94</ele>
        <time>2016-07-10T07:26:34.000Z</time>
      </trkpt>
      <trkpt lat="49.24149" lon="1.03087">
        <ele>91</ele>
        <time>2016-07-10T07:26:35.000Z</time>
      </trkpt>
      <trkpt lat="49.24159" lon="1.03072">
        <ele>91</ele>
        <time>2016-07-10T07:26:36.000Z</time>
      </trkpt>
      <trkpt lat="49.24169" lon="1.03058">
        <ele>89</ele>
        <time>2016-07-10T07:26:37.000Z</time>
      </trkpt>
      <trkpt lat="49.24179" lon="1.03045">
        <ele>87</ele>
        <time>2016-07-10T07:26:38.000Z</time>
      </trkpt>
      <trkpt lat="49.24189" lon="1.03031">
        <ele>87</ele>
        <time>2016-07-10T07:26:39.000Z</time>
      </trkpt>
      <trkpt lat="49.242" lon="1.03018">
        <ele>85</ele>
        <time>2016-07-10T07:26:40.000Z</time>
      </trkpt>
      <trkpt lat="49.24211" lon="1.03005">
        <ele>83</ele>
        <time>2016-07-10T07:26:41.000Z</time>
      </trkpt>
      <trkpt lat="49.24222" lon="1.02992">
        <ele>79</ele>
        <time>2016-07-10T07:26:42.000Z</time>
      </trkpt>
      <trkpt lat="49.24232" lon="1.02977">
        <ele>77</ele>
        <time>2016-07-10T07:26:43.000Z</time>
      </trkpt>
      <trkpt lat="49.24242" lon="1.02963">
        <ele>75</ele>
        <time>2016-07-10T07:26:44.000Z</time>
      </trkpt>
      <trkpt lat="49.24252" lon="1.02949">
        <ele>74</ele>
        <time>2016-07-10T07:26:45.000Z</time>
      </trkpt>
      <trkpt lat="49.24264" lon="1.02937">
        <ele>77</ele>
        <time>2016-07-10T07:26:46.000Z</time>
      </trkpt>
      <trkpt lat="49.24278" lon="1.02926">
        <ele>75</ele>
        <time>2016-07-10T07:26:47.000Z</time>
      </trkpt>
      <trkpt lat="49.24291" lon="1.02917">
        <ele>76</ele>
        <time>2016-07-10T07:26:48.000Z</time>
      </trkpt>
      <trkpt lat="49.24303" lon="1.02908">
        <ele>76</ele>
        <time>2016-07-10T07:26:49.000Z</time>
      </trkpt>
      <trkpt lat="49.24314" lon="1.02896">
        <ele>74</ele>
        <time>2016-07-10T07:26:50.000Z</time>
      </trkpt>
      <trkpt lat="49.24326" lon="1.02884">
        <ele>73</ele>
        <time>2016-07-10T07:26:51.000Z</time>
      </trkpt>
      <trkpt lat="49.24337" lon="1.02871">
        <ele>72</ele>
        <time>2016-07-10T07:26:52.000Z</time>
      </trkpt>
      <trkpt lat="49.24348" lon="1.02858">
        <ele>71</ele>
        <time>2016-07-10T07:26:53.000Z</time>
      </trkpt>
      <trkpt lat="49.24359" lon="1.02845">
        <ele>69</ele>
        <time>2016-07-10T07:26:54.000Z</time>
      </trkpt>
      <trkpt lat="49.24369" lon="1.02833">
        <ele>67</ele>
        <time>2016-07-10T07:26:55.000Z</time>
      </trkpt>
      <trkpt lat="49.2438" lon="1.0282">
        <ele>66</ele>
        <time>2016-07-10T07:26:56.000Z</time>
      </trkpt>
      <trkpt lat="49.2439" lon="1.02808">
        <ele>65</ele>
        <time>2016-07-10T07:26:57.000Z</time>
      </trkpt>
      <trkpt lat="49.244" lon="1.02797">
        <ele>64</ele>
        <time>2016-07-10T07:26:58.000Z</time>
      </trkpt>
      <trkpt lat="49.2441" lon="1.02786">
        <ele>63</ele>
        <time>2016-07-10T07:26:59.000Z</time>
      </trkpt>
      <trkpt lat="49.2442" lon="1.02778">
        <ele>62</ele>
        <time>2016-07-10T07:27:00.000Z</time>
      </trkpt>
      <trkpt lat="49.2443" lon="1.02772">
        <ele>61</ele>
        <time>2016-07-10T07:27:01.000Z</time>
      </trkpt>
      <trkpt lat="49.24442" lon="1.0277">
        <ele>59</ele>
        <time>2016-07-10T07:27:02.000Z</time>
      </trkpt>
      <trkpt lat="49.24453" lon="1.02772">
        <ele>57</ele>
        <time>2016-07-10T07:27:03.000Z</time>
      </trkpt>
      <trkpt lat="49.24464" lon="1.02777">
        <ele>57</ele>
        <time>2016-07-10T07:27:04.000Z</time>
      </trkpt>
      <trkpt lat="49.24474" lon="1.02783">
        <ele>55</ele>
        <time>2016-07-10T07:27:05.000Z</time>
      </trkpt>
      <trkpt lat="49.24485" lon="1.02788">
        <ele>56</ele>
        <time>2016-07-10T07:27:06.000Z</time>
      </trkpt>
      <trkpt lat="49.24496" lon="1.02793">
        <ele>58</ele>
        <time>2016-07-10T07:27:07.000Z</time>
      </trkpt>
      <trkpt lat="49.24506" lon="1.02798">
        <ele>59</ele>
        <time>2016-07-10T07:27:08.000Z</time>
      </trkpt>
      <trkpt lat="49.24516" lon="1.02803">
        <ele>61</ele>
        <time>2016-07-10T07:27:09.000Z</time>
      </trkpt>
      <trkpt lat="49.24525" lon="1.02811">
        <ele>62</ele>
        <time>2016-07-10T07:27:10.000Z</time>
      </trkpt>
      <trkpt lat="49.24533" lon="1.02819">
        <ele>63</ele>
        <time>2016-07-10T07:27:11.000Z</time>
      </trkpt>
      <trkpt lat="49.2454" lon="1.02828">
        <ele>65</ele>
        <time>2016-07-10T07:27:12.000Z</time>
      </trkpt>
      <trkpt lat="49.24548" lon="1.02837">
        <ele>66</ele>
        <time>2016-07-10T07:27:13.000Z</time>
      </trkpt>
      <trkpt lat="49.24555" lon="1.02846">
        <ele>65</ele>
        <time>2016-07-10T07:27:14.000Z</time>
      </trkpt>
      <trkpt lat="49.24561" lon="1.02854">
        <ele>65</ele>
        <time>2016-07-10T07:27:15.000Z</time>
      </trkpt>
      <trkpt lat="49.24567" lon="1.02862">
        <ele>64</ele>
        <time>2016-07-10T07:27:16.000Z</time>
      </trkpt>
      <trkpt lat="49.24572" lon="1.0287">
        <ele>66</ele>
        <time>2016-07-10T07:27:17.000Z</time>
      </trkpt>
      <trkpt lat="49.24576" lon="1.02877">
        <ele>66</ele>
        <time>2016-07-10T07:27:18.000Z</time>
      </trkpt>
      <trkpt lat="49.24581" lon="1.02883">
        <ele>66</ele>
        <time>2016-07-10T07:27:19.000Z</time>
      </trkpt>
      <trkpt lat="49.24586" lon="1.02888">
        <ele>66</ele>
        <time>2016-07-10T07:27:20.000Z</time>
      </trkpt>
      <trkpt lat="49.24592" lon="1.02892">
        <ele>65</ele>
        <time>2016-07-10T07:27:21.000Z</time>
      </trkpt>
      <trkpt lat="49.24598" lon="1.02895">
        <ele>65</ele>
        <time>2016-07-10T07:27:22.000Z</time>
      </trkpt>
      <trkpt lat="49.24605" lon="1.02897">
        <ele>64</ele>
        <time>2016-07-10T07:27:23.000Z</time>
      </trkpt>
      <trkpt lat="49.24612" lon="1.02898">
        <ele>64</ele>
        <time>2016-07-10T07:27:24.000Z</time>
      </trkpt>
      <trkpt lat="49.24619" lon="1.02899">
        <ele>64</ele>
        <time>2016-07-10T07:27:25.000Z</time>
      </trkpt>
      <trkpt lat="49.24626" lon="1.02897">
        <ele>63</ele>
        <time>2016-07-10T07:27:26.000Z</time>
      </trkpt>
      <trkpt lat="49.24633" lon="1.02895">
        <ele>63</ele>
        <time>2016-07-10T07:27:27.000Z</time>
      </trkpt>
      <trkpt lat="49.2464" lon="1.02891">
        <ele>62</ele>
        <time>2016-07-10T07:27:28.000Z</time>
      </trkpt>
      <trkpt lat="49.24647" lon="1.02885">
        <ele>61</ele>
        <time>2016-07-10T07:27:29.000Z</time>
      </trkpt>
      <trkpt lat="49.24653" lon="1.02879">
        <ele>61</ele>
        <time>2016-07-10T07:27:30.000Z</time>
      </trkpt>
      <trkpt lat="49.24658" lon="1.02872">
        <ele>60</ele>
        <time>2016-07-10T07:27:31.000Z</time>
      </trkpt>
      <trkpt lat="49.24662" lon="1.02863">
        <ele>60</ele>
        <time>2016-07-10T07:27:32.000Z</time>
      </trkpt>
      <trkpt lat="49.24666" lon="1.02855">
        <ele>60</ele>
        <time>2016-07-10T07:27:33.000Z</time>
      </trkpt>
      <trkpt lat="49.2467" lon="1.02846">
        <ele>60</ele>
        <time>2016-07-10T07:27:34.000Z</time>
      </trkpt>
      <trkpt lat="49.24674" lon="1.02837">
        <ele>59</ele>
        <time>2016-07-10T07:27:35.000Z</time>
      </trkpt>
      <trkpt lat="49.24678" lon="1.02828">
        <ele>59</ele>
        <time>2016-07-10T07:27:36.000Z</time>
      </trkpt>
      <trkpt lat="49.24682" lon="1.02819">
        <ele>59</ele>
        <time>2016-07-10T07:27:37.000Z</time>
      </trkpt>
      <trkpt lat="49.24686" lon="1.02809">
        <ele>58</ele>
        <time>2016-07-10T07:27:38.000Z</time>
      </trkpt>
      <trkpt lat="49.2469" lon="1.028">
        <ele>58</ele>
        <time>2016-07-10T07:27:39.000Z</time>
      </trkpt>
      <trkpt lat="49.24694" lon="1.02791">
        <ele>58</ele>
        <time>2016-07-10T07:27:40.000Z</time>
      </trkpt>
      <trkpt lat="49.24699" lon="1.02782">
        <ele>58</ele>
        <time>2016-07-10T07:27:41.000Z</time>
      </trkpt>
      <trkpt lat="49.24704" lon="1.02773">
        <ele>58</ele>
        <time>2016-07-10T07:27:42.000Z</time>
      </trkpt>
      <trkpt lat="49.24709" lon="1.02765">
        <ele>57</ele>
        <time>2016-07-10T07:27:43.000Z</time>
      </trkpt>
      <trkpt lat="49.24715" lon="1.02757">
        <ele>57</ele>
        <time>2016-07-10T07:27:44.000Z</time>
      </trkpt>
      <trkpt lat="49.2472" lon="1.02749">
        <ele>57</ele>
        <time>2016-07-10T07:27:45.000Z</time>
      </trkpt>
      <trkpt lat="49.24726" lon="1.02742">
        <ele>57</ele>
        <time>2016-07-10T07:27:46.000Z</time>
      </trkpt>
      <trkpt lat="49.24731" lon="1.02735">
        <ele>57</ele>
        <time>2016-07-10T07:27:47.000Z</time>
      </trkpt>
      <trkpt lat="49.24736" lon="1.02728">
        <ele>57</ele>
        <time>2016-07-10T07:27:48.000Z</time>
      </trkpt>
      <trkpt lat="49.24741" lon="1.02721">
        <ele>56</ele>
        <time>2016-07-10T07:27:49.000Z</time>
      </trkpt>
      <trkpt lat="49.24747" lon="1.02714">
        <ele>56</ele>
        <time>2016-07-10T07:27:50.000Z</time>
      </trkpt>
      <trkpt lat="49.24752" lon="1.02707">
        <ele>56</ele>
        <time>2016-07-10T07:27:51.000Z</time>
      </trkpt>
      <trkpt lat="49.24757" lon="1.027">
        <ele>56</ele>
        <time>2016-07-10T07:27:52.000Z</time>
      </trkpt>
      <trkpt lat="49.24762" lon="1.02694">
        <ele>55</ele>
        <time>2016-07-10T07:27:53.000Z</time>
      </trkpt>
      <trkpt lat="49.24767" lon="1.02687">
        <ele>55</ele>
        <time>2016-07-10T07:27:54.000Z</time>
      </trkpt>
      <trkpt lat="49.24772" lon="1.0268">
        <ele>54</ele>
        <time>2016-07-10T07:27:55.000Z</time>
      </trkpt>
      <trkpt lat="49.24777" lon="1.02672">
        <ele>54</ele>
        <time>2016-07-10T07:27:56.000Z</time>
      </trkpt>
      <trkpt lat="49.24781" lon="1.02664">
        <ele>53</ele>
        <time>2016-07-10T07:27:57.000Z</time>
      </trkpt>
      <trkpt lat="49.24785" lon="1.02655">
        <ele>53</ele>
        <time>2016-07-10T07:27:58.000Z</time>
      </trkpt>
      <trkpt lat="49.24788" lon="1.02646">
        <ele>53</ele>
        <time>2016-07-10T07:27:59.000Z</time>
      </trkpt>
      <trkpt lat="49.24791" lon="1.02637">
        <ele>52</ele>
        <time>2016-07-10T07:28:00.000Z</time>
      </trkpt>
      <trkpt lat="49.24793" lon="1.02628">
        <ele>52</ele>
        <time>2016-07-10T07:28:01.000Z</time>
      </trkpt>
      <trkpt lat="49.24795" lon="1.02619">
        <ele>52</ele>
        <time>2016-07-10T07:28:02.000Z</time>
      </trkpt>
      <trkpt lat="49.24796" lon="1.02612">
        <ele>52</ele>
        <time>2016-07-10T07:28:03.000Z</time>
      </trkpt>
      <trkpt lat="49.24799" lon="1.02605">
        <ele>52</ele>
        <time>2016-07-10T07:28:04.000Z</time>
      </trkpt>
      <trkpt lat="49.24803" lon="1.02601">
        <ele>51</ele>
        <time>2016-07-10T07:28:05.000Z</time>
      </trkpt>
      <trkpt lat="49.24808" lon="1.02599">
        <ele>50</ele>
        <time>2016-07-10T07:28:06.000Z</time>
      </trkpt>
      <trkpt lat="49.24814" lon="1.02599">
        <ele>49</ele>
        <time>2016-07-10T07:28:07.000Z</time>
      </trkpt>
      <trkpt lat="49.2482" lon="1.02598">
        <ele>49</ele>
        <time>2016-07-10T07:28:08.000Z</time>
      </trkpt>
      <trkpt lat="49.24825" lon="1.02598">
        <ele>49</ele>
        <time>2016-07-10T07:28:09.000Z</time>
      </trkpt>
      <trkpt lat="49.24831" lon="1.02598">
        <ele>48</ele>
        <time>2016-07-10T07:28:10.000Z</time>
      </trkpt>
      <trkpt lat="49.24836" lon="1.02597">
        <ele>48</ele>
        <time>2016-07-10T07:28:11.000Z</time>
      </trkpt>
      <trkpt lat="49.24842" lon="1.02596">
        <ele>48</ele>
        <time>2016-07-10T07:28:12.000Z</time>
      </trkpt>
      <trkpt lat="49.24846" lon="1.02595">
        <ele>48</ele>
        <time>2016-07-10T07:28:13.000Z</time>
      </trkpt>
      <trkpt lat="49.2485" lon="1.02595">
        <ele>48</ele>
        <time>2016-07-10T07:28:14.000Z</time>
      </trkpt>
      <trkpt lat="49.24852" lon="1.02594">
        <ele>48</ele>
        <time>2016-07-10T07:28:15.000Z</time>
      </trkpt>
      <trkpt lat="49.24854" lon="1.02593">
        <ele>49</ele>
        <time>2016-07-10T07:28:16.000Z</time>
      </trkpt>
      <trkpt lat="49.24855" lon="1.02593">
        <ele>49</ele>
        <time>2016-07-10T07:28:17.000Z</time>
      </trkpt>
      <trkpt lat="49.24856" lon="1.02593">
        <ele>48</ele>
        <time>2016-07-10T07:28:18.000Z</time>
      </trkpt>
      <trkpt lat="49.24856" lon="1.02593">
        <ele>50</ele>
        <time>2016-07-10T07:28:19.000Z</time>
      </trkpt>
      <trkpt lat="49.24856" lon="1.02593">
        <ele>50</ele>
        <time>2016-07-10T07:28:20.000Z</time>
      </trkpt>
      <trkpt lat="49.24856" lon="1.02593">
        <ele>50</ele>
        <time>2016-07-10T07:28:21.000Z</time>
      </trkpt>
      <trkpt lat="49.24856" lon="1.02593">
        <ele>50</ele>
        <time>2016-07-10T07:28:22.000Z</time>
      </trkpt>
      <trkpt lat="49.24856" lon="1.02592">
        <ele>50</ele>
        <time>2016-07-10T07:28:23.000Z</time>
      </trkpt>
      <trkpt lat="49.24856" lon="1.02592">
        <ele>50</ele>
        <time>2016-07-10T07:28:24.000Z</time>
      </trkpt>
      <trkpt lat="49.24856" lon="1.02592">
        <ele>50</ele>
        <time>2016-07-10T07:28:25.000Z</time>
      </trkpt>
      <trkpt lat="49.24856" lon="1.02592">
        <ele>50</ele>
        <time>2016-07-10T07:28:26.000Z</time>
      </trkpt>
      <trkpt lat="49.24855" lon="1.02592">
        <ele>51</ele>
        <time>2016-07-10T07:28:27.000Z</time>
      </trkpt>
      <trkpt lat="49.24855" lon="1.02592">
        <ele>51</ele>
        <time>2016-07-10T07:28:28.000Z</time>
      </trkpt>
      <trkpt lat="49.24855" lon="1.02592">
        <ele>51</ele>
        <time>2016-07-10T07:28:29.000Z</time>
      </trkpt>
      <trkpt lat="49.24855" lon="1.02592">
        <ele>51</ele>
        <time>2016-07-10T07:28:30.000Z</time>
      </trkpt>
      <trkpt lat="49.24855" lon="1.02592">
        <ele>51</ele>
        <time>2016-07-10T07:28:31.000Z</time>
      </trkpt>
      <trkpt lat="49.24856" lon="1.02592">
        <ele>51</ele>
        <time>2016-07-10T07:28:32.000Z</time>
      </trkpt>
      <trkpt lat="49.24856" lon="1.02591">
        <ele>51</ele>
        <time>2016-07-10T07:28:33.000Z</time>
      </trkpt>
      <trkpt lat="49.24856" lon="1.02588">
        <ele>51</ele>
        <time>2016-07-10T07:28:34.000Z</time>
      </trkpt>
      <trkpt lat="49.24857" lon="1.02585">
        <ele>52</ele>
        <time>2016-07-10T07:28:35.000Z</time>
      </trkpt>
      <trkpt lat="49.24858" lon="1.02581">
        <ele>52</ele>
        <time>2016-07-10T07:28:36.000Z</time>
      </trkpt>
      <trkpt lat="49.24859" lon="1.02577">
        <ele>51</ele>
        <time>2016-07-10T07:28:37.000Z</time>
      </trkpt>
      <trkpt lat="49.2486" lon="1.02573">
        <ele>50</ele>
        <time>2016-07-10T07:28:38.000Z</time>
      </trkpt>
      <trkpt lat="49.2486" lon="1.02567">
        <ele>49</ele>
        <time>2016-07-10T07:28:39.000Z</time>
      </trkpt>
      <trkpt lat="49.24861" lon="1.02561">
        <ele>49</ele>
        <time>2016-07-10T07:28:40.000Z</time>
      </trkpt>
      <trkpt lat="49.2486" lon="1.02556">
        <ele>49</ele>
        <time>2016-07-10T07:28:41.000Z</time>
      </trkpt>
      <trkpt lat="49.24858" lon="1.0255">
        <ele>48</ele>
        <time>2016-07-10T07:28:42.000Z</time>
      </trkpt>
      <trkpt lat="49.24856" lon="1.02544">
        <ele>48</ele>
        <time>2016-07-10T07:28:43.000Z</time>
      </trkpt>
      <trkpt lat="49.24854" lon="1.02538">
        <ele>49</ele>
        <time>2016-07-10T07:28:44.000Z</time>
      </trkpt>
      <trkpt lat="49.24852" lon="1.02532">
        <ele>49</ele>
        <time>2016-07-10T07:28:45.000Z</time>
      </trkpt>
      <trkpt lat="49.24849" lon="1.02526">
        <ele>49</ele>
        <time>2016-07-10T07:28:46.000Z</time>
      </trkpt>
      <trkpt lat="49.24847" lon="1.0252">
        <ele>50</ele>
        <time>2016-07-10T07:28:47.000Z</time>
      </trkpt>
      <trkpt lat="49.24845" lon="1.02513">
        <ele>50</ele>
        <time>2016-07-10T07:28:48.000Z</time>
      </trkpt>
      <trkpt lat="49.24842" lon="1.02507">
        <ele>50</ele>
        <time>2016-07-10T07:28:49.000Z</time>
      </trkpt>
      <trkpt lat="49.2484" lon="1.02501">
        <ele>50</ele>
        <time>2016-07-10T07:28:50.000Z</time>
      </trkpt>
      <trkpt lat="49.24838" lon="1.02495">
        <ele>51</ele>
        <time>2016-07-10T07:28:51.000Z</time>
      </trkpt>
      <trkpt lat="49.24835" lon="1.02489">
        <ele>51</ele>
        <time>2016-07-10T07:28:52.000Z</time>
      </trkpt>
      <trkpt lat="49.24833" lon="1.02482">
        <ele>52</ele>
        <time>2016-07-10T07:28:53.000Z</time>
      </trkpt>
      <trkpt lat="49.24831" lon="1.02476">
        <ele>53</ele>
        <time>2016-07-10T07:28:54.000Z</time>
      </trkpt>
      <trkpt lat="49.24829" lon="1.0247">
        <ele>53</ele>
        <time>2016-07-10T07:28:55.000Z</time>
      </trkpt>
      <trkpt lat="49.24827" lon="1.02464">
        <ele>53</ele>
        <time>2016-07-10T07:28:56.000Z</time>
      </trkpt>
      <trkpt lat="49.24826" lon="1.02459">
        <ele>53</ele>
        <time>2016-07-10T07:28:57.000Z</time>
      </trkpt>
      <trkpt lat="49.24825" lon="1.02453">
        <ele>53</ele>
        <time>2016-07-10T07:28:58.000Z</time>
      </trkpt>
      <trkpt lat="49.24825" lon="1.02447">
        <ele>53</ele>
        <time>2016-07-10T07:28:59.000Z</time>
      </trkpt>
      <trkpt lat="49.24824" lon="1.02441">
        <ele>53</ele>
        <time>2016-07-10T07:29:00.000Z</time>
      </trkpt>
      <trkpt lat="49.24824" lon="1.02435">
        <ele>53</ele>
        <time>2016-07-10T07:29:01.000Z</time>
      </trkpt>
      <trkpt lat="49.24824" lon="1.02429">
        <ele>53</ele>
        <time>2016-07-10T07:29:02.000Z</time>
      </trkpt>
      <trkpt lat="49.24824" lon="1.02423">
        <ele>54</ele>
        <time>2016-07-10T07:29:03.000Z</time>
      </trkpt>
      <trkpt lat="49.24824" lon="1.02417">
        <ele>54</ele>
        <time>2016-07-10T07:29:04.000Z</time>
      </trkpt>
      <trkpt lat="49.24824" lon="1.02412">
        <ele>55</ele>
        <time>2016-07-10T07:29:05.000Z</time>
      </trkpt>
      <trkpt lat="49.24824" lon="1.02407">
        <ele>55</ele>
        <time>2016-07-10T07:29:06.000Z</time>
      </trkpt>
      <trkpt lat="49.24824" lon="1.02402">
        <ele>55</ele>
        <time>2016-07-10T07:29:07.000Z</time>
      </trkpt>
      <trkpt lat="49.24824" lon="1.02397">
        <ele>55</ele>
        <time>2016-07-10T07:29:08.000Z</time>
      </trkpt>
      <trkpt lat="49.24824" lon="1.02392">
        <ele>55</ele>
        <time>2016-07-10T07:29:09.000Z</time>
      </trkpt>
      <trkpt lat="49.24823" lon="1.02387">
        <ele>55</ele>
        <time>2016-07-10T07:29:10.000Z</time>
      </trkpt>
      <trkpt lat="49.24823" lon="1.02382">
        <ele>55</ele>
        <time>2016-07-10T07:29:11.000Z</time>
      </trkpt>
      <trkpt lat="49.24823" lon="1.02376">
        <ele>55</ele>
        <time>2016-07-10T07:29:12.000Z</time>
      </trkpt>
      <trkpt lat="49.24822" lon="1.02371">
        <ele>55</ele>
        <time>2016-07-10T07:29:13.000Z</time>
      </trkpt>
      <trkpt lat="49.24821" lon="1.02366">
        <ele>56</ele>
        <time>2016-07-10T07:29:14.000Z</time>
      </trkpt>
      <trkpt lat="49.2482" lon="1.02361">
        <ele>57</ele>
        <time>2016-07-10T07:29:15.000Z</time>
      </trkpt>
      <trkpt lat="49.24819" lon="1.02356">
        <ele>57</ele>
        <time>2016-07-10T07:29:16.000Z</time>
      </trkpt>
      <trkpt lat="49.24817" lon="1.02351">
        <ele>58</ele>
        <time>2016-07-10T07:29:17.000Z</time>
      </trkpt>
      <trkpt lat="49.24815" lon="1.02347">
        <ele>59</ele>
        <time>2016-07-10T07:29:18.000Z</time>
      </trkpt>
      <trkpt lat="49.24814" lon="1.02342">
        <ele>59</ele>
        <time>2016-07-10T07:29:19.000Z</time>
      </trkpt>
      <trkpt lat="49.24812" lon="1.02338">
        <ele>60</ele>
        <time>2016-07-10T07:29:20.000Z</time>
      </trkpt>
      <trkpt lat="49.2481" lon="1.02333">
        <ele>60</ele>
        <time>2016-07-10T07:29:21.000Z</time>
      </trkpt>
      <trkpt lat="49.24808" lon="1.02328">
        <ele>60</ele>
        <time>2016-07-10T07:29:22.000Z</time>
      </trkpt>
      <trkpt lat="49.24807" lon="1.02324">
        <ele>61</ele>
        <time>2016-07-10T07:29:23.000Z</time>
      </trkpt>
      <trkpt lat="49.24805" lon="1.02319">
        <ele>61</ele>
        <time>2016-07-10T07:29:24.000Z</time>
      </trkpt>
      <trkpt lat="49.24803" lon="1.02314">
        <ele>61</ele>
        <time>2016-07-10T07:29:25.000Z</time>
      </trkpt>
      <trkpt lat="49.24802" lon="1.0231">
        <ele>62</ele>
        <time>2016-07-10T07:29:26.000Z</time>
      </trkpt>
      <trkpt lat="49.248" lon="1.02306">
        <ele>62</ele>
        <time>2016-07-10T07:29:27.000Z</time>
      </trkpt>
      <trkpt lat="49.24799" lon="1.02302">
        <ele>62</ele>
        <time>2016-07-10T07:29:28.000Z</time>
      </trkpt>
      <trkpt lat="49.24797" lon="1.02297">
        <ele>63</ele>
        <time>2016-07-10T07:29:29.000Z</time>
      </trkpt>
      <trkpt lat="49.24795" lon="1.02293">
        <ele>63</ele>
        <time>2016-07-10T07:29:30.000Z</time>
      </trkpt>
      <trkpt lat="49.24794" lon="1.02288">
        <ele>64</ele>
        <time>2016-07-10T07:29:31.000Z</time>
      </trkpt>
      <trkpt lat="49.24792" lon="1.02284">
        <ele>64</ele>
        <time>2016-07-10T07:29:32.000Z</time>
      </trkpt>
      <trkpt lat="49.24791" lon="1.02279">
        <ele>64</ele>
        <time>2016-07-10T07:29:33.000Z</time>
      </trkpt>
      <trkpt lat="49.24789" lon="1.02274">
        <ele>65</ele>
        <time>2016-07-10T07:29:34.000Z</time>
      </trkpt>
      <trkpt lat="49.24788" lon="1.02269">
        <ele>65</ele>
        <time>2016-07-10T07:29:35.000Z</time>
      </trkpt>
      <trkpt lat="49.24788" lon="1.02264">
        <ele>65</ele>
        <time>2016-07-10T07:29:36.000Z</time>
      </trkpt>
      <trkpt lat="49.24787" lon="1.02259">
        <ele>66</ele>
        <time>2016-07-10T07:29:37.000Z</time>
      </trkpt>
      <trkpt lat="49.24786" lon="1.02254">
        <ele>66</ele>
        <time>2016-07-10T07:29:38.000Z</time>
      </trkpt>
      <trkpt lat="49.24785" lon="1.02248">
        <ele>66</ele>
        <time>2016-07-10T07:29:39.000Z</time>
      </trkpt>
      <trkpt lat="49.24785" lon="1.02243">
        <ele>66</ele>
        <time>2016-07-10T07:29:40.000Z</time>
      </trkpt>
      <trkpt lat="49.24785" lon="1.02238">
        <ele>66</ele>
        <time>2016-07-10T07:29:41.000Z</time>
      </trkpt>
      <trkpt lat="49.24785" lon="1.02233">
        <ele>66</ele>
        <time>2016-07-10T07:29:42.000Z</time>
      </trkpt>
      <trkpt lat="49.24785" lon="1.02228">
        <ele>66</ele>
        <time>2016-07-10T07:29:43.000Z</time>
      </trkpt>
      <trkpt lat="49.24785" lon="1.02223">
        <ele>66</ele>
        <time>2016-07-10T07:29:44.000Z</time>
      </trkpt>
      <trkpt lat="49.24785" lon="1.02218">
        <ele>65</ele>
        <time>2016-07-10T07:29:45.000Z</time>
      </trkpt>
      <trkpt lat="49.24784" lon="1.02213">
        <ele>65</ele>
        <time>2016-07-10T07:29:46.000Z</time>
      </trkpt>
      <trkpt lat="49.24783" lon="1.02208">
        <ele>65</ele>
        <time>2016-07-10T07:29:47.000Z</time>
      </trkpt>
      <trkpt lat="49.24782" lon="1.02204">
        <ele>65</ele>
        <time>2016-07-10T07:29:48.000Z</time>
      </trkpt>
      <trkpt lat="49.24781" lon="1.022">
        <ele>65</ele>
        <time>2016-07-10T07:29:49.000Z</time>
      </trkpt>
      <trkpt lat="49.24779" lon="1.02197">
        <ele>65</ele>
        <time>2016-07-10T07:29:50.000Z</time>
      </trkpt>
      <trkpt lat="49.24777" lon="1.02194">
        <ele>65</ele>
        <time>2016-07-10T07:29:51.000Z</time>
      </trkpt>
      <trkpt lat="49.24774" lon="1.02191">
        <ele>65</ele>
        <time>2016-07-10T07:29:52.000Z</time>
      </trkpt>
      <trkpt lat="49.24772" lon="1.02187">
        <ele>65</ele>
        <time>2016-07-10T07:29:53.000Z</time>
      </trkpt>
      <trkpt lat="49.2477" lon="1.02184">
        <ele>65</ele>
        <time>2016-07-10T07:29:54.000Z</time>
      </trkpt>
      <trkpt lat="49.24768" lon="1.02181">
        <ele>66</ele>
        <time>2016-07-10T07:29:55.000Z</time>
      </trkpt>
      <trkpt lat="49.24765" lon="1.02178">
        <ele>66</ele>
        <time>2016-07-10T07:29:56.000Z</time>
      </trkpt>
      <trkpt lat="49.24763" lon="1.02175">
        <ele>66</ele>
        <time>2016-07-10T07:29:57.000Z</time>
      </trkpt>
      <trkpt lat="49.24761" lon="1.02172">
        <ele>67</ele>
        <time>2016-07-10T07:29:58.000Z</time>
      </trkpt>
      <trkpt lat="49.24759" lon="1.02168">
        <ele>67</ele>
        <time>2016-07-10T07:29:59.000Z</time>
      </trkpt>
      <trkpt lat="49.24757" lon="1.02165">
        <ele>67</ele>
        <time>2016-07-10T07:30:00.000Z</time>
      </trkpt>
      <trkpt lat="49.24755" lon="1.02162">
        <ele>67</ele>
        <time>2016-07-10T07:30:01.000Z</time>
      </trkpt>
      <trkpt lat="49.24753" lon="1.02159">
        <ele>67</ele>
        <time>2016-07-10T07:30:02.000Z</time>
      </trkpt>
      <trkpt lat="49.2475" lon="1.02157">
        <ele>67</ele>
        <time>2016-07-10T07:30:03.000Z</time>
      </trkpt>
      <trkpt lat="49.24748" lon="1.02154">
        <ele>67</ele>
        <time>2016-07-10T07:30:04.000Z</time>
      </trkpt>
      <trkpt lat="49.24746" lon="1.02152">
        <ele>67</ele>
        <time>2016-07-10T07:30:05.000Z</time>
      </trkpt>
      <trkpt lat="49.24744" lon="1.02149">
        <ele>68</ele>
        <time>2016-07-10T07:30:06.000Z</time>
      </trkpt>
      <trkpt lat="49.24741" lon="1.02146">
        <ele>69</ele>
        <time>2016-07-10T07:30:07.000Z</time>
      </trkpt>
      <trkpt lat="49.24739" lon="1.02143">
        <ele>70</ele>
        <time>2016-07-10T07:30:08.000Z</time>
      </trkpt>
      <trkpt lat="49.24737" lon="1.02141">
        <ele>71</ele>
        <time>2016-07-10T07:30:09.000Z</time>
      </trkpt>
      <trkpt lat="49.24735" lon="1.02138">
        <ele>71</ele>
        <time>2016-07-10T07:30:10.000Z</time>
      </trkpt>
      <trkpt lat="49.24733" lon="1.02136">
        <ele>71</ele>
        <time>2016-07-10T07:30:11.000Z</time>
      </trkpt>
      <trkpt lat="49.24731" lon="1.02134">
        <ele>71</ele>
        <time>2016-07-10T07:30:12.000Z</time>
      </trkpt>
      <trkpt lat="49.24728" lon="1.02132">
        <ele>71</ele>
        <time>2016-07-10T07:30:13.000Z</time>
      </trkpt>
      <trkpt lat="49.24726" lon="1.0213">
        <ele>72</ele>
        <time>2016-07-10T07:30:14.000Z</time>
      </trkpt>
      <trkpt lat="49.24724" lon="1.02127">
        <ele>72</ele>
        <time>2016-07-10T07:30:15.000Z</time>
      </trkpt>
      <trkpt lat="49.24722" lon="1.02125">
        <ele>73</ele>
        <time>2016-07-10T07:30:16.000Z</time>
      </trkpt>
      <trkpt lat="49.2472" lon="1.02122">
        <ele>74</ele>
        <time>2016-07-10T07:30:17.000Z</time>
      </trkpt>
      <trkpt lat="49.24718" lon="1.0212">
        <ele>74</ele>
        <time>2016-07-10T07:30:18.000Z</time>
      </trkpt>
      <trkpt lat="49.24716" lon="1.02117">
        <ele>74</ele>
        <time>2016-07-10T07:30:19.000Z</time>
      </trkpt>
      <trkpt lat="49.24714" lon="1.02115">
        <ele>75</ele>
        <time>2016-07-10T07:30:20.000Z</time>
      </trkpt>
      <trkpt lat="49.24712" lon="1.02112">
        <ele>75</ele>
        <time>2016-07-10T07:30:21.000Z</time>
      </trkpt>
      <trkpt lat="49.2471" lon="1.02109">
        <ele>75</ele>
        <time>2016-07-10T07:30:22.000Z</time>
      </trkpt>
      <trkpt lat="49.24708" lon="1.02106">
        <ele>76</ele>
        <time>2016-07-10T07:30:23.000Z</time>
      </trkpt>
      <trkpt lat="49.24706" lon="1.02102">
        <ele>76</ele>
        <time>2016-07-10T07:30:24.000Z</time>
      </trkpt>
      <trkpt lat="49.24704" lon="1.02099">
        <ele>77</ele>
        <time>2016-07-10T07:30:25.000Z</time>
      </trkpt>
      <trkpt lat="49.24702" lon="1.02095">
        <ele>78</ele>
        <time>2016-07-10T07:30:26.000Z</time>
      </trkpt>
      <trkpt lat="49.247" lon="1.02092">
        <ele>79</ele>
        <time>2016-07-10T07:30:27.000Z</time>
      </trkpt>
      <trkpt lat="49.24699" lon="1.02088">
        <ele>79</ele>
        <time>2016-07-10T07:30:28.000Z</time>
      </trkpt>
      <trkpt lat="49.24697" lon="1.02084">
        <ele>80</ele>
        <time>2016-07-10T07:30:29.000Z</time>
      </trkpt>
      <trkpt lat="49.24696" lon="1.0208">
        <ele>80</ele>
        <time>2016-07-10T07:30:30.000Z</time>
      </trkpt>
      <trkpt lat="49.24695" lon="1.02077">
        <ele>81</ele>
        <time>2016-07-10T07:30:31.000Z</time>
      </trkpt>
      <trkpt lat="49.24695" lon="1.02073">
        <ele>81</ele>
        <time>2016-07-10T07:30:32.000Z</time>
      </trkpt>
      <trkpt lat="49.24694" lon="1.0207">
        <ele>81</ele>
        <time>2016-07-10T07:30:33.000Z</time>
      </trkpt>
      <trkpt lat="49.24694" lon="1.02067">
        <ele>81</ele>
        <time>2016-07-10T07:30:34.000Z</time>
      </trkpt>
      <trkpt lat="49.24694" lon="1.02064">
        <ele>81</ele>
        <time>2016-07-10T07:30:35.000Z</time>
      </trkpt>
      <trkpt lat="49.24694" lon="1.02062">
        <ele>81</ele>
        <time>2016-07-10T07:30:36.000Z</time>
      </trkpt>
      <trkpt lat="49.24694" lon="1.02062">
        <ele>82</ele>
        <time>2016-07-10T07:30:37.000Z</time>
      </trkpt>
      <trkpt lat="49.24694" lon="1.02063">
        <ele>82</ele>
        <time>2016-07-10T07:30:38.000Z</time>
      </trkpt>
      <trkpt lat="49.24694" lon="1.02063">
        <ele>82</ele>
        <time>2016-07-10T07:30:39.000Z</time>
      </trkpt>
      <trkpt lat="49.24694" lon="1.02064">
        <ele>82</ele>
        <time>2016-07-10T07:30:40.000Z</time>
      </trkpt>
      <trkpt lat="49.24694" lon="1.02064">
        <ele>82</ele>
        <time>2016-07-10T07:30:41.000Z</time>
      </trkpt>
      <trkpt lat="49.24694" lon="1.02066">
        <ele>82</ele>
        <time>2016-07-10T07:30:42.000Z</time>
      </trkpt>
      <trkpt lat="49.24694" lon="1.02068">
        <ele>82</ele>
        <time>2016-07-10T07:30:43.000Z</time>
      </trkpt>
      <trkpt lat="49.24694" lon="1.0207">
        <ele>82</ele>
        <time>2016-07-10T07:30:44.000Z</time>
      </trkpt>
      <trkpt lat="49.24695" lon="1.02073">
        <ele>81</ele>
        <time>2016-07-10T07:30:45.000Z</time>
      </trkpt>
      <trkpt lat="49.24696" lon="1.02077">
        <ele>81</ele>
        <time>2016-07-10T07:30:46.000Z</time>
      </trkpt>
      <trkpt lat="49.24696" lon="1.02079">
        <ele>81</ele>
        <time>2016-07-10T07:30:47.000Z</time>
      </trkpt>
      <trkpt lat="49.24696" lon="1.02081">
        <ele>81</ele>
        <time>2016-07-10T07:30:48.000Z</time>
      </trkpt>
      <trkpt lat="49.24696" lon="1.02082">
        <ele>81</ele>
        <time>2016-07-10T07:30:49.000Z</time>
      </trkpt>
      <trkpt lat="49.24695" lon="1.02082">
        <ele>81</ele>
        <time>2016-07-10T07:30:50.000Z</time>
      </trkpt>
      <trkpt lat="49.24695" lon="1.02082">
        <ele>80</ele>
        <time>2016-07-10T07:30:51.000Z</time>
      </trkpt>
      <trkpt lat="49.24694" lon="1.02083">
        <ele>80</ele>
        <time>2016-07-10T07:30:52.000Z</time>
      </trkpt>
      <trkpt lat="49.24693" lon="1.02084">
        <ele>80</ele>
        <time>2016-07-10T07:30:53.000Z</time>
      </trkpt>
      <trkpt lat="49.24691" lon="1.02086">
        <ele>79</ele>
        <time>2016-07-10T07:30:54.000Z</time>
      </trkpt>
      <trkpt lat="49.24689" lon="1.02088">
        <ele>79</ele>
        <time>2016-07-10T07:30:55.000Z</time>
      </trkpt>
      <trkpt lat="49.24686" lon="1.02089">
        <ele>78</ele>
        <time>2016-07-10T07:30:56.000Z</time>
      </trkpt>
      <trkpt lat="49.24683" lon="1.0209">
        <ele>78</ele>
        <time>2016-07-10T07:30:57.000Z</time>
      </trkpt>
      <trkpt lat="49.24679" lon="1.02092">
        <ele>77</ele>
        <time>2016-07-10T07:30:58.000Z</time>
      </trkpt>
      <trkpt lat="49.24675" lon="1.02093">
        <ele>76</ele>
        <time>2016-07-10T07:30:59.000Z</time>
      </trkpt>
      <trkpt lat="49.24671" lon="1.02096">
        <ele>75</ele>
        <time>2016-07-10T07:31:00.000Z</time>
      </trkpt>
      <trkpt lat="49.24666" lon="1.02098">
        <ele>74</ele>
        <time>2016-07-10T07:31:01.000Z</time>
      </trkpt>
      <trkpt lat="49.24662" lon="1.021">
        <ele>72</ele>
        <time>2016-07-10T07:31:02.000Z</time>
      </trkpt>
      <trkpt lat="49.24657" lon="1.02102">
        <ele>69</ele>
        <time>2016-07-10T07:31:03.000Z</time>
      </trkpt>
      <trkpt lat="49.24651" lon="1.02102">
        <ele>66</ele>
        <time>2016-07-10T07:31:04.000Z</time>
      </trkpt>
      <trkpt lat="49.24646" lon="1.02103">
        <ele>63</ele>
        <time>2016-07-10T07:31:05.000Z</time>
      </trkpt>
      <trkpt lat="49.2464" lon="1.02102">
        <ele>61</ele>
        <time>2016-07-10T07:31:06.000Z</time>
      </trkpt>
      <trkpt lat="49.24634" lon="1.02102">
        <ele>60</ele>
        <time>2016-07-10T07:31:07.000Z</time>
      </trkpt>
      <trkpt lat="49.24628" lon="1.02101">
        <ele>58</ele>
        <time>2016-07-10T07:31:08.000Z</time>
      </trkpt>
      <trkpt lat="49.24622" lon="1.021">
        <ele>57</ele>
        <time>2016-07-10T07:31:09.000Z</time>
      </trkpt>
      <trkpt lat="49.24615" lon="1.02099">
        <ele>56</ele>
        <time>2016-07-10T07:31:10.000Z</time>
      </trkpt>
      <trkpt lat="49.24609" lon="1.02098">
        <ele>54</ele>
        <time>2016-07-10T07:31:11.000Z</time>
      </trkpt>
      <trkpt lat="49.24603" lon="1.02096">
        <ele>50</ele>
        <time>2016-07-10T07:31:12.000Z</time>
      </trkpt>
      <trkpt lat="49.24598" lon="1.02095">
        <ele>48</ele>
        <time>2016-07-10T07:31:13.000Z</time>
      </trkpt>
      <trkpt lat="49.24592" lon="1.02094">
        <ele>45</ele>
        <time>2016-07-10T07:31:14.000Z</time>
      </trkpt>
      <trkpt lat="49.24585" lon="1.02092">
        <ele>44</ele>
        <time>2016-07-10T07:31:15.000Z</time>
      </trkpt>
      <trkpt lat="49.24577" lon="1.0209">
        <ele>42</ele>
        <time>2016-07-10T07:31:16.000Z</time>
      </trkpt>
      <trkpt lat="49.2457" lon="1.02088">
        <ele>39</ele>
        <time>2016-07-10T07:31:17.000Z</time>
      </trkpt>
      <trkpt lat="49.24563" lon="1.02085">
        <ele>38</ele>
        <time>2016-07-10T07:31:18.000Z</time>
      </trkpt>
      <trkpt lat="49.24556" lon="1.02081">
        <ele>36</ele>
        <time>2016-07-10T07:31:19.000Z</time>
      </trkpt>
      <trkpt lat="49.24549" lon="1.02077">
        <ele>35</ele>
        <time>2016-07-10T07:31:20.000Z</time>
      </trkpt>
      <trkpt lat="49.24541" lon="1.02073">
        <ele>33</ele>
        <time>2016-07-10T07:31:21.000Z</time>
      </trkpt>
      <trkpt lat="49.24534" lon="1.02069">
        <ele>32</ele>
        <time>2016-07-10T07:31:22.000Z</time>
      </trkpt>
      <trkpt lat="49.24528" lon="1.02065">
        <ele>29</ele>
        <time>2016-07-10T07:31:23.000Z</time>
      </trkpt>
      <trkpt lat="49.24521" lon="1.02062">
        <ele>27</ele>
        <time>2016-07-10T07:31:24.000Z</time>
      </trkpt>
      <trkpt lat="49.24513" lon="1.02059">
        <ele>27</ele>
        <time>2016-07-10T07:31:25.000Z</time>
      </trkpt>
      <trkpt lat="49.24506" lon="1.02057">
        <ele>25</ele>
        <time>2016-07-10T07:31:26.000Z</time>
      </trkpt>
      <trkpt lat="49.24499" lon="1.02055">
        <ele>22</ele>
        <time>2016-07-10T07:31:27.000Z</time>
      </trkpt>
      <trkpt lat="49.24491" lon="1.02052">
        <ele>19</ele>
        <time>2016-07-10T07:31:28.000Z</time>
      </trkpt>
      <trkpt lat="49.24484" lon="1.02051">
        <ele>17</ele>
        <time>2016-07-10T07:31:29.000Z</time>
      </trkpt>
      <trkpt lat="49.24476" lon="1.0205">
        <ele>15</ele>
        <time>2016-07-10T07:31:30.000Z</time>
      </trkpt>
      <trkpt lat="49.24468" lon="1.02049">
        <ele>13</ele>
        <time>2016-07-10T07:31:31.000Z</time>
      </trkpt>
      <trkpt lat="49.2446" lon="1.02049">
        <ele>12</ele>
        <time>2016-07-10T07:31:32.000Z</time>
      </trkpt>
      <trkpt lat="49.24451" lon="1.02049">
        <ele>12</ele>
        <time>2016-07-10T07:31:33.000Z</time>
      </trkpt>
      <trkpt lat="49.24441" lon="1.02049">
        <ele>18</ele>
        <time>2016-07-10T07:31:34.000Z</time>
      </trkpt>
      <trkpt lat="49.24431" lon="1.02049">
        <ele>21</ele>
        <time>2016-07-10T07:31:35.000Z</time>
      </trkpt>
      <trkpt lat="49.2442" lon="1.02051">
        <ele>28</ele>
        <time>2016-07-10T07:31:36.000Z</time>
      </trkpt>
      <trkpt lat="49.2441" lon="1.02054">
        <ele>24</ele>
        <time>2016-07-10T07:31:37.000Z</time>
      </trkpt>
      <trkpt lat="49.24401" lon="1.02056">
        <ele>24</ele>
        <time>2016-07-10T07:31:38.000Z</time>
      </trkpt>
      <trkpt lat="49.24394" lon="1.02056">
        <ele>24</ele>
        <time>2016-07-10T07:31:39.000Z</time>
      </trkpt>
      <trkpt lat="49.24388" lon="1.02056">
        <ele>24</ele>
        <time>2016-07-10T07:31:40.000Z</time>
      </trkpt>
      <trkpt lat="49.2438" lon="1.02056">
        <ele>24</ele>
        <time>2016-07-10T07:31:41.000Z</time>
      </trkpt>
      <trkpt lat="49.24373" lon="1.02057">
        <ele>23</ele>
        <time>2016-07-10T07:31:42.000Z</time>
      </trkpt>
      <trkpt lat="49.24365" lon="1.02058">
        <ele>21</ele>
        <time>2016-07-10T07:31:43.000Z</time>
      </trkpt>
      <trkpt lat="49.24357" lon="1.02059">
        <ele>22</ele>
        <time>2016-07-10T07:31:44.000Z</time>
      </trkpt>
      <trkpt lat="49.2435" lon="1.02061">
        <ele>21</ele>
        <time>2016-07-10T07:31:45.000Z</time>
      </trkpt>
      <trkpt lat="49.24344" lon="1.02062">
        <ele>20</ele>
        <time>2016-07-10T07:31:46.000Z</time>
      </trkpt>
      <trkpt lat="49.24338" lon="1.02063">
        <ele>22</ele>
        <time>2016-07-10T07:31:47.000Z</time>
      </trkpt>
      <trkpt lat="49.24332" lon="1.02064">
        <ele>23</ele>
        <time>2016-07-10T07:31:48.000Z</time>
      </trkpt>
      <trkpt lat="49.24326" lon="1.02066">
        <ele>25</ele>
        <time>2016-07-10T07:31:49.000Z</time>
      </trkpt>
      <trkpt lat="49.24321" lon="1.02068">
        <ele>27</ele>
        <time>2016-07-10T07:31:50.000Z</time>
      </trkpt>
      <trkpt lat="49.24316" lon="1.02071">
        <ele>29</ele>
        <time>2016-07-10T07:31:51.000Z</time>
      </trkpt>
      <trkpt lat="49.24311" lon="1.02074">
        <ele>32</ele>
        <time>2016-07-10T07:31:52.000Z</time>
      </trkpt>
      <trkpt lat="49.24306" lon="1.02076">
        <ele>35</ele>
        <time>2016-07-10T07:31:53.000Z</time>
      </trkpt>
      <trkpt lat="49.24302" lon="1.02079">
        <ele>33</ele>
        <time>2016-07-10T07:31:54.000Z</time>
      </trkpt>
      <trkpt lat="49.24299" lon="1.02082">
        <ele>36</ele>
        <time>2016-07-10T07:31:55.000Z</time>
      </trkpt>
      <trkpt lat="49.24298" lon="1.02086">
        <ele>41</ele>
        <time>2016-07-10T07:31:56.000Z</time>
      </trkpt>
      <trkpt lat="49.24297" lon="1.0209">
        <ele>43</ele>
        <time>2016-07-10T07:31:57.000Z</time>
      </trkpt>
      <trkpt lat="49.24295" lon="1.02095">
        <ele>40</ele>
        <time>2016-07-10T07:31:58.000Z</time>
      </trkpt>
      <trkpt lat="49.24293" lon="1.02101">
        <ele>39</ele>
        <time>2016-07-10T07:31:59.000Z</time>
      </trkpt>
      <trkpt lat="49.2429" lon="1.02105">
        <ele>38</ele>
        <time>2016-07-10T07:32:00.000Z</time>
      </trkpt>
      <trkpt lat="49.24286" lon="1.02108">
        <ele>44</ele>
        <time>2016-07-10T07:32:01.000Z</time>
      </trkpt>
      <trkpt lat="49.24282" lon="1.0211">
        <ele>47</ele>
        <time>2016-07-10T07:32:02.000Z</time>
      </trkpt>
      <trkpt lat="49.24278" lon="1.0211">
        <ele>49</ele>
        <time>2016-07-10T07:32:03.000Z</time>
      </trkpt>
      <trkpt lat="49.24272" lon="1.02109">
        <ele>53</ele>
        <time>2016-07-10T07:32:04.000Z</time>
      </trkpt>
      <trkpt lat="49.24267" lon="1.02106">
        <ele>55</ele>
        <time>2016-07-10T07:32:05.000Z</time>
      </trkpt>
      <trkpt lat="49.2426" lon="1.02103">
        <ele>56</ele>
        <time>2016-07-10T07:32:06.000Z</time>
      </trkpt>
      <trkpt lat="49.24255" lon="1.02099">
        <ele>56</ele>
        <time>2016-07-10T07:32:07.000Z</time>
      </trkpt>
      <trkpt lat="49.2425" lon="1.02095">
        <ele>57</ele>
        <time>2016-07-10T07:32:08.000Z</time>
      </trkpt>
      <trkpt lat="49.24245" lon="1.02091">
        <ele>57</ele>
        <time>2016-07-10T07:32:09.000Z</time>
      </trkpt>
      <trkpt lat="49.24239" lon="1.02087">
        <ele>57</ele>
        <time>2016-07-10T07:32:10.000Z</time>
      </trkpt>
      <trkpt lat="49.24234" lon="1.02083">
        <ele>58</ele>
        <time>2016-07-10T07:32:11.000Z</time>
      </trkpt>
      <trkpt lat="49.2423" lon="1.02078">
        <ele>58</ele>
        <time>2016-07-10T07:32:12.000Z</time>
      </trkpt>
      <trkpt lat="49.24225" lon="1.02073">
        <ele>58</ele>
        <time>2016-07-10T07:32:13.000Z</time>
      </trkpt>
      <trkpt lat="49.24221" lon="1.02068">
        <ele>58</ele>
        <time>2016-07-10T07:32:14.000Z</time>
      </trkpt>
      <trkpt lat="49.24217" lon="1.02062">
        <ele>59</ele>
        <time>2016-07-10T07:32:15.000Z</time>
      </trkpt>
      <trkpt lat="49.24213" lon="1.02057">
        <ele>59</ele>
        <time>2016-07-10T07:32:16.000Z</time>
      </trkpt>
      <trkpt lat="49.2421" lon="1.0205">
        <ele>59</ele>
        <time>2016-07-10T07:32:17.000Z</time>
      </trkpt>
      <trkpt lat="49.24207" lon="1.02044">
        <ele>59</ele>
        <time>2016-07-10T07:32:18.000Z</time>
      </trkpt>
      <trkpt lat="49.24204" lon="1.02037">
        <ele>59</ele>
        <time>2016-07-10T07:32:19.000Z</time>
      </trkpt>
      <trkpt lat="49.24201" lon="1.0203">
        <ele>59</ele>
        <time>2016-07-10T07:32:20.000Z</time>
      </trkpt>
      <trkpt lat="49.24198" lon="1.02024">
        <ele>59</ele>
        <time>2016-07-10T07:32:21.000Z</time>
      </trkpt>
      <trkpt lat="49.24195" lon="1.02017">
        <ele>60</ele>
        <time>2016-07-10T07:32:22.000Z</time>
      </trkpt>
      <trkpt lat="49.24193" lon="1.0201">
        <ele>60</ele>
        <time>2016-07-10T07:32:23.000Z</time>
      </trkpt>
      <trkpt lat="49.2419" lon="1.02003">
        <ele>60</ele>
        <time>2016-07-10T07:32:24.000Z</time>
      </trkpt>
      <trkpt lat="49.24188" lon="1.01995">
        <ele>60</ele>
        <time>2016-07-10T07:32:25.000Z</time>
      </trkpt>
      <trkpt lat="49.24186" lon="1.01988">
        <ele>60</ele>
        <time>2016-07-10T07:32:26.000Z</time>
      </trkpt>
      <trkpt lat="49.24184" lon="1.01981">
        <ele>61</ele>
        <time>2016-07-10T07:32:27.000Z</time>
      </trkpt>
      <trkpt lat="49.24181" lon="1.01974">
        <ele>61</ele>
        <time>2016-07-10T07:32:28.000Z</time>
      </trkpt>
      <trkpt lat="49.24179" lon="1.01967">
        <ele>61</ele>
        <time>2016-07-10T07:32:29.000Z</time>
      </trkpt>
      <trkpt lat="49.24177" lon="1.0196">
        <ele>61</ele>
        <time>2016-07-10T07:32:30.000Z</time>
      </trkpt>
      <trkpt lat="49.24175" lon="1.01954">
        <ele>61</ele>
        <time>2016-07-10T07:32:31.000Z</time>
      </trkpt>
      <trkpt lat="49.24173" lon="1.01947">
        <ele>61</ele>
        <time>2016-07-10T07:32:32.000Z</time>
      </trkpt>
      <trkpt lat="49.24171" lon="1.0194">
        <ele>61</ele>
        <time>2016-07-10T07:32:33.000Z</time>
      </trkpt>
      <trkpt lat="49.24169" lon="1.01933">
        <ele>61</ele>
        <time>2016-07-10T07:32:34.000Z</time>
      </trkpt>
      <trkpt lat="49.24166" lon="1.01926">
        <ele>61</ele>
        <time>2016-07-10T07:32:35.000Z</time>
      </trkpt>
      <trkpt lat="49.24164" lon="1.01918">
        <ele>61</ele>
        <time>2016-07-10T07:32:36.000Z</time>
      </trkpt>
      <trkpt lat="49.24161" lon="1.01911">
        <ele>61</ele>
        <time>2016-07-10T07:32:37.000Z</time>
      </trkpt>
      <trkpt lat="49.24159" lon="1.01903">
        <ele>62</ele>
        <time>2016-07-10T07:32:38.000Z</time>
      </trkpt>
      <trkpt lat="49.24156" lon="1.01896">
        <ele>62</ele>
        <time>2016-07-10T07:32:39.000Z</time>
      </trkpt>
      <trkpt lat="49.24154" lon="1.01888">
        <ele>62</ele>
        <time>2016-07-10T07:32:40.000Z</time>
      </trkpt>
      <trkpt lat="49.24152" lon="1.01879">
        <ele>62</ele>
        <time>2016-07-10T07:32:41.000Z</time>
      </trkpt>
      <trkpt lat="49.24151" lon="1.0187">
        <ele>62</ele>
        <time>2016-07-10T07:32:42.000Z</time>
      </trkpt>
      <trkpt lat="49.2415" lon="1.01861">
        <ele>62</ele>
        <time>2016-07-10T07:32:43.000Z</time>
      </trkpt>
      <trkpt lat="49.2415" lon="1.01852">
        <ele>63</ele>
        <time>2016-07-10T07:32:44.000Z</time>
      </trkpt>
      <trkpt lat="49.2415" lon="1.01843">
        <ele>63</ele>
        <time>2016-07-10T07:32:45.000Z</time>
      </trkpt>
      <trkpt lat="49.2415" lon="1.01835">
        <ele>63</ele>
        <time>2016-07-10T07:32:46.000Z</time>
      </trkpt>
      <trkpt lat="49.24149" lon="1.01826">
        <ele>63</ele>
        <time>2016-07-10T07:32:47.000Z</time>
      </trkpt>
      <trkpt lat="49.24149" lon="1.01818">
        <ele>63</ele>
        <time>2016-07-10T07:32:48.000Z</time>
      </trkpt>
      <trkpt lat="49.2415" lon="1.01809">
        <ele>64</ele>
        <time>2016-07-10T07:32:49.000Z</time>
      </trkpt>
      <trkpt lat="49.2415" lon="1.018">
        <ele>63</ele>
        <time>2016-07-10T07:32:50.000Z</time>
      </trkpt>
      <trkpt lat="49.24151" lon="1.01791">
        <ele>63</ele>
        <time>2016-07-10T07:32:51.000Z</time>
      </trkpt>
      <trkpt lat="49.24151" lon="1.01783">
        <ele>64</ele>
        <time>2016-07-10T07:32:52.000Z</time>
      </trkpt>
      <trkpt lat="49.24152" lon="1.01774">
        <ele>63</ele>
        <time>2016-07-10T07:32:53.000Z</time>
      </trkpt>
      <trkpt lat="49.24152" lon="1.01766">
        <ele>63</ele>
        <time>2016-07-10T07:32:54.000Z</time>
      </trkpt>
      <trkpt lat="49.24152" lon="1.01757">
        <ele>63</ele>
        <time>2016-07-10T07:32:55.000Z</time>
      </trkpt>
      <trkpt lat="49.24153" lon="1.01749">
        <ele>63</ele>
        <time>2016-07-10T07:32:56.000Z</time>
      </trkpt>
      <trkpt lat="49.24153" lon="1.01741">
        <ele>63</ele>
        <time>2016-07-10T07:32:57.000Z</time>
      </trkpt>
      <trkpt lat="49.24153" lon="1.01733">
        <ele>64</ele>
        <time>2016-07-10T07:32:58.000Z</time>
      </trkpt>
      <trkpt lat="49.24153" lon="1.01725">
        <ele>64</ele>
        <time>2016-07-10T07:32:59.000Z</time>
      </trkpt>
      <trkpt lat="49.24153" lon="1.01717">
        <ele>64</ele>
        <time>2016-07-10T07:33:00.000Z</time>
      </trkpt>
      <trkpt lat="49.24154" lon="1.01709">
        <ele>64</ele>
        <time>2016-07-10T07:33:01.000Z</time>
      </trkpt>
      <trkpt lat="49.24154" lon="1.01701">
        <ele>64</ele>
        <time>2016-07-10T07:33:02.000Z</time>
      </trkpt>
      <trkpt lat="49.24155" lon="1.01693">
        <ele>64</ele>
        <time>2016-07-10T07:33:03.000Z</time>
      </trkpt>
      <trkpt lat="49.24155" lon="1.01685">
        <ele>65</ele>
        <time>2016-07-10T07:33:04.000Z</time>
      </trkpt>
      <trkpt lat="49.24156" lon="1.01677">
        <ele>65</ele>
        <time>2016-07-10T07:33:05.000Z</time>
      </trkpt>
      <trkpt lat="49.24156" lon="1.01669">
        <ele>65</ele>
        <time>2016-07-10T07:33:06.000Z</time>
      </trkpt>
      <trkpt lat="49.24156" lon="1.01661">
        <ele>65</ele>
        <time>2016-07-10T07:33:07.000Z</time>
      </trkpt>
      <trkpt lat="49.24157" lon="1.01653">
        <ele>65</ele>
        <time>2016-07-10T07:33:08.000Z</time>
      </trkpt>
      <trkpt lat="49.24157" lon="1.01645">
        <ele>65</ele>
        <time>2016-07-10T07:33:09.000Z</time>
      </trkpt>
      <trkpt lat="49.24157" lon="1.01637">
        <ele>65</ele>
        <time>2016-07-10T07:33:10.000Z</time>
      </trkpt>
      <trkpt lat="49.24158" lon="1.01629">
        <ele>65</ele>
        <time>2016-07-10T07:33:11.000Z</time>
      </trkpt>
      <trkpt lat="49.24158" lon="1.01621">
        <ele>66</ele>
        <time>2016-07-10T07:33:12.000Z</time>
      </trkpt>
      <trkpt lat="49.24159" lon="1.01613">
        <ele>66</ele>
        <time>2016-07-10T07:33:13.000Z</time>
      </trkpt>
      <trkpt lat="49.2416" lon="1.01604">
        <ele>66</ele>
        <time>2016-07-10T07:33:14.000Z</time>
      </trkpt>
      <trkpt lat="49.2416" lon="1.01596">
        <ele>66</ele>
        <time>2016-07-10T07:33:15.000Z</time>
      </trkpt>
      <trkpt lat="49.24161" lon="1.01588">
        <ele>66</ele>
        <time>2016-07-10T07:33:16.000Z</time>
      </trkpt>
      <trkpt lat="49.24162" lon="1.0158">
        <ele>66</ele>
        <time>2016-07-10T07:33:17.000Z</time>
      </trkpt>
      <trkpt lat="49.24164" lon="1.01572">
        <ele>66</ele>
        <time>2016-07-10T07:33:18.000Z</time>
      </trkpt>
      <trkpt lat="49.24165" lon="1.01565">
        <ele>66</ele>
        <time>2016-07-10T07:33:19.000Z</time>
      </trkpt>
      <trkpt lat="49.24167" lon="1.01557">
        <ele>66</ele>
        <time>2016-07-10T07:33:20.000Z</time>
      </trkpt>
      <trkpt lat="49.2417" lon="1.0155">
        <ele>66</ele>
        <time>2016-07-10T07:33:21.000Z</time>
      </trkpt>
      <trkpt lat="49.24172" lon="1.01543">
        <ele>66</ele>
        <time>2016-07-10T07:33:22.000Z</time>
      </trkpt>
      <trkpt lat="49.24175" lon="1.01536">
        <ele>65</ele>
        <time>2016-07-10T07:33:23.000Z</time>
      </trkpt>
      <trkpt lat="49.24179" lon="1.01529">
        <ele>65</ele>
        <time>2016-07-10T07:33:24.000Z</time>
      </trkpt>
      <trkpt lat="49.24182" lon="1.01522">
        <ele>65</ele>
        <time>2016-07-10T07:33:25.000Z</time>
      </trkpt>
      <trkpt lat="49.24186" lon="1.01516">
        <ele>65</ele>
        <time>2016-07-10T07:33:26.000Z</time>
      </trkpt>
      <trkpt lat="49.24189" lon="1.0151">
        <ele>65</ele>
        <time>2016-07-10T07:33:27.000Z</time>
      </trkpt>
      <trkpt lat="49.24193" lon="1.01504">
        <ele>65</ele>
        <time>2016-07-10T07:33:28.000Z</time>
      </trkpt>
      <trkpt lat="49.24197" lon="1.01498">
        <ele>65</ele>
        <time>2016-07-10T07:33:29.000Z</time>
      </trkpt>
      <trkpt lat="49.24201" lon="1.01492">
        <ele>65</ele>
        <time>2016-07-10T07:33:30.000Z</time>
      </trkpt>
      <trkpt lat="49.24205" lon="1.01486">
        <ele>65</ele>
        <time>2016-07-10T07:33:31.000Z</time>
      </trkpt>
      <trkpt lat="49.24209" lon="1.01481">
        <ele>65</ele>
        <time>2016-07-10T07:33:32.000Z</time>
      </trkpt>
      <trkpt lat="49.24213" lon="1.01475">
        <ele>65</ele>
        <time>2016-07-10T07:33:33.000Z</time>
      </trkpt>
      <trkpt lat="49.24217" lon="1.0147">
        <ele>65</ele>
        <time>2016-07-10T07:33:34.000Z</time>
      </trkpt>
      <trkpt lat="49.2422" lon="1.01465">
        <ele>65</ele>
        <time>2016-07-10T07:33:35.000Z</time>
      </trkpt>
      <trkpt lat="49.24224" lon="1.01459">
        <ele>65</ele>
        <time>2016-07-10T07:33:36.000Z</time>
      </trkpt>
      <trkpt lat="49.24228" lon="1.01454">
        <ele>65</ele>
        <time>2016-07-10T07:33:37.000Z</time>
      </trkpt>
      <trkpt lat="49.24232" lon="1.01448">
        <ele>65</ele>
        <time>2016-07-10T07:33:38.000Z</time>
      </trkpt>
      <trkpt lat="49.24236" lon="1.01443">
        <ele>65</ele>
        <time>2016-07-10T07:33:39.000Z</time>
      </trkpt>
      <trkpt lat="49.2424" lon="1.01437">
        <ele>65</ele>
        <time>2016-07-10T07:33:40.000Z</time>
      </trkpt>
      <trkpt lat="49.24244" lon="1.01432">
        <ele>65</ele>
        <time>2016-07-10T07:33:41.000Z</time>
      </trkpt>
      <trkpt lat="49.24248" lon="1.01427">
        <ele>65</ele>
        <time>2016-07-10T07:33:42.000Z</time>
      </trkpt>
      <trkpt lat="49.24252" lon="1.01421">
        <ele>65</ele>
        <time>2016-07-10T07:33:43.000Z</time>
      </trkpt>
      <trkpt lat="49.24255" lon="1.01416">
        <ele>65</ele>
        <time>2016-07-10T07:33:44.000Z</time>
      </trkpt>
      <trkpt lat="49.24259" lon="1.01411">
        <ele>66</ele>
        <time>2016-07-10T07:33:45.000Z</time>
      </trkpt>
      <trkpt lat="49.24263" lon="1.01406">
        <ele>66</ele>
        <time>2016-07-10T07:33:46.000Z</time>
      </trkpt>
      <trkpt lat="49.24267" lon="1.014">
        <ele>66</ele>
        <time>2016-07-10T07:33:47.000Z</time>
      </trkpt>
      <trkpt lat="49.24271" lon="1.01395">
        <ele>66</ele>
        <time>2016-07-10T07:33:48.000Z</time>
      </trkpt>
      <trkpt lat="49.24275" lon="1.01389">
        <ele>66</ele>
        <time>2016-07-10T07:33:49.000Z</time>
      </trkpt>
      <trkpt lat="49.24279" lon="1.01384">
        <ele>66</ele>
        <time>2016-07-10T07:33:50.000Z</time>
      </trkpt>
      <trkpt lat="49.24283" lon="1.01379">
        <ele>66</ele>
        <time>2016-07-10T07:33:51.000Z</time>
      </trkpt>
      <trkpt lat="49.24287" lon="1.01373">
        <ele>66</ele>
        <time>2016-07-10T07:33:52.000Z</time>
      </trkpt>
      <trkpt lat="49.2429" lon="1.01368">
        <ele>66</ele>
        <time>2016-07-10T07:33:53.000Z</time>
      </trkpt>
      <trkpt lat="49.24294" lon="1.01363">
        <ele>66</ele>
        <time>2016-07-10T07:33:54.000Z</time>
      </trkpt>
      <trkpt lat="49.24298" lon="1.01358">
        <ele>66</ele>
        <time>2016-07-10T07:33:55.000Z</time>
      </trkpt>
      <trkpt lat="49.24301" lon="1.01352">
        <ele>66</ele>
        <time>2016-07-10T07:33:56.000Z</time>
      </trkpt>
      <trkpt lat="49.24305" lon="1.01347">
        <ele>66</ele>
        <time>2016-07-10T07:33:57.000Z</time>
      </trkpt>
      <trkpt lat="49.24308" lon="1.01342">
        <ele>65</ele>
        <time>2016-07-10T07:33:58.000Z</time>
      </trkpt>
      <trkpt lat="49.24312" lon="1.01337">
        <ele>65</ele>
        <time>2016-07-10T07:33:59.000Z</time>
      </trkpt>
      <trkpt lat="49.24315" lon="1.01332">
        <ele>65</ele>
        <time>2016-07-10T07:34:00.000Z</time>
      </trkpt>
      <trkpt lat="49.24319" lon="1.01327">
        <ele>65</ele>
        <time>2016-07-10T07:34:01.000Z</time>
      </trkpt>
      <trkpt lat="49.24323" lon="1.01322">
        <ele>65</ele>
        <time>2016-07-10T07:34:02.000Z</time>
      </trkpt>
      <trkpt lat="49.24326" lon="1.01318">
        <ele>65</ele>
        <time>2016-07-10T07:34:03.000Z</time>
      </trkpt>
      <trkpt lat="49.2433" lon="1.01313">
        <ele>65</ele>
        <time>2016-07-10T07:34:04.000Z</time>
      </trkpt>
      <trkpt lat="49.24334" lon="1.01308">
        <ele>65</ele>
        <time>2016-07-10T07:34:05.000Z</time>
      </trkpt>
      <trkpt lat="49.24337" lon="1.01302">
        <ele>65</ele>
        <time>2016-07-10T07:34:06.000Z</time>
      </trkpt>
      <trkpt lat="49.24341" lon="1.01297">
        <ele>65</ele>
        <time>2016-07-10T07:34:07.000Z</time>
      </trkpt>
      <trkpt lat="49.24345" lon="1.01291">
        <ele>65</ele>
        <time>2016-07-10T07:34:08.000Z</time>
      </trkpt>
      <trkpt lat="49.24349" lon="1.01286">
        <ele>65</ele>
        <time>2016-07-10T07:34:09.000Z</time>
      </trkpt>
      <trkpt lat="49.24353" lon="1.01281">
        <ele>65</ele>
        <time>2016-07-10T07:34:10.000Z</time>
      </trkpt>
      <trkpt lat="49.24357" lon="1.01275">
        <ele>66</ele>
        <time>2016-07-10T07:34:11.000Z</time>
      </trkpt>
      <trkpt lat="49.2436" lon="1.01271">
        <ele>66</ele>
        <time>2016-07-10T07:34:12.000Z</time>
      </trkpt>
      <trkpt lat="49.24364" lon="1.01266">
        <ele>66</ele>
        <time>2016-07-10T07:34:13.000Z</time>
      </trkpt>
      <trkpt lat="49.24368" lon="1.01264">
        <ele>65</ele>
        <time>2016-07-10T07:34:14.000Z</time>
      </trkpt>
      <trkpt lat="49.24373" lon="1.01264">
        <ele>67</ele>
        <time>2016-07-10T07:34:15.000Z</time>
      </trkpt>
      <trkpt lat="49.24378" lon="1.01266">
        <ele>68</ele>
        <time>2016-07-10T07:34:16.000Z</time>
      </trkpt>
      <trkpt lat="49.24383" lon="1.01267">
        <ele>68</ele>
        <time>2016-07-10T07:34:17.000Z</time>
      </trkpt>
      <trkpt lat="49.24387" lon="1.01268">
        <ele>69</ele>
        <time>2016-07-10T07:34:18.000Z</time>
      </trkpt>
      <trkpt lat="49.24391" lon="1.01269">
        <ele>69</ele>
        <time>2016-07-10T07:34:19.000Z</time>
      </trkpt>
      <trkpt lat="49.24396" lon="1.0127">
        <ele>69</ele>
        <time>2016-07-10T07:34:20.000Z</time>
      </trkpt>
      <trkpt lat="49.24401" lon="1.01271">
        <ele>69</ele>
        <time>2016-07-10T07:34:21.000Z</time>
      </trkpt>
      <trkpt lat="49.24406" lon="1.01271">
        <ele>69</ele>
        <time>2016-07-10T07:34:22.000Z</time>
      </trkpt>
      <trkpt lat="49.24411" lon="1.01271">
        <ele>69</ele>
        <time>2016-07-10T07:34:23.000Z</time>
      </trkpt>
      <trkpt lat="49.24415" lon="1.01269">
        <ele>69</ele>
        <time>2016-07-10T07:34:24.000Z</time>
      </trkpt>
      <trkpt lat="49.24419" lon="1.01268">
        <ele>69</ele>
        <time>2016-07-10T07:34:25.000Z</time>
      </trkpt>
      <trkpt lat="49.24423" lon="1.01265">
        <ele>69</ele>
        <time>2016-07-10T07:34:26.000Z</time>
      </trkpt>
      <trkpt lat="49.24427" lon="1.01263">
        <ele>70</ele>
        <time>2016-07-10T07:34:27.000Z</time>
      </trkpt>
      <trkpt lat="49.24431" lon="1.01261">
        <ele>70</ele>
        <time>2016-07-10T07:34:28.000Z</time>
      </trkpt>
      <trkpt lat="49.24434" lon="1.01259">
        <ele>70</ele>
        <time>2016-07-10T07:34:29.000Z</time>
      </trkpt>
      <trkpt lat="49.24438" lon="1.01258">
        <ele>70</ele>
        <time>2016-07-10T07:34:30.000Z</time>
      </trkpt>
      <trkpt lat="49.24441" lon="1.01257">
        <ele>70</ele>
        <time>2016-07-10T07:34:31.000Z</time>
      </trkpt>
      <trkpt lat="49.24444" lon="1.01255">
        <ele>70</ele>
        <time>2016-07-10T07:34:32.000Z</time>
      </trkpt>
      <trkpt lat="49.24447" lon="1.01254">
        <ele>71</ele>
        <time>2016-07-10T07:34:33.000Z</time>
      </trkpt>
      <trkpt lat="49.2445" lon="1.01252">
        <ele>71</ele>
        <time>2016-07-10T07:34:34.000Z</time>
      </trkpt>
      <trkpt lat="49.24454" lon="1.01251">
        <ele>71</ele>
        <time>2016-07-10T07:34:35.000Z</time>
      </trkpt>
      <trkpt lat="49.24457" lon="1.0125">
        <ele>71</ele>
        <time>2016-07-10T07:34:36.000Z</time>
      </trkpt>
      <trkpt lat="49.24461" lon="1.01249">
        <ele>71</ele>
        <time>2016-07-10T07:34:37.000Z</time>
      </trkpt>
      <trkpt lat="49.24464" lon="1.01247">
        <ele>71</ele>
        <time>2016-07-10T07:34:38.000Z</time>
      </trkpt>
      <trkpt lat="49.24467" lon="1.01246">
        <ele>72</ele>
        <time>2016-07-10T07:34:39.000Z</time>
      </trkpt>
      <trkpt lat="49.2447" lon="1.01246">
        <ele>72</ele>
        <time>2016-07-10T07:34:40.000Z</time>
      </trkpt>
      <trkpt lat="49.24473" lon="1.01245">
        <ele>72</ele>
        <time>2016-07-10T07:34:41.000Z</time>
      </trkpt>
      <trkpt lat="49.24476" lon="1.01244">
        <ele>72</ele>
        <time>2016-07-10T07:34:42.000Z</time>
      </trkpt>
      <trkpt lat="49.24479" lon="1.01243">
        <ele>73</ele>
        <time>2016-07-10T07:34:43.000Z</time>
      </trkpt>
      <trkpt lat="49.24482" lon="1.01242">
        <ele>73</ele>
        <time>2016-07-10T07:34:44.000Z</time>
      </trkpt>
      <trkpt lat="49.24485" lon="1.01241">
        <ele>74</ele>
        <time>2016-07-10T07:34:45.000Z</time>
      </trkpt>
      <trkpt lat="49.24488" lon="1.0124">
        <ele>74</ele>
        <time>2016-07-10T07:34:46.000Z</time>
      </trkpt>
      <trkpt lat="49.24491" lon="1.01239">
        <ele>75</ele>
        <time>2016-07-10T07:34:47.000Z</time>
      </trkpt>
      <trkpt lat="49.24493" lon="1.01238">
        <ele>75</ele>
        <time>2016-07-10T07:34:48.000Z</time>
      </trkpt>
      <trkpt lat="49.24496" lon="1.01237">
        <ele>75</ele>
        <time>2016-07-10T07:34:49.000Z</time>
      </trkpt>
      <trkpt lat="49.24499" lon="1.01237">
        <ele>75</ele>
        <time>2016-07-10T07:34:50.000Z</time>
      </trkpt>
      <trkpt lat="49.24501" lon="1.01236">
        <ele>76</ele>
        <time>2016-07-10T07:34:51.000Z</time>
      </trkpt>
      <trkpt lat="49.24504" lon="1.01235">
        <ele>76</ele>
        <time>2016-07-10T07:34:52.000Z</time>
      </trkpt>
      <trkpt lat="49.24506" lon="1.01234">
        <ele>76</ele>
        <time>2016-07-10T07:34:53.000Z</time>
      </trkpt>
      <trkpt lat="49.24508" lon="1.01233">
        <ele>76</ele>
        <time>2016-07-10T07:34:54.000Z</time>
      </trkpt>
      <trkpt lat="49.2451" lon="1.01233">
        <ele>76</ele>
        <time>2016-07-10T07:34:55.000Z</time>
      </trkpt>
      <trkpt lat="49.24512" lon="1.01232">
        <ele>77</ele>
        <time>2016-07-10T07:34:56.000Z</time>
      </trkpt>
      <trkpt lat="49.24515" lon="1.01231">
        <ele>77</ele>
        <time>2016-07-10T07:34:57.000Z</time>
      </trkpt>
      <trkpt lat="49.24517" lon="1.0123">
        <ele>77</ele>
        <time>2016-07-10T07:34:58.000Z</time>
      </trkpt>
      <trkpt lat="49.24519" lon="1.01229">
        <ele>78</ele>
        <time>2016-07-10T07:34:59.000Z</time>
      </trkpt>
      <trkpt lat="49.24522" lon="1.01228">
        <ele>78</ele>
        <time>2016-07-10T07:35:00.000Z</time>
      </trkpt>
      <trkpt lat="49.24524" lon="1.01227">
        <ele>79</ele>
        <time>2016-07-10T07:35:01.000Z</time>
      </trkpt>
      <trkpt lat="49.24527" lon="1.01227">
        <ele>79</ele>
        <time>2016-07-10T07:35:02.000Z</time>
      </trkpt>
      <trkpt lat="49.24529" lon="1.01226">
        <ele>79</ele>
        <time>2016-07-10T07:35:03.000Z</time>
      </trkpt>
      <trkpt lat="49.24532" lon="1.01225">
        <ele>79</ele>
        <time>2016-07-10T07:35:04.000Z</time>
      </trkpt>
      <trkpt lat="49.24534" lon="1.01224">
        <ele>80</ele>
        <time>2016-07-10T07:35:05.000Z</time>
      </trkpt>
      <trkpt lat="49.24536" lon="1.01223">
        <ele>80</ele>
        <time>2016-07-10T07:35:06.000Z</time>
      </trkpt>
      <trkpt lat="49.24539" lon="1.01222">
        <ele>80</ele>
        <time>2016-07-10T07:35:07.000Z</time>
      </trkpt>
      <trkpt lat="49.24541" lon="1.01222">
        <ele>81</ele>
        <time>2016-07-10T07:35:08.000Z</time>
      </trkpt>
      <trkpt lat="49.24543" lon="1.01221">
        <ele>81</ele>
        <time>2016-07-10T07:35:09.000Z</time>
      </trkpt>
      <trkpt lat="49.24545" lon="1.01221">
        <ele>82</ele>
        <time>2016-07-10T07:35:10.000Z</time>
      </trkpt>
      <trkpt lat="49.24548" lon="1.01221">
        <ele>82</ele>
        <time>2016-07-10T07:35:11.000Z</time>
      </trkpt>
      <trkpt lat="49.2455" lon="1.0122">
        <ele>82</ele>
        <time>2016-07-10T07:35:12.000Z</time>
      </trkpt>
      <trkpt lat="49.24552" lon="1.0122">
        <ele>82</ele>
        <time>2016-07-10T07:35:13.000Z</time>
      </trkpt>
      <trkpt lat="49.24554" lon="1.0122">
        <ele>82</ele>
        <time>2016-07-10T07:35:14.000Z</time>
      </trkpt>
      <trkpt lat="49.24556" lon="1.0122">
        <ele>83</ele>
        <time>2016-07-10T07:35:15.000Z</time>
      </trkpt>
      <trkpt lat="49.24558" lon="1.01219">
        <ele>83</ele>
        <time>2016-07-10T07:35:16.000Z</time>
      </trkpt>
      <trkpt lat="49.2456" lon="1.01218">
        <ele>83</ele>
        <time>2016-07-10T07:35:17.000Z</time>
      </trkpt>
      <trkpt lat="49.24562" lon="1.01217">
        <ele>83</ele>
        <time>2016-07-10T07:35:18.000Z</time>
      </trkpt>
      <trkpt lat="49.24564" lon="1.01217">
        <ele>83</ele>
        <time>2016-07-10T07:35:19.000Z</time>
      </trkpt>
      <trkpt lat="49.24566" lon="1.01216">
        <ele>84</ele>
        <time>2016-07-10T07:35:20.000Z</time>
      </trkpt>
      <trkpt lat="49.24567" lon="1.01215">
        <ele>84</ele>
        <time>2016-07-10T07:35:21.000Z</time>
      </trkpt>
      <trkpt lat="49.24569" lon="1.01213">
        <ele>84</ele>
        <time>2016-07-10T07:35:22.000Z</time>
      </trkpt>
      <trkpt lat="49.2457" lon="1.01212">
        <ele>85</ele>
        <time>2016-07-10T07:35:23.000Z</time>
      </trkpt>
      <trkpt lat="49.24572" lon="1.0121">
        <ele>86</ele>
        <time>2016-07-10T07:35:24.000Z</time>
      </trkpt>
      <trkpt lat="49.24574" lon="1.01209">
        <ele>86</ele>
        <time>2016-07-10T07:35:25.000Z</time>
      </trkpt>
      <trkpt lat="49.24576" lon="1.01207">
        <ele>87</ele>
        <time>2016-07-10T07:35:26.000Z</time>
      </trkpt>
      <trkpt lat="49.24577" lon="1.01206">
        <ele>87</ele>
        <time>2016-07-10T07:35:27.000Z</time>
      </trkpt>
      <trkpt lat="49.24579" lon="1.01205">
        <ele>88</ele>
        <time>2016-07-10T07:35:28.000Z</time>
      </trkpt>
      <trkpt lat="49.24581" lon="1.01203">
        <ele>88</ele>
        <time>2016-07-10T07:35:29.000Z</time>
      </trkpt>
      <trkpt lat="49.24582" lon="1.01202">
        <ele>89</ele>
        <time>2016-07-10T07:35:30.000Z</time>
      </trkpt>
      <trkpt lat="49.24584" lon="1.01201">
        <ele>89</ele>
        <time>2016-07-10T07:35:31.000Z</time>
      </trkpt>
      <trkpt lat="49.24586" lon="1.012">
        <ele>90</ele>
        <time>2016-07-10T07:35:32.000Z</time>
      </trkpt>
      <trkpt lat="49.24588" lon="1.01199">
        <ele>90</ele>
        <time>2016-07-10T07:35:33.000Z</time>
      </trkpt>
      <trkpt lat="49.2459" lon="1.01198">
        <ele>90</ele>
        <time>2016-07-10T07:35:34.000Z</time>
      </trkpt>
      <trkpt lat="49.24591" lon="1.01197">
        <ele>90</ele>
        <time>2016-07-10T07:35:35.000Z</time>
      </trkpt>
      <trkpt lat="49.24593" lon="1.01196">
        <ele>91</ele>
        <time>2016-07-10T07:35:36.000Z</time>
      </trkpt>
      <trkpt lat="49.24595" lon="1.01195">
        <ele>90</ele>
        <time>2016-07-10T07:35:37.000Z</time>
      </trkpt>
      <trkpt lat="49.24597" lon="1.01194">
        <ele>91</ele>
        <time>2016-07-10T07:35:38.000Z</time>
      </trkpt>
      <trkpt lat="49.24599" lon="1.01192">
        <ele>92</ele>
        <time>2016-07-10T07:35:39.000Z</time>
      </trkpt>
      <trkpt lat="49.24601" lon="1.0119">
        <ele>92</ele>
        <time>2016-07-10T07:35:40.000Z</time>
      </trkpt>
      <trkpt lat="49.24602" lon="1.01188">
        <ele>93</ele>
        <time>2016-07-10T07:35:41.000Z</time>
      </trkpt>
      <trkpt lat="49.24603" lon="1.01187">
        <ele>94</ele>
        <time>2016-07-10T07:35:42.000Z</time>
      </trkpt>
      <trkpt lat="49.24604" lon="1.01185">
        <ele>94</ele>
        <time>2016-07-10T07:35:43.000Z</time>
      </trkpt>
      <trkpt lat="49.24605" lon="1.01184">
        <ele>95</ele>
        <time>2016-07-10T07:35:44.000Z</time>
      </trkpt>
      <trkpt lat="49.24606" lon="1.01182">
        <ele>95</ele>
        <time>2016-07-10T07:35:45.000Z</time>
      </trkpt>
      <trkpt lat="49.24607" lon="1.01181">
        <ele>95</ele>
        <time>2016-07-10T07:35:46.000Z</time>
      </trkpt>
      <trkpt lat="49.24608" lon="1.0118">
        <ele>95</ele>
        <time>2016-07-10T07:35:47.000Z</time>
      </trkpt>
      <trkpt lat="49.2461" lon="1.01178">
        <ele>96</ele>
        <time>2016-07-10T07:35:48.000Z</time>
      </trkpt>
      <trkpt lat="49.24612" lon="1.01176">
        <ele>97</ele>
        <time>2016-07-10T07:35:49.000Z</time>
      </trkpt>
      <trkpt lat="49.24614" lon="1.01174">
        <ele>98</ele>
        <time>2016-07-10T07:35:50.000Z</time>
      </trkpt>
      <trkpt lat="49.24616" lon="1.01172">
        <ele>97</ele>
        <time>2016-07-10T07:35:51.000Z</time>
      </trkpt>
      <trkpt lat="49.24617" lon="1.0117">
        <ele>98</ele>
        <time>2016-07-10T07:35:52.000Z</time>
      </trkpt>
      <trkpt lat="49.24619" lon="1.01168">
        <ele>97</ele>
        <time>2016-07-10T07:35:53.000Z</time>
      </trkpt>
      <trkpt lat="49.2462" lon="1.01165">
        <ele>97</ele>
        <time>2016-07-10T07:35:54.000Z</time>
      </trkpt>
      <trkpt lat="49.24621" lon="1.01164">
        <ele>97</ele>
        <time>2016-07-10T07:35:55.000Z</time>
      </trkpt>
      <trkpt lat="49.24622" lon="1.01162">
        <ele>96</ele>
        <time>2016-07-10T07:35:56.000Z</time>
      </trkpt>
      <trkpt lat="49.24623" lon="1.01161">
        <ele>96</ele>
        <time>2016-07-10T07:35:57.000Z</time>
      </trkpt>
      <trkpt lat="49.24623" lon="1.01159">
        <ele>96</ele>
        <time>2016-07-10T07:35:58.000Z</time>
      </trkpt>
      <trkpt lat="49.24624" lon="1.01158">
        <ele>96</ele>
        <time>2016-07-10T07:35:59.000Z</time>
      </trkpt>
      <trkpt lat="49.24625" lon="1.01157">
        <ele>96</ele>
        <time>2016-07-10T07:36:00.000Z</time>
      </trkpt>
      <trkpt lat="49.24626" lon="1.01156">
        <ele>96</ele>
        <time>2016-07-10T07:36:01.000Z</time>
      </trkpt>
      <trkpt lat="49.24628" lon="1.01155">
        <ele>97</ele>
        <time>2016-07-10T07:36:02.000Z</time>
      </trkpt>
      <trkpt lat="49.24629" lon="1.01153">
        <ele>98</ele>
        <time>2016-07-10T07:36:03.000Z</time>
      </trkpt>
      <trkpt lat="49.24631" lon="1.01151">
        <ele>98</ele>
        <time>2016-07-10T07:36:04.000Z</time>
      </trkpt>
      <trkpt lat="49.24633" lon="1.01149">
        <ele>98</ele>
        <time>2016-07-10T07:36:05.000Z</time>
      </trkpt>
      <trkpt lat="49.24635" lon="1.01147">
        <ele>97</ele>
        <time>2016-07-10T07:36:06.000Z</time>
      </trkpt>
      <trkpt lat="49.24637" lon="1.01145">
        <ele>97</ele>
        <time>2016-07-10T07:36:07.000Z</time>
      </trkpt>
      <trkpt lat="49.24639" lon="1.01143">
        <ele>97</ele>
        <time>2016-07-10T07:36:08.000Z</time>
      </trkpt>
      <trkpt lat="49.24641" lon="1.01142">
        <ele>97</ele>
        <time>2016-07-10T07:36:09.000Z</time>
      </trkpt>
      <trkpt lat="49.24643" lon="1.0114">
        <ele>96</ele>
        <time>2016-07-10T07:36:10.000Z</time>
      </trkpt>
      <trkpt lat="49.24644" lon="1.01139">
        <ele>96</ele>
        <time>2016-07-10T07:36:11.000Z</time>
      </trkpt>
      <trkpt lat="49.24646" lon="1.01138">
        <ele>95</ele>
        <time>2016-07-10T07:36:12.000Z</time>
      </trkpt>
      <trkpt lat="49.24648" lon="1.01136">
        <ele>94</ele>
        <time>2016-07-10T07:36:13.000Z</time>
      </trkpt>
      <trkpt lat="49.2465" lon="1.01135">
        <ele>94</ele>
        <time>2016-07-10T07:36:14.000Z</time>
      </trkpt>
      <trkpt lat="49.24652" lon="1.01134">
        <ele>94</ele>
        <time>2016-07-10T07:36:15.000Z</time>
      </trkpt>
      <trkpt lat="49.24654" lon="1.01132">
        <ele>94</ele>
        <time>2016-07-10T07:36:16.000Z</time>
      </trkpt>
      <trkpt lat="49.24656" lon="1.01131">
        <ele>93</ele>
        <time>2016-07-10T07:36:17.000Z</time>
      </trkpt>
      <trkpt lat="49.24658" lon="1.0113">
        <ele>93</ele>
        <time>2016-07-10T07:36:18.000Z</time>
      </trkpt>
      <trkpt lat="49.2466" lon="1.01129">
        <ele>93</ele>
        <time>2016-07-10T07:36:19.000Z</time>
      </trkpt>
      <trkpt lat="49.24662" lon="1.01128">
        <ele>94</ele>
        <time>2016-07-10T07:36:20.000Z</time>
      </trkpt>
      <trkpt lat="49.24664" lon="1.01126">
        <ele>94</ele>
        <time>2016-07-10T07:36:21.000Z</time>
      </trkpt>
      <trkpt lat="49.24666" lon="1.01125">
        <ele>95</ele>
        <time>2016-07-10T07:36:22.000Z</time>
      </trkpt>
      <trkpt lat="49.24669" lon="1.01124">
        <ele>94</ele>
        <time>2016-07-10T07:36:23.000Z</time>
      </trkpt>
      <trkpt lat="49.24671" lon="1.01123">
        <ele>94</ele>
        <time>2016-07-10T07:36:24.000Z</time>
      </trkpt>
      <trkpt lat="49.24672" lon="1.01122">
        <ele>93</ele>
        <time>2016-07-10T07:36:25.000Z</time>
      </trkpt>
      <trkpt lat="49.24674" lon="1.01122">
        <ele>94</ele>
        <time>2016-07-10T07:36:26.000Z</time>
      </trkpt>
      <trkpt lat="49.24676" lon="1.01121">
        <ele>94</ele>
        <time>2016-07-10T07:36:27.000Z</time>
      </trkpt>
      <trkpt lat="49.24679" lon="1.0112">
        <ele>94</ele>
        <time>2016-07-10T07:36:28.000Z</time>
      </trkpt>
      <trkpt lat="49.24681" lon="1.01119">
        <ele>95</ele>
        <time>2016-07-10T07:36:29.000Z</time>
      </trkpt>
      <trkpt lat="49.24684" lon="1.01117">
        <ele>96</ele>
        <time>2016-07-10T07:36:30.000Z</time>
      </trkpt>
      <trkpt lat="49.24687" lon="1.01115">
        <ele>99</ele>
        <time>2016-07-10T07:36:31.000Z</time>
      </trkpt>
      <trkpt lat="49.24691" lon="1.01112">
        <ele>100</ele>
        <time>2016-07-10T07:36:32.000Z</time>
      </trkpt>
      <trkpt lat="49.24694" lon="1.0111">
        <ele>101</ele>
        <time>2016-07-10T07:36:33.000Z</time>
      </trkpt>
      <trkpt lat="49.24696" lon="1.01109">
        <ele>101</ele>
        <time>2016-07-10T07:36:34.000Z</time>
      </trkpt>
      <trkpt lat="49.24699" lon="1.01108">
        <ele>102</ele>
        <time>2016-07-10T07:36:35.000Z</time>
      </trkpt>
      <trkpt lat="49.24701" lon="1.01107">
        <ele>102</ele>
        <time>2016-07-10T07:36:36.000Z</time>
      </trkpt>
      <trkpt lat="49.24704" lon="1.01106">
        <ele>103</ele>
        <time>2016-07-10T07:36:37.000Z</time>
      </trkpt>
      <trkpt lat="49.24706" lon="1.01105">
        <ele>103</ele>
        <time>2016-07-10T07:36:38.000Z</time>
      </trkpt>
      <trkpt lat="49.24708" lon="1.01104">
        <ele>103</ele>
        <time>2016-07-10T07:36:39.000Z</time>
      </trkpt>
      <trkpt lat="49.24711" lon="1.01103">
        <ele>103</ele>
        <time>2016-07-10T07:36:40.000Z</time>
      </trkpt>
      <trkpt lat="49.24713" lon="1.01102">
        <ele>103</ele>
        <time>2016-07-10T07:36:41.000Z</time>
      </trkpt>
      <trkpt lat="49.24715" lon="1.01102">
        <ele>103</ele>
        <time>2016-07-10T07:36:42.000Z</time>
      </trkpt>
      <trkpt lat="49.24717" lon="1.01101">
        <ele>104</ele>
        <time>2016-07-10T07:36:43.000Z</time>
      </trkpt>
      <trkpt lat="49.2472" lon="1.01101">
        <ele>103</ele>
        <time>2016-07-10T07:36:44.000Z</time>
      </trkpt>
      <trkpt lat="49.24722" lon="1.01102">
        <ele>103</ele>
        <time>2016-07-10T07:36:45.000Z</time>
      </trkpt>
      <trkpt lat="49.24724" lon="1.01102">
        <ele>103</ele>
        <time>2016-07-10T07:36:46.000Z</time>
      </trkpt>
      <trkpt lat="49.24726" lon="1.01101">
        <ele>104</ele>
        <time>2016-07-10T07:36:47.000Z</time>
      </trkpt>
      <trkpt lat="49.24727" lon="1.01101">
        <ele>104</ele>
        <time>2016-07-10T07:36:48.000Z</time>
      </trkpt>
      <trkpt lat="49.24729" lon="1.011">
        <ele>105</ele>
        <time>2016-07-10T07:36:49.000Z</time>
      </trkpt>
      <trkpt lat="49.24731" lon="1.01099">
        <ele>106</ele>
        <time>2016-07-10T07:36:50.000Z</time>
      </trkpt>
      <trkpt lat="49.24733" lon="1.01098">
        <ele>106</ele>
        <time>2016-07-10T07:36:51.000Z</time>
      </trkpt>
      <trkpt lat="49.24734" lon="1.01096">
        <ele>107</ele>
        <time>2016-07-10T07:36:52.000Z</time>
      </trkpt>
      <trkpt lat="49.24736" lon="1.01095">
        <ele>107</ele>
        <time>2016-07-10T07:36:53.000Z</time>
      </trkpt>
      <trkpt lat="49.24737" lon="1.01094">
        <ele>107</ele>
        <time>2016-07-10T07:36:54.000Z</time>
      </trkpt>
      <trkpt lat="49.24738" lon="1.01093">
        <ele>107</ele>
        <time>2016-07-10T07:36:55.000Z</time>
      </trkpt>
      <trkpt lat="49.24739" lon="1.01091">
        <ele>106</ele>
        <time>2016-07-10T07:36:56.000Z</time>
      </trkpt>
      <trkpt lat="49.24741" lon="1.0109">
        <ele>106</ele>
        <time>2016-07-10T07:36:57.000Z</time>
      </trkpt>
      <trkpt lat="49.24742" lon="1.01088">
        <ele>107</ele>
        <time>2016-07-10T07:36:58.000Z</time>
      </trkpt>
      <trkpt lat="49.24744" lon="1.01086">
        <ele>107</ele>
        <time>2016-07-10T07:36:59.000Z</time>
      </trkpt>
      <trkpt lat="49.24746" lon="1.01083">
        <ele>105</ele>
        <time>2016-07-10T07:37:00.000Z</time>
      </trkpt>
      <trkpt lat="49.24748" lon="1.01079">
        <ele>104</ele>
        <time>2016-07-10T07:37:01.000Z</time>
      </trkpt>
      <trkpt lat="49.24751" lon="1.01076">
        <ele>103</ele>
        <time>2016-07-10T07:37:02.000Z</time>
      </trkpt>
      <trkpt lat="49.24753" lon="1.01072">
        <ele>103</ele>
        <time>2016-07-10T07:37:03.000Z</time>
      </trkpt>
      <trkpt lat="49.24756" lon="1.01068">
        <ele>102</ele>
        <time>2016-07-10T07:37:04.000Z</time>
      </trkpt>
      <trkpt lat="49.24759" lon="1.01065">
        <ele>101</ele>
        <time>2016-07-10T07:37:05.000Z</time>
      </trkpt>
      <trkpt lat="49.24763" lon="1.01062">
        <ele>104</ele>
        <time>2016-07-10T07:37:06.000Z</time>
      </trkpt>
      <trkpt lat="49.24766" lon="1.01059">
        <ele>104</ele>
        <time>2016-07-10T07:37:07.000Z</time>
      </trkpt>
      <trkpt lat="49.24769" lon="1.01056">
        <ele>105</ele>
        <time>2016-07-10T07:37:08.000Z</time>
      </trkpt>
      <trkpt lat="49.24771" lon="1.01054">
        <ele>105</ele>
        <time>2016-07-10T07:37:09.000Z</time>
      </trkpt>
      <trkpt lat="49.24774" lon="1.01051">
        <ele>107</ele>
        <time>2016-07-10T07:37:10.000Z</time>
      </trkpt>
      <trkpt lat="49.24776" lon="1.01049">
        <ele>108</ele>
        <time>2016-07-10T07:37:11.000Z</time>
      </trkpt>
      <trkpt lat="49.24779" lon="1.01046">
        <ele>108</ele>
        <time>2016-07-10T07:37:12.000Z</time>
      </trkpt>
      <trkpt lat="49.24781" lon="1.01044">
        <ele>109</ele>
        <time>2016-07-10T07:37:13.000Z</time>
      </trkpt>
      <trkpt lat="49.24784" lon="1.01042">
        <ele>109</ele>
        <time>2016-07-10T07:37:14.000Z</time>
      </trkpt>
      <trkpt lat="49.24786" lon="1.0104">
        <ele>110</ele>
        <time>2016-07-10T07:37:15.000Z</time>
      </trkpt>
      <trkpt lat="49.24789" lon="1.01038">
        <ele>110</ele>
        <time>2016-07-10T07:37:16.000Z</time>
      </trkpt>
      <trkpt lat="49.24791" lon="1.01036">
        <ele>110</ele>
        <time>2016-07-10T07:37:17.000Z</time>
      </trkpt>
      <trkpt lat="49.24793" lon="1.01035">
        <ele>111</ele>
        <time>2016-07-10T07:37:18.000Z</time>
      </trkpt>
      <trkpt lat="49.24795" lon="1.01033">
        <ele>111</ele>
        <time>2016-07-10T07:37:19.000Z</time>
      </trkpt>
      <trkpt lat="49.24797" lon="1.01031">
        <ele>112</ele>
        <time>2016-07-10T07:37:20.000Z</time>
      </trkpt>
      <trkpt lat="49.248" lon="1.01029">
        <ele>112</ele>
        <time>2016-07-10T07:37:21.000Z</time>
      </trkpt>
      <trkpt lat="49.24802" lon="1.01028">
        <ele>113</ele>
        <time>2016-07-10T07:37:22.000Z</time>
      </trkpt>
      <trkpt lat="49.24804" lon="1.01026">
        <ele>113</ele>
        <time>2016-07-10T07:37:23.000Z</time>
      </trkpt>
      <trkpt lat="49.24806" lon="1.01024">
        <ele>113</ele>
        <time>2016-07-10T07:37:24.000Z</time>
      </trkpt>
      <trkpt lat="49.24808" lon="1.01022">
        <ele>113</ele>
        <time>2016-07-10T07:37:25.000Z</time>
      </trkpt>
      <trkpt lat="49.2481" lon="1.0102">
        <ele>114</ele>
        <time>2016-07-10T07:37:26.000Z</time>
      </trkpt>
      <trkpt lat="49.24812" lon="1.01019">
        <ele>115</ele>
        <time>2016-07-10T07:37:27.000Z</time>
      </trkpt>
      <trkpt lat="49.24814" lon="1.01018">
        <ele>115</ele>
        <time>2016-07-10T07:37:28.000Z</time>
      </trkpt>
      <trkpt lat="49.24817" lon="1.01016">
        <ele>116</ele>
        <time>2016-07-10T07:37:29.000Z</time>
      </trkpt>
      <trkpt lat="49.24819" lon="1.01014">
        <ele>118</ele>
        <time>2016-07-10T07:37:30.000Z</time>
      </trkpt>
      <trkpt lat="49.24821" lon="1.01013">
        <ele>119</ele>
        <time>2016-07-10T07:37:31.000Z</time>
      </trkpt>
      <trkpt lat="49.24823" lon="1.01011">
        <ele>119</ele>
        <time>2016-07-10T07:37:32.000Z</time>
      </trkpt>
      <trkpt lat="49.24825" lon="1.01009">
        <ele>120</ele>
        <time>2016-07-10T07:37:33.000Z</time>
      </trkpt>
      <trkpt lat="49.24826" lon="1.01007">
        <ele>121</ele>
        <time>2016-07-10T07:37:34.000Z</time>
      </trkpt>
      <trkpt lat="49.24828" lon="1.01006">
        <ele>121</ele>
        <time>2016-07-10T07:37:35.000Z</time>
      </trkpt>
      <trkpt lat="49.24829" lon="1.01005">
        <ele>121</ele>
        <time>2016-07-10T07:37:36.000Z</time>
      </trkpt>
      <trkpt lat="49.24831" lon="1.01004">
        <ele>123</ele>
        <time>2016-07-10T07:37:37.000Z</time>
      </trkpt>
      <trkpt lat="49.24833" lon="1.01002">
        <ele>124</ele>
        <time>2016-07-10T07:37:38.000Z</time>
      </trkpt>
      <trkpt lat="49.24834" lon="1.01">
        <ele>125</ele>
        <time>2016-07-10T07:37:39.000Z</time>
      </trkpt>
      <trkpt lat="49.24836" lon="1.00998">
        <ele>125</ele>
        <time>2016-07-10T07:37:40.000Z</time>
      </trkpt>
      <trkpt lat="49.24838" lon="1.00997">
        <ele>123</ele>
        <time>2016-07-10T07:37:41.000Z</time>
      </trkpt>
      <trkpt lat="49.24841" lon="1.00997">
        <ele>123</ele>
        <time>2016-07-10T07:37:42.000Z</time>
      </trkpt>
      <trkpt lat="49.24844" lon="1.00995">
        <ele>123</ele>
        <time>2016-07-10T07:37:43.000Z</time>
      </trkpt>
      <trkpt lat="49.24847" lon="1.00993">
        <ele>122</ele>
        <time>2016-07-10T07:37:44.000Z</time>
      </trkpt>
      <trkpt lat="49.24851" lon="1.0099">
        <ele>121</ele>
        <time>2016-07-10T07:37:45.000Z</time>
      </trkpt>
      <trkpt lat="49.24855" lon="1.00986">
        <ele>120</ele>
        <time>2016-07-10T07:37:46.000Z</time>
      </trkpt>
      <trkpt lat="49.24858" lon="1.00982">
        <ele>120</ele>
        <time>2016-07-10T07:37:47.000Z</time>
      </trkpt>
      <trkpt lat="49.2486" lon="1.00979">
        <ele>119</ele>
        <time>2016-07-10T07:37:48.000Z</time>
      </trkpt>
      <trkpt lat="49.24862" lon="1.00976">
        <ele>119</ele>
        <time>2016-07-10T07:37:49.000Z</time>
      </trkpt>
      <trkpt lat="49.24864" lon="1.00973">
        <ele>119</ele>
        <time>2016-07-10T07:37:50.000Z</time>
      </trkpt>
      <trkpt lat="49.24865" lon="1.0097">
        <ele>119</ele>
        <time>2016-07-10T07:37:51.000Z</time>
      </trkpt>
      <trkpt lat="49.24867" lon="1.00967">
        <ele>119</ele>
        <time>2016-07-10T07:37:52.000Z</time>
      </trkpt>
      <trkpt lat="49.24868" lon="1.00964">
        <ele>119</ele>
        <time>2016-07-10T07:37:53.000Z</time>
      </trkpt>
      <trkpt lat="49.2487" lon="1.00961">
        <ele>119</ele>
        <time>2016-07-10T07:37:54.000Z</time>
      </trkpt>
      <trkpt lat="49.24872" lon="1.00958">
        <ele>119</ele>
        <time>2016-07-10T07:37:55.000Z</time>
      </trkpt>
      <trkpt lat="49.24873" lon="1.00956">
        <ele>119</ele>
        <time>2016-07-10T07:37:56.000Z</time>
      </trkpt>
      <trkpt lat="49.24875" lon="1.00953">
        <ele>119</ele>
        <time>2016-07-10T07:37:57.000Z</time>
      </trkpt>
      <trkpt lat="49.24876" lon="1.00951">
        <ele>119</ele>
        <time>2016-07-10T07:37:58.000Z</time>
      </trkpt>
      <trkpt lat="49.24877" lon="1.00948">
        <ele>120</ele>
        <time>2016-07-10T07:37:59.000Z</time>
      </trkpt>
      <trkpt lat="49.24879" lon="1.00946">
        <ele>120</ele>
        <time>2016-07-10T07:38:00.000Z</time>
      </trkpt>
      <trkpt lat="49.2488" lon="1.00944">
        <ele>120</ele>
        <time>2016-07-10T07:38:01.000Z</time>
      </trkpt>
      <trkpt lat="49.24881" lon="1.00943">
        <ele>120</ele>
        <time>2016-07-10T07:38:02.000Z</time>
      </trkpt>
      <trkpt lat="49.24882" lon="1.00941">
        <ele>120</ele>
        <time>2016-07-10T07:38:03.000Z</time>
      </trkpt>
      <trkpt lat="49.24882" lon="1.0094">
        <ele>119</ele>
        <time>2016-07-10T07:38:04.000Z</time>
      </trkpt>
      <trkpt lat="49.24883" lon="1.00938">
        <ele>119</ele>
        <time>2016-07-10T07:38:05.000Z</time>
      </trkpt>
      <trkpt lat="49.24883" lon="1.00936">
        <ele>120</ele>
        <time>2016-07-10T07:38:06.000Z</time>
      </trkpt>
      <trkpt lat="49.24884" lon="1.00934">
        <ele>120</ele>
        <time>2016-07-10T07:38:07.000Z</time>
      </trkpt>
      <trkpt lat="49.24885" lon="1.00932">
        <ele>120</ele>
        <time>2016-07-10T07:38:08.000Z</time>
      </trkpt>
      <trkpt lat="49.24886" lon="1.0093">
        <ele>120</ele>
        <time>2016-07-10T07:38:09.000Z</time>
      </trkpt>
      <trkpt lat="49.24887" lon="1.0093">
        <ele>121</ele>
        <time>2016-07-10T07:38:10.000Z</time>
      </trkpt>
      <trkpt lat="49.24887" lon="1.00929">
        <ele>122</ele>
        <time>2016-07-10T07:38:11.000Z</time>
      </trkpt>
      <trkpt lat="49.24888" lon="1.00929">
        <ele>123</ele>
        <time>2016-07-10T07:38:12.000Z</time>
      </trkpt>
      <trkpt lat="49.24888" lon="1.00929">
        <ele>122</ele>
        <time>2016-07-10T07:38:13.000Z</time>
      </trkpt>
      <trkpt lat="49.24887" lon="1.0093">
        <ele>121</ele>
        <time>2016-07-10T07:38:14.000Z</time>
      </trkpt>
      <trkpt lat="49.24886" lon="1.00931">
        <ele>121</ele>
        <time>2016-07-10T07:38:15.000Z</time>
      </trkpt>
      <trkpt lat="49.24885" lon="1.00932">
        <ele>121</ele>
        <time>2016-07-10T07:38:16.000Z</time>
      </trkpt>
      <trkpt lat="49.24885" lon="1.00933">
        <ele>121</ele>
        <time>2016-07-10T07:38:17.000Z</time>
      </trkpt>
      <trkpt lat="49.24884" lon="1.00935">
        <ele>121</ele>
        <time>2016-07-10T07:38:18.000Z</time>
      </trkpt>
      <trkpt lat="49.24883" lon="1.00937">
        <ele>121</ele>
        <time>2016-07-10T07:38:19.000Z</time>
      </trkpt>
      <trkpt lat="49.24881" lon="1.0094">
        <ele>122</ele>
        <time>2016-07-10T07:38:20.000Z</time>
      </trkpt>
      <trkpt lat="49.24878" lon="1.00945">
        <ele>121</ele>
        <time>2016-07-10T07:38:21.000Z</time>
      </trkpt>
      <trkpt lat="49.24875" lon="1.00949">
        <ele>120</ele>
        <time>2016-07-10T07:38:22.000Z</time>
      </trkpt>
      <trkpt lat="49.24873" lon="1.00954">
        <ele>119</ele>
        <time>2016-07-10T07:38:23.000Z</time>
      </trkpt>
      <trkpt lat="49.2487" lon="1.00959">
        <ele>119</ele>
        <time>2016-07-10T07:38:24.000Z</time>
      </trkpt>
      <trkpt lat="49.24868" lon="1.00963">
        <ele>119</ele>
        <time>2016-07-10T07:38:25.000Z</time>
      </trkpt>
      <trkpt lat="49.24866" lon="1.00968">
        <ele>117</ele>
        <time>2016-07-10T07:38:26.000Z</time>
      </trkpt>
      <trkpt lat="49.24863" lon="1.00972">
        <ele>117</ele>
        <time>2016-07-10T07:38:27.000Z</time>
      </trkpt>
      <trkpt lat="49.24861" lon="1.00976">
        <ele>117</ele>
        <time>2016-07-10T07:38:28.000Z</time>
      </trkpt>
      <trkpt lat="49.24858" lon="1.00981">
        <ele>117</ele>
        <time>2016-07-10T07:38:29.000Z</time>
      </trkpt>
      <trkpt lat="49.24855" lon="1.00986">
        <ele>118</ele>
        <time>2016-07-10T07:38:30.000Z</time>
      </trkpt>
      <trkpt lat="49.24853" lon="1.0099">
        <ele>118</ele>
        <time>2016-07-10T07:38:31.000Z</time>
      </trkpt>
      <trkpt lat="49.2485" lon="1.00995">
        <ele>118</ele>
        <time>2016-07-10T07:38:32.000Z</time>
      </trkpt>
      <trkpt lat="49.24847" lon="1.01">
        <ele>118</ele>
        <time>2016-07-10T07:38:33.000Z</time>
      </trkpt>
      <trkpt lat="49.24844" lon="1.01005">
        <ele>118</ele>
        <time>2016-07-10T07:38:34.000Z</time>
      </trkpt>
      <trkpt lat="49.24841" lon="1.01011">
        <ele>118</ele>
        <time>2016-07-10T07:38:35.000Z</time>
      </trkpt>
      <trkpt lat="49.24837" lon="1.01016">
        <ele>117</ele>
        <time>2016-07-10T07:38:36.000Z</time>
      </trkpt>
      <trkpt lat="49.24833" lon="1.01021">
        <ele>118</ele>
        <time>2016-07-10T07:38:37.000Z</time>
      </trkpt>
      <trkpt lat="49.24829" lon="1.01027">
        <ele>118</ele>
        <time>2016-07-10T07:38:38.000Z</time>
      </trkpt>
      <trkpt lat="49.24825" lon="1.01033">
        <ele>118</ele>
        <time>2016-07-10T07:38:39.000Z</time>
      </trkpt>
      <trkpt lat="49.24821" lon="1.01039">
        <ele>118</ele>
        <time>2016-07-10T07:38:40.000Z</time>
      </trkpt>
      <trkpt lat="49.24816" lon="1.01046">
        <ele>117</ele>
        <time>2016-07-10T07:38:41.000Z</time>
      </trkpt>
      <trkpt lat="49.24812" lon="1.01053">
        <ele>117</ele>
        <time>2016-07-10T07:38:42.000Z</time>
      </trkpt>
      <trkpt lat="49.24808" lon="1.01061">
        <ele>116</ele>
        <time>2016-07-10T07:38:43.000Z</time>
      </trkpt>
      <trkpt lat="49.24804" lon="1.01069">
        <ele>116</ele>
        <time>2016-07-10T07:38:44.000Z</time>
      </trkpt>
      <trkpt lat="49.248" lon="1.01075">
        <ele>116</ele>
        <time>2016-07-10T07:38:45.000Z</time>
      </trkpt>
      <trkpt lat="49.24797" lon="1.01082">
        <ele>117</ele>
        <time>2016-07-10T07:38:46.000Z</time>
      </trkpt>
      <trkpt lat="49.24794" lon="1.01088">
        <ele>117</ele>
        <time>2016-07-10T07:38:47.000Z</time>
      </trkpt>
      <trkpt lat="49.24791" lon="1.01094">
        <ele>117</ele>
        <time>2016-07-10T07:38:48.000Z</time>
      </trkpt>
      <trkpt lat="49.24788" lon="1.01099">
        <ele>117</ele>
        <time>2016-07-10T07:38:49.000Z</time>
      </trkpt>
      <trkpt lat="49.24785" lon="1.01105">
        <ele>118</ele>
        <time>2016-07-10T07:38:50.000Z</time>
      </trkpt>
      <trkpt lat="49.24781" lon="1.01111">
        <ele>117</ele>
        <time>2016-07-10T07:38:51.000Z</time>
      </trkpt>
      <trkpt lat="49.24778" lon="1.01116">
        <ele>117</ele>
        <time>2016-07-10T07:38:52.000Z</time>
      </trkpt>
      <trkpt lat="49.24774" lon="1.01122">
        <ele>116</ele>
        <time>2016-07-10T07:38:53.000Z</time>
      </trkpt>
      <trkpt lat="49.2477" lon="1.01127">
        <ele>116</ele>
        <time>2016-07-10T07:38:54.000Z</time>
      </trkpt>
      <trkpt lat="49.24767" lon="1.01133">
        <ele>117</ele>
        <time>2016-07-10T07:38:55.000Z</time>
      </trkpt>
      <trkpt lat="49.24763" lon="1.01139">
        <ele>116</ele>
        <time>2016-07-10T07:38:56.000Z</time>
      </trkpt>
      <trkpt lat="49.2476" lon="1.01145">
        <ele>117</ele>
        <time>2016-07-10T07:38:57.000Z</time>
      </trkpt>
      <trkpt lat="49.24757" lon="1.0115">
        <ele>117</ele>
        <time>2016-07-10T07:38:58.000Z</time>
      </trkpt>
      <trkpt lat="49.24753" lon="1.01156">
        <ele>117</ele>
        <time>2016-07-10T07:38:59.000Z</time>
      </trkpt>
      <trkpt lat="49.24749" lon="1.01161">
        <ele>117</ele>
        <time>2016-07-10T07:39:00.000Z</time>
      </trkpt>
      <trkpt lat="49.24746" lon="1.01167">
        <ele>117</ele>
        <time>2016-07-10T07:39:01.000Z</time>
      </trkpt>
      <trkpt lat="49.24742" lon="1.01173">
        <ele>118</ele>
        <time>2016-07-10T07:39:02.000Z</time>
      </trkpt>
      <trkpt lat="49.24739" lon="1.01179">
        <ele>118</ele>
        <time>2016-07-10T07:39:03.000Z</time>
      </trkpt>
      <trkpt lat="49.24736" lon="1.01184">
        <ele>118</ele>
        <time>2016-07-10T07:39:04.000Z</time>
      </trkpt>
      <trkpt lat="49.24733" lon="1.0119">
        <ele>119</ele>
        <time>2016-07-10T07:39:05.000Z</time>
      </trkpt>
      <trkpt lat="49.2473" lon="1.01195">
        <ele>119</ele>
        <time>2016-07-10T07:39:06.000Z</time>
      </trkpt>
      <trkpt lat="49.24727" lon="1.01201">
        <ele>119</ele>
        <time>2016-07-10T07:39:07.000Z</time>
      </trkpt>
      <trkpt lat="49.24724" lon="1.01207">
        <ele>119</ele>
        <time>2016-07-10T07:39:08.000Z</time>
      </trkpt>
      <trkpt lat="49.24721" lon="1.01212">
        <ele>119</ele>
        <time>2016-07-10T07:39:09.000Z</time>
      </trkpt>
      <trkpt lat="49.24717" lon="1.01218">
        <ele>119</ele>
        <time>2016-07-10T07:39:10.000Z</time>
      </trkpt>
      <trkpt lat="49.24714" lon="1.01223">
        <ele>118</ele>
        <time>2016-07-10T07:39:11.000Z</time>
      </trkpt>
      <trkpt lat="49.24711" lon="1.01228">
        <ele>118</ele>
        <time>2016-07-10T07:39:12.000Z</time>
      </trkpt>
      <trkpt lat="49.24709" lon="1.01233">
        <ele>118</ele>
        <time>2016-07-10T07:39:13.000Z</time>
      </trkpt>
      <trkpt lat="49.24706" lon="1.01237">
        <ele>119</ele>
        <time>2016-07-10T07:39:14.000Z</time>
      </trkpt>
      <trkpt lat="49.24704" lon="1.0124">
        <ele>118</ele>
        <time>2016-07-10T07:39:15.000Z</time>
      </trkpt>
      <trkpt lat="49.24701" lon="1.01244">
        <ele>118</ele>
        <time>2016-07-10T07:39:16.000Z</time>
      </trkpt>
      <trkpt lat="49.24698" lon="1.01248">
        <ele>119</ele>
        <time>2016-07-10T07:39:17.000Z</time>
      </trkpt>
      <trkpt lat="49.24696" lon="1.01252">
        <ele>119</ele>
        <time>2016-07-10T07:39:18.000Z</time>
      </trkpt>
      <trkpt lat="49.24693" lon="1.01256">
        <ele>119</ele>
        <time>2016-07-10T07:39:19.000Z</time>
      </trkpt>
      <trkpt lat="49.2469" lon="1.0126">
        <ele>119</ele>
        <time>2016-07-10T07:39:20.000Z</time>
      </trkpt>
      <trkpt lat="49.24687" lon="1.01263">
        <ele>118</ele>
        <time>2016-07-10T07:39:21.000Z</time>
      </trkpt>
      <trkpt lat="49.24684" lon="1.01267">
        <ele>118</ele>
        <time>2016-07-10T07:39:22.000Z</time>
      </trkpt>
      <trkpt lat="49.2468" lon="1.0127">
        <ele>117</ele>
        <time>2016-07-10T07:39:23.000Z</time>
      </trkpt>
      <trkpt lat="49.24676" lon="1.01274">
        <ele>117</ele>
        <time>2016-07-10T07:39:24.000Z</time>
      </trkpt>
      <trkpt lat="49.24672" lon="1.01279">
        <ele>116</ele>
        <time>2016-07-10T07:39:25.000Z</time>
      </trkpt>
      <trkpt lat="49.24668" lon="1.01283">
        <ele>116</ele>
        <time>2016-07-10T07:39:26.000Z</time>
      </trkpt>
      <trkpt lat="49.24665" lon="1.01287">
        <ele>116</ele>
        <time>2016-07-10T07:39:27.000Z</time>
      </trkpt>
      <trkpt lat="49.24661" lon="1.01292">
        <ele>115</ele>
        <time>2016-07-10T07:39:28.000Z</time>
      </trkpt>
      <trkpt lat="49.24658" lon="1.01295">
        <ele>114</ele>
        <time>2016-07-10T07:39:29.000Z</time>
      </trkpt>
      <trkpt lat="49.24655" lon="1.01298">
        <ele>114</ele>
        <time>2016-07-10T07:39:30.000Z</time>
      </trkpt>
      <trkpt lat="49.24652" lon="1.01301">
        <ele>113</ele>
        <time>2016-07-10T07:39:31.000Z</time>
      </trkpt>
      <trkpt lat="49.24649" lon="1.01303">
        <ele>113</ele>
        <time>2016-07-10T07:39:32.000Z</time>
      </trkpt>
      <trkpt lat="49.24647" lon="1.01306">
        <ele>113</ele>
        <time>2016-07-10T07:39:33.000Z</time>
      </trkpt>
      <trkpt lat="49.24645" lon="1.01308">
        <ele>113</ele>
        <time>2016-07-10T07:39:34.000Z</time>
      </trkpt>
      <trkpt lat="49.24643" lon="1.01311">
        <ele>112</ele>
        <time>2016-07-10T07:39:35.000Z</time>
      </trkpt>
      <trkpt lat="49.24641" lon="1.01313">
        <ele>112</ele>
        <time>2016-07-10T07:39:36.000Z</time>
      </trkpt>
      <trkpt lat="49.2464" lon="1.01315">
        <ele>111</ele>
        <time>2016-07-10T07:39:37.000Z</time>
      </trkpt>
      <trkpt lat="49.24639" lon="1.01317">
        <ele>110</ele>
        <time>2016-07-10T07:39:38.000Z</time>
      </trkpt>
      <trkpt lat="49.24638" lon="1.01319">
        <ele>111</ele>
        <time>2016-07-10T07:39:39.000Z</time>
      </trkpt>
      <trkpt lat="49.24636" lon="1.01322">
        <ele>110</ele>
        <time>2016-07-10T07:39:40.000Z</time>
      </trkpt>
      <trkpt lat="49.24635" lon="1.01324">
        <ele>109</ele>
        <time>2016-07-10T07:39:41.000Z</time>
      </trkpt>
      <trkpt lat="49.24633" lon="1.01326">
        <ele>109</ele>
        <time>2016-07-10T07:39:42.000Z</time>
      </trkpt>
      <trkpt lat="49.24631" lon="1.01328">
        <ele>109</ele>
        <time>2016-07-10T07:39:43.000Z</time>
      </trkpt>
      <trkpt lat="49.24628" lon="1.01331">
        <ele>109</ele>
        <time>2016-07-10T07:39:44.000Z</time>
      </trkpt>
      <trkpt lat="49.24625" lon="1.01335">
        <ele>109</ele>
        <time>2016-07-10T07:39:45.000Z</time>
      </trkpt>
      <trkpt lat="49.24622" lon="1.01338">
        <ele>109</ele>
        <time>2016-07-10T07:39:46.000Z</time>
      </trkpt>
      <trkpt lat="49.24619" lon="1.0134">
        <ele>110</ele>
        <time>2016-07-10T07:39:47.000Z</time>
      </trkpt>
      <trkpt lat="49.24616" lon="1.0134">
        <ele>111</ele>
        <time>2016-07-10T07:39:48.000Z</time>
      </trkpt>
      <trkpt lat="49.24613" lon="1.01341">
        <ele>111</ele>
        <time>2016-07-10T07:39:49.000Z</time>
      </trkpt>
      <trkpt lat="49.2461" lon="1.01343">
        <ele>112</ele>
        <time>2016-07-10T07:39:50.000Z</time>
      </trkpt>
      <trkpt lat="49.24608" lon="1.01345">
        <ele>113</ele>
        <time>2016-07-10T07:39:51.000Z</time>
      </trkpt>
      <trkpt lat="49.24605" lon="1.01348">
        <ele>113</ele>
        <time>2016-07-10T07:39:52.000Z</time>
      </trkpt>
      <trkpt lat="49.24604" lon="1.0135">
        <ele>113</ele>
        <time>2016-07-10T07:39:53.000Z</time>
      </trkpt>
      <trkpt lat="49.24602" lon="1.01352">
        <ele>114</ele>
        <time>2016-07-10T07:39:54.000Z</time>
      </trkpt>
      <trkpt lat="49.24601" lon="1.01353">
        <ele>114</ele>
        <time>2016-07-10T07:39:55.000Z</time>
      </trkpt>
      <trkpt lat="49.24599" lon="1.01355">
        <ele>114</ele>
        <time>2016-07-10T07:39:56.000Z</time>
      </trkpt>
      <trkpt lat="49.24597" lon="1.01357">
        <ele>114</ele>
        <time>2016-07-10T07:39:57.000Z</time>
      </trkpt>
      <trkpt lat="49.24595" lon="1.01359">
        <ele>114</ele>
        <time>2016-07-10T07:39:58.000Z</time>
      </trkpt>
      <trkpt lat="49.24593" lon="1.01361">
        <ele>115</ele>
        <time>2016-07-10T07:39:59.000Z</time>
      </trkpt>
      <trkpt lat="49.24591" lon="1.01363">
        <ele>116</ele>
        <time>2016-07-10T07:40:00.000Z</time>
      </trkpt>
      <trkpt lat="49.24589" lon="1.01366">
        <ele>115</ele>
        <time>2016-07-10T07:40:01.000Z</time>
      </trkpt>
      <trkpt lat="49.24587" lon="1.01368">
        <ele>116</ele>
        <time>2016-07-10T07:40:02.000Z</time>
      </trkpt>
      <trkpt lat="49.24585" lon="1.01371">
        <ele>115</ele>
        <time>2016-07-10T07:40:03.000Z</time>
      </trkpt>
      <trkpt lat="49.24583" lon="1.01373">
        <ele>115</ele>
        <time>2016-07-10T07:40:04.000Z</time>
      </trkpt>
      <trkpt lat="49.24581" lon="1.01376">
        <ele>115</ele>
        <time>2016-07-10T07:40:05.000Z</time>
      </trkpt>
      <trkpt lat="49.24577" lon="1.01379">
        <ele>115</ele>
        <time>2016-07-10T07:40:06.000Z</time>
      </trkpt>
      <trkpt lat="49.24575" lon="1.01383">
        <ele>115</ele>
        <time>2016-07-10T07:40:07.000Z</time>
      </trkpt>
      <trkpt lat="49.24572" lon="1.01386">
        <ele>115</ele>
        <time>2016-07-10T07:40:08.000Z</time>
      </trkpt>
      <trkpt lat="49.24569" lon="1.0139">
        <ele>114</ele>
        <time>2016-07-10T07:40:09.000Z</time>
      </trkpt>
      <trkpt lat="49.24567" lon="1.01393">
        <ele>114</ele>
        <time>2016-07-10T07:40:10.000Z</time>
      </trkpt>
      <trkpt lat="49.24564" lon="1.01397">
        <ele>114</ele>
        <time>2016-07-10T07:40:11.000Z</time>
      </trkpt>
      <trkpt lat="49.24561" lon="1.014">
        <ele>114</ele>
        <time>2016-07-10T07:40:12.000Z</time>
      </trkpt>
      <trkpt lat="49.24558" lon="1.01404">
        <ele>113</ele>
        <time>2016-07-10T07:40:13.000Z</time>
      </trkpt>
      <trkpt lat="49.24555" lon="1.01408">
        <ele>113</ele>
        <time>2016-07-10T07:40:14.000Z</time>
      </trkpt>
      <trkpt lat="49.24552" lon="1.01412">
        <ele>111</ele>
        <time>2016-07-10T07:40:15.000Z</time>
      </trkpt>
      <trkpt lat="49.2455" lon="1.01417">
        <ele>111</ele>
        <time>2016-07-10T07:40:16.000Z</time>
      </trkpt>
      <trkpt lat="49.24548" lon="1.01422">
        <ele>111</ele>
        <time>2016-07-10T07:40:17.000Z</time>
      </trkpt>
      <trkpt lat="49.24545" lon="1.01425">
        <ele>111</ele>
        <time>2016-07-10T07:40:18.000Z</time>
      </trkpt>
      <trkpt lat="49.24543" lon="1.01429">
        <ele>112</ele>
        <time>2016-07-10T07:40:19.000Z</time>
      </trkpt>
      <trkpt lat="49.2454" lon="1.01433">
        <ele>112</ele>
        <time>2016-07-10T07:40:20.000Z</time>
      </trkpt>
      <trkpt lat="49.24538" lon="1.01437">
        <ele>112</ele>
        <time>2016-07-10T07:40:21.000Z</time>
      </trkpt>
      <trkpt lat="49.24536" lon="1.01441">
        <ele>112</ele>
        <time>2016-07-10T07:40:22.000Z</time>
      </trkpt>
      <trkpt lat="49.24533" lon="1.01444">
        <ele>113</ele>
        <time>2016-07-10T07:40:23.000Z</time>
      </trkpt>
      <trkpt lat="49.24531" lon="1.01448">
        <ele>112</ele>
        <time>2016-07-10T07:40:24.000Z</time>
      </trkpt>
      <trkpt lat="49.24529" lon="1.01451">
        <ele>112</ele>
        <time>2016-07-10T07:40:25.000Z</time>
      </trkpt>
      <trkpt lat="49.24528" lon="1.01455">
        <ele>112</ele>
        <time>2016-07-10T07:40:26.000Z</time>
      </trkpt>
      <trkpt lat="49.24526" lon="1.0146">
        <ele>111</ele>
        <time>2016-07-10T07:40:27.000Z</time>
      </trkpt>
      <trkpt lat="49.24525" lon="1.01464">
        <ele>111</ele>
        <time>2016-07-10T07:40:28.000Z</time>
      </trkpt>
      <trkpt lat="49.24523" lon="1.01468">
        <ele>111</ele>
        <time>2016-07-10T07:40:29.000Z</time>
      </trkpt>
      <trkpt lat="49.2452" lon="1.01472">
        <ele>111</ele>
        <time>2016-07-10T07:40:30.000Z</time>
      </trkpt>
      <trkpt lat="49.24518" lon="1.01476">
        <ele>111</ele>
        <time>2016-07-10T07:40:31.000Z</time>
      </trkpt>
      <trkpt lat="49.24516" lon="1.0148">
        <ele>111</ele>
        <time>2016-07-10T07:40:32.000Z</time>
      </trkpt>
      <trkpt lat="49.24514" lon="1.01484">
        <ele>111</ele>
        <time>2016-07-10T07:40:33.000Z</time>
      </trkpt>
      <trkpt lat="49.24511" lon="1.01489">
        <ele>112</ele>
        <time>2016-07-10T07:40:34.000Z</time>
      </trkpt>
      <trkpt lat="49.24509" lon="1.01494">
        <ele>112</ele>
        <time>2016-07-10T07:40:35.000Z</time>
      </trkpt>
      <trkpt lat="49.24506" lon="1.01499">
        <ele>112</ele>
        <time>2016-07-10T07:40:36.000Z</time>
      </trkpt>
      <trkpt lat="49.24503" lon="1.01505">
        <ele>112</ele>
        <time>2016-07-10T07:40:37.000Z</time>
      </trkpt>
      <trkpt lat="49.245" lon="1.01511">
        <ele>113</ele>
        <time>2016-07-10T07:40:38.000Z</time>
      </trkpt>
      <trkpt lat="49.24497" lon="1.01517">
        <ele>113</ele>
        <time>2016-07-10T07:40:39.000Z</time>
      </trkpt>
      <trkpt lat="49.24494" lon="1.01523">
        <ele>112</ele>
        <time>2016-07-10T07:40:40.000Z</time>
      </trkpt>
      <trkpt lat="49.2449" lon="1.01529">
        <ele>111</ele>
        <time>2016-07-10T07:40:41.000Z</time>
      </trkpt>
      <trkpt lat="49.24488" lon="1.01535">
        <ele>111</ele>
        <time>2016-07-10T07:40:42.000Z</time>
      </trkpt>
      <trkpt lat="49.24485" lon="1.0154">
        <ele>110</ele>
        <time>2016-07-10T07:40:43.000Z</time>
      </trkpt>
      <trkpt lat="49.24482" lon="1.01546">
        <ele>110</ele>
        <time>2016-07-10T07:40:44.000Z</time>
      </trkpt>
      <trkpt lat="49.24479" lon="1.01552">
        <ele>109</ele>
        <time>2016-07-10T07:40:45.000Z</time>
      </trkpt>
      <trkpt lat="49.24476" lon="1.01557">
        <ele>110</ele>
        <time>2016-07-10T07:40:46.000Z</time>
      </trkpt>
      <trkpt lat="49.24473" lon="1.01562">
        <ele>110</ele>
        <time>2016-07-10T07:40:47.000Z</time>
      </trkpt>
      <trkpt lat="49.24471" lon="1.01567">
        <ele>110</ele>
        <time>2016-07-10T07:40:48.000Z</time>
      </trkpt>
      <trkpt lat="49.24469" lon="1.01572">
        <ele>110</ele>
        <time>2016-07-10T07:40:49.000Z</time>
      </trkpt>
      <trkpt lat="49.24466" lon="1.01577">
        <ele>110</ele>
        <time>2016-07-10T07:40:50.000Z</time>
      </trkpt>
      <trkpt lat="49.24464" lon="1.01582">
        <ele>109</ele>
        <time>2016-07-10T07:40:51.000Z</time>
      </trkpt>
      <trkpt lat="49.24463" lon="1.01587">
        <ele>109</ele>
        <time>2016-07-10T07:40:52.000Z</time>
      </trkpt>
      <trkpt lat="49.24462" lon="1.01591">
        <ele>109</ele>
        <time>2016-07-10T07:40:53.000Z</time>
      </trkpt>
      <trkpt lat="49.24461" lon="1.01596">
        <ele>108</ele>
        <time>2016-07-10T07:40:54.000Z</time>
      </trkpt>
      <trkpt lat="49.2446" lon="1.01601">
        <ele>108</ele>
        <time>2016-07-10T07:40:55.000Z</time>
      </trkpt>
      <trkpt lat="49.24459" lon="1.01606">
        <ele>107</ele>
        <time>2016-07-10T07:40:56.000Z</time>
      </trkpt>
      <trkpt lat="49.24459" lon="1.01612">
        <ele>107</ele>
        <time>2016-07-10T07:40:57.000Z</time>
      </trkpt>
      <trkpt lat="49.24458" lon="1.01618">
        <ele>107</ele>
        <time>2016-07-10T07:40:58.000Z</time>
      </trkpt>
      <trkpt lat="49.24458" lon="1.01625">
        <ele>106</ele>
        <time>2016-07-10T07:40:59.000Z</time>
      </trkpt>
      <trkpt lat="49.24457" lon="1.01631">
        <ele>106</ele>
        <time>2016-07-10T07:41:00.000Z</time>
      </trkpt>
      <trkpt lat="49.24456" lon="1.01638">
        <ele>105</ele>
        <time>2016-07-10T07:41:01.000Z</time>
      </trkpt>
      <trkpt lat="49.24456" lon="1.01645">
        <ele>106</ele>
        <time>2016-07-10T07:41:02.000Z</time>
      </trkpt>
      <trkpt lat="49.24454" lon="1.01651">
        <ele>105</ele>
        <time>2016-07-10T07:41:03.000Z</time>
      </trkpt>
      <trkpt lat="49.24452" lon="1.01657">
        <ele>105</ele>
        <time>2016-07-10T07:41:04.000Z</time>
      </trkpt>
      <trkpt lat="49.24448" lon="1.01661">
        <ele>105</ele>
        <time>2016-07-10T07:41:05.000Z</time>
      </trkpt>
      <trkpt lat="49.24445" lon="1.01665">
        <ele>105</ele>
        <time>2016-07-10T07:41:06.000Z</time>
      </trkpt>
      <trkpt lat="49.24441" lon="1.01668">
        <ele>105</ele>
        <time>2016-07-10T07:41:07.000Z</time>
      </trkpt>
      <trkpt lat="49.24437" lon="1.01671">
        <ele>105</ele>
        <time>2016-07-10T07:41:08.000Z</time>
      </trkpt>
      <trkpt lat="49.24434" lon="1.01675">
        <ele>105</ele>
        <time>2016-07-10T07:41:09.000Z</time>
      </trkpt>
      <trkpt lat="49.24431" lon="1.01679">
        <ele>106</ele>
        <time>2016-07-10T07:41:10.000Z</time>
      </trkpt>
      <trkpt lat="49.24428" lon="1.01683">
        <ele>106</ele>
        <time>2016-07-10T07:41:11.000Z</time>
      </trkpt>
      <trkpt lat="49.24425" lon="1.01686">
        <ele>107</ele>
        <time>2016-07-10T07:41:12.000Z</time>
      </trkpt>
      <trkpt lat="49.24422" lon="1.01688">
        <ele>108</ele>
        <time>2016-07-10T07:41:13.000Z</time>
      </trkpt>
      <trkpt lat="49.24419" lon="1.0169">
        <ele>108</ele>
        <time>2016-07-10T07:41:14.000Z</time>
      </trkpt>
      <trkpt lat="49.24416" lon="1.01692">
        <ele>108</ele>
        <time>2016-07-10T07:41:15.000Z</time>
      </trkpt>
      <trkpt lat="49.24412" lon="1.01694">
        <ele>108</ele>
        <time>2016-07-10T07:41:16.000Z</time>
      </trkpt>
      <trkpt lat="49.24408" lon="1.01696">
        <ele>107</ele>
        <time>2016-07-10T07:41:17.000Z</time>
      </trkpt>
      <trkpt lat="49.24403" lon="1.01698">
        <ele>107</ele>
        <time>2016-07-10T07:41:18.000Z</time>
      </trkpt>
      <trkpt lat="49.24399" lon="1.017">
        <ele>106</ele>
        <time>2016-07-10T07:41:19.000Z</time>
      </trkpt>
      <trkpt lat="49.24395" lon="1.01702">
        <ele>106</ele>
        <time>2016-07-10T07:41:20.000Z</time>
      </trkpt>
      <trkpt lat="49.24391" lon="1.01704">
        <ele>106</ele>
        <time>2016-07-10T07:41:21.000Z</time>
      </trkpt>
      <trkpt lat="49.24387" lon="1.01706">
        <ele>106</ele>
        <time>2016-07-10T07:41:22.000Z</time>
      </trkpt>
      <trkpt lat="49.24383" lon="1.01707">
        <ele>106</ele>
        <time>2016-07-10T07:41:23.000Z</time>
      </trkpt>
      <trkpt lat="49.2438" lon="1.01709">
        <ele>105</ele>
        <time>2016-07-10T07:41:24.000Z</time>
      </trkpt>
      <trkpt lat="49.24377" lon="1.01711">
        <ele>104</ele>
        <time>2016-07-10T07:41:25.000Z</time>
      </trkpt>
      <trkpt lat="49.24374" lon="1.01714">
        <ele>103</ele>
        <time>2016-07-10T07:41:26.000Z</time>
      </trkpt>
      <trkpt lat="49.24371" lon="1.01717">
        <ele>103</ele>
        <time>2016-07-10T07:41:27.000Z</time>
      </trkpt>
      <trkpt lat="49.24369" lon="1.01721">
        <ele>102</ele>
        <time>2016-07-10T07:41:28.000Z</time>
      </trkpt>
      <trkpt lat="49.24368" lon="1.01725">
        <ele>102</ele>
        <time>2016-07-10T07:41:29.000Z</time>
      </trkpt>
      <trkpt lat="49.24366" lon="1.01728">
        <ele>101</ele>
        <time>2016-07-10T07:41:30.000Z</time>
      </trkpt>
      <trkpt lat="49.24364" lon="1.01731">
        <ele>100</ele>
        <time>2016-07-10T07:41:31.000Z</time>
      </trkpt>
      <trkpt lat="49.24363" lon="1.01735">
        <ele>99</ele>
        <time>2016-07-10T07:41:32.000Z</time>
      </trkpt>
      <trkpt lat="49.24362" lon="1.01739">
        <ele>99</ele>
        <time>2016-07-10T07:41:33.000Z</time>
      </trkpt>
      <trkpt lat="49.24362" lon="1.01743">
        <ele>98</ele>
        <time>2016-07-10T07:41:34.000Z</time>
      </trkpt>
      <trkpt lat="49.24363" lon="1.01748">
        <ele>98</ele>
        <time>2016-07-10T07:41:35.000Z</time>
      </trkpt>
      <trkpt lat="49.24363" lon="1.01753">
        <ele>97</ele>
        <time>2016-07-10T07:41:36.000Z</time>
      </trkpt>
      <trkpt lat="49.24364" lon="1.01759">
        <ele>97</ele>
        <time>2016-07-10T07:41:37.000Z</time>
      </trkpt>
      <trkpt lat="49.24365" lon="1.01764">
        <ele>97</ele>
        <time>2016-07-10T07:41:38.000Z</time>
      </trkpt>
      <trkpt lat="49.24366" lon="1.01768">
        <ele>97</ele>
        <time>2016-07-10T07:41:39.000Z</time>
      </trkpt>
      <trkpt lat="49.24366" lon="1.01773">
        <ele>96</ele>
        <time>2016-07-10T07:41:40.000Z</time>
      </trkpt>
      <trkpt lat="49.24367" lon="1.01777">
        <ele>96</ele>
        <time>2016-07-10T07:41:41.000Z</time>
      </trkpt>
      <trkpt lat="49.24367" lon="1.01781">
        <ele>95</ele>
        <time>2016-07-10T07:41:42.000Z</time>
      </trkpt>
      <trkpt lat="49.24367" lon="1.01784">
        <ele>95</ele>
        <time>2016-07-10T07:41:43.000Z</time>
      </trkpt>
      <trkpt lat="49.24366" lon="1.01787">
        <ele>95</ele>
        <time>2016-07-10T07:41:44.000Z</time>
      </trkpt>
      <trkpt lat="49.24365" lon="1.01789">
        <ele>96</ele>
        <time>2016-07-10T07:41:45.000Z</time>
      </trkpt>
      <trkpt lat="49.24365" lon="1.01791">
        <ele>97</ele>
        <time>2016-07-10T07:41:46.000Z</time>
      </trkpt>
      <trkpt lat="49.24364" lon="1.01794">
        <ele>97</ele>
        <time>2016-07-10T07:41:47.000Z</time>
      </trkpt>
      <trkpt lat="49.24364" lon="1.01796">
        <ele>97</ele>
        <time>2016-07-10T07:41:48.000Z</time>
      </trkpt>
      <trkpt lat="49.24364" lon="1.01799">
        <ele>97</ele>
        <time>2016-07-10T07:41:49.000Z</time>
      </trkpt>
      <trkpt lat="49.24364" lon="1.01802">
        <ele>98</ele>
        <time>2016-07-10T07:41:50.000Z</time>
      </trkpt>
      <trkpt lat="49.24364" lon="1.01805">
        <ele>98</ele>
        <time>2016-07-10T07:41:51.000Z</time>
      </trkpt>
      <trkpt lat="49.24363" lon="1.01808">
        <ele>98</ele>
        <time>2016-07-10T07:41:52.000Z</time>
      </trkpt>
      <trkpt lat="49.24362" lon="1.01811">
        <ele>99</ele>
        <time>2016-07-10T07:41:53.000Z</time>
      </trkpt>
      <trkpt lat="49.24361" lon="1.01814">
        <ele>99</ele>
        <time>2016-07-10T07:41:54.000Z</time>
      </trkpt>
      <trkpt lat="49.24361" lon="1.01816">
        <ele>99</ele>
        <time>2016-07-10T07:41:55.000Z</time>
      </trkpt>
      <trkpt lat="49.2436" lon="1.01818">
        <ele>100</ele>
        <time>2016-07-10T07:41:56.000Z</time>
      </trkpt>
      <trkpt lat="49.24359" lon="1.0182">
        <ele>102</ele>
        <time>2016-07-10T07:41:57.000Z</time>
      </trkpt>
      <trkpt lat="49.24359" lon="1.01822">
        <ele>102</ele>
        <time>2016-07-10T07:41:58.000Z</time>
      </trkpt>
      <trkpt lat="49.24359" lon="1.01824">
        <ele>103</ele>
        <time>2016-07-10T07:41:59.000Z</time>
      </trkpt>
      <trkpt lat="49.2436" lon="1.01826">
        <ele>103</ele>
        <time>2016-07-10T07:42:00.000Z</time>
      </trkpt>
      <trkpt lat="49.2436" lon="1.01829">
        <ele>103</ele>
        <time>2016-07-10T07:42:01.000Z</time>
      </trkpt>
      <trkpt lat="49.24361" lon="1.01831">
        <ele>103</ele>
        <time>2016-07-10T07:42:02.000Z</time>
      </trkpt>
      <trkpt lat="49.24361" lon="1.01833">
        <ele>104</ele>
        <time>2016-07-10T07:42:03.000Z</time>
      </trkpt>
      <trkpt lat="49.24362" lon="1.01834">
        <ele>104</ele>
        <time>2016-07-10T07:42:04.000Z</time>
      </trkpt>
      <trkpt lat="49.24361" lon="1.01836">
        <ele>104</ele>
        <time>2016-07-10T07:42:05.000Z</time>
      </trkpt>
      <trkpt lat="49.24361" lon="1.01837">
        <ele>105</ele>
        <time>2016-07-10T07:42:06.000Z</time>
      </trkpt>
      <trkpt lat="49.24361" lon="1.01838">
        <ele>105</ele>
        <time>2016-07-10T07:42:07.000Z</time>
      </trkpt>
      <trkpt lat="49.24361" lon="1.0184">
        <ele>104</ele>
        <time>2016-07-10T07:42:08.000Z</time>
      </trkpt>
      <trkpt lat="49.2436" lon="1.01843">
        <ele>104</ele>
        <time>2016-07-10T07:42:09.000Z</time>
      </trkpt>
      <trkpt lat="49.2436" lon="1.01846">
        <ele>103</ele>
        <time>2016-07-10T07:42:10.000Z</time>
      </trkpt>
      <trkpt lat="49.2436" lon="1.0185">
        <ele>102</ele>
        <time>2016-07-10T07:42:11.000Z</time>
      </trkpt>
      <trkpt lat="49.2436" lon="1.01853">
        <ele>102</ele>
        <time>2016-07-10T07:42:12.000Z</time>
      </trkpt>
      <trkpt lat="49.2436" lon="1.01856">
        <ele>102</ele>
        <time>2016-07-10T07:42:13.000Z</time>
      </trkpt>
      <trkpt lat="49.24359" lon="1.01858">
        <ele>101</ele>
        <time>2016-07-10T07:42:14.000Z</time>
      </trkpt>
      <trkpt lat="49.24358" lon="1.01861">
        <ele>101</ele>
        <time>2016-07-10T07:42:15.000Z</time>
      </trkpt>
      <trkpt lat="49.24356" lon="1.01865">
        <ele>101</ele>
        <time>2016-07-10T07:42:16.000Z</time>
      </trkpt>
      <trkpt lat="49.24355" lon="1.01869">
        <ele>100</ele>
        <time>2016-07-10T07:42:17.000Z</time>
      </trkpt>
      <trkpt lat="49.24355" lon="1.01873">
        <ele>100</ele>
        <time>2016-07-10T07:42:18.000Z</time>
      </trkpt>
      <trkpt lat="49.24355" lon="1.01878">
        <ele>99</ele>
        <time>2016-07-10T07:42:19.000Z</time>
      </trkpt>
      <trkpt lat="49.24356" lon="1.01883">
        <ele>98</ele>
        <time>2016-07-10T07:42:20.000Z</time>
      </trkpt>
      <trkpt lat="49.24357" lon="1.01889">
        <ele>98</ele>
        <time>2016-07-10T07:42:21.000Z</time>
      </trkpt>
      <trkpt lat="49.24357" lon="1.01893">
        <ele>98</ele>
        <time>2016-07-10T07:42:22.000Z</time>
      </trkpt>
      <trkpt lat="49.24358" lon="1.01897">
        <ele>97</ele>
        <time>2016-07-10T07:42:23.000Z</time>
      </trkpt>
      <trkpt lat="49.24358" lon="1.019">
        <ele>96</ele>
        <time>2016-07-10T07:42:24.000Z</time>
      </trkpt>
      <trkpt lat="49.24358" lon="1.01903">
        <ele>97</ele>
        <time>2016-07-10T07:42:25.000Z</time>
      </trkpt>
      <trkpt lat="49.24358" lon="1.01905">
        <ele>97</ele>
        <time>2016-07-10T07:42:26.000Z</time>
      </trkpt>
      <trkpt lat="49.24358" lon="1.01907">
        <ele>97</ele>
        <time>2016-07-10T07:42:27.000Z</time>
      </trkpt>
      <trkpt lat="49.24359" lon="1.01908">
        <ele>96</ele>
        <time>2016-07-10T07:42:28.000Z</time>
      </trkpt>
      <trkpt lat="49.24359" lon="1.01909">
        <ele>97</ele>
        <time>2016-07-10T07:42:29.000Z</time>
      </trkpt>
      <trkpt lat="49.2436" lon="1.01911">
        <ele>97</ele>
        <time>2016-07-10T07:42:30.000Z</time>
      </trkpt>
      <trkpt lat="49.24361" lon="1.01912">
        <ele>96</ele>
        <time>2016-07-10T07:42:31.000Z</time>
      </trkpt>
      <trkpt lat="49.24362" lon="1.01914">
        <ele>97</ele>
        <time>2016-07-10T07:42:32.000Z</time>
      </trkpt>
      <trkpt lat="49.24362" lon="1.01915">
        <ele>97</ele>
        <time>2016-07-10T07:42:33.000Z</time>
      </trkpt>
      <trkpt lat="49.24363" lon="1.01916">
        <ele>97</ele>
        <time>2016-07-10T07:42:34.000Z</time>
      </trkpt>
      <trkpt lat="49.24363" lon="1.01917">
        <ele>97</ele>
        <time>2016-07-10T07:42:35.000Z</time>
      </trkpt>
      <trkpt lat="49.24364" lon="1.01917">
        <ele>98</ele>
        <time>2016-07-10T07:42:36.000Z</time>
      </trkpt>
      <trkpt lat="49.24365" lon="1.01918">
        <ele>98</ele>
        <time>2016-07-10T07:42:37.000Z</time>
      </trkpt>
      <trkpt lat="49.24366" lon="1.01919">
        <ele>99</ele>
        <time>2016-07-10T07:42:38.000Z</time>
      </trkpt>
      <trkpt lat="49.24366" lon="1.01919">
        <ele>99</ele>
        <time>2016-07-10T07:42:39.000Z</time>
      </trkpt>
      <trkpt lat="49.24367" lon="1.0192">
        <ele>99</ele>
        <time>2016-07-10T07:42:40.000Z</time>
      </trkpt>
      <trkpt lat="49.24367" lon="1.0192">
        <ele>100</ele>
        <time>2016-07-10T07:42:41.000Z</time>
      </trkpt>
      <trkpt lat="49.24367" lon="1.01921">
        <ele>100</ele>
        <time>2016-07-10T07:42:42.000Z</time>
      </trkpt>
      <trkpt lat="49.24368" lon="1.01922">
        <ele>101</ele>
        <time>2016-07-10T07:42:43.000Z</time>
      </trkpt>
      <trkpt lat="49.24369" lon="1.01923">
        <ele>101</ele>
        <time>2016-07-10T07:42:44.000Z</time>
      </trkpt>
      <trkpt lat="49.2437" lon="1.01924">
        <ele>101</ele>
        <time>2016-07-10T07:42:45.000Z</time>
      </trkpt>
      <trkpt lat="49.24371" lon="1.01926">
        <ele>100</ele>
        <time>2016-07-10T07:42:46.000Z</time>
      </trkpt>
      <trkpt lat="49.24372" lon="1.01926">
        <ele>100</ele>
        <time>2016-07-10T07:42:47.000Z</time>
      </trkpt>
      <trkpt lat="49.24373" lon="1.01927">
        <ele>100</ele>
        <time>2016-07-10T07:42:48.000Z</time>
      </trkpt>
      <trkpt lat="49.24373" lon="1.01927">
        <ele>101</ele>
        <time>2016-07-10T07:42:49.000Z</time>
      </trkpt>
      <trkpt lat="49.24374" lon="1.01927">
        <ele>101</ele>
        <time>2016-07-10T07:42:50.000Z</time>
      </trkpt>
      <trkpt lat="49.24376" lon="1.01928">
        <ele>101</ele>
        <time>2016-07-10T07:42:51.000Z</time>
      </trkpt>
      <trkpt lat="49.24377" lon="1.01928">
        <ele>101</ele>
        <time>2016-07-10T07:42:52.000Z</time>
      </trkpt>
      <trkpt lat="49.24379" lon="1.01929">
        <ele>101</ele>
        <time>2016-07-10T07:42:53.000Z</time>
      </trkpt>
      <trkpt lat="49.2438" lon="1.01929">
        <ele>101</ele>
        <time>2016-07-10T07:42:54.000Z</time>
      </trkpt>
      <trkpt lat="49.24382" lon="1.0193">
        <ele>101</ele>
        <time>2016-07-10T07:42:55.000Z</time>
      </trkpt>
      <trkpt lat="49.24383" lon="1.01931">
        <ele>100</ele>
        <time>2016-07-10T07:42:56.000Z</time>
      </trkpt>
      <trkpt lat="49.24385" lon="1.01932">
        <ele>100</ele>
        <time>2016-07-10T07:42:57.000Z</time>
      </trkpt>
      <trkpt lat="49.24387" lon="1.01933">
        <ele>100</ele>
        <time>2016-07-10T07:42:58.000Z</time>
      </trkpt>
      <trkpt lat="49.24388" lon="1.01934">
        <ele>100</ele>
        <time>2016-07-10T07:42:59.000Z</time>
      </trkpt>
      <trkpt lat="49.24389" lon="1.01935">
        <ele>101</ele>
        <time>2016-07-10T07:43:00.000Z</time>
      </trkpt>
      <trkpt lat="49.2439" lon="1.01935">
        <ele>101</ele>
        <time>2016-07-10T07:43:01.000Z</time>
      </trkpt>
      <trkpt lat="49.24392" lon="1.01935">
        <ele>101</ele>
        <time>2016-07-10T07:43:02.000Z</time>
      </trkpt>
      <trkpt lat="49.24392" lon="1.01935">
        <ele>101</ele>
        <time>2016-07-10T07:43:03.000Z</time>
      </trkpt>
      <trkpt lat="49.24393" lon="1.01936">
        <ele>101</ele>
        <time>2016-07-10T07:43:04.000Z</time>
      </trkpt>
      <trkpt lat="49.24394" lon="1.01937">
        <ele>101</ele>
        <time>2016-07-10T07:43:05.000Z</time>
      </trkpt>
      <trkpt lat="49.24394" lon="1.01937">
        <ele>101</ele>
        <time>2016-07-10T07:43:06.000Z</time>
      </trkpt>
      <trkpt lat="49.24395" lon="1.01938">
        <ele>101</ele>
        <time>2016-07-10T07:43:07.000Z</time>
      </trkpt>
      <trkpt lat="49.24397" lon="1.01938">
        <ele>101</ele>
        <time>2016-07-10T07:43:08.000Z</time>
      </trkpt>
      <trkpt lat="49.24398" lon="1.01938">
        <ele>101</ele>
        <time>2016-07-10T07:43:09.000Z</time>
      </trkpt>
      <trkpt lat="49.24399" lon="1.01938">
        <ele>101</ele>
        <time>2016-07-10T07:43:10.000Z</time>
      </trkpt>
      <trkpt lat="49.244" lon="1.01938">
        <ele>101</ele>
        <time>2016-07-10T07:43:11.000Z</time>
      </trkpt>
      <trkpt lat="49.24402" lon="1.01938">
        <ele>101</ele>
        <time>2016-07-10T07:43:12.000Z</time>
      </trkpt>
      <trkpt lat="49.24404" lon="1.01938">
        <ele>101</ele>
        <time>2016-07-10T07:43:13.000Z</time>
      </trkpt>
      <trkpt lat="49.24405" lon="1.01937">
        <ele>101</ele>
        <time>2016-07-10T07:43:14.000Z</time>
      </trkpt>
      <trkpt lat="49.24407" lon="1.01938">
        <ele>101</ele>
        <time>2016-07-10T07:43:15.000Z</time>
      </trkpt>
      <trkpt lat="49.24408" lon="1.01938">
        <ele>101</ele>
        <time>2016-07-10T07:43:16.000Z</time>
      </trkpt>
      <trkpt lat="49.2441" lon="1.01938">
        <ele>101</ele>
        <time>2016-07-10T07:43:17.000Z</time>
      </trkpt>
      <trkpt lat="49.24412" lon="1.01938">
        <ele>101</ele>
        <time>2016-07-10T07:43:18.000Z</time>
      </trkpt>
      <trkpt lat="49.24413" lon="1.01939">
        <ele>100</ele>
        <time>2016-07-10T07:43:19.000Z</time>
      </trkpt>
      <trkpt lat="49.24415" lon="1.01939">
        <ele>100</ele>
        <time>2016-07-10T07:43:20.000Z</time>
      </trkpt>
      <trkpt lat="49.24416" lon="1.01939">
        <ele>100</ele>
        <time>2016-07-10T07:43:21.000Z</time>
      </trkpt>
      <trkpt lat="49.24416" lon="1.0194">
        <ele>100</ele>
        <time>2016-07-10T07:43:22.000Z</time>
      </trkpt>
      <trkpt lat="49.24417" lon="1.0194">
        <ele>100</ele>
        <time>2016-07-10T07:43:23.000Z</time>
      </trkpt>
      <trkpt lat="49.24417" lon="1.0194">
        <ele>101</ele>
        <time>2016-07-10T07:43:24.000Z</time>
      </trkpt>
      <trkpt lat="49.24418" lon="1.0194">
        <ele>100</ele>
        <time>2016-07-10T07:43:25.000Z</time>
      </trkpt>
      <trkpt lat="49.24419" lon="1.01939">
        <ele>101</ele>
        <time>2016-07-10T07:43:26.000Z</time>
      </trkpt>
      <trkpt lat="49.24421" lon="1.01939">
        <ele>101</ele>
        <time>2016-07-10T07:43:27.000Z</time>
      </trkpt>
      <trkpt lat="49.24423" lon="1.01938">
        <ele>102</ele>
        <time>2016-07-10T07:43:28.000Z</time>
      </trkpt>
      <trkpt lat="49.24425" lon="1.01937">
        <ele>102</ele>
        <time>2016-07-10T07:43:29.000Z</time>
      </trkpt>
      <trkpt lat="49.24426" lon="1.01936">
        <ele>102</ele>
        <time>2016-07-10T07:43:30.000Z</time>
      </trkpt>
      <trkpt lat="49.24428" lon="1.01936">
        <ele>102</ele>
        <time>2016-07-10T07:43:31.000Z</time>
      </trkpt>
      <trkpt lat="49.2443" lon="1.01935">
        <ele>103</ele>
        <time>2016-07-10T07:43:32.000Z</time>
      </trkpt>
      <trkpt lat="49.24432" lon="1.01934">
        <ele>103</ele>
        <time>2016-07-10T07:43:33.000Z</time>
      </trkpt>
      <trkpt lat="49.24434" lon="1.01934">
        <ele>103</ele>
        <time>2016-07-10T07:43:34.000Z</time>
      </trkpt>
      <trkpt lat="49.24435" lon="1.01933">
        <ele>103</ele>
        <time>2016-07-10T07:43:35.000Z</time>
      </trkpt>
      <trkpt lat="49.24437" lon="1.01933">
        <ele>103</ele>
        <time>2016-07-10T07:43:36.000Z</time>
      </trkpt>
      <trkpt lat="49.24438" lon="1.01932">
        <ele>103</ele>
        <time>2016-07-10T07:43:37.000Z</time>
      </trkpt>
      <trkpt lat="49.24439" lon="1.01932">
        <ele>103</ele>
        <time>2016-07-10T07:43:38.000Z</time>
      </trkpt>
      <trkpt lat="49.2444" lon="1.01931">
        <ele>103</ele>
        <time>2016-07-10T07:43:39.000Z</time>
      </trkpt>
      <trkpt lat="49.24441" lon="1.0193">
        <ele>103</ele>
        <time>2016-07-10T07:43:40.000Z</time>
      </trkpt>
      <trkpt lat="49.24443" lon="1.0193">
        <ele>102</ele>
        <time>2016-07-10T07:43:41.000Z</time>
      </trkpt>
      <trkpt lat="49.24445" lon="1.0193">
        <ele>103</ele>
        <time>2016-07-10T07:43:42.000Z</time>
      </trkpt>
      <trkpt lat="49.24447" lon="1.0193">
        <ele>103</ele>
        <time>2016-07-10T07:43:43.000Z</time>
      </trkpt>
      <trkpt lat="49.24449" lon="1.0193">
        <ele>103</ele>
        <time>2016-07-10T07:43:44.000Z</time>
      </trkpt>
      <trkpt lat="49.24451" lon="1.01929">
        <ele>103</ele>
        <time>2016-07-10T07:43:45.000Z</time>
      </trkpt>
      <trkpt lat="49.24453" lon="1.01929">
        <ele>103</ele>
        <time>2016-07-10T07:43:46.000Z</time>
      </trkpt>
      <trkpt lat="49.24454" lon="1.01929">
        <ele>103</ele>
        <time>2016-07-10T07:43:47.000Z</time>
      </trkpt>
      <trkpt lat="49.24455" lon="1.01928">
        <ele>104</ele>
        <time>2016-07-10T07:43:48.000Z</time>
      </trkpt>
      <trkpt lat="49.24456" lon="1.01928">
        <ele>104</ele>
        <time>2016-07-10T07:43:49.000Z</time>
      </trkpt>
      <trkpt lat="49.24456" lon="1.01928">
        <ele>104</ele>
        <time>2016-07-10T07:43:50.000Z</time>
      </trkpt>
      <trkpt lat="49.24457" lon="1.01928">
        <ele>103</ele>
        <time>2016-07-10T07:43:51.000Z</time>
      </trkpt>
      <trkpt lat="49.24458" lon="1.01928">
        <ele>103</ele>
        <time>2016-07-10T07:43:52.000Z</time>
      </trkpt>
      <trkpt lat="49.2446" lon="1.01927">
        <ele>104</ele>
        <time>2016-07-10T07:43:53.000Z</time>
      </trkpt>
      <trkpt lat="49.24462" lon="1.01927">
        <ele>104</ele>
        <time>2016-07-10T07:43:54.000Z</time>
      </trkpt>
      <trkpt lat="49.24464" lon="1.01927">
        <ele>104</ele>
        <time>2016-07-10T07:43:55.000Z</time>
      </trkpt>
      <trkpt lat="49.24466" lon="1.01927">
        <ele>103</ele>
        <time>2016-07-10T07:43:56.000Z</time>
      </trkpt>
      <trkpt lat="49.2447" lon="1.01927">
        <ele>103</ele>
        <time>2016-07-10T07:43:57.000Z</time>
      </trkpt>
      <trkpt lat="49.24474" lon="1.01927">
        <ele>103</ele>
        <time>2016-07-10T07:43:58.000Z</time>
      </trkpt>
      <trkpt lat="49.24477" lon="1.01926">
        <ele>102</ele>
        <time>2016-07-10T07:43:59.000Z</time>
      </trkpt>
      <trkpt lat="49.24479" lon="1.01926">
        <ele>102</ele>
        <time>2016-07-10T07:44:00.000Z</time>
      </trkpt>
      <trkpt lat="49.24482" lon="1.01926">
        <ele>101</ele>
        <time>2016-07-10T07:44:01.000Z</time>
      </trkpt>
      <trkpt lat="49.24485" lon="1.01925">
        <ele>101</ele>
        <time>2016-07-10T07:44:02.000Z</time>
      </trkpt>
      <trkpt lat="49.24488" lon="1.01923">
        <ele>100</ele>
        <time>2016-07-10T07:44:03.000Z</time>
      </trkpt>
      <trkpt lat="49.24492" lon="1.01921">
        <ele>100</ele>
        <time>2016-07-10T07:44:04.000Z</time>
      </trkpt>
      <trkpt lat="49.24495" lon="1.01919">
        <ele>99</ele>
        <time>2016-07-10T07:44:05.000Z</time>
      </trkpt>
      <trkpt lat="49.24498" lon="1.01917">
        <ele>99</ele>
        <time>2016-07-10T07:44:06.000Z</time>
      </trkpt>
      <trkpt lat="49.24501" lon="1.01916">
        <ele>99</ele>
        <time>2016-07-10T07:44:07.000Z</time>
      </trkpt>
      <trkpt lat="49.24504" lon="1.01915">
        <ele>98</ele>
        <time>2016-07-10T07:44:08.000Z</time>
      </trkpt>
      <trkpt lat="49.24506" lon="1.01914">
        <ele>98</ele>
        <time>2016-07-10T07:44:09.000Z</time>
      </trkpt>
      <trkpt lat="49.24508" lon="1.01914">
        <ele>99</ele>
        <time>2016-07-10T07:44:10.000Z</time>
      </trkpt>
      <trkpt lat="49.24509" lon="1.01914">
        <ele>98</ele>
        <time>2016-07-10T07:44:11.000Z</time>
      </trkpt>
      <trkpt lat="49.24511" lon="1.01913">
        <ele>98</ele>
        <time>2016-07-10T07:44:12.000Z</time>
      </trkpt>
      <trkpt lat="49.24513" lon="1.01912">
        <ele>99</ele>
        <time>2016-07-10T07:44:13.000Z</time>
      </trkpt>
      <trkpt lat="49.24515" lon="1.01912">
        <ele>100</ele>
        <time>2016-07-10T07:44:14.000Z</time>
      </trkpt>
      <trkpt lat="49.24517" lon="1.01911">
        <ele>100</ele>
        <time>2016-07-10T07:44:15.000Z</time>
      </trkpt>
      <trkpt lat="49.24519" lon="1.01911">
        <ele>100</ele>
        <time>2016-07-10T07:44:16.000Z</time>
      </trkpt>
      <trkpt lat="49.24521" lon="1.0191">
        <ele>99</ele>
        <time>2016-07-10T07:44:17.000Z</time>
      </trkpt>
      <trkpt lat="49.24522" lon="1.01908">
        <ele>98</ele>
        <time>2016-07-10T07:44:18.000Z</time>
      </trkpt>
      <trkpt lat="49.24523" lon="1.01905">
        <ele>96</ele>
        <time>2016-07-10T07:44:19.000Z</time>
      </trkpt>
      <trkpt lat="49.24524" lon="1.01903">
        <ele>97</ele>
        <time>2016-07-10T07:44:20.000Z</time>
      </trkpt>
      <trkpt lat="49.24525" lon="1.019">
        <ele>97</ele>
        <time>2016-07-10T07:44:21.000Z</time>
      </trkpt>
      <trkpt lat="49.24527" lon="1.01898">
        <ele>97</ele>
        <time>2016-07-10T07:44:22.000Z</time>
      </trkpt>
      <trkpt lat="49.24528" lon="1.01896">
        <ele>96</ele>
        <time>2016-07-10T07:44:23.000Z</time>
      </trkpt>
      <trkpt lat="49.24531" lon="1.01895">
        <ele>97</ele>
        <time>2016-07-10T07:44:24.000Z</time>
      </trkpt>
      <trkpt lat="49.24533" lon="1.01894">
        <ele>97</ele>
        <time>2016-07-10T07:44:25.000Z</time>
      </trkpt>
      <trkpt lat="49.24536" lon="1.01893">
        <ele>97</ele>
        <time>2016-07-10T07:44:26.000Z</time>
      </trkpt>
      <trkpt lat="49.24539" lon="1.01892">
        <ele>96</ele>
        <time>2016-07-10T07:44:27.000Z</time>
      </trkpt>
      <trkpt lat="49.24542" lon="1.01892">
        <ele>95</ele>
        <time>2016-07-10T07:44:28.000Z</time>
      </trkpt>
      <trkpt lat="49.24544" lon="1.01891">
        <ele>95</ele>
        <time>2016-07-10T07:44:29.000Z</time>
      </trkpt>
      <trkpt lat="49.24547" lon="1.0189">
        <ele>95</ele>
        <time>2016-07-10T07:44:30.000Z</time>
      </trkpt>
      <trkpt lat="49.24549" lon="1.01889">
        <ele>94</ele>
        <time>2016-07-10T07:44:31.000Z</time>
      </trkpt>
      <trkpt lat="49.24552" lon="1.01889">
        <ele>94</ele>
        <time>2016-07-10T07:44:32.000Z</time>
      </trkpt>
      <trkpt lat="49.24554" lon="1.01889">
        <ele>94</ele>
        <time>2016-07-10T07:44:33.000Z</time>
      </trkpt>
      <trkpt lat="49.24555" lon="1.01889">
        <ele>94</ele>
        <time>2016-07-10T07:44:34.000Z</time>
      </trkpt>
      <trkpt lat="49.24557" lon="1.0189">
        <ele>95</ele>
        <time>2016-07-10T07:44:35.000Z</time>
      </trkpt>
      <trkpt lat="49.24558" lon="1.0189">
        <ele>96</ele>
        <time>2016-07-10T07:44:36.000Z</time>
      </trkpt>
      <trkpt lat="49.24558" lon="1.0189">
        <ele>95</ele>
        <time>2016-07-10T07:44:37.000Z</time>
      </trkpt>
      <trkpt lat="49.24558" lon="1.01889">
        <ele>95</ele>
        <time>2016-07-10T07:44:38.000Z</time>
      </trkpt>
      <trkpt lat="49.24558" lon="1.01889">
        <ele>96</ele>
        <time>2016-07-10T07:44:39.000Z</time>
      </trkpt>
      <trkpt lat="49.24558" lon="1.01889">
        <ele>97</ele>
        <time>2016-07-10T07:44:40.000Z</time>
      </trkpt>
      <trkpt lat="49.24559" lon="1.01888">
        <ele>96</ele>
        <time>2016-07-10T07:44:41.000Z</time>
      </trkpt>
      <trkpt lat="49.24559" lon="1.01888">
        <ele>95</ele>
        <time>2016-07-10T07:44:42.000Z</time>
      </trkpt>
      <trkpt lat="49.2456" lon="1.01887">
        <ele>96</ele>
        <time>2016-07-10T07:44:43.000Z</time>
      </trkpt>
      <trkpt lat="49.24561" lon="1.01886">
        <ele>96</ele>
        <time>2016-07-10T07:44:44.000Z</time>
      </trkpt>
      <trkpt lat="49.24561" lon="1.01885">
        <ele>97</ele>
        <time>2016-07-10T07:44:45.000Z</time>
      </trkpt>
      <trkpt lat="49.24562" lon="1.01885">
        <ele>97</ele>
        <time>2016-07-10T07:44:46.000Z</time>
      </trkpt>
      <trkpt lat="49.24562" lon="1.01885">
        <ele>97</ele>
        <time>2016-07-10T07:44:47.000Z</time>
      </trkpt>
      <trkpt lat="49.24562" lon="1.01885">
        <ele>97</ele>
        <time>2016-07-10T07:44:48.000Z</time>
      </trkpt>
      <trkpt lat="49.24563" lon="1.01885">
        <ele>97</ele>
        <time>2016-07-10T07:44:49.000Z</time>
      </trkpt>
      <trkpt lat="49.24563" lon="1.01884">
        <ele>98</ele>
        <time>2016-07-10T07:44:50.000Z</time>
      </trkpt>
      <trkpt lat="49.24564" lon="1.01885">
        <ele>98</ele>
        <time>2016-07-10T07:44:51.000Z</time>
      </trkpt>
      <trkpt lat="49.24564" lon="1.01884">
        <ele>98</ele>
        <time>2016-07-10T07:44:52.000Z</time>
      </trkpt>
      <trkpt lat="49.24564" lon="1.01885">
        <ele>97</ele>
        <time>2016-07-10T07:44:53.000Z</time>
      </trkpt>
      <trkpt lat="49.24565" lon="1.01885">
        <ele>97</ele>
        <time>2016-07-10T07:44:54.000Z</time>
      </trkpt>
      <trkpt lat="49.24565" lon="1.01885">
        <ele>97</ele>
        <time>2016-07-10T07:44:55.000Z</time>
      </trkpt>
      <trkpt lat="49.24565" lon="1.01884">
        <ele>97</ele>
        <time>2016-07-10T07:44:56.000Z</time>
      </trkpt>
      <trkpt lat="49.24565" lon="1.01884">
        <ele>98</ele>
        <time>2016-07-10T07:44:57.000Z</time>
      </trkpt>
      <trkpt lat="49.24566" lon="1.01884">
        <ele>98</ele>
        <time>2016-07-10T07:44:58.000Z</time>
      </trkpt>
      <trkpt lat="49.24566" lon="1.01884">
        <ele>99</ele>
        <time>2016-07-10T07:44:59.000Z</time>
      </trkpt>
      <trkpt lat="49.24567" lon="1.01884">
        <ele>99</ele>
        <time>2016-07-10T07:45:00.000Z</time>
      </trkpt>
      <trkpt lat="49.24567" lon="1.01883">
        <ele>99</ele>
        <time>2016-07-10T07:45:01.000Z</time>
      </trkpt>
      <trkpt lat="49.24567" lon="1.01883">
        <ele>100</ele>
        <time>2016-07-10T07:45:02.000Z</time>
      </trkpt>
      <trkpt lat="49.24567" lon="1.01883">
        <ele>100</ele>
        <time>2016-07-10T07:45:03.000Z</time>
      </trkpt>
      <trkpt lat="49.24568" lon="1.01883">
        <ele>100</ele>
        <time>2016-07-10T07:45:04.000Z</time>
      </trkpt>
      <trkpt lat="49.24568" lon="1.01883">
        <ele>101</ele>
        <time>2016-07-10T07:45:05.000Z</time>
      </trkpt>
      <trkpt lat="49.24569" lon="1.01882">
        <ele>101</ele>
        <time>2016-07-10T07:45:06.000Z</time>
      </trkpt>
      <trkpt lat="49.24569" lon="1.01882">
        <ele>101</ele>
        <time>2016-07-10T07:45:07.000Z</time>
      </trkpt>
      <trkpt lat="49.2457" lon="1.01882">
        <ele>101</ele>
        <time>2016-07-10T07:45:08.000Z</time>
      </trkpt>
      <trkpt lat="49.24571" lon="1.01882">
        <ele>100</ele>
        <time>2016-07-10T07:45:09.000Z</time>
      </trkpt>
      <trkpt lat="49.24573" lon="1.01881">
        <ele>100</ele>
        <time>2016-07-10T07:45:10.000Z</time>
      </trkpt>
      <trkpt lat="49.24575" lon="1.0188">
        <ele>100</ele>
        <time>2016-07-10T07:45:11.000Z</time>
      </trkpt>
      <trkpt lat="49.24577" lon="1.01879">
        <ele>100</ele>
        <time>2016-07-10T07:45:12.000Z</time>
      </trkpt>
      <trkpt lat="49.24578" lon="1.01878">
        <ele>99</ele>
        <time>2016-07-10T07:45:13.000Z</time>
      </trkpt>
      <trkpt lat="49.2458" lon="1.01877">
        <ele>98</ele>
        <time>2016-07-10T07:45:14.000Z</time>
      </trkpt>
      <trkpt lat="49.24583" lon="1.01876">
        <ele>97</ele>
        <time>2016-07-10T07:45:15.000Z</time>
      </trkpt>
      <trkpt lat="49.24585" lon="1.01875">
        <ele>97</ele>
        <time>2016-07-10T07:45:16.000Z</time>
      </trkpt>
      <trkpt lat="49.24587" lon="1.01874">
        <ele>96</ele>
        <time>2016-07-10T07:45:17.000Z</time>
      </trkpt>
      <trkpt lat="49.2459" lon="1.01873">
        <ele>94</ele>
        <time>2016-07-10T07:45:18.000Z</time>
      </trkpt>
      <trkpt lat="49.24592" lon="1.01872">
        <ele>94</ele>
        <time>2016-07-10T07:45:19.000Z</time>
      </trkpt>
      <trkpt lat="49.24594" lon="1.01871">
        <ele>94</ele>
        <time>2016-07-10T07:45:20.000Z</time>
      </trkpt>
      <trkpt lat="49.24597" lon="1.0187">
        <ele>94</ele>
        <time>2016-07-10T07:45:21.000Z</time>
      </trkpt>
      <trkpt lat="49.246" lon="1.01869">
        <ele>94</ele>
        <time>2016-07-10T07:45:22.000Z</time>
      </trkpt>
      <trkpt lat="49.24602" lon="1.01868">
        <ele>94</ele>
        <time>2016-07-10T07:45:23.000Z</time>
      </trkpt>
      <trkpt lat="49.24605" lon="1.01868">
        <ele>94</ele>
        <time>2016-07-10T07:45:24.000Z</time>
      </trkpt>
      <trkpt lat="49.24607" lon="1.01868">
        <ele>95</ele>
        <time>2016-07-10T07:45:25.000Z</time>
      </trkpt>
      <trkpt lat="49.24608" lon="1.01867">
        <ele>96</ele>
        <time>2016-07-10T07:45:26.000Z</time>
      </trkpt>
      <trkpt lat="49.2461" lon="1.01867">
        <ele>97</ele>
        <time>2016-07-10T07:45:27.000Z</time>
      </trkpt>
      <trkpt lat="49.24612" lon="1.01866">
        <ele>97</ele>
        <time>2016-07-10T07:45:28.000Z</time>
      </trkpt>
      <trkpt lat="49.24613" lon="1.01865">
        <ele>97</ele>
        <time>2016-07-10T07:45:29.000Z</time>
      </trkpt>
      <trkpt lat="49.24615" lon="1.01865">
        <ele>98</ele>
        <time>2016-07-10T07:45:30.000Z</time>
      </trkpt>
      <trkpt lat="49.24616" lon="1.01865">
        <ele>97</ele>
        <time>2016-07-10T07:45:31.000Z</time>
      </trkpt>
      <trkpt lat="49.24618" lon="1.01865">
        <ele>96</ele>
        <time>2016-07-10T07:45:32.000Z</time>
      </trkpt>
      <trkpt lat="49.24619" lon="1.01865">
        <ele>95</ele>
        <time>2016-07-10T07:45:33.000Z</time>
      </trkpt>
      <trkpt lat="49.2462" lon="1.01867">
        <ele>95</ele>
        <time>2016-07-10T07:45:34.000Z</time>
      </trkpt>
      <trkpt lat="49.24622" lon="1.01868">
        <ele>95</ele>
        <time>2016-07-10T07:45:35.000Z</time>
      </trkpt>
      <trkpt lat="49.24623" lon="1.01868">
        <ele>94</ele>
        <time>2016-07-10T07:45:36.000Z</time>
      </trkpt>
      <trkpt lat="49.24624" lon="1.01869">
        <ele>95</ele>
        <time>2016-07-10T07:45:37.000Z</time>
      </trkpt>
      <trkpt lat="49.24624" lon="1.01869">
        <ele>94</ele>
        <time>2016-07-10T07:45:38.000Z</time>
      </trkpt>
      <trkpt lat="49.24625" lon="1.01869">
        <ele>94</ele>
        <time>2016-07-10T07:45:39.000Z</time>
      </trkpt>
      <trkpt lat="49.24625" lon="1.01869">
        <ele>94</ele>
        <time>2016-07-10T07:45:40.000Z</time>
      </trkpt>
      <trkpt lat="49.24626" lon="1.01869">
        <ele>93</ele>
        <time>2016-07-10T07:45:41.000Z</time>
      </trkpt>
      <trkpt lat="49.24627" lon="1.0187">
        <ele>93</ele>
        <time>2016-07-10T07:45:42.000Z</time>
      </trkpt>
      <trkpt lat="49.24628" lon="1.0187">
        <ele>92</ele>
        <time>2016-07-10T07:45:43.000Z</time>
      </trkpt>
      <trkpt lat="49.24629" lon="1.01871">
        <ele>92</ele>
        <time>2016-07-10T07:45:44.000Z</time>
      </trkpt>
      <trkpt lat="49.2463" lon="1.01871">
        <ele>91</ele>
        <time>2016-07-10T07:45:45.000Z</time>
      </trkpt>
      <trkpt lat="49.24631" lon="1.01871">
        <ele>92</ele>
        <time>2016-07-10T07:45:46.000Z</time>
      </trkpt>
      <trkpt lat="49.24633" lon="1.0187">
        <ele>91</ele>
        <time>2016-07-10T07:45:47.000Z</time>
      </trkpt>
      <trkpt lat="49.24635" lon="1.01869">
        <ele>91</ele>
        <time>2016-07-10T07:45:48.000Z</time>
      </trkpt>
      <trkpt lat="49.24636" lon="1.01868">
        <ele>92</ele>
        <time>2016-07-10T07:45:49.000Z</time>
      </trkpt>
      <trkpt lat="49.24637" lon="1.01868">
        <ele>92</ele>
        <time>2016-07-10T07:45:50.000Z</time>
      </trkpt>
      <trkpt lat="49.24637" lon="1.01868">
        <ele>92</ele>
        <time>2016-07-10T07:45:51.000Z</time>
      </trkpt>
      <trkpt lat="49.24638" lon="1.01868">
        <ele>92</ele>
        <time>2016-07-10T07:45:52.000Z</time>
      </trkpt>
      <trkpt lat="49.24638" lon="1.01868">
        <ele>93</ele>
        <time>2016-07-10T07:45:53.000Z</time>
      </trkpt>
      <trkpt lat="49.24638" lon="1.01868">
        <ele>93</ele>
        <time>2016-07-10T07:45:54.000Z</time>
      </trkpt>
      <trkpt lat="49.24638" lon="1.01868">
        <ele>94</ele>
        <time>2016-07-10T07:45:55.000Z</time>
      </trkpt>
      <trkpt lat="49.24639" lon="1.01868">
        <ele>94</ele>
        <time>2016-07-10T07:45:56.000Z</time>
      </trkpt>
      <trkpt lat="49.24639" lon="1.01868">
        <ele>95</ele>
        <time>2016-07-10T07:45:57.000Z</time>
      </trkpt>
      <trkpt lat="49.24639" lon="1.01868">
        <ele>95</ele>
        <time>2016-07-10T07:45:58.000Z</time>
      </trkpt>
      <trkpt lat="49.24639" lon="1.01868">
        <ele>96</ele>
        <time>2016-07-10T07:45:59.000Z</time>
      </trkpt>
      <trkpt lat="49.2464" lon="1.01868">
        <ele>96</ele>
        <time>2016-07-10T07:46:00.000Z</time>
      </trkpt>
      <trkpt lat="49.2464" lon="1.01868">
        <ele>96</ele>
        <time>2016-07-10T07:46:01.000Z</time>
      </trkpt>
      <trkpt lat="49.2464" lon="1.01868">
        <ele>96</ele>
        <time>2016-07-10T07:46:02.000Z</time>
      </trkpt>
      <trkpt lat="49.2464" lon="1.01868">
        <ele>97</ele>
        <time>2016-07-10T07:46:03.000Z</time>
      </trkpt>
      <trkpt lat="49.2464" lon="1.01868">
        <ele>97</ele>
        <time>2016-07-10T07:46:04.000Z</time>
      </trkpt>
      <trkpt lat="49.24641" lon="1.01868">
        <ele>97</ele>
        <time>2016-07-10T07:46:05.000Z</time>
      </trkpt>
      <trkpt lat="49.24641" lon="1.01867">
        <ele>98</ele>
        <time>2016-07-10T07:46:06.000Z</time>
      </trkpt>
      <trkpt lat="49.24641" lon="1.01866">
        <ele>98</ele>
        <time>2016-07-10T07:46:07.000Z</time>
      </trkpt>
      <trkpt lat="49.24641" lon="1.01865">
        <ele>98</ele>
        <time>2016-07-10T07:46:08.000Z</time>
      </trkpt>
      <trkpt lat="49.24641" lon="1.01864">
        <ele>98</ele>
        <time>2016-07-10T07:46:09.000Z</time>
      </trkpt>
      <trkpt lat="49.24642" lon="1.01863">
        <ele>98</ele>
        <time>2016-07-10T07:46:10.000Z</time>
      </trkpt>
      <trkpt lat="49.24642" lon="1.01863">
        <ele>98</ele>
        <time>2016-07-10T07:46:11.000Z</time>
      </trkpt>
      <trkpt lat="49.24642" lon="1.01863">
        <ele>99</ele>
        <time>2016-07-10T07:46:12.000Z</time>
      </trkpt>
      <trkpt lat="49.24642" lon="1.01863">
        <ele>99</ele>
        <time>2016-07-10T07:46:13.000Z</time>
      </trkpt>
      <trkpt lat="49.24642" lon="1.01863">
        <ele>99</ele>
        <time>2016-07-10T07:46:14.000Z</time>
      </trkpt>
      <trkpt lat="49.24642" lon="1.01863">
        <ele>100</ele>
        <time>2016-07-10T07:46:15.000Z</time>
      </trkpt>
      <trkpt lat="49.24643" lon="1.01863">
        <ele>101</ele>
        <time>2016-07-10T07:46:16.000Z</time>
      </trkpt>
      <trkpt lat="49.24643" lon="1.01863">
        <ele>101</ele>
        <time>2016-07-10T07:46:17.000Z</time>
      </trkpt>
      <trkpt lat="49.24643" lon="1.01863">
        <ele>101</ele>
        <time>2016-07-10T07:46:18.000Z</time>
      </trkpt>
      <trkpt lat="49.24643" lon="1.01862">
        <ele>101</ele>
        <time>2016-07-10T07:46:19.000Z</time>
      </trkpt>
      <trkpt lat="49.24643" lon="1.01862">
        <ele>101</ele>
        <time>2016-07-10T07:46:20.000Z</time>
      </trkpt>
      <trkpt lat="49.24644" lon="1.01861">
        <ele>102</ele>
        <time>2016-07-10T07:46:21.000Z</time>
      </trkpt>
      <trkpt lat="49.24644" lon="1.01859">
        <ele>103</ele>
        <time>2016-07-10T07:46:22.000Z</time>
      </trkpt>
      <trkpt lat="49.24645" lon="1.01857">
        <ele>103</ele>
        <time>2016-07-10T07:46:23.000Z</time>
      </trkpt>
      <trkpt lat="49.24647" lon="1.01854">
        <ele>103</ele>
        <time>2016-07-10T07:46:24.000Z</time>
      </trkpt>
      <trkpt lat="49.24648" lon="1.01851">
        <ele>102</ele>
        <time>2016-07-10T07:46:25.000Z</time>
      </trkpt>
      <trkpt lat="49.2465" lon="1.01847">
        <ele>101</ele>
        <time>2016-07-10T07:46:26.000Z</time>
      </trkpt>
      <trkpt lat="49.24651" lon="1.01844">
        <ele>101</ele>
        <time>2016-07-10T07:46:27.000Z</time>
      </trkpt>
      <trkpt lat="49.24653" lon="1.0184">
        <ele>100</ele>
        <time>2016-07-10T07:46:28.000Z</time>
      </trkpt>
      <trkpt lat="49.24655" lon="1.01836">
        <ele>99</ele>
        <time>2016-07-10T07:46:29.000Z</time>
      </trkpt>
      <trkpt lat="49.24658" lon="1.01832">
        <ele>98</ele>
        <time>2016-07-10T07:46:30.000Z</time>
      </trkpt>
      <trkpt lat="49.2466" lon="1.01827">
        <ele>97</ele>
        <time>2016-07-10T07:46:31.000Z</time>
      </trkpt>
      <trkpt lat="49.24662" lon="1.01822">
        <ele>95</ele>
        <time>2016-07-10T07:46:32.000Z</time>
      </trkpt>
      <trkpt lat="49.24664" lon="1.01817">
        <ele>94</ele>
        <time>2016-07-10T07:46:33.000Z</time>
      </trkpt>
      <trkpt lat="49.24666" lon="1.01812">
        <ele>92</ele>
        <time>2016-07-10T07:46:34.000Z</time>
      </trkpt>
      <trkpt lat="49.24668" lon="1.01807">
        <ele>91</ele>
        <time>2016-07-10T07:46:35.000Z</time>
      </trkpt>
      <trkpt lat="49.24671" lon="1.01802">
        <ele>90</ele>
        <time>2016-07-10T07:46:36.000Z</time>
      </trkpt>
      <trkpt lat="49.24673" lon="1.01796">
        <ele>90</ele>
        <time>2016-07-10T07:46:37.000Z</time>
      </trkpt>
      <trkpt lat="49.24676" lon="1.01791">
        <ele>89</ele>
        <time>2016-07-10T07:46:38.000Z</time>
      </trkpt>
      <trkpt lat="49.24679" lon="1.01786">
        <ele>89</ele>
        <time>2016-07-10T07:46:39.000Z</time>
      </trkpt>
      <trkpt lat="49.24681" lon="1.01781">
        <ele>89</ele>
        <time>2016-07-10T07:46:40.000Z</time>
      </trkpt>
      <trkpt lat="49.24684" lon="1.01776">
        <ele>88</ele>
        <time>2016-07-10T07:46:41.000Z</time>
      </trkpt>
      <trkpt lat="49.24686" lon="1.01771">
        <ele>87</ele>
        <time>2016-07-10T07:46:42.000Z</time>
      </trkpt>
      <trkpt lat="49.24688" lon="1.01766">
        <ele>87</ele>
        <time>2016-07-10T07:46:43.000Z</time>
      </trkpt>
      <trkpt lat="49.24691" lon="1.01761">
        <ele>87</ele>
        <time>2016-07-10T07:46:44.000Z</time>
      </trkpt>
      <trkpt lat="49.24693" lon="1.01756">
        <ele>86</ele>
        <time>2016-07-10T07:46:45.000Z</time>
      </trkpt>
      <trkpt lat="49.24696" lon="1.01751">
        <ele>86</ele>
        <time>2016-07-10T07:46:46.000Z</time>
      </trkpt>
      <trkpt lat="49.24698" lon="1.01745">
        <ele>86</ele>
        <time>2016-07-10T07:46:47.000Z</time>
      </trkpt>
      <trkpt lat="49.24702" lon="1.0174">
        <ele>87</ele>
        <time>2016-07-10T07:46:48.000Z</time>
      </trkpt>
      <trkpt lat="49.24705" lon="1.01734">
        <ele>88</ele>
        <time>2016-07-10T07:46:49.000Z</time>
      </trkpt>
      <trkpt lat="49.24708" lon="1.01729">
        <ele>88</ele>
        <time>2016-07-10T07:46:50.000Z</time>
      </trkpt>
      <trkpt lat="49.2471" lon="1.01723">
        <ele>88</ele>
        <time>2016-07-10T07:46:51.000Z</time>
      </trkpt>
      <trkpt lat="49.24713" lon="1.01718">
        <ele>89</ele>
        <time>2016-07-10T07:46:52.000Z</time>
      </trkpt>
      <trkpt lat="49.24716" lon="1.01712">
        <ele>90</ele>
        <time>2016-07-10T07:46:53.000Z</time>
      </trkpt>
      <trkpt lat="49.24719" lon="1.01706">
        <ele>91</ele>
        <time>2016-07-10T07:46:54.000Z</time>
      </trkpt>
      <trkpt lat="49.24722" lon="1.017">
        <ele>91</ele>
        <time>2016-07-10T07:46:55.000Z</time>
      </trkpt>
      <trkpt lat="49.24726" lon="1.01693">
        <ele>91</ele>
        <time>2016-07-10T07:46:56.000Z</time>
      </trkpt>
      <trkpt lat="49.24729" lon="1.01686">
        <ele>93</ele>
        <time>2016-07-10T07:46:57.000Z</time>
      </trkpt>
      <trkpt lat="49.24733" lon="1.01679">
        <ele>92</ele>
        <time>2016-07-10T07:46:58.000Z</time>
      </trkpt>
      <trkpt lat="49.24736" lon="1.01672">
        <ele>91</ele>
        <time>2016-07-10T07:46:59.000Z</time>
      </trkpt>
      <trkpt lat="49.2474" lon="1.01664">
        <ele>91</ele>
        <time>2016-07-10T07:47:00.000Z</time>
      </trkpt>
      <trkpt lat="49.24743" lon="1.01656">
        <ele>91</ele>
        <time>2016-07-10T07:47:01.000Z</time>
      </trkpt>
      <trkpt lat="49.24747" lon="1.01648">
        <ele>91</ele>
        <time>2016-07-10T07:47:02.000Z</time>
      </trkpt>
      <trkpt lat="49.2475" lon="1.0164">
        <ele>91</ele>
        <time>2016-07-10T07:47:03.000Z</time>
      </trkpt>
      <trkpt lat="49.24754" lon="1.01633">
        <ele>91</ele>
        <time>2016-07-10T07:47:04.000Z</time>
      </trkpt>
      <trkpt lat="49.24757" lon="1.01626">
        <ele>91</ele>
        <time>2016-07-10T07:47:05.000Z</time>
      </trkpt>
      <trkpt lat="49.2476" lon="1.0162">
        <ele>92</ele>
        <time>2016-07-10T07:47:06.000Z</time>
      </trkpt>
      <trkpt lat="49.24763" lon="1.01615">
        <ele>93</ele>
        <time>2016-07-10T07:47:07.000Z</time>
      </trkpt>
      <trkpt lat="49.24766" lon="1.0161">
        <ele>92</ele>
        <time>2016-07-10T07:47:08.000Z</time>
      </trkpt>
      <trkpt lat="49.24768" lon="1.01605">
        <ele>92</ele>
        <time>2016-07-10T07:47:09.000Z</time>
      </trkpt>
      <trkpt lat="49.2477" lon="1.016">
        <ele>93</ele>
        <time>2016-07-10T07:47:10.000Z</time>
      </trkpt>
      <trkpt lat="49.24773" lon="1.01594">
        <ele>93</ele>
        <time>2016-07-10T07:47:11.000Z</time>
      </trkpt>
      <trkpt lat="49.24776" lon="1.01589">
        <ele>94</ele>
        <time>2016-07-10T07:47:12.000Z</time>
      </trkpt>
      <trkpt lat="49.24779" lon="1.01584">
        <ele>95</ele>
        <time>2016-07-10T07:47:13.000Z</time>
      </trkpt>
      <trkpt lat="49.24782" lon="1.0158">
        <ele>95</ele>
        <time>2016-07-10T07:47:14.000Z</time>
      </trkpt>
      <trkpt lat="49.24786" lon="1.01578">
        <ele>96</ele>
        <time>2016-07-10T07:47:15.000Z</time>
      </trkpt>
      <trkpt lat="49.24791" lon="1.01577">
        <ele>96</ele>
        <time>2016-07-10T07:47:16.000Z</time>
      </trkpt>
      <trkpt lat="49.24796" lon="1.01577">
        <ele>95</ele>
        <time>2016-07-10T07:47:17.000Z</time>
      </trkpt>
      <trkpt lat="49.248" lon="1.01578">
        <ele>95</ele>
        <time>2016-07-10T07:47:18.000Z</time>
      </trkpt>
      <trkpt lat="49.24805" lon="1.01579">
        <ele>94</ele>
        <time>2016-07-10T07:47:19.000Z</time>
      </trkpt>
      <trkpt lat="49.24809" lon="1.0158">
        <ele>94</ele>
        <time>2016-07-10T07:47:20.000Z</time>
      </trkpt>
      <trkpt lat="49.24813" lon="1.01579">
        <ele>94</ele>
        <time>2016-07-10T07:47:21.000Z</time>
      </trkpt>
      <trkpt lat="49.24818" lon="1.01576">
        <ele>94</ele>
        <time>2016-07-10T07:47:22.000Z</time>
      </trkpt>
      <trkpt lat="49.24821" lon="1.01573">
        <ele>94</ele>
        <time>2016-07-10T07:47:23.000Z</time>
      </trkpt>
      <trkpt lat="49.24824" lon="1.0157">
        <ele>94</ele>
        <time>2016-07-10T07:47:24.000Z</time>
      </trkpt>
      <trkpt lat="49.24827" lon="1.01566">
        <ele>94</ele>
        <time>2016-07-10T07:47:25.000Z</time>
      </trkpt>
      <trkpt lat="49.2483" lon="1.01563">
        <ele>95</ele>
        <time>2016-07-10T07:47:26.000Z</time>
      </trkpt>
      <trkpt lat="49.24834" lon="1.01558">
        <ele>95</ele>
        <time>2016-07-10T07:47:27.000Z</time>
      </trkpt>
      <trkpt lat="49.24837" lon="1.01554">
        <ele>96</ele>
        <time>2016-07-10T07:47:28.000Z</time>
      </trkpt>
      <trkpt lat="49.2484" lon="1.01549">
        <ele>96</ele>
        <time>2016-07-10T07:47:29.000Z</time>
      </trkpt>
      <trkpt lat="49.24843" lon="1.01545">
        <ele>96</ele>
        <time>2016-07-10T07:47:30.000Z</time>
      </trkpt>
      <trkpt lat="49.24846" lon="1.0154">
        <ele>96</ele>
        <time>2016-07-10T07:47:31.000Z</time>
      </trkpt>
      <trkpt lat="49.24849" lon="1.01536">
        <ele>96</ele>
        <time>2016-07-10T07:47:32.000Z</time>
      </trkpt>
      <trkpt lat="49.24851" lon="1.01532">
        <ele>96</ele>
        <time>2016-07-10T07:47:33.000Z</time>
      </trkpt>
      <trkpt lat="49.24853" lon="1.01528">
        <ele>96</ele>
        <time>2016-07-10T07:47:34.000Z</time>
      </trkpt>
      <trkpt lat="49.24855" lon="1.01524">
        <ele>97</ele>
        <time>2016-07-10T07:47:35.000Z</time>
      </trkpt>
      <trkpt lat="49.24858" lon="1.0152">
        <ele>98</ele>
        <time>2016-07-10T07:47:36.000Z</time>
      </trkpt>
      <trkpt lat="49.2486" lon="1.01515">
        <ele>99</ele>
        <time>2016-07-10T07:47:37.000Z</time>
      </trkpt>
      <trkpt lat="49.24862" lon="1.01511">
        <ele>99</ele>
        <time>2016-07-10T07:47:38.000Z</time>
      </trkpt>
      <trkpt lat="49.24864" lon="1.01506">
        <ele>100</ele>
        <time>2016-07-10T07:47:39.000Z</time>
      </trkpt>
      <trkpt lat="49.24866" lon="1.01502">
        <ele>101</ele>
        <time>2016-07-10T07:47:40.000Z</time>
      </trkpt>
      <trkpt lat="49.24868" lon="1.01497">
        <ele>101</ele>
        <time>2016-07-10T07:47:41.000Z</time>
      </trkpt>
      <trkpt lat="49.2487" lon="1.01492">
        <ele>102</ele>
        <time>2016-07-10T07:47:42.000Z</time>
      </trkpt>
      <trkpt lat="49.24871" lon="1.01487">
        <ele>103</ele>
        <time>2016-07-10T07:47:43.000Z</time>
      </trkpt>
      <trkpt lat="49.24872" lon="1.01484">
        <ele>103</ele>
        <time>2016-07-10T07:47:44.000Z</time>
      </trkpt>
      <trkpt lat="49.24874" lon="1.01481">
        <ele>104</ele>
        <time>2016-07-10T07:47:45.000Z</time>
      </trkpt>
      <trkpt lat="49.24875" lon="1.01478">
        <ele>104</ele>
        <time>2016-07-10T07:47:46.000Z</time>
      </trkpt>
      <trkpt lat="49.24875" lon="1.01475">
        <ele>104</ele>
        <time>2016-07-10T07:47:47.000Z</time>
      </trkpt>
      <trkpt lat="49.24877" lon="1.01472">
        <ele>104</ele>
        <time>2016-07-10T07:47:48.000Z</time>
      </trkpt>
      <trkpt lat="49.24879" lon="1.01469">
        <ele>105</ele>
        <time>2016-07-10T07:47:49.000Z</time>
      </trkpt>
      <trkpt lat="49.24881" lon="1.01465">
        <ele>106</ele>
        <time>2016-07-10T07:47:50.000Z</time>
      </trkpt>
      <trkpt lat="49.24885" lon="1.01462">
        <ele>106</ele>
        <time>2016-07-10T07:47:51.000Z</time>
      </trkpt>
      <trkpt lat="49.24888" lon="1.01459">
        <ele>106</ele>
        <time>2016-07-10T07:47:52.000Z</time>
      </trkpt>
      <trkpt lat="49.24891" lon="1.01456">
        <ele>106</ele>
        <time>2016-07-10T07:47:53.000Z</time>
      </trkpt>
      <trkpt lat="49.24895" lon="1.01453">
        <ele>106</ele>
        <time>2016-07-10T07:47:54.000Z</time>
      </trkpt>
      <trkpt lat="49.24898" lon="1.01449">
        <ele>106</ele>
        <time>2016-07-10T07:47:55.000Z</time>
      </trkpt>
      <trkpt lat="49.24901" lon="1.01446">
        <ele>107</ele>
        <time>2016-07-10T07:47:56.000Z</time>
      </trkpt>
      <trkpt lat="49.24904" lon="1.01441">
        <ele>107</ele>
        <time>2016-07-10T07:47:57.000Z</time>
      </trkpt>
      <trkpt lat="49.24907" lon="1.01437">
        <ele>107</ele>
        <time>2016-07-10T07:47:58.000Z</time>
      </trkpt>
      <trkpt lat="49.2491" lon="1.01433">
        <ele>107</ele>
        <time>2016-07-10T07:47:59.000Z</time>
      </trkpt>
      <trkpt lat="49.24913" lon="1.01429">
        <ele>107</ele>
        <time>2016-07-10T07:48:00.000Z</time>
      </trkpt>
      <trkpt lat="49.24917" lon="1.01425">
        <ele>107</ele>
        <time>2016-07-10T07:48:01.000Z</time>
      </trkpt>
      <trkpt lat="49.2492" lon="1.01421">
        <ele>107</ele>
        <time>2016-07-10T07:48:02.000Z</time>
      </trkpt>
      <trkpt lat="49.24923" lon="1.01417">
        <ele>107</ele>
        <time>2016-07-10T07:48:03.000Z</time>
      </trkpt>
      <trkpt lat="49.24926" lon="1.01413">
        <ele>107</ele>
        <time>2016-07-10T07:48:04.000Z</time>
      </trkpt>
      <trkpt lat="49.2493" lon="1.01409">
        <ele>108</ele>
        <time>2016-07-10T07:48:05.000Z</time>
      </trkpt>
      <trkpt lat="49.24933" lon="1.01405">
        <ele>108</ele>
        <time>2016-07-10T07:48:06.000Z</time>
      </trkpt>
      <trkpt lat="49.24936" lon="1.01401">
        <ele>108</ele>
        <time>2016-07-10T07:48:07.000Z</time>
      </trkpt>
      <trkpt lat="49.2494" lon="1.01397">
        <ele>108</ele>
        <time>2016-07-10T07:48:08.000Z</time>
      </trkpt>
      <trkpt lat="49.24943" lon="1.01393">
        <ele>108</ele>
        <time>2016-07-10T07:48:09.000Z</time>
      </trkpt>
      <trkpt lat="49.24946" lon="1.01389">
        <ele>108</ele>
        <time>2016-07-10T07:48:10.000Z</time>
      </trkpt>
      <trkpt lat="49.2495" lon="1.01385">
        <ele>107</ele>
        <time>2016-07-10T07:48:11.000Z</time>
      </trkpt>
      <trkpt lat="49.24953" lon="1.01382">
        <ele>107</ele>
        <time>2016-07-10T07:48:12.000Z</time>
      </trkpt>
      <trkpt lat="49.24957" lon="1.01378">
        <ele>107</ele>
        <time>2016-07-10T07:48:13.000Z</time>
      </trkpt>
      <trkpt lat="49.24961" lon="1.01374">
        <ele>107</ele>
        <time>2016-07-10T07:48:14.000Z</time>
      </trkpt>
      <trkpt lat="49.24965" lon="1.0137">
        <ele>106</ele>
        <time>2016-07-10T07:48:15.000Z</time>
      </trkpt>
      <trkpt lat="49.24969" lon="1.01366">
        <ele>106</ele>
        <time>2016-07-10T07:48:16.000Z</time>
      </trkpt>
      <trkpt lat="49.24972" lon="1.01361">
        <ele>106</ele>
        <time>2016-07-10T07:48:17.000Z</time>
      </trkpt>
      <trkpt lat="49.24976" lon="1.01357">
        <ele>106</ele>
        <time>2016-07-10T07:48:18.000Z</time>
      </trkpt>
      <trkpt lat="49.24978" lon="1.01352">
        <ele>106</ele>
        <time>2016-07-10T07:48:19.000Z</time>
      </trkpt>
      <trkpt lat="49.2498" lon="1.01349">
        <ele>106</ele>
        <time>2016-07-10T07:48:20.000Z</time>
      </trkpt>
      <trkpt lat="49.24982" lon="1.01345">
        <ele>106</ele>
        <time>2016-07-10T07:48:21.000Z</time>
      </trkpt>
      <trkpt lat="49.24983" lon="1.01343">
        <ele>105</ele>
        <time>2016-07-10T07:48:22.000Z</time>
      </trkpt>
      <trkpt lat="49.24984" lon="1.01341">
        <ele>105</ele>
        <time>2016-07-10T07:48:23.000Z</time>
      </trkpt>
      <trkpt lat="49.24985" lon="1.0134">
        <ele>105</ele>
        <time>2016-07-10T07:48:24.000Z</time>
      </trkpt>
      <trkpt lat="49.24985" lon="1.01339">
        <ele>105</ele>
        <time>2016-07-10T07:48:25.000Z</time>
      </trkpt>
      <trkpt lat="49.24985" lon="1.01338">
        <ele>104</ele>
        <time>2016-07-10T07:48:26.000Z</time>
      </trkpt>
      <trkpt lat="49.24985" lon="1.01337">
        <ele>104</ele>
        <time>2016-07-10T07:48:27.000Z</time>
      </trkpt>
      <trkpt lat="49.24985" lon="1.01336">
        <ele>104</ele>
        <time>2016-07-10T07:48:28.000Z</time>
      </trkpt>
      <trkpt lat="49.24984" lon="1.01336">
        <ele>104</ele>
        <time>2016-07-10T07:48:29.000Z</time>
      </trkpt>
      <trkpt lat="49.24983" lon="1.01337">
        <ele>103</ele>
        <time>2016-07-10T07:48:30.000Z</time>
      </trkpt>
      <trkpt lat="49.24984" lon="1.01339">
        <ele>103</ele>
        <time>2016-07-10T07:48:31.000Z</time>
      </trkpt>
      <trkpt lat="49.24986" lon="1.01341">
        <ele>103</ele>
        <time>2016-07-10T07:48:32.000Z</time>
      </trkpt>
      <trkpt lat="49.24988" lon="1.0134">
        <ele>103</ele>
        <time>2016-07-10T07:48:33.000Z</time>
      </trkpt>
      <trkpt lat="49.2499" lon="1.01336">
        <ele>103</ele>
        <time>2016-07-10T07:48:34.000Z</time>
      </trkpt>
      <trkpt lat="49.24992" lon="1.01331">
        <ele>102</ele>
        <time>2016-07-10T07:48:35.000Z</time>
      </trkpt>
      <trkpt lat="49.24994" lon="1.01326">
        <ele>102</ele>
        <time>2016-07-10T07:48:36.000Z</time>
      </trkpt>
      <trkpt lat="49.24997" lon="1.01321">
        <ele>101</ele>
        <time>2016-07-10T07:48:37.000Z</time>
      </trkpt>
      <trkpt lat="49.25" lon="1.01315">
        <ele>100</ele>
        <time>2016-07-10T07:48:38.000Z</time>
      </trkpt>
      <trkpt lat="49.25002" lon="1.01309">
        <ele>99</ele>
        <time>2016-07-10T07:48:39.000Z</time>
      </trkpt>
      <trkpt lat="49.25005" lon="1.01303">
        <ele>99</ele>
        <time>2016-07-10T07:48:40.000Z</time>
      </trkpt>
      <trkpt lat="49.25009" lon="1.01297">
        <ele>98</ele>
        <time>2016-07-10T07:48:41.000Z</time>
      </trkpt>
      <trkpt lat="49.25012" lon="1.01291">
        <ele>97</ele>
        <time>2016-07-10T07:48:42.000Z</time>
      </trkpt>
      <trkpt lat="49.25016" lon="1.01286">
        <ele>96</ele>
        <time>2016-07-10T07:48:43.000Z</time>
      </trkpt>
      <trkpt lat="49.25019" lon="1.01281">
        <ele>95</ele>
        <time>2016-07-10T07:48:44.000Z</time>
      </trkpt>
      <trkpt lat="49.25022" lon="1.01278">
        <ele>93</ele>
        <time>2016-07-10T07:48:45.000Z</time>
      </trkpt>
      <trkpt lat="49.25025" lon="1.01276">
        <ele>92</ele>
        <time>2016-07-10T07:48:46.000Z</time>
      </trkpt>
      <trkpt lat="49.25027" lon="1.01274">
        <ele>92</ele>
        <time>2016-07-10T07:48:47.000Z</time>
      </trkpt>
      <trkpt lat="49.25029" lon="1.01273">
        <ele>93</ele>
        <time>2016-07-10T07:48:48.000Z</time>
      </trkpt>
      <trkpt lat="49.25031" lon="1.01272">
        <ele>95</ele>
        <time>2016-07-10T07:48:49.000Z</time>
      </trkpt>
      <trkpt lat="49.25031" lon="1.01272">
        <ele>94</ele>
        <time>2016-07-10T07:48:50.000Z</time>
      </trkpt>
      <trkpt lat="49.2503" lon="1.01273">
        <ele>95</ele>
        <time>2016-07-10T07:48:51.000Z</time>
      </trkpt>
      <trkpt lat="49.2503" lon="1.01273">
        <ele>95</ele>
        <time>2016-07-10T07:48:52.000Z</time>
      </trkpt>
      <trkpt lat="49.2503" lon="1.01273">
        <ele>95</ele>
        <time>2016-07-10T07:48:53.000Z</time>
      </trkpt>
      <trkpt lat="49.25029" lon="1.01272">
        <ele>95</ele>
        <time>2016-07-10T07:48:54.000Z</time>
      </trkpt>
      <trkpt lat="49.25029" lon="1.01272">
        <ele>96</ele>
        <time>2016-07-10T07:48:55.000Z</time>
      </trkpt>
      <trkpt lat="49.25029" lon="1.01272">
        <ele>96</ele>
        <time>2016-07-10T07:48:56.000Z</time>
      </trkpt>
      <trkpt lat="49.25029" lon="1.01272">
        <ele>96</ele>
        <time>2016-07-10T07:48:57.000Z</time>
      </trkpt>
      <trkpt lat="49.25029" lon="1.01272">
        <ele>96</ele>
        <time>2016-07-10T07:48:58.000Z</time>
      </trkpt>
      <trkpt lat="49.25029" lon="1.01272">
        <ele>96</ele>
        <time>2016-07-10T07:48:59.000Z</time>
      </trkpt>
      <trkpt lat="49.25029" lon="1.01272">
        <ele>96</ele>
        <time>2016-07-10T07:49:00.000Z</time>
      </trkpt>
      <trkpt lat="49.25029" lon="1.01272">
        <ele>96</ele>
        <time>2016-07-10T07:49:01.000Z</time>
      </trkpt>
      <trkpt lat="49.25029" lon="1.01272">
        <ele>96</ele>
        <time>2016-07-10T07:49:02.000Z</time>
      </trkpt>
      <trkpt lat="49.25028" lon="1.01272">
        <ele>96</ele>
        <time>2016-07-10T07:49:03.000Z</time>
      </trkpt>
      <trkpt lat="49.25028" lon="1.01271">
        <ele>97</ele>
        <time>2016-07-10T07:49:04.000Z</time>
      </trkpt>
      <trkpt lat="49.25028" lon="1.01271">
        <ele>97</ele>
        <time>2016-07-10T07:49:05.000Z</time>
      </trkpt>
      <trkpt lat="49.25028" lon="1.01271">
        <ele>97</ele>
        <time>2016-07-10T07:49:06.000Z</time>
      </trkpt>
      <trkpt lat="49.25028" lon="1.01272">
        <ele>97</ele>
        <time>2016-07-10T07:49:07.000Z</time>
      </trkpt>
      <trkpt lat="49.25028" lon="1.01272">
        <ele>97</ele>
        <time>2016-07-10T07:49:08.000Z</time>
      </trkpt>
      <trkpt lat="49.25028" lon="1.01272">
        <ele>96</ele>
        <time>2016-07-10T07:49:09.000Z</time>
      </trkpt>
      <trkpt lat="49.25028" lon="1.01273">
        <ele>96</ele>
        <time>2016-07-10T07:49:10.000Z</time>
      </trkpt>
      <trkpt lat="49.25028" lon="1.01273">
        <ele>96</ele>
        <time>2016-07-10T07:49:11.000Z</time>
      </trkpt>
      <trkpt lat="49.25028" lon="1.01273">
        <ele>97</ele>
        <time>2016-07-10T07:49:12.000Z</time>
      </trkpt>
      <trkpt lat="49.25028" lon="1.01273">
        <ele>97</ele>
        <time>2016-07-10T07:49:13.000Z</time>
      </trkpt>
      <trkpt lat="49.25028" lon="1.01273">
        <ele>97</ele>
        <time>2016-07-10T07:49:14.000Z</time>
      </trkpt>
      <trkpt lat="49.25028" lon="1.01272">
        <ele>98</ele>
        <time>2016-07-10T07:49:15.000Z</time>
      </trkpt>
      <trkpt lat="49.25028" lon="1.01272">
        <ele>98</ele>
        <time>2016-07-10T07:49:16.000Z</time>
      </trkpt>
      <trkpt lat="49.25028" lon="1.01272">
        <ele>98</ele>
        <time>2016-07-10T07:49:17.000Z</time>
      </trkpt>
      <trkpt lat="49.25028" lon="1.01272">
        <ele>98</ele>
        <time>2016-07-10T07:49:18.000Z</time>
      </trkpt>
      <trkpt lat="49.25028" lon="1.01272">
        <ele>98</ele>
        <time>2016-07-10T07:49:19.000Z</time>
      </trkpt>
      <trkpt lat="49.25028" lon="1.01272">
        <ele>98</ele>
        <time>2016-07-10T07:49:20.000Z</time>
      </trkpt>
      <trkpt lat="49.25028" lon="1.01272">
        <ele>98</ele>
        <time>2016-07-10T07:49:21.000Z</time>
      </trkpt>
      <trkpt lat="49.25028" lon="1.01272">
        <ele>98</ele>
        <time>2016-07-10T07:49:22.000Z</time>
      </trkpt>
      <trkpt lat="49.25028" lon="1.01271">
        <ele>98</ele>
        <time>2016-07-10T07:49:23.000Z</time>
      </trkpt>
      <trkpt lat="49.25028" lon="1.01271">
        <ele>98</ele>
        <time>2016-07-10T07:49:24.000Z</time>
      </trkpt>
      <trkpt lat="49.25028" lon="1.01271">
        <ele>98</ele>
        <time>2016-07-10T07:49:25.000Z</time>
      </trkpt>
      <trkpt lat="49.25028" lon="1.01271">
        <ele>98</ele>
        <time>2016-07-10T07:49:26.000Z</time>
      </trkpt>
      <trkpt lat="49.25028" lon="1.01271">
        <ele>98</ele>
        <time>2016-07-10T07:49:27.000Z</time>
      </trkpt>
      <trkpt lat="49.25028" lon="1.01271">
        <ele>97</ele>
        <time>2016-07-10T07:49:28.000Z</time>
      </trkpt>
      <trkpt lat="49.25028" lon="1.01271">
        <ele>97</ele>
        <time>2016-07-10T07:49:29.000Z</time>
      </trkpt>
      <trkpt lat="49.25029" lon="1.01271">
        <ele>97</ele>
        <time>2016-07-10T07:49:30.000Z</time>
      </trkpt>
      <trkpt lat="49.25029" lon="1.01271">
        <ele>97</ele>
        <time>2016-07-10T07:49:31.000Z</time>
      </trkpt>
      <trkpt lat="49.25031" lon="1.01271">
        <ele>96</ele>
        <time>2016-07-10T07:49:32.000Z</time>
      </trkpt>
      <trkpt lat="49.25032" lon="1.01271">
        <ele>96</ele>
        <time>2016-07-10T07:49:33.000Z</time>
      </trkpt>
      <trkpt lat="49.25034" lon="1.01271">
        <ele>96</ele>
        <time>2016-07-10T07:49:34.000Z</time>
      </trkpt>
      <trkpt lat="49.25035" lon="1.01271">
        <ele>96</ele>
        <time>2016-07-10T07:49:35.000Z</time>
      </trkpt>
      <trkpt lat="49.25037" lon="1.01271">
        <ele>96</ele>
        <time>2016-07-10T07:49:36.000Z</time>
      </trkpt>
      <trkpt lat="49.25038" lon="1.0127">
        <ele>96</ele>
        <time>2016-07-10T07:49:37.000Z</time>
      </trkpt>
      <trkpt lat="49.2504" lon="1.01269">
        <ele>96</ele>
        <time>2016-07-10T07:49:38.000Z</time>
      </trkpt>
      <trkpt lat="49.25042" lon="1.01268">
        <ele>96</ele>
        <time>2016-07-10T07:49:39.000Z</time>
      </trkpt>
      <trkpt lat="49.25045" lon="1.01266">
        <ele>96</ele>
        <time>2016-07-10T07:49:40.000Z</time>
      </trkpt>
      <trkpt lat="49.25048" lon="1.01263">
        <ele>96</ele>
        <time>2016-07-10T07:49:41.000Z</time>
      </trkpt>
      <trkpt lat="49.25052" lon="1.01261">
        <ele>96</ele>
        <time>2016-07-10T07:49:42.000Z</time>
      </trkpt>
      <trkpt lat="49.25056" lon="1.01258">
        <ele>95</ele>
        <time>2016-07-10T07:49:43.000Z</time>
      </trkpt>
      <trkpt lat="49.25059" lon="1.01256">
        <ele>95</ele>
        <time>2016-07-10T07:49:44.000Z</time>
      </trkpt>
      <trkpt lat="49.25062" lon="1.01253">
        <ele>95</ele>
        <time>2016-07-10T07:49:45.000Z</time>
      </trkpt>
      <trkpt lat="49.25064" lon="1.01251">
        <ele>96</ele>
        <time>2016-07-10T07:49:46.000Z</time>
      </trkpt>
      <trkpt lat="49.25066" lon="1.01249">
        <ele>96</ele>
        <time>2016-07-10T07:49:47.000Z</time>
      </trkpt>
      <trkpt lat="49.25068" lon="1.01247">
        <ele>96</ele>
        <time>2016-07-10T07:49:48.000Z</time>
      </trkpt>
      <trkpt lat="49.25069" lon="1.01246">
        <ele>96</ele>
        <time>2016-07-10T07:49:49.000Z</time>
      </trkpt>
      <trkpt lat="49.25071" lon="1.01245">
        <ele>95</ele>
        <time>2016-07-10T07:49:50.000Z</time>
      </trkpt>
      <trkpt lat="49.25072" lon="1.01244">
        <ele>96</ele>
        <time>2016-07-10T07:49:51.000Z</time>
      </trkpt>
      <trkpt lat="49.25074" lon="1.01244">
        <ele>95</ele>
        <time>2016-07-10T07:49:52.000Z</time>
      </trkpt>
      <trkpt lat="49.25076" lon="1.01244">
        <ele>94</ele>
        <time>2016-07-10T07:49:53.000Z</time>
      </trkpt>
      <trkpt lat="49.25077" lon="1.01244">
        <ele>94</ele>
        <time>2016-07-10T07:49:54.000Z</time>
      </trkpt>
      <trkpt lat="49.25079" lon="1.01243">
        <ele>94</ele>
        <time>2016-07-10T07:49:55.000Z</time>
      </trkpt>
      <trkpt lat="49.25081" lon="1.01242">
        <ele>94</ele>
        <time>2016-07-10T07:49:56.000Z</time>
      </trkpt>
      <trkpt lat="49.25083" lon="1.0124">
        <ele>93</ele>
        <time>2016-07-10T07:49:57.000Z</time>
      </trkpt>
      <trkpt lat="49.25085" lon="1.01239">
        <ele>92</ele>
        <time>2016-07-10T07:49:58.000Z</time>
      </trkpt>
      <trkpt lat="49.25086" lon="1.01239">
        <ele>92</ele>
        <time>2016-07-10T07:49:59.000Z</time>
      </trkpt>
      <trkpt lat="49.25088" lon="1.01238">
        <ele>92</ele>
        <time>2016-07-10T07:50:00.000Z</time>
      </trkpt>
      <trkpt lat="49.25089" lon="1.01237">
        <ele>92</ele>
        <time>2016-07-10T07:50:01.000Z</time>
      </trkpt>
      <trkpt lat="49.25091" lon="1.01236">
        <ele>91</ele>
        <time>2016-07-10T07:50:02.000Z</time>
      </trkpt>
      <trkpt lat="49.25093" lon="1.01236">
        <ele>89</ele>
        <time>2016-07-10T07:50:03.000Z</time>
      </trkpt>
      <trkpt lat="49.25095" lon="1.01235">
        <ele>88</ele>
        <time>2016-07-10T07:50:04.000Z</time>
      </trkpt>
      <trkpt lat="49.25097" lon="1.01235">
        <ele>86</ele>
        <time>2016-07-10T07:50:05.000Z</time>
      </trkpt>
      <trkpt lat="49.251" lon="1.01235">
        <ele>83</ele>
        <time>2016-07-10T07:50:06.000Z</time>
      </trkpt>
      <trkpt lat="49.25103" lon="1.01236">
        <ele>82</ele>
        <time>2016-07-10T07:50:07.000Z</time>
      </trkpt>
      <trkpt lat="49.25105" lon="1.01236">
        <ele>80</ele>
        <time>2016-07-10T07:50:08.000Z</time>
      </trkpt>
      <trkpt lat="49.25108" lon="1.01236">
        <ele>78</ele>
        <time>2016-07-10T07:50:09.000Z</time>
      </trkpt>
      <trkpt lat="49.2511" lon="1.01235">
        <ele>76</ele>
        <time>2016-07-10T07:50:10.000Z</time>
      </trkpt>
      <trkpt lat="49.25113" lon="1.01234">
        <ele>75</ele>
        <time>2016-07-10T07:50:11.000Z</time>
      </trkpt>
      <trkpt lat="49.25115" lon="1.01234">
        <ele>74</ele>
        <time>2016-07-10T07:50:12.000Z</time>
      </trkpt>
      <trkpt lat="49.25118" lon="1.01233">
        <ele>73</ele>
        <time>2016-07-10T07:50:13.000Z</time>
      </trkpt>
      <trkpt lat="49.2512" lon="1.01233">
        <ele>72</ele>
        <time>2016-07-10T07:50:14.000Z</time>
      </trkpt>
      <trkpt lat="49.25122" lon="1.01232">
        <ele>71</ele>
        <time>2016-07-10T07:50:15.000Z</time>
      </trkpt>
      <trkpt lat="49.25124" lon="1.01232">
        <ele>70</ele>
        <time>2016-07-10T07:50:16.000Z</time>
      </trkpt>
      <trkpt lat="49.25126" lon="1.01231">
        <ele>68</ele>
        <time>2016-07-10T07:50:17.000Z</time>
      </trkpt>
      <trkpt lat="49.25129" lon="1.0123">
        <ele>67</ele>
        <time>2016-07-10T07:50:18.000Z</time>
      </trkpt>
      <trkpt lat="49.25132" lon="1.01227">
        <ele>66</ele>
        <time>2016-07-10T07:50:19.000Z</time>
      </trkpt>
      <trkpt lat="49.25134" lon="1.01225">
        <ele>65</ele>
        <time>2016-07-10T07:50:20.000Z</time>
      </trkpt>
      <trkpt lat="49.25137" lon="1.01223">
        <ele>64</ele>
        <time>2016-07-10T07:50:21.000Z</time>
      </trkpt>
      <trkpt lat="49.25139" lon="1.01221">
        <ele>62</ele>
        <time>2016-07-10T07:50:22.000Z</time>
      </trkpt>
      <trkpt lat="49.25142" lon="1.01219">
        <ele>62</ele>
        <time>2016-07-10T07:50:23.000Z</time>
      </trkpt>
      <trkpt lat="49.25144" lon="1.01216">
        <ele>63</ele>
        <time>2016-07-10T07:50:24.000Z</time>
      </trkpt>
      <trkpt lat="49.25146" lon="1.01213">
        <ele>62</ele>
        <time>2016-07-10T07:50:25.000Z</time>
      </trkpt>
      <trkpt lat="49.25147" lon="1.01211">
        <ele>63</ele>
        <time>2016-07-10T07:50:26.000Z</time>
      </trkpt>
      <trkpt lat="49.25149" lon="1.0121">
        <ele>64</ele>
        <time>2016-07-10T07:50:27.000Z</time>
      </trkpt>
      <trkpt lat="49.25151" lon="1.01209">
        <ele>67</ele>
        <time>2016-07-10T07:50:28.000Z</time>
      </trkpt>
      <trkpt lat="49.25153" lon="1.01207">
        <ele>66</ele>
        <time>2016-07-10T07:50:29.000Z</time>
      </trkpt>
      <trkpt lat="49.25155" lon="1.01204">
        <ele>65</ele>
        <time>2016-07-10T07:50:30.000Z</time>
      </trkpt>
      <trkpt lat="49.25156" lon="1.01202">
        <ele>65</ele>
        <time>2016-07-10T07:50:31.000Z</time>
      </trkpt>
      <trkpt lat="49.25157" lon="1.01201">
        <ele>63</ele>
        <time>2016-07-10T07:50:32.000Z</time>
      </trkpt>
      <trkpt lat="49.25158" lon="1.012">
        <ele>64</ele>
        <time>2016-07-10T07:50:33.000Z</time>
      </trkpt>
      <trkpt lat="49.25159" lon="1.01199">
        <ele>64</ele>
        <time>2016-07-10T07:50:34.000Z</time>
      </trkpt>
      <trkpt lat="49.2516" lon="1.01198">
        <ele>64</ele>
        <time>2016-07-10T07:50:35.000Z</time>
      </trkpt>
      <trkpt lat="49.25162" lon="1.01197">
        <ele>65</ele>
        <time>2016-07-10T07:50:36.000Z</time>
      </trkpt>
      <trkpt lat="49.25163" lon="1.01196">
        <ele>66</ele>
        <time>2016-07-10T07:50:37.000Z</time>
      </trkpt>
      <trkpt lat="49.25164" lon="1.01194">
        <ele>65</ele>
        <time>2016-07-10T07:50:38.000Z</time>
      </trkpt>
      <trkpt lat="49.25165" lon="1.01193">
        <ele>65</ele>
        <time>2016-07-10T07:50:39.000Z</time>
      </trkpt>
      <trkpt lat="49.25167" lon="1.0119">
        <ele>66</ele>
        <time>2016-07-10T07:50:40.000Z</time>
      </trkpt>
      <trkpt lat="49.25169" lon="1.01187">
        <ele>66</ele>
        <time>2016-07-10T07:50:41.000Z</time>
      </trkpt>
      <trkpt lat="49.25172" lon="1.01184">
        <ele>66</ele>
        <time>2016-07-10T07:50:42.000Z</time>
      </trkpt>
      <trkpt lat="49.25174" lon="1.01182">
        <ele>66</ele>
        <time>2016-07-10T07:50:43.000Z</time>
      </trkpt>
      <trkpt lat="49.25177" lon="1.0118">
        <ele>66</ele>
        <time>2016-07-10T07:50:44.000Z</time>
      </trkpt>
      <trkpt lat="49.25179" lon="1.01179">
        <ele>63</ele>
        <time>2016-07-10T07:50:45.000Z</time>
      </trkpt>
      <trkpt lat="49.25182" lon="1.01178">
        <ele>63</ele>
        <time>2016-07-10T07:50:46.000Z</time>
      </trkpt>
      <trkpt lat="49.25184" lon="1.01177">
        <ele>64</ele>
        <time>2016-07-10T07:50:47.000Z</time>
      </trkpt>
      <trkpt lat="49.25186" lon="1.01176">
        <ele>64</ele>
        <time>2016-07-10T07:50:48.000Z</time>
      </trkpt>
      <trkpt lat="49.25189" lon="1.01176">
        <ele>65</ele>
        <time>2016-07-10T07:50:49.000Z</time>
      </trkpt>
      <trkpt lat="49.2519" lon="1.01176">
        <ele>66</ele>
        <time>2016-07-10T07:50:50.000Z</time>
      </trkpt>
      <trkpt lat="49.25192" lon="1.01175">
        <ele>66</ele>
        <time>2016-07-10T07:50:51.000Z</time>
      </trkpt>
      <trkpt lat="49.25193" lon="1.01175">
        <ele>66</ele>
        <time>2016-07-10T07:50:52.000Z</time>
      </trkpt>
      <trkpt lat="49.25194" lon="1.01175">
        <ele>67</ele>
        <time>2016-07-10T07:50:53.000Z</time>
      </trkpt>
      <trkpt lat="49.25195" lon="1.01174">
        <ele>68</ele>
        <time>2016-07-10T07:50:54.000Z</time>
      </trkpt>
      <trkpt lat="49.25195" lon="1.01174">
        <ele>67</ele>
        <time>2016-07-10T07:50:55.000Z</time>
      </trkpt>
      <trkpt lat="49.25196" lon="1.01174">
        <ele>67</ele>
        <time>2016-07-10T07:50:56.000Z</time>
      </trkpt>
      <trkpt lat="49.25197" lon="1.01174">
        <ele>67</ele>
        <time>2016-07-10T07:50:57.000Z</time>
      </trkpt>
      <trkpt lat="49.25198" lon="1.01174">
        <ele>67</ele>
        <time>2016-07-10T07:50:58.000Z</time>
      </trkpt>
      <trkpt lat="49.25199" lon="1.01174">
        <ele>68</ele>
        <time>2016-07-10T07:50:59.000Z</time>
      </trkpt>
      <trkpt lat="49.25199" lon="1.01174">
        <ele>68</ele>
        <time>2016-07-10T07:51:00.000Z</time>
      </trkpt>
      <trkpt lat="49.252" lon="1.01173">
        <ele>68</ele>
        <time>2016-07-10T07:51:01.000Z</time>
      </trkpt>
      <trkpt lat="49.25201" lon="1.01173">
        <ele>69</ele>
        <time>2016-07-10T07:51:02.000Z</time>
      </trkpt>
      <trkpt lat="49.25201" lon="1.01173">
        <ele>68</ele>
        <time>2016-07-10T07:51:03.000Z</time>
      </trkpt>
      <trkpt lat="49.25202" lon="1.01172">
        <ele>69</ele>
        <time>2016-07-10T07:51:04.000Z</time>
      </trkpt>
      <trkpt lat="49.25203" lon="1.01171">
        <ele>69</ele>
        <time>2016-07-10T07:51:05.000Z</time>
      </trkpt>
      <trkpt lat="49.25204" lon="1.01171">
        <ele>69</ele>
        <time>2016-07-10T07:51:06.000Z</time>
      </trkpt>
      <trkpt lat="49.25204" lon="1.01171">
        <ele>69</ele>
        <time>2016-07-10T07:51:07.000Z</time>
      </trkpt>
      <trkpt lat="49.25205" lon="1.0117">
        <ele>69</ele>
        <time>2016-07-10T07:51:08.000Z</time>
      </trkpt>
      <trkpt lat="49.25207" lon="1.01169">
        <ele>69</ele>
        <time>2016-07-10T07:51:09.000Z</time>
      </trkpt>
      <trkpt lat="49.25208" lon="1.01168">
        <ele>70</ele>
        <time>2016-07-10T07:51:10.000Z</time>
      </trkpt>
      <trkpt lat="49.2521" lon="1.01166">
        <ele>69</ele>
        <time>2016-07-10T07:51:11.000Z</time>
      </trkpt>
      <trkpt lat="49.25211" lon="1.01164">
        <ele>69</ele>
        <time>2016-07-10T07:51:12.000Z</time>
      </trkpt>
      <trkpt lat="49.25213" lon="1.01162">
        <ele>69</ele>
        <time>2016-07-10T07:51:13.000Z</time>
      </trkpt>
      <trkpt lat="49.25215" lon="1.01159">
        <ele>70</ele>
        <time>2016-07-10T07:51:14.000Z</time>
      </trkpt>
      <trkpt lat="49.25217" lon="1.01158">
        <ele>71</ele>
        <time>2016-07-10T07:51:15.000Z</time>
      </trkpt>
      <trkpt lat="49.25219" lon="1.01156">
        <ele>71</ele>
        <time>2016-07-10T07:51:16.000Z</time>
      </trkpt>
      <trkpt lat="49.25221" lon="1.01155">
        <ele>71</ele>
        <time>2016-07-10T07:51:17.000Z</time>
      </trkpt>
      <trkpt lat="49.25222" lon="1.01154">
        <ele>72</ele>
        <time>2016-07-10T07:51:18.000Z</time>
      </trkpt>
      <trkpt lat="49.25224" lon="1.01153">
        <ele>73</ele>
        <time>2016-07-10T07:51:19.000Z</time>
      </trkpt>
      <trkpt lat="49.25225" lon="1.01152">
        <ele>72</ele>
        <time>2016-07-10T07:51:20.000Z</time>
      </trkpt>
      <trkpt lat="49.25226" lon="1.01151">
        <ele>72</ele>
        <time>2016-07-10T07:51:21.000Z</time>
      </trkpt>
      <trkpt lat="49.25227" lon="1.0115">
        <ele>72</ele>
        <time>2016-07-10T07:51:22.000Z</time>
      </trkpt>
      <trkpt lat="49.25229" lon="1.01149">
        <ele>72</ele>
        <time>2016-07-10T07:51:23.000Z</time>
      </trkpt>
      <trkpt lat="49.25231" lon="1.01147">
        <ele>73</ele>
        <time>2016-07-10T07:51:24.000Z</time>
      </trkpt>
      <trkpt lat="49.25232" lon="1.01145">
        <ele>74</ele>
        <time>2016-07-10T07:51:25.000Z</time>
      </trkpt>
      <trkpt lat="49.25234" lon="1.01144">
        <ele>75</ele>
        <time>2016-07-10T07:51:26.000Z</time>
      </trkpt>
      <trkpt lat="49.25235" lon="1.01143">
        <ele>76</ele>
        <time>2016-07-10T07:51:27.000Z</time>
      </trkpt>
      <trkpt lat="49.25236" lon="1.01142">
        <ele>78</ele>
        <time>2016-07-10T07:51:28.000Z</time>
      </trkpt>
      <trkpt lat="49.25237" lon="1.0114">
        <ele>79</ele>
        <time>2016-07-10T07:51:29.000Z</time>
      </trkpt>
      <trkpt lat="49.25238" lon="1.01139">
        <ele>79</ele>
        <time>2016-07-10T07:51:30.000Z</time>
      </trkpt>
      <trkpt lat="49.25239" lon="1.01138">
        <ele>79</ele>
        <time>2016-07-10T07:51:31.000Z</time>
      </trkpt>
      <trkpt lat="49.2524" lon="1.01136">
        <ele>80</ele>
        <time>2016-07-10T07:51:32.000Z</time>
      </trkpt>
      <trkpt lat="49.25242" lon="1.01135">
        <ele>81</ele>
        <time>2016-07-10T07:51:33.000Z</time>
      </trkpt>
      <trkpt lat="49.25243" lon="1.01133">
        <ele>81</ele>
        <time>2016-07-10T07:51:34.000Z</time>
      </trkpt>
      <trkpt lat="49.25244" lon="1.01132">
        <ele>81</ele>
        <time>2016-07-10T07:51:35.000Z</time>
      </trkpt>
      <trkpt lat="49.25246" lon="1.01131">
        <ele>80</ele>
        <time>2016-07-10T07:51:36.000Z</time>
      </trkpt>
      <trkpt lat="49.25247" lon="1.01129">
        <ele>81</ele>
        <time>2016-07-10T07:51:37.000Z</time>
      </trkpt>
      <trkpt lat="49.25248" lon="1.01127">
        <ele>81</ele>
        <time>2016-07-10T07:51:38.000Z</time>
      </trkpt>
      <trkpt lat="49.25249" lon="1.01125">
        <ele>81</ele>
        <time>2016-07-10T07:51:39.000Z</time>
      </trkpt>
      <trkpt lat="49.25251" lon="1.01124">
        <ele>81</ele>
        <time>2016-07-10T07:51:40.000Z</time>
      </trkpt>
      <trkpt lat="49.25252" lon="1.01122">
        <ele>83</ele>
        <time>2016-07-10T07:51:41.000Z</time>
      </trkpt>
      <trkpt lat="49.25253" lon="1.01121">
        <ele>83</ele>
        <time>2016-07-10T07:51:42.000Z</time>
      </trkpt>
      <trkpt lat="49.25254" lon="1.0112">
        <ele>83</ele>
        <time>2016-07-10T07:51:43.000Z</time>
      </trkpt>
      <trkpt lat="49.25255" lon="1.01119">
        <ele>84</ele>
        <time>2016-07-10T07:51:44.000Z</time>
      </trkpt>
      <trkpt lat="49.25257" lon="1.01118">
        <ele>84</ele>
        <time>2016-07-10T07:51:45.000Z</time>
      </trkpt>
      <trkpt lat="49.25258" lon="1.01117">
        <ele>84</ele>
        <time>2016-07-10T07:51:46.000Z</time>
      </trkpt>
      <trkpt lat="49.2526" lon="1.01115">
        <ele>85</ele>
        <time>2016-07-10T07:51:47.000Z</time>
      </trkpt>
      <trkpt lat="49.25263" lon="1.01112">
        <ele>85</ele>
        <time>2016-07-10T07:51:48.000Z</time>
      </trkpt>
      <trkpt lat="49.25265" lon="1.01109">
        <ele>85</ele>
        <time>2016-07-10T07:51:49.000Z</time>
      </trkpt>
      <trkpt lat="49.25267" lon="1.01107">
        <ele>85</ele>
        <time>2016-07-10T07:51:50.000Z</time>
      </trkpt>
      <trkpt lat="49.25269" lon="1.01105">
        <ele>85</ele>
        <time>2016-07-10T07:51:51.000Z</time>
      </trkpt>
      <trkpt lat="49.25271" lon="1.01104">
        <ele>86</ele>
        <time>2016-07-10T07:51:52.000Z</time>
      </trkpt>
      <trkpt lat="49.25273" lon="1.01103">
        <ele>86</ele>
        <time>2016-07-10T07:51:53.000Z</time>
      </trkpt>
      <trkpt lat="49.25274" lon="1.01102">
        <ele>87</ele>
        <time>2016-07-10T07:51:54.000Z</time>
      </trkpt>
      <trkpt lat="49.25276" lon="1.01101">
        <ele>87</ele>
        <time>2016-07-10T07:51:55.000Z</time>
      </trkpt>
      <trkpt lat="49.25277" lon="1.01101">
        <ele>87</ele>
        <time>2016-07-10T07:51:56.000Z</time>
      </trkpt>
      <trkpt lat="49.25279" lon="1.011">
        <ele>87</ele>
        <time>2016-07-10T07:51:57.000Z</time>
      </trkpt>
      <trkpt lat="49.2528" lon="1.01099">
        <ele>87</ele>
        <time>2016-07-10T07:51:58.000Z</time>
      </trkpt>
      <trkpt lat="49.25282" lon="1.01098">
        <ele>88</ele>
        <time>2016-07-10T07:51:59.000Z</time>
      </trkpt>
      <trkpt lat="49.25283" lon="1.01097">
        <ele>88</ele>
        <time>2016-07-10T07:52:00.000Z</time>
      </trkpt>
      <trkpt lat="49.25285" lon="1.01096">
        <ele>88</ele>
        <time>2016-07-10T07:52:01.000Z</time>
      </trkpt>
      <trkpt lat="49.25287" lon="1.01094">
        <ele>88</ele>
        <time>2016-07-10T07:52:02.000Z</time>
      </trkpt>
      <trkpt lat="49.25288" lon="1.01093">
        <ele>89</ele>
        <time>2016-07-10T07:52:03.000Z</time>
      </trkpt>
      <trkpt lat="49.2529" lon="1.01091">
        <ele>89</ele>
        <time>2016-07-10T07:52:04.000Z</time>
      </trkpt>
      <trkpt lat="49.25292" lon="1.01089">
        <ele>88</ele>
        <time>2016-07-10T07:52:05.000Z</time>
      </trkpt>
      <trkpt lat="49.25293" lon="1.01087">
        <ele>89</ele>
        <time>2016-07-10T07:52:06.000Z</time>
      </trkpt>
      <trkpt lat="49.25295" lon="1.01085">
        <ele>90</ele>
        <time>2016-07-10T07:52:07.000Z</time>
      </trkpt>
      <trkpt lat="49.25297" lon="1.01084">
        <ele>90</ele>
        <time>2016-07-10T07:52:08.000Z</time>
      </trkpt>
      <trkpt lat="49.25298" lon="1.01082">
        <ele>91</ele>
        <time>2016-07-10T07:52:09.000Z</time>
      </trkpt>
      <trkpt lat="49.253" lon="1.0108">
        <ele>91</ele>
        <time>2016-07-10T07:52:10.000Z</time>
      </trkpt>
      <trkpt lat="49.25301" lon="1.01079">
        <ele>91</ele>
        <time>2016-07-10T07:52:11.000Z</time>
      </trkpt>
      <trkpt lat="49.25303" lon="1.01078">
        <ele>91</ele>
        <time>2016-07-10T07:52:12.000Z</time>
      </trkpt>
      <trkpt lat="49.25304" lon="1.01076">
        <ele>92</ele>
        <time>2016-07-10T07:52:13.000Z</time>
      </trkpt>
      <trkpt lat="49.25305" lon="1.01075">
        <ele>92</ele>
        <time>2016-07-10T07:52:14.000Z</time>
      </trkpt>
      <trkpt lat="49.25307" lon="1.01074">
        <ele>93</ele>
        <time>2016-07-10T07:52:15.000Z</time>
      </trkpt>
      <trkpt lat="49.25308" lon="1.01072">
        <ele>92</ele>
        <time>2016-07-10T07:52:16.000Z</time>
      </trkpt>
      <trkpt lat="49.2531" lon="1.0107">
        <ele>92</ele>
        <time>2016-07-10T07:52:17.000Z</time>
      </trkpt>
      <trkpt lat="49.25311" lon="1.01069">
        <ele>93</ele>
        <time>2016-07-10T07:52:18.000Z</time>
      </trkpt>
      <trkpt lat="49.25313" lon="1.01067">
        <ele>93</ele>
        <time>2016-07-10T07:52:19.000Z</time>
      </trkpt>
      <trkpt lat="49.25314" lon="1.01065">
        <ele>93</ele>
        <time>2016-07-10T07:52:20.000Z</time>
      </trkpt>
      <trkpt lat="49.25316" lon="1.01063">
        <ele>92</ele>
        <time>2016-07-10T07:52:21.000Z</time>
      </trkpt>
      <trkpt lat="49.25316" lon="1.01061">
        <ele>92</ele>
        <time>2016-07-10T07:52:22.000Z</time>
      </trkpt>
      <trkpt lat="49.25317" lon="1.01061">
        <ele>91</ele>
        <time>2016-07-10T07:52:23.000Z</time>
      </trkpt>
      <trkpt lat="49.25317" lon="1.0106">
        <ele>92</ele>
        <time>2016-07-10T07:52:24.000Z</time>
      </trkpt>
      <trkpt lat="49.25317" lon="1.01059">
        <ele>93</ele>
        <time>2016-07-10T07:52:25.000Z</time>
      </trkpt>
      <trkpt lat="49.25317" lon="1.01058">
        <ele>93</ele>
        <time>2016-07-10T07:52:26.000Z</time>
      </trkpt>
      <trkpt lat="49.25317" lon="1.01057">
        <ele>94</ele>
        <time>2016-07-10T07:52:27.000Z</time>
      </trkpt>
      <trkpt lat="49.25317" lon="1.01056">
        <ele>94</ele>
        <time>2016-07-10T07:52:28.000Z</time>
      </trkpt>
      <trkpt lat="49.25318" lon="1.01055">
        <ele>95</ele>
        <time>2016-07-10T07:52:29.000Z</time>
      </trkpt>
      <trkpt lat="49.25319" lon="1.01054">
        <ele>94</ele>
        <time>2016-07-10T07:52:30.000Z</time>
      </trkpt>
      <trkpt lat="49.2532" lon="1.01053">
        <ele>95</ele>
        <time>2016-07-10T07:52:31.000Z</time>
      </trkpt>
      <trkpt lat="49.2532" lon="1.01052">
        <ele>95</ele>
        <time>2016-07-10T07:52:32.000Z</time>
      </trkpt>
      <trkpt lat="49.25321" lon="1.0105">
        <ele>95</ele>
        <time>2016-07-10T07:52:33.000Z</time>
      </trkpt>
      <trkpt lat="49.25322" lon="1.01048">
        <ele>94</ele>
        <time>2016-07-10T07:52:34.000Z</time>
      </trkpt>
      <trkpt lat="49.25323" lon="1.01047">
        <ele>94</ele>
        <time>2016-07-10T07:52:35.000Z</time>
      </trkpt>
      <trkpt lat="49.25324" lon="1.01046">
        <ele>93</ele>
        <time>2016-07-10T07:52:36.000Z</time>
      </trkpt>
      <trkpt lat="49.25326" lon="1.01044">
        <ele>93</ele>
        <time>2016-07-10T07:52:37.000Z</time>
      </trkpt>
      <trkpt lat="49.25327" lon="1.01044">
        <ele>93</ele>
        <time>2016-07-10T07:52:38.000Z</time>
      </trkpt>
      <trkpt lat="49.25329" lon="1.01043">
        <ele>93</ele>
        <time>2016-07-10T07:52:39.000Z</time>
      </trkpt>
      <trkpt lat="49.25331" lon="1.01041">
        <ele>93</ele>
        <time>2016-07-10T07:52:40.000Z</time>
      </trkpt>
      <trkpt lat="49.25333" lon="1.01039">
        <ele>94</ele>
        <time>2016-07-10T07:52:41.000Z</time>
      </trkpt>
      <trkpt lat="49.25336" lon="1.01037">
        <ele>94</ele>
        <time>2016-07-10T07:52:42.000Z</time>
      </trkpt>
      <trkpt lat="49.25338" lon="1.01035">
        <ele>95</ele>
        <time>2016-07-10T07:52:43.000Z</time>
      </trkpt>
      <trkpt lat="49.2534" lon="1.01033">
        <ele>95</ele>
        <time>2016-07-10T07:52:44.000Z</time>
      </trkpt>
      <trkpt lat="49.25343" lon="1.01032">
        <ele>95</ele>
        <time>2016-07-10T07:52:45.000Z</time>
      </trkpt>
      <trkpt lat="49.25345" lon="1.0103">
        <ele>95</ele>
        <time>2016-07-10T07:52:46.000Z</time>
      </trkpt>
      <trkpt lat="49.25347" lon="1.01029">
        <ele>97</ele>
        <time>2016-07-10T07:52:47.000Z</time>
      </trkpt>
      <trkpt lat="49.25349" lon="1.01028">
        <ele>97</ele>
        <time>2016-07-10T07:52:48.000Z</time>
      </trkpt>
      <trkpt lat="49.25351" lon="1.01026">
        <ele>97</ele>
        <time>2016-07-10T07:52:49.000Z</time>
      </trkpt>
      <trkpt lat="49.25354" lon="1.01025">
        <ele>97</ele>
        <time>2016-07-10T07:52:50.000Z</time>
      </trkpt>
      <trkpt lat="49.25356" lon="1.01024">
        <ele>97</ele>
        <time>2016-07-10T07:52:51.000Z</time>
      </trkpt>
      <trkpt lat="49.25359" lon="1.01022">
        <ele>96</ele>
        <time>2016-07-10T07:52:52.000Z</time>
      </trkpt>
      <trkpt lat="49.25361" lon="1.0102">
        <ele>96</ele>
        <time>2016-07-10T07:52:53.000Z</time>
      </trkpt>
      <trkpt lat="49.25363" lon="1.01018">
        <ele>96</ele>
        <time>2016-07-10T07:52:54.000Z</time>
      </trkpt>
      <trkpt lat="49.25365" lon="1.01015">
        <ele>95</ele>
        <time>2016-07-10T07:52:55.000Z</time>
      </trkpt>
      <trkpt lat="49.25367" lon="1.01012">
        <ele>95</ele>
        <time>2016-07-10T07:52:56.000Z</time>
      </trkpt>
      <trkpt lat="49.25369" lon="1.01009">
        <ele>95</ele>
        <time>2016-07-10T07:52:57.000Z</time>
      </trkpt>
      <trkpt lat="49.25371" lon="1.01005">
        <ele>95</ele>
        <time>2016-07-10T07:52:58.000Z</time>
      </trkpt>
      <trkpt lat="49.25373" lon="1.01001">
        <ele>94</ele>
        <time>2016-07-10T07:52:59.000Z</time>
      </trkpt>
      <trkpt lat="49.25375" lon="1.00997">
        <ele>94</ele>
        <time>2016-07-10T07:53:00.000Z</time>
      </trkpt>
      <trkpt lat="49.25377" lon="1.00993">
        <ele>94</ele>
        <time>2016-07-10T07:53:01.000Z</time>
      </trkpt>
      <trkpt lat="49.25378" lon="1.0099">
        <ele>93</ele>
        <time>2016-07-10T07:53:02.000Z</time>
      </trkpt>
      <trkpt lat="49.25379" lon="1.00986">
        <ele>93</ele>
        <time>2016-07-10T07:53:03.000Z</time>
      </trkpt>
      <trkpt lat="49.25379" lon="1.00983">
        <ele>92</ele>
        <time>2016-07-10T07:53:04.000Z</time>
      </trkpt>
      <trkpt lat="49.2538" lon="1.00978">
        <ele>90</ele>
        <time>2016-07-10T07:53:05.000Z</time>
      </trkpt>
      <trkpt lat="49.25382" lon="1.00973">
        <ele>91</ele>
        <time>2016-07-10T07:53:06.000Z</time>
      </trkpt>
      <trkpt lat="49.25384" lon="1.00968">
        <ele>93</ele>
        <time>2016-07-10T07:53:07.000Z</time>
      </trkpt>
      <trkpt lat="49.25386" lon="1.00964">
        <ele>94</ele>
        <time>2016-07-10T07:53:08.000Z</time>
      </trkpt>
      <trkpt lat="49.25388" lon="1.00959">
        <ele>94</ele>
        <time>2016-07-10T07:53:09.000Z</time>
      </trkpt>
      <trkpt lat="49.25389" lon="1.00955">
        <ele>93</ele>
        <time>2016-07-10T07:53:10.000Z</time>
      </trkpt>
      <trkpt lat="49.25391" lon="1.00952">
        <ele>93</ele>
        <time>2016-07-10T07:53:11.000Z</time>
      </trkpt>
      <trkpt lat="49.25392" lon="1.00948">
        <ele>93</ele>
        <time>2016-07-10T07:53:12.000Z</time>
      </trkpt>
      <trkpt lat="49.25393" lon="1.00944">
        <ele>93</ele>
        <time>2016-07-10T07:53:13.000Z</time>
      </trkpt>
      <trkpt lat="49.25394" lon="1.00939">
        <ele>93</ele>
        <time>2016-07-10T07:53:14.000Z</time>
      </trkpt>
      <trkpt lat="49.25396" lon="1.00935">
        <ele>91</ele>
        <time>2016-07-10T07:53:15.000Z</time>
      </trkpt>
      <trkpt lat="49.25397" lon="1.00931">
        <ele>90</ele>
        <time>2016-07-10T07:53:16.000Z</time>
      </trkpt>
      <trkpt lat="49.25398" lon="1.00927">
        <ele>90</ele>
        <time>2016-07-10T07:53:17.000Z</time>
      </trkpt>
      <trkpt lat="49.25398" lon="1.00923">
        <ele>89</ele>
        <time>2016-07-10T07:53:18.000Z</time>
      </trkpt>
      <trkpt lat="49.25399" lon="1.00919">
        <ele>90</ele>
        <time>2016-07-10T07:53:19.000Z</time>
      </trkpt>
      <trkpt lat="49.254" lon="1.00915">
        <ele>90</ele>
        <time>2016-07-10T07:53:20.000Z</time>
      </trkpt>
      <trkpt lat="49.25401" lon="1.0091">
        <ele>88</ele>
        <time>2016-07-10T07:53:21.000Z</time>
      </trkpt>
      <trkpt lat="49.25402" lon="1.00906">
        <ele>89</ele>
        <time>2016-07-10T07:53:22.000Z</time>
      </trkpt>
      <trkpt lat="49.25403" lon="1.00901">
        <ele>89</ele>
        <time>2016-07-10T07:53:23.000Z</time>
      </trkpt>
      <trkpt lat="49.25403" lon="1.00896">
        <ele>88</ele>
        <time>2016-07-10T07:53:24.000Z</time>
      </trkpt>
      <trkpt lat="49.25404" lon="1.00892">
        <ele>88</ele>
        <time>2016-07-10T07:53:25.000Z</time>
      </trkpt>
      <trkpt lat="49.25405" lon="1.00887">
        <ele>88</ele>
        <time>2016-07-10T07:53:26.000Z</time>
      </trkpt>
      <trkpt lat="49.25406" lon="1.00882">
        <ele>88</ele>
        <time>2016-07-10T07:53:27.000Z</time>
      </trkpt>
      <trkpt lat="49.25407" lon="1.00877">
        <ele>88</ele>
        <time>2016-07-10T07:53:28.000Z</time>
      </trkpt>
      <trkpt lat="49.25408" lon="1.00873">
        <ele>88</ele>
        <time>2016-07-10T07:53:29.000Z</time>
      </trkpt>
      <trkpt lat="49.25408" lon="1.00867">
        <ele>88</ele>
        <time>2016-07-10T07:53:30.000Z</time>
      </trkpt>
      <trkpt lat="49.25409" lon="1.00862">
        <ele>88</ele>
        <time>2016-07-10T07:53:31.000Z</time>
      </trkpt>
      <trkpt lat="49.2541" lon="1.00856">
        <ele>89</ele>
        <time>2016-07-10T07:53:32.000Z</time>
      </trkpt>
      <trkpt lat="49.25412" lon="1.00851">
        <ele>90</ele>
        <time>2016-07-10T07:53:33.000Z</time>
      </trkpt>
      <trkpt lat="49.25413" lon="1.00846">
        <ele>90</ele>
        <time>2016-07-10T07:53:34.000Z</time>
      </trkpt>
      <trkpt lat="49.25413" lon="1.00841">
        <ele>90</ele>
        <time>2016-07-10T07:53:35.000Z</time>
      </trkpt>
      <trkpt lat="49.25414" lon="1.00837">
        <ele>90</ele>
        <time>2016-07-10T07:53:36.000Z</time>
      </trkpt>
      <trkpt lat="49.25415" lon="1.00832">
        <ele>89</ele>
        <time>2016-07-10T07:53:37.000Z</time>
      </trkpt>
      <trkpt lat="49.25417" lon="1.00828">
        <ele>89</ele>
        <time>2016-07-10T07:53:38.000Z</time>
      </trkpt>
      <trkpt lat="49.25418" lon="1.00823">
        <ele>89</ele>
        <time>2016-07-10T07:53:39.000Z</time>
      </trkpt>
      <trkpt lat="49.25419" lon="1.00819">
        <ele>90</ele>
        <time>2016-07-10T07:53:40.000Z</time>
      </trkpt>
      <trkpt lat="49.2542" lon="1.00815">
        <ele>89</ele>
        <time>2016-07-10T07:53:41.000Z</time>
      </trkpt>
      <trkpt lat="49.2542" lon="1.00809">
        <ele>88</ele>
        <time>2016-07-10T07:53:42.000Z</time>
      </trkpt>
      <trkpt lat="49.25421" lon="1.00804">
        <ele>88</ele>
        <time>2016-07-10T07:53:43.000Z</time>
      </trkpt>
      <trkpt lat="49.25422" lon="1.00799">
        <ele>89</ele>
        <time>2016-07-10T07:53:44.000Z</time>
      </trkpt>
      <trkpt lat="49.25423" lon="1.00793">
        <ele>88</ele>
        <time>2016-07-10T07:53:45.000Z</time>
      </trkpt>
      <trkpt lat="49.25424" lon="1.00788">
        <ele>88</ele>
        <time>2016-07-10T07:53:46.000Z</time>
      </trkpt>
      <trkpt lat="49.25425" lon="1.00782">
        <ele>88</ele>
        <time>2016-07-10T07:53:47.000Z</time>
      </trkpt>
      <trkpt lat="49.25426" lon="1.00777">
        <ele>88</ele>
        <time>2016-07-10T07:53:48.000Z</time>
      </trkpt>
      <trkpt lat="49.25427" lon="1.00772">
        <ele>88</ele>
        <time>2016-07-10T07:53:49.000Z</time>
      </trkpt>
      <trkpt lat="49.25428" lon="1.00767">
        <ele>89</ele>
        <time>2016-07-10T07:53:50.000Z</time>
      </trkpt>
      <trkpt lat="49.25428" lon="1.00763">
        <ele>90</ele>
        <time>2016-07-10T07:53:51.000Z</time>
      </trkpt>
      <trkpt lat="49.25429" lon="1.00759">
        <ele>91</ele>
        <time>2016-07-10T07:53:52.000Z</time>
      </trkpt>
      <trkpt lat="49.2543" lon="1.00755">
        <ele>91</ele>
        <time>2016-07-10T07:53:53.000Z</time>
      </trkpt>
      <trkpt lat="49.25431" lon="1.0075">
        <ele>90</ele>
        <time>2016-07-10T07:53:54.000Z</time>
      </trkpt>
      <trkpt lat="49.25433" lon="1.00746">
        <ele>91</ele>
        <time>2016-07-10T07:53:55.000Z</time>
      </trkpt>
      <trkpt lat="49.25434" lon="1.00741">
        <ele>91</ele>
        <time>2016-07-10T07:53:56.000Z</time>
      </trkpt>
      <trkpt lat="49.25435" lon="1.00737">
        <ele>91</ele>
        <time>2016-07-10T07:53:57.000Z</time>
      </trkpt>
      <trkpt lat="49.25435" lon="1.00732">
        <ele>91</ele>
        <time>2016-07-10T07:53:58.000Z</time>
      </trkpt>
      <trkpt lat="49.25436" lon="1.00727">
        <ele>91</ele>
        <time>2016-07-10T07:53:59.000Z</time>
      </trkpt>
      <trkpt lat="49.25437" lon="1.00722">
        <ele>91</ele>
        <time>2016-07-10T07:54:00.000Z</time>
      </trkpt>
      <trkpt lat="49.25438" lon="1.00717">
        <ele>91</ele>
        <time>2016-07-10T07:54:01.000Z</time>
      </trkpt>
      <trkpt lat="49.25439" lon="1.00713">
        <ele>92</ele>
        <time>2016-07-10T07:54:02.000Z</time>
      </trkpt>
      <trkpt lat="49.2544" lon="1.00709">
        <ele>91</ele>
        <time>2016-07-10T07:54:03.000Z</time>
      </trkpt>
      <trkpt lat="49.25441" lon="1.00706">
        <ele>90</ele>
        <time>2016-07-10T07:54:04.000Z</time>
      </trkpt>
      <trkpt lat="49.25444" lon="1.00702">
        <ele>91</ele>
        <time>2016-07-10T07:54:05.000Z</time>
      </trkpt>
      <trkpt lat="49.25446" lon="1.00698">
        <ele>92</ele>
        <time>2016-07-10T07:54:06.000Z</time>
      </trkpt>
      <trkpt lat="49.25449" lon="1.00694">
        <ele>93</ele>
        <time>2016-07-10T07:54:07.000Z</time>
      </trkpt>
      <trkpt lat="49.25451" lon="1.0069">
        <ele>95</ele>
        <time>2016-07-10T07:54:08.000Z</time>
      </trkpt>
      <trkpt lat="49.25453" lon="1.00687">
        <ele>95</ele>
        <time>2016-07-10T07:54:09.000Z</time>
      </trkpt>
      <trkpt lat="49.25456" lon="1.00683">
        <ele>95</ele>
        <time>2016-07-10T07:54:10.000Z</time>
      </trkpt>
      <trkpt lat="49.25458" lon="1.0068">
        <ele>96</ele>
        <time>2016-07-10T07:54:11.000Z</time>
      </trkpt>
      <trkpt lat="49.25461" lon="1.00676">
        <ele>96</ele>
        <time>2016-07-10T07:54:12.000Z</time>
      </trkpt>
      <trkpt lat="49.25463" lon="1.00672">
        <ele>96</ele>
        <time>2016-07-10T07:54:13.000Z</time>
      </trkpt>
      <trkpt lat="49.25466" lon="1.00668">
        <ele>95</ele>
        <time>2016-07-10T07:54:14.000Z</time>
      </trkpt>
      <trkpt lat="49.25468" lon="1.00664">
        <ele>95</ele>
        <time>2016-07-10T07:54:15.000Z</time>
      </trkpt>
      <trkpt lat="49.25471" lon="1.0066">
        <ele>95</ele>
        <time>2016-07-10T07:54:16.000Z</time>
      </trkpt>
      <trkpt lat="49.25474" lon="1.00656">
        <ele>95</ele>
        <time>2016-07-10T07:54:17.000Z</time>
      </trkpt>
      <trkpt lat="49.25477" lon="1.00652">
        <ele>96</ele>
        <time>2016-07-10T07:54:18.000Z</time>
      </trkpt>
      <trkpt lat="49.2548" lon="1.00648">
        <ele>96</ele>
        <time>2016-07-10T07:54:19.000Z</time>
      </trkpt>
      <trkpt lat="49.25483" lon="1.00644">
        <ele>97</ele>
        <time>2016-07-10T07:54:20.000Z</time>
      </trkpt>
      <trkpt lat="49.25486" lon="1.00639">
        <ele>96</ele>
        <time>2016-07-10T07:54:21.000Z</time>
      </trkpt>
      <trkpt lat="49.25489" lon="1.00634">
        <ele>96</ele>
        <time>2016-07-10T07:54:22.000Z</time>
      </trkpt>
      <trkpt lat="49.25492" lon="1.0063">
        <ele>96</ele>
        <time>2016-07-10T07:54:23.000Z</time>
      </trkpt>
      <trkpt lat="49.25496" lon="1.00625">
        <ele>96</ele>
        <time>2016-07-10T07:54:24.000Z</time>
      </trkpt>
      <trkpt lat="49.25499" lon="1.00621">
        <ele>97</ele>
        <time>2016-07-10T07:54:25.000Z</time>
      </trkpt>
      <trkpt lat="49.25502" lon="1.00616">
        <ele>97</ele>
        <time>2016-07-10T07:54:26.000Z</time>
      </trkpt>
      <trkpt lat="49.25505" lon="1.00611">
        <ele>97</ele>
        <time>2016-07-10T07:54:27.000Z</time>
      </trkpt>
      <trkpt lat="49.25508" lon="1.00606">
        <ele>97</ele>
        <time>2016-07-10T07:54:28.000Z</time>
      </trkpt>
      <trkpt lat="49.25512" lon="1.00602">
        <ele>97</ele>
        <time>2016-07-10T07:54:29.000Z</time>
      </trkpt>
      <trkpt lat="49.25515" lon="1.00597">
        <ele>96</ele>
        <time>2016-07-10T07:54:30.000Z</time>
      </trkpt>
      <trkpt lat="49.25518" lon="1.00592">
        <ele>96</ele>
        <time>2016-07-10T07:54:31.000Z</time>
      </trkpt>
      <trkpt lat="49.25521" lon="1.00586">
        <ele>96</ele>
        <time>2016-07-10T07:54:32.000Z</time>
      </trkpt>
      <trkpt lat="49.25525" lon="1.0058">
        <ele>97</ele>
        <time>2016-07-10T07:54:33.000Z</time>
      </trkpt>
      <trkpt lat="49.25528" lon="1.00574">
        <ele>97</ele>
        <time>2016-07-10T07:54:34.000Z</time>
      </trkpt>
      <trkpt lat="49.25532" lon="1.00568">
        <ele>96</ele>
        <time>2016-07-10T07:54:35.000Z</time>
      </trkpt>
      <trkpt lat="49.25536" lon="1.00563">
        <ele>97</ele>
        <time>2016-07-10T07:54:36.000Z</time>
      </trkpt>
      <trkpt lat="49.2554" lon="1.00559">
        <ele>99</ele>
        <time>2016-07-10T07:54:37.000Z</time>
      </trkpt>
      <trkpt lat="49.25544" lon="1.00555">
        <ele>99</ele>
        <time>2016-07-10T07:54:38.000Z</time>
      </trkpt>
      <trkpt lat="49.25547" lon="1.00553">
        <ele>99</ele>
        <time>2016-07-10T07:54:39.000Z</time>
      </trkpt>
      <trkpt lat="49.2555" lon="1.00551">
        <ele>99</ele>
        <time>2016-07-10T07:54:40.000Z</time>
      </trkpt>
      <trkpt lat="49.25553" lon="1.00549">
        <ele>98</ele>
        <time>2016-07-10T07:54:41.000Z</time>
      </trkpt>
      <trkpt lat="49.25556" lon="1.00547">
        <ele>98</ele>
        <time>2016-07-10T07:54:42.000Z</time>
      </trkpt>
      <trkpt lat="49.2556" lon="1.00546">
        <ele>97</ele>
        <time>2016-07-10T07:54:43.000Z</time>
      </trkpt>
      <trkpt lat="49.25563" lon="1.00545">
        <ele>96</ele>
        <time>2016-07-10T07:54:44.000Z</time>
      </trkpt>
      <trkpt lat="49.25566" lon="1.00545">
        <ele>96</ele>
        <time>2016-07-10T07:54:45.000Z</time>
      </trkpt>
      <trkpt lat="49.25569" lon="1.00544">
        <ele>96</ele>
        <time>2016-07-10T07:54:46.000Z</time>
      </trkpt>
      <trkpt lat="49.25572" lon="1.00542">
        <ele>95</ele>
        <time>2016-07-10T07:54:47.000Z</time>
      </trkpt>
      <trkpt lat="49.25576" lon="1.0054">
        <ele>94</ele>
        <time>2016-07-10T07:54:48.000Z</time>
      </trkpt>
      <trkpt lat="49.25578" lon="1.00537">
        <ele>94</ele>
        <time>2016-07-10T07:54:49.000Z</time>
      </trkpt>
      <trkpt lat="49.25581" lon="1.00535">
        <ele>94</ele>
        <time>2016-07-10T07:54:50.000Z</time>
      </trkpt>
      <trkpt lat="49.25583" lon="1.00533">
        <ele>93</ele>
        <time>2016-07-10T07:54:51.000Z</time>
      </trkpt>
      <trkpt lat="49.25585" lon="1.00532">
        <ele>93</ele>
        <time>2016-07-10T07:54:52.000Z</time>
      </trkpt>
      <trkpt lat="49.25587" lon="1.00531">
        <ele>93</ele>
        <time>2016-07-10T07:54:53.000Z</time>
      </trkpt>
      <trkpt lat="49.25588" lon="1.00529">
        <ele>93</ele>
        <time>2016-07-10T07:54:54.000Z</time>
      </trkpt>
      <trkpt lat="49.2559" lon="1.00528">
        <ele>94</ele>
        <time>2016-07-10T07:54:55.000Z</time>
      </trkpt>
      <trkpt lat="49.25592" lon="1.00527">
        <ele>94</ele>
        <time>2016-07-10T07:54:56.000Z</time>
      </trkpt>
      <trkpt lat="49.25593" lon="1.00525">
        <ele>94</ele>
        <time>2016-07-10T07:54:57.000Z</time>
      </trkpt>
      <trkpt lat="49.25595" lon="1.00524">
        <ele>95</ele>
        <time>2016-07-10T07:54:58.000Z</time>
      </trkpt>
      <trkpt lat="49.25596" lon="1.00522">
        <ele>96</ele>
        <time>2016-07-10T07:54:59.000Z</time>
      </trkpt>
      <trkpt lat="49.25597" lon="1.00519">
        <ele>96</ele>
        <time>2016-07-10T07:55:00.000Z</time>
      </trkpt>
      <trkpt lat="49.25599" lon="1.00515">
        <ele>96</ele>
        <time>2016-07-10T07:55:01.000Z</time>
      </trkpt>
      <trkpt lat="49.25601" lon="1.00511">
        <ele>96</ele>
        <time>2016-07-10T07:55:02.000Z</time>
      </trkpt>
      <trkpt lat="49.25603" lon="1.00508">
        <ele>96</ele>
        <time>2016-07-10T07:55:03.000Z</time>
      </trkpt>
      <trkpt lat="49.25605" lon="1.00505">
        <ele>97</ele>
        <time>2016-07-10T07:55:04.000Z</time>
      </trkpt>
      <trkpt lat="49.25607" lon="1.00502">
        <ele>97</ele>
        <time>2016-07-10T07:55:05.000Z</time>
      </trkpt>
      <trkpt lat="49.25609" lon="1.005">
        <ele>97</ele>
        <time>2016-07-10T07:55:06.000Z</time>
      </trkpt>
      <trkpt lat="49.25611" lon="1.00498">
        <ele>98</ele>
        <time>2016-07-10T07:55:07.000Z</time>
      </trkpt>
      <trkpt lat="49.25613" lon="1.00497">
        <ele>98</ele>
        <time>2016-07-10T07:55:08.000Z</time>
      </trkpt>
      <trkpt lat="49.25615" lon="1.00496">
        <ele>98</ele>
        <time>2016-07-10T07:55:09.000Z</time>
      </trkpt>
      <trkpt lat="49.25617" lon="1.00495">
        <ele>98</ele>
        <time>2016-07-10T07:55:10.000Z</time>
      </trkpt>
      <trkpt lat="49.25619" lon="1.00495">
        <ele>98</ele>
        <time>2016-07-10T07:55:11.000Z</time>
      </trkpt>
      <trkpt lat="49.25621" lon="1.00495">
        <ele>97</ele>
        <time>2016-07-10T07:55:12.000Z</time>
      </trkpt>
      <trkpt lat="49.25623" lon="1.00495">
        <ele>97</ele>
        <time>2016-07-10T07:55:13.000Z</time>
      </trkpt>
      <trkpt lat="49.25624" lon="1.00495">
        <ele>97</ele>
        <time>2016-07-10T07:55:14.000Z</time>
      </trkpt>
      <trkpt lat="49.25626" lon="1.00496">
        <ele>98</ele>
        <time>2016-07-10T07:55:15.000Z</time>
      </trkpt>
      <trkpt lat="49.25627" lon="1.00497">
        <ele>98</ele>
        <time>2016-07-10T07:55:16.000Z</time>
      </trkpt>
      <trkpt lat="49.25628" lon="1.00499">
        <ele>98</ele>
        <time>2016-07-10T07:55:17.000Z</time>
      </trkpt>
      <trkpt lat="49.25629" lon="1.00501">
        <ele>98</ele>
        <time>2016-07-10T07:55:18.000Z</time>
      </trkpt>
      <trkpt lat="49.2563" lon="1.00502">
        <ele>98</ele>
        <time>2016-07-10T07:55:19.000Z</time>
      </trkpt>
      <trkpt lat="49.25631" lon="1.00502">
        <ele>98</ele>
        <time>2016-07-10T07:55:20.000Z</time>
      </trkpt>
      <trkpt lat="49.25632" lon="1.00502">
        <ele>99</ele>
        <time>2016-07-10T07:55:21.000Z</time>
      </trkpt>
      <trkpt lat="49.25633" lon="1.00502">
        <ele>99</ele>
        <time>2016-07-10T07:55:22.000Z</time>
      </trkpt>
      <trkpt lat="49.25634" lon="1.00502">
        <ele>99</ele>
        <time>2016-07-10T07:55:23.000Z</time>
      </trkpt>
      <trkpt lat="49.25634" lon="1.00502">
        <ele>100</ele>
        <time>2016-07-10T07:55:24.000Z</time>
      </trkpt>
      <trkpt lat="49.25635" lon="1.00502">
        <ele>100</ele>
        <time>2016-07-10T07:55:25.000Z</time>
      </trkpt>
      <trkpt lat="49.25636" lon="1.00502">
        <ele>101</ele>
        <time>2016-07-10T07:55:26.000Z</time>
      </trkpt>
      <trkpt lat="49.25637" lon="1.00502">
        <ele>102</ele>
        <time>2016-07-10T07:55:27.000Z</time>
      </trkpt>
      <trkpt lat="49.25637" lon="1.00501">
        <ele>102</ele>
        <time>2016-07-10T07:55:28.000Z</time>
      </trkpt>
      <trkpt lat="49.25638" lon="1.00501">
        <ele>103</ele>
        <time>2016-07-10T07:55:29.000Z</time>
      </trkpt>
      <trkpt lat="49.25639" lon="1.00501">
        <ele>103</ele>
        <time>2016-07-10T07:55:30.000Z</time>
      </trkpt>
      <trkpt lat="49.25639" lon="1.005">
        <ele>104</ele>
        <time>2016-07-10T07:55:31.000Z</time>
      </trkpt>
      <trkpt lat="49.2564" lon="1.005">
        <ele>105</ele>
        <time>2016-07-10T07:55:32.000Z</time>
      </trkpt>
      <trkpt lat="49.25641" lon="1.005">
        <ele>106</ele>
        <time>2016-07-10T07:55:33.000Z</time>
      </trkpt>
      <trkpt lat="49.25641" lon="1.005">
        <ele>107</ele>
        <time>2016-07-10T07:55:34.000Z</time>
      </trkpt>
      <trkpt lat="49.25642" lon="1.005">
        <ele>108</ele>
        <time>2016-07-10T07:55:35.000Z</time>
      </trkpt>
      <trkpt lat="49.25642" lon="1.005">
        <ele>108</ele>
        <time>2016-07-10T07:55:36.000Z</time>
      </trkpt>
      <trkpt lat="49.25643" lon="1.005">
        <ele>108</ele>
        <time>2016-07-10T07:55:37.000Z</time>
      </trkpt>
      <trkpt lat="49.25643" lon="1.005">
        <ele>109</ele>
        <time>2016-07-10T07:55:38.000Z</time>
      </trkpt>
      <trkpt lat="49.25643" lon="1.005">
        <ele>109</ele>
        <time>2016-07-10T07:55:39.000Z</time>
      </trkpt>
      <trkpt lat="49.25644" lon="1.00501">
        <ele>110</ele>
        <time>2016-07-10T07:55:40.000Z</time>
      </trkpt>
      <trkpt lat="49.25644" lon="1.00501">
        <ele>110</ele>
        <time>2016-07-10T07:55:41.000Z</time>
      </trkpt>
      <trkpt lat="49.25644" lon="1.00501">
        <ele>111</ele>
        <time>2016-07-10T07:55:42.000Z</time>
      </trkpt>
      <trkpt lat="49.25645" lon="1.00501">
        <ele>111</ele>
        <time>2016-07-10T07:55:43.000Z</time>
      </trkpt>
      <trkpt lat="49.25645" lon="1.005">
        <ele>111</ele>
        <time>2016-07-10T07:55:44.000Z</time>
      </trkpt>
      <trkpt lat="49.25646" lon="1.005">
        <ele>112</ele>
        <time>2016-07-10T07:55:45.000Z</time>
      </trkpt>
      <trkpt lat="49.25646" lon="1.005">
        <ele>112</ele>
        <time>2016-07-10T07:55:46.000Z</time>
      </trkpt>
      <trkpt lat="49.25647" lon="1.005">
        <ele>112</ele>
        <time>2016-07-10T07:55:47.000Z</time>
      </trkpt>
      <trkpt lat="49.25647" lon="1.00501">
        <ele>112</ele>
        <time>2016-07-10T07:55:48.000Z</time>
      </trkpt>
      <trkpt lat="49.25647" lon="1.00501">
        <ele>113</ele>
        <time>2016-07-10T07:55:49.000Z</time>
      </trkpt>
      <trkpt lat="49.25647" lon="1.00501">
        <ele>113</ele>
        <time>2016-07-10T07:55:50.000Z</time>
      </trkpt>
      <trkpt lat="49.25648" lon="1.00501">
        <ele>113</ele>
        <time>2016-07-10T07:55:51.000Z</time>
      </trkpt>
      <trkpt lat="49.25648" lon="1.00501">
        <ele>114</ele>
        <time>2016-07-10T07:55:52.000Z</time>
      </trkpt>
      <trkpt lat="49.25648" lon="1.005">
        <ele>115</ele>
        <time>2016-07-10T07:55:53.000Z</time>
      </trkpt>
      <trkpt lat="49.25648" lon="1.005">
        <ele>115</ele>
        <time>2016-07-10T07:55:54.000Z</time>
      </trkpt>
      <trkpt lat="49.25649" lon="1.005">
        <ele>116</ele>
        <time>2016-07-10T07:55:55.000Z</time>
      </trkpt>
      <trkpt lat="49.25649" lon="1.00501">
        <ele>116</ele>
        <time>2016-07-10T07:55:56.000Z</time>
      </trkpt>
      <trkpt lat="49.2565" lon="1.00502">
        <ele>116</ele>
        <time>2016-07-10T07:55:57.000Z</time>
      </trkpt>
      <trkpt lat="49.25651" lon="1.00503">
        <ele>116</ele>
        <time>2016-07-10T07:55:58.000Z</time>
      </trkpt>
      <trkpt lat="49.25652" lon="1.00503">
        <ele>117</ele>
        <time>2016-07-10T07:55:59.000Z</time>
      </trkpt>
      <trkpt lat="49.25653" lon="1.00504">
        <ele>117</ele>
        <time>2016-07-10T07:56:00.000Z</time>
      </trkpt>
      <trkpt lat="49.25654" lon="1.00504">
        <ele>117</ele>
        <time>2016-07-10T07:56:01.000Z</time>
      </trkpt>
      <trkpt lat="49.25654" lon="1.00503">
        <ele>117</ele>
        <time>2016-07-10T07:56:02.000Z</time>
      </trkpt>
      <trkpt lat="49.25656" lon="1.00503">
        <ele>117</ele>
        <time>2016-07-10T07:56:03.000Z</time>
      </trkpt>
      <trkpt lat="49.25657" lon="1.00502">
        <ele>117</ele>
        <time>2016-07-10T07:56:04.000Z</time>
      </trkpt>
      <trkpt lat="49.25658" lon="1.00501">
        <ele>117</ele>
        <time>2016-07-10T07:56:05.000Z</time>
      </trkpt>
      <trkpt lat="49.25659" lon="1.005">
        <ele>117</ele>
        <time>2016-07-10T07:56:06.000Z</time>
      </trkpt>
      <trkpt lat="49.2566" lon="1.00499">
        <ele>117</ele>
        <time>2016-07-10T07:56:07.000Z</time>
      </trkpt>
      <trkpt lat="49.25662" lon="1.00498">
        <ele>117</ele>
        <time>2016-07-10T07:56:08.000Z</time>
      </trkpt>
      <trkpt lat="49.25663" lon="1.00497">
        <ele>117</ele>
        <time>2016-07-10T07:56:09.000Z</time>
      </trkpt>
      <trkpt lat="49.25665" lon="1.00497">
        <ele>117</ele>
        <time>2016-07-10T07:56:10.000Z</time>
      </trkpt>
      <trkpt lat="49.25667" lon="1.00496">
        <ele>117</ele>
        <time>2016-07-10T07:56:11.000Z</time>
      </trkpt>
      <trkpt lat="49.25668" lon="1.00495">
        <ele>116</ele>
        <time>2016-07-10T07:56:12.000Z</time>
      </trkpt>
      <trkpt lat="49.25669" lon="1.00493">
        <ele>116</ele>
        <time>2016-07-10T07:56:13.000Z</time>
      </trkpt>
      <trkpt lat="49.2567" lon="1.00492">
        <ele>116</ele>
        <time>2016-07-10T07:56:14.000Z</time>
      </trkpt>
      <trkpt lat="49.25671" lon="1.00491">
        <ele>116</ele>
        <time>2016-07-10T07:56:15.000Z</time>
      </trkpt>
      <trkpt lat="49.25673" lon="1.00491">
        <ele>116</ele>
        <time>2016-07-10T07:56:16.000Z</time>
      </trkpt>
      <trkpt lat="49.25674" lon="1.0049">
        <ele>116</ele>
        <time>2016-07-10T07:56:17.000Z</time>
      </trkpt>
      <trkpt lat="49.25675" lon="1.00489">
        <ele>117</ele>
        <time>2016-07-10T07:56:18.000Z</time>
      </trkpt>
      <trkpt lat="49.25677" lon="1.00488">
        <ele>117</ele>
        <time>2016-07-10T07:56:19.000Z</time>
      </trkpt>
      <trkpt lat="49.25678" lon="1.00487">
        <ele>117</ele>
        <time>2016-07-10T07:56:20.000Z</time>
      </trkpt>
      <trkpt lat="49.2568" lon="1.00486">
        <ele>117</ele>
        <time>2016-07-10T07:56:21.000Z</time>
      </trkpt>
      <trkpt lat="49.25681" lon="1.00485">
        <ele>117</ele>
        <time>2016-07-10T07:56:22.000Z</time>
      </trkpt>
      <trkpt lat="49.25683" lon="1.00485">
        <ele>117</ele>
        <time>2016-07-10T07:56:23.000Z</time>
      </trkpt>
      <trkpt lat="49.25684" lon="1.00485">
        <ele>117</ele>
        <time>2016-07-10T07:56:24.000Z</time>
      </trkpt>
      <trkpt lat="49.25685" lon="1.00484">
        <ele>117</ele>
        <time>2016-07-10T07:56:25.000Z</time>
      </trkpt>
      <trkpt lat="49.25686" lon="1.00483">
        <ele>117</ele>
        <time>2016-07-10T07:56:26.000Z</time>
      </trkpt>
      <trkpt lat="49.25688" lon="1.00483">
        <ele>117</ele>
        <time>2016-07-10T07:56:27.000Z</time>
      </trkpt>
      <trkpt lat="49.25689" lon="1.00482">
        <ele>117</ele>
        <time>2016-07-10T07:56:28.000Z</time>
      </trkpt>
      <trkpt lat="49.2569" lon="1.00482">
        <ele>117</ele>
        <time>2016-07-10T07:56:29.000Z</time>
      </trkpt>
      <trkpt lat="49.25691" lon="1.00481">
        <ele>117</ele>
        <time>2016-07-10T07:56:30.000Z</time>
      </trkpt>
      <trkpt lat="49.25693" lon="1.0048">
        <ele>118</ele>
        <time>2016-07-10T07:56:31.000Z</time>
      </trkpt>
      <trkpt lat="49.25694" lon="1.00479">
        <ele>117</ele>
        <time>2016-07-10T07:56:32.000Z</time>
      </trkpt>
      <trkpt lat="49.25695" lon="1.00478">
        <ele>117</ele>
        <time>2016-07-10T07:56:33.000Z</time>
      </trkpt>
      <trkpt lat="49.25697" lon="1.00477">
        <ele>118</ele>
        <time>2016-07-10T07:56:34.000Z</time>
      </trkpt>
      <trkpt lat="49.25698" lon="1.00476">
        <ele>118</ele>
        <time>2016-07-10T07:56:35.000Z</time>
      </trkpt>
      <trkpt lat="49.25699" lon="1.00475">
        <ele>118</ele>
        <time>2016-07-10T07:56:36.000Z</time>
      </trkpt>
      <trkpt lat="49.257" lon="1.00475">
        <ele>118</ele>
        <time>2016-07-10T07:56:37.000Z</time>
      </trkpt>
      <trkpt lat="49.25701" lon="1.00474">
        <ele>117</ele>
        <time>2016-07-10T07:56:38.000Z</time>
      </trkpt>
      <trkpt lat="49.25702" lon="1.00474">
        <ele>118</ele>
        <time>2016-07-10T07:56:39.000Z</time>
      </trkpt>
      <trkpt lat="49.25704" lon="1.00473">
        <ele>118</ele>
        <time>2016-07-10T07:56:40.000Z</time>
      </trkpt>
      <trkpt lat="49.25705" lon="1.00472">
        <ele>118</ele>
        <time>2016-07-10T07:56:41.000Z</time>
      </trkpt>
      <trkpt lat="49.25707" lon="1.00471">
        <ele>117</ele>
        <time>2016-07-10T07:56:42.000Z</time>
      </trkpt>
      <trkpt lat="49.25708" lon="1.0047">
        <ele>118</ele>
        <time>2016-07-10T07:56:43.000Z</time>
      </trkpt>
      <trkpt lat="49.2571" lon="1.00468">
        <ele>118</ele>
        <time>2016-07-10T07:56:44.000Z</time>
      </trkpt>
      <trkpt lat="49.25712" lon="1.00467">
        <ele>118</ele>
        <time>2016-07-10T07:56:45.000Z</time>
      </trkpt>
      <trkpt lat="49.25713" lon="1.00466">
        <ele>118</ele>
        <time>2016-07-10T07:56:46.000Z</time>
      </trkpt>
      <trkpt lat="49.25715" lon="1.00465">
        <ele>118</ele>
        <time>2016-07-10T07:56:47.000Z</time>
      </trkpt>
      <trkpt lat="49.25716" lon="1.00464">
        <ele>118</ele>
        <time>2016-07-10T07:56:48.000Z</time>
      </trkpt>
      <trkpt lat="49.25718" lon="1.00463">
        <ele>119</ele>
        <time>2016-07-10T07:56:49.000Z</time>
      </trkpt>
      <trkpt lat="49.25719" lon="1.00462">
        <ele>119</ele>
        <time>2016-07-10T07:56:50.000Z</time>
      </trkpt>
      <trkpt lat="49.25721" lon="1.00461">
        <ele>120</ele>
        <time>2016-07-10T07:56:51.000Z</time>
      </trkpt>
      <trkpt lat="49.25723" lon="1.0046">
        <ele>120</ele>
        <time>2016-07-10T07:56:52.000Z</time>
      </trkpt>
      <trkpt lat="49.25724" lon="1.00459">
        <ele>120</ele>
        <time>2016-07-10T07:56:53.000Z</time>
      </trkpt>
      <trkpt lat="49.25726" lon="1.00459">
        <ele>121</ele>
        <time>2016-07-10T07:56:54.000Z</time>
      </trkpt>
      <trkpt lat="49.25728" lon="1.00458">
        <ele>121</ele>
        <time>2016-07-10T07:56:55.000Z</time>
      </trkpt>
      <trkpt lat="49.25729" lon="1.00458">
        <ele>120</ele>
        <time>2016-07-10T07:56:56.000Z</time>
      </trkpt>
      <trkpt lat="49.25731" lon="1.00457">
        <ele>120</ele>
        <time>2016-07-10T07:56:57.000Z</time>
      </trkpt>
      <trkpt lat="49.25732" lon="1.00457">
        <ele>121</ele>
        <time>2016-07-10T07:56:58.000Z</time>
      </trkpt>
      <trkpt lat="49.25733" lon="1.00456">
        <ele>120</ele>
        <time>2016-07-10T07:56:59.000Z</time>
      </trkpt>
      <trkpt lat="49.25735" lon="1.00456">
        <ele>121</ele>
        <time>2016-07-10T07:57:00.000Z</time>
      </trkpt>
      <trkpt lat="49.25737" lon="1.00455">
        <ele>122</ele>
        <time>2016-07-10T07:57:01.000Z</time>
      </trkpt>
      <trkpt lat="49.25738" lon="1.00454">
        <ele>121</ele>
        <time>2016-07-10T07:57:02.000Z</time>
      </trkpt>
      <trkpt lat="49.2574" lon="1.00454">
        <ele>121</ele>
        <time>2016-07-10T07:57:03.000Z</time>
      </trkpt>
      <trkpt lat="49.25741" lon="1.00453">
        <ele>121</ele>
        <time>2016-07-10T07:57:04.000Z</time>
      </trkpt>
      <trkpt lat="49.25743" lon="1.00453">
        <ele>121</ele>
        <time>2016-07-10T07:57:05.000Z</time>
      </trkpt>
      <trkpt lat="49.25744" lon="1.00452">
        <ele>122</ele>
        <time>2016-07-10T07:57:06.000Z</time>
      </trkpt>
      <trkpt lat="49.25746" lon="1.00451">
        <ele>122</ele>
        <time>2016-07-10T07:57:07.000Z</time>
      </trkpt>
      <trkpt lat="49.25748" lon="1.00449">
        <ele>122</ele>
        <time>2016-07-10T07:57:08.000Z</time>
      </trkpt>
      <trkpt lat="49.2575" lon="1.00448">
        <ele>123</ele>
        <time>2016-07-10T07:57:09.000Z</time>
      </trkpt>
      <trkpt lat="49.25752" lon="1.00447">
        <ele>123</ele>
        <time>2016-07-10T07:57:10.000Z</time>
      </trkpt>
      <trkpt lat="49.25753" lon="1.00446">
        <ele>123</ele>
        <time>2016-07-10T07:57:11.000Z</time>
      </trkpt>
      <trkpt lat="49.25754" lon="1.00445">
        <ele>123</ele>
        <time>2016-07-10T07:57:12.000Z</time>
      </trkpt>
      <trkpt lat="49.25755" lon="1.00444">
        <ele>123</ele>
        <time>2016-07-10T07:57:13.000Z</time>
      </trkpt>
      <trkpt lat="49.25756" lon="1.00442">
        <ele>123</ele>
        <time>2016-07-10T07:57:14.000Z</time>
      </trkpt>
      <trkpt lat="49.25758" lon="1.00441">
        <ele>123</ele>
        <time>2016-07-10T07:57:15.000Z</time>
      </trkpt>
      <trkpt lat="49.25759" lon="1.0044">
        <ele>123</ele>
        <time>2016-07-10T07:57:16.000Z</time>
      </trkpt>
      <trkpt lat="49.2576" lon="1.00439">
        <ele>123</ele>
        <time>2016-07-10T07:57:17.000Z</time>
      </trkpt>
      <trkpt lat="49.25762" lon="1.00438">
        <ele>123</ele>
        <time>2016-07-10T07:57:18.000Z</time>
      </trkpt>
      <trkpt lat="49.25764" lon="1.00436">
        <ele>123</ele>
        <time>2016-07-10T07:57:19.000Z</time>
      </trkpt>
      <trkpt lat="49.25766" lon="1.00434">
        <ele>123</ele>
        <time>2016-07-10T07:57:20.000Z</time>
      </trkpt>
      <trkpt lat="49.25767" lon="1.00432">
        <ele>123</ele>
        <time>2016-07-10T07:57:21.000Z</time>
      </trkpt>
      <trkpt lat="49.25769" lon="1.00431">
        <ele>123</ele>
        <time>2016-07-10T07:57:22.000Z</time>
      </trkpt>
      <trkpt lat="49.25771" lon="1.00429">
        <ele>124</ele>
        <time>2016-07-10T07:57:23.000Z</time>
      </trkpt>
      <trkpt lat="49.25773" lon="1.00428">
        <ele>124</ele>
        <time>2016-07-10T07:57:24.000Z</time>
      </trkpt>
      <trkpt lat="49.25774" lon="1.00427">
        <ele>125</ele>
        <time>2016-07-10T07:57:25.000Z</time>
      </trkpt>
      <trkpt lat="49.25776" lon="1.00427">
        <ele>125</ele>
        <time>2016-07-10T07:57:26.000Z</time>
      </trkpt>
      <trkpt lat="49.25778" lon="1.00426">
        <ele>125</ele>
        <time>2016-07-10T07:57:27.000Z</time>
      </trkpt>
      <trkpt lat="49.25779" lon="1.00425">
        <ele>126</ele>
        <time>2016-07-10T07:57:28.000Z</time>
      </trkpt>
      <trkpt lat="49.25782" lon="1.00424">
        <ele>126</ele>
        <time>2016-07-10T07:57:29.000Z</time>
      </trkpt>
      <trkpt lat="49.25784" lon="1.00423">
        <ele>126</ele>
        <time>2016-07-10T07:57:30.000Z</time>
      </trkpt>
      <trkpt lat="49.25786" lon="1.00421">
        <ele>126</ele>
        <time>2016-07-10T07:57:31.000Z</time>
      </trkpt>
      <trkpt lat="49.25788" lon="1.0042">
        <ele>124</ele>
        <time>2016-07-10T07:57:32.000Z</time>
      </trkpt>
      <trkpt lat="49.2579" lon="1.00419">
        <ele>124</ele>
        <time>2016-07-10T07:57:33.000Z</time>
      </trkpt>
      <trkpt lat="49.25792" lon="1.00418">
        <ele>124</ele>
        <time>2016-07-10T07:57:34.000Z</time>
      </trkpt>
      <trkpt lat="49.25794" lon="1.00416">
        <ele>123</ele>
        <time>2016-07-10T07:57:35.000Z</time>
      </trkpt>
      <trkpt lat="49.25797" lon="1.00414">
        <ele>122</ele>
        <time>2016-07-10T07:57:36.000Z</time>
      </trkpt>
      <trkpt lat="49.25799" lon="1.00411">
        <ele>122</ele>
        <time>2016-07-10T07:57:37.000Z</time>
      </trkpt>
      <trkpt lat="49.25801" lon="1.0041">
        <ele>123</ele>
        <time>2016-07-10T07:57:38.000Z</time>
      </trkpt>
      <trkpt lat="49.25802" lon="1.00409">
        <ele>123</ele>
        <time>2016-07-10T07:57:39.000Z</time>
      </trkpt>
      <trkpt lat="49.25804" lon="1.00408">
        <ele>123</ele>
        <time>2016-07-10T07:57:40.000Z</time>
      </trkpt>
      <trkpt lat="49.25806" lon="1.00407">
        <ele>122</ele>
        <time>2016-07-10T07:57:41.000Z</time>
      </trkpt>
      <trkpt lat="49.25808" lon="1.00406">
        <ele>122</ele>
        <time>2016-07-10T07:57:42.000Z</time>
      </trkpt>
      <trkpt lat="49.25811" lon="1.00404">
        <ele>122</ele>
        <time>2016-07-10T07:57:43.000Z</time>
      </trkpt>
      <trkpt lat="49.25813" lon="1.00403">
        <ele>123</ele>
        <time>2016-07-10T07:57:44.000Z</time>
      </trkpt>
      <trkpt lat="49.25815" lon="1.00401">
        <ele>123</ele>
        <time>2016-07-10T07:57:45.000Z</time>
      </trkpt>
      <trkpt lat="49.25817" lon="1.00399">
        <ele>125</ele>
        <time>2016-07-10T07:57:46.000Z</time>
      </trkpt>
      <trkpt lat="49.25819" lon="1.00398">
        <ele>125</ele>
        <time>2016-07-10T07:57:47.000Z</time>
      </trkpt>
      <trkpt lat="49.25822" lon="1.00396">
        <ele>125</ele>
        <time>2016-07-10T07:57:48.000Z</time>
      </trkpt>
      <trkpt lat="49.25825" lon="1.00395">
        <ele>125</ele>
        <time>2016-07-10T07:57:49.000Z</time>
      </trkpt>
      <trkpt lat="49.25828" lon="1.00394">
        <ele>124</ele>
        <time>2016-07-10T07:57:50.000Z</time>
      </trkpt>
      <trkpt lat="49.25831" lon="1.00392">
        <ele>124</ele>
        <time>2016-07-10T07:57:51.000Z</time>
      </trkpt>
      <trkpt lat="49.25833" lon="1.00391">
        <ele>125</ele>
        <time>2016-07-10T07:57:52.000Z</time>
      </trkpt>
      <trkpt lat="49.25836" lon="1.0039">
        <ele>125</ele>
        <time>2016-07-10T07:57:53.000Z</time>
      </trkpt>
      <trkpt lat="49.25838" lon="1.00389">
        <ele>125</ele>
        <time>2016-07-10T07:57:54.000Z</time>
      </trkpt>
      <trkpt lat="49.25841" lon="1.00387">
        <ele>127</ele>
        <time>2016-07-10T07:57:55.000Z</time>
      </trkpt>
      <trkpt lat="49.25844" lon="1.00385">
        <ele>128</ele>
        <time>2016-07-10T07:57:56.000Z</time>
      </trkpt>
      <trkpt lat="49.25847" lon="1.00383">
        <ele>128</ele>
        <time>2016-07-10T07:57:57.000Z</time>
      </trkpt>
      <trkpt lat="49.25849" lon="1.0038">
        <ele>128</ele>
        <time>2016-07-10T07:57:58.000Z</time>
      </trkpt>
      <trkpt lat="49.25853" lon="1.00378">
        <ele>128</ele>
        <time>2016-07-10T07:57:59.000Z</time>
      </trkpt>
      <trkpt lat="49.25856" lon="1.00375">
        <ele>129</ele>
        <time>2016-07-10T07:58:00.000Z</time>
      </trkpt>
      <trkpt lat="49.25859" lon="1.00372">
        <ele>128</ele>
        <time>2016-07-10T07:58:01.000Z</time>
      </trkpt>
      <trkpt lat="49.25861" lon="1.00369">
        <ele>129</ele>
        <time>2016-07-10T07:58:02.000Z</time>
      </trkpt>
      <trkpt lat="49.25864" lon="1.00367">
        <ele>129</ele>
        <time>2016-07-10T07:58:03.000Z</time>
      </trkpt>
      <trkpt lat="49.25866" lon="1.00365">
        <ele>130</ele>
        <time>2016-07-10T07:58:04.000Z</time>
      </trkpt>
      <trkpt lat="49.25869" lon="1.00364">
        <ele>131</ele>
        <time>2016-07-10T07:58:05.000Z</time>
      </trkpt>
      <trkpt lat="49.2587" lon="1.00364">
        <ele>132</ele>
        <time>2016-07-10T07:58:06.000Z</time>
      </trkpt>
      <trkpt lat="49.25872" lon="1.00363">
        <ele>132</ele>
        <time>2016-07-10T07:58:07.000Z</time>
      </trkpt>
      <trkpt lat="49.25873" lon="1.00362">
        <ele>132</ele>
        <time>2016-07-10T07:58:08.000Z</time>
      </trkpt>
      <trkpt lat="49.25875" lon="1.00362">
        <ele>133</ele>
        <time>2016-07-10T07:58:09.000Z</time>
      </trkpt>
      <trkpt lat="49.25876" lon="1.00362">
        <ele>133</ele>
        <time>2016-07-10T07:58:10.000Z</time>
      </trkpt>
      <trkpt lat="49.25878" lon="1.00363">
        <ele>133</ele>
        <time>2016-07-10T07:58:11.000Z</time>
      </trkpt>
      <trkpt lat="49.25879" lon="1.00364">
        <ele>134</ele>
        <time>2016-07-10T07:58:12.000Z</time>
      </trkpt>
      <trkpt lat="49.2588" lon="1.00365">
        <ele>134</ele>
        <time>2016-07-10T07:58:13.000Z</time>
      </trkpt>
      <trkpt lat="49.25882" lon="1.00367">
        <ele>135</ele>
        <time>2016-07-10T07:58:14.000Z</time>
      </trkpt>
      <trkpt lat="49.25883" lon="1.00368">
        <ele>135</ele>
        <time>2016-07-10T07:58:15.000Z</time>
      </trkpt>
      <trkpt lat="49.25884" lon="1.00369">
        <ele>136</ele>
        <time>2016-07-10T07:58:16.000Z</time>
      </trkpt>
      <trkpt lat="49.25885" lon="1.00371">
        <ele>135</ele>
        <time>2016-07-10T07:58:17.000Z</time>
      </trkpt>
      <trkpt lat="49.25885" lon="1.00373">
        <ele>135</ele>
        <time>2016-07-10T07:58:18.000Z</time>
      </trkpt>
      <trkpt lat="49.25886" lon="1.00376">
        <ele>134</ele>
        <time>2016-07-10T07:58:19.000Z</time>
      </trkpt>
      <trkpt lat="49.25887" lon="1.00379">
        <ele>134</ele>
        <time>2016-07-10T07:58:20.000Z</time>
      </trkpt>
      <trkpt lat="49.25888" lon="1.00383">
        <ele>133</ele>
        <time>2016-07-10T07:58:21.000Z</time>
      </trkpt>
      <trkpt lat="49.25888" lon="1.00387">
        <ele>133</ele>
        <time>2016-07-10T07:58:22.000Z</time>
      </trkpt>
      <trkpt lat="49.25889" lon="1.00392">
        <ele>133</ele>
        <time>2016-07-10T07:58:23.000Z</time>
      </trkpt>
      <trkpt lat="49.2589" lon="1.00396">
        <ele>132</ele>
        <time>2016-07-10T07:58:24.000Z</time>
      </trkpt>
      <trkpt lat="49.25891" lon="1.004">
        <ele>132</ele>
        <time>2016-07-10T07:58:25.000Z</time>
      </trkpt>
      <trkpt lat="49.25891" lon="1.00404">
        <ele>131</ele>
        <time>2016-07-10T07:58:26.000Z</time>
      </trkpt>
      <trkpt lat="49.25892" lon="1.00408">
        <ele>130</ele>
        <time>2016-07-10T07:58:27.000Z</time>
      </trkpt>
      <trkpt lat="49.25892" lon="1.00413">
        <ele>129</ele>
        <time>2016-07-10T07:58:28.000Z</time>
      </trkpt>
      <trkpt lat="49.25893" lon="1.00417">
        <ele>129</ele>
        <time>2016-07-10T07:58:29.000Z</time>
      </trkpt>
      <trkpt lat="49.25893" lon="1.0042">
        <ele>129</ele>
        <time>2016-07-10T07:58:30.000Z</time>
      </trkpt>
      <trkpt lat="49.25894" lon="1.00424">
        <ele>130</ele>
        <time>2016-07-10T07:58:31.000Z</time>
      </trkpt>
      <trkpt lat="49.25895" lon="1.00428">
        <ele>130</ele>
        <time>2016-07-10T07:58:32.000Z</time>
      </trkpt>
      <trkpt lat="49.25896" lon="1.00434">
        <ele>130</ele>
        <time>2016-07-10T07:58:33.000Z</time>
      </trkpt>
      <trkpt lat="49.25897" lon="1.00439">
        <ele>130</ele>
        <time>2016-07-10T07:58:34.000Z</time>
      </trkpt>
      <trkpt lat="49.25898" lon="1.00443">
        <ele>130</ele>
        <time>2016-07-10T07:58:35.000Z</time>
      </trkpt>
      <trkpt lat="49.25899" lon="1.00448">
        <ele>131</ele>
        <time>2016-07-10T07:58:36.000Z</time>
      </trkpt>
      <trkpt lat="49.259" lon="1.00452">
        <ele>131</ele>
        <time>2016-07-10T07:58:37.000Z</time>
      </trkpt>
      <trkpt lat="49.25901" lon="1.00456">
        <ele>131</ele>
        <time>2016-07-10T07:58:38.000Z</time>
      </trkpt>
      <trkpt lat="49.25902" lon="1.0046">
        <ele>130</ele>
        <time>2016-07-10T07:58:39.000Z</time>
      </trkpt>
      <trkpt lat="49.25904" lon="1.00464">
        <ele>130</ele>
        <time>2016-07-10T07:58:40.000Z</time>
      </trkpt>
      <trkpt lat="49.25905" lon="1.00469">
        <ele>129</ele>
        <time>2016-07-10T07:58:41.000Z</time>
      </trkpt>
      <trkpt lat="49.25907" lon="1.00474">
        <ele>130</ele>
        <time>2016-07-10T07:58:42.000Z</time>
      </trkpt>
      <trkpt lat="49.25907" lon="1.00479">
        <ele>129</ele>
        <time>2016-07-10T07:58:43.000Z</time>
      </trkpt>
      <trkpt lat="49.25908" lon="1.00483">
        <ele>129</ele>
        <time>2016-07-10T07:58:44.000Z</time>
      </trkpt>
      <trkpt lat="49.25909" lon="1.00488">
        <ele>130</ele>
        <time>2016-07-10T07:58:45.000Z</time>
      </trkpt>
      <trkpt lat="49.2591" lon="1.00492">
        <ele>129</ele>
        <time>2016-07-10T07:58:46.000Z</time>
      </trkpt>
      <trkpt lat="49.25911" lon="1.00496">
        <ele>128</ele>
        <time>2016-07-10T07:58:47.000Z</time>
      </trkpt>
      <trkpt lat="49.25912" lon="1.00501">
        <ele>126</ele>
        <time>2016-07-10T07:58:48.000Z</time>
      </trkpt>
      <trkpt lat="49.25913" lon="1.00506">
        <ele>125</ele>
        <time>2016-07-10T07:58:49.000Z</time>
      </trkpt>
      <trkpt lat="49.25914" lon="1.00511">
        <ele>125</ele>
        <time>2016-07-10T07:58:50.000Z</time>
      </trkpt>
      <trkpt lat="49.25915" lon="1.00516">
        <ele>125</ele>
        <time>2016-07-10T07:58:51.000Z</time>
      </trkpt>
      <trkpt lat="49.25916" lon="1.00521">
        <ele>123</ele>
        <time>2016-07-10T07:58:52.000Z</time>
      </trkpt>
      <trkpt lat="49.25917" lon="1.00525">
        <ele>124</ele>
        <time>2016-07-10T07:58:53.000Z</time>
      </trkpt>
      <trkpt lat="49.25918" lon="1.0053">
        <ele>124</ele>
        <time>2016-07-10T07:58:54.000Z</time>
      </trkpt>
      <trkpt lat="49.25919" lon="1.00536">
        <ele>125</ele>
        <time>2016-07-10T07:58:55.000Z</time>
      </trkpt>
      <trkpt lat="49.2592" lon="1.00543">
        <ele>125</ele>
        <time>2016-07-10T07:58:56.000Z</time>
      </trkpt>
      <trkpt lat="49.25921" lon="1.00549">
        <ele>126</ele>
        <time>2016-07-10T07:58:57.000Z</time>
      </trkpt>
      <trkpt lat="49.25923" lon="1.00555">
        <ele>126</ele>
        <time>2016-07-10T07:58:58.000Z</time>
      </trkpt>
      <trkpt lat="49.25924" lon="1.0056">
        <ele>126</ele>
        <time>2016-07-10T07:58:59.000Z</time>
      </trkpt>
      <trkpt lat="49.25926" lon="1.00566">
        <ele>126</ele>
        <time>2016-07-10T07:59:00.000Z</time>
      </trkpt>
      <trkpt lat="49.25927" lon="1.00571">
        <ele>126</ele>
        <time>2016-07-10T07:59:01.000Z</time>
      </trkpt>
      <trkpt lat="49.25929" lon="1.00577">
        <ele>125</ele>
        <time>2016-07-10T07:59:02.000Z</time>
      </trkpt>
      <trkpt lat="49.2593" lon="1.00584">
        <ele>126</ele>
        <time>2016-07-10T07:59:03.000Z</time>
      </trkpt>
      <trkpt lat="49.25932" lon="1.0059">
        <ele>126</ele>
        <time>2016-07-10T07:59:04.000Z</time>
      </trkpt>
      <trkpt lat="49.25933" lon="1.00597">
        <ele>126</ele>
        <time>2016-07-10T07:59:05.000Z</time>
      </trkpt>
      <trkpt lat="49.25935" lon="1.00603">
        <ele>126</ele>
        <time>2016-07-10T07:59:06.000Z</time>
      </trkpt>
      <trkpt lat="49.25936" lon="1.00609">
        <ele>125</ele>
        <time>2016-07-10T07:59:07.000Z</time>
      </trkpt>
      <trkpt lat="49.25938" lon="1.00614">
        <ele>125</ele>
        <time>2016-07-10T07:59:08.000Z</time>
      </trkpt>
      <trkpt lat="49.25939" lon="1.0062">
        <ele>126</ele>
        <time>2016-07-10T07:59:09.000Z</time>
      </trkpt>
      <trkpt lat="49.25941" lon="1.00625">
        <ele>127</ele>
        <time>2016-07-10T07:59:10.000Z</time>
      </trkpt>
      <trkpt lat="49.25942" lon="1.0063">
        <ele>127</ele>
        <time>2016-07-10T07:59:11.000Z</time>
      </trkpt>
      <trkpt lat="49.25943" lon="1.00636">
        <ele>128</ele>
        <time>2016-07-10T07:59:12.000Z</time>
      </trkpt>
      <trkpt lat="49.25944" lon="1.00641">
        <ele>128</ele>
        <time>2016-07-10T07:59:13.000Z</time>
      </trkpt>
      <trkpt lat="49.25945" lon="1.00647">
        <ele>128</ele>
        <time>2016-07-10T07:59:14.000Z</time>
      </trkpt>
      <trkpt lat="49.25945" lon="1.00652">
        <ele>128</ele>
        <time>2016-07-10T07:59:15.000Z</time>
      </trkpt>
      <trkpt lat="49.25946" lon="1.00657">
        <ele>128</ele>
        <time>2016-07-10T07:59:16.000Z</time>
      </trkpt>
      <trkpt lat="49.25947" lon="1.00662">
        <ele>127</ele>
        <time>2016-07-10T07:59:17.000Z</time>
      </trkpt>
      <trkpt lat="49.25948" lon="1.00668">
        <ele>127</ele>
        <time>2016-07-10T07:59:18.000Z</time>
      </trkpt>
      <trkpt lat="49.25948" lon="1.00674">
        <ele>128</ele>
        <time>2016-07-10T07:59:19.000Z</time>
      </trkpt>
      <trkpt lat="49.25949" lon="1.0068">
        <ele>128</ele>
        <time>2016-07-10T07:59:20.000Z</time>
      </trkpt>
      <trkpt lat="49.25949" lon="1.00686">
        <ele>128</ele>
        <time>2016-07-10T07:59:21.000Z</time>
      </trkpt>
      <trkpt lat="49.2595" lon="1.00692">
        <ele>128</ele>
        <time>2016-07-10T07:59:22.000Z</time>
      </trkpt>
      <trkpt lat="49.25951" lon="1.00698">
        <ele>128</ele>
        <time>2016-07-10T07:59:23.000Z</time>
      </trkpt>
      <trkpt lat="49.25953" lon="1.00704">
        <ele>127</ele>
        <time>2016-07-10T07:59:24.000Z</time>
      </trkpt>
      <trkpt lat="49.25953" lon="1.00711">
        <ele>126</ele>
        <time>2016-07-10T07:59:25.000Z</time>
      </trkpt>
      <trkpt lat="49.25954" lon="1.00718">
        <ele>126</ele>
        <time>2016-07-10T07:59:26.000Z</time>
      </trkpt>
      <trkpt lat="49.25955" lon="1.00725">
        <ele>126</ele>
        <time>2016-07-10T07:59:27.000Z</time>
      </trkpt>
      <trkpt lat="49.25956" lon="1.00732">
        <ele>126</ele>
        <time>2016-07-10T07:59:28.000Z</time>
      </trkpt>
      <trkpt lat="49.25957" lon="1.00739">
        <ele>126</ele>
        <time>2016-07-10T07:59:29.000Z</time>
      </trkpt>
      <trkpt lat="49.25958" lon="1.00745">
        <ele>127</ele>
        <time>2016-07-10T07:59:30.000Z</time>
      </trkpt>
      <trkpt lat="49.25959" lon="1.00751">
        <ele>127</ele>
        <time>2016-07-10T07:59:31.000Z</time>
      </trkpt>
      <trkpt lat="49.2596" lon="1.00757">
        <ele>126</ele>
        <time>2016-07-10T07:59:32.000Z</time>
      </trkpt>
      <trkpt lat="49.25961" lon="1.00763">
        <ele>127</ele>
        <time>2016-07-10T07:59:33.000Z</time>
      </trkpt>
      <trkpt lat="49.25962" lon="1.00767">
        <ele>127</ele>
        <time>2016-07-10T07:59:34.000Z</time>
      </trkpt>
      <trkpt lat="49.25963" lon="1.00773">
        <ele>127</ele>
        <time>2016-07-10T07:59:35.000Z</time>
      </trkpt>
      <trkpt lat="49.25965" lon="1.00779">
        <ele>126</ele>
        <time>2016-07-10T07:59:36.000Z</time>
      </trkpt>
      <trkpt lat="49.25966" lon="1.00785">
        <ele>126</ele>
        <time>2016-07-10T07:59:37.000Z</time>
      </trkpt>
      <trkpt lat="49.25967" lon="1.00792">
        <ele>126</ele>
        <time>2016-07-10T07:59:38.000Z</time>
      </trkpt>
      <trkpt lat="49.25968" lon="1.00799">
        <ele>126</ele>
        <time>2016-07-10T07:59:39.000Z</time>
      </trkpt>
      <trkpt lat="49.25969" lon="1.00805">
        <ele>125</ele>
        <time>2016-07-10T07:59:40.000Z</time>
      </trkpt>
      <trkpt lat="49.2597" lon="1.00811">
        <ele>125</ele>
        <time>2016-07-10T07:59:41.000Z</time>
      </trkpt>
      <trkpt lat="49.2597" lon="1.00817">
        <ele>125</ele>
        <time>2016-07-10T07:59:42.000Z</time>
      </trkpt>
      <trkpt lat="49.2597" lon="1.00823">
        <ele>125</ele>
        <time>2016-07-10T07:59:43.000Z</time>
      </trkpt>
      <trkpt lat="49.25971" lon="1.00829">
        <ele>124</ele>
        <time>2016-07-10T07:59:44.000Z</time>
      </trkpt>
      <trkpt lat="49.25971" lon="1.00835">
        <ele>124</ele>
        <time>2016-07-10T07:59:45.000Z</time>
      </trkpt>
      <trkpt lat="49.25972" lon="1.00841">
        <ele>124</ele>
        <time>2016-07-10T07:59:46.000Z</time>
      </trkpt>
      <trkpt lat="49.25973" lon="1.00846">
        <ele>124</ele>
        <time>2016-07-10T07:59:47.000Z</time>
      </trkpt>
      <trkpt lat="49.25975" lon="1.00851">
        <ele>124</ele>
        <time>2016-07-10T07:59:48.000Z</time>
      </trkpt>
      <trkpt lat="49.25977" lon="1.00857">
        <ele>124</ele>
        <time>2016-07-10T07:59:49.000Z</time>
      </trkpt>
      <trkpt lat="49.25977" lon="1.00863">
        <ele>125</ele>
        <time>2016-07-10T07:59:50.000Z</time>
      </trkpt>
      <trkpt lat="49.25978" lon="1.0087">
        <ele>125</ele>
        <time>2016-07-10T07:59:51.000Z</time>
      </trkpt>
      <trkpt lat="49.25979" lon="1.00876">
        <ele>125</ele>
        <time>2016-07-10T07:59:52.000Z</time>
      </trkpt>
      <trkpt lat="49.25979" lon="1.00882">
        <ele>126</ele>
        <time>2016-07-10T07:59:53.000Z</time>
      </trkpt>
      <trkpt lat="49.2598" lon="1.00886">
        <ele>126</ele>
        <time>2016-07-10T07:59:54.000Z</time>
      </trkpt>
      <trkpt lat="49.25981" lon="1.0089">
        <ele>126</ele>
        <time>2016-07-10T07:59:55.000Z</time>
      </trkpt>
      <trkpt lat="49.25981" lon="1.00893">
        <ele>126</ele>
        <time>2016-07-10T07:59:56.000Z</time>
      </trkpt>
      <trkpt lat="49.25982" lon="1.00897">
        <ele>126</ele>
        <time>2016-07-10T07:59:57.000Z</time>
      </trkpt>
      <trkpt lat="49.25982" lon="1.00901">
        <ele>127</ele>
        <time>2016-07-10T07:59:58.000Z</time>
      </trkpt>
      <trkpt lat="49.25983" lon="1.00906">
        <ele>127</ele>
        <time>2016-07-10T07:59:59.000Z</time>
      </trkpt>
      <trkpt lat="49.25983" lon="1.0091">
        <ele>128</ele>
        <time>2016-07-10T08:00:00.000Z</time>
      </trkpt>
      <trkpt lat="49.25983" lon="1.00915">
        <ele>128</ele>
        <time>2016-07-10T08:00:01.000Z</time>
      </trkpt>
      <trkpt lat="49.25984" lon="1.00919">
        <ele>127</ele>
        <time>2016-07-10T08:00:02.000Z</time>
      </trkpt>
      <trkpt lat="49.25984" lon="1.00924">
        <ele>126</ele>
        <time>2016-07-10T08:00:03.000Z</time>
      </trkpt>
      <trkpt lat="49.25984" lon="1.00928">
        <ele>126</ele>
        <time>2016-07-10T08:00:04.000Z</time>
      </trkpt>
      <trkpt lat="49.25985" lon="1.00931">
        <ele>126</ele>
        <time>2016-07-10T08:00:05.000Z</time>
      </trkpt>
      <trkpt lat="49.25985" lon="1.00935">
        <ele>126</ele>
        <time>2016-07-10T08:00:06.000Z</time>
      </trkpt>
      <trkpt lat="49.25986" lon="1.00939">
        <ele>126</ele>
        <time>2016-07-10T08:00:07.000Z</time>
      </trkpt>
      <trkpt lat="49.25987" lon="1.00942">
        <ele>125</ele>
        <time>2016-07-10T08:00:08.000Z</time>
      </trkpt>
      <trkpt lat="49.25987" lon="1.00944">
        <ele>126</ele>
        <time>2016-07-10T08:00:09.000Z</time>
      </trkpt>
      <trkpt lat="49.25988" lon="1.00947">
        <ele>125</ele>
        <time>2016-07-10T08:00:10.000Z</time>
      </trkpt>
      <trkpt lat="49.25989" lon="1.00949">
        <ele>125</ele>
        <time>2016-07-10T08:00:11.000Z</time>
      </trkpt>
      <trkpt lat="49.2599" lon="1.00951">
        <ele>125</ele>
        <time>2016-07-10T08:00:12.000Z</time>
      </trkpt>
      <trkpt lat="49.2599" lon="1.00953">
        <ele>126</ele>
        <time>2016-07-10T08:00:13.000Z</time>
      </trkpt>
      <trkpt lat="49.2599" lon="1.00955">
        <ele>126</ele>
        <time>2016-07-10T08:00:14.000Z</time>
      </trkpt>
      <trkpt lat="49.2599" lon="1.00956">
        <ele>126</ele>
        <time>2016-07-10T08:00:15.000Z</time>
      </trkpt>
      <trkpt lat="49.2599" lon="1.00957">
        <ele>127</ele>
        <time>2016-07-10T08:00:16.000Z</time>
      </trkpt>
      <trkpt lat="49.2599" lon="1.00958">
        <ele>127</ele>
        <time>2016-07-10T08:00:17.000Z</time>
      </trkpt>
      <trkpt lat="49.2599" lon="1.00959">
        <ele>128</ele>
        <time>2016-07-10T08:00:18.000Z</time>
      </trkpt>
      <trkpt lat="49.25991" lon="1.00961">
        <ele>128</ele>
        <time>2016-07-10T08:00:19.000Z</time>
      </trkpt>
      <trkpt lat="49.25991" lon="1.00963">
        <ele>127</ele>
        <time>2016-07-10T08:00:20.000Z</time>
      </trkpt>
      <trkpt lat="49.25991" lon="1.00966">
        <ele>127</ele>
        <time>2016-07-10T08:00:21.000Z</time>
      </trkpt>
      <trkpt lat="49.25992" lon="1.00969">
        <ele>128</ele>
        <time>2016-07-10T08:00:22.000Z</time>
      </trkpt>
      <trkpt lat="49.25993" lon="1.00971">
        <ele>127</ele>
        <time>2016-07-10T08:00:23.000Z</time>
      </trkpt>
      <trkpt lat="49.25994" lon="1.00973">
        <ele>127</ele>
        <time>2016-07-10T08:00:24.000Z</time>
      </trkpt>
      <trkpt lat="49.25995" lon="1.00975">
        <ele>127</ele>
        <time>2016-07-10T08:00:25.000Z</time>
      </trkpt>
      <trkpt lat="49.25996" lon="1.00978">
        <ele>127</ele>
        <time>2016-07-10T08:00:26.000Z</time>
      </trkpt>
      <trkpt lat="49.25997" lon="1.0098">
        <ele>127</ele>
        <time>2016-07-10T08:00:27.000Z</time>
      </trkpt>
      <trkpt lat="49.25997" lon="1.00983">
        <ele>127</ele>
        <time>2016-07-10T08:00:28.000Z</time>
      </trkpt>
      <trkpt lat="49.25998" lon="1.00985">
        <ele>127</ele>
        <time>2016-07-10T08:00:29.000Z</time>
      </trkpt>
      <trkpt lat="49.25998" lon="1.00988">
        <ele>127</ele>
        <time>2016-07-10T08:00:30.000Z</time>
      </trkpt>
      <trkpt lat="49.25999" lon="1.0099">
        <ele>128</ele>
        <time>2016-07-10T08:00:31.000Z</time>
      </trkpt>
      <trkpt lat="49.26001" lon="1.00992">
        <ele>128</ele>
        <time>2016-07-10T08:00:32.000Z</time>
      </trkpt>
      <trkpt lat="49.26002" lon="1.00995">
        <ele>128</ele>
        <time>2016-07-10T08:00:33.000Z</time>
      </trkpt>
      <trkpt lat="49.26003" lon="1.00998">
        <ele>128</ele>
        <time>2016-07-10T08:00:34.000Z</time>
      </trkpt>
      <trkpt lat="49.26004" lon="1.01">
        <ele>128</ele>
        <time>2016-07-10T08:00:35.000Z</time>
      </trkpt>
      <trkpt lat="49.26004" lon="1.01003">
        <ele>128</ele>
        <time>2016-07-10T08:00:36.000Z</time>
      </trkpt>
      <trkpt lat="49.26004" lon="1.01006">
        <ele>128</ele>
        <time>2016-07-10T08:00:37.000Z</time>
      </trkpt>
      <trkpt lat="49.26004" lon="1.01009">
        <ele>128</ele>
        <time>2016-07-10T08:00:38.000Z</time>
      </trkpt>
      <trkpt lat="49.26004" lon="1.01011">
        <ele>128</ele>
        <time>2016-07-10T08:00:39.000Z</time>
      </trkpt>
      <trkpt lat="49.26004" lon="1.01014">
        <ele>129</ele>
        <time>2016-07-10T08:00:40.000Z</time>
      </trkpt>
      <trkpt lat="49.26004" lon="1.01018">
        <ele>130</ele>
        <time>2016-07-10T08:00:41.000Z</time>
      </trkpt>
      <trkpt lat="49.26005" lon="1.01023">
        <ele>130</ele>
        <time>2016-07-10T08:00:42.000Z</time>
      </trkpt>
      <trkpt lat="49.26005" lon="1.01028">
        <ele>130</ele>
        <time>2016-07-10T08:00:43.000Z</time>
      </trkpt>
      <trkpt lat="49.26006" lon="1.01033">
        <ele>130</ele>
        <time>2016-07-10T08:00:44.000Z</time>
      </trkpt>
      <trkpt lat="49.26007" lon="1.01038">
        <ele>130</ele>
        <time>2016-07-10T08:00:45.000Z</time>
      </trkpt>
      <trkpt lat="49.26008" lon="1.01044">
        <ele>130</ele>
        <time>2016-07-10T08:00:46.000Z</time>
      </trkpt>
      <trkpt lat="49.26009" lon="1.01049">
        <ele>130</ele>
        <time>2016-07-10T08:00:47.000Z</time>
      </trkpt>
      <trkpt lat="49.2601" lon="1.01054">
        <ele>130</ele>
        <time>2016-07-10T08:00:48.000Z</time>
      </trkpt>
      <trkpt lat="49.26011" lon="1.01059">
        <ele>130</ele>
        <time>2016-07-10T08:00:49.000Z</time>
      </trkpt>
      <trkpt lat="49.26013" lon="1.01065">
        <ele>130</ele>
        <time>2016-07-10T08:00:50.000Z</time>
      </trkpt>
      <trkpt lat="49.26015" lon="1.0107">
        <ele>130</ele>
        <time>2016-07-10T08:00:51.000Z</time>
      </trkpt>
      <trkpt lat="49.26016" lon="1.01075">
        <ele>130</ele>
        <time>2016-07-10T08:00:52.000Z</time>
      </trkpt>
      <trkpt lat="49.26018" lon="1.01082">
        <ele>130</ele>
        <time>2016-07-10T08:00:53.000Z</time>
      </trkpt>
      <trkpt lat="49.2602" lon="1.01088">
        <ele>130</ele>
        <time>2016-07-10T08:00:54.000Z</time>
      </trkpt>
      <trkpt lat="49.26021" lon="1.01096">
        <ele>130</ele>
        <time>2016-07-10T08:00:55.000Z</time>
      </trkpt>
      <trkpt lat="49.26022" lon="1.01102">
        <ele>130</ele>
        <time>2016-07-10T08:00:56.000Z</time>
      </trkpt>
      <trkpt lat="49.26023" lon="1.01108">
        <ele>130</ele>
        <time>2016-07-10T08:00:57.000Z</time>
      </trkpt>
      <trkpt lat="49.26023" lon="1.01114">
        <ele>130</ele>
        <time>2016-07-10T08:00:58.000Z</time>
      </trkpt>
      <trkpt lat="49.26024" lon="1.0112">
        <ele>130</ele>
        <time>2016-07-10T08:00:59.000Z</time>
      </trkpt>
      <trkpt lat="49.26024" lon="1.01126">
        <ele>130</ele>
        <time>2016-07-10T08:01:00.000Z</time>
      </trkpt>
      <trkpt lat="49.26025" lon="1.01131">
        <ele>130</ele>
        <time>2016-07-10T08:01:01.000Z</time>
      </trkpt>
      <trkpt lat="49.26026" lon="1.01137">
        <ele>129</ele>
        <time>2016-07-10T08:01:02.000Z</time>
      </trkpt>
      <trkpt lat="49.26027" lon="1.01142">
        <ele>129</ele>
        <time>2016-07-10T08:01:03.000Z</time>
      </trkpt>
      <trkpt lat="49.26028" lon="1.01147">
        <ele>129</ele>
        <time>2016-07-10T08:01:04.000Z</time>
      </trkpt>
      <trkpt lat="49.26029" lon="1.01152">
        <ele>128</ele>
        <time>2016-07-10T08:01:05.000Z</time>
      </trkpt>
      <trkpt lat="49.2603" lon="1.01157">
        <ele>128</ele>
        <time>2016-07-10T08:01:06.000Z</time>
      </trkpt>
      <trkpt lat="49.26031" lon="1.01163">
        <ele>127</ele>
        <time>2016-07-10T08:01:07.000Z</time>
      </trkpt>
      <trkpt lat="49.26033" lon="1.01168">
        <ele>127</ele>
        <time>2016-07-10T08:01:08.000Z</time>
      </trkpt>
      <trkpt lat="49.26034" lon="1.01174">
        <ele>127</ele>
        <time>2016-07-10T08:01:09.000Z</time>
      </trkpt>
      <trkpt lat="49.26036" lon="1.01179">
        <ele>126</ele>
        <time>2016-07-10T08:01:10.000Z</time>
      </trkpt>
      <trkpt lat="49.26037" lon="1.01185">
        <ele>125</ele>
        <time>2016-07-10T08:01:11.000Z</time>
      </trkpt>
      <trkpt lat="49.26037" lon="1.0119">
        <ele>125</ele>
        <time>2016-07-10T08:01:12.000Z</time>
      </trkpt>
      <trkpt lat="49.26037" lon="1.01195">
        <ele>125</ele>
        <time>2016-07-10T08:01:13.000Z</time>
      </trkpt>
      <trkpt lat="49.26035" lon="1.01199">
        <ele>125</ele>
        <time>2016-07-10T08:01:14.000Z</time>
      </trkpt>
      <trkpt lat="49.26033" lon="1.01202">
        <ele>125</ele>
        <time>2016-07-10T08:01:15.000Z</time>
      </trkpt>
      <trkpt lat="49.26031" lon="1.01205">
        <ele>125</ele>
        <time>2016-07-10T08:01:16.000Z</time>
      </trkpt>
      <trkpt lat="49.26029" lon="1.01207">
        <ele>124</ele>
        <time>2016-07-10T08:01:17.000Z</time>
      </trkpt>
      <trkpt lat="49.26026" lon="1.01209">
        <ele>124</ele>
        <time>2016-07-10T08:01:18.000Z</time>
      </trkpt>
      <trkpt lat="49.26024" lon="1.01211">
        <ele>124</ele>
        <time>2016-07-10T08:01:19.000Z</time>
      </trkpt>
      <trkpt lat="49.26021" lon="1.01214">
        <ele>124</ele>
        <time>2016-07-10T08:01:20.000Z</time>
      </trkpt>
      <trkpt lat="49.26018" lon="1.01216">
        <ele>124</ele>
        <time>2016-07-10T08:01:21.000Z</time>
      </trkpt>
      <trkpt lat="49.26014" lon="1.01219">
        <ele>124</ele>
        <time>2016-07-10T08:01:22.000Z</time>
      </trkpt>
      <trkpt lat="49.2601" lon="1.01221">
        <ele>124</ele>
        <time>2016-07-10T08:01:23.000Z</time>
      </trkpt>
      <trkpt lat="49.26007" lon="1.01223">
        <ele>123</ele>
        <time>2016-07-10T08:01:24.000Z</time>
      </trkpt>
      <trkpt lat="49.26004" lon="1.01225">
        <ele>123</ele>
        <time>2016-07-10T08:01:25.000Z</time>
      </trkpt>
      <trkpt lat="49.26001" lon="1.01228">
        <ele>123</ele>
        <time>2016-07-10T08:01:26.000Z</time>
      </trkpt>
      <trkpt lat="49.25998" lon="1.01232">
        <ele>123</ele>
        <time>2016-07-10T08:01:27.000Z</time>
      </trkpt>
      <trkpt lat="49.25995" lon="1.01237">
        <ele>121</ele>
        <time>2016-07-10T08:01:28.000Z</time>
      </trkpt>
      <trkpt lat="49.25993" lon="1.01243">
        <ele>121</ele>
        <time>2016-07-10T08:01:29.000Z</time>
      </trkpt>
      <trkpt lat="49.25992" lon="1.01248">
        <ele>121</ele>
        <time>2016-07-10T08:01:30.000Z</time>
      </trkpt>
      <trkpt lat="49.2599" lon="1.01253">
        <ele>120</ele>
        <time>2016-07-10T08:01:31.000Z</time>
      </trkpt>
      <trkpt lat="49.25987" lon="1.01258">
        <ele>119</ele>
        <time>2016-07-10T08:01:32.000Z</time>
      </trkpt>
      <trkpt lat="49.25983" lon="1.01263">
        <ele>119</ele>
        <time>2016-07-10T08:01:33.000Z</time>
      </trkpt>
      <trkpt lat="49.25979" lon="1.01268">
        <ele>119</ele>
        <time>2016-07-10T08:01:34.000Z</time>
      </trkpt>
      <trkpt lat="49.25975" lon="1.01272">
        <ele>118</ele>
        <time>2016-07-10T08:01:35.000Z</time>
      </trkpt>
      <trkpt lat="49.25972" lon="1.01276">
        <ele>117</ele>
        <time>2016-07-10T08:01:36.000Z</time>
      </trkpt>
      <trkpt lat="49.25968" lon="1.0128">
        <ele>116</ele>
        <time>2016-07-10T08:01:37.000Z</time>
      </trkpt>
      <trkpt lat="49.25965" lon="1.01285">
        <ele>115</ele>
        <time>2016-07-10T08:01:38.000Z</time>
      </trkpt>
      <trkpt lat="49.25962" lon="1.01289">
        <ele>114</ele>
        <time>2016-07-10T08:01:39.000Z</time>
      </trkpt>
      <trkpt lat="49.25958" lon="1.01293">
        <ele>114</ele>
        <time>2016-07-10T08:01:40.000Z</time>
      </trkpt>
      <trkpt lat="49.25954" lon="1.01297">
        <ele>113</ele>
        <time>2016-07-10T08:01:41.000Z</time>
      </trkpt>
      <trkpt lat="49.25949" lon="1.01301">
        <ele>112</ele>
        <time>2016-07-10T08:01:42.000Z</time>
      </trkpt>
      <trkpt lat="49.25943" lon="1.01304">
        <ele>109</ele>
        <time>2016-07-10T08:01:43.000Z</time>
      </trkpt>
      <trkpt lat="49.25937" lon="1.01309">
        <ele>107</ele>
        <time>2016-07-10T08:01:44.000Z</time>
      </trkpt>
      <trkpt lat="49.2593" lon="1.01313">
        <ele>106</ele>
        <time>2016-07-10T08:01:45.000Z</time>
      </trkpt>
      <trkpt lat="49.25924" lon="1.01318">
        <ele>106</ele>
        <time>2016-07-10T08:01:46.000Z</time>
      </trkpt>
      <trkpt lat="49.25919" lon="1.01322">
        <ele>105</ele>
        <time>2016-07-10T08:01:47.000Z</time>
      </trkpt>
      <trkpt lat="49.25915" lon="1.01327">
        <ele>104</ele>
        <time>2016-07-10T08:01:48.000Z</time>
      </trkpt>
      <trkpt lat="49.25911" lon="1.01332">
        <ele>103</ele>
        <time>2016-07-10T08:01:49.000Z</time>
      </trkpt>
      <trkpt lat="49.25907" lon="1.01337">
        <ele>103</ele>
        <time>2016-07-10T08:01:50.000Z</time>
      </trkpt>
      <trkpt lat="49.25903" lon="1.01341">
        <ele>103</ele>
        <time>2016-07-10T08:01:51.000Z</time>
      </trkpt>
      <trkpt lat="49.25899" lon="1.01346">
        <ele>103</ele>
        <time>2016-07-10T08:01:52.000Z</time>
      </trkpt>
      <trkpt lat="49.25895" lon="1.0135">
        <ele>103</ele>
        <time>2016-07-10T08:01:53.000Z</time>
      </trkpt>
      <trkpt lat="49.25892" lon="1.01354">
        <ele>102</ele>
        <time>2016-07-10T08:01:54.000Z</time>
      </trkpt>
      <trkpt lat="49.25889" lon="1.01359">
        <ele>101</ele>
        <time>2016-07-10T08:01:55.000Z</time>
      </trkpt>
      <trkpt lat="49.25886" lon="1.01364">
        <ele>101</ele>
        <time>2016-07-10T08:01:56.000Z</time>
      </trkpt>
      <trkpt lat="49.25884" lon="1.01369">
        <ele>101</ele>
        <time>2016-07-10T08:01:57.000Z</time>
      </trkpt>
      <trkpt lat="49.2588" lon="1.01376">
        <ele>102</ele>
        <time>2016-07-10T08:01:58.000Z</time>
      </trkpt>
      <trkpt lat="49.25877" lon="1.01383">
        <ele>102</ele>
        <time>2016-07-10T08:01:59.000Z</time>
      </trkpt>
      <trkpt lat="49.25872" lon="1.0139">
        <ele>102</ele>
        <time>2016-07-10T08:02:00.000Z</time>
      </trkpt>
      <trkpt lat="49.25868" lon="1.01397">
        <ele>101</ele>
        <time>2016-07-10T08:02:01.000Z</time>
      </trkpt>
      <trkpt lat="49.25864" lon="1.01403">
        <ele>102</ele>
        <time>2016-07-10T08:02:02.000Z</time>
      </trkpt>
      <trkpt lat="49.2586" lon="1.0141">
        <ele>101</ele>
        <time>2016-07-10T08:02:03.000Z</time>
      </trkpt>
      <trkpt lat="49.25856" lon="1.01415">
        <ele>101</ele>
        <time>2016-07-10T08:02:04.000Z</time>
      </trkpt>
      <trkpt lat="49.25853" lon="1.01421">
        <ele>101</ele>
        <time>2016-07-10T08:02:05.000Z</time>
      </trkpt>
      <trkpt lat="49.2585" lon="1.01427">
        <ele>101</ele>
        <time>2016-07-10T08:02:06.000Z</time>
      </trkpt>
      <trkpt lat="49.25848" lon="1.01433">
        <ele>101</ele>
        <time>2016-07-10T08:02:07.000Z</time>
      </trkpt>
      <trkpt lat="49.25845" lon="1.01439">
        <ele>101</ele>
        <time>2016-07-10T08:02:08.000Z</time>
      </trkpt>
      <trkpt lat="49.25843" lon="1.01445">
        <ele>100</ele>
        <time>2016-07-10T08:02:09.000Z</time>
      </trkpt>
      <trkpt lat="49.2584" lon="1.01451">
        <ele>100</ele>
        <time>2016-07-10T08:02:10.000Z</time>
      </trkpt>
      <trkpt lat="49.25837" lon="1.01457">
        <ele>100</ele>
        <time>2016-07-10T08:02:11.000Z</time>
      </trkpt>
      <trkpt lat="49.25835" lon="1.01463">
        <ele>99</ele>
        <time>2016-07-10T08:02:12.000Z</time>
      </trkpt>
      <trkpt lat="49.25833" lon="1.01468">
        <ele>99</ele>
        <time>2016-07-10T08:02:13.000Z</time>
      </trkpt>
      <trkpt lat="49.2583" lon="1.01475">
        <ele>98</ele>
        <time>2016-07-10T08:02:14.000Z</time>
      </trkpt>
      <trkpt lat="49.25828" lon="1.01481">
        <ele>97</ele>
        <time>2016-07-10T08:02:15.000Z</time>
      </trkpt>
      <trkpt lat="49.25824" lon="1.01487">
        <ele>97</ele>
        <time>2016-07-10T08:02:16.000Z</time>
      </trkpt>
      <trkpt lat="49.2582" lon="1.01493">
        <ele>97</ele>
        <time>2016-07-10T08:02:17.000Z</time>
      </trkpt>
      <trkpt lat="49.25815" lon="1.015">
        <ele>96</ele>
        <time>2016-07-10T08:02:18.000Z</time>
      </trkpt>
      <trkpt lat="49.25811" lon="1.01506">
        <ele>96</ele>
        <time>2016-07-10T08:02:19.000Z</time>
      </trkpt>
      <trkpt lat="49.25807" lon="1.01512">
        <ele>97</ele>
        <time>2016-07-10T08:02:20.000Z</time>
      </trkpt>
      <trkpt lat="49.25803" lon="1.01518">
        <ele>97</ele>
        <time>2016-07-10T08:02:21.000Z</time>
      </trkpt>
      <trkpt lat="49.25799" lon="1.01525">
        <ele>97</ele>
        <time>2016-07-10T08:02:22.000Z</time>
      </trkpt>
      <trkpt lat="49.25794" lon="1.01532">
        <ele>96</ele>
        <time>2016-07-10T08:02:23.000Z</time>
      </trkpt>
      <trkpt lat="49.25789" lon="1.01539">
        <ele>96</ele>
        <time>2016-07-10T08:02:24.000Z</time>
      </trkpt>
      <trkpt lat="49.25784" lon="1.01546">
        <ele>95</ele>
        <time>2016-07-10T08:02:25.000Z</time>
      </trkpt>
      <trkpt lat="49.2578" lon="1.01554">
        <ele>94</ele>
        <time>2016-07-10T08:02:26.000Z</time>
      </trkpt>
      <trkpt lat="49.25776" lon="1.01562">
        <ele>94</ele>
        <time>2016-07-10T08:02:27.000Z</time>
      </trkpt>
      <trkpt lat="49.25773" lon="1.01569">
        <ele>94</ele>
        <time>2016-07-10T08:02:28.000Z</time>
      </trkpt>
      <trkpt lat="49.25769" lon="1.01575">
        <ele>93</ele>
        <time>2016-07-10T08:02:29.000Z</time>
      </trkpt>
      <trkpt lat="49.25765" lon="1.01582">
        <ele>92</ele>
        <time>2016-07-10T08:02:30.000Z</time>
      </trkpt>
      <trkpt lat="49.25761" lon="1.01588">
        <ele>91</ele>
        <time>2016-07-10T08:02:31.000Z</time>
      </trkpt>
      <trkpt lat="49.25757" lon="1.01595">
        <ele>91</ele>
        <time>2016-07-10T08:02:32.000Z</time>
      </trkpt>
      <trkpt lat="49.25753" lon="1.01601">
        <ele>89</ele>
        <time>2016-07-10T08:02:33.000Z</time>
      </trkpt>
      <trkpt lat="49.25749" lon="1.01608">
        <ele>88</ele>
        <time>2016-07-10T08:02:34.000Z</time>
      </trkpt>
      <trkpt lat="49.25744" lon="1.01614">
        <ele>88</ele>
        <time>2016-07-10T08:02:35.000Z</time>
      </trkpt>
      <trkpt lat="49.25739" lon="1.01619">
        <ele>87</ele>
        <time>2016-07-10T08:02:36.000Z</time>
      </trkpt>
      <trkpt lat="49.25735" lon="1.01623">
        <ele>86</ele>
        <time>2016-07-10T08:02:37.000Z</time>
      </trkpt>
      <trkpt lat="49.25729" lon="1.01627">
        <ele>86</ele>
        <time>2016-07-10T08:02:38.000Z</time>
      </trkpt>
      <trkpt lat="49.25723" lon="1.0163">
        <ele>86</ele>
        <time>2016-07-10T08:02:39.000Z</time>
      </trkpt>
      <trkpt lat="49.25718" lon="1.01633">
        <ele>85</ele>
        <time>2016-07-10T08:02:40.000Z</time>
      </trkpt>
      <trkpt lat="49.25714" lon="1.01637">
        <ele>85</ele>
        <time>2016-07-10T08:02:41.000Z</time>
      </trkpt>
      <trkpt lat="49.25711" lon="1.01641">
        <ele>84</ele>
        <time>2016-07-10T08:02:42.000Z</time>
      </trkpt>
      <trkpt lat="49.25708" lon="1.01645">
        <ele>84</ele>
        <time>2016-07-10T08:02:43.000Z</time>
      </trkpt>
      <trkpt lat="49.25706" lon="1.01648">
        <ele>83</ele>
        <time>2016-07-10T08:02:44.000Z</time>
      </trkpt>
      <trkpt lat="49.25703" lon="1.01651">
        <ele>83</ele>
        <time>2016-07-10T08:02:45.000Z</time>
      </trkpt>
      <trkpt lat="49.25699" lon="1.01655">
        <ele>83</ele>
        <time>2016-07-10T08:02:46.000Z</time>
      </trkpt>
      <trkpt lat="49.25695" lon="1.0166">
        <ele>83</ele>
        <time>2016-07-10T08:02:47.000Z</time>
      </trkpt>
      <trkpt lat="49.25691" lon="1.01667">
        <ele>83</ele>
        <time>2016-07-10T08:02:48.000Z</time>
      </trkpt>
      <trkpt lat="49.25686" lon="1.01673">
        <ele>83</ele>
        <time>2016-07-10T08:02:49.000Z</time>
      </trkpt>
      <trkpt lat="49.25682" lon="1.01679">
        <ele>83</ele>
        <time>2016-07-10T08:02:50.000Z</time>
      </trkpt>
      <trkpt lat="49.25679" lon="1.01684">
        <ele>82</ele>
        <time>2016-07-10T08:02:51.000Z</time>
      </trkpt>
      <trkpt lat="49.25674" lon="1.0169">
        <ele>82</ele>
        <time>2016-07-10T08:02:52.000Z</time>
      </trkpt>
      <trkpt lat="49.25669" lon="1.01694">
        <ele>83</ele>
        <time>2016-07-10T08:02:53.000Z</time>
      </trkpt>
      <trkpt lat="49.25664" lon="1.01698">
        <ele>83</ele>
        <time>2016-07-10T08:02:54.000Z</time>
      </trkpt>
      <trkpt lat="49.25658" lon="1.01699">
        <ele>84</ele>
        <time>2016-07-10T08:02:55.000Z</time>
      </trkpt>
      <trkpt lat="49.25653" lon="1.017">
        <ele>85</ele>
        <time>2016-07-10T08:02:56.000Z</time>
      </trkpt>
      <trkpt lat="49.25648" lon="1.01701">
        <ele>85</ele>
        <time>2016-07-10T08:02:57.000Z</time>
      </trkpt>
      <trkpt lat="49.25642" lon="1.01702">
        <ele>86</ele>
        <time>2016-07-10T08:02:58.000Z</time>
      </trkpt>
      <trkpt lat="49.25636" lon="1.01702">
        <ele>86</ele>
        <time>2016-07-10T08:02:59.000Z</time>
      </trkpt>
      <trkpt lat="49.25629" lon="1.01703">
        <ele>86</ele>
        <time>2016-07-10T08:03:00.000Z</time>
      </trkpt>
      <trkpt lat="49.25622" lon="1.01702">
        <ele>86</ele>
        <time>2016-07-10T08:03:01.000Z</time>
      </trkpt>
      <trkpt lat="49.25616" lon="1.01701">
        <ele>86</ele>
        <time>2016-07-10T08:03:02.000Z</time>
      </trkpt>
      <trkpt lat="49.2561" lon="1.01699">
        <ele>86</ele>
        <time>2016-07-10T08:03:03.000Z</time>
      </trkpt>
      <trkpt lat="49.25604" lon="1.01696">
        <ele>86</ele>
        <time>2016-07-10T08:03:04.000Z</time>
      </trkpt>
      <trkpt lat="49.25599" lon="1.01693">
        <ele>87</ele>
        <time>2016-07-10T08:03:05.000Z</time>
      </trkpt>
      <trkpt lat="49.25594" lon="1.01689">
        <ele>87</ele>
        <time>2016-07-10T08:03:06.000Z</time>
      </trkpt>
      <trkpt lat="49.25589" lon="1.01685">
        <ele>87</ele>
        <time>2016-07-10T08:03:07.000Z</time>
      </trkpt>
      <trkpt lat="49.25585" lon="1.01681">
        <ele>87</ele>
        <time>2016-07-10T08:03:08.000Z</time>
      </trkpt>
      <trkpt lat="49.2558" lon="1.01679">
        <ele>88</ele>
        <time>2016-07-10T08:03:09.000Z</time>
      </trkpt>
      <trkpt lat="49.25576" lon="1.01677">
        <ele>88</ele>
        <time>2016-07-10T08:03:10.000Z</time>
      </trkpt>
      <trkpt lat="49.25573" lon="1.01677">
        <ele>88</ele>
        <time>2016-07-10T08:03:11.000Z</time>
      </trkpt>
      <trkpt lat="49.25569" lon="1.01677">
        <ele>88</ele>
        <time>2016-07-10T08:03:12.000Z</time>
      </trkpt>
      <trkpt lat="49.25566" lon="1.01676">
        <ele>88</ele>
        <time>2016-07-10T08:03:13.000Z</time>
      </trkpt>
      <trkpt lat="49.25563" lon="1.01675">
        <ele>88</ele>
        <time>2016-07-10T08:03:14.000Z</time>
      </trkpt>
      <trkpt lat="49.2556" lon="1.01675">
        <ele>88</ele>
        <time>2016-07-10T08:03:15.000Z</time>
      </trkpt>
      <trkpt lat="49.25556" lon="1.01674">
        <ele>88</ele>
        <time>2016-07-10T08:03:16.000Z</time>
      </trkpt>
      <trkpt lat="49.25552" lon="1.01673">
        <ele>88</ele>
        <time>2016-07-10T08:03:17.000Z</time>
      </trkpt>
      <trkpt lat="49.25548" lon="1.01671">
        <ele>88</ele>
        <time>2016-07-10T08:03:18.000Z</time>
      </trkpt>
      <trkpt lat="49.25544" lon="1.0167">
        <ele>88</ele>
        <time>2016-07-10T08:03:19.000Z</time>
      </trkpt>
      <trkpt lat="49.2554" lon="1.01667">
        <ele>88</ele>
        <time>2016-07-10T08:03:20.000Z</time>
      </trkpt>
      <trkpt lat="49.25534" lon="1.01663">
        <ele>88</ele>
        <time>2016-07-10T08:03:21.000Z</time>
      </trkpt>
      <trkpt lat="49.25529" lon="1.01659">
        <ele>88</ele>
        <time>2016-07-10T08:03:22.000Z</time>
      </trkpt>
      <trkpt lat="49.25524" lon="1.01655">
        <ele>88</ele>
        <time>2016-07-10T08:03:23.000Z</time>
      </trkpt>
      <trkpt lat="49.2552" lon="1.0165">
        <ele>88</ele>
        <time>2016-07-10T08:03:24.000Z</time>
      </trkpt>
      <trkpt lat="49.25516" lon="1.01647">
        <ele>88</ele>
        <time>2016-07-10T08:03:25.000Z</time>
      </trkpt>
      <trkpt lat="49.25511" lon="1.01643">
        <ele>87</ele>
        <time>2016-07-10T08:03:26.000Z</time>
      </trkpt>
      <trkpt lat="49.25507" lon="1.01639">
        <ele>87</ele>
        <time>2016-07-10T08:03:27.000Z</time>
      </trkpt>
      <trkpt lat="49.25502" lon="1.01635">
        <ele>87</ele>
        <time>2016-07-10T08:03:28.000Z</time>
      </trkpt>
      <trkpt lat="49.25497" lon="1.01631">
        <ele>88</ele>
        <time>2016-07-10T08:03:29.000Z</time>
      </trkpt>
      <trkpt lat="49.25491" lon="1.01628">
        <ele>87</ele>
        <time>2016-07-10T08:03:30.000Z</time>
      </trkpt>
      <trkpt lat="49.25486" lon="1.01625">
        <ele>86</ele>
        <time>2016-07-10T08:03:31.000Z</time>
      </trkpt>
      <trkpt lat="49.2548" lon="1.01622">
        <ele>84</ele>
        <time>2016-07-10T08:03:32.000Z</time>
      </trkpt>
      <trkpt lat="49.25474" lon="1.01619">
        <ele>84</ele>
        <time>2016-07-10T08:03:33.000Z</time>
      </trkpt>
      <trkpt lat="49.25469" lon="1.01616">
        <ele>83</ele>
        <time>2016-07-10T08:03:34.000Z</time>
      </trkpt>
      <trkpt lat="49.25464" lon="1.01613">
        <ele>83</ele>
        <time>2016-07-10T08:03:35.000Z</time>
      </trkpt>
      <trkpt lat="49.25461" lon="1.0161">
        <ele>82</ele>
        <time>2016-07-10T08:03:36.000Z</time>
      </trkpt>
      <trkpt lat="49.25458" lon="1.01608">
        <ele>82</ele>
        <time>2016-07-10T08:03:37.000Z</time>
      </trkpt>
      <trkpt lat="49.25456" lon="1.01607">
        <ele>82</ele>
        <time>2016-07-10T08:03:38.000Z</time>
      </trkpt>
      <trkpt lat="49.25453" lon="1.01606">
        <ele>82</ele>
        <time>2016-07-10T08:03:39.000Z</time>
      </trkpt>
      <trkpt lat="49.25451" lon="1.01605">
        <ele>81</ele>
        <time>2016-07-10T08:03:40.000Z</time>
      </trkpt>
      <trkpt lat="49.25448" lon="1.01604">
        <ele>80</ele>
        <time>2016-07-10T08:03:41.000Z</time>
      </trkpt>
      <trkpt lat="49.25444" lon="1.01603">
        <ele>78</ele>
        <time>2016-07-10T08:03:42.000Z</time>
      </trkpt>
      <trkpt lat="49.25439" lon="1.01603">
        <ele>78</ele>
        <time>2016-07-10T08:03:43.000Z</time>
      </trkpt>
      <trkpt lat="49.25433" lon="1.01602">
        <ele>77</ele>
        <time>2016-07-10T08:03:44.000Z</time>
      </trkpt>
      <trkpt lat="49.25428" lon="1.016">
        <ele>76</ele>
        <time>2016-07-10T08:03:45.000Z</time>
      </trkpt>
      <trkpt lat="49.25423" lon="1.01598">
        <ele>75</ele>
        <time>2016-07-10T08:03:46.000Z</time>
      </trkpt>
      <trkpt lat="49.25419" lon="1.01596">
        <ele>74</ele>
        <time>2016-07-10T08:03:47.000Z</time>
      </trkpt>
      <trkpt lat="49.25415" lon="1.01594">
        <ele>73</ele>
        <time>2016-07-10T08:03:48.000Z</time>
      </trkpt>
      <trkpt lat="49.25412" lon="1.01591">
        <ele>72</ele>
        <time>2016-07-10T08:03:49.000Z</time>
      </trkpt>
      <trkpt lat="49.25409" lon="1.01588">
        <ele>71</ele>
        <time>2016-07-10T08:03:50.000Z</time>
      </trkpt>
      <trkpt lat="49.25406" lon="1.01587">
        <ele>70</ele>
        <time>2016-07-10T08:03:51.000Z</time>
      </trkpt>
      <trkpt lat="49.25403" lon="1.01586">
        <ele>69</ele>
        <time>2016-07-10T08:03:52.000Z</time>
      </trkpt>
      <trkpt lat="49.254" lon="1.01586">
        <ele>67</ele>
        <time>2016-07-10T08:03:53.000Z</time>
      </trkpt>
      <trkpt lat="49.25397" lon="1.01586">
        <ele>67</ele>
        <time>2016-07-10T08:03:54.000Z</time>
      </trkpt>
      <trkpt lat="49.25394" lon="1.01585">
        <ele>67</ele>
        <time>2016-07-10T08:03:55.000Z</time>
      </trkpt>
      <trkpt lat="49.25391" lon="1.01583">
        <ele>66</ele>
        <time>2016-07-10T08:03:56.000Z</time>
      </trkpt>
      <trkpt lat="49.25389" lon="1.0158">
        <ele>66</ele>
        <time>2016-07-10T08:03:57.000Z</time>
      </trkpt>
      <trkpt lat="49.25387" lon="1.01579">
        <ele>65</ele>
        <time>2016-07-10T08:03:58.000Z</time>
      </trkpt>
      <trkpt lat="49.25384" lon="1.01577">
        <ele>64</ele>
        <time>2016-07-10T08:03:59.000Z</time>
      </trkpt>
      <trkpt lat="49.25382" lon="1.01575">
        <ele>64</ele>
        <time>2016-07-10T08:04:00.000Z</time>
      </trkpt>
      <trkpt lat="49.25381" lon="1.01573">
        <ele>63</ele>
        <time>2016-07-10T08:04:01.000Z</time>
      </trkpt>
      <trkpt lat="49.2538" lon="1.01571">
        <ele>62</ele>
        <time>2016-07-10T08:04:02.000Z</time>
      </trkpt>
      <trkpt lat="49.25379" lon="1.01569">
        <ele>61</ele>
        <time>2016-07-10T08:04:03.000Z</time>
      </trkpt>
      <trkpt lat="49.25378" lon="1.01567">
        <ele>61</ele>
        <time>2016-07-10T08:04:04.000Z</time>
      </trkpt>
      <trkpt lat="49.25377" lon="1.01565">
        <ele>60</ele>
        <time>2016-07-10T08:04:05.000Z</time>
      </trkpt>
      <trkpt lat="49.25375" lon="1.01562">
        <ele>60</ele>
        <time>2016-07-10T08:04:06.000Z</time>
      </trkpt>
      <trkpt lat="49.25374" lon="1.01558">
        <ele>59</ele>
        <time>2016-07-10T08:04:07.000Z</time>
      </trkpt>
      <trkpt lat="49.25374" lon="1.01554">
        <ele>58</ele>
        <time>2016-07-10T08:04:08.000Z</time>
      </trkpt>
      <trkpt lat="49.25373" lon="1.01551">
        <ele>58</ele>
        <time>2016-07-10T08:04:09.000Z</time>
      </trkpt>
      <trkpt lat="49.25373" lon="1.01547">
        <ele>56</ele>
        <time>2016-07-10T08:04:10.000Z</time>
      </trkpt>
      <trkpt lat="49.25372" lon="1.01543">
        <ele>55</ele>
        <time>2016-07-10T08:04:11.000Z</time>
      </trkpt>
      <trkpt lat="49.25371" lon="1.01538">
        <ele>55</ele>
        <time>2016-07-10T08:04:12.000Z</time>
      </trkpt>
      <trkpt lat="49.2537" lon="1.01535">
        <ele>54</ele>
        <time>2016-07-10T08:04:13.000Z</time>
      </trkpt>
      <trkpt lat="49.25367" lon="1.01535">
        <ele>54</ele>
        <time>2016-07-10T08:04:14.000Z</time>
      </trkpt>
      <trkpt lat="49.25365" lon="1.01538">
        <ele>54</ele>
        <time>2016-07-10T08:04:15.000Z</time>
      </trkpt>
      <trkpt lat="49.25362" lon="1.01542">
        <ele>53</ele>
        <time>2016-07-10T08:04:16.000Z</time>
      </trkpt>
      <trkpt lat="49.25357" lon="1.01548">
        <ele>51</ele>
        <time>2016-07-10T08:04:17.000Z</time>
      </trkpt>
      <trkpt lat="49.25352" lon="1.01555">
        <ele>50</ele>
        <time>2016-07-10T08:04:18.000Z</time>
      </trkpt>
      <trkpt lat="49.25346" lon="1.01562">
        <ele>50</ele>
        <time>2016-07-10T08:04:19.000Z</time>
      </trkpt>
      <trkpt lat="49.2534" lon="1.0157">
        <ele>49</ele>
        <time>2016-07-10T08:04:20.000Z</time>
      </trkpt>
      <trkpt lat="49.25333" lon="1.0158">
        <ele>48</ele>
        <time>2016-07-10T08:04:21.000Z</time>
      </trkpt>
      <trkpt lat="49.25327" lon="1.01591">
        <ele>48</ele>
        <time>2016-07-10T08:04:22.000Z</time>
      </trkpt>
      <trkpt lat="49.25324" lon="1.01603">
        <ele>48</ele>
        <time>2016-07-10T08:04:23.000Z</time>
      </trkpt>
      <trkpt lat="49.25321" lon="1.01617">
        <ele>48</ele>
        <time>2016-07-10T08:04:24.000Z</time>
      </trkpt>
      <trkpt lat="49.25319" lon="1.01631">
        <ele>48</ele>
        <time>2016-07-10T08:04:25.000Z</time>
      </trkpt>
      <trkpt lat="49.25317" lon="1.01646">
        <ele>48</ele>
        <time>2016-07-10T08:04:26.000Z</time>
      </trkpt>
      <trkpt lat="49.25316" lon="1.01661">
        <ele>48</ele>
        <time>2016-07-10T08:04:27.000Z</time>
      </trkpt>
      <trkpt lat="49.25314" lon="1.01676">
        <ele>47</ele>
        <time>2016-07-10T08:04:28.000Z</time>
      </trkpt>
      <trkpt lat="49.25313" lon="1.01691">
        <ele>47</ele>
        <time>2016-07-10T08:04:29.000Z</time>
      </trkpt>
      <trkpt lat="49.25312" lon="1.01704">
        <ele>47</ele>
        <time>2016-07-10T08:04:30.000Z</time>
      </trkpt>
      <trkpt lat="49.25311" lon="1.01715">
        <ele>47</ele>
        <time>2016-07-10T08:04:31.000Z</time>
      </trkpt>
      <trkpt lat="49.25311" lon="1.01724">
        <ele>46</ele>
        <time>2016-07-10T08:04:32.000Z</time>
      </trkpt>
      <trkpt lat="49.2531" lon="1.0173">
        <ele>46</ele>
        <time>2016-07-10T08:04:33.000Z</time>
      </trkpt>
      <trkpt lat="49.25309" lon="1.01736">
        <ele>46</ele>
        <time>2016-07-10T08:04:34.000Z</time>
      </trkpt>
      <trkpt lat="49.25308" lon="1.0174">
        <ele>46</ele>
        <time>2016-07-10T08:04:35.000Z</time>
      </trkpt>
      <trkpt lat="49.25308" lon="1.01742">
        <ele>46</ele>
        <time>2016-07-10T08:04:36.000Z</time>
      </trkpt>
      <trkpt lat="49.25309" lon="1.01744">
        <ele>47</ele>
        <time>2016-07-10T08:04:37.000Z</time>
      </trkpt>
      <trkpt lat="49.25309" lon="1.01746">
        <ele>47</ele>
        <time>2016-07-10T08:04:38.000Z</time>
      </trkpt>
      <trkpt lat="49.25309" lon="1.01748">
        <ele>47</ele>
        <time>2016-07-10T08:04:39.000Z</time>
      </trkpt>
      <trkpt lat="49.25309" lon="1.01749">
        <ele>48</ele>
        <time>2016-07-10T08:04:40.000Z</time>
      </trkpt>
      <trkpt lat="49.25309" lon="1.01751">
        <ele>47</ele>
        <time>2016-07-10T08:04:41.000Z</time>
      </trkpt>
      <trkpt lat="49.25309" lon="1.01753">
        <ele>47</ele>
        <time>2016-07-10T08:04:42.000Z</time>
      </trkpt>
      <trkpt lat="49.25309" lon="1.01756">
        <ele>47</ele>
        <time>2016-07-10T08:04:43.000Z</time>
      </trkpt>
      <trkpt lat="49.2531" lon="1.01759">
        <ele>47</ele>
        <time>2016-07-10T08:04:44.000Z</time>
      </trkpt>
      <trkpt lat="49.25311" lon="1.01762">
        <ele>47</ele>
        <time>2016-07-10T08:04:45.000Z</time>
      </trkpt>
      <trkpt lat="49.25311" lon="1.01765">
        <ele>47</ele>
        <time>2016-07-10T08:04:46.000Z</time>
      </trkpt>
      <trkpt lat="49.25311" lon="1.01768">
        <ele>47</ele>
        <time>2016-07-10T08:04:47.000Z</time>
      </trkpt>
      <trkpt lat="49.25311" lon="1.01771">
        <ele>46</ele>
        <time>2016-07-10T08:04:48.000Z</time>
      </trkpt>
      <trkpt lat="49.25311" lon="1.01774">
        <ele>46</ele>
        <time>2016-07-10T08:04:49.000Z</time>
      </trkpt>
      <trkpt lat="49.2531" lon="1.01777">
        <ele>46</ele>
        <time>2016-07-10T08:04:50.000Z</time>
      </trkpt>
      <trkpt lat="49.2531" lon="1.01781">
        <ele>45</ele>
        <time>2016-07-10T08:04:51.000Z</time>
      </trkpt>
      <trkpt lat="49.2531" lon="1.01785">
        <ele>45</ele>
        <time>2016-07-10T08:04:52.000Z</time>
      </trkpt>
      <trkpt lat="49.25311" lon="1.0179">
        <ele>45</ele>
        <time>2016-07-10T08:04:53.000Z</time>
      </trkpt>
      <trkpt lat="49.25311" lon="1.01795">
        <ele>45</ele>
        <time>2016-07-10T08:04:54.000Z</time>
      </trkpt>
      <trkpt lat="49.25312" lon="1.018">
        <ele>45</ele>
        <time>2016-07-10T08:04:55.000Z</time>
      </trkpt>
      <trkpt lat="49.25313" lon="1.01806">
        <ele>45</ele>
        <time>2016-07-10T08:04:56.000Z</time>
      </trkpt>
      <trkpt lat="49.25314" lon="1.01812">
        <ele>44</ele>
        <time>2016-07-10T08:04:57.000Z</time>
      </trkpt>
      <trkpt lat="49.25314" lon="1.01819">
        <ele>44</ele>
        <time>2016-07-10T08:04:58.000Z</time>
      </trkpt>
      <trkpt lat="49.25314" lon="1.01826">
        <ele>44</ele>
        <time>2016-07-10T08:04:59.000Z</time>
      </trkpt>
      <trkpt lat="49.25313" lon="1.01834">
        <ele>44</ele>
        <time>2016-07-10T08:05:00.000Z</time>
      </trkpt>
      <trkpt lat="49.2531" lon="1.01841">
        <ele>44</ele>
        <time>2016-07-10T08:05:01.000Z</time>
      </trkpt>
      <trkpt lat="49.25308" lon="1.01847">
        <ele>43</ele>
        <time>2016-07-10T08:05:02.000Z</time>
      </trkpt>
      <trkpt lat="49.25305" lon="1.01853">
        <ele>43</ele>
        <time>2016-07-10T08:05:03.000Z</time>
      </trkpt>
      <trkpt lat="49.25302" lon="1.01859">
        <ele>43</ele>
        <time>2016-07-10T08:05:04.000Z</time>
      </trkpt>
      <trkpt lat="49.25299" lon="1.01866">
        <ele>43</ele>
        <time>2016-07-10T08:05:05.000Z</time>
      </trkpt>
      <trkpt lat="49.25296" lon="1.01872">
        <ele>43</ele>
        <time>2016-07-10T08:05:06.000Z</time>
      </trkpt>
      <trkpt lat="49.25292" lon="1.01877">
        <ele>43</ele>
        <time>2016-07-10T08:05:07.000Z</time>
      </trkpt>
      <trkpt lat="49.25289" lon="1.01882">
        <ele>43</ele>
        <time>2016-07-10T08:05:08.000Z</time>
      </trkpt>
      <trkpt lat="49.25287" lon="1.01886">
        <ele>43</ele>
        <time>2016-07-10T08:05:09.000Z</time>
      </trkpt>
      <trkpt lat="49.25284" lon="1.0189">
        <ele>43</ele>
        <time>2016-07-10T08:05:10.000Z</time>
      </trkpt>
      <trkpt lat="49.25283" lon="1.01894">
        <ele>43</ele>
        <time>2016-07-10T08:05:11.000Z</time>
      </trkpt>
      <trkpt lat="49.25281" lon="1.01897">
        <ele>42</ele>
        <time>2016-07-10T08:05:12.000Z</time>
      </trkpt>
      <trkpt lat="49.25281" lon="1.01901">
        <ele>43</ele>
        <time>2016-07-10T08:05:13.000Z</time>
      </trkpt>
      <trkpt lat="49.25281" lon="1.01904">
        <ele>43</ele>
        <time>2016-07-10T08:05:14.000Z</time>
      </trkpt>
      <trkpt lat="49.25282" lon="1.01907">
        <ele>44</ele>
        <time>2016-07-10T08:05:15.000Z</time>
      </trkpt>
      <trkpt lat="49.25285" lon="1.0191">
        <ele>43</ele>
        <time>2016-07-10T08:05:16.000Z</time>
      </trkpt>
      <trkpt lat="49.25288" lon="1.01912">
        <ele>43</ele>
        <time>2016-07-10T08:05:17.000Z</time>
      </trkpt>
      <trkpt lat="49.25291" lon="1.01915">
        <ele>42</ele>
        <time>2016-07-10T08:05:18.000Z</time>
      </trkpt>
      <trkpt lat="49.25295" lon="1.01918">
        <ele>42</ele>
        <time>2016-07-10T08:05:19.000Z</time>
      </trkpt>
      <trkpt lat="49.25299" lon="1.01921">
        <ele>42</ele>
        <time>2016-07-10T08:05:20.000Z</time>
      </trkpt>
      <trkpt lat="49.25303" lon="1.01925">
        <ele>41</ele>
        <time>2016-07-10T08:05:21.000Z</time>
      </trkpt>
      <trkpt lat="49.25307" lon="1.01929">
        <ele>41</ele>
        <time>2016-07-10T08:05:22.000Z</time>
      </trkpt>
      <trkpt lat="49.25311" lon="1.01934">
        <ele>41</ele>
        <time>2016-07-10T08:05:23.000Z</time>
      </trkpt>
      <trkpt lat="49.25315" lon="1.0194">
        <ele>41</ele>
        <time>2016-07-10T08:05:24.000Z</time>
      </trkpt>
      <trkpt lat="49.25319" lon="1.01946">
        <ele>41</ele>
        <time>2016-07-10T08:05:25.000Z</time>
      </trkpt>
      <trkpt lat="49.25322" lon="1.01953">
        <ele>41</ele>
        <time>2016-07-10T08:05:26.000Z</time>
      </trkpt>
      <trkpt lat="49.25325" lon="1.01959">
        <ele>41</ele>
        <time>2016-07-10T08:05:27.000Z</time>
      </trkpt>
      <trkpt lat="49.25328" lon="1.01967">
        <ele>41</ele>
        <time>2016-07-10T08:05:28.000Z</time>
      </trkpt>
      <trkpt lat="49.2533" lon="1.01974">
        <ele>40</ele>
        <time>2016-07-10T08:05:29.000Z</time>
      </trkpt>
      <trkpt lat="49.25331" lon="1.01983">
        <ele>41</ele>
        <time>2016-07-10T08:05:30.000Z</time>
      </trkpt>
      <trkpt lat="49.25331" lon="1.0199">
        <ele>41</ele>
        <time>2016-07-10T08:05:31.000Z</time>
      </trkpt>
      <trkpt lat="49.25331" lon="1.01998">
        <ele>41</ele>
        <time>2016-07-10T08:05:32.000Z</time>
      </trkpt>
      <trkpt lat="49.25331" lon="1.02006">
        <ele>41</ele>
        <time>2016-07-10T08:05:33.000Z</time>
      </trkpt>
      <trkpt lat="49.2533" lon="1.02013">
        <ele>42</ele>
        <time>2016-07-10T08:05:34.000Z</time>
      </trkpt>
      <trkpt lat="49.2533" lon="1.0202">
        <ele>42</ele>
        <time>2016-07-10T08:05:35.000Z</time>
      </trkpt>
      <trkpt lat="49.25329" lon="1.02027">
        <ele>42</ele>
        <time>2016-07-10T08:05:36.000Z</time>
      </trkpt>
      <trkpt lat="49.25329" lon="1.02033">
        <ele>42</ele>
        <time>2016-07-10T08:05:37.000Z</time>
      </trkpt>
      <trkpt lat="49.2533" lon="1.0204">
        <ele>42</ele>
        <time>2016-07-10T08:05:38.000Z</time>
      </trkpt>
      <trkpt lat="49.2533" lon="1.02047">
        <ele>43</ele>
        <time>2016-07-10T08:05:39.000Z</time>
      </trkpt>
      <trkpt lat="49.25331" lon="1.02054">
        <ele>44</ele>
        <time>2016-07-10T08:05:40.000Z</time>
      </trkpt>
      <trkpt lat="49.25333" lon="1.02061">
        <ele>45</ele>
        <time>2016-07-10T08:05:41.000Z</time>
      </trkpt>
      <trkpt lat="49.25334" lon="1.02068">
        <ele>45</ele>
        <time>2016-07-10T08:05:42.000Z</time>
      </trkpt>
      <trkpt lat="49.25336" lon="1.02076">
        <ele>46</ele>
        <time>2016-07-10T08:05:43.000Z</time>
      </trkpt>
      <trkpt lat="49.25338" lon="1.02083">
        <ele>46</ele>
        <time>2016-07-10T08:05:44.000Z</time>
      </trkpt>
      <trkpt lat="49.25341" lon="1.02091">
        <ele>47</ele>
        <time>2016-07-10T08:05:45.000Z</time>
      </trkpt>
      <trkpt lat="49.25343" lon="1.02098">
        <ele>47</ele>
        <time>2016-07-10T08:05:46.000Z</time>
      </trkpt>
      <trkpt lat="49.25346" lon="1.02106">
        <ele>47</ele>
        <time>2016-07-10T08:05:47.000Z</time>
      </trkpt>
      <trkpt lat="49.25348" lon="1.02113">
        <ele>48</ele>
        <time>2016-07-10T08:05:48.000Z</time>
      </trkpt>
      <trkpt lat="49.25351" lon="1.02121">
        <ele>48</ele>
        <time>2016-07-10T08:05:49.000Z</time>
      </trkpt>
      <trkpt lat="49.25354" lon="1.02128">
        <ele>48</ele>
        <time>2016-07-10T08:05:50.000Z</time>
      </trkpt>
      <trkpt lat="49.25357" lon="1.02135">
        <ele>48</ele>
        <time>2016-07-10T08:05:51.000Z</time>
      </trkpt>
      <trkpt lat="49.2536" lon="1.02143">
        <ele>48</ele>
        <time>2016-07-10T08:05:52.000Z</time>
      </trkpt>
      <trkpt lat="49.25363" lon="1.0215">
        <ele>48</ele>
        <time>2016-07-10T08:05:53.000Z</time>
      </trkpt>
      <trkpt lat="49.25366" lon="1.02158">
        <ele>48</ele>
        <time>2016-07-10T08:05:54.000Z</time>
      </trkpt>
      <trkpt lat="49.25369" lon="1.02165">
        <ele>49</ele>
        <time>2016-07-10T08:05:55.000Z</time>
      </trkpt>
      <trkpt lat="49.25373" lon="1.02172">
        <ele>49</ele>
        <time>2016-07-10T08:05:56.000Z</time>
      </trkpt>
      <trkpt lat="49.25376" lon="1.0218">
        <ele>49</ele>
        <time>2016-07-10T08:05:57.000Z</time>
      </trkpt>
      <trkpt lat="49.25379" lon="1.02187">
        <ele>49</ele>
        <time>2016-07-10T08:05:58.000Z</time>
      </trkpt>
      <trkpt lat="49.25383" lon="1.02195">
        <ele>50</ele>
        <time>2016-07-10T08:05:59.000Z</time>
      </trkpt>
      <trkpt lat="49.25386" lon="1.02202">
        <ele>50</ele>
        <time>2016-07-10T08:06:00.000Z</time>
      </trkpt>
      <trkpt lat="49.2539" lon="1.0221">
        <ele>50</ele>
        <time>2016-07-10T08:06:01.000Z</time>
      </trkpt>
      <trkpt lat="49.25393" lon="1.02217">
        <ele>50</ele>
        <time>2016-07-10T08:06:02.000Z</time>
      </trkpt>
      <trkpt lat="49.25396" lon="1.02225">
        <ele>51</ele>
        <time>2016-07-10T08:06:03.000Z</time>
      </trkpt>
      <trkpt lat="49.254" lon="1.02232">
        <ele>51</ele>
        <time>2016-07-10T08:06:04.000Z</time>
      </trkpt>
      <trkpt lat="49.25403" lon="1.02239">
        <ele>51</ele>
        <time>2016-07-10T08:06:05.000Z</time>
      </trkpt>
      <trkpt lat="49.25407" lon="1.02246">
        <ele>52</ele>
        <time>2016-07-10T08:06:06.000Z</time>
      </trkpt>
      <trkpt lat="49.25411" lon="1.02253">
        <ele>52</ele>
        <time>2016-07-10T08:06:07.000Z</time>
      </trkpt>
      <trkpt lat="49.25415" lon="1.02259">
        <ele>52</ele>
        <time>2016-07-10T08:06:08.000Z</time>
      </trkpt>
      <trkpt lat="49.25419" lon="1.02266">
        <ele>52</ele>
        <time>2016-07-10T08:06:09.000Z</time>
      </trkpt>
      <trkpt lat="49.25423" lon="1.02273">
        <ele>52</ele>
        <time>2016-07-10T08:06:10.000Z</time>
      </trkpt>
      <trkpt lat="49.25428" lon="1.0228">
        <ele>52</ele>
        <time>2016-07-10T08:06:11.000Z</time>
      </trkpt>
      <trkpt lat="49.25433" lon="1.02287">
        <ele>52</ele>
        <time>2016-07-10T08:06:12.000Z</time>
      </trkpt>
      <trkpt lat="49.25438" lon="1.02293">
        <ele>52</ele>
        <time>2016-07-10T08:06:13.000Z</time>
      </trkpt>
      <trkpt lat="49.25442" lon="1.023">
        <ele>52</ele>
        <time>2016-07-10T08:06:14.000Z</time>
      </trkpt>
      <trkpt lat="49.25447" lon="1.02307">
        <ele>52</ele>
        <time>2016-07-10T08:06:15.000Z</time>
      </trkpt>
      <trkpt lat="49.25452" lon="1.02314">
        <ele>52</ele>
        <time>2016-07-10T08:06:16.000Z</time>
      </trkpt>
      <trkpt lat="49.25457" lon="1.0232">
        <ele>52</ele>
        <time>2016-07-10T08:06:17.000Z</time>
      </trkpt>
      <trkpt lat="49.25462" lon="1.02327">
        <ele>52</ele>
        <time>2016-07-10T08:06:18.000Z</time>
      </trkpt>
      <trkpt lat="49.25467" lon="1.02334">
        <ele>52</ele>
        <time>2016-07-10T08:06:19.000Z</time>
      </trkpt>
      <trkpt lat="49.25471" lon="1.0234">
        <ele>53</ele>
        <time>2016-07-10T08:06:20.000Z</time>
      </trkpt>
      <trkpt lat="49.25476" lon="1.02347">
        <ele>53</ele>
        <time>2016-07-10T08:06:21.000Z</time>
      </trkpt>
      <trkpt lat="49.25481" lon="1.02354">
        <ele>52</ele>
        <time>2016-07-10T08:06:22.000Z</time>
      </trkpt>
      <trkpt lat="49.25485" lon="1.0236">
        <ele>52</ele>
        <time>2016-07-10T08:06:23.000Z</time>
      </trkpt>
      <trkpt lat="49.2549" lon="1.02367">
        <ele>52</ele>
        <time>2016-07-10T08:06:24.000Z</time>
      </trkpt>
      <trkpt lat="49.25495" lon="1.02373">
        <ele>52</ele>
        <time>2016-07-10T08:06:25.000Z</time>
      </trkpt>
      <trkpt lat="49.255" lon="1.02379">
        <ele>52</ele>
        <time>2016-07-10T08:06:26.000Z</time>
      </trkpt>
      <trkpt lat="49.25506" lon="1.02386">
        <ele>52</ele>
        <time>2016-07-10T08:06:27.000Z</time>
      </trkpt>
      <trkpt lat="49.25511" lon="1.02392">
        <ele>52</ele>
        <time>2016-07-10T08:06:28.000Z</time>
      </trkpt>
      <trkpt lat="49.25516" lon="1.02398">
        <ele>51</ele>
        <time>2016-07-10T08:06:29.000Z</time>
      </trkpt>
      <trkpt lat="49.25522" lon="1.02404">
        <ele>51</ele>
        <time>2016-07-10T08:06:30.000Z</time>
      </trkpt>
      <trkpt lat="49.25527" lon="1.0241">
        <ele>51</ele>
        <time>2016-07-10T08:06:31.000Z</time>
      </trkpt>
      <trkpt lat="49.25532" lon="1.02417">
        <ele>51</ele>
        <time>2016-07-10T08:06:32.000Z</time>
      </trkpt>
      <trkpt lat="49.25538" lon="1.02423">
        <ele>50</ele>
        <time>2016-07-10T08:06:33.000Z</time>
      </trkpt>
      <trkpt lat="49.25543" lon="1.02429">
        <ele>50</ele>
        <time>2016-07-10T08:06:34.000Z</time>
      </trkpt>
      <trkpt lat="49.25548" lon="1.02435">
        <ele>50</ele>
        <time>2016-07-10T08:06:35.000Z</time>
      </trkpt>
      <trkpt lat="49.25554" lon="1.02441">
        <ele>50</ele>
        <time>2016-07-10T08:06:36.000Z</time>
      </trkpt>
      <trkpt lat="49.25559" lon="1.02447">
        <ele>49</ele>
        <time>2016-07-10T08:06:37.000Z</time>
      </trkpt>
      <trkpt lat="49.25564" lon="1.02453">
        <ele>49</ele>
        <time>2016-07-10T08:06:38.000Z</time>
      </trkpt>
      <trkpt lat="49.2557" lon="1.02459">
        <ele>48</ele>
        <time>2016-07-10T08:06:39.000Z</time>
      </trkpt>
      <trkpt lat="49.25575" lon="1.02465">
        <ele>48</ele>
        <time>2016-07-10T08:06:40.000Z</time>
      </trkpt>
      <trkpt lat="49.25581" lon="1.02472">
        <ele>47</ele>
        <time>2016-07-10T08:06:41.000Z</time>
      </trkpt>
      <trkpt lat="49.25586" lon="1.02478">
        <ele>47</ele>
        <time>2016-07-10T08:06:42.000Z</time>
      </trkpt>
      <trkpt lat="49.25592" lon="1.02484">
        <ele>47</ele>
        <time>2016-07-10T08:06:43.000Z</time>
      </trkpt>
      <trkpt lat="49.25598" lon="1.0249">
        <ele>47</ele>
        <time>2016-07-10T08:06:44.000Z</time>
      </trkpt>
      <trkpt lat="49.25604" lon="1.02497">
        <ele>47</ele>
        <time>2016-07-10T08:06:45.000Z</time>
      </trkpt>
      <trkpt lat="49.2561" lon="1.02503">
        <ele>47</ele>
        <time>2016-07-10T08:06:46.000Z</time>
      </trkpt>
      <trkpt lat="49.25616" lon="1.02509">
        <ele>47</ele>
        <time>2016-07-10T08:06:47.000Z</time>
      </trkpt>
      <trkpt lat="49.25622" lon="1.02515">
        <ele>47</ele>
        <time>2016-07-10T08:06:48.000Z</time>
      </trkpt>
      <trkpt lat="49.25628" lon="1.0252">
        <ele>46</ele>
        <time>2016-07-10T08:06:49.000Z</time>
      </trkpt>
      <trkpt lat="49.25634" lon="1.02525">
        <ele>45</ele>
        <time>2016-07-10T08:06:50.000Z</time>
      </trkpt>
      <trkpt lat="49.2564" lon="1.02531">
        <ele>44</ele>
        <time>2016-07-10T08:06:51.000Z</time>
      </trkpt>
      <trkpt lat="49.25646" lon="1.02536">
        <ele>44</ele>
        <time>2016-07-10T08:06:52.000Z</time>
      </trkpt>
      <trkpt lat="49.25651" lon="1.02542">
        <ele>43</ele>
        <time>2016-07-10T08:06:53.000Z</time>
      </trkpt>
      <trkpt lat="49.25657" lon="1.02547">
        <ele>44</ele>
        <time>2016-07-10T08:06:54.000Z</time>
      </trkpt>
      <trkpt lat="49.25663" lon="1.02553">
        <ele>43</ele>
        <time>2016-07-10T08:06:55.000Z</time>
      </trkpt>
      <trkpt lat="49.25669" lon="1.02559">
        <ele>42</ele>
        <time>2016-07-10T08:06:56.000Z</time>
      </trkpt>
      <trkpt lat="49.25675" lon="1.02566">
        <ele>42</ele>
        <time>2016-07-10T08:06:57.000Z</time>
      </trkpt>
      <trkpt lat="49.25682" lon="1.02574">
        <ele>42</ele>
        <time>2016-07-10T08:06:58.000Z</time>
      </trkpt>
      <trkpt lat="49.25688" lon="1.02582">
        <ele>43</ele>
        <time>2016-07-10T08:06:59.000Z</time>
      </trkpt>
      <trkpt lat="49.25693" lon="1.02591">
        <ele>40</ele>
        <time>2016-07-10T08:07:00.000Z</time>
      </trkpt>
      <trkpt lat="49.25697" lon="1.02601">
        <ele>41</ele>
        <time>2016-07-10T08:07:01.000Z</time>
      </trkpt>
      <trkpt lat="49.257" lon="1.02611">
        <ele>41</ele>
        <time>2016-07-10T08:07:02.000Z</time>
      </trkpt>
      <trkpt lat="49.25705" lon="1.0262">
        <ele>43</ele>
        <time>2016-07-10T08:07:03.000Z</time>
      </trkpt>
      <trkpt lat="49.25709" lon="1.02629">
        <ele>43</ele>
        <time>2016-07-10T08:07:04.000Z</time>
      </trkpt>
      <trkpt lat="49.25714" lon="1.02639">
        <ele>43</ele>
        <time>2016-07-10T08:07:05.000Z</time>
      </trkpt>
      <trkpt lat="49.25718" lon="1.02647">
        <ele>43</ele>
        <time>2016-07-10T08:07:06.000Z</time>
      </trkpt>
      <trkpt lat="49.25722" lon="1.02657">
        <ele>43</ele>
        <time>2016-07-10T08:07:07.000Z</time>
      </trkpt>
      <trkpt lat="49.25726" lon="1.02666">
        <ele>44</ele>
        <time>2016-07-10T08:07:08.000Z</time>
      </trkpt>
      <trkpt lat="49.25729" lon="1.02676">
        <ele>43</ele>
        <time>2016-07-10T08:07:09.000Z</time>
      </trkpt>
      <trkpt lat="49.25732" lon="1.02685">
        <ele>43</ele>
        <time>2016-07-10T08:07:10.000Z</time>
      </trkpt>
      <trkpt lat="49.25736" lon="1.02695">
        <ele>43</ele>
        <time>2016-07-10T08:07:11.000Z</time>
      </trkpt>
      <trkpt lat="49.2574" lon="1.02705">
        <ele>43</ele>
        <time>2016-07-10T08:07:12.000Z</time>
      </trkpt>
      <trkpt lat="49.25744" lon="1.02715">
        <ele>42</ele>
        <time>2016-07-10T08:07:13.000Z</time>
      </trkpt>
      <trkpt lat="49.25747" lon="1.02726">
        <ele>42</ele>
        <time>2016-07-10T08:07:14.000Z</time>
      </trkpt>
      <trkpt lat="49.25751" lon="1.02736">
        <ele>42</ele>
        <time>2016-07-10T08:07:15.000Z</time>
      </trkpt>
      <trkpt lat="49.25755" lon="1.02747">
        <ele>42</ele>
        <time>2016-07-10T08:07:16.000Z</time>
      </trkpt>
      <trkpt lat="49.25759" lon="1.02757">
        <ele>42</ele>
        <time>2016-07-10T08:07:17.000Z</time>
      </trkpt>
      <trkpt lat="49.25763" lon="1.02768">
        <ele>42</ele>
        <time>2016-07-10T08:07:18.000Z</time>
      </trkpt>
      <trkpt lat="49.25766" lon="1.02779">
        <ele>42</ele>
        <time>2016-07-10T08:07:19.000Z</time>
      </trkpt>
      <trkpt lat="49.25769" lon="1.02789">
        <ele>42</ele>
        <time>2016-07-10T08:07:20.000Z</time>
      </trkpt>
      <trkpt lat="49.25772" lon="1.028">
        <ele>42</ele>
        <time>2016-07-10T08:07:21.000Z</time>
      </trkpt>
      <trkpt lat="49.25774" lon="1.02811">
        <ele>42</ele>
        <time>2016-07-10T08:07:22.000Z</time>
      </trkpt>
      <trkpt lat="49.25777" lon="1.02821">
        <ele>41</ele>
        <time>2016-07-10T08:07:23.000Z</time>
      </trkpt>
      <trkpt lat="49.25779" lon="1.02832">
        <ele>41</ele>
        <time>2016-07-10T08:07:24.000Z</time>
      </trkpt>
      <trkpt lat="49.25781" lon="1.02843">
        <ele>41</ele>
        <time>2016-07-10T08:07:25.000Z</time>
      </trkpt>
      <trkpt lat="49.25783" lon="1.02854">
        <ele>41</ele>
        <time>2016-07-10T08:07:26.000Z</time>
      </trkpt>
      <trkpt lat="49.25784" lon="1.02864">
        <ele>41</ele>
        <time>2016-07-10T08:07:27.000Z</time>
      </trkpt>
      <trkpt lat="49.25786" lon="1.02875">
        <ele>41</ele>
        <time>2016-07-10T08:07:28.000Z</time>
      </trkpt>
      <trkpt lat="49.25787" lon="1.02886">
        <ele>41</ele>
        <time>2016-07-10T08:07:29.000Z</time>
      </trkpt>
      <trkpt lat="49.25788" lon="1.02896">
        <ele>40</ele>
        <time>2016-07-10T08:07:30.000Z</time>
      </trkpt>
      <trkpt lat="49.2579" lon="1.02907">
        <ele>40</ele>
        <time>2016-07-10T08:07:31.000Z</time>
      </trkpt>
      <trkpt lat="49.25791" lon="1.02917">
        <ele>40</ele>
        <time>2016-07-10T08:07:32.000Z</time>
      </trkpt>
      <trkpt lat="49.25792" lon="1.02928">
        <ele>40</ele>
        <time>2016-07-10T08:07:33.000Z</time>
      </trkpt>
      <trkpt lat="49.25793" lon="1.02938">
        <ele>40</ele>
        <time>2016-07-10T08:07:34.000Z</time>
      </trkpt>
      <trkpt lat="49.25795" lon="1.02949">
        <ele>40</ele>
        <time>2016-07-10T08:07:35.000Z</time>
      </trkpt>
      <trkpt lat="49.25796" lon="1.02959">
        <ele>40</ele>
        <time>2016-07-10T08:07:36.000Z</time>
      </trkpt>
      <trkpt lat="49.25797" lon="1.0297">
        <ele>40</ele>
        <time>2016-07-10T08:07:37.000Z</time>
      </trkpt>
      <trkpt lat="49.25798" lon="1.02981">
        <ele>40</ele>
        <time>2016-07-10T08:07:38.000Z</time>
      </trkpt>
      <trkpt lat="49.25799" lon="1.02992">
        <ele>40</ele>
        <time>2016-07-10T08:07:39.000Z</time>
      </trkpt>
      <trkpt lat="49.258" lon="1.03002">
        <ele>40</ele>
        <time>2016-07-10T08:07:40.000Z</time>
      </trkpt>
      <trkpt lat="49.25801" lon="1.03013">
        <ele>40</ele>
        <time>2016-07-10T08:07:41.000Z</time>
      </trkpt>
      <trkpt lat="49.25801" lon="1.03024">
        <ele>40</ele>
        <time>2016-07-10T08:07:42.000Z</time>
      </trkpt>
      <trkpt lat="49.25802" lon="1.03035">
        <ele>40</ele>
        <time>2016-07-10T08:07:43.000Z</time>
      </trkpt>
      <trkpt lat="49.25803" lon="1.03046">
        <ele>40</ele>
        <time>2016-07-10T08:07:44.000Z</time>
      </trkpt>
      <trkpt lat="49.25803" lon="1.03058">
        <ele>40</ele>
        <time>2016-07-10T08:07:45.000Z</time>
      </trkpt>
      <trkpt lat="49.25804" lon="1.03069">
        <ele>40</ele>
        <time>2016-07-10T08:07:46.000Z</time>
      </trkpt>
      <trkpt lat="49.25805" lon="1.0308">
        <ele>40</ele>
        <time>2016-07-10T08:07:47.000Z</time>
      </trkpt>
      <trkpt lat="49.25806" lon="1.03091">
        <ele>40</ele>
        <time>2016-07-10T08:07:48.000Z</time>
      </trkpt>
      <trkpt lat="49.25807" lon="1.03102">
        <ele>39</ele>
        <time>2016-07-10T08:07:49.000Z</time>
      </trkpt>
      <trkpt lat="49.25808" lon="1.03113">
        <ele>39</ele>
        <time>2016-07-10T08:07:50.000Z</time>
      </trkpt>
      <trkpt lat="49.25809" lon="1.03125">
        <ele>39</ele>
        <time>2016-07-10T08:07:51.000Z</time>
      </trkpt>
      <trkpt lat="49.2581" lon="1.03136">
        <ele>39</ele>
        <time>2016-07-10T08:07:52.000Z</time>
      </trkpt>
      <trkpt lat="49.25811" lon="1.03147">
        <ele>39</ele>
        <time>2016-07-10T08:07:53.000Z</time>
      </trkpt>
      <trkpt lat="49.25812" lon="1.03158">
        <ele>39</ele>
        <time>2016-07-10T08:07:54.000Z</time>
      </trkpt>
      <trkpt lat="49.25812" lon="1.03169">
        <ele>39</ele>
        <time>2016-07-10T08:07:55.000Z</time>
      </trkpt>
      <trkpt lat="49.25813" lon="1.0318">
        <ele>39</ele>
        <time>2016-07-10T08:07:56.000Z</time>
      </trkpt>
      <trkpt lat="49.25814" lon="1.03191">
        <ele>38</ele>
        <time>2016-07-10T08:07:57.000Z</time>
      </trkpt>
      <trkpt lat="49.25814" lon="1.03202">
        <ele>38</ele>
        <time>2016-07-10T08:07:58.000Z</time>
      </trkpt>
      <trkpt lat="49.25815" lon="1.03213">
        <ele>38</ele>
        <time>2016-07-10T08:07:59.000Z</time>
      </trkpt>
      <trkpt lat="49.25815" lon="1.03224">
        <ele>38</ele>
        <time>2016-07-10T08:08:00.000Z</time>
      </trkpt>
      <trkpt lat="49.25815" lon="1.03234">
        <ele>38</ele>
        <time>2016-07-10T08:08:01.000Z</time>
      </trkpt>
      <trkpt lat="49.25815" lon="1.03245">
        <ele>38</ele>
        <time>2016-07-10T08:08:02.000Z</time>
      </trkpt>
      <trkpt lat="49.25815" lon="1.03256">
        <ele>37</ele>
        <time>2016-07-10T08:08:03.000Z</time>
      </trkpt>
      <trkpt lat="49.25814" lon="1.03267">
        <ele>37</ele>
        <time>2016-07-10T08:08:04.000Z</time>
      </trkpt>
      <trkpt lat="49.25814" lon="1.03277">
        <ele>37</ele>
        <time>2016-07-10T08:08:05.000Z</time>
      </trkpt>
      <trkpt lat="49.25813" lon="1.03287">
        <ele>37</ele>
        <time>2016-07-10T08:08:06.000Z</time>
      </trkpt>
      <trkpt lat="49.25813" lon="1.03297">
        <ele>37</ele>
        <time>2016-07-10T08:08:07.000Z</time>
      </trkpt>
      <trkpt lat="49.25813" lon="1.03307">
        <ele>37</ele>
        <time>2016-07-10T08:08:08.000Z</time>
      </trkpt>
      <trkpt lat="49.25813" lon="1.03317">
        <ele>37</ele>
        <time>2016-07-10T08:08:09.000Z</time>
      </trkpt>
      <trkpt lat="49.25813" lon="1.03326">
        <ele>38</ele>
        <time>2016-07-10T08:08:10.000Z</time>
      </trkpt>
      <trkpt lat="49.25814" lon="1.03336">
        <ele>38</ele>
        <time>2016-07-10T08:08:11.000Z</time>
      </trkpt>
      <trkpt lat="49.25815" lon="1.03346">
        <ele>37</ele>
        <time>2016-07-10T08:08:12.000Z</time>
      </trkpt>
      <trkpt lat="49.25816" lon="1.03356">
        <ele>37</ele>
        <time>2016-07-10T08:08:13.000Z</time>
      </trkpt>
      <trkpt lat="49.25818" lon="1.03367">
        <ele>37</ele>
        <time>2016-07-10T08:08:14.000Z</time>
      </trkpt>
      <trkpt lat="49.2582" lon="1.03377">
        <ele>37</ele>
        <time>2016-07-10T08:08:15.000Z</time>
      </trkpt>
      <trkpt lat="49.25821" lon="1.03387">
        <ele>37</ele>
        <time>2016-07-10T08:08:16.000Z</time>
      </trkpt>
      <trkpt lat="49.25824" lon="1.03397">
        <ele>37</ele>
        <time>2016-07-10T08:08:17.000Z</time>
      </trkpt>
      <trkpt lat="49.25826" lon="1.03406">
        <ele>37</ele>
        <time>2016-07-10T08:08:18.000Z</time>
      </trkpt>
      <trkpt lat="49.25828" lon="1.03415">
        <ele>37</ele>
        <time>2016-07-10T08:08:19.000Z</time>
      </trkpt>
      <trkpt lat="49.25829" lon="1.03425">
        <ele>37</ele>
        <time>2016-07-10T08:08:20.000Z</time>
      </trkpt>
      <trkpt lat="49.25831" lon="1.03434">
        <ele>37</ele>
        <time>2016-07-10T08:08:21.000Z</time>
      </trkpt>
      <trkpt lat="49.25833" lon="1.03445">
        <ele>37</ele>
        <time>2016-07-10T08:08:22.000Z</time>
      </trkpt>
      <trkpt lat="49.25835" lon="1.03455">
        <ele>37</ele>
        <time>2016-07-10T08:08:23.000Z</time>
      </trkpt>
      <trkpt lat="49.25837" lon="1.03466">
        <ele>37</ele>
        <time>2016-07-10T08:08:24.000Z</time>
      </trkpt>
      <trkpt lat="49.2584" lon="1.03478">
        <ele>37</ele>
        <time>2016-07-10T08:08:25.000Z</time>
      </trkpt>
      <trkpt lat="49.25842" lon="1.0349">
        <ele>37</ele>
        <time>2016-07-10T08:08:26.000Z</time>
      </trkpt>
      <trkpt lat="49.25844" lon="1.03503">
        <ele>37</ele>
        <time>2016-07-10T08:08:27.000Z</time>
      </trkpt>
      <trkpt lat="49.25846" lon="1.03515">
        <ele>37</ele>
        <time>2016-07-10T08:08:28.000Z</time>
      </trkpt>
      <trkpt lat="49.25848" lon="1.03526">
        <ele>37</ele>
        <time>2016-07-10T08:08:29.000Z</time>
      </trkpt>
      <trkpt lat="49.2585" lon="1.03538">
        <ele>37</ele>
        <time>2016-07-10T08:08:30.000Z</time>
      </trkpt>
      <trkpt lat="49.25852" lon="1.0355">
        <ele>37</ele>
        <time>2016-07-10T08:08:31.000Z</time>
      </trkpt>
      <trkpt lat="49.25854" lon="1.03562">
        <ele>37</ele>
        <time>2016-07-10T08:08:32.000Z</time>
      </trkpt>
      <trkpt lat="49.25856" lon="1.03574">
        <ele>37</ele>
        <time>2016-07-10T08:08:33.000Z</time>
      </trkpt>
      <trkpt lat="49.25858" lon="1.03586">
        <ele>37</ele>
        <time>2016-07-10T08:08:34.000Z</time>
      </trkpt>
      <trkpt lat="49.2586" lon="1.03598">
        <ele>37</ele>
        <time>2016-07-10T08:08:35.000Z</time>
      </trkpt>
      <trkpt lat="49.25862" lon="1.0361">
        <ele>36</ele>
        <time>2016-07-10T08:08:36.000Z</time>
      </trkpt>
      <trkpt lat="49.25865" lon="1.03622">
        <ele>36</ele>
        <time>2016-07-10T08:08:37.000Z</time>
      </trkpt>
      <trkpt lat="49.25867" lon="1.03635">
        <ele>36</ele>
        <time>2016-07-10T08:08:38.000Z</time>
      </trkpt>
      <trkpt lat="49.25869" lon="1.03647">
        <ele>36</ele>
        <time>2016-07-10T08:08:39.000Z</time>
      </trkpt>
      <trkpt lat="49.25871" lon="1.03659">
        <ele>36</ele>
        <time>2016-07-10T08:08:40.000Z</time>
      </trkpt>
      <trkpt lat="49.25873" lon="1.03672">
        <ele>36</ele>
        <time>2016-07-10T08:08:41.000Z</time>
      </trkpt>
      <trkpt lat="49.25876" lon="1.03684">
        <ele>36</ele>
        <time>2016-07-10T08:08:42.000Z</time>
      </trkpt>
      <trkpt lat="49.25878" lon="1.03697">
        <ele>36</ele>
        <time>2016-07-10T08:08:43.000Z</time>
      </trkpt>
      <trkpt lat="49.2588" lon="1.03709">
        <ele>36</ele>
        <time>2016-07-10T08:08:44.000Z</time>
      </trkpt>
      <trkpt lat="49.25882" lon="1.03722">
        <ele>36</ele>
        <time>2016-07-10T08:08:45.000Z</time>
      </trkpt>
      <trkpt lat="49.25884" lon="1.03734">
        <ele>36</ele>
        <time>2016-07-10T08:08:46.000Z</time>
      </trkpt>
      <trkpt lat="49.25886" lon="1.03747">
        <ele>36</ele>
        <time>2016-07-10T08:08:47.000Z</time>
      </trkpt>
      <trkpt lat="49.25888" lon="1.0376">
        <ele>36</ele>
        <time>2016-07-10T08:08:48.000Z</time>
      </trkpt>
      <trkpt lat="49.2589" lon="1.03773">
        <ele>36</ele>
        <time>2016-07-10T08:08:49.000Z</time>
      </trkpt>
      <trkpt lat="49.25891" lon="1.03786">
        <ele>36</ele>
        <time>2016-07-10T08:08:50.000Z</time>
      </trkpt>
      <trkpt lat="49.25893" lon="1.038">
        <ele>36</ele>
        <time>2016-07-10T08:08:51.000Z</time>
      </trkpt>
      <trkpt lat="49.25894" lon="1.03813">
        <ele>36</ele>
        <time>2016-07-10T08:08:52.000Z</time>
      </trkpt>
      <trkpt lat="49.25896" lon="1.03826">
        <ele>36</ele>
        <time>2016-07-10T08:08:53.000Z</time>
      </trkpt>
      <trkpt lat="49.25897" lon="1.03839">
        <ele>35</ele>
        <time>2016-07-10T08:08:54.000Z</time>
      </trkpt>
      <trkpt lat="49.25898" lon="1.03851">
        <ele>35</ele>
        <time>2016-07-10T08:08:55.000Z</time>
      </trkpt>
      <trkpt lat="49.259" lon="1.03864">
        <ele>35</ele>
        <time>2016-07-10T08:08:56.000Z</time>
      </trkpt>
      <trkpt lat="49.25902" lon="1.03876">
        <ele>35</ele>
        <time>2016-07-10T08:08:57.000Z</time>
      </trkpt>
      <trkpt lat="49.25905" lon="1.03889">
        <ele>35</ele>
        <time>2016-07-10T08:08:58.000Z</time>
      </trkpt>
      <trkpt lat="49.25908" lon="1.039">
        <ele>35</ele>
        <time>2016-07-10T08:08:59.000Z</time>
      </trkpt>
      <trkpt lat="49.25912" lon="1.03912">
        <ele>34</ele>
        <time>2016-07-10T08:09:00.000Z</time>
      </trkpt>
      <trkpt lat="49.25916" lon="1.03923">
        <ele>34</ele>
        <time>2016-07-10T08:09:01.000Z</time>
      </trkpt>
      <trkpt lat="49.25921" lon="1.03934">
        <ele>34</ele>
        <time>2016-07-10T08:09:02.000Z</time>
      </trkpt>
      <trkpt lat="49.25926" lon="1.03945">
        <ele>34</ele>
        <time>2016-07-10T08:09:03.000Z</time>
      </trkpt>
      <trkpt lat="49.2593" lon="1.03956">
        <ele>34</ele>
        <time>2016-07-10T08:09:04.000Z</time>
      </trkpt>
      <trkpt lat="49.25936" lon="1.03966">
        <ele>34</ele>
        <time>2016-07-10T08:09:05.000Z</time>
      </trkpt>
      <trkpt lat="49.25941" lon="1.03977">
        <ele>34</ele>
        <time>2016-07-10T08:09:06.000Z</time>
      </trkpt>
      <trkpt lat="49.25946" lon="1.03987">
        <ele>34</ele>
        <time>2016-07-10T08:09:07.000Z</time>
      </trkpt>
      <trkpt lat="49.25952" lon="1.03997">
        <ele>34</ele>
        <time>2016-07-10T08:09:08.000Z</time>
      </trkpt>
      <trkpt lat="49.25957" lon="1.04008">
        <ele>34</ele>
        <time>2016-07-10T08:09:09.000Z</time>
      </trkpt>
      <trkpt lat="49.25962" lon="1.04018">
        <ele>34</ele>
        <time>2016-07-10T08:09:10.000Z</time>
      </trkpt>
      <trkpt lat="49.25968" lon="1.04028">
        <ele>34</ele>
        <time>2016-07-10T08:09:11.000Z</time>
      </trkpt>
      <trkpt lat="49.25973" lon="1.04039">
        <ele>34</ele>
        <time>2016-07-10T08:09:12.000Z</time>
      </trkpt>
      <trkpt lat="49.25979" lon="1.04049">
        <ele>34</ele>
        <time>2016-07-10T08:09:13.000Z</time>
      </trkpt>
      <trkpt lat="49.25984" lon="1.04059">
        <ele>34</ele>
        <time>2016-07-10T08:09:14.000Z</time>
      </trkpt>
      <trkpt lat="49.25989" lon="1.0407">
        <ele>34</ele>
        <time>2016-07-10T08:09:15.000Z</time>
      </trkpt>
      <trkpt lat="49.25994" lon="1.0408">
        <ele>34</ele>
        <time>2016-07-10T08:09:16.000Z</time>
      </trkpt>
      <trkpt lat="49.25999" lon="1.0409">
        <ele>34</ele>
        <time>2016-07-10T08:09:17.000Z</time>
      </trkpt>
      <trkpt lat="49.26005" lon="1.041">
        <ele>33</ele>
        <time>2016-07-10T08:09:18.000Z</time>
      </trkpt>
      <trkpt lat="49.2601" lon="1.04111">
        <ele>33</ele>
        <time>2016-07-10T08:09:19.000Z</time>
      </trkpt>
      <trkpt lat="49.26015" lon="1.04121">
        <ele>33</ele>
        <time>2016-07-10T08:09:20.000Z</time>
      </trkpt>
      <trkpt lat="49.2602" lon="1.04131">
        <ele>33</ele>
        <time>2016-07-10T08:09:21.000Z</time>
      </trkpt>
      <trkpt lat="49.26025" lon="1.04142">
        <ele>33</ele>
        <time>2016-07-10T08:09:22.000Z</time>
      </trkpt>
      <trkpt lat="49.2603" lon="1.04152">
        <ele>33</ele>
        <time>2016-07-10T08:09:23.000Z</time>
      </trkpt>
      <trkpt lat="49.26036" lon="1.04163">
        <ele>33</ele>
        <time>2016-07-10T08:09:24.000Z</time>
      </trkpt>
      <trkpt lat="49.26042" lon="1.04174">
        <ele>33</ele>
        <time>2016-07-10T08:09:25.000Z</time>
      </trkpt>
      <trkpt lat="49.26048" lon="1.04186">
        <ele>33</ele>
        <time>2016-07-10T08:09:26.000Z</time>
      </trkpt>
      <trkpt lat="49.26054" lon="1.04199">
        <ele>33</ele>
        <time>2016-07-10T08:09:27.000Z</time>
      </trkpt>
      <trkpt lat="49.2606" lon="1.04213">
        <ele>33</ele>
        <time>2016-07-10T08:09:28.000Z</time>
      </trkpt>
      <trkpt lat="49.26067" lon="1.04226">
        <ele>33</ele>
        <time>2016-07-10T08:09:29.000Z</time>
      </trkpt>
      <trkpt lat="49.26074" lon="1.0424">
        <ele>33</ele>
        <time>2016-07-10T08:09:30.000Z</time>
      </trkpt>
      <trkpt lat="49.26081" lon="1.04255">
        <ele>32</ele>
        <time>2016-07-10T08:09:31.000Z</time>
      </trkpt>
      <trkpt lat="49.26088" lon="1.04269">
        <ele>32</ele>
        <time>2016-07-10T08:09:32.000Z</time>
      </trkpt>
      <trkpt lat="49.26095" lon="1.04283">
        <ele>32</ele>
        <time>2016-07-10T08:09:33.000Z</time>
      </trkpt>
      <trkpt lat="49.26102" lon="1.04298">
        <ele>32</ele>
        <time>2016-07-10T08:09:34.000Z</time>
      </trkpt>
      <trkpt lat="49.26109" lon="1.04313">
        <ele>32</ele>
        <time>2016-07-10T08:09:35.000Z</time>
      </trkpt>
      <trkpt lat="49.26116" lon="1.04328">
        <ele>32</ele>
        <time>2016-07-10T08:09:36.000Z</time>
      </trkpt>
      <trkpt lat="49.26123" lon="1.04343">
        <ele>31</ele>
        <time>2016-07-10T08:09:37.000Z</time>
      </trkpt>
      <trkpt lat="49.2613" lon="1.04358">
        <ele>31</ele>
        <time>2016-07-10T08:09:38.000Z</time>
      </trkpt>
      <trkpt lat="49.26137" lon="1.04373">
        <ele>31</ele>
        <time>2016-07-10T08:09:39.000Z</time>
      </trkpt>
      <trkpt lat="49.26145" lon="1.04388">
        <ele>31</ele>
        <time>2016-07-10T08:09:40.000Z</time>
      </trkpt>
      <trkpt lat="49.26152" lon="1.04404">
        <ele>31</ele>
        <time>2016-07-10T08:09:41.000Z</time>
      </trkpt>
      <trkpt lat="49.26159" lon="1.04419">
        <ele>31</ele>
        <time>2016-07-10T08:09:42.000Z</time>
      </trkpt>
      <trkpt lat="49.26166" lon="1.04435">
        <ele>31</ele>
        <time>2016-07-10T08:09:43.000Z</time>
      </trkpt>
      <trkpt lat="49.26173" lon="1.0445">
        <ele>31</ele>
        <time>2016-07-10T08:09:44.000Z</time>
      </trkpt>
      <trkpt lat="49.2618" lon="1.04465">
        <ele>31</ele>
        <time>2016-07-10T08:09:45.000Z</time>
      </trkpt>
      <trkpt lat="49.26188" lon="1.04479">
        <ele>31</ele>
        <time>2016-07-10T08:09:46.000Z</time>
      </trkpt>
      <trkpt lat="49.26195" lon="1.04493">
        <ele>31</ele>
        <time>2016-07-10T08:09:47.000Z</time>
      </trkpt>
      <trkpt lat="49.26202" lon="1.04506">
        <ele>31</ele>
        <time>2016-07-10T08:09:48.000Z</time>
      </trkpt>
      <trkpt lat="49.2621" lon="1.04518">
        <ele>30</ele>
        <time>2016-07-10T08:09:49.000Z</time>
      </trkpt>
      <trkpt lat="49.26217" lon="1.0453">
        <ele>30</ele>
        <time>2016-07-10T08:09:50.000Z</time>
      </trkpt>
      <trkpt lat="49.26225" lon="1.04541">
        <ele>30</ele>
        <time>2016-07-10T08:09:51.000Z</time>
      </trkpt>
      <trkpt lat="49.26232" lon="1.04553">
        <ele>30</ele>
        <time>2016-07-10T08:09:52.000Z</time>
      </trkpt>
      <trkpt lat="49.26239" lon="1.04563">
        <ele>30</ele>
        <time>2016-07-10T08:09:53.000Z</time>
      </trkpt>
      <trkpt lat="49.26246" lon="1.04574">
        <ele>30</ele>
        <time>2016-07-10T08:09:54.000Z</time>
      </trkpt>
      <trkpt lat="49.26253" lon="1.04584">
        <ele>30</ele>
        <time>2016-07-10T08:09:55.000Z</time>
      </trkpt>
      <trkpt lat="49.2626" lon="1.04593">
        <ele>30</ele>
        <time>2016-07-10T08:09:56.000Z</time>
      </trkpt>
      <trkpt lat="49.26268" lon="1.04603">
        <ele>30</ele>
        <time>2016-07-10T08:09:57.000Z</time>
      </trkpt>
      <trkpt lat="49.26275" lon="1.04611">
        <ele>30</ele>
        <time>2016-07-10T08:09:58.000Z</time>
      </trkpt>
      <trkpt lat="49.26282" lon="1.04619">
        <ele>30</ele>
        <time>2016-07-10T08:09:59.000Z</time>
      </trkpt>
      <trkpt lat="49.2629" lon="1.04628">
        <ele>29</ele>
        <time>2016-07-10T08:10:00.000Z</time>
      </trkpt>
      <trkpt lat="49.26297" lon="1.04635">
        <ele>29</ele>
        <time>2016-07-10T08:10:01.000Z</time>
      </trkpt>
      <trkpt lat="49.26304" lon="1.04643">
        <ele>29</ele>
        <time>2016-07-10T08:10:02.000Z</time>
      </trkpt>
      <trkpt lat="49.26311" lon="1.0465">
        <ele>29</ele>
        <time>2016-07-10T08:10:03.000Z</time>
      </trkpt>
      <trkpt lat="49.26318" lon="1.04656">
        <ele>29</ele>
        <time>2016-07-10T08:10:04.000Z</time>
      </trkpt>
      <trkpt lat="49.26325" lon="1.04663">
        <ele>29</ele>
        <time>2016-07-10T08:10:05.000Z</time>
      </trkpt>
      <trkpt lat="49.26332" lon="1.0467">
        <ele>29</ele>
        <time>2016-07-10T08:10:06.000Z</time>
      </trkpt>
      <trkpt lat="49.26338" lon="1.04676">
        <ele>29</ele>
        <time>2016-07-10T08:10:07.000Z</time>
      </trkpt>
      <trkpt lat="49.26345" lon="1.04682">
        <ele>29</ele>
        <time>2016-07-10T08:10:08.000Z</time>
      </trkpt>
      <trkpt lat="49.26351" lon="1.04689">
        <ele>29</ele>
        <time>2016-07-10T08:10:09.000Z</time>
      </trkpt>
      <trkpt lat="49.26357" lon="1.04695">
        <ele>28</ele>
        <time>2016-07-10T08:10:10.000Z</time>
      </trkpt>
      <trkpt lat="49.26364" lon="1.04701">
        <ele>28</ele>
        <time>2016-07-10T08:10:11.000Z</time>
      </trkpt>
      <trkpt lat="49.2637" lon="1.04708">
        <ele>28</ele>
        <time>2016-07-10T08:10:12.000Z</time>
      </trkpt>
      <trkpt lat="49.26376" lon="1.04714">
        <ele>28</ele>
        <time>2016-07-10T08:10:13.000Z</time>
      </trkpt>
      <trkpt lat="49.26376" lon="1.04714">
        <ele>29</ele>
        <time>2016-07-10T08:10:23.000Z</time>
      </trkpt>
      <trkpt lat="49.26376" lon="1.04714">
        <ele>29</ele>
        <time>2016-07-10T08:10:24.000Z</time>
      </trkpt>
      <trkpt lat="49.26402" lon="1.04736">
        <ele>29</ele>
        <time>2016-07-10T08:10:25.000Z</time>
      </trkpt>
      <trkpt lat="49.26428" lon="1.04757">
        <ele>30</ele>
        <time>2016-07-10T08:10:26.000Z</time>
      </trkpt>
      <trkpt lat="49.26453" lon="1.04778">
        <ele>30</ele>
        <time>2016-07-10T08:10:27.000Z</time>
      </trkpt>
      <trkpt lat="49.26458" lon="1.04784">
        <ele>30</ele>
        <time>2016-07-10T08:10:28.000Z</time>
      </trkpt>
      <trkpt lat="49.26463" lon="1.04789">
        <ele>30</ele>
        <time>2016-07-10T08:10:29.000Z</time>
      </trkpt>
      <trkpt lat="49.26468" lon="1.04794">
        <ele>30</ele>
        <time>2016-07-10T08:10:30.000Z</time>
      </trkpt>
      <trkpt lat="49.26473" lon="1.04799">
        <ele>31</ele>
        <time>2016-07-10T08:10:31.000Z</time>
      </trkpt>
      <trkpt lat="49.26478" lon="1.04803">
        <ele>31</ele>
        <time>2016-07-10T08:10:32.000Z</time>
      </trkpt>
      <trkpt lat="49.26483" lon="1.04808">
        <ele>31</ele>
        <time>2016-07-10T08:10:33.000Z</time>
      </trkpt>
      <trkpt lat="49.26486" lon="1.04814">
        <ele>31</ele>
        <time>2016-07-10T08:10:34.000Z</time>
      </trkpt>
      <trkpt lat="49.26489" lon="1.0482">
        <ele>30</ele>
        <time>2016-07-10T08:10:35.000Z</time>
      </trkpt>
      <trkpt lat="49.26492" lon="1.04825">
        <ele>30</ele>
        <time>2016-07-10T08:10:36.000Z</time>
      </trkpt>
      <trkpt lat="49.26495" lon="1.0483">
        <ele>30</ele>
        <time>2016-07-10T08:10:37.000Z</time>
      </trkpt>
      <trkpt lat="49.26498" lon="1.04834">
        <ele>30</ele>
        <time>2016-07-10T08:10:38.000Z</time>
      </trkpt>
      <trkpt lat="49.26501" lon="1.04839">
        <ele>30</ele>
        <time>2016-07-10T08:10:39.000Z</time>
      </trkpt>
      <trkpt lat="49.26504" lon="1.04843">
        <ele>30</ele>
        <time>2016-07-10T08:10:40.000Z</time>
      </trkpt>
      <trkpt lat="49.26507" lon="1.04847">
        <ele>30</ele>
        <time>2016-07-10T08:10:41.000Z</time>
      </trkpt>
      <trkpt lat="49.26511" lon="1.04851">
        <ele>30</ele>
        <time>2016-07-10T08:10:42.000Z</time>
      </trkpt>
      <trkpt lat="49.26514" lon="1.04855">
        <ele>30</ele>
        <time>2016-07-10T08:10:43.000Z</time>
      </trkpt>
      <trkpt lat="49.26518" lon="1.04859">
        <ele>29</ele>
        <time>2016-07-10T08:10:44.000Z</time>
      </trkpt>
      <trkpt lat="49.26522" lon="1.04863">
        <ele>30</ele>
        <time>2016-07-10T08:10:45.000Z</time>
      </trkpt>
      <trkpt lat="49.26526" lon="1.04868">
        <ele>30</ele>
        <time>2016-07-10T08:10:46.000Z</time>
      </trkpt>
      <trkpt lat="49.26531" lon="1.04873">
        <ele>30</ele>
        <time>2016-07-10T08:10:47.000Z</time>
      </trkpt>
      <trkpt lat="49.26537" lon="1.04878">
        <ele>30</ele>
        <time>2016-07-10T08:10:48.000Z</time>
      </trkpt>
      <trkpt lat="49.26542" lon="1.04882">
        <ele>31</ele>
        <time>2016-07-10T08:10:49.000Z</time>
      </trkpt>
      <trkpt lat="49.26548" lon="1.04887">
        <ele>31</ele>
        <time>2016-07-10T08:10:50.000Z</time>
      </trkpt>
      <trkpt lat="49.26554" lon="1.04892">
        <ele>31</ele>
        <time>2016-07-10T08:10:51.000Z</time>
      </trkpt>
      <trkpt lat="49.2656" lon="1.04896">
        <ele>32</ele>
        <time>2016-07-10T08:10:52.000Z</time>
      </trkpt>
      <trkpt lat="49.26566" lon="1.04901">
        <ele>32</ele>
        <time>2016-07-10T08:10:53.000Z</time>
      </trkpt>
      <trkpt lat="49.26572" lon="1.04906">
        <ele>32</ele>
        <time>2016-07-10T08:10:54.000Z</time>
      </trkpt>
      <trkpt lat="49.26577" lon="1.04912">
        <ele>32</ele>
        <time>2016-07-10T08:10:55.000Z</time>
      </trkpt>
      <trkpt lat="49.26582" lon="1.04921">
        <ele>32</ele>
        <time>2016-07-10T08:10:56.000Z</time>
      </trkpt>
      <trkpt lat="49.26586" lon="1.04932">
        <ele>32</ele>
        <time>2016-07-10T08:10:57.000Z</time>
      </trkpt>
      <trkpt lat="49.26589" lon="1.04942">
        <ele>33</ele>
        <time>2016-07-10T08:10:58.000Z</time>
      </trkpt>
      <trkpt lat="49.26593" lon="1.04951">
        <ele>34</ele>
        <time>2016-07-10T08:10:59.000Z</time>
      </trkpt>
      <trkpt lat="49.26596" lon="1.04959">
        <ele>33</ele>
        <time>2016-07-10T08:11:00.000Z</time>
      </trkpt>
      <trkpt lat="49.26598" lon="1.04967">
        <ele>32</ele>
        <time>2016-07-10T08:11:01.000Z</time>
      </trkpt>
      <trkpt lat="49.26597" lon="1.04976">
        <ele>32</ele>
        <time>2016-07-10T08:11:02.000Z</time>
      </trkpt>
      <trkpt lat="49.26595" lon="1.04985">
        <ele>30</ele>
        <time>2016-07-10T08:11:03.000Z</time>
      </trkpt>
      <trkpt lat="49.26593" lon="1.04994">
        <ele>31</ele>
        <time>2016-07-10T08:11:04.000Z</time>
      </trkpt>
      <trkpt lat="49.26591" lon="1.05003">
        <ele>32</ele>
        <time>2016-07-10T08:11:05.000Z</time>
      </trkpt>
      <trkpt lat="49.26589" lon="1.05011">
        <ele>33</ele>
        <time>2016-07-10T08:11:06.000Z</time>
      </trkpt>
      <trkpt lat="49.26586" lon="1.0502">
        <ele>34</ele>
        <time>2016-07-10T08:11:07.000Z</time>
      </trkpt>
      <trkpt lat="49.26583" lon="1.05028">
        <ele>34</ele>
        <time>2016-07-10T08:11:08.000Z</time>
      </trkpt>
      <trkpt lat="49.26581" lon="1.05036">
        <ele>35</ele>
        <time>2016-07-10T08:11:09.000Z</time>
      </trkpt>
      <trkpt lat="49.26578" lon="1.05043">
        <ele>35</ele>
        <time>2016-07-10T08:11:10.000Z</time>
      </trkpt>
      <trkpt lat="49.26576" lon="1.05049">
        <ele>34</ele>
        <time>2016-07-10T08:11:11.000Z</time>
      </trkpt>
      <trkpt lat="49.26574" lon="1.05055">
        <ele>36</ele>
        <time>2016-07-10T08:11:12.000Z</time>
      </trkpt>
      <trkpt lat="49.26573" lon="1.05061">
        <ele>36</ele>
        <time>2016-07-10T08:11:13.000Z</time>
      </trkpt>
      <trkpt lat="49.26572" lon="1.05065">
        <ele>36</ele>
        <time>2016-07-10T08:11:14.000Z</time>
      </trkpt>
      <trkpt lat="49.26571" lon="1.0507">
        <ele>36</ele>
        <time>2016-07-10T08:11:15.000Z</time>
      </trkpt>
      <trkpt lat="49.26569" lon="1.05075">
        <ele>36</ele>
        <time>2016-07-10T08:11:16.000Z</time>
      </trkpt>
      <trkpt lat="49.26568" lon="1.05079">
        <ele>36</ele>
        <time>2016-07-10T08:11:17.000Z</time>
      </trkpt>
      <trkpt lat="49.26567" lon="1.05083">
        <ele>36</ele>
        <time>2016-07-10T08:11:18.000Z</time>
      </trkpt>
      <trkpt lat="49.26566" lon="1.05087">
        <ele>36</ele>
        <time>2016-07-10T08:11:19.000Z</time>
      </trkpt>
      <trkpt lat="49.26565" lon="1.0509">
        <ele>36</ele>
        <time>2016-07-10T08:11:20.000Z</time>
      </trkpt>
      <trkpt lat="49.26564" lon="1.05093">
        <ele>37</ele>
        <time>2016-07-10T08:11:21.000Z</time>
      </trkpt>
      <trkpt lat="49.26562" lon="1.05096">
        <ele>37</ele>
        <time>2016-07-10T08:11:22.000Z</time>
      </trkpt>
      <trkpt lat="49.26561" lon="1.05099">
        <ele>37</ele>
        <time>2016-07-10T08:11:23.000Z</time>
      </trkpt>
      <trkpt lat="49.26559" lon="1.05101">
        <ele>36</ele>
        <time>2016-07-10T08:11:24.000Z</time>
      </trkpt>
      <trkpt lat="49.26558" lon="1.05103">
        <ele>36</ele>
        <time>2016-07-10T08:11:25.000Z</time>
      </trkpt>
      <trkpt lat="49.26556" lon="1.05104">
        <ele>36</ele>
        <time>2016-07-10T08:11:26.000Z</time>
      </trkpt>
      <trkpt lat="49.26555" lon="1.05105">
        <ele>37</ele>
        <time>2016-07-10T08:11:27.000Z</time>
      </trkpt>
      <trkpt lat="49.26554" lon="1.05106">
        <ele>37</ele>
        <time>2016-07-10T08:11:28.000Z</time>
      </trkpt>
      <trkpt lat="49.26553" lon="1.05107">
        <ele>37</ele>
        <time>2016-07-10T08:11:29.000Z</time>
      </trkpt>
      <trkpt lat="49.26553" lon="1.05108">
        <ele>37</ele>
        <time>2016-07-10T08:11:30.000Z</time>
      </trkpt>
      <trkpt lat="49.26553" lon="1.05108">
        <ele>37</ele>
        <time>2016-07-10T08:11:31.000Z</time>
      </trkpt>
      <trkpt lat="49.26553" lon="1.05108">
        <ele>37</ele>
        <time>2016-07-10T08:11:32.000Z</time>
      </trkpt>
      <trkpt lat="49.26553" lon="1.05108">
        <ele>39</ele>
        <time>2016-07-10T08:11:33.000Z</time>
      </trkpt>
      <trkpt lat="49.26553" lon="1.05107">
        <ele>38</ele>
        <time>2016-07-10T08:11:34.000Z</time>
      </trkpt>
      <trkpt lat="49.26553" lon="1.05107">
        <ele>39</ele>
        <time>2016-07-10T08:11:35.000Z</time>
      </trkpt>
      <trkpt lat="49.26553" lon="1.05107">
        <ele>39</ele>
        <time>2016-07-10T08:11:36.000Z</time>
      </trkpt>
      <trkpt lat="49.26553" lon="1.05107">
        <ele>39</ele>
        <time>2016-07-10T08:11:37.000Z</time>
      </trkpt>
      <trkpt lat="49.26553" lon="1.05108">
        <ele>39</ele>
        <time>2016-07-10T08:11:38.000Z</time>
      </trkpt>
      <trkpt lat="49.26552" lon="1.05109">
        <ele>40</ele>
        <time>2016-07-10T08:11:39.000Z</time>
      </trkpt>
      <trkpt lat="49.26552" lon="1.0511">
        <ele>40</ele>
        <time>2016-07-10T08:11:40.000Z</time>
      </trkpt>
      <trkpt lat="49.26552" lon="1.05111">
        <ele>40</ele>
        <time>2016-07-10T08:11:41.000Z</time>
      </trkpt>
      <trkpt lat="49.26552" lon="1.05111">
        <ele>41</ele>
        <time>2016-07-10T08:11:42.000Z</time>
      </trkpt>
      <trkpt lat="49.26552" lon="1.0511">
        <ele>40</ele>
        <time>2016-07-10T08:11:43.000Z</time>
      </trkpt>
      <trkpt lat="49.26552" lon="1.05111">
        <ele>41</ele>
        <time>2016-07-10T08:11:44.000Z</time>
      </trkpt>
      <trkpt lat="49.26552" lon="1.05112">
        <ele>41</ele>
        <time>2016-07-10T08:11:45.000Z</time>
      </trkpt>
      <trkpt lat="49.26552" lon="1.05113">
        <ele>42</ele>
        <time>2016-07-10T08:11:46.000Z</time>
      </trkpt>
      <trkpt lat="49.26551" lon="1.05116">
        <ele>40</ele>
        <time>2016-07-10T08:11:47.000Z</time>
      </trkpt>
      <trkpt lat="49.26549" lon="1.05118">
        <ele>37</ele>
        <time>2016-07-10T08:11:48.000Z</time>
      </trkpt>
      <trkpt lat="49.26546" lon="1.05121">
        <ele>36</ele>
        <time>2016-07-10T08:11:49.000Z</time>
      </trkpt>
      <trkpt lat="49.26543" lon="1.05124">
        <ele>36</ele>
        <time>2016-07-10T08:11:50.000Z</time>
      </trkpt>
      <trkpt lat="49.2654" lon="1.05127">
        <ele>35</ele>
        <time>2016-07-10T08:11:51.000Z</time>
      </trkpt>
      <trkpt lat="49.26537" lon="1.0513">
        <ele>35</ele>
        <time>2016-07-10T08:11:52.000Z</time>
      </trkpt>
      <trkpt lat="49.26534" lon="1.05133">
        <ele>35</ele>
        <time>2016-07-10T08:11:53.000Z</time>
      </trkpt>
      <trkpt lat="49.26532" lon="1.05135">
        <ele>35</ele>
        <time>2016-07-10T08:11:54.000Z</time>
      </trkpt>
      <trkpt lat="49.26529" lon="1.05136">
        <ele>35</ele>
        <time>2016-07-10T08:11:55.000Z</time>
      </trkpt>
      <trkpt lat="49.26527" lon="1.05138">
        <ele>35</ele>
        <time>2016-07-10T08:11:56.000Z</time>
      </trkpt>
      <trkpt lat="49.26525" lon="1.05139">
        <ele>35</ele>
        <time>2016-07-10T08:11:57.000Z</time>
      </trkpt>
      <trkpt lat="49.26523" lon="1.0514">
        <ele>35</ele>
        <time>2016-07-10T08:11:58.000Z</time>
      </trkpt>
      <trkpt lat="49.26521" lon="1.05141">
        <ele>36</ele>
        <time>2016-07-10T08:11:59.000Z</time>
      </trkpt>
      <trkpt lat="49.26519" lon="1.05142">
        <ele>36</ele>
        <time>2016-07-10T08:12:00.000Z</time>
      </trkpt>
      <trkpt lat="49.26517" lon="1.05144">
        <ele>36</ele>
        <time>2016-07-10T08:12:01.000Z</time>
      </trkpt>
      <trkpt lat="49.26515" lon="1.05146">
        <ele>36</ele>
        <time>2016-07-10T08:12:02.000Z</time>
      </trkpt>
      <trkpt lat="49.26512" lon="1.05148">
        <ele>36</ele>
        <time>2016-07-10T08:12:03.000Z</time>
      </trkpt>
      <trkpt lat="49.26511" lon="1.0515">
        <ele>35</ele>
        <time>2016-07-10T08:12:04.000Z</time>
      </trkpt>
      <trkpt lat="49.2651" lon="1.05153">
        <ele>34</ele>
        <time>2016-07-10T08:12:05.000Z</time>
      </trkpt>
      <trkpt lat="49.26511" lon="1.05157">
        <ele>35</ele>
        <time>2016-07-10T08:12:06.000Z</time>
      </trkpt>
      <trkpt lat="49.26511" lon="1.0516">
        <ele>35</ele>
        <time>2016-07-10T08:12:07.000Z</time>
      </trkpt>
      <trkpt lat="49.26511" lon="1.05163">
        <ele>35</ele>
        <time>2016-07-10T08:12:08.000Z</time>
      </trkpt>
      <trkpt lat="49.26511" lon="1.05166">
        <ele>35</ele>
        <time>2016-07-10T08:12:09.000Z</time>
      </trkpt>
      <trkpt lat="49.2651" lon="1.05168">
        <ele>35</ele>
        <time>2016-07-10T08:12:10.000Z</time>
      </trkpt>
      <trkpt lat="49.26509" lon="1.05169">
        <ele>35</ele>
        <time>2016-07-10T08:12:11.000Z</time>
      </trkpt>
      <trkpt lat="49.26508" lon="1.05171">
        <ele>35</ele>
        <time>2016-07-10T08:12:12.000Z</time>
      </trkpt>
      <trkpt lat="49.26507" lon="1.05172">
        <ele>35</ele>
        <time>2016-07-10T08:12:13.000Z</time>
      </trkpt>
      <trkpt lat="49.26506" lon="1.05174">
        <ele>35</ele>
        <time>2016-07-10T08:12:14.000Z</time>
      </trkpt>
      <trkpt lat="49.26505" lon="1.05175">
        <ele>35</ele>
        <time>2016-07-10T08:12:15.000Z</time>
      </trkpt>
      <trkpt lat="49.26504" lon="1.05177">
        <ele>35</ele>
        <time>2016-07-10T08:12:16.000Z</time>
      </trkpt>
      <trkpt lat="49.26504" lon="1.05179">
        <ele>35</ele>
        <time>2016-07-10T08:12:17.000Z</time>
      </trkpt>
      <trkpt lat="49.26503" lon="1.05181">
        <ele>35</ele>
        <time>2016-07-10T08:12:18.000Z</time>
      </trkpt>
      <trkpt lat="49.26502" lon="1.05183">
        <ele>34</ele>
        <time>2016-07-10T08:12:19.000Z</time>
      </trkpt>
      <trkpt lat="49.26502" lon="1.05187">
        <ele>32</ele>
        <time>2016-07-10T08:12:20.000Z</time>
      </trkpt>
      <trkpt lat="49.26501" lon="1.05191">
        <ele>32</ele>
        <time>2016-07-10T08:12:21.000Z</time>
      </trkpt>
      <trkpt lat="49.26501" lon="1.05196">
        <ele>31</ele>
        <time>2016-07-10T08:12:22.000Z</time>
      </trkpt>
      <trkpt lat="49.26501" lon="1.05203">
        <ele>28</ele>
        <time>2016-07-10T08:12:23.000Z</time>
      </trkpt>
      <trkpt lat="49.26502" lon="1.05211">
        <ele>28</ele>
        <time>2016-07-10T08:12:24.000Z</time>
      </trkpt>
      <trkpt lat="49.26502" lon="1.05221">
        <ele>26</ele>
        <time>2016-07-10T08:12:25.000Z</time>
      </trkpt>
      <trkpt lat="49.26502" lon="1.0523">
        <ele>26</ele>
        <time>2016-07-10T08:12:26.000Z</time>
      </trkpt>
      <trkpt lat="49.26501" lon="1.05241">
        <ele>25</ele>
        <time>2016-07-10T08:12:27.000Z</time>
      </trkpt>
      <trkpt lat="49.265" lon="1.05251">
        <ele>24</ele>
        <time>2016-07-10T08:12:28.000Z</time>
      </trkpt>
      <trkpt lat="49.265" lon="1.05262">
        <ele>24</ele>
        <time>2016-07-10T08:12:29.000Z</time>
      </trkpt>
      <trkpt lat="49.26499" lon="1.05273">
        <ele>25</ele>
        <time>2016-07-10T08:12:30.000Z</time>
      </trkpt>
      <trkpt lat="49.26499" lon="1.05284">
        <ele>25</ele>
        <time>2016-07-10T08:12:31.000Z</time>
      </trkpt>
      <trkpt lat="49.26499" lon="1.05295">
        <ele>25</ele>
        <time>2016-07-10T08:12:32.000Z</time>
      </trkpt>
      <trkpt lat="49.26498" lon="1.05305">
        <ele>25</ele>
        <time>2016-07-10T08:12:33.000Z</time>
      </trkpt>
      <trkpt lat="49.26498" lon="1.05313">
        <ele>24</ele>
        <time>2016-07-10T08:12:34.000Z</time>
      </trkpt>
      <trkpt lat="49.26498" lon="1.05319">
        <ele>26</ele>
        <time>2016-07-10T08:12:35.000Z</time>
      </trkpt>
      <trkpt lat="49.26498" lon="1.05325">
        <ele>28</ele>
        <time>2016-07-10T08:12:36.000Z</time>
      </trkpt>
      <trkpt lat="49.26499" lon="1.05331">
        <ele>29</ele>
        <time>2016-07-10T08:12:37.000Z</time>
      </trkpt>
      <trkpt lat="49.26499" lon="1.05337">
        <ele>30</ele>
        <time>2016-07-10T08:12:38.000Z</time>
      </trkpt>
      <trkpt lat="49.265" lon="1.05344">
        <ele>30</ele>
        <time>2016-07-10T08:12:39.000Z</time>
      </trkpt>
      <trkpt lat="49.265" lon="1.0535">
        <ele>30</ele>
        <time>2016-07-10T08:12:40.000Z</time>
      </trkpt>
      <trkpt lat="49.265" lon="1.05356">
        <ele>31</ele>
        <time>2016-07-10T08:12:41.000Z</time>
      </trkpt>
      <trkpt lat="49.26499" lon="1.05362">
        <ele>31</ele>
        <time>2016-07-10T08:12:42.000Z</time>
      </trkpt>
      <trkpt lat="49.26499" lon="1.05368">
        <ele>32</ele>
        <time>2016-07-10T08:12:43.000Z</time>
      </trkpt>
      <trkpt lat="49.26499" lon="1.05373">
        <ele>32</ele>
        <time>2016-07-10T08:12:44.000Z</time>
      </trkpt>
      <trkpt lat="49.26499" lon="1.05376">
        <ele>32</ele>
        <time>2016-07-10T08:12:45.000Z</time>
      </trkpt>
      <trkpt lat="49.265" lon="1.05379">
        <ele>33</ele>
        <time>2016-07-10T08:12:46.000Z</time>
      </trkpt>
      <trkpt lat="49.26501" lon="1.05381">
        <ele>33</ele>
        <time>2016-07-10T08:12:47.000Z</time>
      </trkpt>
      <trkpt lat="49.26501" lon="1.05383">
        <ele>33</ele>
        <time>2016-07-10T08:12:48.000Z</time>
      </trkpt>
      <trkpt lat="49.26502" lon="1.05386">
        <ele>33</ele>
        <time>2016-07-10T08:12:49.000Z</time>
      </trkpt>
      <trkpt lat="49.26504" lon="1.05388">
        <ele>33</ele>
        <time>2016-07-10T08:12:50.000Z</time>
      </trkpt>
      <trkpt lat="49.26506" lon="1.0539">
        <ele>33</ele>
        <time>2016-07-10T08:12:51.000Z</time>
      </trkpt>
      <trkpt lat="49.26508" lon="1.05393">
        <ele>33</ele>
        <time>2016-07-10T08:12:52.000Z</time>
      </trkpt>
      <trkpt lat="49.26511" lon="1.05395">
        <ele>33</ele>
        <time>2016-07-10T08:12:53.000Z</time>
      </trkpt>
      <trkpt lat="49.26514" lon="1.05396">
        <ele>33</ele>
        <time>2016-07-10T08:12:54.000Z</time>
      </trkpt>
      <trkpt lat="49.26517" lon="1.05398">
        <ele>33</ele>
        <time>2016-07-10T08:12:55.000Z</time>
      </trkpt>
      <trkpt lat="49.2652" lon="1.05399">
        <ele>33</ele>
        <time>2016-07-10T08:12:56.000Z</time>
      </trkpt>
      <trkpt lat="49.26523" lon="1.05401">
        <ele>33</ele>
        <time>2016-07-10T08:12:57.000Z</time>
      </trkpt>
      <trkpt lat="49.26527" lon="1.05403">
        <ele>33</ele>
        <time>2016-07-10T08:12:58.000Z</time>
      </trkpt>
      <trkpt lat="49.2653" lon="1.05405">
        <ele>33</ele>
        <time>2016-07-10T08:12:59.000Z</time>
      </trkpt>
      <trkpt lat="49.26533" lon="1.05408">
        <ele>33</ele>
        <time>2016-07-10T08:13:00.000Z</time>
      </trkpt>
      <trkpt lat="49.26537" lon="1.0541">
        <ele>34</ele>
        <time>2016-07-10T08:13:01.000Z</time>
      </trkpt>
      <trkpt lat="49.26541" lon="1.05412">
        <ele>34</ele>
        <time>2016-07-10T08:13:02.000Z</time>
      </trkpt>
      <trkpt lat="49.26545" lon="1.05415">
        <ele>34</ele>
        <time>2016-07-10T08:13:03.000Z</time>
      </trkpt>
      <trkpt lat="49.2655" lon="1.05417">
        <ele>34</ele>
        <time>2016-07-10T08:13:04.000Z</time>
      </trkpt>
      <trkpt lat="49.26554" lon="1.0542">
        <ele>34</ele>
        <time>2016-07-10T08:13:05.000Z</time>
      </trkpt>
      <trkpt lat="49.26558" lon="1.05423">
        <ele>34</ele>
        <time>2016-07-10T08:13:06.000Z</time>
      </trkpt>
      <trkpt lat="49.26562" lon="1.05427">
        <ele>34</ele>
        <time>2016-07-10T08:13:07.000Z</time>
      </trkpt>
      <trkpt lat="49.26566" lon="1.0543">
        <ele>34</ele>
        <time>2016-07-10T08:13:08.000Z</time>
      </trkpt>
      <trkpt lat="49.2657" lon="1.05433">
        <ele>33</ele>
        <time>2016-07-10T08:13:09.000Z</time>
      </trkpt>
      <trkpt lat="49.26574" lon="1.05435">
        <ele>33</ele>
        <time>2016-07-10T08:13:10.000Z</time>
      </trkpt>
      <trkpt lat="49.26577" lon="1.05438">
        <ele>33</ele>
        <time>2016-07-10T08:13:11.000Z</time>
      </trkpt>
      <trkpt lat="49.26581" lon="1.05441">
        <ele>33</ele>
        <time>2016-07-10T08:13:12.000Z</time>
      </trkpt>
      <trkpt lat="49.26585" lon="1.05444">
        <ele>33</ele>
        <time>2016-07-10T08:13:13.000Z</time>
      </trkpt>
      <trkpt lat="49.26589" lon="1.05446">
        <ele>33</ele>
        <time>2016-07-10T08:13:14.000Z</time>
      </trkpt>
      <trkpt lat="49.26593" lon="1.05448">
        <ele>33</ele>
        <time>2016-07-10T08:13:15.000Z</time>
      </trkpt>
      <trkpt lat="49.26597" lon="1.05449">
        <ele>32</ele>
        <time>2016-07-10T08:13:16.000Z</time>
      </trkpt>
      <trkpt lat="49.26601" lon="1.0545">
        <ele>32</ele>
        <time>2016-07-10T08:13:17.000Z</time>
      </trkpt>
      <trkpt lat="49.26606" lon="1.05451">
        <ele>31</ele>
        <time>2016-07-10T08:13:18.000Z</time>
      </trkpt>
      <trkpt lat="49.2661" lon="1.05451">
        <ele>31</ele>
        <time>2016-07-10T08:13:19.000Z</time>
      </trkpt>
      <trkpt lat="49.26614" lon="1.05452">
        <ele>31</ele>
        <time>2016-07-10T08:13:20.000Z</time>
      </trkpt>
      <trkpt lat="49.26619" lon="1.05452">
        <ele>31</ele>
        <time>2016-07-10T08:13:21.000Z</time>
      </trkpt>
      <trkpt lat="49.26624" lon="1.05451">
        <ele>31</ele>
        <time>2016-07-10T08:13:22.000Z</time>
      </trkpt>
      <trkpt lat="49.26629" lon="1.05451">
        <ele>32</ele>
        <time>2016-07-10T08:13:23.000Z</time>
      </trkpt>
      <trkpt lat="49.26633" lon="1.05451">
        <ele>31</ele>
        <time>2016-07-10T08:13:24.000Z</time>
      </trkpt>
      <trkpt lat="49.26638" lon="1.05451">
        <ele>32</ele>
        <time>2016-07-10T08:13:25.000Z</time>
      </trkpt>
      <trkpt lat="49.26643" lon="1.05451">
        <ele>31</ele>
        <time>2016-07-10T08:13:26.000Z</time>
      </trkpt>
      <trkpt lat="49.26648" lon="1.05451">
        <ele>31</ele>
        <time>2016-07-10T08:13:27.000Z</time>
      </trkpt>
      <trkpt lat="49.26653" lon="1.05451">
        <ele>31</ele>
        <time>2016-07-10T08:13:28.000Z</time>
      </trkpt>
      <trkpt lat="49.26657" lon="1.05451">
        <ele>31</ele>
        <time>2016-07-10T08:13:29.000Z</time>
      </trkpt>
      <trkpt lat="49.26662" lon="1.05451">
        <ele>31</ele>
        <time>2016-07-10T08:13:30.000Z</time>
      </trkpt>
      <trkpt lat="49.26667" lon="1.05451">
        <ele>31</ele>
        <time>2016-07-10T08:13:31.000Z</time>
      </trkpt>
      <trkpt lat="49.26672" lon="1.05451">
        <ele>31</ele>
        <time>2016-07-10T08:13:32.000Z</time>
      </trkpt>
      <trkpt lat="49.26677" lon="1.05451">
        <ele>31</ele>
        <time>2016-07-10T08:13:33.000Z</time>
      </trkpt>
      <trkpt lat="49.26683" lon="1.05451">
        <ele>32</ele>
        <time>2016-07-10T08:13:34.000Z</time>
      </trkpt>
      <trkpt lat="49.26687" lon="1.0545">
        <ele>32</ele>
        <time>2016-07-10T08:13:35.000Z</time>
      </trkpt>
      <trkpt lat="49.26692" lon="1.0545">
        <ele>32</ele>
        <time>2016-07-10T08:13:36.000Z</time>
      </trkpt>
      <trkpt lat="49.26697" lon="1.05449">
        <ele>32</ele>
        <time>2016-07-10T08:13:37.000Z</time>
      </trkpt>
      <trkpt lat="49.26701" lon="1.05448">
        <ele>32</ele>
        <time>2016-07-10T08:13:38.000Z</time>
      </trkpt>
      <trkpt lat="49.26706" lon="1.05447">
        <ele>33</ele>
        <time>2016-07-10T08:13:39.000Z</time>
      </trkpt>
      <trkpt lat="49.26711" lon="1.05445">
        <ele>33</ele>
        <time>2016-07-10T08:13:40.000Z</time>
      </trkpt>
      <trkpt lat="49.26715" lon="1.05443">
        <ele>33</ele>
        <time>2016-07-10T08:13:41.000Z</time>
      </trkpt>
      <trkpt lat="49.26719" lon="1.05441">
        <ele>33</ele>
        <time>2016-07-10T08:13:42.000Z</time>
      </trkpt>
      <trkpt lat="49.26723" lon="1.05439">
        <ele>33</ele>
        <time>2016-07-10T08:13:43.000Z</time>
      </trkpt>
      <trkpt lat="49.26727" lon="1.05437">
        <ele>33</ele>
        <time>2016-07-10T08:13:44.000Z</time>
      </trkpt>
      <trkpt lat="49.26731" lon="1.05435">
        <ele>33</ele>
        <time>2016-07-10T08:13:45.000Z</time>
      </trkpt>
      <trkpt lat="49.26735" lon="1.05433">
        <ele>34</ele>
        <time>2016-07-10T08:13:46.000Z</time>
      </trkpt>
      <trkpt lat="49.26739" lon="1.05431">
        <ele>33</ele>
        <time>2016-07-10T08:13:47.000Z</time>
      </trkpt>
      <trkpt lat="49.26744" lon="1.05429">
        <ele>33</ele>
        <time>2016-07-10T08:13:48.000Z</time>
      </trkpt>
      <trkpt lat="49.26748" lon="1.05431">
        <ele>33</ele>
        <time>2016-07-10T08:13:49.000Z</time>
      </trkpt>
      <trkpt lat="49.26752" lon="1.05433">
        <ele>33</ele>
        <time>2016-07-10T08:13:50.000Z</time>
      </trkpt>
      <trkpt lat="49.26756" lon="1.05438">
        <ele>33</ele>
        <time>2016-07-10T08:13:51.000Z</time>
      </trkpt>
      <trkpt lat="49.26759" lon="1.05442">
        <ele>32</ele>
        <time>2016-07-10T08:13:52.000Z</time>
      </trkpt>
      <trkpt lat="49.26763" lon="1.05446">
        <ele>31</ele>
        <time>2016-07-10T08:13:53.000Z</time>
      </trkpt>
      <trkpt lat="49.26767" lon="1.0545">
        <ele>30</ele>
        <time>2016-07-10T08:13:54.000Z</time>
      </trkpt>
      <trkpt lat="49.26771" lon="1.05453">
        <ele>30</ele>
        <time>2016-07-10T08:13:55.000Z</time>
      </trkpt>
      <trkpt lat="49.26775" lon="1.05455">
        <ele>31</ele>
        <time>2016-07-10T08:13:56.000Z</time>
      </trkpt>
      <trkpt lat="49.26779" lon="1.05457">
        <ele>30</ele>
        <time>2016-07-10T08:13:57.000Z</time>
      </trkpt>
      <trkpt lat="49.26782" lon="1.05459">
        <ele>30</ele>
        <time>2016-07-10T08:13:58.000Z</time>
      </trkpt>
      <trkpt lat="49.26785" lon="1.0546">
        <ele>31</ele>
        <time>2016-07-10T08:13:59.000Z</time>
      </trkpt>
      <trkpt lat="49.26789" lon="1.0546">
        <ele>31</ele>
        <time>2016-07-10T08:14:00.000Z</time>
      </trkpt>
      <trkpt lat="49.26792" lon="1.0546">
        <ele>31</ele>
        <time>2016-07-10T08:14:01.000Z</time>
      </trkpt>
      <trkpt lat="49.26796" lon="1.0546">
        <ele>31</ele>
        <time>2016-07-10T08:14:02.000Z</time>
      </trkpt>
      <trkpt lat="49.26799" lon="1.0546">
        <ele>32</ele>
        <time>2016-07-10T08:14:03.000Z</time>
      </trkpt>
      <trkpt lat="49.26802" lon="1.05461">
        <ele>32</ele>
        <time>2016-07-10T08:14:04.000Z</time>
      </trkpt>
      <trkpt lat="49.26805" lon="1.05461">
        <ele>32</ele>
        <time>2016-07-10T08:14:05.000Z</time>
      </trkpt>
      <trkpt lat="49.26808" lon="1.05462">
        <ele>32</ele>
        <time>2016-07-10T08:14:06.000Z</time>
      </trkpt>
      <trkpt lat="49.26809" lon="1.05463">
        <ele>35</ele>
        <time>2016-07-10T08:14:07.000Z</time>
      </trkpt>
      <trkpt lat="49.26808" lon="1.05463">
        <ele>35</ele>
        <time>2016-07-10T08:14:08.000Z</time>
      </trkpt>
      <trkpt lat="49.26807" lon="1.05464">
        <ele>35</ele>
        <time>2016-07-10T08:14:09.000Z</time>
      </trkpt>
      <trkpt lat="49.26807" lon="1.05464">
        <ele>35</ele>
        <time>2016-07-10T08:14:10.000Z</time>
      </trkpt>
      <trkpt lat="49.26807" lon="1.05464">
        <ele>35</ele>
        <time>2016-07-10T08:14:11.000Z</time>
      </trkpt>
      <trkpt lat="49.26807" lon="1.05464">
        <ele>35</ele>
        <time>2016-07-10T08:14:12.000Z</time>
      </trkpt>
      <trkpt lat="49.26808" lon="1.05463">
        <ele>35</ele>
        <time>2016-07-10T08:14:13.000Z</time>
      </trkpt>
      <trkpt lat="49.26807" lon="1.05463">
        <ele>34</ele>
        <time>2016-07-10T08:14:14.000Z</time>
      </trkpt>
      <trkpt lat="49.26807" lon="1.05463">
        <ele>34</ele>
        <time>2016-07-10T08:14:15.000Z</time>
      </trkpt>
      <trkpt lat="49.26807" lon="1.05463">
        <ele>35</ele>
        <time>2016-07-10T08:14:16.000Z</time>
      </trkpt>
      <trkpt lat="49.26807" lon="1.05463">
        <ele>34</ele>
        <time>2016-07-10T08:14:17.000Z</time>
      </trkpt>
      <trkpt lat="49.26807" lon="1.05463">
        <ele>35</ele>
        <time>2016-07-10T08:14:18.000Z</time>
      </trkpt>
      <trkpt lat="49.26806" lon="1.05462">
        <ele>35</ele>
        <time>2016-07-10T08:14:19.000Z</time>
      </trkpt>
      <trkpt lat="49.26805" lon="1.05461">
        <ele>35</ele>
        <time>2016-07-10T08:14:20.000Z</time>
      </trkpt>
      <trkpt lat="49.26804" lon="1.05459">
        <ele>35</ele>
        <time>2016-07-10T08:14:21.000Z</time>
      </trkpt>
      <trkpt lat="49.26803" lon="1.05458">
        <ele>34</ele>
        <time>2016-07-10T08:14:22.000Z</time>
      </trkpt>
      <trkpt lat="49.26802" lon="1.05456">
        <ele>33</ele>
        <time>2016-07-10T08:14:23.000Z</time>
      </trkpt>
      <trkpt lat="49.268" lon="1.05456">
        <ele>33</ele>
        <time>2016-07-10T08:14:24.000Z</time>
      </trkpt>
      <trkpt lat="49.26799" lon="1.05455">
        <ele>32</ele>
        <time>2016-07-10T08:14:25.000Z</time>
      </trkpt>
      <trkpt lat="49.26798" lon="1.05453">
        <ele>31</ele>
        <time>2016-07-10T08:14:26.000Z</time>
      </trkpt>
      <trkpt lat="49.26797" lon="1.05451">
        <ele>32</ele>
        <time>2016-07-10T08:14:27.000Z</time>
      </trkpt>
      <trkpt lat="49.26798" lon="1.05448">
        <ele>32</ele>
        <time>2016-07-10T08:14:28.000Z</time>
      </trkpt>
      <trkpt lat="49.26798" lon="1.05446">
        <ele>32</ele>
        <time>2016-07-10T08:14:29.000Z</time>
      </trkpt>
      <trkpt lat="49.26798" lon="1.05445">
        <ele>32</ele>
        <time>2016-07-10T08:14:30.000Z</time>
      </trkpt>
      <trkpt lat="49.26798" lon="1.05444">
        <ele>32</ele>
        <time>2016-07-10T08:14:31.000Z</time>
      </trkpt>
      <trkpt lat="49.26798" lon="1.05445">
        <ele>32</ele>
        <time>2016-07-10T08:14:32.000Z</time>
      </trkpt>
      <trkpt lat="49.26798" lon="1.05445">
        <ele>32</ele>
        <time>2016-07-10T08:14:33.000Z</time>
      </trkpt>
      <trkpt lat="49.26798" lon="1.05445">
        <ele>32</ele>
        <time>2016-07-10T08:14:34.000Z</time>
      </trkpt>
      <trkpt lat="49.26797" lon="1.05445">
        <ele>32</ele>
        <time>2016-07-10T08:14:35.000Z</time>
      </trkpt>
      <trkpt lat="49.26797" lon="1.05445">
        <ele>32</ele>
        <time>2016-07-10T08:14:36.000Z</time>
      </trkpt>
      <trkpt lat="49.26797" lon="1.05445">
        <ele>33</ele>
        <time>2016-07-10T08:14:37.000Z</time>
      </trkpt>
      <trkpt lat="49.26797" lon="1.05445">
        <ele>33</ele>
        <time>2016-07-10T08:14:38.000Z</time>
      </trkpt>
      <trkpt lat="49.26797" lon="1.05445">
        <ele>33</ele>
        <time>2016-07-10T08:14:39.000Z</time>
      </trkpt>
      <trkpt lat="49.26797" lon="1.05444">
        <ele>33</ele>
        <time>2016-07-10T08:14:40.000Z</time>
      </trkpt>
      <trkpt lat="49.26796" lon="1.05444">
        <ele>33</ele>
        <time>2016-07-10T08:14:41.000Z</time>
      </trkpt>
      <trkpt lat="49.26796" lon="1.05444">
        <ele>32</ele>
        <time>2016-07-10T08:14:42.000Z</time>
      </trkpt>
      <trkpt lat="49.26796" lon="1.05444">
        <ele>32</ele>
        <time>2016-07-10T08:14:43.000Z</time>
      </trkpt>
      <trkpt lat="49.26796" lon="1.05444">
        <ele>33</ele>
        <time>2016-07-10T08:14:44.000Z</time>
      </trkpt>
      <trkpt lat="49.26796" lon="1.05443">
        <ele>33</ele>
        <time>2016-07-10T08:14:45.000Z</time>
      </trkpt>
      <trkpt lat="49.26795" lon="1.05443">
        <ele>33</ele>
        <time>2016-07-10T08:14:46.000Z</time>
      </trkpt>
      <trkpt lat="49.26795" lon="1.05444">
        <ele>33</ele>
        <time>2016-07-10T08:14:47.000Z</time>
      </trkpt>
      <trkpt lat="49.26795" lon="1.05443">
        <ele>33</ele>
        <time>2016-07-10T08:14:48.000Z</time>
      </trkpt>
      <trkpt lat="49.26795" lon="1.05443">
        <ele>33</ele>
        <time>2016-07-10T08:14:49.000Z</time>
      </trkpt>
      <trkpt lat="49.26795" lon="1.05443">
        <ele>33</ele>
        <time>2016-07-10T08:14:50.000Z</time>
      </trkpt>
      <trkpt lat="49.26795" lon="1.05443">
        <ele>33</ele>
        <time>2016-07-10T08:14:51.000Z</time>
      </trkpt>
      <trkpt lat="49.26795" lon="1.05443">
        <ele>33</ele>
        <time>2016-07-10T08:14:52.000Z</time>
      </trkpt>
      <trkpt lat="49.26795" lon="1.05443">
        <ele>34</ele>
        <time>2016-07-10T08:14:53.000Z</time>
      </trkpt>
      <trkpt lat="49.26795" lon="1.05442">
        <ele>34</ele>
        <time>2016-07-10T08:14:54.000Z</time>
      </trkpt>
      <trkpt lat="49.26795" lon="1.05441">
        <ele>34</ele>
        <time>2016-07-10T08:14:55.000Z</time>
      </trkpt>
      <trkpt lat="49.26795" lon="1.0544">
        <ele>34</ele>
        <time>2016-07-10T08:14:56.000Z</time>
      </trkpt>
      <trkpt lat="49.26795" lon="1.05439">
        <ele>34</ele>
        <time>2016-07-10T08:14:57.000Z</time>
      </trkpt>
      <trkpt lat="49.26795" lon="1.05439">
        <ele>34</ele>
        <time>2016-07-10T08:14:58.000Z</time>
      </trkpt>
      <trkpt lat="49.26795" lon="1.05439">
        <ele>33</ele>
        <time>2016-07-10T08:14:59.000Z</time>
      </trkpt>
      <trkpt lat="49.26795" lon="1.05439">
        <ele>33</ele>
        <time>2016-07-10T08:15:00.000Z</time>
      </trkpt>
      <trkpt lat="49.26795" lon="1.05439">
        <ele>33</ele>
        <time>2016-07-10T08:15:01.000Z</time>
      </trkpt>
      <trkpt lat="49.26796" lon="1.05439">
        <ele>33</ele>
        <time>2016-07-10T08:15:02.000Z</time>
      </trkpt>
      <trkpt lat="49.26796" lon="1.05438">
        <ele>33</ele>
        <time>2016-07-10T08:15:03.000Z</time>
      </trkpt>
      <trkpt lat="49.26796" lon="1.05437">
        <ele>33</ele>
        <time>2016-07-10T08:15:04.000Z</time>
      </trkpt>
      <trkpt lat="49.26796" lon="1.05436">
        <ele>33</ele>
        <time>2016-07-10T08:15:05.000Z</time>
      </trkpt>
      <trkpt lat="49.26796" lon="1.05434">
        <ele>33</ele>
        <time>2016-07-10T08:15:06.000Z</time>
      </trkpt>
      <trkpt lat="49.26796" lon="1.05433">
        <ele>33</ele>
        <time>2016-07-10T08:15:07.000Z</time>
      </trkpt>
      <trkpt lat="49.26797" lon="1.05432">
        <ele>33</ele>
        <time>2016-07-10T08:15:08.000Z</time>
      </trkpt>
      <trkpt lat="49.26797" lon="1.05431">
        <ele>33</ele>
        <time>2016-07-10T08:15:09.000Z</time>
      </trkpt>
      <trkpt lat="49.26797" lon="1.05429">
        <ele>33</ele>
        <time>2016-07-10T08:15:10.000Z</time>
      </trkpt>
      <trkpt lat="49.26797" lon="1.05428">
        <ele>33</ele>
        <time>2016-07-10T08:15:11.000Z</time>
      </trkpt>
      <trkpt lat="49.26797" lon="1.05426">
        <ele>34</ele>
        <time>2016-07-10T08:15:12.000Z</time>
      </trkpt>
      <trkpt lat="49.26797" lon="1.05424">
        <ele>34</ele>
        <time>2016-07-10T08:15:13.000Z</time>
      </trkpt>
      <trkpt lat="49.26798" lon="1.05422">
        <ele>34</ele>
        <time>2016-07-10T08:15:14.000Z</time>
      </trkpt>
      <trkpt lat="49.26798" lon="1.0542">
        <ele>34</ele>
        <time>2016-07-10T08:15:15.000Z</time>
      </trkpt>
      <trkpt lat="49.26798" lon="1.05418">
        <ele>34</ele>
        <time>2016-07-10T08:15:16.000Z</time>
      </trkpt>
      <trkpt lat="49.26799" lon="1.05415">
        <ele>34</ele>
        <time>2016-07-10T08:15:17.000Z</time>
      </trkpt>
      <trkpt lat="49.26799" lon="1.05413">
        <ele>34</ele>
        <time>2016-07-10T08:15:18.000Z</time>
      </trkpt>
      <trkpt lat="49.26799" lon="1.05411">
        <ele>34</ele>
        <time>2016-07-10T08:15:19.000Z</time>
      </trkpt>
      <trkpt lat="49.26799" lon="1.05409">
        <ele>34</ele>
        <time>2016-07-10T08:15:20.000Z</time>
      </trkpt>
      <trkpt lat="49.26799" lon="1.05407">
        <ele>34</ele>
        <time>2016-07-10T08:15:21.000Z</time>
      </trkpt>
      <trkpt lat="49.26799" lon="1.05405">
        <ele>33</ele>
        <time>2016-07-10T08:15:22.000Z</time>
      </trkpt>
      <trkpt lat="49.268" lon="1.05402">
        <ele>33</ele>
        <time>2016-07-10T08:15:23.000Z</time>
      </trkpt>
      <trkpt lat="49.268" lon="1.05399">
        <ele>33</ele>
        <time>2016-07-10T08:15:24.000Z</time>
      </trkpt>
      <trkpt lat="49.268" lon="1.05396">
        <ele>33</ele>
        <time>2016-07-10T08:15:25.000Z</time>
      </trkpt>
      <trkpt lat="49.26801" lon="1.05392">
        <ele>33</ele>
        <time>2016-07-10T08:15:26.000Z</time>
      </trkpt>
      <trkpt lat="49.26802" lon="1.05388">
        <ele>33</ele>
        <time>2016-07-10T08:15:27.000Z</time>
      </trkpt>
      <trkpt lat="49.26804" lon="1.05384">
        <ele>34</ele>
        <time>2016-07-10T08:15:28.000Z</time>
      </trkpt>
      <trkpt lat="49.26805" lon="1.0538">
        <ele>34</ele>
        <time>2016-07-10T08:15:29.000Z</time>
      </trkpt>
      <trkpt lat="49.26807" lon="1.05376">
        <ele>34</ele>
        <time>2016-07-10T08:15:30.000Z</time>
      </trkpt>
      <trkpt lat="49.26808" lon="1.05372">
        <ele>34</ele>
        <time>2016-07-10T08:15:31.000Z</time>
      </trkpt>
      <trkpt lat="49.2681" lon="1.05368">
        <ele>33</ele>
        <time>2016-07-10T08:15:32.000Z</time>
      </trkpt>
      <trkpt lat="49.26811" lon="1.05364">
        <ele>33</ele>
        <time>2016-07-10T08:15:33.000Z</time>
      </trkpt>
      <trkpt lat="49.26813" lon="1.0536">
        <ele>33</ele>
        <time>2016-07-10T08:15:34.000Z</time>
      </trkpt>
      <trkpt lat="49.26815" lon="1.05356">
        <ele>33</ele>
        <time>2016-07-10T08:15:35.000Z</time>
      </trkpt>
      <trkpt lat="49.26817" lon="1.05352">
        <ele>32</ele>
        <time>2016-07-10T08:15:36.000Z</time>
      </trkpt>
      <trkpt lat="49.26818" lon="1.05349">
        <ele>32</ele>
        <time>2016-07-10T08:15:37.000Z</time>
      </trkpt>
      <trkpt lat="49.2682" lon="1.05345">
        <ele>32</ele>
        <time>2016-07-10T08:15:38.000Z</time>
      </trkpt>
      <trkpt lat="49.26821" lon="1.05342">
        <ele>32</ele>
        <time>2016-07-10T08:15:39.000Z</time>
      </trkpt>
      <trkpt lat="49.26822" lon="1.0534">
        <ele>33</ele>
        <time>2016-07-10T08:15:40.000Z</time>
      </trkpt>
      <trkpt lat="49.26823" lon="1.05338">
        <ele>33</ele>
        <time>2016-07-10T08:15:41.000Z</time>
      </trkpt>
      <trkpt lat="49.26823" lon="1.05338">
        <ele>34</ele>
        <time>2016-07-10T08:15:42.000Z</time>
      </trkpt>
      <trkpt lat="49.26823" lon="1.05338">
        <ele>34</ele>
        <time>2016-07-10T08:15:43.000Z</time>
      </trkpt>
      <trkpt lat="49.26822" lon="1.05338">
        <ele>34</ele>
        <time>2016-07-10T08:15:44.000Z</time>
      </trkpt>
      <trkpt lat="49.26822" lon="1.05338">
        <ele>35</ele>
        <time>2016-07-10T08:15:45.000Z</time>
      </trkpt>
      <trkpt lat="49.26822" lon="1.05338">
        <ele>35</ele>
        <time>2016-07-10T08:15:46.000Z</time>
      </trkpt>
      <trkpt lat="49.26823" lon="1.05338">
        <ele>35</ele>
        <time>2016-07-10T08:15:47.000Z</time>
      </trkpt>
      <trkpt lat="49.26822" lon="1.05338">
        <ele>35</ele>
        <time>2016-07-10T08:15:48.000Z</time>
      </trkpt>
      <trkpt lat="49.26822" lon="1.05337">
        <ele>35</ele>
        <time>2016-07-10T08:15:49.000Z</time>
      </trkpt>
      <trkpt lat="49.26823" lon="1.05337">
        <ele>35</ele>
        <time>2016-07-10T08:15:50.000Z</time>
      </trkpt>
      <trkpt lat="49.26823" lon="1.05337">
        <ele>35</ele>
        <time>2016-07-10T08:15:51.000Z</time>
      </trkpt>
      <trkpt lat="49.26823" lon="1.05337">
        <ele>35</ele>
        <time>2016-07-10T08:15:52.000Z</time>
      </trkpt>
      <trkpt lat="49.26823" lon="1.05337">
        <ele>35</ele>
        <time>2016-07-10T08:15:53.000Z</time>
      </trkpt>
      <trkpt lat="49.26823" lon="1.05337">
        <ele>35</ele>
        <time>2016-07-10T08:15:54.000Z</time>
      </trkpt>
      <trkpt lat="49.26823" lon="1.05337">
        <ele>35</ele>
        <time>2016-07-10T08:15:55.000Z</time>
      </trkpt>
      <trkpt lat="49.26823" lon="1.05337">
        <ele>36</ele>
        <time>2016-07-10T08:15:56.000Z</time>
      </trkpt>
      <trkpt lat="49.26823" lon="1.05337">
        <ele>36</ele>
        <time>2016-07-10T08:15:57.000Z</time>
      </trkpt>
      <trkpt lat="49.26823" lon="1.05336">
        <ele>35</ele>
        <time>2016-07-10T08:15:58.000Z</time>
      </trkpt>
      <trkpt lat="49.26823" lon="1.05336">
        <ele>35</ele>
        <time>2016-07-10T08:15:59.000Z</time>
      </trkpt>
      <trkpt lat="49.26823" lon="1.05336">
        <ele>35</ele>
        <time>2016-07-10T08:16:00.000Z</time>
      </trkpt>
      <trkpt lat="49.26823" lon="1.05336">
        <ele>35</ele>
        <time>2016-07-10T08:16:01.000Z</time>
      </trkpt>
      <trkpt lat="49.26823" lon="1.05335">
        <ele>35</ele>
        <time>2016-07-10T08:16:02.000Z</time>
      </trkpt>
      <trkpt lat="49.26823" lon="1.05335">
        <ele>35</ele>
        <time>2016-07-10T08:16:03.000Z</time>
      </trkpt>
      <trkpt lat="49.26823" lon="1.05333">
        <ele>35</ele>
        <time>2016-07-10T08:16:04.000Z</time>
      </trkpt>
      <trkpt lat="49.26823" lon="1.05331">
        <ele>35</ele>
        <time>2016-07-10T08:16:05.000Z</time>
      </trkpt>
      <trkpt lat="49.26823" lon="1.05329">
        <ele>35</ele>
        <time>2016-07-10T08:16:06.000Z</time>
      </trkpt>
      <trkpt lat="49.26823" lon="1.05328">
        <ele>35</ele>
        <time>2016-07-10T08:16:07.000Z</time>
      </trkpt>
      <trkpt lat="49.26823" lon="1.05326">
        <ele>34</ele>
        <time>2016-07-10T08:16:08.000Z</time>
      </trkpt>
      <trkpt lat="49.26823" lon="1.05326">
        <ele>33</ele>
        <time>2016-07-10T08:16:09.000Z</time>
      </trkpt>
      <trkpt lat="49.26823" lon="1.05326">
        <ele>34</ele>
        <time>2016-07-10T08:16:10.000Z</time>
      </trkpt>
      <trkpt lat="49.26823" lon="1.05325">
        <ele>34</ele>
        <time>2016-07-10T08:16:11.000Z</time>
      </trkpt>
      <trkpt lat="49.26823" lon="1.05325">
        <ele>34</ele>
        <time>2016-07-10T08:16:12.000Z</time>
      </trkpt>
      <trkpt lat="49.26823" lon="1.05325">
        <ele>34</ele>
        <time>2016-07-10T08:16:13.000Z</time>
      </trkpt>
      <trkpt lat="49.26823" lon="1.05325">
        <ele>34</ele>
        <time>2016-07-10T08:16:14.000Z</time>
      </trkpt>
      <trkpt lat="49.26823" lon="1.05325">
        <ele>34</ele>
        <time>2016-07-10T08:16:15.000Z</time>
      </trkpt>
      <trkpt lat="49.26823" lon="1.05325">
        <ele>34</ele>
        <time>2016-07-10T08:16:16.000Z</time>
      </trkpt>
      <trkpt lat="49.26823" lon="1.05325">
        <ele>34</ele>
        <time>2016-07-10T08:16:17.000Z</time>
      </trkpt>
      <trkpt lat="49.26822" lon="1.05325">
        <ele>34</ele>
        <time>2016-07-10T08:16:18.000Z</time>
      </trkpt>
      <trkpt lat="49.26822" lon="1.05325">
        <ele>34</ele>
        <time>2016-07-10T08:16:19.000Z</time>
      </trkpt>
      <trkpt lat="49.26822" lon="1.05325">
        <ele>34</ele>
        <time>2016-07-10T08:16:20.000Z</time>
      </trkpt>
      <trkpt lat="49.26822" lon="1.05325">
        <ele>34</ele>
        <time>2016-07-10T08:16:21.000Z</time>
      </trkpt>
      <trkpt lat="49.26822" lon="1.05325">
        <ele>34</ele>
        <time>2016-07-10T08:16:22.000Z</time>
      </trkpt>
      <trkpt lat="49.26822" lon="1.05325">
        <ele>35</ele>
        <time>2016-07-10T08:16:23.000Z</time>
      </trkpt>
      <trkpt lat="49.26823" lon="1.05325">
        <ele>35</ele>
        <time>2016-07-10T08:16:24.000Z</time>
      </trkpt>
      <trkpt lat="49.26823" lon="1.05325">
        <ele>35</ele>
        <time>2016-07-10T08:16:25.000Z</time>
      </trkpt>
      <trkpt lat="49.26823" lon="1.05325">
        <ele>35</ele>
        <time>2016-07-10T08:16:26.000Z</time>
      </trkpt>
      <trkpt lat="49.26823" lon="1.05325">
        <ele>35</ele>
        <time>2016-07-10T08:16:27.000Z</time>
      </trkpt>
      <trkpt lat="49.26822" lon="1.05326">
        <ele>36</ele>
        <time>2016-07-10T08:16:28.000Z</time>
      </trkpt>
      <trkpt lat="49.26822" lon="1.05327">
        <ele>35</ele>
        <time>2016-07-10T08:16:29.000Z</time>
      </trkpt>
      <trkpt lat="49.26822" lon="1.05328">
        <ele>35</ele>
        <time>2016-07-10T08:16:30.000Z</time>
      </trkpt>
      <trkpt lat="49.26822" lon="1.05328">
        <ele>35</ele>
        <time>2016-07-10T08:16:31.000Z</time>
      </trkpt>
      <trkpt lat="49.26822" lon="1.05329">
        <ele>35</ele>
        <time>2016-07-10T08:16:32.000Z</time>
      </trkpt>
      <trkpt lat="49.26822" lon="1.0533">
        <ele>35</ele>
        <time>2016-07-10T08:16:33.000Z</time>
      </trkpt>
      <trkpt lat="49.26821" lon="1.05332">
        <ele>35</ele>
        <time>2016-07-10T08:16:34.000Z</time>
      </trkpt>
      <trkpt lat="49.26821" lon="1.05333">
        <ele>35</ele>
        <time>2016-07-10T08:16:35.000Z</time>
      </trkpt>
      <trkpt lat="49.26821" lon="1.05334">
        <ele>35</ele>
        <time>2016-07-10T08:16:36.000Z</time>
      </trkpt>
      <trkpt lat="49.26821" lon="1.05336">
        <ele>35</ele>
        <time>2016-07-10T08:16:37.000Z</time>
      </trkpt>
      <trkpt lat="49.26821" lon="1.05337">
        <ele>34</ele>
        <time>2016-07-10T08:16:38.000Z</time>
      </trkpt>
      <trkpt lat="49.2682" lon="1.05338">
        <ele>34</ele>
        <time>2016-07-10T08:16:39.000Z</time>
      </trkpt>
      <trkpt lat="49.26819" lon="1.0534">
        <ele>34</ele>
        <time>2016-07-10T08:16:40.000Z</time>
      </trkpt>
      <trkpt lat="49.26819" lon="1.05341">
        <ele>34</ele>
        <time>2016-07-10T08:16:41.000Z</time>
      </trkpt>
      <trkpt lat="49.26818" lon="1.05343">
        <ele>34</ele>
        <time>2016-07-10T08:16:42.000Z</time>
      </trkpt>
      <trkpt lat="49.26817" lon="1.05344">
        <ele>34</ele>
        <time>2016-07-10T08:16:43.000Z</time>
      </trkpt>
      <trkpt lat="49.26816" lon="1.05345">
        <ele>34</ele>
        <time>2016-07-10T08:16:44.000Z</time>
      </trkpt>
      <trkpt lat="49.26814" lon="1.05346">
        <ele>34</ele>
        <time>2016-07-10T08:16:45.000Z</time>
      </trkpt>
      <trkpt lat="49.26813" lon="1.05348">
        <ele>34</ele>
        <time>2016-07-10T08:16:46.000Z</time>
      </trkpt>
      <trkpt lat="49.26811" lon="1.0535">
        <ele>34</ele>
        <time>2016-07-10T08:16:47.000Z</time>
      </trkpt>
      <trkpt lat="49.2681" lon="1.05352">
        <ele>35</ele>
        <time>2016-07-10T08:16:48.000Z</time>
      </trkpt>
      <trkpt lat="49.26808" lon="1.05354">
        <ele>35</ele>
        <time>2016-07-10T08:16:49.000Z</time>
      </trkpt>
      <trkpt lat="49.26807" lon="1.05357">
        <ele>35</ele>
        <time>2016-07-10T08:16:50.000Z</time>
      </trkpt>
      <trkpt lat="49.26806" lon="1.0536">
        <ele>35</ele>
        <time>2016-07-10T08:16:51.000Z</time>
      </trkpt>
      <trkpt lat="49.26804" lon="1.05363">
        <ele>36</ele>
        <time>2016-07-10T08:16:52.000Z</time>
      </trkpt>
      <trkpt lat="49.26803" lon="1.05367">
        <ele>35</ele>
        <time>2016-07-10T08:16:53.000Z</time>
      </trkpt>
      <trkpt lat="49.26801" lon="1.0537">
        <ele>35</ele>
        <time>2016-07-10T08:16:54.000Z</time>
      </trkpt>
      <trkpt lat="49.26799" lon="1.05374">
        <ele>36</ele>
        <time>2016-07-10T08:16:55.000Z</time>
      </trkpt>
      <trkpt lat="49.26798" lon="1.05378">
        <ele>36</ele>
        <time>2016-07-10T08:16:56.000Z</time>
      </trkpt>
      <trkpt lat="49.26798" lon="1.05383">
        <ele>36</ele>
        <time>2016-07-10T08:16:57.000Z</time>
      </trkpt>
      <trkpt lat="49.26798" lon="1.05388">
        <ele>36</ele>
        <time>2016-07-10T08:16:58.000Z</time>
      </trkpt>
      <trkpt lat="49.26798" lon="1.05393">
        <ele>36</ele>
        <time>2016-07-10T08:16:59.000Z</time>
      </trkpt>
      <trkpt lat="49.26797" lon="1.05398">
        <ele>36</ele>
        <time>2016-07-10T08:17:00.000Z</time>
      </trkpt>
      <trkpt lat="49.26797" lon="1.05403">
        <ele>36</ele>
        <time>2016-07-10T08:17:01.000Z</time>
      </trkpt>
      <trkpt lat="49.26796" lon="1.05408">
        <ele>36</ele>
        <time>2016-07-10T08:17:02.000Z</time>
      </trkpt>
      <trkpt lat="49.26796" lon="1.05412">
        <ele>35</ele>
        <time>2016-07-10T08:17:03.000Z</time>
      </trkpt>
      <trkpt lat="49.26795" lon="1.05416">
        <ele>35</ele>
        <time>2016-07-10T08:17:04.000Z</time>
      </trkpt>
      <trkpt lat="49.26794" lon="1.0542">
        <ele>36</ele>
        <time>2016-07-10T08:17:05.000Z</time>
      </trkpt>
      <trkpt lat="49.26794" lon="1.05424">
        <ele>36</ele>
        <time>2016-07-10T08:17:06.000Z</time>
      </trkpt>
      <trkpt lat="49.26793" lon="1.05429">
        <ele>36</ele>
        <time>2016-07-10T08:17:07.000Z</time>
      </trkpt>
      <trkpt lat="49.26792" lon="1.05433">
        <ele>36</ele>
        <time>2016-07-10T08:17:08.000Z</time>
      </trkpt>
      <trkpt lat="49.26792" lon="1.05438">
        <ele>36</ele>
        <time>2016-07-10T08:17:09.000Z</time>
      </trkpt>
      <trkpt lat="49.26791" lon="1.05442">
        <ele>36</ele>
        <time>2016-07-10T08:17:10.000Z</time>
      </trkpt>
      <trkpt lat="49.26791" lon="1.05446">
        <ele>37</ele>
        <time>2016-07-10T08:17:11.000Z</time>
      </trkpt>
      <trkpt lat="49.2679" lon="1.0545">
        <ele>37</ele>
        <time>2016-07-10T08:17:12.000Z</time>
      </trkpt>
      <trkpt lat="49.26789" lon="1.05455">
        <ele>37</ele>
        <time>2016-07-10T08:17:13.000Z</time>
      </trkpt>
      <trkpt lat="49.26788" lon="1.0546">
        <ele>37</ele>
        <time>2016-07-10T08:17:14.000Z</time>
      </trkpt>
      <trkpt lat="49.26788" lon="1.05465">
        <ele>37</ele>
        <time>2016-07-10T08:17:15.000Z</time>
      </trkpt>
      <trkpt lat="49.26787" lon="1.05471">
        <ele>36</ele>
        <time>2016-07-10T08:17:16.000Z</time>
      </trkpt>
      <trkpt lat="49.26787" lon="1.05476">
        <ele>36</ele>
        <time>2016-07-10T08:17:17.000Z</time>
      </trkpt>
      <trkpt lat="49.26786" lon="1.05482">
        <ele>36</ele>
        <time>2016-07-10T08:17:18.000Z</time>
      </trkpt>
      <trkpt lat="49.26785" lon="1.05486">
        <ele>36</ele>
        <time>2016-07-10T08:17:19.000Z</time>
      </trkpt>
      <trkpt lat="49.26784" lon="1.05491">
        <ele>36</ele>
        <time>2016-07-10T08:17:20.000Z</time>
      </trkpt>
      <trkpt lat="49.26783" lon="1.05496">
        <ele>36</ele>
        <time>2016-07-10T08:17:21.000Z</time>
      </trkpt>
      <trkpt lat="49.26782" lon="1.05502">
        <ele>36</ele>
        <time>2016-07-10T08:17:22.000Z</time>
      </trkpt>
      <trkpt lat="49.26781" lon="1.05508">
        <ele>35</ele>
        <time>2016-07-10T08:17:23.000Z</time>
      </trkpt>
      <trkpt lat="49.26781" lon="1.05514">
        <ele>35</ele>
        <time>2016-07-10T08:17:24.000Z</time>
      </trkpt>
      <trkpt lat="49.26781" lon="1.05521">
        <ele>35</ele>
        <time>2016-07-10T08:17:25.000Z</time>
      </trkpt>
      <trkpt lat="49.26781" lon="1.05529">
        <ele>35</ele>
        <time>2016-07-10T08:17:26.000Z</time>
      </trkpt>
      <trkpt lat="49.26783" lon="1.05537">
        <ele>34</ele>
        <time>2016-07-10T08:17:27.000Z</time>
      </trkpt>
      <trkpt lat="49.26786" lon="1.05545">
        <ele>35</ele>
        <time>2016-07-10T08:17:28.000Z</time>
      </trkpt>
      <trkpt lat="49.2679" lon="1.05552">
        <ele>34</ele>
        <time>2016-07-10T08:17:29.000Z</time>
      </trkpt>
      <trkpt lat="49.26792" lon="1.05559">
        <ele>33</ele>
        <time>2016-07-10T08:17:30.000Z</time>
      </trkpt>
      <trkpt lat="49.26795" lon="1.05565">
        <ele>31</ele>
        <time>2016-07-10T08:17:31.000Z</time>
      </trkpt>
      <trkpt lat="49.26797" lon="1.05571">
        <ele>30</ele>
        <time>2016-07-10T08:17:32.000Z</time>
      </trkpt>
      <trkpt lat="49.268" lon="1.05577">
        <ele>29</ele>
        <time>2016-07-10T08:17:33.000Z</time>
      </trkpt>
      <trkpt lat="49.26804" lon="1.05584">
        <ele>27</ele>
        <time>2016-07-10T08:17:34.000Z</time>
      </trkpt>
      <trkpt lat="49.26807" lon="1.05591">
        <ele>26</ele>
        <time>2016-07-10T08:17:35.000Z</time>
      </trkpt>
      <trkpt lat="49.26811" lon="1.05598">
        <ele>26</ele>
        <time>2016-07-10T08:17:36.000Z</time>
      </trkpt>
      <trkpt lat="49.26815" lon="1.05604">
        <ele>25</ele>
        <time>2016-07-10T08:17:37.000Z</time>
      </trkpt>
      <trkpt lat="49.26819" lon="1.05612">
        <ele>27</ele>
        <time>2016-07-10T08:17:38.000Z</time>
      </trkpt>
      <trkpt lat="49.26823" lon="1.0562">
        <ele>26</ele>
        <time>2016-07-10T08:17:39.000Z</time>
      </trkpt>
      <trkpt lat="49.26826" lon="1.05628">
        <ele>25</ele>
        <time>2016-07-10T08:17:40.000Z</time>
      </trkpt>
      <trkpt lat="49.26829" lon="1.05635">
        <ele>26</ele>
        <time>2016-07-10T08:17:41.000Z</time>
      </trkpt>
      <trkpt lat="49.26833" lon="1.05642">
        <ele>27</ele>
        <time>2016-07-10T08:17:42.000Z</time>
      </trkpt>
      <trkpt lat="49.26837" lon="1.05649">
        <ele>27</ele>
        <time>2016-07-10T08:17:43.000Z</time>
      </trkpt>
      <trkpt lat="49.26841" lon="1.05655">
        <ele>28</ele>
        <time>2016-07-10T08:17:44.000Z</time>
      </trkpt>
      <trkpt lat="49.26844" lon="1.05661">
        <ele>28</ele>
        <time>2016-07-10T08:17:45.000Z</time>
      </trkpt>
      <trkpt lat="49.26847" lon="1.05667">
        <ele>28</ele>
        <time>2016-07-10T08:17:46.000Z</time>
      </trkpt>
      <trkpt lat="49.2685" lon="1.05672">
        <ele>28</ele>
        <time>2016-07-10T08:17:47.000Z</time>
      </trkpt>
      <trkpt lat="49.26853" lon="1.05677">
        <ele>27</ele>
        <time>2016-07-10T08:17:48.000Z</time>
      </trkpt>
      <trkpt lat="49.26856" lon="1.05682">
        <ele>26</ele>
        <time>2016-07-10T08:17:49.000Z</time>
      </trkpt>
      <trkpt lat="49.26858" lon="1.05688">
        <ele>26</ele>
        <time>2016-07-10T08:17:50.000Z</time>
      </trkpt>
      <trkpt lat="49.26861" lon="1.05694">
        <ele>26</ele>
        <time>2016-07-10T08:17:51.000Z</time>
      </trkpt>
      <trkpt lat="49.26865" lon="1.057">
        <ele>26</ele>
        <time>2016-07-10T08:17:52.000Z</time>
      </trkpt>
      <trkpt lat="49.26868" lon="1.05707">
        <ele>25</ele>
        <time>2016-07-10T08:17:53.000Z</time>
      </trkpt>
      <trkpt lat="49.26871" lon="1.05713">
        <ele>25</ele>
        <time>2016-07-10T08:17:54.000Z</time>
      </trkpt>
      <trkpt lat="49.26875" lon="1.0572">
        <ele>24</ele>
        <time>2016-07-10T08:17:55.000Z</time>
      </trkpt>
      <trkpt lat="49.26878" lon="1.05726">
        <ele>23</ele>
        <time>2016-07-10T08:17:56.000Z</time>
      </trkpt>
      <trkpt lat="49.26881" lon="1.05733">
        <ele>22</ele>
        <time>2016-07-10T08:17:57.000Z</time>
      </trkpt>
      <trkpt lat="49.26884" lon="1.0574">
        <ele>21</ele>
        <time>2016-07-10T08:17:58.000Z</time>
      </trkpt>
      <trkpt lat="49.26887" lon="1.05747">
        <ele>20</ele>
        <time>2016-07-10T08:17:59.000Z</time>
      </trkpt>
      <trkpt lat="49.26891" lon="1.05754">
        <ele>20</ele>
        <time>2016-07-10T08:18:00.000Z</time>
      </trkpt>
      <trkpt lat="49.26895" lon="1.0576">
        <ele>20</ele>
        <time>2016-07-10T08:18:01.000Z</time>
      </trkpt>
      <trkpt lat="49.26899" lon="1.05767">
        <ele>20</ele>
        <time>2016-07-10T08:18:02.000Z</time>
      </trkpt>
      <trkpt lat="49.26903" lon="1.05773">
        <ele>21</ele>
        <time>2016-07-10T08:18:03.000Z</time>
      </trkpt>
      <trkpt lat="49.26906" lon="1.0578">
        <ele>20</ele>
        <time>2016-07-10T08:18:04.000Z</time>
      </trkpt>
      <trkpt lat="49.2691" lon="1.05787">
        <ele>19</ele>
        <time>2016-07-10T08:18:05.000Z</time>
      </trkpt>
      <trkpt lat="49.26913" lon="1.05793">
        <ele>18</ele>
        <time>2016-07-10T08:18:06.000Z</time>
      </trkpt>
      <trkpt lat="49.26916" lon="1.058">
        <ele>18</ele>
        <time>2016-07-10T08:18:07.000Z</time>
      </trkpt>
      <trkpt lat="49.2692" lon="1.05807">
        <ele>18</ele>
        <time>2016-07-10T08:18:08.000Z</time>
      </trkpt>
      <trkpt lat="49.26923" lon="1.05814">
        <ele>19</ele>
        <time>2016-07-10T08:18:09.000Z</time>
      </trkpt>
      <trkpt lat="49.26927" lon="1.0582">
        <ele>19</ele>
        <time>2016-07-10T08:18:10.000Z</time>
      </trkpt>
      <trkpt lat="49.26931" lon="1.05827">
        <ele>19</ele>
        <time>2016-07-10T08:18:11.000Z</time>
      </trkpt>
      <trkpt lat="49.26934" lon="1.05834">
        <ele>20</ele>
        <time>2016-07-10T08:18:12.000Z</time>
      </trkpt>
      <trkpt lat="49.26937" lon="1.05841">
        <ele>21</ele>
        <time>2016-07-10T08:18:13.000Z</time>
      </trkpt>
      <trkpt lat="49.2694" lon="1.05848">
        <ele>21</ele>
        <time>2016-07-10T08:18:14.000Z</time>
      </trkpt>
      <trkpt lat="49.26943" lon="1.05854">
        <ele>20</ele>
        <time>2016-07-10T08:18:15.000Z</time>
      </trkpt>
      <trkpt lat="49.26946" lon="1.05861">
        <ele>20</ele>
        <time>2016-07-10T08:18:16.000Z</time>
      </trkpt>
      <trkpt lat="49.26948" lon="1.05867">
        <ele>19</ele>
        <time>2016-07-10T08:18:17.000Z</time>
      </trkpt>
      <trkpt lat="49.26951" lon="1.05873">
        <ele>19</ele>
        <time>2016-07-10T08:18:18.000Z</time>
      </trkpt>
      <trkpt lat="49.26953" lon="1.05879">
        <ele>19</ele>
        <time>2016-07-10T08:18:19.000Z</time>
      </trkpt>
      <trkpt lat="49.26955" lon="1.05884">
        <ele>19</ele>
        <time>2016-07-10T08:18:20.000Z</time>
      </trkpt>
      <trkpt lat="49.26958" lon="1.05889">
        <ele>19</ele>
        <time>2016-07-10T08:18:21.000Z</time>
      </trkpt>
      <trkpt lat="49.2696" lon="1.05895">
        <ele>19</ele>
        <time>2016-07-10T08:18:22.000Z</time>
      </trkpt>
      <trkpt lat="49.26963" lon="1.05902">
        <ele>19</ele>
        <time>2016-07-10T08:18:23.000Z</time>
      </trkpt>
      <trkpt lat="49.26965" lon="1.05908">
        <ele>19</ele>
        <time>2016-07-10T08:18:24.000Z</time>
      </trkpt>
      <trkpt lat="49.26968" lon="1.05913">
        <ele>19</ele>
        <time>2016-07-10T08:18:25.000Z</time>
      </trkpt>
      <trkpt lat="49.2697" lon="1.05919">
        <ele>20</ele>
        <time>2016-07-10T08:18:26.000Z</time>
      </trkpt>
      <trkpt lat="49.26972" lon="1.05925">
        <ele>20</ele>
        <time>2016-07-10T08:18:27.000Z</time>
      </trkpt>
      <trkpt lat="49.26975" lon="1.0593">
        <ele>21</ele>
        <time>2016-07-10T08:18:28.000Z</time>
      </trkpt>
      <trkpt lat="49.26977" lon="1.05936">
        <ele>20</ele>
        <time>2016-07-10T08:18:29.000Z</time>
      </trkpt>
      <trkpt lat="49.2698" lon="1.05941">
        <ele>21</ele>
        <time>2016-07-10T08:18:30.000Z</time>
      </trkpt>
      <trkpt lat="49.26982" lon="1.05947">
        <ele>22</ele>
        <time>2016-07-10T08:18:31.000Z</time>
      </trkpt>
      <trkpt lat="49.26985" lon="1.05953">
        <ele>22</ele>
        <time>2016-07-10T08:18:32.000Z</time>
      </trkpt>
      <trkpt lat="49.26987" lon="1.05958">
        <ele>22</ele>
        <time>2016-07-10T08:18:33.000Z</time>
      </trkpt>
      <trkpt lat="49.26988" lon="1.05964">
        <ele>23</ele>
        <time>2016-07-10T08:18:34.000Z</time>
      </trkpt>
      <trkpt lat="49.26989" lon="1.0597">
        <ele>23</ele>
        <time>2016-07-10T08:18:35.000Z</time>
      </trkpt>
      <trkpt lat="49.2699" lon="1.05976">
        <ele>24</ele>
        <time>2016-07-10T08:18:36.000Z</time>
      </trkpt>
      <trkpt lat="49.26991" lon="1.05982">
        <ele>25</ele>
        <time>2016-07-10T08:18:37.000Z</time>
      </trkpt>
      <trkpt lat="49.26992" lon="1.05988">
        <ele>26</ele>
        <time>2016-07-10T08:18:38.000Z</time>
      </trkpt>
      <trkpt lat="49.26993" lon="1.05995">
        <ele>26</ele>
        <time>2016-07-10T08:18:39.000Z</time>
      </trkpt>
      <trkpt lat="49.26994" lon="1.06001">
        <ele>27</ele>
        <time>2016-07-10T08:18:40.000Z</time>
      </trkpt>
      <trkpt lat="49.26993" lon="1.06008">
        <ele>28</ele>
        <time>2016-07-10T08:18:41.000Z</time>
      </trkpt>
      <trkpt lat="49.26992" lon="1.06015">
        <ele>30</ele>
        <time>2016-07-10T08:18:42.000Z</time>
      </trkpt>
      <trkpt lat="49.2699" lon="1.06023">
        <ele>32</ele>
        <time>2016-07-10T08:18:43.000Z</time>
      </trkpt>
      <trkpt lat="49.26989" lon="1.06032">
        <ele>32</ele>
        <time>2016-07-10T08:18:44.000Z</time>
      </trkpt>
      <trkpt lat="49.26988" lon="1.0604">
        <ele>33</ele>
        <time>2016-07-10T08:18:45.000Z</time>
      </trkpt>
      <trkpt lat="49.26987" lon="1.06048">
        <ele>33</ele>
        <time>2016-07-10T08:18:46.000Z</time>
      </trkpt>
      <trkpt lat="49.26985" lon="1.06057">
        <ele>34</ele>
        <time>2016-07-10T08:18:47.000Z</time>
      </trkpt>
      <trkpt lat="49.26983" lon="1.06064">
        <ele>33</ele>
        <time>2016-07-10T08:18:48.000Z</time>
      </trkpt>
      <trkpt lat="49.26981" lon="1.06072">
        <ele>33</ele>
        <time>2016-07-10T08:18:49.000Z</time>
      </trkpt>
      <trkpt lat="49.26979" lon="1.06079">
        <ele>33</ele>
        <time>2016-07-10T08:18:50.000Z</time>
      </trkpt>
      <trkpt lat="49.26978" lon="1.06085">
        <ele>33</ele>
        <time>2016-07-10T08:18:51.000Z</time>
      </trkpt>
      <trkpt lat="49.26975" lon="1.06092">
        <ele>33</ele>
        <time>2016-07-10T08:18:52.000Z</time>
      </trkpt>
      <trkpt lat="49.26973" lon="1.06098">
        <ele>33</ele>
        <time>2016-07-10T08:18:53.000Z</time>
      </trkpt>
      <trkpt lat="49.26971" lon="1.06104">
        <ele>32</ele>
        <time>2016-07-10T08:18:54.000Z</time>
      </trkpt>
      <trkpt lat="49.26969" lon="1.0611">
        <ele>32</ele>
        <time>2016-07-10T08:18:55.000Z</time>
      </trkpt>
      <trkpt lat="49.26966" lon="1.06115">
        <ele>32</ele>
        <time>2016-07-10T08:18:56.000Z</time>
      </trkpt>
      <trkpt lat="49.26964" lon="1.06121">
        <ele>32</ele>
        <time>2016-07-10T08:18:57.000Z</time>
      </trkpt>
      <trkpt lat="49.26961" lon="1.06126">
        <ele>32</ele>
        <time>2016-07-10T08:18:58.000Z</time>
      </trkpt>
      <trkpt lat="49.26958" lon="1.06131">
        <ele>31</ele>
        <time>2016-07-10T08:18:59.000Z</time>
      </trkpt>
      <trkpt lat="49.26956" lon="1.06136">
        <ele>31</ele>
        <time>2016-07-10T08:19:00.000Z</time>
      </trkpt>
      <trkpt lat="49.26953" lon="1.06141">
        <ele>30</ele>
        <time>2016-07-10T08:19:01.000Z</time>
      </trkpt>
      <trkpt lat="49.2695" lon="1.06146">
        <ele>29</ele>
        <time>2016-07-10T08:19:02.000Z</time>
      </trkpt>
      <trkpt lat="49.26948" lon="1.06151">
        <ele>28</ele>
        <time>2016-07-10T08:19:03.000Z</time>
      </trkpt>
      <trkpt lat="49.26944" lon="1.06156">
        <ele>29</ele>
        <time>2016-07-10T08:19:04.000Z</time>
      </trkpt>
      <trkpt lat="49.26941" lon="1.06162">
        <ele>29</ele>
        <time>2016-07-10T08:19:05.000Z</time>
      </trkpt>
      <trkpt lat="49.26938" lon="1.06167">
        <ele>28</ele>
        <time>2016-07-10T08:19:06.000Z</time>
      </trkpt>
      <trkpt lat="49.26935" lon="1.06173">
        <ele>28</ele>
        <time>2016-07-10T08:19:07.000Z</time>
      </trkpt>
      <trkpt lat="49.26932" lon="1.06179">
        <ele>27</ele>
        <time>2016-07-10T08:19:08.000Z</time>
      </trkpt>
      <trkpt lat="49.26929" lon="1.06185">
        <ele>27</ele>
        <time>2016-07-10T08:19:09.000Z</time>
      </trkpt>
      <trkpt lat="49.26927" lon="1.0619">
        <ele>26</ele>
        <time>2016-07-10T08:19:10.000Z</time>
      </trkpt>
      <trkpt lat="49.26924" lon="1.06196">
        <ele>25</ele>
        <time>2016-07-10T08:19:11.000Z</time>
      </trkpt>
      <trkpt lat="49.26921" lon="1.06201">
        <ele>23</ele>
        <time>2016-07-10T08:19:12.000Z</time>
      </trkpt>
      <trkpt lat="49.26918" lon="1.06206">
        <ele>22</ele>
        <time>2016-07-10T08:19:13.000Z</time>
      </trkpt>
      <trkpt lat="49.26914" lon="1.06211">
        <ele>21</ele>
        <time>2016-07-10T08:19:14.000Z</time>
      </trkpt>
      <trkpt lat="49.26911" lon="1.06217">
        <ele>20</ele>
        <time>2016-07-10T08:19:15.000Z</time>
      </trkpt>
      <trkpt lat="49.26907" lon="1.06222">
        <ele>19</ele>
        <time>2016-07-10T08:19:16.000Z</time>
      </trkpt>
      <trkpt lat="49.26903" lon="1.06227">
        <ele>19</ele>
        <time>2016-07-10T08:19:17.000Z</time>
      </trkpt>
      <trkpt lat="49.26899" lon="1.06232">
        <ele>20</ele>
        <time>2016-07-10T08:19:18.000Z</time>
      </trkpt>
      <trkpt lat="49.26895" lon="1.06238">
        <ele>19</ele>
        <time>2016-07-10T08:19:19.000Z</time>
      </trkpt>
      <trkpt lat="49.26891" lon="1.06244">
        <ele>18</ele>
        <time>2016-07-10T08:19:20.000Z</time>
      </trkpt>
      <trkpt lat="49.26887" lon="1.0625">
        <ele>17</ele>
        <time>2016-07-10T08:19:21.000Z</time>
      </trkpt>
      <trkpt lat="49.26884" lon="1.06255">
        <ele>17</ele>
        <time>2016-07-10T08:19:22.000Z</time>
      </trkpt>
      <trkpt lat="49.2688" lon="1.0626">
        <ele>16</ele>
        <time>2016-07-10T08:19:23.000Z</time>
      </trkpt>
      <trkpt lat="49.26876" lon="1.06265">
        <ele>16</ele>
        <time>2016-07-10T08:19:24.000Z</time>
      </trkpt>
      <trkpt lat="49.26872" lon="1.0627">
        <ele>16</ele>
        <time>2016-07-10T08:19:25.000Z</time>
      </trkpt>
      <trkpt lat="49.26869" lon="1.06275">
        <ele>16</ele>
        <time>2016-07-10T08:19:26.000Z</time>
      </trkpt>
      <trkpt lat="49.26865" lon="1.06281">
        <ele>16</ele>
        <time>2016-07-10T08:19:27.000Z</time>
      </trkpt>
      <trkpt lat="49.26862" lon="1.06286">
        <ele>16</ele>
        <time>2016-07-10T08:19:28.000Z</time>
      </trkpt>
      <trkpt lat="49.26859" lon="1.06291">
        <ele>17</ele>
        <time>2016-07-10T08:19:29.000Z</time>
      </trkpt>
      <trkpt lat="49.26856" lon="1.06295">
        <ele>18</ele>
        <time>2016-07-10T08:19:30.000Z</time>
      </trkpt>
      <trkpt lat="49.26853" lon="1.06301">
        <ele>19</ele>
        <time>2016-07-10T08:19:31.000Z</time>
      </trkpt>
      <trkpt lat="49.2685" lon="1.06306">
        <ele>20</ele>
        <time>2016-07-10T08:19:32.000Z</time>
      </trkpt>
      <trkpt lat="49.26847" lon="1.06311">
        <ele>20</ele>
        <time>2016-07-10T08:19:33.000Z</time>
      </trkpt>
      <trkpt lat="49.26844" lon="1.06317">
        <ele>19</ele>
        <time>2016-07-10T08:19:34.000Z</time>
      </trkpt>
      <trkpt lat="49.26841" lon="1.06322">
        <ele>19</ele>
        <time>2016-07-10T08:19:35.000Z</time>
      </trkpt>
      <trkpt lat="49.26837" lon="1.06328">
        <ele>18</ele>
        <time>2016-07-10T08:19:36.000Z</time>
      </trkpt>
      <trkpt lat="49.26834" lon="1.06333">
        <ele>17</ele>
        <time>2016-07-10T08:19:37.000Z</time>
      </trkpt>
      <trkpt lat="49.2683" lon="1.06338">
        <ele>16</ele>
        <time>2016-07-10T08:19:38.000Z</time>
      </trkpt>
      <trkpt lat="49.26826" lon="1.06343">
        <ele>17</ele>
        <time>2016-07-10T08:19:39.000Z</time>
      </trkpt>
      <trkpt lat="49.26822" lon="1.06348">
        <ele>17</ele>
        <time>2016-07-10T08:19:40.000Z</time>
      </trkpt>
      <trkpt lat="49.26819" lon="1.06353">
        <ele>17</ele>
        <time>2016-07-10T08:19:41.000Z</time>
      </trkpt>
      <trkpt lat="49.26815" lon="1.06358">
        <ele>18</ele>
        <time>2016-07-10T08:19:42.000Z</time>
      </trkpt>
      <trkpt lat="49.26812" lon="1.06363">
        <ele>19</ele>
        <time>2016-07-10T08:19:43.000Z</time>
      </trkpt>
      <trkpt lat="49.26808" lon="1.06368">
        <ele>20</ele>
        <time>2016-07-10T08:19:44.000Z</time>
      </trkpt>
      <trkpt lat="49.26804" lon="1.06372">
        <ele>21</ele>
        <time>2016-07-10T08:19:45.000Z</time>
      </trkpt>
      <trkpt lat="49.26801" lon="1.06377">
        <ele>21</ele>
        <time>2016-07-10T08:19:46.000Z</time>
      </trkpt>
      <trkpt lat="49.26798" lon="1.06382">
        <ele>22</ele>
        <time>2016-07-10T08:19:47.000Z</time>
      </trkpt>
      <trkpt lat="49.26795" lon="1.06387">
        <ele>23</ele>
        <time>2016-07-10T08:19:48.000Z</time>
      </trkpt>
      <trkpt lat="49.26792" lon="1.06391">
        <ele>23</ele>
        <time>2016-07-10T08:19:49.000Z</time>
      </trkpt>
      <trkpt lat="49.26789" lon="1.06395">
        <ele>22</ele>
        <time>2016-07-10T08:19:50.000Z</time>
      </trkpt>
      <trkpt lat="49.26786" lon="1.06399">
        <ele>22</ele>
        <time>2016-07-10T08:19:51.000Z</time>
      </trkpt>
      <trkpt lat="49.26784" lon="1.06404">
        <ele>25</ele>
        <time>2016-07-10T08:19:52.000Z</time>
      </trkpt>
      <trkpt lat="49.26782" lon="1.06408">
        <ele>25</ele>
        <time>2016-07-10T08:19:53.000Z</time>
      </trkpt>
      <trkpt lat="49.2678" lon="1.06412">
        <ele>27</ele>
        <time>2016-07-10T08:19:54.000Z</time>
      </trkpt>
      <trkpt lat="49.26778" lon="1.06415">
        <ele>27</ele>
        <time>2016-07-10T08:19:55.000Z</time>
      </trkpt>
      <trkpt lat="49.26777" lon="1.06419">
        <ele>28</ele>
        <time>2016-07-10T08:19:56.000Z</time>
      </trkpt>
      <trkpt lat="49.26775" lon="1.06422">
        <ele>28</ele>
        <time>2016-07-10T08:19:57.000Z</time>
      </trkpt>
      <trkpt lat="49.26773" lon="1.06425">
        <ele>28</ele>
        <time>2016-07-10T08:19:58.000Z</time>
      </trkpt>
      <trkpt lat="49.2677" lon="1.06429">
        <ele>27</ele>
        <time>2016-07-10T08:19:59.000Z</time>
      </trkpt>
      <trkpt lat="49.26768" lon="1.06432">
        <ele>28</ele>
        <time>2016-07-10T08:20:00.000Z</time>
      </trkpt>
      <trkpt lat="49.26766" lon="1.06435">
        <ele>29</ele>
        <time>2016-07-10T08:20:01.000Z</time>
      </trkpt>
      <trkpt lat="49.26764" lon="1.06439">
        <ele>29</ele>
        <time>2016-07-10T08:20:02.000Z</time>
      </trkpt>
      <trkpt lat="49.26762" lon="1.06442">
        <ele>30</ele>
        <time>2016-07-10T08:20:03.000Z</time>
      </trkpt>
      <trkpt lat="49.2676" lon="1.06446">
        <ele>32</ele>
        <time>2016-07-10T08:20:04.000Z</time>
      </trkpt>
      <trkpt lat="49.26759" lon="1.06449">
        <ele>34</ele>
        <time>2016-07-10T08:20:05.000Z</time>
      </trkpt>
      <trkpt lat="49.26757" lon="1.06452">
        <ele>34</ele>
        <time>2016-07-10T08:20:06.000Z</time>
      </trkpt>
      <trkpt lat="49.26756" lon="1.06456">
        <ele>35</ele>
        <time>2016-07-10T08:20:07.000Z</time>
      </trkpt>
      <trkpt lat="49.26755" lon="1.06459">
        <ele>36</ele>
        <time>2016-07-10T08:20:08.000Z</time>
      </trkpt>
      <trkpt lat="49.26754" lon="1.06463">
        <ele>37</ele>
        <time>2016-07-10T08:20:09.000Z</time>
      </trkpt>
      <trkpt lat="49.26753" lon="1.06467">
        <ele>39</ele>
        <time>2016-07-10T08:20:10.000Z</time>
      </trkpt>
      <trkpt lat="49.26751" lon="1.06471">
        <ele>40</ele>
        <time>2016-07-10T08:20:11.000Z</time>
      </trkpt>
      <trkpt lat="49.26749" lon="1.06475">
        <ele>42</ele>
        <time>2016-07-10T08:20:12.000Z</time>
      </trkpt>
      <trkpt lat="49.26748" lon="1.06479">
        <ele>43</ele>
        <time>2016-07-10T08:20:13.000Z</time>
      </trkpt>
      <trkpt lat="49.26746" lon="1.06483">
        <ele>44</ele>
        <time>2016-07-10T08:20:14.000Z</time>
      </trkpt>
      <trkpt lat="49.26744" lon="1.06487">
        <ele>45</ele>
        <time>2016-07-10T08:20:15.000Z</time>
      </trkpt>
      <trkpt lat="49.26743" lon="1.0649">
        <ele>46</ele>
        <time>2016-07-10T08:20:16.000Z</time>
      </trkpt>
      <trkpt lat="49.26741" lon="1.06494">
        <ele>47</ele>
        <time>2016-07-10T08:20:17.000Z</time>
      </trkpt>
      <trkpt lat="49.2674" lon="1.06498">
        <ele>49</ele>
        <time>2016-07-10T08:20:18.000Z</time>
      </trkpt>
      <trkpt lat="49.26738" lon="1.06501">
        <ele>50</ele>
        <time>2016-07-10T08:20:19.000Z</time>
      </trkpt>
      <trkpt lat="49.26737" lon="1.06505">
        <ele>51</ele>
        <time>2016-07-10T08:20:20.000Z</time>
      </trkpt>
      <trkpt lat="49.26736" lon="1.06509">
        <ele>52</ele>
        <time>2016-07-10T08:20:21.000Z</time>
      </trkpt>
      <trkpt lat="49.26735" lon="1.06513">
        <ele>52</ele>
        <time>2016-07-10T08:20:22.000Z</time>
      </trkpt>
      <trkpt lat="49.26734" lon="1.06516">
        <ele>54</ele>
        <time>2016-07-10T08:20:23.000Z</time>
      </trkpt>
      <trkpt lat="49.26733" lon="1.06518">
        <ele>55</ele>
        <time>2016-07-10T08:20:24.000Z</time>
      </trkpt>
      <trkpt lat="49.26733" lon="1.06521">
        <ele>55</ele>
        <time>2016-07-10T08:20:25.000Z</time>
      </trkpt>
      <trkpt lat="49.26732" lon="1.06522">
        <ele>56</ele>
        <time>2016-07-10T08:20:26.000Z</time>
      </trkpt>
      <trkpt lat="49.26731" lon="1.06523">
        <ele>56</ele>
        <time>2016-07-10T08:20:27.000Z</time>
      </trkpt>
      <trkpt lat="49.26731" lon="1.06524">
        <ele>56</ele>
        <time>2016-07-10T08:20:28.000Z</time>
      </trkpt>
      <trkpt lat="49.2673" lon="1.06525">
        <ele>57</ele>
        <time>2016-07-10T08:20:29.000Z</time>
      </trkpt>
      <trkpt lat="49.2673" lon="1.06526">
        <ele>58</ele>
        <time>2016-07-10T08:20:30.000Z</time>
      </trkpt>
      <trkpt lat="49.26729" lon="1.06527">
        <ele>58</ele>
        <time>2016-07-10T08:20:31.000Z</time>
      </trkpt>
      <trkpt lat="49.26729" lon="1.06529">
        <ele>59</ele>
        <time>2016-07-10T08:20:32.000Z</time>
      </trkpt>
      <trkpt lat="49.26729" lon="1.06529">
        <ele>60</ele>
        <time>2016-07-10T08:20:33.000Z</time>
      </trkpt>
      <trkpt lat="49.26729" lon="1.0653">
        <ele>60</ele>
        <time>2016-07-10T08:20:34.000Z</time>
      </trkpt>
      <trkpt lat="49.2673" lon="1.0653">
        <ele>61</ele>
        <time>2016-07-10T08:20:35.000Z</time>
      </trkpt>
      <trkpt lat="49.2673" lon="1.0653">
        <ele>62</ele>
        <time>2016-07-10T08:20:36.000Z</time>
      </trkpt>
      <trkpt lat="49.2673" lon="1.06531">
        <ele>62</ele>
        <time>2016-07-10T08:20:37.000Z</time>
      </trkpt>
      <trkpt lat="49.2673" lon="1.06531">
        <ele>62</ele>
        <time>2016-07-10T08:20:38.000Z</time>
      </trkpt>
      <trkpt lat="49.2673" lon="1.06531">
        <ele>63</ele>
        <time>2016-07-10T08:20:39.000Z</time>
      </trkpt>
      <trkpt lat="49.2673" lon="1.06531">
        <ele>63</ele>
        <time>2016-07-10T08:20:40.000Z</time>
      </trkpt>
      <trkpt lat="49.2673" lon="1.06531">
        <ele>63</ele>
        <time>2016-07-10T08:20:41.000Z</time>
      </trkpt>
      <trkpt lat="49.2673" lon="1.06531">
        <ele>63</ele>
        <time>2016-07-10T08:20:42.000Z</time>
      </trkpt>
      <trkpt lat="49.2673" lon="1.06532">
        <ele>63</ele>
        <time>2016-07-10T08:20:43.000Z</time>
      </trkpt>
      <trkpt lat="49.2673" lon="1.06532">
        <ele>63</ele>
        <time>2016-07-10T08:20:44.000Z</time>
      </trkpt>
      <trkpt lat="49.2673" lon="1.06532">
        <ele>63</ele>
        <time>2016-07-10T08:20:45.000Z</time>
      </trkpt>
      <trkpt lat="49.26729" lon="1.06532">
        <ele>63</ele>
        <time>2016-07-10T08:20:46.000Z</time>
      </trkpt>
      <trkpt lat="49.26728" lon="1.06533">
        <ele>63</ele>
        <time>2016-07-10T08:20:47.000Z</time>
      </trkpt>
      <trkpt lat="49.26727" lon="1.06535">
        <ele>64</ele>
        <time>2016-07-10T08:20:48.000Z</time>
      </trkpt>
      <trkpt lat="49.26726" lon="1.06536">
        <ele>64</ele>
        <time>2016-07-10T08:20:49.000Z</time>
      </trkpt>
      <trkpt lat="49.26725" lon="1.06538">
        <ele>64</ele>
        <time>2016-07-10T08:20:50.000Z</time>
      </trkpt>
      <trkpt lat="49.26724" lon="1.06541">
        <ele>64</ele>
        <time>2016-07-10T08:20:51.000Z</time>
      </trkpt>
      <trkpt lat="49.26722" lon="1.06543">
        <ele>65</ele>
        <time>2016-07-10T08:20:52.000Z</time>
      </trkpt>
      <trkpt lat="49.2672" lon="1.06546">
        <ele>65</ele>
        <time>2016-07-10T08:20:53.000Z</time>
      </trkpt>
      <trkpt lat="49.26718" lon="1.06549">
        <ele>65</ele>
        <time>2016-07-10T08:20:54.000Z</time>
      </trkpt>
      <trkpt lat="49.26716" lon="1.06552">
        <ele>65</ele>
        <time>2016-07-10T08:20:55.000Z</time>
      </trkpt>
      <trkpt lat="49.26714" lon="1.06555">
        <ele>65</ele>
        <time>2016-07-10T08:20:56.000Z</time>
      </trkpt>
      <trkpt lat="49.26713" lon="1.06559">
        <ele>65</ele>
        <time>2016-07-10T08:20:57.000Z</time>
      </trkpt>
      <trkpt lat="49.26711" lon="1.06562">
        <ele>65</ele>
        <time>2016-07-10T08:20:58.000Z</time>
      </trkpt>
      <trkpt lat="49.26709" lon="1.06566">
        <ele>65</ele>
        <time>2016-07-10T08:20:59.000Z</time>
      </trkpt>
      <trkpt lat="49.26707" lon="1.06569">
        <ele>65</ele>
        <time>2016-07-10T08:21:00.000Z</time>
      </trkpt>
      <trkpt lat="49.26705" lon="1.06573">
        <ele>66</ele>
        <time>2016-07-10T08:21:01.000Z</time>
      </trkpt>
      <trkpt lat="49.26703" lon="1.06577">
        <ele>66</ele>
        <time>2016-07-10T08:21:02.000Z</time>
      </trkpt>
      <trkpt lat="49.26701" lon="1.06581">
        <ele>66</ele>
        <time>2016-07-10T08:21:03.000Z</time>
      </trkpt>
      <trkpt lat="49.26699" lon="1.06585">
        <ele>66</ele>
        <time>2016-07-10T08:21:04.000Z</time>
      </trkpt>
      <trkpt lat="49.26697" lon="1.0659">
        <ele>66</ele>
        <time>2016-07-10T08:21:05.000Z</time>
      </trkpt>
      <trkpt lat="49.26696" lon="1.06593">
        <ele>66</ele>
        <time>2016-07-10T08:21:06.000Z</time>
      </trkpt>
      <trkpt lat="49.26694" lon="1.06596">
        <ele>66</ele>
        <time>2016-07-10T08:21:07.000Z</time>
      </trkpt>
      <trkpt lat="49.26692" lon="1.066">
        <ele>66</ele>
        <time>2016-07-10T08:21:08.000Z</time>
      </trkpt>
      <trkpt lat="49.2669" lon="1.06603">
        <ele>66</ele>
        <time>2016-07-10T08:21:09.000Z</time>
      </trkpt>
      <trkpt lat="49.26687" lon="1.06607">
        <ele>66</ele>
        <time>2016-07-10T08:21:10.000Z</time>
      </trkpt>
      <trkpt lat="49.26685" lon="1.06612">
        <ele>66</ele>
        <time>2016-07-10T08:21:11.000Z</time>
      </trkpt>
      <trkpt lat="49.26682" lon="1.06616">
        <ele>66</ele>
        <time>2016-07-10T08:21:12.000Z</time>
      </trkpt>
      <trkpt lat="49.2668" lon="1.06622">
        <ele>66</ele>
        <time>2016-07-10T08:21:13.000Z</time>
      </trkpt>
      <trkpt lat="49.26677" lon="1.06627">
        <ele>66</ele>
        <time>2016-07-10T08:21:14.000Z</time>
      </trkpt>
      <trkpt lat="49.26675" lon="1.06633">
        <ele>66</ele>
        <time>2016-07-10T08:21:15.000Z</time>
      </trkpt>
      <trkpt lat="49.26672" lon="1.06639">
        <ele>66</ele>
        <time>2016-07-10T08:21:16.000Z</time>
      </trkpt>
      <trkpt lat="49.26669" lon="1.06644">
        <ele>66</ele>
        <time>2016-07-10T08:21:17.000Z</time>
      </trkpt>
      <trkpt lat="49.26665" lon="1.0665">
        <ele>66</ele>
        <time>2016-07-10T08:21:18.000Z</time>
      </trkpt>
      <trkpt lat="49.26662" lon="1.06655">
        <ele>66</ele>
        <time>2016-07-10T08:21:19.000Z</time>
      </trkpt>
      <trkpt lat="49.26659" lon="1.06661">
        <ele>66</ele>
        <time>2016-07-10T08:21:20.000Z</time>
      </trkpt>
      <trkpt lat="49.26655" lon="1.06667">
        <ele>66</ele>
        <time>2016-07-10T08:21:21.000Z</time>
      </trkpt>
      <trkpt lat="49.26652" lon="1.06673">
        <ele>66</ele>
        <time>2016-07-10T08:21:22.000Z</time>
      </trkpt>
      <trkpt lat="49.26649" lon="1.06679">
        <ele>66</ele>
        <time>2016-07-10T08:21:23.000Z</time>
      </trkpt>
      <trkpt lat="49.26646" lon="1.06686">
        <ele>66</ele>
        <time>2016-07-10T08:21:24.000Z</time>
      </trkpt>
      <trkpt lat="49.26643" lon="1.06692">
        <ele>66</ele>
        <time>2016-07-10T08:21:25.000Z</time>
      </trkpt>
      <trkpt lat="49.2664" lon="1.06698">
        <ele>66</ele>
        <time>2016-07-10T08:21:26.000Z</time>
      </trkpt>
      <trkpt lat="49.26637" lon="1.06703">
        <ele>66</ele>
        <time>2016-07-10T08:21:27.000Z</time>
      </trkpt>
      <trkpt lat="49.26634" lon="1.06709">
        <ele>66</ele>
        <time>2016-07-10T08:21:28.000Z</time>
      </trkpt>
      <trkpt lat="49.26631" lon="1.06715">
        <ele>66</ele>
        <time>2016-07-10T08:21:29.000Z</time>
      </trkpt>
      <trkpt lat="49.26628" lon="1.0672">
        <ele>67</ele>
        <time>2016-07-10T08:21:30.000Z</time>
      </trkpt>
      <trkpt lat="49.26626" lon="1.06725">
        <ele>67</ele>
        <time>2016-07-10T08:21:31.000Z</time>
      </trkpt>
      <trkpt lat="49.26623" lon="1.0673">
        <ele>68</ele>
        <time>2016-07-10T08:21:32.000Z</time>
      </trkpt>
      <trkpt lat="49.2662" lon="1.06736">
        <ele>68</ele>
        <time>2016-07-10T08:21:33.000Z</time>
      </trkpt>
      <trkpt lat="49.26617" lon="1.06741">
        <ele>69</ele>
        <time>2016-07-10T08:21:34.000Z</time>
      </trkpt>
      <trkpt lat="49.26614" lon="1.06747">
        <ele>69</ele>
        <time>2016-07-10T08:21:35.000Z</time>
      </trkpt>
      <trkpt lat="49.26612" lon="1.06754">
        <ele>71</ele>
        <time>2016-07-10T08:21:36.000Z</time>
      </trkpt>
      <trkpt lat="49.26609" lon="1.06761">
        <ele>72</ele>
        <time>2016-07-10T08:21:37.000Z</time>
      </trkpt>
      <trkpt lat="49.26605" lon="1.06768">
        <ele>74</ele>
        <time>2016-07-10T08:21:38.000Z</time>
      </trkpt>
      <trkpt lat="49.26602" lon="1.06775">
        <ele>74</ele>
        <time>2016-07-10T08:21:39.000Z</time>
      </trkpt>
      <trkpt lat="49.26599" lon="1.06781">
        <ele>74</ele>
        <time>2016-07-10T08:21:40.000Z</time>
      </trkpt>
      <trkpt lat="49.26595" lon="1.06788">
        <ele>74</ele>
        <time>2016-07-10T08:21:41.000Z</time>
      </trkpt>
      <trkpt lat="49.26592" lon="1.06794">
        <ele>73</ele>
        <time>2016-07-10T08:21:42.000Z</time>
      </trkpt>
      <trkpt lat="49.26589" lon="1.06801">
        <ele>73</ele>
        <time>2016-07-10T08:21:43.000Z</time>
      </trkpt>
      <trkpt lat="49.26585" lon="1.06807">
        <ele>72</ele>
        <time>2016-07-10T08:21:44.000Z</time>
      </trkpt>
      <trkpt lat="49.26582" lon="1.06813">
        <ele>73</ele>
        <time>2016-07-10T08:21:45.000Z</time>
      </trkpt>
      <trkpt lat="49.26579" lon="1.06819">
        <ele>73</ele>
        <time>2016-07-10T08:21:46.000Z</time>
      </trkpt>
      <trkpt lat="49.26576" lon="1.06824">
        <ele>72</ele>
        <time>2016-07-10T08:21:47.000Z</time>
      </trkpt>
      <trkpt lat="49.26572" lon="1.0683">
        <ele>71</ele>
        <time>2016-07-10T08:21:48.000Z</time>
      </trkpt>
      <trkpt lat="49.26568" lon="1.06835">
        <ele>70</ele>
        <time>2016-07-10T08:21:49.000Z</time>
      </trkpt>
      <trkpt lat="49.26565" lon="1.06841">
        <ele>69</ele>
        <time>2016-07-10T08:21:50.000Z</time>
      </trkpt>
      <trkpt lat="49.26561" lon="1.06846">
        <ele>68</ele>
        <time>2016-07-10T08:21:51.000Z</time>
      </trkpt>
      <trkpt lat="49.26557" lon="1.06851">
        <ele>67</ele>
        <time>2016-07-10T08:21:52.000Z</time>
      </trkpt>
      <trkpt lat="49.26553" lon="1.06856">
        <ele>67</ele>
        <time>2016-07-10T08:21:53.000Z</time>
      </trkpt>
      <trkpt lat="49.2655" lon="1.06862">
        <ele>68</ele>
        <time>2016-07-10T08:21:54.000Z</time>
      </trkpt>
      <trkpt lat="49.26546" lon="1.06868">
        <ele>68</ele>
        <time>2016-07-10T08:21:55.000Z</time>
      </trkpt>
      <trkpt lat="49.26543" lon="1.06873">
        <ele>68</ele>
        <time>2016-07-10T08:21:56.000Z</time>
      </trkpt>
      <trkpt lat="49.26539" lon="1.06879">
        <ele>68</ele>
        <time>2016-07-10T08:21:57.000Z</time>
      </trkpt>
      <trkpt lat="49.26536" lon="1.06885">
        <ele>68</ele>
        <time>2016-07-10T08:21:58.000Z</time>
      </trkpt>
      <trkpt lat="49.26534" lon="1.06891">
        <ele>67</ele>
        <time>2016-07-10T08:21:59.000Z</time>
      </trkpt>
      <trkpt lat="49.26531" lon="1.06896">
        <ele>67</ele>
        <time>2016-07-10T08:22:00.000Z</time>
      </trkpt>
      <trkpt lat="49.26528" lon="1.06902">
        <ele>67</ele>
        <time>2016-07-10T08:22:01.000Z</time>
      </trkpt>
      <trkpt lat="49.26525" lon="1.06907">
        <ele>67</ele>
        <time>2016-07-10T08:22:02.000Z</time>
      </trkpt>
      <trkpt lat="49.26522" lon="1.06912">
        <ele>67</ele>
        <time>2016-07-10T08:22:03.000Z</time>
      </trkpt>
      <trkpt lat="49.26519" lon="1.06918">
        <ele>67</ele>
        <time>2016-07-10T08:22:04.000Z</time>
      </trkpt>
      <trkpt lat="49.26516" lon="1.06923">
        <ele>67</ele>
        <time>2016-07-10T08:22:05.000Z</time>
      </trkpt>
      <trkpt lat="49.26512" lon="1.06928">
        <ele>65</ele>
        <time>2016-07-10T08:22:06.000Z</time>
      </trkpt>
      <trkpt lat="49.26509" lon="1.06934">
        <ele>66</ele>
        <time>2016-07-10T08:22:07.000Z</time>
      </trkpt>
      <trkpt lat="49.26506" lon="1.06939">
        <ele>67</ele>
        <time>2016-07-10T08:22:08.000Z</time>
      </trkpt>
      <trkpt lat="49.26503" lon="1.06944">
        <ele>67</ele>
        <time>2016-07-10T08:22:09.000Z</time>
      </trkpt>
      <trkpt lat="49.26501" lon="1.0695">
        <ele>67</ele>
        <time>2016-07-10T08:22:10.000Z</time>
      </trkpt>
      <trkpt lat="49.26497" lon="1.06955">
        <ele>66</ele>
        <time>2016-07-10T08:22:11.000Z</time>
      </trkpt>
      <trkpt lat="49.26494" lon="1.06961">
        <ele>66</ele>
        <time>2016-07-10T08:22:12.000Z</time>
      </trkpt>
      <trkpt lat="49.26491" lon="1.06966">
        <ele>65</ele>
        <time>2016-07-10T08:22:13.000Z</time>
      </trkpt>
      <trkpt lat="49.26488" lon="1.06971">
        <ele>65</ele>
        <time>2016-07-10T08:22:14.000Z</time>
      </trkpt>
      <trkpt lat="49.26485" lon="1.06976">
        <ele>65</ele>
        <time>2016-07-10T08:22:15.000Z</time>
      </trkpt>
      <trkpt lat="49.26482" lon="1.06981">
        <ele>65</ele>
        <time>2016-07-10T08:22:16.000Z</time>
      </trkpt>
      <trkpt lat="49.26479" lon="1.06985">
        <ele>65</ele>
        <time>2016-07-10T08:22:17.000Z</time>
      </trkpt>
      <trkpt lat="49.26476" lon="1.0699">
        <ele>65</ele>
        <time>2016-07-10T08:22:18.000Z</time>
      </trkpt>
      <trkpt lat="49.26473" lon="1.06994">
        <ele>65</ele>
        <time>2016-07-10T08:22:19.000Z</time>
      </trkpt>
      <trkpt lat="49.2647" lon="1.06998">
        <ele>65</ele>
        <time>2016-07-10T08:22:20.000Z</time>
      </trkpt>
      <trkpt lat="49.26467" lon="1.07001">
        <ele>66</ele>
        <time>2016-07-10T08:22:21.000Z</time>
      </trkpt>
      <trkpt lat="49.26464" lon="1.07005">
        <ele>65</ele>
        <time>2016-07-10T08:22:22.000Z</time>
      </trkpt>
      <trkpt lat="49.26462" lon="1.07009">
        <ele>65</ele>
        <time>2016-07-10T08:22:23.000Z</time>
      </trkpt>
      <trkpt lat="49.26459" lon="1.07014">
        <ele>65</ele>
        <time>2016-07-10T08:22:24.000Z</time>
      </trkpt>
      <trkpt lat="49.26457" lon="1.07018">
        <ele>64</ele>
        <time>2016-07-10T08:22:25.000Z</time>
      </trkpt>
      <trkpt lat="49.26454" lon="1.07022">
        <ele>64</ele>
        <time>2016-07-10T08:22:26.000Z</time>
      </trkpt>
      <trkpt lat="49.26451" lon="1.07027">
        <ele>64</ele>
        <time>2016-07-10T08:22:27.000Z</time>
      </trkpt>
      <trkpt lat="49.26448" lon="1.07032">
        <ele>65</ele>
        <time>2016-07-10T08:22:28.000Z</time>
      </trkpt>
      <trkpt lat="49.26446" lon="1.07036">
        <ele>65</ele>
        <time>2016-07-10T08:22:29.000Z</time>
      </trkpt>
      <trkpt lat="49.26443" lon="1.07041">
        <ele>66</ele>
        <time>2016-07-10T08:22:30.000Z</time>
      </trkpt>
      <trkpt lat="49.26441" lon="1.07045">
        <ele>66</ele>
        <time>2016-07-10T08:22:31.000Z</time>
      </trkpt>
      <trkpt lat="49.26438" lon="1.0705">
        <ele>67</ele>
        <time>2016-07-10T08:22:32.000Z</time>
      </trkpt>
      <trkpt lat="49.26436" lon="1.07055">
        <ele>67</ele>
        <time>2016-07-10T08:22:33.000Z</time>
      </trkpt>
      <trkpt lat="49.26433" lon="1.07059">
        <ele>66</ele>
        <time>2016-07-10T08:22:34.000Z</time>
      </trkpt>
      <trkpt lat="49.26431" lon="1.07063">
        <ele>66</ele>
        <time>2016-07-10T08:22:35.000Z</time>
      </trkpt>
      <trkpt lat="49.26428" lon="1.07067">
        <ele>66</ele>
        <time>2016-07-10T08:22:36.000Z</time>
      </trkpt>
      <trkpt lat="49.26425" lon="1.07071">
        <ele>66</ele>
        <time>2016-07-10T08:22:37.000Z</time>
      </trkpt>
      <trkpt lat="49.26422" lon="1.07075">
        <ele>65</ele>
        <time>2016-07-10T08:22:38.000Z</time>
      </trkpt>
      <trkpt lat="49.26419" lon="1.07079">
        <ele>65</ele>
        <time>2016-07-10T08:22:39.000Z</time>
      </trkpt>
      <trkpt lat="49.26417" lon="1.07084">
        <ele>65</ele>
        <time>2016-07-10T08:22:40.000Z</time>
      </trkpt>
      <trkpt lat="49.26415" lon="1.07088">
        <ele>65</ele>
        <time>2016-07-10T08:22:41.000Z</time>
      </trkpt>
      <trkpt lat="49.26412" lon="1.07092">
        <ele>66</ele>
        <time>2016-07-10T08:22:42.000Z</time>
      </trkpt>
      <trkpt lat="49.26409" lon="1.07097">
        <ele>66</ele>
        <time>2016-07-10T08:22:43.000Z</time>
      </trkpt>
      <trkpt lat="49.26407" lon="1.071">
        <ele>66</ele>
        <time>2016-07-10T08:22:44.000Z</time>
      </trkpt>
      <trkpt lat="49.26404" lon="1.07104">
        <ele>66</ele>
        <time>2016-07-10T08:22:45.000Z</time>
      </trkpt>
      <trkpt lat="49.26402" lon="1.07107">
        <ele>66</ele>
        <time>2016-07-10T08:22:46.000Z</time>
      </trkpt>
      <trkpt lat="49.264" lon="1.07111">
        <ele>67</ele>
        <time>2016-07-10T08:22:47.000Z</time>
      </trkpt>
      <trkpt lat="49.26398" lon="1.07114">
        <ele>67</ele>
        <time>2016-07-10T08:22:48.000Z</time>
      </trkpt>
      <trkpt lat="49.26397" lon="1.07118">
        <ele>67</ele>
        <time>2016-07-10T08:22:49.000Z</time>
      </trkpt>
      <trkpt lat="49.26395" lon="1.07121">
        <ele>67</ele>
        <time>2016-07-10T08:22:50.000Z</time>
      </trkpt>
      <trkpt lat="49.26393" lon="1.07125">
        <ele>67</ele>
        <time>2016-07-10T08:22:51.000Z</time>
      </trkpt>
      <trkpt lat="49.26392" lon="1.07128">
        <ele>67</ele>
        <time>2016-07-10T08:22:52.000Z</time>
      </trkpt>
      <trkpt lat="49.2639" lon="1.07131">
        <ele>67</ele>
        <time>2016-07-10T08:22:53.000Z</time>
      </trkpt>
      <trkpt lat="49.26389" lon="1.07134">
        <ele>67</ele>
        <time>2016-07-10T08:22:54.000Z</time>
      </trkpt>
      <trkpt lat="49.26387" lon="1.07136">
        <ele>67</ele>
        <time>2016-07-10T08:22:55.000Z</time>
      </trkpt>
      <trkpt lat="49.26385" lon="1.0714">
        <ele>67</ele>
        <time>2016-07-10T08:22:56.000Z</time>
      </trkpt>
      <trkpt lat="49.26384" lon="1.07144">
        <ele>68</ele>
        <time>2016-07-10T08:22:57.000Z</time>
      </trkpt>
      <trkpt lat="49.26382" lon="1.07147">
        <ele>68</ele>
        <time>2016-07-10T08:22:58.000Z</time>
      </trkpt>
      <trkpt lat="49.26381" lon="1.0715">
        <ele>67</ele>
        <time>2016-07-10T08:22:59.000Z</time>
      </trkpt>
      <trkpt lat="49.26379" lon="1.07152">
        <ele>67</ele>
        <time>2016-07-10T08:23:00.000Z</time>
      </trkpt>
      <trkpt lat="49.26378" lon="1.07154">
        <ele>68</ele>
        <time>2016-07-10T08:23:01.000Z</time>
      </trkpt>
      <trkpt lat="49.26376" lon="1.07157">
        <ele>67</ele>
        <time>2016-07-10T08:23:02.000Z</time>
      </trkpt>
      <trkpt lat="49.26375" lon="1.07158">
        <ele>67</ele>
        <time>2016-07-10T08:23:03.000Z</time>
      </trkpt>
      <trkpt lat="49.26373" lon="1.0716">
        <ele>68</ele>
        <time>2016-07-10T08:23:04.000Z</time>
      </trkpt>
      <trkpt lat="49.26372" lon="1.07161">
        <ele>68</ele>
        <time>2016-07-10T08:23:05.000Z</time>
      </trkpt>
      <trkpt lat="49.26371" lon="1.07162">
        <ele>68</ele>
        <time>2016-07-10T08:23:06.000Z</time>
      </trkpt>
      <trkpt lat="49.26369" lon="1.07164">
        <ele>69</ele>
        <time>2016-07-10T08:23:07.000Z</time>
      </trkpt>
      <trkpt lat="49.26368" lon="1.07166">
        <ele>69</ele>
        <time>2016-07-10T08:23:08.000Z</time>
      </trkpt>
      <trkpt lat="49.26367" lon="1.07168">
        <ele>70</ele>
        <time>2016-07-10T08:23:09.000Z</time>
      </trkpt>
      <trkpt lat="49.26366" lon="1.0717">
        <ele>71</ele>
        <time>2016-07-10T08:23:10.000Z</time>
      </trkpt>
      <trkpt lat="49.26365" lon="1.07172">
        <ele>72</ele>
        <time>2016-07-10T08:23:11.000Z</time>
      </trkpt>
      <trkpt lat="49.26364" lon="1.07174">
        <ele>72</ele>
        <time>2016-07-10T08:23:12.000Z</time>
      </trkpt>
      <trkpt lat="49.26363" lon="1.07176">
        <ele>72</ele>
        <time>2016-07-10T08:23:13.000Z</time>
      </trkpt>
      <trkpt lat="49.26362" lon="1.07178">
        <ele>73</ele>
        <time>2016-07-10T08:23:14.000Z</time>
      </trkpt>
      <trkpt lat="49.26361" lon="1.0718">
        <ele>73</ele>
        <time>2016-07-10T08:23:15.000Z</time>
      </trkpt>
      <trkpt lat="49.26359" lon="1.07183">
        <ele>73</ele>
        <time>2016-07-10T08:23:16.000Z</time>
      </trkpt>
      <trkpt lat="49.26358" lon="1.07185">
        <ele>73</ele>
        <time>2016-07-10T08:23:17.000Z</time>
      </trkpt>
      <trkpt lat="49.26357" lon="1.07187">
        <ele>73</ele>
        <time>2016-07-10T08:23:18.000Z</time>
      </trkpt>
      <trkpt lat="49.26356" lon="1.07189">
        <ele>72</ele>
        <time>2016-07-10T08:23:19.000Z</time>
      </trkpt>
      <trkpt lat="49.26354" lon="1.07191">
        <ele>73</ele>
        <time>2016-07-10T08:23:20.000Z</time>
      </trkpt>
      <trkpt lat="49.26353" lon="1.07193">
        <ele>73</ele>
        <time>2016-07-10T08:23:21.000Z</time>
      </trkpt>
      <trkpt lat="49.26352" lon="1.07194">
        <ele>73</ele>
        <time>2016-07-10T08:23:22.000Z</time>
      </trkpt>
      <trkpt lat="49.26351" lon="1.07196">
        <ele>73</ele>
        <time>2016-07-10T08:23:23.000Z</time>
      </trkpt>
      <trkpt lat="49.2635" lon="1.07198">
        <ele>73</ele>
        <time>2016-07-10T08:23:24.000Z</time>
      </trkpt>
      <trkpt lat="49.26349" lon="1.072">
        <ele>74</ele>
        <time>2016-07-10T08:23:25.000Z</time>
      </trkpt>
      <trkpt lat="49.26348" lon="1.07202">
        <ele>74</ele>
        <time>2016-07-10T08:23:26.000Z</time>
      </trkpt>
      <trkpt lat="49.26347" lon="1.07204">
        <ele>74</ele>
        <time>2016-07-10T08:23:27.000Z</time>
      </trkpt>
      <trkpt lat="49.26346" lon="1.07206">
        <ele>74</ele>
        <time>2016-07-10T08:23:28.000Z</time>
      </trkpt>
      <trkpt lat="49.26345" lon="1.07208">
        <ele>74</ele>
        <time>2016-07-10T08:23:29.000Z</time>
      </trkpt>
      <trkpt lat="49.26344" lon="1.07211">
        <ele>74</ele>
        <time>2016-07-10T08:23:30.000Z</time>
      </trkpt>
      <trkpt lat="49.26342" lon="1.07213">
        <ele>76</ele>
        <time>2016-07-10T08:23:31.000Z</time>
      </trkpt>
      <trkpt lat="49.26341" lon="1.07215">
        <ele>75</ele>
        <time>2016-07-10T08:23:32.000Z</time>
      </trkpt>
      <trkpt lat="49.2634" lon="1.07217">
        <ele>75</ele>
        <time>2016-07-10T08:23:33.000Z</time>
      </trkpt>
      <trkpt lat="49.26339" lon="1.07219">
        <ele>76</ele>
        <time>2016-07-10T08:23:34.000Z</time>
      </trkpt>
      <trkpt lat="49.26338" lon="1.07221">
        <ele>76</ele>
        <time>2016-07-10T08:23:35.000Z</time>
      </trkpt>
      <trkpt lat="49.26337" lon="1.07222">
        <ele>76</ele>
        <time>2016-07-10T08:23:36.000Z</time>
      </trkpt>
      <trkpt lat="49.26335" lon="1.07224">
        <ele>76</ele>
        <time>2016-07-10T08:23:37.000Z</time>
      </trkpt>
      <trkpt lat="49.26334" lon="1.07226">
        <ele>76</ele>
        <time>2016-07-10T08:23:38.000Z</time>
      </trkpt>
      <trkpt lat="49.26333" lon="1.07227">
        <ele>76</ele>
        <time>2016-07-10T08:23:39.000Z</time>
      </trkpt>
      <trkpt lat="49.26331" lon="1.07229">
        <ele>77</ele>
        <time>2016-07-10T08:23:40.000Z</time>
      </trkpt>
      <trkpt lat="49.2633" lon="1.0723">
        <ele>77</ele>
        <time>2016-07-10T08:23:41.000Z</time>
      </trkpt>
      <trkpt lat="49.26329" lon="1.07232">
        <ele>77</ele>
        <time>2016-07-10T08:23:42.000Z</time>
      </trkpt>
      <trkpt lat="49.26328" lon="1.07233">
        <ele>77</ele>
        <time>2016-07-10T08:23:43.000Z</time>
      </trkpt>
      <trkpt lat="49.26327" lon="1.07235">
        <ele>79</ele>
        <time>2016-07-10T08:23:44.000Z</time>
      </trkpt>
      <trkpt lat="49.26326" lon="1.07237">
        <ele>78</ele>
        <time>2016-07-10T08:23:45.000Z</time>
      </trkpt>
      <trkpt lat="49.26325" lon="1.07239">
        <ele>78</ele>
        <time>2016-07-10T08:23:46.000Z</time>
      </trkpt>
      <trkpt lat="49.26324" lon="1.07241">
        <ele>78</ele>
        <time>2016-07-10T08:23:47.000Z</time>
      </trkpt>
      <trkpt lat="49.26323" lon="1.07243">
        <ele>78</ele>
        <time>2016-07-10T08:23:48.000Z</time>
      </trkpt>
      <trkpt lat="49.26322" lon="1.07245">
        <ele>79</ele>
        <time>2016-07-10T08:23:49.000Z</time>
      </trkpt>
      <trkpt lat="49.26321" lon="1.07246">
        <ele>79</ele>
        <time>2016-07-10T08:23:50.000Z</time>
      </trkpt>
      <trkpt lat="49.26319" lon="1.07248">
        <ele>78</ele>
        <time>2016-07-10T08:23:51.000Z</time>
      </trkpt>
      <trkpt lat="49.26318" lon="1.07249">
        <ele>78</ele>
        <time>2016-07-10T08:23:52.000Z</time>
      </trkpt>
      <trkpt lat="49.26317" lon="1.07251">
        <ele>78</ele>
        <time>2016-07-10T08:23:53.000Z</time>
      </trkpt>
      <trkpt lat="49.26316" lon="1.07253">
        <ele>78</ele>
        <time>2016-07-10T08:23:54.000Z</time>
      </trkpt>
      <trkpt lat="49.26316" lon="1.07255">
        <ele>78</ele>
        <time>2016-07-10T08:23:55.000Z</time>
      </trkpt>
      <trkpt lat="49.26315" lon="1.07257">
        <ele>79</ele>
        <time>2016-07-10T08:23:56.000Z</time>
      </trkpt>
      <trkpt lat="49.26315" lon="1.07258">
        <ele>79</ele>
        <time>2016-07-10T08:23:57.000Z</time>
      </trkpt>
      <trkpt lat="49.26314" lon="1.0726">
        <ele>79</ele>
        <time>2016-07-10T08:23:58.000Z</time>
      </trkpt>
      <trkpt lat="49.26313" lon="1.07261">
        <ele>79</ele>
        <time>2016-07-10T08:23:59.000Z</time>
      </trkpt>
      <trkpt lat="49.26312" lon="1.07261">
        <ele>79</ele>
        <time>2016-07-10T08:24:00.000Z</time>
      </trkpt>
      <trkpt lat="49.26312" lon="1.07261">
        <ele>80</ele>
        <time>2016-07-10T08:24:01.000Z</time>
      </trkpt>
      <trkpt lat="49.26312" lon="1.07261">
        <ele>80</ele>
        <time>2016-07-10T08:24:02.000Z</time>
      </trkpt>
      <trkpt lat="49.26313" lon="1.07261">
        <ele>80</ele>
        <time>2016-07-10T08:24:03.000Z</time>
      </trkpt>
      <trkpt lat="49.26313" lon="1.07261">
        <ele>80</ele>
        <time>2016-07-10T08:24:04.000Z</time>
      </trkpt>
      <trkpt lat="49.26313" lon="1.07262">
        <ele>81</ele>
        <time>2016-07-10T08:24:05.000Z</time>
      </trkpt>
      <trkpt lat="49.26313" lon="1.07262">
        <ele>81</ele>
        <time>2016-07-10T08:24:06.000Z</time>
      </trkpt>
      <trkpt lat="49.26312" lon="1.07263">
        <ele>81</ele>
        <time>2016-07-10T08:24:07.000Z</time>
      </trkpt>
      <trkpt lat="49.26312" lon="1.07264">
        <ele>82</ele>
        <time>2016-07-10T08:24:08.000Z</time>
      </trkpt>
      <trkpt lat="49.26311" lon="1.07265">
        <ele>82</ele>
        <time>2016-07-10T08:24:09.000Z</time>
      </trkpt>
      <trkpt lat="49.26311" lon="1.07266">
        <ele>82</ele>
        <time>2016-07-10T08:24:10.000Z</time>
      </trkpt>
      <trkpt lat="49.2631" lon="1.07267">
        <ele>82</ele>
        <time>2016-07-10T08:24:11.000Z</time>
      </trkpt>
      <trkpt lat="49.2631" lon="1.07268">
        <ele>82</ele>
        <time>2016-07-10T08:24:12.000Z</time>
      </trkpt>
      <trkpt lat="49.26309" lon="1.07269">
        <ele>83</ele>
        <time>2016-07-10T08:24:13.000Z</time>
      </trkpt>
      <trkpt lat="49.26309" lon="1.0727">
        <ele>83</ele>
        <time>2016-07-10T08:24:14.000Z</time>
      </trkpt>
      <trkpt lat="49.26308" lon="1.07271">
        <ele>83</ele>
        <time>2016-07-10T08:24:15.000Z</time>
      </trkpt>
      <trkpt lat="49.26307" lon="1.07272">
        <ele>83</ele>
        <time>2016-07-10T08:24:16.000Z</time>
      </trkpt>
      <trkpt lat="49.26307" lon="1.07274">
        <ele>83</ele>
        <time>2016-07-10T08:24:17.000Z</time>
      </trkpt>
      <trkpt lat="49.26306" lon="1.07275">
        <ele>83</ele>
        <time>2016-07-10T08:24:18.000Z</time>
      </trkpt>
      <trkpt lat="49.26306" lon="1.07276">
        <ele>84</ele>
        <time>2016-07-10T08:24:19.000Z</time>
      </trkpt>
      <trkpt lat="49.26305" lon="1.07277">
        <ele>84</ele>
        <time>2016-07-10T08:24:20.000Z</time>
      </trkpt>
      <trkpt lat="49.26304" lon="1.07278">
        <ele>84</ele>
        <time>2016-07-10T08:24:21.000Z</time>
      </trkpt>
      <trkpt lat="49.26304" lon="1.07279">
        <ele>84</ele>
        <time>2016-07-10T08:24:22.000Z</time>
      </trkpt>
      <trkpt lat="49.26304" lon="1.0728">
        <ele>84</ele>
        <time>2016-07-10T08:24:23.000Z</time>
      </trkpt>
      <trkpt lat="49.26303" lon="1.07282">
        <ele>85</ele>
        <time>2016-07-10T08:24:24.000Z</time>
      </trkpt>
      <trkpt lat="49.26303" lon="1.07284">
        <ele>85</ele>
        <time>2016-07-10T08:24:25.000Z</time>
      </trkpt>
      <trkpt lat="49.26302" lon="1.07285">
        <ele>85</ele>
        <time>2016-07-10T08:24:26.000Z</time>
      </trkpt>
      <trkpt lat="49.26302" lon="1.07287">
        <ele>85</ele>
        <time>2016-07-10T08:24:27.000Z</time>
      </trkpt>
      <trkpt lat="49.26301" lon="1.07288">
        <ele>85</ele>
        <time>2016-07-10T08:24:28.000Z</time>
      </trkpt>
      <trkpt lat="49.26301" lon="1.07289">
        <ele>85</ele>
        <time>2016-07-10T08:24:29.000Z</time>
      </trkpt>
      <trkpt lat="49.263" lon="1.07291">
        <ele>86</ele>
        <time>2016-07-10T08:24:30.000Z</time>
      </trkpt>
      <trkpt lat="49.263" lon="1.07292">
        <ele>86</ele>
        <time>2016-07-10T08:24:31.000Z</time>
      </trkpt>
      <trkpt lat="49.26299" lon="1.07293">
        <ele>86</ele>
        <time>2016-07-10T08:24:32.000Z</time>
      </trkpt>
      <trkpt lat="49.26298" lon="1.07294">
        <ele>86</ele>
        <time>2016-07-10T08:24:33.000Z</time>
      </trkpt>
      <trkpt lat="49.26298" lon="1.07295">
        <ele>86</ele>
        <time>2016-07-10T08:24:34.000Z</time>
      </trkpt>
      <trkpt lat="49.26297" lon="1.07296">
        <ele>87</ele>
        <time>2016-07-10T08:24:35.000Z</time>
      </trkpt>
      <trkpt lat="49.26296" lon="1.07296">
        <ele>87</ele>
        <time>2016-07-10T08:24:36.000Z</time>
      </trkpt>
      <trkpt lat="49.26296" lon="1.07297">
        <ele>87</ele>
        <time>2016-07-10T08:24:37.000Z</time>
      </trkpt>
      <trkpt lat="49.26295" lon="1.07298">
        <ele>87</ele>
        <time>2016-07-10T08:24:38.000Z</time>
      </trkpt>
      <trkpt lat="49.26295" lon="1.07299">
        <ele>87</ele>
        <time>2016-07-10T08:24:39.000Z</time>
      </trkpt>
      <trkpt lat="49.26294" lon="1.073">
        <ele>87</ele>
        <time>2016-07-10T08:24:40.000Z</time>
      </trkpt>
      <trkpt lat="49.26294" lon="1.07301">
        <ele>87</ele>
        <time>2016-07-10T08:24:41.000Z</time>
      </trkpt>
      <trkpt lat="49.26293" lon="1.07302">
        <ele>88</ele>
        <time>2016-07-10T08:24:42.000Z</time>
      </trkpt>
      <trkpt lat="49.26292" lon="1.07303">
        <ele>88</ele>
        <time>2016-07-10T08:24:43.000Z</time>
      </trkpt>
      <trkpt lat="49.26292" lon="1.07304">
        <ele>88</ele>
        <time>2016-07-10T08:24:44.000Z</time>
      </trkpt>
      <trkpt lat="49.26292" lon="1.07305">
        <ele>88</ele>
        <time>2016-07-10T08:24:45.000Z</time>
      </trkpt>
      <trkpt lat="49.26291" lon="1.07306">
        <ele>88</ele>
        <time>2016-07-10T08:24:46.000Z</time>
      </trkpt>
      <trkpt lat="49.26291" lon="1.07307">
        <ele>89</ele>
        <time>2016-07-10T08:24:47.000Z</time>
      </trkpt>
      <trkpt lat="49.2629" lon="1.07308">
        <ele>89</ele>
        <time>2016-07-10T08:24:48.000Z</time>
      </trkpt>
      <trkpt lat="49.2629" lon="1.07308">
        <ele>89</ele>
        <time>2016-07-10T08:24:49.000Z</time>
      </trkpt>
      <trkpt lat="49.26289" lon="1.07309">
        <ele>89</ele>
        <time>2016-07-10T08:24:50.000Z</time>
      </trkpt>
      <trkpt lat="49.26289" lon="1.0731">
        <ele>90</ele>
        <time>2016-07-10T08:24:51.000Z</time>
      </trkpt>
      <trkpt lat="49.26288" lon="1.07311">
        <ele>90</ele>
        <time>2016-07-10T08:24:52.000Z</time>
      </trkpt>
      <trkpt lat="49.26288" lon="1.07312">
        <ele>90</ele>
        <time>2016-07-10T08:24:53.000Z</time>
      </trkpt>
      <trkpt lat="49.26287" lon="1.07312">
        <ele>90</ele>
        <time>2016-07-10T08:24:54.000Z</time>
      </trkpt>
      <trkpt lat="49.26287" lon="1.07313">
        <ele>90</ele>
        <time>2016-07-10T08:24:55.000Z</time>
      </trkpt>
      <trkpt lat="49.26286" lon="1.07314">
        <ele>91</ele>
        <time>2016-07-10T08:24:56.000Z</time>
      </trkpt>
      <trkpt lat="49.26286" lon="1.07315">
        <ele>91</ele>
        <time>2016-07-10T08:24:57.000Z</time>
      </trkpt>
      <trkpt lat="49.26285" lon="1.07316">
        <ele>91</ele>
        <time>2016-07-10T08:24:58.000Z</time>
      </trkpt>
      <trkpt lat="49.26285" lon="1.07316">
        <ele>91</ele>
        <time>2016-07-10T08:24:59.000Z</time>
      </trkpt>
      <trkpt lat="49.26284" lon="1.07317">
        <ele>91</ele>
        <time>2016-07-10T08:25:00.000Z</time>
      </trkpt>
      <trkpt lat="49.26284" lon="1.07318">
        <ele>92</ele>
        <time>2016-07-10T08:25:01.000Z</time>
      </trkpt>
      <trkpt lat="49.26283" lon="1.07319">
        <ele>92</ele>
        <time>2016-07-10T08:25:02.000Z</time>
      </trkpt>
      <trkpt lat="49.26283" lon="1.0732">
        <ele>92</ele>
        <time>2016-07-10T08:25:03.000Z</time>
      </trkpt>
      <trkpt lat="49.26282" lon="1.07321">
        <ele>92</ele>
        <time>2016-07-10T08:25:04.000Z</time>
      </trkpt>
      <trkpt lat="49.26282" lon="1.07323">
        <ele>93</ele>
        <time>2016-07-10T08:25:05.000Z</time>
      </trkpt>
      <trkpt lat="49.26281" lon="1.07324">
        <ele>93</ele>
        <time>2016-07-10T08:25:06.000Z</time>
      </trkpt>
      <trkpt lat="49.26281" lon="1.07325">
        <ele>93</ele>
        <time>2016-07-10T08:25:07.000Z</time>
      </trkpt>
      <trkpt lat="49.2628" lon="1.07326">
        <ele>93</ele>
        <time>2016-07-10T08:25:08.000Z</time>
      </trkpt>
      <trkpt lat="49.26279" lon="1.07327">
        <ele>94</ele>
        <time>2016-07-10T08:25:09.000Z</time>
      </trkpt>
      <trkpt lat="49.26279" lon="1.07327">
        <ele>94</ele>
        <time>2016-07-10T08:25:10.000Z</time>
      </trkpt>
      <trkpt lat="49.26278" lon="1.07328">
        <ele>94</ele>
        <time>2016-07-10T08:25:11.000Z</time>
      </trkpt>
      <trkpt lat="49.26278" lon="1.07329">
        <ele>95</ele>
        <time>2016-07-10T08:25:12.000Z</time>
      </trkpt>
      <trkpt lat="49.26277" lon="1.0733">
        <ele>95</ele>
        <time>2016-07-10T08:25:13.000Z</time>
      </trkpt>
      <trkpt lat="49.26276" lon="1.07331">
        <ele>95</ele>
        <time>2016-07-10T08:25:14.000Z</time>
      </trkpt>
      <trkpt lat="49.26275" lon="1.07332">
        <ele>95</ele>
        <time>2016-07-10T08:25:15.000Z</time>
      </trkpt>
      <trkpt lat="49.26275" lon="1.07332">
        <ele>95</ele>
        <time>2016-07-10T08:25:16.000Z</time>
      </trkpt>
      <trkpt lat="49.26274" lon="1.07333">
        <ele>96</ele>
        <time>2016-07-10T08:25:17.000Z</time>
      </trkpt>
      <trkpt lat="49.26273" lon="1.07334">
        <ele>96</ele>
        <time>2016-07-10T08:25:18.000Z</time>
      </trkpt>
      <trkpt lat="49.26273" lon="1.07335">
        <ele>96</ele>
        <time>2016-07-10T08:25:19.000Z</time>
      </trkpt>
      <trkpt lat="49.26272" lon="1.07337">
        <ele>96</ele>
        <time>2016-07-10T08:25:20.000Z</time>
      </trkpt>
      <trkpt lat="49.26271" lon="1.07338">
        <ele>96</ele>
        <time>2016-07-10T08:25:21.000Z</time>
      </trkpt>
      <trkpt lat="49.2627" lon="1.07339">
        <ele>96</ele>
        <time>2016-07-10T08:25:22.000Z</time>
      </trkpt>
      <trkpt lat="49.2627" lon="1.0734">
        <ele>96</ele>
        <time>2016-07-10T08:25:23.000Z</time>
      </trkpt>
      <trkpt lat="49.26269" lon="1.07341">
        <ele>97</ele>
        <time>2016-07-10T08:25:24.000Z</time>
      </trkpt>
      <trkpt lat="49.26268" lon="1.07342">
        <ele>97</ele>
        <time>2016-07-10T08:25:25.000Z</time>
      </trkpt>
      <trkpt lat="49.26268" lon="1.07343">
        <ele>97</ele>
        <time>2016-07-10T08:25:26.000Z</time>
      </trkpt>
      <trkpt lat="49.26267" lon="1.07343">
        <ele>97</ele>
        <time>2016-07-10T08:25:27.000Z</time>
      </trkpt>
      <trkpt lat="49.26267" lon="1.07343">
        <ele>97</ele>
        <time>2016-07-10T08:25:28.000Z</time>
      </trkpt>
      <trkpt lat="49.26266" lon="1.07344">
        <ele>97</ele>
        <time>2016-07-10T08:25:29.000Z</time>
      </trkpt>
      <trkpt lat="49.26266" lon="1.07345">
        <ele>97</ele>
        <time>2016-07-10T08:25:30.000Z</time>
      </trkpt>
      <trkpt lat="49.26266" lon="1.07346">
        <ele>97</ele>
        <time>2016-07-10T08:25:31.000Z</time>
      </trkpt>
      <trkpt lat="49.26265" lon="1.07348">
        <ele>97</ele>
        <time>2016-07-10T08:25:32.000Z</time>
      </trkpt>
      <trkpt lat="49.26264" lon="1.07349">
        <ele>97</ele>
        <time>2016-07-10T08:25:33.000Z</time>
      </trkpt>
      <trkpt lat="49.26263" lon="1.07351">
        <ele>97</ele>
        <time>2016-07-10T08:25:34.000Z</time>
      </trkpt>
      <trkpt lat="49.26262" lon="1.07352">
        <ele>97</ele>
        <time>2016-07-10T08:25:35.000Z</time>
      </trkpt>
      <trkpt lat="49.26261" lon="1.07354">
        <ele>98</ele>
        <time>2016-07-10T08:25:36.000Z</time>
      </trkpt>
      <trkpt lat="49.26259" lon="1.07356">
        <ele>98</ele>
        <time>2016-07-10T08:25:37.000Z</time>
      </trkpt>
      <trkpt lat="49.26258" lon="1.07358">
        <ele>98</ele>
        <time>2016-07-10T08:25:38.000Z</time>
      </trkpt>
      <trkpt lat="49.26257" lon="1.07359">
        <ele>98</ele>
        <time>2016-07-10T08:25:39.000Z</time>
      </trkpt>
      <trkpt lat="49.26256" lon="1.07361">
        <ele>98</ele>
        <time>2016-07-10T08:25:40.000Z</time>
      </trkpt>
      <trkpt lat="49.26255" lon="1.07363">
        <ele>98</ele>
        <time>2016-07-10T08:25:41.000Z</time>
      </trkpt>
      <trkpt lat="49.26254" lon="1.07365">
        <ele>98</ele>
        <time>2016-07-10T08:25:42.000Z</time>
      </trkpt>
      <trkpt lat="49.26252" lon="1.07367">
        <ele>98</ele>
        <time>2016-07-10T08:25:43.000Z</time>
      </trkpt>
      <trkpt lat="49.26251" lon="1.07369">
        <ele>99</ele>
        <time>2016-07-10T08:25:44.000Z</time>
      </trkpt>
      <trkpt lat="49.2625" lon="1.0737">
        <ele>99</ele>
        <time>2016-07-10T08:25:45.000Z</time>
      </trkpt>
      <trkpt lat="49.26249" lon="1.07372">
        <ele>99</ele>
        <time>2016-07-10T08:25:46.000Z</time>
      </trkpt>
      <trkpt lat="49.26248" lon="1.07374">
        <ele>99</ele>
        <time>2016-07-10T08:25:47.000Z</time>
      </trkpt>
      <trkpt lat="49.26247" lon="1.07376">
        <ele>99</ele>
        <time>2016-07-10T08:25:48.000Z</time>
      </trkpt>
      <trkpt lat="49.26246" lon="1.07378">
        <ele>99</ele>
        <time>2016-07-10T08:25:49.000Z</time>
      </trkpt>
      <trkpt lat="49.26245" lon="1.0738">
        <ele>99</ele>
        <time>2016-07-10T08:25:50.000Z</time>
      </trkpt>
      <trkpt lat="49.26244" lon="1.07382">
        <ele>100</ele>
        <time>2016-07-10T08:25:51.000Z</time>
      </trkpt>
      <trkpt lat="49.26243" lon="1.07383">
        <ele>100</ele>
        <time>2016-07-10T08:25:52.000Z</time>
      </trkpt>
      <trkpt lat="49.26242" lon="1.07385">
        <ele>100</ele>
        <time>2016-07-10T08:25:53.000Z</time>
      </trkpt>
      <trkpt lat="49.2624" lon="1.07387">
        <ele>100</ele>
        <time>2016-07-10T08:25:54.000Z</time>
      </trkpt>
      <trkpt lat="49.26239" lon="1.07388">
        <ele>101</ele>
        <time>2016-07-10T08:25:55.000Z</time>
      </trkpt>
      <trkpt lat="49.26238" lon="1.0739">
        <ele>101</ele>
        <time>2016-07-10T08:25:56.000Z</time>
      </trkpt>
      <trkpt lat="49.26237" lon="1.07392">
        <ele>101</ele>
        <time>2016-07-10T08:25:57.000Z</time>
      </trkpt>
      <trkpt lat="49.26236" lon="1.07395">
        <ele>101</ele>
        <time>2016-07-10T08:25:58.000Z</time>
      </trkpt>
      <trkpt lat="49.26235" lon="1.07397">
        <ele>101</ele>
        <time>2016-07-10T08:25:59.000Z</time>
      </trkpt>
      <trkpt lat="49.26234" lon="1.07399">
        <ele>102</ele>
        <time>2016-07-10T08:26:00.000Z</time>
      </trkpt>
      <trkpt lat="49.26233" lon="1.07401">
        <ele>102</ele>
        <time>2016-07-10T08:26:01.000Z</time>
      </trkpt>
      <trkpt lat="49.26232" lon="1.07403">
        <ele>102</ele>
        <time>2016-07-10T08:26:02.000Z</time>
      </trkpt>
      <trkpt lat="49.26231" lon="1.07405">
        <ele>102</ele>
        <time>2016-07-10T08:26:03.000Z</time>
      </trkpt>
      <trkpt lat="49.2623" lon="1.07407">
        <ele>102</ele>
        <time>2016-07-10T08:26:04.000Z</time>
      </trkpt>
      <trkpt lat="49.26228" lon="1.07409">
        <ele>102</ele>
        <time>2016-07-10T08:26:05.000Z</time>
      </trkpt>
      <trkpt lat="49.26227" lon="1.07411">
        <ele>102</ele>
        <time>2016-07-10T08:26:06.000Z</time>
      </trkpt>
      <trkpt lat="49.26226" lon="1.07413">
        <ele>102</ele>
        <time>2016-07-10T08:26:07.000Z</time>
      </trkpt>
      <trkpt lat="49.26224" lon="1.07415">
        <ele>102</ele>
        <time>2016-07-10T08:26:08.000Z</time>
      </trkpt>
      <trkpt lat="49.26223" lon="1.07417">
        <ele>103</ele>
        <time>2016-07-10T08:26:09.000Z</time>
      </trkpt>
      <trkpt lat="49.26222" lon="1.07419">
        <ele>103</ele>
        <time>2016-07-10T08:26:10.000Z</time>
      </trkpt>
      <trkpt lat="49.2622" lon="1.0742">
        <ele>103</ele>
        <time>2016-07-10T08:26:11.000Z</time>
      </trkpt>
      <trkpt lat="49.26219" lon="1.07422">
        <ele>103</ele>
        <time>2016-07-10T08:26:12.000Z</time>
      </trkpt>
      <trkpt lat="49.26218" lon="1.07423">
        <ele>103</ele>
        <time>2016-07-10T08:26:13.000Z</time>
      </trkpt>
      <trkpt lat="49.26217" lon="1.07425">
        <ele>104</ele>
        <time>2016-07-10T08:26:14.000Z</time>
      </trkpt>
      <trkpt lat="49.26216" lon="1.07427">
        <ele>104</ele>
        <time>2016-07-10T08:26:15.000Z</time>
      </trkpt>
      <trkpt lat="49.26215" lon="1.07428">
        <ele>104</ele>
        <time>2016-07-10T08:26:16.000Z</time>
      </trkpt>
      <trkpt lat="49.26214" lon="1.0743">
        <ele>104</ele>
        <time>2016-07-10T08:26:17.000Z</time>
      </trkpt>
      <trkpt lat="49.26213" lon="1.07432">
        <ele>105</ele>
        <time>2016-07-10T08:26:18.000Z</time>
      </trkpt>
      <trkpt lat="49.26212" lon="1.07435">
        <ele>105</ele>
        <time>2016-07-10T08:26:19.000Z</time>
      </trkpt>
      <trkpt lat="49.26211" lon="1.07437">
        <ele>105</ele>
        <time>2016-07-10T08:26:20.000Z</time>
      </trkpt>
      <trkpt lat="49.26209" lon="1.07438">
        <ele>105</ele>
        <time>2016-07-10T08:26:21.000Z</time>
      </trkpt>
      <trkpt lat="49.26208" lon="1.0744">
        <ele>105</ele>
        <time>2016-07-10T08:26:22.000Z</time>
      </trkpt>
      <trkpt lat="49.26207" lon="1.07442">
        <ele>106</ele>
        <time>2016-07-10T08:26:23.000Z</time>
      </trkpt>
      <trkpt lat="49.26206" lon="1.07444">
        <ele>106</ele>
        <time>2016-07-10T08:26:24.000Z</time>
      </trkpt>
      <trkpt lat="49.26205" lon="1.07446">
        <ele>106</ele>
        <time>2016-07-10T08:26:25.000Z</time>
      </trkpt>
      <trkpt lat="49.26204" lon="1.07447">
        <ele>106</ele>
        <time>2016-07-10T08:26:26.000Z</time>
      </trkpt>
      <trkpt lat="49.26203" lon="1.07449">
        <ele>106</ele>
        <time>2016-07-10T08:26:27.000Z</time>
      </trkpt>
      <trkpt lat="49.26202" lon="1.07451">
        <ele>107</ele>
        <time>2016-07-10T08:26:28.000Z</time>
      </trkpt>
      <trkpt lat="49.26201" lon="1.07453">
        <ele>107</ele>
        <time>2016-07-10T08:26:29.000Z</time>
      </trkpt>
      <trkpt lat="49.262" lon="1.07456">
        <ele>107</ele>
        <time>2016-07-10T08:26:30.000Z</time>
      </trkpt>
      <trkpt lat="49.26199" lon="1.07458">
        <ele>108</ele>
        <time>2016-07-10T08:26:31.000Z</time>
      </trkpt>
      <trkpt lat="49.26199" lon="1.07461">
        <ele>108</ele>
        <time>2016-07-10T08:26:32.000Z</time>
      </trkpt>
      <trkpt lat="49.26198" lon="1.07463">
        <ele>108</ele>
        <time>2016-07-10T08:26:33.000Z</time>
      </trkpt>
      <trkpt lat="49.26197" lon="1.07465">
        <ele>107</ele>
        <time>2016-07-10T08:26:34.000Z</time>
      </trkpt>
      <trkpt lat="49.26195" lon="1.07467">
        <ele>108</ele>
        <time>2016-07-10T08:26:35.000Z</time>
      </trkpt>
      <trkpt lat="49.26194" lon="1.0747">
        <ele>108</ele>
        <time>2016-07-10T08:26:36.000Z</time>
      </trkpt>
      <trkpt lat="49.26193" lon="1.07472">
        <ele>108</ele>
        <time>2016-07-10T08:26:37.000Z</time>
      </trkpt>
      <trkpt lat="49.26192" lon="1.07474">
        <ele>108</ele>
        <time>2016-07-10T08:26:38.000Z</time>
      </trkpt>
      <trkpt lat="49.26191" lon="1.07476">
        <ele>108</ele>
        <time>2016-07-10T08:26:39.000Z</time>
      </trkpt>
      <trkpt lat="49.2619" lon="1.07478">
        <ele>109</ele>
        <time>2016-07-10T08:26:40.000Z</time>
      </trkpt>
      <trkpt lat="49.26188" lon="1.07481">
        <ele>109</ele>
        <time>2016-07-10T08:26:41.000Z</time>
      </trkpt>
      <trkpt lat="49.26187" lon="1.07483">
        <ele>109</ele>
        <time>2016-07-10T08:26:42.000Z</time>
      </trkpt>
      <trkpt lat="49.26186" lon="1.07485">
        <ele>109</ele>
        <time>2016-07-10T08:26:43.000Z</time>
      </trkpt>
      <trkpt lat="49.26185" lon="1.07487">
        <ele>109</ele>
        <time>2016-07-10T08:26:44.000Z</time>
      </trkpt>
      <trkpt lat="49.26184" lon="1.07489">
        <ele>109</ele>
        <time>2016-07-10T08:26:45.000Z</time>
      </trkpt>
      <trkpt lat="49.26182" lon="1.07492">
        <ele>110</ele>
        <time>2016-07-10T08:26:46.000Z</time>
      </trkpt>
      <trkpt lat="49.26181" lon="1.07494">
        <ele>110</ele>
        <time>2016-07-10T08:26:47.000Z</time>
      </trkpt>
      <trkpt lat="49.2618" lon="1.07496">
        <ele>110</ele>
        <time>2016-07-10T08:26:48.000Z</time>
      </trkpt>
      <trkpt lat="49.26178" lon="1.07498">
        <ele>110</ele>
        <time>2016-07-10T08:26:49.000Z</time>
      </trkpt>
      <trkpt lat="49.26177" lon="1.075">
        <ele>110</ele>
        <time>2016-07-10T08:26:50.000Z</time>
      </trkpt>
      <trkpt lat="49.26175" lon="1.07503">
        <ele>109</ele>
        <time>2016-07-10T08:26:51.000Z</time>
      </trkpt>
      <trkpt lat="49.26173" lon="1.07505">
        <ele>110</ele>
        <time>2016-07-10T08:26:52.000Z</time>
      </trkpt>
      <trkpt lat="49.26172" lon="1.07507">
        <ele>109</ele>
        <time>2016-07-10T08:26:53.000Z</time>
      </trkpt>
      <trkpt lat="49.2617" lon="1.0751">
        <ele>110</ele>
        <time>2016-07-10T08:26:54.000Z</time>
      </trkpt>
      <trkpt lat="49.26168" lon="1.07512">
        <ele>110</ele>
        <time>2016-07-10T08:26:55.000Z</time>
      </trkpt>
      <trkpt lat="49.26167" lon="1.07515">
        <ele>110</ele>
        <time>2016-07-10T08:26:56.000Z</time>
      </trkpt>
      <trkpt lat="49.26165" lon="1.07517">
        <ele>110</ele>
        <time>2016-07-10T08:26:57.000Z</time>
      </trkpt>
      <trkpt lat="49.26163" lon="1.07519">
        <ele>110</ele>
        <time>2016-07-10T08:26:58.000Z</time>
      </trkpt>
      <trkpt lat="49.26161" lon="1.07521">
        <ele>110</ele>
        <time>2016-07-10T08:26:59.000Z</time>
      </trkpt>
      <trkpt lat="49.26159" lon="1.07523">
        <ele>110</ele>
        <time>2016-07-10T08:27:00.000Z</time>
      </trkpt>
      <trkpt lat="49.26158" lon="1.07526">
        <ele>111</ele>
        <time>2016-07-10T08:27:01.000Z</time>
      </trkpt>
      <trkpt lat="49.26157" lon="1.07528">
        <ele>112</ele>
        <time>2016-07-10T08:27:02.000Z</time>
      </trkpt>
      <trkpt lat="49.26155" lon="1.07529">
        <ele>113</ele>
        <time>2016-07-10T08:27:03.000Z</time>
      </trkpt>
      <trkpt lat="49.26153" lon="1.0753">
        <ele>113</ele>
        <time>2016-07-10T08:27:04.000Z</time>
      </trkpt>
      <trkpt lat="49.26151" lon="1.07531">
        <ele>114</ele>
        <time>2016-07-10T08:27:05.000Z</time>
      </trkpt>
      <trkpt lat="49.2615" lon="1.07531">
        <ele>114</ele>
        <time>2016-07-10T08:27:06.000Z</time>
      </trkpt>
      <trkpt lat="49.26148" lon="1.07532">
        <ele>114</ele>
        <time>2016-07-10T08:27:07.000Z</time>
      </trkpt>
      <trkpt lat="49.26147" lon="1.07533">
        <ele>114</ele>
        <time>2016-07-10T08:27:08.000Z</time>
      </trkpt>
      <trkpt lat="49.26146" lon="1.07535">
        <ele>115</ele>
        <time>2016-07-10T08:27:09.000Z</time>
      </trkpt>
      <trkpt lat="49.26145" lon="1.07537">
        <ele>116</ele>
        <time>2016-07-10T08:27:10.000Z</time>
      </trkpt>
      <trkpt lat="49.26145" lon="1.0754">
        <ele>116</ele>
        <time>2016-07-10T08:27:11.000Z</time>
      </trkpt>
      <trkpt lat="49.26145" lon="1.07542">
        <ele>116</ele>
        <time>2016-07-10T08:27:12.000Z</time>
      </trkpt>
      <trkpt lat="49.26145" lon="1.07544">
        <ele>117</ele>
        <time>2016-07-10T08:27:13.000Z</time>
      </trkpt>
      <trkpt lat="49.26145" lon="1.07547">
        <ele>117</ele>
        <time>2016-07-10T08:27:14.000Z</time>
      </trkpt>
      <trkpt lat="49.26145" lon="1.07549">
        <ele>117</ele>
        <time>2016-07-10T08:27:15.000Z</time>
      </trkpt>
      <trkpt lat="49.26145" lon="1.07552">
        <ele>117</ele>
        <time>2016-07-10T08:27:16.000Z</time>
      </trkpt>
      <trkpt lat="49.26145" lon="1.07554">
        <ele>118</ele>
        <time>2016-07-10T08:27:17.000Z</time>
      </trkpt>
      <trkpt lat="49.26146" lon="1.07555">
        <ele>118</ele>
        <time>2016-07-10T08:27:18.000Z</time>
      </trkpt>
      <trkpt lat="49.26146" lon="1.07555">
        <ele>118</ele>
        <time>2016-07-10T08:27:19.000Z</time>
      </trkpt>
      <trkpt lat="49.26146" lon="1.07555">
        <ele>118</ele>
        <time>2016-07-10T08:27:20.000Z</time>
      </trkpt>
      <trkpt lat="49.26147" lon="1.07554">
        <ele>118</ele>
        <time>2016-07-10T08:27:21.000Z</time>
      </trkpt>
      <trkpt lat="49.26147" lon="1.07554">
        <ele>118</ele>
        <time>2016-07-10T08:27:22.000Z</time>
      </trkpt>
      <trkpt lat="49.26147" lon="1.07554">
        <ele>119</ele>
        <time>2016-07-10T08:27:23.000Z</time>
      </trkpt>
      <trkpt lat="49.26147" lon="1.07554">
        <ele>119</ele>
        <time>2016-07-10T08:27:24.000Z</time>
      </trkpt>
      <trkpt lat="49.26147" lon="1.07554">
        <ele>119</ele>
        <time>2016-07-10T08:27:25.000Z</time>
      </trkpt>
      <trkpt lat="49.26148" lon="1.07555">
        <ele>119</ele>
        <time>2016-07-10T08:27:26.000Z</time>
      </trkpt>
      <trkpt lat="49.26148" lon="1.07555">
        <ele>119</ele>
        <time>2016-07-10T08:27:27.000Z</time>
      </trkpt>
      <trkpt lat="49.26148" lon="1.07555">
        <ele>119</ele>
        <time>2016-07-10T08:27:28.000Z</time>
      </trkpt>
      <trkpt lat="49.26148" lon="1.07554">
        <ele>119</ele>
        <time>2016-07-10T08:27:29.000Z</time>
      </trkpt>
      <trkpt lat="49.26148" lon="1.07554">
        <ele>119</ele>
        <time>2016-07-10T08:27:30.000Z</time>
      </trkpt>
      <trkpt lat="49.26148" lon="1.07554">
        <ele>119</ele>
        <time>2016-07-10T08:27:31.000Z</time>
      </trkpt>
      <trkpt lat="49.26148" lon="1.07554">
        <ele>119</ele>
        <time>2016-07-10T08:27:32.000Z</time>
      </trkpt>
      <trkpt lat="49.26147" lon="1.07554">
        <ele>119</ele>
        <time>2016-07-10T08:27:33.000Z</time>
      </trkpt>
      <trkpt lat="49.26147" lon="1.07554">
        <ele>119</ele>
        <time>2016-07-10T08:27:34.000Z</time>
      </trkpt>
      <trkpt lat="49.26147" lon="1.07554">
        <ele>119</ele>
        <time>2016-07-10T08:27:35.000Z</time>
      </trkpt>
      <trkpt lat="49.26147" lon="1.07554">
        <ele>119</ele>
        <time>2016-07-10T08:27:36.000Z</time>
      </trkpt>
      <trkpt lat="49.26148" lon="1.07554">
        <ele>120</ele>
        <time>2016-07-10T08:27:37.000Z</time>
      </trkpt>
      <trkpt lat="49.26148" lon="1.07554">
        <ele>120</ele>
        <time>2016-07-10T08:27:38.000Z</time>
      </trkpt>
      <trkpt lat="49.26148" lon="1.07554">
        <ele>120</ele>
        <time>2016-07-10T08:27:39.000Z</time>
      </trkpt>
      <trkpt lat="49.26148" lon="1.07554">
        <ele>120</ele>
        <time>2016-07-10T08:27:40.000Z</time>
      </trkpt>
      <trkpt lat="49.26148" lon="1.07554">
        <ele>120</ele>
        <time>2016-07-10T08:27:41.000Z</time>
      </trkpt>
      <trkpt lat="49.26148" lon="1.07555">
        <ele>120</ele>
        <time>2016-07-10T08:27:42.000Z</time>
      </trkpt>
      <trkpt lat="49.26147" lon="1.07555">
        <ele>120</ele>
        <time>2016-07-10T08:27:43.000Z</time>
      </trkpt>
      <trkpt lat="49.26147" lon="1.07556">
        <ele>120</ele>
        <time>2016-07-10T08:27:44.000Z</time>
      </trkpt>
      <trkpt lat="49.26147" lon="1.07557">
        <ele>119</ele>
        <time>2016-07-10T08:27:45.000Z</time>
      </trkpt>
      <trkpt lat="49.26146" lon="1.07558">
        <ele>119</ele>
        <time>2016-07-10T08:27:46.000Z</time>
      </trkpt>
      <trkpt lat="49.26146" lon="1.07559">
        <ele>119</ele>
        <time>2016-07-10T08:27:47.000Z</time>
      </trkpt>
      <trkpt lat="49.26145" lon="1.0756">
        <ele>119</ele>
        <time>2016-07-10T08:27:48.000Z</time>
      </trkpt>
      <trkpt lat="49.26145" lon="1.07562">
        <ele>119</ele>
        <time>2016-07-10T08:27:49.000Z</time>
      </trkpt>
      <trkpt lat="49.26144" lon="1.07564">
        <ele>119</ele>
        <time>2016-07-10T08:27:50.000Z</time>
      </trkpt>
      <trkpt lat="49.26143" lon="1.07566">
        <ele>119</ele>
        <time>2016-07-10T08:27:51.000Z</time>
      </trkpt>
      <trkpt lat="49.26141" lon="1.07568">
        <ele>119</ele>
        <time>2016-07-10T08:27:52.000Z</time>
      </trkpt>
      <trkpt lat="49.2614" lon="1.0757">
        <ele>119</ele>
        <time>2016-07-10T08:27:53.000Z</time>
      </trkpt>
      <trkpt lat="49.26139" lon="1.07573">
        <ele>118</ele>
        <time>2016-07-10T08:27:54.000Z</time>
      </trkpt>
      <trkpt lat="49.26138" lon="1.07575">
        <ele>117</ele>
        <time>2016-07-10T08:27:55.000Z</time>
      </trkpt>
      <trkpt lat="49.26138" lon="1.07578">
        <ele>116</ele>
        <time>2016-07-10T08:27:56.000Z</time>
      </trkpt>
      <trkpt lat="49.26138" lon="1.07581">
        <ele>114</ele>
        <time>2016-07-10T08:27:57.000Z</time>
      </trkpt>
      <trkpt lat="49.26139" lon="1.07584">
        <ele>115</ele>
        <time>2016-07-10T08:27:58.000Z</time>
      </trkpt>
      <trkpt lat="49.2614" lon="1.07586">
        <ele>114</ele>
        <time>2016-07-10T08:27:59.000Z</time>
      </trkpt>
      <trkpt lat="49.26142" lon="1.07589">
        <ele>113</ele>
        <time>2016-07-10T08:28:00.000Z</time>
      </trkpt>
      <trkpt lat="49.26143" lon="1.07592">
        <ele>114</ele>
        <time>2016-07-10T08:28:01.000Z</time>
      </trkpt>
      <trkpt lat="49.26145" lon="1.07595">
        <ele>114</ele>
        <time>2016-07-10T08:28:02.000Z</time>
      </trkpt>
      <trkpt lat="49.26146" lon="1.07598">
        <ele>114</ele>
        <time>2016-07-10T08:28:03.000Z</time>
      </trkpt>
      <trkpt lat="49.26148" lon="1.07602">
        <ele>115</ele>
        <time>2016-07-10T08:28:04.000Z</time>
      </trkpt>
      <trkpt lat="49.2615" lon="1.07605">
        <ele>115</ele>
        <time>2016-07-10T08:28:05.000Z</time>
      </trkpt>
      <trkpt lat="49.26152" lon="1.07608">
        <ele>115</ele>
        <time>2016-07-10T08:28:06.000Z</time>
      </trkpt>
      <trkpt lat="49.26155" lon="1.07611">
        <ele>114</ele>
        <time>2016-07-10T08:28:07.000Z</time>
      </trkpt>
      <trkpt lat="49.26157" lon="1.07614">
        <ele>114</ele>
        <time>2016-07-10T08:28:08.000Z</time>
      </trkpt>
      <trkpt lat="49.2616" lon="1.07618">
        <ele>115</ele>
        <time>2016-07-10T08:28:09.000Z</time>
      </trkpt>
      <trkpt lat="49.26163" lon="1.07621">
        <ele>115</ele>
        <time>2016-07-10T08:28:10.000Z</time>
      </trkpt>
      <trkpt lat="49.26166" lon="1.07625">
        <ele>116</ele>
        <time>2016-07-10T08:28:11.000Z</time>
      </trkpt>
      <trkpt lat="49.26169" lon="1.07629">
        <ele>116</ele>
        <time>2016-07-10T08:28:12.000Z</time>
      </trkpt>
      <trkpt lat="49.26173" lon="1.07632">
        <ele>117</ele>
        <time>2016-07-10T08:28:13.000Z</time>
      </trkpt>
      <trkpt lat="49.26176" lon="1.07636">
        <ele>117</ele>
        <time>2016-07-10T08:28:14.000Z</time>
      </trkpt>
      <trkpt lat="49.26179" lon="1.0764">
        <ele>116</ele>
        <time>2016-07-10T08:28:15.000Z</time>
      </trkpt>
      <trkpt lat="49.26181" lon="1.07644">
        <ele>115</ele>
        <time>2016-07-10T08:28:16.000Z</time>
      </trkpt>
      <trkpt lat="49.26184" lon="1.07648">
        <ele>115</ele>
        <time>2016-07-10T08:28:17.000Z</time>
      </trkpt>
      <trkpt lat="49.26187" lon="1.07652">
        <ele>115</ele>
        <time>2016-07-10T08:28:18.000Z</time>
      </trkpt>
      <trkpt lat="49.26189" lon="1.07655">
        <ele>115</ele>
        <time>2016-07-10T08:28:19.000Z</time>
      </trkpt>
      <trkpt lat="49.26192" lon="1.07658">
        <ele>114</ele>
        <time>2016-07-10T08:28:20.000Z</time>
      </trkpt>
      <trkpt lat="49.26195" lon="1.07662">
        <ele>114</ele>
        <time>2016-07-10T08:28:21.000Z</time>
      </trkpt>
      <trkpt lat="49.26198" lon="1.07666">
        <ele>113</ele>
        <time>2016-07-10T08:28:22.000Z</time>
      </trkpt>
      <trkpt lat="49.26202" lon="1.0767">
        <ele>114</ele>
        <time>2016-07-10T08:28:23.000Z</time>
      </trkpt>
      <trkpt lat="49.26206" lon="1.07675">
        <ele>115</ele>
        <time>2016-07-10T08:28:24.000Z</time>
      </trkpt>
      <trkpt lat="49.26209" lon="1.07679">
        <ele>115</ele>
        <time>2016-07-10T08:28:25.000Z</time>
      </trkpt>
      <trkpt lat="49.26213" lon="1.07684">
        <ele>115</ele>
        <time>2016-07-10T08:28:26.000Z</time>
      </trkpt>
      <trkpt lat="49.26217" lon="1.07688">
        <ele>115</ele>
        <time>2016-07-10T08:28:27.000Z</time>
      </trkpt>
      <trkpt lat="49.2622" lon="1.07693">
        <ele>115</ele>
        <time>2016-07-10T08:28:28.000Z</time>
      </trkpt>
      <trkpt lat="49.26224" lon="1.07697">
        <ele>115</ele>
        <time>2016-07-10T08:28:29.000Z</time>
      </trkpt>
      <trkpt lat="49.26228" lon="1.07702">
        <ele>116</ele>
        <time>2016-07-10T08:28:30.000Z</time>
      </trkpt>
      <trkpt lat="49.26232" lon="1.07706">
        <ele>116</ele>
        <time>2016-07-10T08:28:31.000Z</time>
      </trkpt>
      <trkpt lat="49.26236" lon="1.07711">
        <ele>116</ele>
        <time>2016-07-10T08:28:32.000Z</time>
      </trkpt>
      <trkpt lat="49.2624" lon="1.07716">
        <ele>115</ele>
        <time>2016-07-10T08:28:33.000Z</time>
      </trkpt>
      <trkpt lat="49.26244" lon="1.07722">
        <ele>114</ele>
        <time>2016-07-10T08:28:34.000Z</time>
      </trkpt>
      <trkpt lat="49.26248" lon="1.07727">
        <ele>113</ele>
        <time>2016-07-10T08:28:35.000Z</time>
      </trkpt>
      <trkpt lat="49.26252" lon="1.07733">
        <ele>113</ele>
        <time>2016-07-10T08:28:36.000Z</time>
      </trkpt>
      <trkpt lat="49.26257" lon="1.07738">
        <ele>112</ele>
        <time>2016-07-10T08:28:37.000Z</time>
      </trkpt>
      <trkpt lat="49.26262" lon="1.07744">
        <ele>111</ele>
        <time>2016-07-10T08:28:38.000Z</time>
      </trkpt>
      <trkpt lat="49.26267" lon="1.07751">
        <ele>111</ele>
        <time>2016-07-10T08:28:39.000Z</time>
      </trkpt>
      <trkpt lat="49.26272" lon="1.07757">
        <ele>112</ele>
        <time>2016-07-10T08:28:40.000Z</time>
      </trkpt>
      <trkpt lat="49.26278" lon="1.07764">
        <ele>112</ele>
        <time>2016-07-10T08:28:41.000Z</time>
      </trkpt>
      <trkpt lat="49.26283" lon="1.07771">
        <ele>111</ele>
        <time>2016-07-10T08:28:42.000Z</time>
      </trkpt>
      <trkpt lat="49.26289" lon="1.07777">
        <ele>111</ele>
        <time>2016-07-10T08:28:43.000Z</time>
      </trkpt>
      <trkpt lat="49.26294" lon="1.07784">
        <ele>111</ele>
        <time>2016-07-10T08:28:44.000Z</time>
      </trkpt>
      <trkpt lat="49.263" lon="1.07791">
        <ele>111</ele>
        <time>2016-07-10T08:28:45.000Z</time>
      </trkpt>
      <trkpt lat="49.26305" lon="1.07798">
        <ele>111</ele>
        <time>2016-07-10T08:28:46.000Z</time>
      </trkpt>
      <trkpt lat="49.26311" lon="1.07805">
        <ele>111</ele>
        <time>2016-07-10T08:28:47.000Z</time>
      </trkpt>
      <trkpt lat="49.26316" lon="1.07812">
        <ele>112</ele>
        <time>2016-07-10T08:28:48.000Z</time>
      </trkpt>
      <trkpt lat="49.26322" lon="1.07819">
        <ele>112</ele>
        <time>2016-07-10T08:28:49.000Z</time>
      </trkpt>
      <trkpt lat="49.26327" lon="1.07826">
        <ele>112</ele>
        <time>2016-07-10T08:28:50.000Z</time>
      </trkpt>
      <trkpt lat="49.26333" lon="1.07833">
        <ele>112</ele>
        <time>2016-07-10T08:28:51.000Z</time>
      </trkpt>
      <trkpt lat="49.26338" lon="1.07839">
        <ele>113</ele>
        <time>2016-07-10T08:28:52.000Z</time>
      </trkpt>
      <trkpt lat="49.26344" lon="1.07846">
        <ele>112</ele>
        <time>2016-07-10T08:28:53.000Z</time>
      </trkpt>
      <trkpt lat="49.26349" lon="1.07852">
        <ele>112</ele>
        <time>2016-07-10T08:28:54.000Z</time>
      </trkpt>
      <trkpt lat="49.26354" lon="1.07859">
        <ele>113</ele>
        <time>2016-07-10T08:28:55.000Z</time>
      </trkpt>
      <trkpt lat="49.2636" lon="1.07866">
        <ele>113</ele>
        <time>2016-07-10T08:28:56.000Z</time>
      </trkpt>
      <trkpt lat="49.26365" lon="1.07873">
        <ele>114</ele>
        <time>2016-07-10T08:28:57.000Z</time>
      </trkpt>
      <trkpt lat="49.26371" lon="1.07879">
        <ele>114</ele>
        <time>2016-07-10T08:28:58.000Z</time>
      </trkpt>
      <trkpt lat="49.26376" lon="1.07886">
        <ele>113</ele>
        <time>2016-07-10T08:28:59.000Z</time>
      </trkpt>
      <trkpt lat="49.26381" lon="1.07893">
        <ele>113</ele>
        <time>2016-07-10T08:29:00.000Z</time>
      </trkpt>
      <trkpt lat="49.26387" lon="1.079">
        <ele>113</ele>
        <time>2016-07-10T08:29:01.000Z</time>
      </trkpt>
      <trkpt lat="49.26392" lon="1.07906">
        <ele>113</ele>
        <time>2016-07-10T08:29:02.000Z</time>
      </trkpt>
      <trkpt lat="49.26397" lon="1.07913">
        <ele>113</ele>
        <time>2016-07-10T08:29:03.000Z</time>
      </trkpt>
      <trkpt lat="49.26403" lon="1.0792">
        <ele>113</ele>
        <time>2016-07-10T08:29:04.000Z</time>
      </trkpt>
      <trkpt lat="49.26408" lon="1.07927">
        <ele>113</ele>
        <time>2016-07-10T08:29:05.000Z</time>
      </trkpt>
      <trkpt lat="49.26414" lon="1.07934">
        <ele>113</ele>
        <time>2016-07-10T08:29:06.000Z</time>
      </trkpt>
      <trkpt lat="49.26419" lon="1.07941">
        <ele>113</ele>
        <time>2016-07-10T08:29:07.000Z</time>
      </trkpt>
      <trkpt lat="49.26424" lon="1.07948">
        <ele>113</ele>
        <time>2016-07-10T08:29:08.000Z</time>
      </trkpt>
      <trkpt lat="49.26429" lon="1.07955">
        <ele>113</ele>
        <time>2016-07-10T08:29:09.000Z</time>
      </trkpt>
      <trkpt lat="49.26435" lon="1.07961">
        <ele>113</ele>
        <time>2016-07-10T08:29:10.000Z</time>
      </trkpt>
      <trkpt lat="49.2644" lon="1.07968">
        <ele>113</ele>
        <time>2016-07-10T08:29:11.000Z</time>
      </trkpt>
      <trkpt lat="49.26445" lon="1.07975">
        <ele>113</ele>
        <time>2016-07-10T08:29:12.000Z</time>
      </trkpt>
      <trkpt lat="49.2645" lon="1.07981">
        <ele>113</ele>
        <time>2016-07-10T08:29:13.000Z</time>
      </trkpt>
      <trkpt lat="49.26455" lon="1.07987">
        <ele>113</ele>
        <time>2016-07-10T08:29:14.000Z</time>
      </trkpt>
      <trkpt lat="49.26461" lon="1.07993">
        <ele>113</ele>
        <time>2016-07-10T08:29:15.000Z</time>
      </trkpt>
      <trkpt lat="49.26466" lon="1.07999">
        <ele>113</ele>
        <time>2016-07-10T08:29:16.000Z</time>
      </trkpt>
      <trkpt lat="49.26471" lon="1.08005">
        <ele>113</ele>
        <time>2016-07-10T08:29:17.000Z</time>
      </trkpt>
      <trkpt lat="49.26476" lon="1.08012">
        <ele>113</ele>
        <time>2016-07-10T08:29:18.000Z</time>
      </trkpt>
      <trkpt lat="49.26481" lon="1.08017">
        <ele>113</ele>
        <time>2016-07-10T08:29:19.000Z</time>
      </trkpt>
      <trkpt lat="49.26485" lon="1.08023">
        <ele>113</ele>
        <time>2016-07-10T08:29:20.000Z</time>
      </trkpt>
      <trkpt lat="49.2649" lon="1.08029">
        <ele>113</ele>
        <time>2016-07-10T08:29:21.000Z</time>
      </trkpt>
      <trkpt lat="49.26495" lon="1.08035">
        <ele>113</ele>
        <time>2016-07-10T08:29:22.000Z</time>
      </trkpt>
      <trkpt lat="49.26499" lon="1.08041">
        <ele>113</ele>
        <time>2016-07-10T08:29:23.000Z</time>
      </trkpt>
      <trkpt lat="49.26504" lon="1.08047">
        <ele>113</ele>
        <time>2016-07-10T08:29:24.000Z</time>
      </trkpt>
      <trkpt lat="49.26509" lon="1.08052">
        <ele>113</ele>
        <time>2016-07-10T08:29:25.000Z</time>
      </trkpt>
      <trkpt lat="49.26513" lon="1.08057">
        <ele>113</ele>
        <time>2016-07-10T08:29:26.000Z</time>
      </trkpt>
      <trkpt lat="49.26517" lon="1.08061">
        <ele>113</ele>
        <time>2016-07-10T08:29:27.000Z</time>
      </trkpt>
      <trkpt lat="49.26519" lon="1.08064">
        <ele>114</ele>
        <time>2016-07-10T08:29:28.000Z</time>
      </trkpt>
      <trkpt lat="49.26521" lon="1.08066">
        <ele>114</ele>
        <time>2016-07-10T08:29:29.000Z</time>
      </trkpt>
      <trkpt lat="49.26522" lon="1.08068">
        <ele>114</ele>
        <time>2016-07-10T08:29:30.000Z</time>
      </trkpt>
      <trkpt lat="49.26522" lon="1.08071">
        <ele>115</ele>
        <time>2016-07-10T08:29:31.000Z</time>
      </trkpt>
      <trkpt lat="49.26522" lon="1.08075">
        <ele>117</ele>
        <time>2016-07-10T08:29:32.000Z</time>
      </trkpt>
      <trkpt lat="49.26522" lon="1.08078">
        <ele>117</ele>
        <time>2016-07-10T08:29:33.000Z</time>
      </trkpt>
      <trkpt lat="49.26522" lon="1.08081">
        <ele>118</ele>
        <time>2016-07-10T08:29:34.000Z</time>
      </trkpt>
      <trkpt lat="49.26521" lon="1.08083">
        <ele>119</ele>
        <time>2016-07-10T08:29:35.000Z</time>
      </trkpt>
      <trkpt lat="49.26521" lon="1.08086">
        <ele>119</ele>
        <time>2016-07-10T08:29:36.000Z</time>
      </trkpt>
      <trkpt lat="49.2652" lon="1.08089">
        <ele>120</ele>
        <time>2016-07-10T08:29:37.000Z</time>
      </trkpt>
      <trkpt lat="49.26518" lon="1.08091">
        <ele>121</ele>
        <time>2016-07-10T08:29:38.000Z</time>
      </trkpt>
      <trkpt lat="49.26517" lon="1.08094">
        <ele>121</ele>
        <time>2016-07-10T08:29:39.000Z</time>
      </trkpt>
      <trkpt lat="49.26516" lon="1.08097">
        <ele>121</ele>
        <time>2016-07-10T08:29:40.000Z</time>
      </trkpt>
      <trkpt lat="49.26514" lon="1.08099">
        <ele>122</ele>
        <time>2016-07-10T08:29:41.000Z</time>
      </trkpt>
      <trkpt lat="49.26512" lon="1.08102">
        <ele>120</ele>
        <time>2016-07-10T08:29:42.000Z</time>
      </trkpt>
      <trkpt lat="49.2651" lon="1.08104">
        <ele>121</ele>
        <time>2016-07-10T08:29:43.000Z</time>
      </trkpt>
      <trkpt lat="49.26508" lon="1.08107">
        <ele>121</ele>
        <time>2016-07-10T08:29:44.000Z</time>
      </trkpt>
      <trkpt lat="49.26505" lon="1.0811">
        <ele>122</ele>
        <time>2016-07-10T08:29:45.000Z</time>
      </trkpt>
      <trkpt lat="49.26503" lon="1.08113">
        <ele>122</ele>
        <time>2016-07-10T08:29:46.000Z</time>
      </trkpt>
      <trkpt lat="49.265" lon="1.08116">
        <ele>122</ele>
        <time>2016-07-10T08:29:47.000Z</time>
      </trkpt>
      <trkpt lat="49.26498" lon="1.0812">
        <ele>122</ele>
        <time>2016-07-10T08:29:48.000Z</time>
      </trkpt>
      <trkpt lat="49.26496" lon="1.08123">
        <ele>121</ele>
        <time>2016-07-10T08:29:49.000Z</time>
      </trkpt>
      <trkpt lat="49.26494" lon="1.08127">
        <ele>122</ele>
        <time>2016-07-10T08:29:50.000Z</time>
      </trkpt>
      <trkpt lat="49.26492" lon="1.0813">
        <ele>123</ele>
        <time>2016-07-10T08:29:51.000Z</time>
      </trkpt>
      <trkpt lat="49.2649" lon="1.08134">
        <ele>123</ele>
        <time>2016-07-10T08:29:52.000Z</time>
      </trkpt>
      <trkpt lat="49.26488" lon="1.08137">
        <ele>122</ele>
        <time>2016-07-10T08:29:53.000Z</time>
      </trkpt>
      <trkpt lat="49.26487" lon="1.08141">
        <ele>122</ele>
        <time>2016-07-10T08:29:54.000Z</time>
      </trkpt>
      <trkpt lat="49.26484" lon="1.08145">
        <ele>122</ele>
        <time>2016-07-10T08:29:55.000Z</time>
      </trkpt>
      <trkpt lat="49.26482" lon="1.08149">
        <ele>123</ele>
        <time>2016-07-10T08:29:56.000Z</time>
      </trkpt>
      <trkpt lat="49.2648" lon="1.08154">
        <ele>122</ele>
        <time>2016-07-10T08:29:57.000Z</time>
      </trkpt>
      <trkpt lat="49.26477" lon="1.08159">
        <ele>122</ele>
        <time>2016-07-10T08:29:58.000Z</time>
      </trkpt>
      <trkpt lat="49.26475" lon="1.08164">
        <ele>122</ele>
        <time>2016-07-10T08:29:59.000Z</time>
      </trkpt>
      <trkpt lat="49.26472" lon="1.08169">
        <ele>120</ele>
        <time>2016-07-10T08:30:00.000Z</time>
      </trkpt>
      <trkpt lat="49.26469" lon="1.08174">
        <ele>120</ele>
        <time>2016-07-10T08:30:01.000Z</time>
      </trkpt>
      <trkpt lat="49.26467" lon="1.08179">
        <ele>120</ele>
        <time>2016-07-10T08:30:02.000Z</time>
      </trkpt>
      <trkpt lat="49.26464" lon="1.08184">
        <ele>120</ele>
        <time>2016-07-10T08:30:03.000Z</time>
      </trkpt>
      <trkpt lat="49.26461" lon="1.08189">
        <ele>119</ele>
        <time>2016-07-10T08:30:04.000Z</time>
      </trkpt>
      <trkpt lat="49.26458" lon="1.08193">
        <ele>119</ele>
        <time>2016-07-10T08:30:05.000Z</time>
      </trkpt>
      <trkpt lat="49.26455" lon="1.08198">
        <ele>120</ele>
        <time>2016-07-10T08:30:06.000Z</time>
      </trkpt>
      <trkpt lat="49.26453" lon="1.08202">
        <ele>121</ele>
        <time>2016-07-10T08:30:07.000Z</time>
      </trkpt>
      <trkpt lat="49.26452" lon="1.08206">
        <ele>121</ele>
        <time>2016-07-10T08:30:08.000Z</time>
      </trkpt>
      <trkpt lat="49.2645" lon="1.0821">
        <ele>121</ele>
        <time>2016-07-10T08:30:09.000Z</time>
      </trkpt>
      <trkpt lat="49.26447" lon="1.08213">
        <ele>122</ele>
        <time>2016-07-10T08:30:10.000Z</time>
      </trkpt>
      <trkpt lat="49.26445" lon="1.08217">
        <ele>122</ele>
        <time>2016-07-10T08:30:11.000Z</time>
      </trkpt>
      <trkpt lat="49.26443" lon="1.08221">
        <ele>123</ele>
        <time>2016-07-10T08:30:12.000Z</time>
      </trkpt>
      <trkpt lat="49.2644" lon="1.08225">
        <ele>125</ele>
        <time>2016-07-10T08:30:13.000Z</time>
      </trkpt>
      <trkpt lat="49.26438" lon="1.08229">
        <ele>125</ele>
        <time>2016-07-10T08:30:14.000Z</time>
      </trkpt>
      <trkpt lat="49.26435" lon="1.08234">
        <ele>124</ele>
        <time>2016-07-10T08:30:15.000Z</time>
      </trkpt>
      <trkpt lat="49.26433" lon="1.08237">
        <ele>124</ele>
        <time>2016-07-10T08:30:16.000Z</time>
      </trkpt>
      <trkpt lat="49.2643" lon="1.08241">
        <ele>123</ele>
        <time>2016-07-10T08:30:17.000Z</time>
      </trkpt>
      <trkpt lat="49.26427" lon="1.08246">
        <ele>123</ele>
        <time>2016-07-10T08:30:18.000Z</time>
      </trkpt>
      <trkpt lat="49.26425" lon="1.0825">
        <ele>125</ele>
        <time>2016-07-10T08:30:19.000Z</time>
      </trkpt>
      <trkpt lat="49.26423" lon="1.08255">
        <ele>127</ele>
        <time>2016-07-10T08:30:20.000Z</time>
      </trkpt>
      <trkpt lat="49.26421" lon="1.0826">
        <ele>128</ele>
        <time>2016-07-10T08:30:21.000Z</time>
      </trkpt>
      <trkpt lat="49.26418" lon="1.08264">
        <ele>129</ele>
        <time>2016-07-10T08:30:22.000Z</time>
      </trkpt>
      <trkpt lat="49.26416" lon="1.08268">
        <ele>130</ele>
        <time>2016-07-10T08:30:23.000Z</time>
      </trkpt>
      <trkpt lat="49.26413" lon="1.08272">
        <ele>131</ele>
        <time>2016-07-10T08:30:24.000Z</time>
      </trkpt>
      <trkpt lat="49.26411" lon="1.08276">
        <ele>130</ele>
        <time>2016-07-10T08:30:25.000Z</time>
      </trkpt>
      <trkpt lat="49.26408" lon="1.0828">
        <ele>128</ele>
        <time>2016-07-10T08:30:26.000Z</time>
      </trkpt>
      <trkpt lat="49.26405" lon="1.08285">
        <ele>126</ele>
        <time>2016-07-10T08:30:27.000Z</time>
      </trkpt>
      <trkpt lat="49.26402" lon="1.08289">
        <ele>125</ele>
        <time>2016-07-10T08:30:28.000Z</time>
      </trkpt>
      <trkpt lat="49.26399" lon="1.08294">
        <ele>126</ele>
        <time>2016-07-10T08:30:29.000Z</time>
      </trkpt>
      <trkpt lat="49.26397" lon="1.08299">
        <ele>126</ele>
        <time>2016-07-10T08:30:30.000Z</time>
      </trkpt>
      <trkpt lat="49.26395" lon="1.08304">
        <ele>129</ele>
        <time>2016-07-10T08:30:31.000Z</time>
      </trkpt>
      <trkpt lat="49.26393" lon="1.08309">
        <ele>130</ele>
        <time>2016-07-10T08:30:32.000Z</time>
      </trkpt>
      <trkpt lat="49.26392" lon="1.08314">
        <ele>132</ele>
        <time>2016-07-10T08:30:33.000Z</time>
      </trkpt>
      <trkpt lat="49.2639" lon="1.08319">
        <ele>134</ele>
        <time>2016-07-10T08:30:34.000Z</time>
      </trkpt>
      <trkpt lat="49.26388" lon="1.08324">
        <ele>136</ele>
        <time>2016-07-10T08:30:35.000Z</time>
      </trkpt>
      <trkpt lat="49.26386" lon="1.08329">
        <ele>138</ele>
        <time>2016-07-10T08:30:36.000Z</time>
      </trkpt>
      <trkpt lat="49.26385" lon="1.08334">
        <ele>139</ele>
        <time>2016-07-10T08:30:37.000Z</time>
      </trkpt>
      <trkpt lat="49.26383" lon="1.08339">
        <ele>139</ele>
        <time>2016-07-10T08:30:38.000Z</time>
      </trkpt>
      <trkpt lat="49.26382" lon="1.08343">
        <ele>142</ele>
        <time>2016-07-10T08:30:39.000Z</time>
      </trkpt>
      <trkpt lat="49.2638" lon="1.08348">
        <ele>142</ele>
        <time>2016-07-10T08:30:40.000Z</time>
      </trkpt>
      <trkpt lat="49.26379" lon="1.08354">
        <ele>145</ele>
        <time>2016-07-10T08:30:41.000Z</time>
      </trkpt>
      <trkpt lat="49.26377" lon="1.08361">
        <ele>145</ele>
        <time>2016-07-10T08:30:42.000Z</time>
      </trkpt>
      <trkpt lat="49.26375" lon="1.08366">
        <ele>146</ele>
        <time>2016-07-10T08:30:43.000Z</time>
      </trkpt>
      <trkpt lat="49.26372" lon="1.08371">
        <ele>146</ele>
        <time>2016-07-10T08:30:44.000Z</time>
      </trkpt>
      <trkpt lat="49.2637" lon="1.08375">
        <ele>146</ele>
        <time>2016-07-10T08:30:45.000Z</time>
      </trkpt>
      <trkpt lat="49.26367" lon="1.08378">
        <ele>146</ele>
        <time>2016-07-10T08:30:46.000Z</time>
      </trkpt>
      <trkpt lat="49.26364" lon="1.0838">
        <ele>147</ele>
        <time>2016-07-10T08:30:47.000Z</time>
      </trkpt>
      <trkpt lat="49.26361" lon="1.08383">
        <ele>145</ele>
        <time>2016-07-10T08:30:48.000Z</time>
      </trkpt>
      <trkpt lat="49.26359" lon="1.08386">
        <ele>145</ele>
        <time>2016-07-10T08:30:49.000Z</time>
      </trkpt>
      <trkpt lat="49.26356" lon="1.08389">
        <ele>144</ele>
        <time>2016-07-10T08:30:50.000Z</time>
      </trkpt>
      <trkpt lat="49.26354" lon="1.08392">
        <ele>145</ele>
        <time>2016-07-10T08:30:51.000Z</time>
      </trkpt>
      <trkpt lat="49.26351" lon="1.08395">
        <ele>145</ele>
        <time>2016-07-10T08:30:52.000Z</time>
      </trkpt>
      <trkpt lat="49.26349" lon="1.08397">
        <ele>144</ele>
        <time>2016-07-10T08:30:53.000Z</time>
      </trkpt>
      <trkpt lat="49.26346" lon="1.084">
        <ele>144</ele>
        <time>2016-07-10T08:30:54.000Z</time>
      </trkpt>
      <trkpt lat="49.26343" lon="1.08402">
        <ele>143</ele>
        <time>2016-07-10T08:30:55.000Z</time>
      </trkpt>
      <trkpt lat="49.2634" lon="1.08406">
        <ele>143</ele>
        <time>2016-07-10T08:30:56.000Z</time>
      </trkpt>
      <trkpt lat="49.26337" lon="1.08409">
        <ele>143</ele>
        <time>2016-07-10T08:30:57.000Z</time>
      </trkpt>
      <trkpt lat="49.26334" lon="1.08414">
        <ele>142</ele>
        <time>2016-07-10T08:30:58.000Z</time>
      </trkpt>
      <trkpt lat="49.26332" lon="1.08418">
        <ele>140</ele>
        <time>2016-07-10T08:30:59.000Z</time>
      </trkpt>
      <trkpt lat="49.26331" lon="1.08423">
        <ele>139</ele>
        <time>2016-07-10T08:31:00.000Z</time>
      </trkpt>
      <trkpt lat="49.26331" lon="1.08427">
        <ele>139</ele>
        <time>2016-07-10T08:31:01.000Z</time>
      </trkpt>
      <trkpt lat="49.26331" lon="1.08432">
        <ele>138</ele>
        <time>2016-07-10T08:31:02.000Z</time>
      </trkpt>
      <trkpt lat="49.26332" lon="1.08436">
        <ele>137</ele>
        <time>2016-07-10T08:31:03.000Z</time>
      </trkpt>
      <trkpt lat="49.26334" lon="1.0844">
        <ele>136</ele>
        <time>2016-07-10T08:31:04.000Z</time>
      </trkpt>
      <trkpt lat="49.26335" lon="1.08444">
        <ele>135</ele>
        <time>2016-07-10T08:31:05.000Z</time>
      </trkpt>
      <trkpt lat="49.26336" lon="1.08448">
        <ele>134</ele>
        <time>2016-07-10T08:31:06.000Z</time>
      </trkpt>
      <trkpt lat="49.26337" lon="1.08452">
        <ele>133</ele>
        <time>2016-07-10T08:31:07.000Z</time>
      </trkpt>
      <trkpt lat="49.26338" lon="1.08455">
        <ele>132</ele>
        <time>2016-07-10T08:31:08.000Z</time>
      </trkpt>
      <trkpt lat="49.26339" lon="1.08459">
        <ele>131</ele>
        <time>2016-07-10T08:31:09.000Z</time>
      </trkpt>
      <trkpt lat="49.26341" lon="1.08463">
        <ele>131</ele>
        <time>2016-07-10T08:31:10.000Z</time>
      </trkpt>
      <trkpt lat="49.26343" lon="1.08468">
        <ele>130</ele>
        <time>2016-07-10T08:31:11.000Z</time>
      </trkpt>
      <trkpt lat="49.26345" lon="1.08472">
        <ele>128</ele>
        <time>2016-07-10T08:31:12.000Z</time>
      </trkpt>
      <trkpt lat="49.26347" lon="1.08476">
        <ele>127</ele>
        <time>2016-07-10T08:31:13.000Z</time>
      </trkpt>
      <trkpt lat="49.2635" lon="1.0848">
        <ele>126</ele>
        <time>2016-07-10T08:31:14.000Z</time>
      </trkpt>
      <trkpt lat="49.26353" lon="1.08485">
        <ele>125</ele>
        <time>2016-07-10T08:31:15.000Z</time>
      </trkpt>
      <trkpt lat="49.26355" lon="1.08489">
        <ele>125</ele>
        <time>2016-07-10T08:31:16.000Z</time>
      </trkpt>
      <trkpt lat="49.26358" lon="1.08492">
        <ele>124</ele>
        <time>2016-07-10T08:31:17.000Z</time>
      </trkpt>
      <trkpt lat="49.2636" lon="1.08496">
        <ele>123</ele>
        <time>2016-07-10T08:31:18.000Z</time>
      </trkpt>
      <trkpt lat="49.26363" lon="1.085">
        <ele>122</ele>
        <time>2016-07-10T08:31:19.000Z</time>
      </trkpt>
      <trkpt lat="49.26366" lon="1.08504">
        <ele>122</ele>
        <time>2016-07-10T08:31:20.000Z</time>
      </trkpt>
      <trkpt lat="49.26369" lon="1.08508">
        <ele>122</ele>
        <time>2016-07-10T08:31:21.000Z</time>
      </trkpt>
      <trkpt lat="49.26371" lon="1.08512">
        <ele>121</ele>
        <time>2016-07-10T08:31:22.000Z</time>
      </trkpt>
      <trkpt lat="49.26374" lon="1.08516">
        <ele>122</ele>
        <time>2016-07-10T08:31:23.000Z</time>
      </trkpt>
      <trkpt lat="49.26378" lon="1.0852">
        <ele>122</ele>
        <time>2016-07-10T08:31:24.000Z</time>
      </trkpt>
      <trkpt lat="49.26381" lon="1.08525">
        <ele>123</ele>
        <time>2016-07-10T08:31:25.000Z</time>
      </trkpt>
      <trkpt lat="49.26385" lon="1.0853">
        <ele>123</ele>
        <time>2016-07-10T08:31:26.000Z</time>
      </trkpt>
      <trkpt lat="49.26388" lon="1.08534">
        <ele>122</ele>
        <time>2016-07-10T08:31:27.000Z</time>
      </trkpt>
      <trkpt lat="49.26392" lon="1.08539">
        <ele>123</ele>
        <time>2016-07-10T08:31:28.000Z</time>
      </trkpt>
      <trkpt lat="49.26395" lon="1.08545">
        <ele>123</ele>
        <time>2016-07-10T08:31:29.000Z</time>
      </trkpt>
      <trkpt lat="49.26398" lon="1.0855">
        <ele>124</ele>
        <time>2016-07-10T08:31:30.000Z</time>
      </trkpt>
      <trkpt lat="49.26402" lon="1.08555">
        <ele>125</ele>
        <time>2016-07-10T08:31:31.000Z</time>
      </trkpt>
      <trkpt lat="49.26406" lon="1.0856">
        <ele>126</ele>
        <time>2016-07-10T08:31:32.000Z</time>
      </trkpt>
      <trkpt lat="49.26411" lon="1.08565">
        <ele>127</ele>
        <time>2016-07-10T08:31:33.000Z</time>
      </trkpt>
      <trkpt lat="49.26416" lon="1.0857">
        <ele>127</ele>
        <time>2016-07-10T08:31:34.000Z</time>
      </trkpt>
      <trkpt lat="49.26421" lon="1.08576">
        <ele>127</ele>
        <time>2016-07-10T08:31:35.000Z</time>
      </trkpt>
      <trkpt lat="49.26425" lon="1.08581">
        <ele>127</ele>
        <time>2016-07-10T08:31:36.000Z</time>
      </trkpt>
      <trkpt lat="49.26429" lon="1.08586">
        <ele>125</ele>
        <time>2016-07-10T08:31:37.000Z</time>
      </trkpt>
      <trkpt lat="49.26432" lon="1.08591">
        <ele>125</ele>
        <time>2016-07-10T08:31:38.000Z</time>
      </trkpt>
      <trkpt lat="49.26436" lon="1.08596">
        <ele>124</ele>
        <time>2016-07-10T08:31:39.000Z</time>
      </trkpt>
      <trkpt lat="49.26439" lon="1.08601">
        <ele>124</ele>
        <time>2016-07-10T08:31:40.000Z</time>
      </trkpt>
      <trkpt lat="49.26443" lon="1.08605">
        <ele>122</ele>
        <time>2016-07-10T08:31:41.000Z</time>
      </trkpt>
      <trkpt lat="49.26448" lon="1.0861">
        <ele>122</ele>
        <time>2016-07-10T08:31:42.000Z</time>
      </trkpt>
      <trkpt lat="49.26452" lon="1.08615">
        <ele>121</ele>
        <time>2016-07-10T08:31:43.000Z</time>
      </trkpt>
      <trkpt lat="49.26456" lon="1.08621">
        <ele>121</ele>
        <time>2016-07-10T08:31:44.000Z</time>
      </trkpt>
      <trkpt lat="49.26461" lon="1.08628">
        <ele>121</ele>
        <time>2016-07-10T08:31:45.000Z</time>
      </trkpt>
      <trkpt lat="49.26466" lon="1.08634">
        <ele>120</ele>
        <time>2016-07-10T08:31:46.000Z</time>
      </trkpt>
      <trkpt lat="49.26471" lon="1.08641">
        <ele>119</ele>
        <time>2016-07-10T08:31:47.000Z</time>
      </trkpt>
      <trkpt lat="49.26476" lon="1.08648">
        <ele>119</ele>
        <time>2016-07-10T08:31:48.000Z</time>
      </trkpt>
      <trkpt lat="49.26481" lon="1.08654">
        <ele>117</ele>
        <time>2016-07-10T08:31:49.000Z</time>
      </trkpt>
      <trkpt lat="49.26485" lon="1.0866">
        <ele>116</ele>
        <time>2016-07-10T08:31:50.000Z</time>
      </trkpt>
      <trkpt lat="49.2649" lon="1.08666">
        <ele>114</ele>
        <time>2016-07-10T08:31:51.000Z</time>
      </trkpt>
      <trkpt lat="49.26494" lon="1.08672">
        <ele>112</ele>
        <time>2016-07-10T08:31:52.000Z</time>
      </trkpt>
      <trkpt lat="49.26499" lon="1.08677">
        <ele>110</ele>
        <time>2016-07-10T08:31:53.000Z</time>
      </trkpt>
      <trkpt lat="49.26503" lon="1.08682">
        <ele>108</ele>
        <time>2016-07-10T08:31:54.000Z</time>
      </trkpt>
      <trkpt lat="49.26507" lon="1.08687">
        <ele>108</ele>
        <time>2016-07-10T08:31:55.000Z</time>
      </trkpt>
      <trkpt lat="49.26511" lon="1.08692">
        <ele>106</ele>
        <time>2016-07-10T08:31:56.000Z</time>
      </trkpt>
      <trkpt lat="49.26516" lon="1.08697">
        <ele>105</ele>
        <time>2016-07-10T08:31:57.000Z</time>
      </trkpt>
      <trkpt lat="49.2652" lon="1.08702">
        <ele>105</ele>
        <time>2016-07-10T08:31:58.000Z</time>
      </trkpt>
      <trkpt lat="49.26524" lon="1.08706">
        <ele>104</ele>
        <time>2016-07-10T08:31:59.000Z</time>
      </trkpt>
      <trkpt lat="49.26528" lon="1.0871">
        <ele>103</ele>
        <time>2016-07-10T08:32:00.000Z</time>
      </trkpt>
      <trkpt lat="49.26532" lon="1.08715">
        <ele>104</ele>
        <time>2016-07-10T08:32:01.000Z</time>
      </trkpt>
      <trkpt lat="49.26536" lon="1.08721">
        <ele>105</ele>
        <time>2016-07-10T08:32:02.000Z</time>
      </trkpt>
      <trkpt lat="49.26541" lon="1.08728">
        <ele>105</ele>
        <time>2016-07-10T08:32:03.000Z</time>
      </trkpt>
      <trkpt lat="49.26546" lon="1.08736">
        <ele>104</ele>
        <time>2016-07-10T08:32:04.000Z</time>
      </trkpt>
      <trkpt lat="49.26551" lon="1.08742">
        <ele>104</ele>
        <time>2016-07-10T08:32:05.000Z</time>
      </trkpt>
      <trkpt lat="49.26555" lon="1.08748">
        <ele>106</ele>
        <time>2016-07-10T08:32:06.000Z</time>
      </trkpt>
      <trkpt lat="49.2656" lon="1.08754">
        <ele>106</ele>
        <time>2016-07-10T08:32:07.000Z</time>
      </trkpt>
      <trkpt lat="49.26564" lon="1.0876">
        <ele>109</ele>
        <time>2016-07-10T08:32:08.000Z</time>
      </trkpt>
      <trkpt lat="49.26568" lon="1.08765">
        <ele>109</ele>
        <time>2016-07-10T08:32:09.000Z</time>
      </trkpt>
      <trkpt lat="49.26572" lon="1.08769">
        <ele>108</ele>
        <time>2016-07-10T08:32:10.000Z</time>
      </trkpt>
      <trkpt lat="49.26574" lon="1.08771">
        <ele>108</ele>
        <time>2016-07-10T08:32:11.000Z</time>
      </trkpt>
      <trkpt lat="49.26577" lon="1.08773">
        <ele>107</ele>
        <time>2016-07-10T08:32:12.000Z</time>
      </trkpt>
      <trkpt lat="49.26579" lon="1.08776">
        <ele>106</ele>
        <time>2016-07-10T08:32:13.000Z</time>
      </trkpt>
      <trkpt lat="49.26582" lon="1.08779">
        <ele>107</ele>
        <time>2016-07-10T08:32:14.000Z</time>
      </trkpt>
      <trkpt lat="49.26584" lon="1.08782">
        <ele>105</ele>
        <time>2016-07-10T08:32:15.000Z</time>
      </trkpt>
      <trkpt lat="49.26587" lon="1.08786">
        <ele>105</ele>
        <time>2016-07-10T08:32:16.000Z</time>
      </trkpt>
      <trkpt lat="49.2659" lon="1.0879">
        <ele>105</ele>
        <time>2016-07-10T08:32:17.000Z</time>
      </trkpt>
      <trkpt lat="49.26593" lon="1.08793">
        <ele>104</ele>
        <time>2016-07-10T08:32:18.000Z</time>
      </trkpt>
      <trkpt lat="49.26596" lon="1.08797">
        <ele>103</ele>
        <time>2016-07-10T08:32:19.000Z</time>
      </trkpt>
      <trkpt lat="49.26599" lon="1.08801">
        <ele>102</ele>
        <time>2016-07-10T08:32:20.000Z</time>
      </trkpt>
      <trkpt lat="49.26602" lon="1.08806">
        <ele>102</ele>
        <time>2016-07-10T08:32:21.000Z</time>
      </trkpt>
      <trkpt lat="49.26606" lon="1.0881">
        <ele>101</ele>
        <time>2016-07-10T08:32:22.000Z</time>
      </trkpt>
      <trkpt lat="49.26609" lon="1.08814">
        <ele>99</ele>
        <time>2016-07-10T08:32:23.000Z</time>
      </trkpt>
      <trkpt lat="49.26612" lon="1.08818">
        <ele>98</ele>
        <time>2016-07-10T08:32:24.000Z</time>
      </trkpt>
      <trkpt lat="49.26615" lon="1.08822">
        <ele>97</ele>
        <time>2016-07-10T08:32:25.000Z</time>
      </trkpt>
      <trkpt lat="49.26618" lon="1.08826">
        <ele>95</ele>
        <time>2016-07-10T08:32:26.000Z</time>
      </trkpt>
      <trkpt lat="49.26621" lon="1.08831">
        <ele>94</ele>
        <time>2016-07-10T08:32:27.000Z</time>
      </trkpt>
      <trkpt lat="49.26625" lon="1.08835">
        <ele>93</ele>
        <time>2016-07-10T08:32:28.000Z</time>
      </trkpt>
      <trkpt lat="49.26628" lon="1.08839">
        <ele>91</ele>
        <time>2016-07-10T08:32:29.000Z</time>
      </trkpt>
      <trkpt lat="49.26631" lon="1.08843">
        <ele>90</ele>
        <time>2016-07-10T08:32:30.000Z</time>
      </trkpt>
      <trkpt lat="49.26634" lon="1.08847">
        <ele>90</ele>
        <time>2016-07-10T08:32:31.000Z</time>
      </trkpt>
      <trkpt lat="49.26636" lon="1.0885">
        <ele>90</ele>
        <time>2016-07-10T08:32:32.000Z</time>
      </trkpt>
      <trkpt lat="49.26638" lon="1.08853">
        <ele>89</ele>
        <time>2016-07-10T08:32:33.000Z</time>
      </trkpt>
      <trkpt lat="49.26641" lon="1.08857">
        <ele>89</ele>
        <time>2016-07-10T08:32:34.000Z</time>
      </trkpt>
      <trkpt lat="49.26644" lon="1.08862">
        <ele>88</ele>
        <time>2016-07-10T08:32:35.000Z</time>
      </trkpt>
      <trkpt lat="49.26648" lon="1.08866">
        <ele>88</ele>
        <time>2016-07-10T08:32:36.000Z</time>
      </trkpt>
      <trkpt lat="49.26652" lon="1.08871">
        <ele>87</ele>
        <time>2016-07-10T08:32:37.000Z</time>
      </trkpt>
      <trkpt lat="49.26656" lon="1.08876">
        <ele>87</ele>
        <time>2016-07-10T08:32:38.000Z</time>
      </trkpt>
      <trkpt lat="49.2666" lon="1.08881">
        <ele>86</ele>
        <time>2016-07-10T08:32:39.000Z</time>
      </trkpt>
      <trkpt lat="49.26664" lon="1.08886">
        <ele>86</ele>
        <time>2016-07-10T08:32:40.000Z</time>
      </trkpt>
      <trkpt lat="49.26668" lon="1.08891">
        <ele>85</ele>
        <time>2016-07-10T08:32:41.000Z</time>
      </trkpt>
      <trkpt lat="49.26672" lon="1.08896">
        <ele>84</ele>
        <time>2016-07-10T08:32:42.000Z</time>
      </trkpt>
      <trkpt lat="49.26677" lon="1.08901">
        <ele>84</ele>
        <time>2016-07-10T08:32:43.000Z</time>
      </trkpt>
      <trkpt lat="49.26681" lon="1.08906">
        <ele>84</ele>
        <time>2016-07-10T08:32:44.000Z</time>
      </trkpt>
      <trkpt lat="49.26685" lon="1.08912">
        <ele>83</ele>
        <time>2016-07-10T08:32:45.000Z</time>
      </trkpt>
      <trkpt lat="49.26689" lon="1.08917">
        <ele>83</ele>
        <time>2016-07-10T08:32:46.000Z</time>
      </trkpt>
      <trkpt lat="49.26693" lon="1.08922">
        <ele>83</ele>
        <time>2016-07-10T08:32:47.000Z</time>
      </trkpt>
      <trkpt lat="49.26697" lon="1.08927">
        <ele>84</ele>
        <time>2016-07-10T08:32:48.000Z</time>
      </trkpt>
      <trkpt lat="49.26701" lon="1.08932">
        <ele>84</ele>
        <time>2016-07-10T08:32:49.000Z</time>
      </trkpt>
      <trkpt lat="49.26704" lon="1.08936">
        <ele>85</ele>
        <time>2016-07-10T08:32:50.000Z</time>
      </trkpt>
      <trkpt lat="49.26706" lon="1.08941">
        <ele>85</ele>
        <time>2016-07-10T08:32:51.000Z</time>
      </trkpt>
      <trkpt lat="49.26708" lon="1.08946">
        <ele>86</ele>
        <time>2016-07-10T08:32:52.000Z</time>
      </trkpt>
      <trkpt lat="49.26709" lon="1.08951">
        <ele>87</ele>
        <time>2016-07-10T08:32:53.000Z</time>
      </trkpt>
      <trkpt lat="49.26709" lon="1.08954">
        <ele>88</ele>
        <time>2016-07-10T08:32:54.000Z</time>
      </trkpt>
      <trkpt lat="49.2671" lon="1.08957">
        <ele>88</ele>
        <time>2016-07-10T08:32:55.000Z</time>
      </trkpt>
      <trkpt lat="49.2671" lon="1.08959">
        <ele>88</ele>
        <time>2016-07-10T08:32:56.000Z</time>
      </trkpt>
      <trkpt lat="49.2671" lon="1.08959">
        <ele>88</ele>
        <time>2016-07-10T08:32:57.000Z</time>
      </trkpt>
      <trkpt lat="49.26709" lon="1.08959">
        <ele>87</ele>
        <time>2016-07-10T08:32:58.000Z</time>
      </trkpt>
      <trkpt lat="49.26708" lon="1.08958">
        <ele>87</ele>
        <time>2016-07-10T08:32:59.000Z</time>
      </trkpt>
      <trkpt lat="49.26707" lon="1.08958">
        <ele>87</ele>
        <time>2016-07-10T08:33:00.000Z</time>
      </trkpt>
      <trkpt lat="49.26707" lon="1.08958">
        <ele>87</ele>
        <time>2016-07-10T08:33:01.000Z</time>
      </trkpt>
      <trkpt lat="49.26706" lon="1.08957">
        <ele>87</ele>
        <time>2016-07-10T08:33:02.000Z</time>
      </trkpt>
      <trkpt lat="49.26706" lon="1.08957">
        <ele>87</ele>
        <time>2016-07-10T08:33:03.000Z</time>
      </trkpt>
      <trkpt lat="49.26705" lon="1.08957">
        <ele>87</ele>
        <time>2016-07-10T08:33:04.000Z</time>
      </trkpt>
      <trkpt lat="49.26704" lon="1.08957">
        <ele>87</ele>
        <time>2016-07-10T08:33:05.000Z</time>
      </trkpt>
      <trkpt lat="49.26703" lon="1.08957">
        <ele>87</ele>
        <time>2016-07-10T08:33:06.000Z</time>
      </trkpt>
      <trkpt lat="49.26702" lon="1.08957">
        <ele>87</ele>
        <time>2016-07-10T08:33:07.000Z</time>
      </trkpt>
      <trkpt lat="49.267" lon="1.08956">
        <ele>86</ele>
        <time>2016-07-10T08:33:08.000Z</time>
      </trkpt>
      <trkpt lat="49.267" lon="1.08956">
        <ele>87</ele>
        <time>2016-07-10T08:33:09.000Z</time>
      </trkpt>
      <trkpt lat="49.26698" lon="1.08955">
        <ele>87</ele>
        <time>2016-07-10T08:33:10.000Z</time>
      </trkpt>
      <trkpt lat="49.26697" lon="1.08954">
        <ele>87</ele>
        <time>2016-07-10T08:33:11.000Z</time>
      </trkpt>
      <trkpt lat="49.26696" lon="1.08954">
        <ele>87</ele>
        <time>2016-07-10T08:33:12.000Z</time>
      </trkpt>
      <trkpt lat="49.26695" lon="1.08954">
        <ele>88</ele>
        <time>2016-07-10T08:33:13.000Z</time>
      </trkpt>
      <trkpt lat="49.26693" lon="1.08954">
        <ele>88</ele>
        <time>2016-07-10T08:33:14.000Z</time>
      </trkpt>
      <trkpt lat="49.2669" lon="1.08955">
        <ele>87</ele>
        <time>2016-07-10T08:33:15.000Z</time>
      </trkpt>
      <trkpt lat="49.26688" lon="1.08955">
        <ele>87</ele>
        <time>2016-07-10T08:33:16.000Z</time>
      </trkpt>
      <trkpt lat="49.26686" lon="1.08955">
        <ele>87</ele>
        <time>2016-07-10T08:33:17.000Z</time>
      </trkpt>
      <trkpt lat="49.26684" lon="1.08956">
        <ele>86</ele>
        <time>2016-07-10T08:33:18.000Z</time>
      </trkpt>
      <trkpt lat="49.26682" lon="1.08956">
        <ele>84</ele>
        <time>2016-07-10T08:33:19.000Z</time>
      </trkpt>
      <trkpt lat="49.26679" lon="1.08957">
        <ele>83</ele>
        <time>2016-07-10T08:33:20.000Z</time>
      </trkpt>
      <trkpt lat="49.26676" lon="1.08958">
        <ele>83</ele>
        <time>2016-07-10T08:33:21.000Z</time>
      </trkpt>
      <trkpt lat="49.26673" lon="1.08958">
        <ele>82</ele>
        <time>2016-07-10T08:33:22.000Z</time>
      </trkpt>
      <trkpt lat="49.2667" lon="1.08959">
        <ele>81</ele>
        <time>2016-07-10T08:33:23.000Z</time>
      </trkpt>
      <trkpt lat="49.26666" lon="1.08959">
        <ele>79</ele>
        <time>2016-07-10T08:33:24.000Z</time>
      </trkpt>
      <trkpt lat="49.26663" lon="1.08959">
        <ele>79</ele>
        <time>2016-07-10T08:33:25.000Z</time>
      </trkpt>
      <trkpt lat="49.2666" lon="1.0896">
        <ele>79</ele>
        <time>2016-07-10T08:33:26.000Z</time>
      </trkpt>
      <trkpt lat="49.26658" lon="1.08961">
        <ele>79</ele>
        <time>2016-07-10T08:33:27.000Z</time>
      </trkpt>
      <trkpt lat="49.26656" lon="1.08963">
        <ele>81</ele>
        <time>2016-07-10T08:33:28.000Z</time>
      </trkpt>
      <trkpt lat="49.26654" lon="1.08964">
        <ele>82</ele>
        <time>2016-07-10T08:33:29.000Z</time>
      </trkpt>
      <trkpt lat="49.26652" lon="1.08966">
        <ele>83</ele>
        <time>2016-07-10T08:33:30.000Z</time>
      </trkpt>
      <trkpt lat="49.26651" lon="1.08967">
        <ele>84</ele>
        <time>2016-07-10T08:33:31.000Z</time>
      </trkpt>
      <trkpt lat="49.26649" lon="1.08969">
        <ele>85</ele>
        <time>2016-07-10T08:33:32.000Z</time>
      </trkpt>
      <trkpt lat="49.26647" lon="1.0897">
        <ele>86</ele>
        <time>2016-07-10T08:33:33.000Z</time>
      </trkpt>
      <trkpt lat="49.26645" lon="1.08973">
        <ele>87</ele>
        <time>2016-07-10T08:33:34.000Z</time>
      </trkpt>
      <trkpt lat="49.26644" lon="1.08974">
        <ele>88</ele>
        <time>2016-07-10T08:33:35.000Z</time>
      </trkpt>
      <trkpt lat="49.26643" lon="1.08976">
        <ele>90</ele>
        <time>2016-07-10T08:33:36.000Z</time>
      </trkpt>
      <trkpt lat="49.26641" lon="1.08978">
        <ele>90</ele>
        <time>2016-07-10T08:33:37.000Z</time>
      </trkpt>
      <trkpt lat="49.26637" lon="1.0898">
        <ele>87</ele>
        <time>2016-07-10T08:33:38.000Z</time>
      </trkpt>
      <trkpt lat="49.26633" lon="1.08982">
        <ele>87</ele>
        <time>2016-07-10T08:33:39.000Z</time>
      </trkpt>
      <trkpt lat="49.26629" lon="1.08985">
        <ele>89</ele>
        <time>2016-07-10T08:33:40.000Z</time>
      </trkpt>
      <trkpt lat="49.26626" lon="1.08988">
        <ele>91</ele>
        <time>2016-07-10T08:33:41.000Z</time>
      </trkpt>
      <trkpt lat="49.26622" lon="1.08991">
        <ele>94</ele>
        <time>2016-07-10T08:33:42.000Z</time>
      </trkpt>
      <trkpt lat="49.26619" lon="1.08994">
        <ele>95</ele>
        <time>2016-07-10T08:33:43.000Z</time>
      </trkpt>
      <trkpt lat="49.26617" lon="1.08997">
        <ele>95</ele>
        <time>2016-07-10T08:33:44.000Z</time>
      </trkpt>
      <trkpt lat="49.26615" lon="1.09">
        <ele>96</ele>
        <time>2016-07-10T08:33:45.000Z</time>
      </trkpt>
      <trkpt lat="49.26613" lon="1.09001">
        <ele>96</ele>
        <time>2016-07-10T08:33:46.000Z</time>
      </trkpt>
      <trkpt lat="49.26611" lon="1.09003">
        <ele>97</ele>
        <time>2016-07-10T08:33:47.000Z</time>
      </trkpt>
      <trkpt lat="49.26609" lon="1.09005">
        <ele>98</ele>
        <time>2016-07-10T08:33:48.000Z</time>
      </trkpt>
      <trkpt lat="49.26607" lon="1.09007">
        <ele>99</ele>
        <time>2016-07-10T08:33:49.000Z</time>
      </trkpt>
      <trkpt lat="49.26606" lon="1.09009">
        <ele>98</ele>
        <time>2016-07-10T08:33:50.000Z</time>
      </trkpt>
      <trkpt lat="49.26603" lon="1.09011">
        <ele>98</ele>
        <time>2016-07-10T08:33:51.000Z</time>
      </trkpt>
      <trkpt lat="49.26601" lon="1.09013">
        <ele>99</ele>
        <time>2016-07-10T08:33:52.000Z</time>
      </trkpt>
      <trkpt lat="49.26599" lon="1.09014">
        <ele>100</ele>
        <time>2016-07-10T08:33:53.000Z</time>
      </trkpt>
      <trkpt lat="49.26597" lon="1.09016">
        <ele>100</ele>
        <time>2016-07-10T08:33:54.000Z</time>
      </trkpt>
      <trkpt lat="49.26595" lon="1.09017">
        <ele>101</ele>
        <time>2016-07-10T08:33:55.000Z</time>
      </trkpt>
      <trkpt lat="49.26593" lon="1.09019">
        <ele>102</ele>
        <time>2016-07-10T08:33:56.000Z</time>
      </trkpt>
      <trkpt lat="49.2659" lon="1.09021">
        <ele>103</ele>
        <time>2016-07-10T08:33:57.000Z</time>
      </trkpt>
      <trkpt lat="49.26588" lon="1.09023">
        <ele>104</ele>
        <time>2016-07-10T08:33:58.000Z</time>
      </trkpt>
      <trkpt lat="49.26584" lon="1.09025">
        <ele>103</ele>
        <time>2016-07-10T08:33:59.000Z</time>
      </trkpt>
      <trkpt lat="49.26581" lon="1.09026">
        <ele>103</ele>
        <time>2016-07-10T08:34:00.000Z</time>
      </trkpt>
      <trkpt lat="49.26578" lon="1.09027">
        <ele>101</ele>
        <time>2016-07-10T08:34:01.000Z</time>
      </trkpt>
      <trkpt lat="49.26574" lon="1.09029">
        <ele>101</ele>
        <time>2016-07-10T08:34:02.000Z</time>
      </trkpt>
      <trkpt lat="49.26571" lon="1.09031">
        <ele>103</ele>
        <time>2016-07-10T08:34:03.000Z</time>
      </trkpt>
      <trkpt lat="49.26568" lon="1.09033">
        <ele>103</ele>
        <time>2016-07-10T08:34:04.000Z</time>
      </trkpt>
      <trkpt lat="49.26565" lon="1.09036">
        <ele>103</ele>
        <time>2016-07-10T08:34:05.000Z</time>
      </trkpt>
      <trkpt lat="49.26563" lon="1.09038">
        <ele>104</ele>
        <time>2016-07-10T08:34:06.000Z</time>
      </trkpt>
      <trkpt lat="49.26561" lon="1.0904">
        <ele>105</ele>
        <time>2016-07-10T08:34:07.000Z</time>
      </trkpt>
      <trkpt lat="49.26559" lon="1.09041">
        <ele>105</ele>
        <time>2016-07-10T08:34:08.000Z</time>
      </trkpt>
      <trkpt lat="49.26556" lon="1.09043">
        <ele>105</ele>
        <time>2016-07-10T08:34:09.000Z</time>
      </trkpt>
      <trkpt lat="49.26553" lon="1.09045">
        <ele>105</ele>
        <time>2016-07-10T08:34:10.000Z</time>
      </trkpt>
      <trkpt lat="49.26549" lon="1.09048">
        <ele>106</ele>
        <time>2016-07-10T08:34:11.000Z</time>
      </trkpt>
      <trkpt lat="49.26546" lon="1.09051">
        <ele>106</ele>
        <time>2016-07-10T08:34:12.000Z</time>
      </trkpt>
      <trkpt lat="49.26543" lon="1.09055">
        <ele>106</ele>
        <time>2016-07-10T08:34:13.000Z</time>
      </trkpt>
      <trkpt lat="49.2654" lon="1.09059">
        <ele>105</ele>
        <time>2016-07-10T08:34:14.000Z</time>
      </trkpt>
      <trkpt lat="49.26536" lon="1.09063">
        <ele>105</ele>
        <time>2016-07-10T08:34:15.000Z</time>
      </trkpt>
      <trkpt lat="49.26533" lon="1.09066">
        <ele>105</ele>
        <time>2016-07-10T08:34:16.000Z</time>
      </trkpt>
      <trkpt lat="49.2653" lon="1.0907">
        <ele>106</ele>
        <time>2016-07-10T08:34:17.000Z</time>
      </trkpt>
      <trkpt lat="49.26528" lon="1.09074">
        <ele>106</ele>
        <time>2016-07-10T08:34:18.000Z</time>
      </trkpt>
      <trkpt lat="49.26525" lon="1.09077">
        <ele>106</ele>
        <time>2016-07-10T08:34:19.000Z</time>
      </trkpt>
      <trkpt lat="49.26522" lon="1.0908">
        <ele>106</ele>
        <time>2016-07-10T08:34:20.000Z</time>
      </trkpt>
      <trkpt lat="49.26518" lon="1.09084">
        <ele>105</ele>
        <time>2016-07-10T08:34:21.000Z</time>
      </trkpt>
      <trkpt lat="49.26514" lon="1.09087">
        <ele>107</ele>
        <time>2016-07-10T08:34:22.000Z</time>
      </trkpt>
      <trkpt lat="49.2651" lon="1.09092">
        <ele>108</ele>
        <time>2016-07-10T08:34:23.000Z</time>
      </trkpt>
      <trkpt lat="49.26506" lon="1.09097">
        <ele>109</ele>
        <time>2016-07-10T08:34:24.000Z</time>
      </trkpt>
      <trkpt lat="49.26501" lon="1.09102">
        <ele>109</ele>
        <time>2016-07-10T08:34:25.000Z</time>
      </trkpt>
      <trkpt lat="49.26496" lon="1.09106">
        <ele>108</ele>
        <time>2016-07-10T08:34:26.000Z</time>
      </trkpt>
      <trkpt lat="49.2649" lon="1.09112">
        <ele>110</ele>
        <time>2016-07-10T08:34:27.000Z</time>
      </trkpt>
      <trkpt lat="49.26485" lon="1.09117">
        <ele>110</ele>
        <time>2016-07-10T08:34:28.000Z</time>
      </trkpt>
      <trkpt lat="49.2648" lon="1.09121">
        <ele>111</ele>
        <time>2016-07-10T08:34:29.000Z</time>
      </trkpt>
      <trkpt lat="49.26476" lon="1.09125">
        <ele>111</ele>
        <time>2016-07-10T08:34:30.000Z</time>
      </trkpt>
      <trkpt lat="49.26473" lon="1.09129">
        <ele>112</ele>
        <time>2016-07-10T08:34:31.000Z</time>
      </trkpt>
      <trkpt lat="49.26469" lon="1.09133">
        <ele>111</ele>
        <time>2016-07-10T08:34:32.000Z</time>
      </trkpt>
      <trkpt lat="49.26464" lon="1.09138">
        <ele>112</ele>
        <time>2016-07-10T08:34:33.000Z</time>
      </trkpt>
      <trkpt lat="49.26459" lon="1.09144">
        <ele>113</ele>
        <time>2016-07-10T08:34:34.000Z</time>
      </trkpt>
      <trkpt lat="49.26455" lon="1.0915">
        <ele>114</ele>
        <time>2016-07-10T08:34:35.000Z</time>
      </trkpt>
      <trkpt lat="49.26452" lon="1.09157">
        <ele>115</ele>
        <time>2016-07-10T08:34:36.000Z</time>
      </trkpt>
      <trkpt lat="49.26447" lon="1.09164">
        <ele>117</ele>
        <time>2016-07-10T08:34:37.000Z</time>
      </trkpt>
      <trkpt lat="49.26443" lon="1.09171">
        <ele>119</ele>
        <time>2016-07-10T08:34:38.000Z</time>
      </trkpt>
      <trkpt lat="49.26438" lon="1.09179">
        <ele>120</ele>
        <time>2016-07-10T08:34:39.000Z</time>
      </trkpt>
      <trkpt lat="49.26434" lon="1.09186">
        <ele>120</ele>
        <time>2016-07-10T08:34:40.000Z</time>
      </trkpt>
      <trkpt lat="49.2643" lon="1.09193">
        <ele>121</ele>
        <time>2016-07-10T08:34:41.000Z</time>
      </trkpt>
      <trkpt lat="49.26427" lon="1.09199">
        <ele>121</ele>
        <time>2016-07-10T08:34:42.000Z</time>
      </trkpt>
      <trkpt lat="49.26425" lon="1.09206">
        <ele>122</ele>
        <time>2016-07-10T08:34:43.000Z</time>
      </trkpt>
      <trkpt lat="49.26422" lon="1.09211">
        <ele>121</ele>
        <time>2016-07-10T08:34:44.000Z</time>
      </trkpt>
      <trkpt lat="49.2642" lon="1.09217">
        <ele>121</ele>
        <time>2016-07-10T08:34:45.000Z</time>
      </trkpt>
      <trkpt lat="49.26417" lon="1.09222">
        <ele>122</ele>
        <time>2016-07-10T08:34:46.000Z</time>
      </trkpt>
      <trkpt lat="49.26414" lon="1.09228">
        <ele>123</ele>
        <time>2016-07-10T08:34:47.000Z</time>
      </trkpt>
      <trkpt lat="49.26412" lon="1.09234">
        <ele>124</ele>
        <time>2016-07-10T08:34:48.000Z</time>
      </trkpt>
      <trkpt lat="49.26409" lon="1.0924">
        <ele>124</ele>
        <time>2016-07-10T08:34:49.000Z</time>
      </trkpt>
      <trkpt lat="49.26407" lon="1.09246">
        <ele>124</ele>
        <time>2016-07-10T08:34:50.000Z</time>
      </trkpt>
      <trkpt lat="49.26405" lon="1.09252">
        <ele>124</ele>
        <time>2016-07-10T08:34:51.000Z</time>
      </trkpt>
      <trkpt lat="49.26403" lon="1.09258">
        <ele>123</ele>
        <time>2016-07-10T08:34:52.000Z</time>
      </trkpt>
      <trkpt lat="49.26402" lon="1.09263">
        <ele>123</ele>
        <time>2016-07-10T08:34:53.000Z</time>
      </trkpt>
      <trkpt lat="49.26401" lon="1.09269">
        <ele>123</ele>
        <time>2016-07-10T08:34:54.000Z</time>
      </trkpt>
      <trkpt lat="49.264" lon="1.09274">
        <ele>123</ele>
        <time>2016-07-10T08:34:55.000Z</time>
      </trkpt>
      <trkpt lat="49.26399" lon="1.09279">
        <ele>123</ele>
        <time>2016-07-10T08:34:56.000Z</time>
      </trkpt>
      <trkpt lat="49.26398" lon="1.09284">
        <ele>123</ele>
        <time>2016-07-10T08:34:57.000Z</time>
      </trkpt>
      <trkpt lat="49.26397" lon="1.09289">
        <ele>123</ele>
        <time>2016-07-10T08:34:58.000Z</time>
      </trkpt>
      <trkpt lat="49.26396" lon="1.09295">
        <ele>123</ele>
        <time>2016-07-10T08:34:59.000Z</time>
      </trkpt>
      <trkpt lat="49.26395" lon="1.09301">
        <ele>123</ele>
        <time>2016-07-10T08:35:00.000Z</time>
      </trkpt>
      <trkpt lat="49.26394" lon="1.09307">
        <ele>123</ele>
        <time>2016-07-10T08:35:01.000Z</time>
      </trkpt>
      <trkpt lat="49.26393" lon="1.09313">
        <ele>122</ele>
        <time>2016-07-10T08:35:02.000Z</time>
      </trkpt>
      <trkpt lat="49.26393" lon="1.09318">
        <ele>121</ele>
        <time>2016-07-10T08:35:03.000Z</time>
      </trkpt>
      <trkpt lat="49.26393" lon="1.09324">
        <ele>122</ele>
        <time>2016-07-10T08:35:04.000Z</time>
      </trkpt>
      <trkpt lat="49.26392" lon="1.0933">
        <ele>122</ele>
        <time>2016-07-10T08:35:05.000Z</time>
      </trkpt>
      <trkpt lat="49.26391" lon="1.09337">
        <ele>122</ele>
        <time>2016-07-10T08:35:06.000Z</time>
      </trkpt>
      <trkpt lat="49.2639" lon="1.09342">
        <ele>122</ele>
        <time>2016-07-10T08:35:07.000Z</time>
      </trkpt>
      <trkpt lat="49.2639" lon="1.09348">
        <ele>121</ele>
        <time>2016-07-10T08:35:08.000Z</time>
      </trkpt>
      <trkpt lat="49.26389" lon="1.09353">
        <ele>121</ele>
        <time>2016-07-10T08:35:09.000Z</time>
      </trkpt>
      <trkpt lat="49.26389" lon="1.09359">
        <ele>121</ele>
        <time>2016-07-10T08:35:10.000Z</time>
      </trkpt>
      <trkpt lat="49.26389" lon="1.09364">
        <ele>121</ele>
        <time>2016-07-10T08:35:11.000Z</time>
      </trkpt>
      <trkpt lat="49.26389" lon="1.09369">
        <ele>121</ele>
        <time>2016-07-10T08:35:12.000Z</time>
      </trkpt>
      <trkpt lat="49.26389" lon="1.09373">
        <ele>121</ele>
        <time>2016-07-10T08:35:13.000Z</time>
      </trkpt>
      <trkpt lat="49.26389" lon="1.09378">
        <ele>120</ele>
        <time>2016-07-10T08:35:14.000Z</time>
      </trkpt>
      <trkpt lat="49.26389" lon="1.09383">
        <ele>120</ele>
        <time>2016-07-10T08:35:15.000Z</time>
      </trkpt>
      <trkpt lat="49.26389" lon="1.09389">
        <ele>120</ele>
        <time>2016-07-10T08:35:16.000Z</time>
      </trkpt>
      <trkpt lat="49.2639" lon="1.09395">
        <ele>120</ele>
        <time>2016-07-10T08:35:17.000Z</time>
      </trkpt>
      <trkpt lat="49.26392" lon="1.09401">
        <ele>121</ele>
        <time>2016-07-10T08:35:18.000Z</time>
      </trkpt>
      <trkpt lat="49.26393" lon="1.09407">
        <ele>121</ele>
        <time>2016-07-10T08:35:19.000Z</time>
      </trkpt>
      <trkpt lat="49.26394" lon="1.09413">
        <ele>121</ele>
        <time>2016-07-10T08:35:20.000Z</time>
      </trkpt>
      <trkpt lat="49.26394" lon="1.09419">
        <ele>121</ele>
        <time>2016-07-10T08:35:21.000Z</time>
      </trkpt>
      <trkpt lat="49.26394" lon="1.09423">
        <ele>120</ele>
        <time>2016-07-10T08:35:22.000Z</time>
      </trkpt>
      <trkpt lat="49.26394" lon="1.09428">
        <ele>120</ele>
        <time>2016-07-10T08:35:23.000Z</time>
      </trkpt>
      <trkpt lat="49.26395" lon="1.09432">
        <ele>120</ele>
        <time>2016-07-10T08:35:24.000Z</time>
      </trkpt>
      <trkpt lat="49.26395" lon="1.09437">
        <ele>121</ele>
        <time>2016-07-10T08:35:25.000Z</time>
      </trkpt>
      <trkpt lat="49.26394" lon="1.09443">
        <ele>120</ele>
        <time>2016-07-10T08:35:26.000Z</time>
      </trkpt>
      <trkpt lat="49.26394" lon="1.09448">
        <ele>119</ele>
        <time>2016-07-10T08:35:27.000Z</time>
      </trkpt>
      <trkpt lat="49.26394" lon="1.09453">
        <ele>119</ele>
        <time>2016-07-10T08:35:28.000Z</time>
      </trkpt>
      <trkpt lat="49.26394" lon="1.0946">
        <ele>118</ele>
        <time>2016-07-10T08:35:29.000Z</time>
      </trkpt>
      <trkpt lat="49.26395" lon="1.09466">
        <ele>119</ele>
        <time>2016-07-10T08:35:30.000Z</time>
      </trkpt>
      <trkpt lat="49.26397" lon="1.09472">
        <ele>119</ele>
        <time>2016-07-10T08:35:31.000Z</time>
      </trkpt>
      <trkpt lat="49.26399" lon="1.09479">
        <ele>119</ele>
        <time>2016-07-10T08:35:32.000Z</time>
      </trkpt>
      <trkpt lat="49.264" lon="1.09485">
        <ele>119</ele>
        <time>2016-07-10T08:35:33.000Z</time>
      </trkpt>
      <trkpt lat="49.264" lon="1.0949">
        <ele>119</ele>
        <time>2016-07-10T08:35:34.000Z</time>
      </trkpt>
      <trkpt lat="49.26399" lon="1.09496">
        <ele>119</ele>
        <time>2016-07-10T08:35:35.000Z</time>
      </trkpt>
      <trkpt lat="49.26399" lon="1.09501">
        <ele>119</ele>
        <time>2016-07-10T08:35:36.000Z</time>
      </trkpt>
      <trkpt lat="49.264" lon="1.09507">
        <ele>119</ele>
        <time>2016-07-10T08:35:37.000Z</time>
      </trkpt>
      <trkpt lat="49.264" lon="1.09513">
        <ele>119</ele>
        <time>2016-07-10T08:35:38.000Z</time>
      </trkpt>
      <trkpt lat="49.26401" lon="1.09519">
        <ele>119</ele>
        <time>2016-07-10T08:35:39.000Z</time>
      </trkpt>
      <trkpt lat="49.26402" lon="1.09526">
        <ele>119</ele>
        <time>2016-07-10T08:35:40.000Z</time>
      </trkpt>
      <trkpt lat="49.26403" lon="1.09532">
        <ele>119</ele>
        <time>2016-07-10T08:35:41.000Z</time>
      </trkpt>
      <trkpt lat="49.26404" lon="1.09537">
        <ele>119</ele>
        <time>2016-07-10T08:35:42.000Z</time>
      </trkpt>
      <trkpt lat="49.26405" lon="1.09543">
        <ele>120</ele>
        <time>2016-07-10T08:35:43.000Z</time>
      </trkpt>
      <trkpt lat="49.26407" lon="1.09548">
        <ele>120</ele>
        <time>2016-07-10T08:35:44.000Z</time>
      </trkpt>
      <trkpt lat="49.26408" lon="1.09553">
        <ele>119</ele>
        <time>2016-07-10T08:35:45.000Z</time>
      </trkpt>
      <trkpt lat="49.26408" lon="1.09558">
        <ele>119</ele>
        <time>2016-07-10T08:35:46.000Z</time>
      </trkpt>
      <trkpt lat="49.26408" lon="1.09562">
        <ele>120</ele>
        <time>2016-07-10T08:35:47.000Z</time>
      </trkpt>
      <trkpt lat="49.26407" lon="1.09565">
        <ele>120</ele>
        <time>2016-07-10T08:35:48.000Z</time>
      </trkpt>
      <trkpt lat="49.26406" lon="1.09568">
        <ele>120</ele>
        <time>2016-07-10T08:35:49.000Z</time>
      </trkpt>
      <trkpt lat="49.26406" lon="1.09571">
        <ele>120</ele>
        <time>2016-07-10T08:35:50.000Z</time>
      </trkpt>
      <trkpt lat="49.26405" lon="1.09575">
        <ele>120</ele>
        <time>2016-07-10T08:35:51.000Z</time>
      </trkpt>
      <trkpt lat="49.26405" lon="1.09579">
        <ele>120</ele>
        <time>2016-07-10T08:35:52.000Z</time>
      </trkpt>
      <trkpt lat="49.26404" lon="1.09584">
        <ele>121</ele>
        <time>2016-07-10T08:35:53.000Z</time>
      </trkpt>
      <trkpt lat="49.26404" lon="1.09588">
        <ele>121</ele>
        <time>2016-07-10T08:35:54.000Z</time>
      </trkpt>
      <trkpt lat="49.26404" lon="1.09592">
        <ele>121</ele>
        <time>2016-07-10T08:35:55.000Z</time>
      </trkpt>
      <trkpt lat="49.26404" lon="1.09595">
        <ele>121</ele>
        <time>2016-07-10T08:35:56.000Z</time>
      </trkpt>
      <trkpt lat="49.26405" lon="1.09599">
        <ele>122</ele>
        <time>2016-07-10T08:35:57.000Z</time>
      </trkpt>
      <trkpt lat="49.26407" lon="1.09603">
        <ele>123</ele>
        <time>2016-07-10T08:35:58.000Z</time>
      </trkpt>
      <trkpt lat="49.26409" lon="1.09607">
        <ele>123</ele>
        <time>2016-07-10T08:35:59.000Z</time>
      </trkpt>
      <trkpt lat="49.26409" lon="1.09612">
        <ele>123</ele>
        <time>2016-07-10T08:36:00.000Z</time>
      </trkpt>
      <trkpt lat="49.26409" lon="1.09616">
        <ele>123</ele>
        <time>2016-07-10T08:36:01.000Z</time>
      </trkpt>
      <trkpt lat="49.26409" lon="1.0962">
        <ele>123</ele>
        <time>2016-07-10T08:36:02.000Z</time>
      </trkpt>
      <trkpt lat="49.2641" lon="1.09623">
        <ele>123</ele>
        <time>2016-07-10T08:36:03.000Z</time>
      </trkpt>
      <trkpt lat="49.2641" lon="1.09627">
        <ele>124</ele>
        <time>2016-07-10T08:36:04.000Z</time>
      </trkpt>
      <trkpt lat="49.26411" lon="1.0963">
        <ele>124</ele>
        <time>2016-07-10T08:36:05.000Z</time>
      </trkpt>
      <trkpt lat="49.26411" lon="1.09634">
        <ele>124</ele>
        <time>2016-07-10T08:36:06.000Z</time>
      </trkpt>
      <trkpt lat="49.26412" lon="1.09637">
        <ele>125</ele>
        <time>2016-07-10T08:36:07.000Z</time>
      </trkpt>
      <trkpt lat="49.26412" lon="1.09642">
        <ele>125</ele>
        <time>2016-07-10T08:36:08.000Z</time>
      </trkpt>
      <trkpt lat="49.26412" lon="1.09647">
        <ele>125</ele>
        <time>2016-07-10T08:36:09.000Z</time>
      </trkpt>
      <trkpt lat="49.26411" lon="1.09651">
        <ele>125</ele>
        <time>2016-07-10T08:36:10.000Z</time>
      </trkpt>
      <trkpt lat="49.26411" lon="1.09656">
        <ele>125</ele>
        <time>2016-07-10T08:36:11.000Z</time>
      </trkpt>
      <trkpt lat="49.26411" lon="1.0966">
        <ele>125</ele>
        <time>2016-07-10T08:36:12.000Z</time>
      </trkpt>
      <trkpt lat="49.2641" lon="1.09664">
        <ele>125</ele>
        <time>2016-07-10T08:36:13.000Z</time>
      </trkpt>
      <trkpt lat="49.2641" lon="1.09667">
        <ele>124</ele>
        <time>2016-07-10T08:36:14.000Z</time>
      </trkpt>
      <trkpt lat="49.2641" lon="1.0967">
        <ele>124</ele>
        <time>2016-07-10T08:36:15.000Z</time>
      </trkpt>
      <trkpt lat="49.2641" lon="1.09673">
        <ele>124</ele>
        <time>2016-07-10T08:36:16.000Z</time>
      </trkpt>
      <trkpt lat="49.26411" lon="1.09677">
        <ele>123</ele>
        <time>2016-07-10T08:36:17.000Z</time>
      </trkpt>
      <trkpt lat="49.26411" lon="1.0968">
        <ele>123</ele>
        <time>2016-07-10T08:36:18.000Z</time>
      </trkpt>
      <trkpt lat="49.26412" lon="1.09684">
        <ele>123</ele>
        <time>2016-07-10T08:36:19.000Z</time>
      </trkpt>
      <trkpt lat="49.26413" lon="1.09688">
        <ele>123</ele>
        <time>2016-07-10T08:36:20.000Z</time>
      </trkpt>
      <trkpt lat="49.26415" lon="1.09692">
        <ele>123</ele>
        <time>2016-07-10T08:36:21.000Z</time>
      </trkpt>
      <trkpt lat="49.26416" lon="1.09697">
        <ele>122</ele>
        <time>2016-07-10T08:36:22.000Z</time>
      </trkpt>
      <trkpt lat="49.26415" lon="1.09702">
        <ele>122</ele>
        <time>2016-07-10T08:36:23.000Z</time>
      </trkpt>
      <trkpt lat="49.26414" lon="1.09706">
        <ele>122</ele>
        <time>2016-07-10T08:36:24.000Z</time>
      </trkpt>
      <trkpt lat="49.26414" lon="1.0971">
        <ele>122</ele>
        <time>2016-07-10T08:36:25.000Z</time>
      </trkpt>
      <trkpt lat="49.26415" lon="1.09715">
        <ele>122</ele>
        <time>2016-07-10T08:36:26.000Z</time>
      </trkpt>
      <trkpt lat="49.26416" lon="1.0972">
        <ele>124</ele>
        <time>2016-07-10T08:36:27.000Z</time>
      </trkpt>
      <trkpt lat="49.26418" lon="1.09725">
        <ele>124</ele>
        <time>2016-07-10T08:36:28.000Z</time>
      </trkpt>
      <trkpt lat="49.2642" lon="1.0973">
        <ele>125</ele>
        <time>2016-07-10T08:36:29.000Z</time>
      </trkpt>
      <trkpt lat="49.26422" lon="1.09735">
        <ele>126</ele>
        <time>2016-07-10T08:36:30.000Z</time>
      </trkpt>
      <trkpt lat="49.26425" lon="1.0974">
        <ele>126</ele>
        <time>2016-07-10T08:36:31.000Z</time>
      </trkpt>
      <trkpt lat="49.26427" lon="1.09745">
        <ele>126</ele>
        <time>2016-07-10T08:36:32.000Z</time>
      </trkpt>
      <trkpt lat="49.26429" lon="1.0975">
        <ele>127</ele>
        <time>2016-07-10T08:36:33.000Z</time>
      </trkpt>
      <trkpt lat="49.2643" lon="1.09754">
        <ele>126</ele>
        <time>2016-07-10T08:36:34.000Z</time>
      </trkpt>
      <trkpt lat="49.26431" lon="1.09759">
        <ele>127</ele>
        <time>2016-07-10T08:36:35.000Z</time>
      </trkpt>
      <trkpt lat="49.26432" lon="1.09764">
        <ele>127</ele>
        <time>2016-07-10T08:36:36.000Z</time>
      </trkpt>
      <trkpt lat="49.26433" lon="1.09769">
        <ele>127</ele>
        <time>2016-07-10T08:36:37.000Z</time>
      </trkpt>
      <trkpt lat="49.26434" lon="1.09775">
        <ele>127</ele>
        <time>2016-07-10T08:36:38.000Z</time>
      </trkpt>
      <trkpt lat="49.26435" lon="1.09781">
        <ele>128</ele>
        <time>2016-07-10T08:36:39.000Z</time>
      </trkpt>
      <trkpt lat="49.26438" lon="1.09787">
        <ele>128</ele>
        <time>2016-07-10T08:36:40.000Z</time>
      </trkpt>
      <trkpt lat="49.26439" lon="1.09793">
        <ele>128</ele>
        <time>2016-07-10T08:36:41.000Z</time>
      </trkpt>
      <trkpt lat="49.26441" lon="1.09798">
        <ele>127</ele>
        <time>2016-07-10T08:36:42.000Z</time>
      </trkpt>
      <trkpt lat="49.26442" lon="1.09804">
        <ele>126</ele>
        <time>2016-07-10T08:36:43.000Z</time>
      </trkpt>
      <trkpt lat="49.26444" lon="1.0981">
        <ele>125</ele>
        <time>2016-07-10T08:36:44.000Z</time>
      </trkpt>
      <trkpt lat="49.26445" lon="1.09815">
        <ele>125</ele>
        <time>2016-07-10T08:36:45.000Z</time>
      </trkpt>
      <trkpt lat="49.26445" lon="1.0982">
        <ele>125</ele>
        <time>2016-07-10T08:36:46.000Z</time>
      </trkpt>
      <trkpt lat="49.26446" lon="1.09825">
        <ele>126</ele>
        <time>2016-07-10T08:36:47.000Z</time>
      </trkpt>
      <trkpt lat="49.26445" lon="1.0983">
        <ele>125</ele>
        <time>2016-07-10T08:36:48.000Z</time>
      </trkpt>
      <trkpt lat="49.26445" lon="1.09833">
        <ele>125</ele>
        <time>2016-07-10T08:36:49.000Z</time>
      </trkpt>
      <trkpt lat="49.26445" lon="1.09837">
        <ele>125</ele>
        <time>2016-07-10T08:36:50.000Z</time>
      </trkpt>
      <trkpt lat="49.26445" lon="1.09841">
        <ele>125</ele>
        <time>2016-07-10T08:36:51.000Z</time>
      </trkpt>
      <trkpt lat="49.26446" lon="1.09845">
        <ele>126</ele>
        <time>2016-07-10T08:36:52.000Z</time>
      </trkpt>
      <trkpt lat="49.26448" lon="1.09849">
        <ele>126</ele>
        <time>2016-07-10T08:36:53.000Z</time>
      </trkpt>
      <trkpt lat="49.26448" lon="1.09852">
        <ele>127</ele>
        <time>2016-07-10T08:36:54.000Z</time>
      </trkpt>
      <trkpt lat="49.26449" lon="1.09856">
        <ele>127</ele>
        <time>2016-07-10T08:36:55.000Z</time>
      </trkpt>
      <trkpt lat="49.2645" lon="1.0986">
        <ele>128</ele>
        <time>2016-07-10T08:36:56.000Z</time>
      </trkpt>
      <trkpt lat="49.26451" lon="1.09864">
        <ele>129</ele>
        <time>2016-07-10T08:36:57.000Z</time>
      </trkpt>
      <trkpt lat="49.26452" lon="1.09869">
        <ele>130</ele>
        <time>2016-07-10T08:36:58.000Z</time>
      </trkpt>
      <trkpt lat="49.26453" lon="1.09873">
        <ele>132</ele>
        <time>2016-07-10T08:36:59.000Z</time>
      </trkpt>
      <trkpt lat="49.26454" lon="1.09876">
        <ele>133</ele>
        <time>2016-07-10T08:37:00.000Z</time>
      </trkpt>
      <trkpt lat="49.26455" lon="1.0988">
        <ele>134</ele>
        <time>2016-07-10T08:37:01.000Z</time>
      </trkpt>
      <trkpt lat="49.26456" lon="1.09883">
        <ele>135</ele>
        <time>2016-07-10T08:37:02.000Z</time>
      </trkpt>
      <trkpt lat="49.26457" lon="1.09887">
        <ele>135</ele>
        <time>2016-07-10T08:37:03.000Z</time>
      </trkpt>
      <trkpt lat="49.26457" lon="1.0989">
        <ele>135</ele>
        <time>2016-07-10T08:37:04.000Z</time>
      </trkpt>
      <trkpt lat="49.26457" lon="1.09894">
        <ele>136</ele>
        <time>2016-07-10T08:37:05.000Z</time>
      </trkpt>
      <trkpt lat="49.26459" lon="1.09897">
        <ele>136</ele>
        <time>2016-07-10T08:37:06.000Z</time>
      </trkpt>
      <trkpt lat="49.2646" lon="1.099">
        <ele>137</ele>
        <time>2016-07-10T08:37:07.000Z</time>
      </trkpt>
      <trkpt lat="49.26461" lon="1.09904">
        <ele>137</ele>
        <time>2016-07-10T08:37:08.000Z</time>
      </trkpt>
      <trkpt lat="49.26462" lon="1.09907">
        <ele>137</ele>
        <time>2016-07-10T08:37:09.000Z</time>
      </trkpt>
      <trkpt lat="49.26463" lon="1.09909">
        <ele>137</ele>
        <time>2016-07-10T08:37:10.000Z</time>
      </trkpt>
      <trkpt lat="49.26464" lon="1.09911">
        <ele>137</ele>
        <time>2016-07-10T08:37:11.000Z</time>
      </trkpt>
      <trkpt lat="49.26464" lon="1.09911">
        <ele>137</ele>
        <time>2016-07-10T08:37:12.000Z</time>
      </trkpt>
      <trkpt lat="49.26464" lon="1.09912">
        <ele>138</ele>
        <time>2016-07-10T08:37:13.000Z</time>
      </trkpt>
      <trkpt lat="49.26463" lon="1.09912">
        <ele>138</ele>
        <time>2016-07-10T08:37:14.000Z</time>
      </trkpt>
      <trkpt lat="49.26463" lon="1.09912">
        <ele>139</ele>
        <time>2016-07-10T08:37:15.000Z</time>
      </trkpt>
      <trkpt lat="49.26463" lon="1.09913">
        <ele>139</ele>
        <time>2016-07-10T08:37:16.000Z</time>
      </trkpt>
      <trkpt lat="49.26463" lon="1.09913">
        <ele>139</ele>
        <time>2016-07-10T08:37:17.000Z</time>
      </trkpt>
      <trkpt lat="49.26463" lon="1.09913">
        <ele>138</ele>
        <time>2016-07-10T08:37:18.000Z</time>
      </trkpt>
      <trkpt lat="49.26462" lon="1.09914">
        <ele>138</ele>
        <time>2016-07-10T08:37:19.000Z</time>
      </trkpt>
      <trkpt lat="49.26462" lon="1.09914">
        <ele>138</ele>
        <time>2016-07-10T08:37:20.000Z</time>
      </trkpt>
      <trkpt lat="49.26462" lon="1.09915">
        <ele>138</ele>
        <time>2016-07-10T08:37:21.000Z</time>
      </trkpt>
      <trkpt lat="49.26462" lon="1.09915">
        <ele>138</ele>
        <time>2016-07-10T08:37:22.000Z</time>
      </trkpt>
      <trkpt lat="49.26461" lon="1.09915">
        <ele>137</ele>
        <time>2016-07-10T08:37:23.000Z</time>
      </trkpt>
      <trkpt lat="49.26462" lon="1.09915">
        <ele>138</ele>
        <time>2016-07-10T08:37:24.000Z</time>
      </trkpt>
      <trkpt lat="49.26462" lon="1.09915">
        <ele>138</ele>
        <time>2016-07-10T08:37:25.000Z</time>
      </trkpt>
      <trkpt lat="49.26463" lon="1.09915">
        <ele>138</ele>
        <time>2016-07-10T08:37:26.000Z</time>
      </trkpt>
      <trkpt lat="49.26463" lon="1.09916">
        <ele>137</ele>
        <time>2016-07-10T08:37:27.000Z</time>
      </trkpt>
      <trkpt lat="49.26463" lon="1.09916">
        <ele>138</ele>
        <time>2016-07-10T08:37:28.000Z</time>
      </trkpt>
      <trkpt lat="49.26463" lon="1.09917">
        <ele>137</ele>
        <time>2016-07-10T08:37:29.000Z</time>
      </trkpt>
      <trkpt lat="49.26463" lon="1.09917">
        <ele>138</ele>
        <time>2016-07-10T08:37:30.000Z</time>
      </trkpt>
      <trkpt lat="49.26463" lon="1.09917">
        <ele>138</ele>
        <time>2016-07-10T08:37:31.000Z</time>
      </trkpt>
      <trkpt lat="49.26463" lon="1.09918">
        <ele>137</ele>
        <time>2016-07-10T08:37:32.000Z</time>
      </trkpt>
      <trkpt lat="49.26464" lon="1.09919">
        <ele>137</ele>
        <time>2016-07-10T08:37:33.000Z</time>
      </trkpt>
      <trkpt lat="49.26467" lon="1.0992">
        <ele>137</ele>
        <time>2016-07-10T08:37:34.000Z</time>
      </trkpt>
      <trkpt lat="49.26469" lon="1.09922">
        <ele>137</ele>
        <time>2016-07-10T08:37:35.000Z</time>
      </trkpt>
      <trkpt lat="49.26472" lon="1.09925">
        <ele>137</ele>
        <time>2016-07-10T08:37:36.000Z</time>
      </trkpt>
      <trkpt lat="49.26475" lon="1.09928">
        <ele>137</ele>
        <time>2016-07-10T08:37:37.000Z</time>
      </trkpt>
      <trkpt lat="49.26477" lon="1.09931">
        <ele>136</ele>
        <time>2016-07-10T08:37:38.000Z</time>
      </trkpt>
      <trkpt lat="49.2648" lon="1.09935">
        <ele>136</ele>
        <time>2016-07-10T08:37:39.000Z</time>
      </trkpt>
      <trkpt lat="49.26483" lon="1.0994">
        <ele>136</ele>
        <time>2016-07-10T08:37:40.000Z</time>
      </trkpt>
      <trkpt lat="49.26486" lon="1.09945">
        <ele>135</ele>
        <time>2016-07-10T08:37:41.000Z</time>
      </trkpt>
      <trkpt lat="49.2649" lon="1.0995">
        <ele>135</ele>
        <time>2016-07-10T08:37:42.000Z</time>
      </trkpt>
      <trkpt lat="49.26493" lon="1.09954">
        <ele>135</ele>
        <time>2016-07-10T08:37:43.000Z</time>
      </trkpt>
      <trkpt lat="49.26496" lon="1.09959">
        <ele>134</ele>
        <time>2016-07-10T08:37:44.000Z</time>
      </trkpt>
      <trkpt lat="49.26498" lon="1.09964">
        <ele>133</ele>
        <time>2016-07-10T08:37:45.000Z</time>
      </trkpt>
      <trkpt lat="49.26499" lon="1.0997">
        <ele>133</ele>
        <time>2016-07-10T08:37:46.000Z</time>
      </trkpt>
      <trkpt lat="49.26501" lon="1.09975">
        <ele>133</ele>
        <time>2016-07-10T08:37:47.000Z</time>
      </trkpt>
      <trkpt lat="49.26503" lon="1.0998">
        <ele>133</ele>
        <time>2016-07-10T08:37:48.000Z</time>
      </trkpt>
      <trkpt lat="49.26505" lon="1.09984">
        <ele>133</ele>
        <time>2016-07-10T08:37:49.000Z</time>
      </trkpt>
      <trkpt lat="49.26508" lon="1.09988">
        <ele>133</ele>
        <time>2016-07-10T08:37:50.000Z</time>
      </trkpt>
      <trkpt lat="49.2651" lon="1.09992">
        <ele>133</ele>
        <time>2016-07-10T08:37:51.000Z</time>
      </trkpt>
      <trkpt lat="49.26512" lon="1.09996">
        <ele>133</ele>
        <time>2016-07-10T08:37:52.000Z</time>
      </trkpt>
      <trkpt lat="49.26515" lon="1.09999">
        <ele>133</ele>
        <time>2016-07-10T08:37:53.000Z</time>
      </trkpt>
      <trkpt lat="49.26518" lon="1.10002">
        <ele>132</ele>
        <time>2016-07-10T08:37:54.000Z</time>
      </trkpt>
      <trkpt lat="49.26521" lon="1.10004">
        <ele>132</ele>
        <time>2016-07-10T08:37:55.000Z</time>
      </trkpt>
      <trkpt lat="49.26524" lon="1.10006">
        <ele>132</ele>
        <time>2016-07-10T08:37:56.000Z</time>
      </trkpt>
      <trkpt lat="49.26527" lon="1.10008">
        <ele>130</ele>
        <time>2016-07-10T08:37:57.000Z</time>
      </trkpt>
      <trkpt lat="49.2653" lon="1.10009">
        <ele>129</ele>
        <time>2016-07-10T08:37:58.000Z</time>
      </trkpt>
      <trkpt lat="49.26533" lon="1.1001">
        <ele>129</ele>
        <time>2016-07-10T08:37:59.000Z</time>
      </trkpt>
      <trkpt lat="49.26536" lon="1.10011">
        <ele>129</ele>
        <time>2016-07-10T08:38:00.000Z</time>
      </trkpt>
      <trkpt lat="49.26539" lon="1.10013">
        <ele>128</ele>
        <time>2016-07-10T08:38:01.000Z</time>
      </trkpt>
      <trkpt lat="49.26543" lon="1.10014">
        <ele>128</ele>
        <time>2016-07-10T08:38:02.000Z</time>
      </trkpt>
      <trkpt lat="49.26547" lon="1.10015">
        <ele>128</ele>
        <time>2016-07-10T08:38:03.000Z</time>
      </trkpt>
      <trkpt lat="49.2655" lon="1.10016">
        <ele>128</ele>
        <time>2016-07-10T08:38:04.000Z</time>
      </trkpt>
      <trkpt lat="49.26553" lon="1.10017">
        <ele>128</ele>
        <time>2016-07-10T08:38:05.000Z</time>
      </trkpt>
      <trkpt lat="49.26556" lon="1.10019">
        <ele>128</ele>
        <time>2016-07-10T08:38:06.000Z</time>
      </trkpt>
      <trkpt lat="49.2656" lon="1.1002">
        <ele>127</ele>
        <time>2016-07-10T08:38:07.000Z</time>
      </trkpt>
      <trkpt lat="49.26564" lon="1.10023">
        <ele>127</ele>
        <time>2016-07-10T08:38:08.000Z</time>
      </trkpt>
      <trkpt lat="49.26568" lon="1.10026">
        <ele>126</ele>
        <time>2016-07-10T08:38:09.000Z</time>
      </trkpt>
      <trkpt lat="49.26572" lon="1.10029">
        <ele>126</ele>
        <time>2016-07-10T08:38:10.000Z</time>
      </trkpt>
      <trkpt lat="49.26576" lon="1.10032">
        <ele>127</ele>
        <time>2016-07-10T08:38:11.000Z</time>
      </trkpt>
      <trkpt lat="49.2658" lon="1.10035">
        <ele>126</ele>
        <time>2016-07-10T08:38:12.000Z</time>
      </trkpt>
      <trkpt lat="49.26583" lon="1.10039">
        <ele>127</ele>
        <time>2016-07-10T08:38:13.000Z</time>
      </trkpt>
      <trkpt lat="49.26585" lon="1.10042">
        <ele>127</ele>
        <time>2016-07-10T08:38:14.000Z</time>
      </trkpt>
      <trkpt lat="49.26588" lon="1.10044">
        <ele>127</ele>
        <time>2016-07-10T08:38:15.000Z</time>
      </trkpt>
      <trkpt lat="49.26589" lon="1.10047">
        <ele>127</ele>
        <time>2016-07-10T08:38:16.000Z</time>
      </trkpt>
      <trkpt lat="49.26591" lon="1.1005">
        <ele>128</ele>
        <time>2016-07-10T08:38:17.000Z</time>
      </trkpt>
      <trkpt lat="49.26592" lon="1.10052">
        <ele>129</ele>
        <time>2016-07-10T08:38:18.000Z</time>
      </trkpt>
      <trkpt lat="49.26593" lon="1.10054">
        <ele>129</ele>
        <time>2016-07-10T08:38:19.000Z</time>
      </trkpt>
      <trkpt lat="49.26594" lon="1.10056">
        <ele>130</ele>
        <time>2016-07-10T08:38:20.000Z</time>
      </trkpt>
      <trkpt lat="49.26595" lon="1.10058">
        <ele>130</ele>
        <time>2016-07-10T08:38:21.000Z</time>
      </trkpt>
      <trkpt lat="49.26597" lon="1.10059">
        <ele>131</ele>
        <time>2016-07-10T08:38:22.000Z</time>
      </trkpt>
      <trkpt lat="49.26597" lon="1.10059">
        <ele>131</ele>
        <time>2016-07-10T08:38:23.000Z</time>
      </trkpt>
      <trkpt lat="49.26598" lon="1.1006">
        <ele>132</ele>
        <time>2016-07-10T08:38:24.000Z</time>
      </trkpt>
      <trkpt lat="49.26598" lon="1.10061">
        <ele>133</ele>
        <time>2016-07-10T08:38:25.000Z</time>
      </trkpt>
      <trkpt lat="49.26599" lon="1.10062">
        <ele>134</ele>
        <time>2016-07-10T08:38:26.000Z</time>
      </trkpt>
      <trkpt lat="49.26599" lon="1.10063">
        <ele>134</ele>
        <time>2016-07-10T08:38:27.000Z</time>
      </trkpt>
      <trkpt lat="49.266" lon="1.10063">
        <ele>135</ele>
        <time>2016-07-10T08:38:28.000Z</time>
      </trkpt>
      <trkpt lat="49.266" lon="1.10064">
        <ele>137</ele>
        <time>2016-07-10T08:38:29.000Z</time>
      </trkpt>
      <trkpt lat="49.26601" lon="1.10064">
        <ele>138</ele>
        <time>2016-07-10T08:38:30.000Z</time>
      </trkpt>
      <trkpt lat="49.26601" lon="1.10065">
        <ele>138</ele>
        <time>2016-07-10T08:38:31.000Z</time>
      </trkpt>
      <trkpt lat="49.26601" lon="1.10065">
        <ele>139</ele>
        <time>2016-07-10T08:38:32.000Z</time>
      </trkpt>
      <trkpt lat="49.26602" lon="1.10066">
        <ele>140</ele>
        <time>2016-07-10T08:38:33.000Z</time>
      </trkpt>
      <trkpt lat="49.26602" lon="1.10066">
        <ele>141</ele>
        <time>2016-07-10T08:38:34.000Z</time>
      </trkpt>
      <trkpt lat="49.26603" lon="1.10065">
        <ele>142</ele>
        <time>2016-07-10T08:38:35.000Z</time>
      </trkpt>
      <trkpt lat="49.26603" lon="1.10065">
        <ele>141</ele>
        <time>2016-07-10T08:38:36.000Z</time>
      </trkpt>
      <trkpt lat="49.26603" lon="1.10065">
        <ele>141</ele>
        <time>2016-07-10T08:38:37.000Z</time>
      </trkpt>
      <trkpt lat="49.26602" lon="1.10065">
        <ele>143</ele>
        <time>2016-07-10T08:38:38.000Z</time>
      </trkpt>
      <trkpt lat="49.26603" lon="1.10065">
        <ele>144</ele>
        <time>2016-07-10T08:38:39.000Z</time>
      </trkpt>
      <trkpt lat="49.26603" lon="1.10065">
        <ele>144</ele>
        <time>2016-07-10T08:38:40.000Z</time>
      </trkpt>
      <trkpt lat="49.26603" lon="1.10065">
        <ele>144</ele>
        <time>2016-07-10T08:38:41.000Z</time>
      </trkpt>
      <trkpt lat="49.26603" lon="1.10065">
        <ele>144</ele>
        <time>2016-07-10T08:38:42.000Z</time>
      </trkpt>
      <trkpt lat="49.26603" lon="1.10065">
        <ele>143</ele>
        <time>2016-07-10T08:38:43.000Z</time>
      </trkpt>
      <trkpt lat="49.26602" lon="1.10065">
        <ele>143</ele>
        <time>2016-07-10T08:38:44.000Z</time>
      </trkpt>
      <trkpt lat="49.26602" lon="1.10065">
        <ele>143</ele>
        <time>2016-07-10T08:38:45.000Z</time>
      </trkpt>
      <trkpt lat="49.26602" lon="1.10065">
        <ele>143</ele>
        <time>2016-07-10T08:38:46.000Z</time>
      </trkpt>
      <trkpt lat="49.26603" lon="1.10065">
        <ele>142</ele>
        <time>2016-07-10T08:38:47.000Z</time>
      </trkpt>
      <trkpt lat="49.26603" lon="1.10064">
        <ele>142</ele>
        <time>2016-07-10T08:38:48.000Z</time>
      </trkpt>
      <trkpt lat="49.26603" lon="1.10064">
        <ele>141</ele>
        <time>2016-07-10T08:38:49.000Z</time>
      </trkpt>
      <trkpt lat="49.26603" lon="1.10064">
        <ele>141</ele>
        <time>2016-07-10T08:38:50.000Z</time>
      </trkpt>
      <trkpt lat="49.26603" lon="1.10064">
        <ele>141</ele>
        <time>2016-07-10T08:38:51.000Z</time>
      </trkpt>
      <trkpt lat="49.26603" lon="1.10065">
        <ele>142</ele>
        <time>2016-07-10T08:38:52.000Z</time>
      </trkpt>
      <trkpt lat="49.26602" lon="1.10065">
        <ele>142</ele>
        <time>2016-07-10T08:38:53.000Z</time>
      </trkpt>
      <trkpt lat="49.26602" lon="1.10065">
        <ele>142</ele>
        <time>2016-07-10T08:38:54.000Z</time>
      </trkpt>
      <trkpt lat="49.26602" lon="1.10066">
        <ele>143</ele>
        <time>2016-07-10T08:38:55.000Z</time>
      </trkpt>
      <trkpt lat="49.26601" lon="1.10066">
        <ele>143</ele>
        <time>2016-07-10T08:38:56.000Z</time>
      </trkpt>
      <trkpt lat="49.26601" lon="1.10066">
        <ele>143</ele>
        <time>2016-07-10T08:38:57.000Z</time>
      </trkpt>
      <trkpt lat="49.26601" lon="1.10066">
        <ele>143</ele>
        <time>2016-07-10T08:38:58.000Z</time>
      </trkpt>
      <trkpt lat="49.266" lon="1.10066">
        <ele>143</ele>
        <time>2016-07-10T08:38:59.000Z</time>
      </trkpt>
      <trkpt lat="49.266" lon="1.10066">
        <ele>143</ele>
        <time>2016-07-10T08:39:00.000Z</time>
      </trkpt>
      <trkpt lat="49.266" lon="1.10066">
        <ele>142</ele>
        <time>2016-07-10T08:39:01.000Z</time>
      </trkpt>
      <trkpt lat="49.266" lon="1.10067">
        <ele>142</ele>
        <time>2016-07-10T08:39:02.000Z</time>
      </trkpt>
      <trkpt lat="49.266" lon="1.10067">
        <ele>141</ele>
        <time>2016-07-10T08:39:03.000Z</time>
      </trkpt>
      <trkpt lat="49.26599" lon="1.10067">
        <ele>141</ele>
        <time>2016-07-10T08:39:04.000Z</time>
      </trkpt>
      <trkpt lat="49.26599" lon="1.10067">
        <ele>141</ele>
        <time>2016-07-10T08:39:05.000Z</time>
      </trkpt>
      <trkpt lat="49.26599" lon="1.10067">
        <ele>141</ele>
        <time>2016-07-10T08:39:06.000Z</time>
      </trkpt>
      <trkpt lat="49.266" lon="1.10067">
        <ele>140</ele>
        <time>2016-07-10T08:39:07.000Z</time>
      </trkpt>
      <trkpt lat="49.266" lon="1.10067">
        <ele>140</ele>
        <time>2016-07-10T08:39:08.000Z</time>
      </trkpt>
      <trkpt lat="49.266" lon="1.10067">
        <ele>140</ele>
        <time>2016-07-10T08:39:09.000Z</time>
      </trkpt>
      <trkpt lat="49.266" lon="1.10067">
        <ele>141</ele>
        <time>2016-07-10T08:39:10.000Z</time>
      </trkpt>
      <trkpt lat="49.266" lon="1.10067">
        <ele>141</ele>
        <time>2016-07-10T08:39:11.000Z</time>
      </trkpt>
      <trkpt lat="49.266" lon="1.10067">
        <ele>141</ele>
        <time>2016-07-10T08:39:12.000Z</time>
      </trkpt>
      <trkpt lat="49.266" lon="1.10067">
        <ele>142</ele>
        <time>2016-07-10T08:39:13.000Z</time>
      </trkpt>
      <trkpt lat="49.266" lon="1.10067">
        <ele>142</ele>
        <time>2016-07-10T08:39:14.000Z</time>
      </trkpt>
      <trkpt lat="49.266" lon="1.10067">
        <ele>142</ele>
        <time>2016-07-10T08:39:15.000Z</time>
      </trkpt>
      <trkpt lat="49.26601" lon="1.10067">
        <ele>143</ele>
        <time>2016-07-10T08:39:16.000Z</time>
      </trkpt>
      <trkpt lat="49.26601" lon="1.10067">
        <ele>142</ele>
        <time>2016-07-10T08:39:17.000Z</time>
      </trkpt>
      <trkpt lat="49.266" lon="1.10067">
        <ele>141</ele>
        <time>2016-07-10T08:39:18.000Z</time>
      </trkpt>
      <trkpt lat="49.266" lon="1.10067">
        <ele>142</ele>
        <time>2016-07-10T08:39:19.000Z</time>
      </trkpt>
      <trkpt lat="49.266" lon="1.10067">
        <ele>141</ele>
        <time>2016-07-10T08:39:20.000Z</time>
      </trkpt>
      <trkpt lat="49.26599" lon="1.10067">
        <ele>140</ele>
        <time>2016-07-10T08:39:21.000Z</time>
      </trkpt>
      <trkpt lat="49.26599" lon="1.10067">
        <ele>139</ele>
        <time>2016-07-10T08:39:22.000Z</time>
      </trkpt>
      <trkpt lat="49.26598" lon="1.10067">
        <ele>139</ele>
        <time>2016-07-10T08:39:23.000Z</time>
      </trkpt>
      <trkpt lat="49.26598" lon="1.10067">
        <ele>140</ele>
        <time>2016-07-10T08:39:24.000Z</time>
      </trkpt>
      <trkpt lat="49.26598" lon="1.10067">
        <ele>140</ele>
        <time>2016-07-10T08:39:25.000Z</time>
      </trkpt>
      <trkpt lat="49.26598" lon="1.10067">
        <ele>140</ele>
        <time>2016-07-10T08:39:26.000Z</time>
      </trkpt>
      <trkpt lat="49.26598" lon="1.10068">
        <ele>140</ele>
        <time>2016-07-10T08:39:27.000Z</time>
      </trkpt>
      <trkpt lat="49.26598" lon="1.10068">
        <ele>139</ele>
        <time>2016-07-10T08:39:28.000Z</time>
      </trkpt>
      <trkpt lat="49.26598" lon="1.10068">
        <ele>138</ele>
        <time>2016-07-10T08:39:29.000Z</time>
      </trkpt>
      <trkpt lat="49.26598" lon="1.10068">
        <ele>138</ele>
        <time>2016-07-10T08:39:30.000Z</time>
      </trkpt>
      <trkpt lat="49.26597" lon="1.10068">
        <ele>137</ele>
        <time>2016-07-10T08:39:31.000Z</time>
      </trkpt>
      <trkpt lat="49.26597" lon="1.10068">
        <ele>136</ele>
        <time>2016-07-10T08:39:32.000Z</time>
      </trkpt>
      <trkpt lat="49.26597" lon="1.10068">
        <ele>137</ele>
        <time>2016-07-10T08:39:33.000Z</time>
      </trkpt>
      <trkpt lat="49.26597" lon="1.10069">
        <ele>137</ele>
        <time>2016-07-10T08:39:34.000Z</time>
      </trkpt>
      <trkpt lat="49.26597" lon="1.10069">
        <ele>137</ele>
        <time>2016-07-10T08:39:35.000Z</time>
      </trkpt>
      <trkpt lat="49.26597" lon="1.10069">
        <ele>136</ele>
        <time>2016-07-10T08:39:36.000Z</time>
      </trkpt>
      <trkpt lat="49.26597" lon="1.10069">
        <ele>136</ele>
        <time>2016-07-10T08:39:37.000Z</time>
      </trkpt>
      <trkpt lat="49.26597" lon="1.1007">
        <ele>135</ele>
        <time>2016-07-10T08:39:38.000Z</time>
      </trkpt>
      <trkpt lat="49.26597" lon="1.1007">
        <ele>135</ele>
        <time>2016-07-10T08:39:39.000Z</time>
      </trkpt>
      <trkpt lat="49.26597" lon="1.1007">
        <ele>136</ele>
        <time>2016-07-10T08:39:40.000Z</time>
      </trkpt>
      <trkpt lat="49.26597" lon="1.10071">
        <ele>137</ele>
        <time>2016-07-10T08:39:41.000Z</time>
      </trkpt>
      <trkpt lat="49.26597" lon="1.10071">
        <ele>137</ele>
        <time>2016-07-10T08:39:42.000Z</time>
      </trkpt>
      <trkpt lat="49.26597" lon="1.10071">
        <ele>138</ele>
        <time>2016-07-10T08:39:43.000Z</time>
      </trkpt>
      <trkpt lat="49.26598" lon="1.10072">
        <ele>139</ele>
        <time>2016-07-10T08:39:44.000Z</time>
      </trkpt>
      <trkpt lat="49.26598" lon="1.10072">
        <ele>139</ele>
        <time>2016-07-10T08:39:45.000Z</time>
      </trkpt>
      <trkpt lat="49.26598" lon="1.10072">
        <ele>139</ele>
        <time>2016-07-10T08:39:46.000Z</time>
      </trkpt>
      <trkpt lat="49.26598" lon="1.10072">
        <ele>140</ele>
        <time>2016-07-10T08:39:47.000Z</time>
      </trkpt>
      <trkpt lat="49.26598" lon="1.10072">
        <ele>141</ele>
        <time>2016-07-10T08:39:48.000Z</time>
      </trkpt>
      <trkpt lat="49.26599" lon="1.10072">
        <ele>141</ele>
        <time>2016-07-10T08:39:49.000Z</time>
      </trkpt>
      <trkpt lat="49.26599" lon="1.10072">
        <ele>142</ele>
        <time>2016-07-10T08:39:50.000Z</time>
      </trkpt>
      <trkpt lat="49.26599" lon="1.10072">
        <ele>143</ele>
        <time>2016-07-10T08:39:51.000Z</time>
      </trkpt>
      <trkpt lat="49.26599" lon="1.10072">
        <ele>143</ele>
        <time>2016-07-10T08:39:52.000Z</time>
      </trkpt>
      <trkpt lat="49.26599" lon="1.10072">
        <ele>144</ele>
        <time>2016-07-10T08:39:53.000Z</time>
      </trkpt>
      <trkpt lat="49.26599" lon="1.10073">
        <ele>144</ele>
        <time>2016-07-10T08:39:54.000Z</time>
      </trkpt>
      <trkpt lat="49.26599" lon="1.10073">
        <ele>145</ele>
        <time>2016-07-10T08:39:55.000Z</time>
      </trkpt>
      <trkpt lat="49.26599" lon="1.10073">
        <ele>145</ele>
        <time>2016-07-10T08:39:56.000Z</time>
      </trkpt>
      <trkpt lat="49.26599" lon="1.10073">
        <ele>144</ele>
        <time>2016-07-10T08:39:57.000Z</time>
      </trkpt>
      <trkpt lat="49.26599" lon="1.10072">
        <ele>144</ele>
        <time>2016-07-10T08:39:58.000Z</time>
      </trkpt>
      <trkpt lat="49.26599" lon="1.10072">
        <ele>144</ele>
        <time>2016-07-10T08:39:59.000Z</time>
      </trkpt>
      <trkpt lat="49.26599" lon="1.10072">
        <ele>144</ele>
        <time>2016-07-10T08:40:00.000Z</time>
      </trkpt>
      <trkpt lat="49.26599" lon="1.10072">
        <ele>144</ele>
        <time>2016-07-10T08:40:01.000Z</time>
      </trkpt>
      <trkpt lat="49.26599" lon="1.10072">
        <ele>143</ele>
        <time>2016-07-10T08:40:02.000Z</time>
      </trkpt>
      <trkpt lat="49.26599" lon="1.10072">
        <ele>143</ele>
        <time>2016-07-10T08:40:03.000Z</time>
      </trkpt>
      <trkpt lat="49.26599" lon="1.10072">
        <ele>142</ele>
        <time>2016-07-10T08:40:04.000Z</time>
      </trkpt>
      <trkpt lat="49.26599" lon="1.10072">
        <ele>142</ele>
        <time>2016-07-10T08:40:05.000Z</time>
      </trkpt>
      <trkpt lat="49.26599" lon="1.10072">
        <ele>142</ele>
        <time>2016-07-10T08:40:06.000Z</time>
      </trkpt>
      <trkpt lat="49.26599" lon="1.10072">
        <ele>141</ele>
        <time>2016-07-10T08:40:07.000Z</time>
      </trkpt>
      <trkpt lat="49.26598" lon="1.10072">
        <ele>140</ele>
        <time>2016-07-10T08:40:08.000Z</time>
      </trkpt>
      <trkpt lat="49.26598" lon="1.10072">
        <ele>140</ele>
        <time>2016-07-10T08:40:09.000Z</time>
      </trkpt>
      <trkpt lat="49.26598" lon="1.10071">
        <ele>139</ele>
        <time>2016-07-10T08:40:10.000Z</time>
      </trkpt>
      <trkpt lat="49.26598" lon="1.10071">
        <ele>138</ele>
        <time>2016-07-10T08:40:11.000Z</time>
      </trkpt>
      <trkpt lat="49.26598" lon="1.10071">
        <ele>136</ele>
        <time>2016-07-10T08:40:12.000Z</time>
      </trkpt>
      <trkpt lat="49.26598" lon="1.10071">
        <ele>135</ele>
        <time>2016-07-10T08:40:13.000Z</time>
      </trkpt>
      <trkpt lat="49.26598" lon="1.1007">
        <ele>134</ele>
        <time>2016-07-10T08:40:14.000Z</time>
      </trkpt>
      <trkpt lat="49.26598" lon="1.1007">
        <ele>133</ele>
        <time>2016-07-10T08:40:15.000Z</time>
      </trkpt>
      <trkpt lat="49.26597" lon="1.1007">
        <ele>132</ele>
        <time>2016-07-10T08:40:16.000Z</time>
      </trkpt>
      <trkpt lat="49.26597" lon="1.1007">
        <ele>132</ele>
        <time>2016-07-10T08:40:17.000Z</time>
      </trkpt>
      <trkpt lat="49.26597" lon="1.1007">
        <ele>132</ele>
        <time>2016-07-10T08:40:18.000Z</time>
      </trkpt>
      <trkpt lat="49.26597" lon="1.1007">
        <ele>132</ele>
        <time>2016-07-10T08:40:19.000Z</time>
      </trkpt>
      <trkpt lat="49.26597" lon="1.1007">
        <ele>132</ele>
        <time>2016-07-10T08:40:20.000Z</time>
      </trkpt>
      <trkpt lat="49.26597" lon="1.1007">
        <ele>132</ele>
        <time>2016-07-10T08:40:21.000Z</time>
      </trkpt>
      <trkpt lat="49.26597" lon="1.1007">
        <ele>132</ele>
        <time>2016-07-10T08:40:22.000Z</time>
      </trkpt>
      <trkpt lat="49.26597" lon="1.1007">
        <ele>132</ele>
        <time>2016-07-10T08:40:23.000Z</time>
      </trkpt>
      <trkpt lat="49.26598" lon="1.1007">
        <ele>132</ele>
        <time>2016-07-10T08:40:24.000Z</time>
      </trkpt>
      <trkpt lat="49.26598" lon="1.10069">
        <ele>131</ele>
        <time>2016-07-10T08:40:25.000Z</time>
      </trkpt>
      <trkpt lat="49.26597" lon="1.10069">
        <ele>131</ele>
        <time>2016-07-10T08:40:26.000Z</time>
      </trkpt>
      <trkpt lat="49.26597" lon="1.10069">
        <ele>131</ele>
        <time>2016-07-10T08:40:27.000Z</time>
      </trkpt>
      <trkpt lat="49.26597" lon="1.10068">
        <ele>131</ele>
        <time>2016-07-10T08:40:28.000Z</time>
      </trkpt>
      <trkpt lat="49.26597" lon="1.10068">
        <ele>131</ele>
        <time>2016-07-10T08:40:29.000Z</time>
      </trkpt>
      <trkpt lat="49.26597" lon="1.10068">
        <ele>131</ele>
        <time>2016-07-10T08:40:30.000Z</time>
      </trkpt>
      <trkpt lat="49.26597" lon="1.10068">
        <ele>131</ele>
        <time>2016-07-10T08:40:31.000Z</time>
      </trkpt>
      <trkpt lat="49.26598" lon="1.10068">
        <ele>132</ele>
        <time>2016-07-10T08:40:32.000Z</time>
      </trkpt>
      <trkpt lat="49.26598" lon="1.10068">
        <ele>131</ele>
        <time>2016-07-10T08:40:33.000Z</time>
      </trkpt>
      <trkpt lat="49.26598" lon="1.10068">
        <ele>131</ele>
        <time>2016-07-10T08:40:34.000Z</time>
      </trkpt>
      <trkpt lat="49.26599" lon="1.10068">
        <ele>131</ele>
        <time>2016-07-10T08:40:35.000Z</time>
      </trkpt>
      <trkpt lat="49.26599" lon="1.10068">
        <ele>131</ele>
        <time>2016-07-10T08:40:36.000Z</time>
      </trkpt>
      <trkpt lat="49.266" lon="1.10069">
        <ele>131</ele>
        <time>2016-07-10T08:40:37.000Z</time>
      </trkpt>
      <trkpt lat="49.26601" lon="1.10069">
        <ele>130</ele>
        <time>2016-07-10T08:40:38.000Z</time>
      </trkpt>
      <trkpt lat="49.26602" lon="1.1007">
        <ele>130</ele>
        <time>2016-07-10T08:40:39.000Z</time>
      </trkpt>
      <trkpt lat="49.26604" lon="1.1007">
        <ele>129</ele>
        <time>2016-07-10T08:40:40.000Z</time>
      </trkpt>
      <trkpt lat="49.26605" lon="1.1007">
        <ele>129</ele>
        <time>2016-07-10T08:40:41.000Z</time>
      </trkpt>
      <trkpt lat="49.26608" lon="1.1007">
        <ele>129</ele>
        <time>2016-07-10T08:40:42.000Z</time>
      </trkpt>
      <trkpt lat="49.2661" lon="1.10071">
        <ele>128</ele>
        <time>2016-07-10T08:40:43.000Z</time>
      </trkpt>
      <trkpt lat="49.26613" lon="1.10073">
        <ele>128</ele>
        <time>2016-07-10T08:40:44.000Z</time>
      </trkpt>
      <trkpt lat="49.26617" lon="1.10076">
        <ele>126</ele>
        <time>2016-07-10T08:40:45.000Z</time>
      </trkpt>
      <trkpt lat="49.2662" lon="1.10079">
        <ele>124</ele>
        <time>2016-07-10T08:40:46.000Z</time>
      </trkpt>
      <trkpt lat="49.26623" lon="1.10082">
        <ele>124</ele>
        <time>2016-07-10T08:40:47.000Z</time>
      </trkpt>
      <trkpt lat="49.26627" lon="1.10085">
        <ele>124</ele>
        <time>2016-07-10T08:40:48.000Z</time>
      </trkpt>
      <trkpt lat="49.2663" lon="1.10088">
        <ele>124</ele>
        <time>2016-07-10T08:40:49.000Z</time>
      </trkpt>
      <trkpt lat="49.26633" lon="1.10091">
        <ele>124</ele>
        <time>2016-07-10T08:40:50.000Z</time>
      </trkpt>
      <trkpt lat="49.26637" lon="1.10094">
        <ele>124</ele>
        <time>2016-07-10T08:40:51.000Z</time>
      </trkpt>
      <trkpt lat="49.26641" lon="1.10097">
        <ele>126</ele>
        <time>2016-07-10T08:40:52.000Z</time>
      </trkpt>
      <trkpt lat="49.26645" lon="1.101">
        <ele>126</ele>
        <time>2016-07-10T08:40:53.000Z</time>
      </trkpt>
      <trkpt lat="49.26649" lon="1.10103">
        <ele>126</ele>
        <time>2016-07-10T08:40:54.000Z</time>
      </trkpt>
      <trkpt lat="49.26653" lon="1.10106">
        <ele>125</ele>
        <time>2016-07-10T08:40:55.000Z</time>
      </trkpt>
      <trkpt lat="49.26657" lon="1.10108">
        <ele>125</ele>
        <time>2016-07-10T08:40:56.000Z</time>
      </trkpt>
      <trkpt lat="49.26661" lon="1.1011">
        <ele>125</ele>
        <time>2016-07-10T08:40:57.000Z</time>
      </trkpt>
      <trkpt lat="49.26666" lon="1.10113">
        <ele>126</ele>
        <time>2016-07-10T08:40:58.000Z</time>
      </trkpt>
      <trkpt lat="49.26671" lon="1.10116">
        <ele>126</ele>
        <time>2016-07-10T08:40:59.000Z</time>
      </trkpt>
      <trkpt lat="49.26676" lon="1.1012">
        <ele>126</ele>
        <time>2016-07-10T08:41:00.000Z</time>
      </trkpt>
      <trkpt lat="49.26681" lon="1.10123">
        <ele>127</ele>
        <time>2016-07-10T08:41:01.000Z</time>
      </trkpt>
      <trkpt lat="49.26686" lon="1.10127">
        <ele>128</ele>
        <time>2016-07-10T08:41:02.000Z</time>
      </trkpt>
      <trkpt lat="49.2669" lon="1.1013">
        <ele>128</ele>
        <time>2016-07-10T08:41:03.000Z</time>
      </trkpt>
      <trkpt lat="49.26695" lon="1.10134">
        <ele>128</ele>
        <time>2016-07-10T08:41:04.000Z</time>
      </trkpt>
      <trkpt lat="49.267" lon="1.10137">
        <ele>128</ele>
        <time>2016-07-10T08:41:05.000Z</time>
      </trkpt>
      <trkpt lat="49.26705" lon="1.10141">
        <ele>128</ele>
        <time>2016-07-10T08:41:06.000Z</time>
      </trkpt>
      <trkpt lat="49.26709" lon="1.10145">
        <ele>128</ele>
        <time>2016-07-10T08:41:07.000Z</time>
      </trkpt>
      <trkpt lat="49.26714" lon="1.10148">
        <ele>128</ele>
        <time>2016-07-10T08:41:08.000Z</time>
      </trkpt>
      <trkpt lat="49.26719" lon="1.10152">
        <ele>129</ele>
        <time>2016-07-10T08:41:09.000Z</time>
      </trkpt>
      <trkpt lat="49.26724" lon="1.10156">
        <ele>128</ele>
        <time>2016-07-10T08:41:10.000Z</time>
      </trkpt>
      <trkpt lat="49.26729" lon="1.10159">
        <ele>127</ele>
        <time>2016-07-10T08:41:11.000Z</time>
      </trkpt>
      <trkpt lat="49.26734" lon="1.10162">
        <ele>127</ele>
        <time>2016-07-10T08:41:12.000Z</time>
      </trkpt>
      <trkpt lat="49.26739" lon="1.10165">
        <ele>128</ele>
        <time>2016-07-10T08:41:13.000Z</time>
      </trkpt>
      <trkpt lat="49.26743" lon="1.10169">
        <ele>127</ele>
        <time>2016-07-10T08:41:14.000Z</time>
      </trkpt>
      <trkpt lat="49.26748" lon="1.10172">
        <ele>127</ele>
        <time>2016-07-10T08:41:15.000Z</time>
      </trkpt>
      <trkpt lat="49.26752" lon="1.10175">
        <ele>126</ele>
        <time>2016-07-10T08:41:16.000Z</time>
      </trkpt>
      <trkpt lat="49.26756" lon="1.10177">
        <ele>126</ele>
        <time>2016-07-10T08:41:17.000Z</time>
      </trkpt>
      <trkpt lat="49.26761" lon="1.10179">
        <ele>126</ele>
        <time>2016-07-10T08:41:18.000Z</time>
      </trkpt>
      <trkpt lat="49.26766" lon="1.10181">
        <ele>126</ele>
        <time>2016-07-10T08:41:19.000Z</time>
      </trkpt>
      <trkpt lat="49.26771" lon="1.10183">
        <ele>125</ele>
        <time>2016-07-10T08:41:20.000Z</time>
      </trkpt>
      <trkpt lat="49.26776" lon="1.10185">
        <ele>125</ele>
        <time>2016-07-10T08:41:21.000Z</time>
      </trkpt>
      <trkpt lat="49.2678" lon="1.10186">
        <ele>125</ele>
        <time>2016-07-10T08:41:22.000Z</time>
      </trkpt>
      <trkpt lat="49.26785" lon="1.10187">
        <ele>125</ele>
        <time>2016-07-10T08:41:23.000Z</time>
      </trkpt>
      <trkpt lat="49.2679" lon="1.10187">
        <ele>124</ele>
        <time>2016-07-10T08:41:24.000Z</time>
      </trkpt>
      <trkpt lat="49.26794" lon="1.10186">
        <ele>124</ele>
        <time>2016-07-10T08:41:25.000Z</time>
      </trkpt>
      <trkpt lat="49.26799" lon="1.10185">
        <ele>123</ele>
        <time>2016-07-10T08:41:26.000Z</time>
      </trkpt>
      <trkpt lat="49.26803" lon="1.10184">
        <ele>122</ele>
        <time>2016-07-10T08:41:27.000Z</time>
      </trkpt>
      <trkpt lat="49.26807" lon="1.10182">
        <ele>121</ele>
        <time>2016-07-10T08:41:28.000Z</time>
      </trkpt>
      <trkpt lat="49.2681" lon="1.10181">
        <ele>121</ele>
        <time>2016-07-10T08:41:29.000Z</time>
      </trkpt>
      <trkpt lat="49.26814" lon="1.1018">
        <ele>121</ele>
        <time>2016-07-10T08:41:30.000Z</time>
      </trkpt>
      <trkpt lat="49.26818" lon="1.10178">
        <ele>120</ele>
        <time>2016-07-10T08:41:31.000Z</time>
      </trkpt>
      <trkpt lat="49.26822" lon="1.10176">
        <ele>119</ele>
        <time>2016-07-10T08:41:32.000Z</time>
      </trkpt>
      <trkpt lat="49.26826" lon="1.10173">
        <ele>118</ele>
        <time>2016-07-10T08:41:33.000Z</time>
      </trkpt>
      <trkpt lat="49.2683" lon="1.1017">
        <ele>117</ele>
        <time>2016-07-10T08:41:34.000Z</time>
      </trkpt>
      <trkpt lat="49.26834" lon="1.10168">
        <ele>116</ele>
        <time>2016-07-10T08:41:35.000Z</time>
      </trkpt>
      <trkpt lat="49.26838" lon="1.10165">
        <ele>116</ele>
        <time>2016-07-10T08:41:36.000Z</time>
      </trkpt>
      <trkpt lat="49.26842" lon="1.10163">
        <ele>115</ele>
        <time>2016-07-10T08:41:37.000Z</time>
      </trkpt>
      <trkpt lat="49.26847" lon="1.10161">
        <ele>115</ele>
        <time>2016-07-10T08:41:38.000Z</time>
      </trkpt>
      <trkpt lat="49.26851" lon="1.10158">
        <ele>115</ele>
        <time>2016-07-10T08:41:39.000Z</time>
      </trkpt>
      <trkpt lat="49.26855" lon="1.10156">
        <ele>115</ele>
        <time>2016-07-10T08:41:40.000Z</time>
      </trkpt>
      <trkpt lat="49.26859" lon="1.10154">
        <ele>115</ele>
        <time>2016-07-10T08:41:41.000Z</time>
      </trkpt>
      <trkpt lat="49.26863" lon="1.10152">
        <ele>114</ele>
        <time>2016-07-10T08:41:42.000Z</time>
      </trkpt>
      <trkpt lat="49.26868" lon="1.10149">
        <ele>114</ele>
        <time>2016-07-10T08:41:43.000Z</time>
      </trkpt>
      <trkpt lat="49.26872" lon="1.10146">
        <ele>114</ele>
        <time>2016-07-10T08:41:44.000Z</time>
      </trkpt>
      <trkpt lat="49.26876" lon="1.10144">
        <ele>114</ele>
        <time>2016-07-10T08:41:45.000Z</time>
      </trkpt>
      <trkpt lat="49.2688" lon="1.10141">
        <ele>113</ele>
        <time>2016-07-10T08:41:46.000Z</time>
      </trkpt>
      <trkpt lat="49.26884" lon="1.10138">
        <ele>113</ele>
        <time>2016-07-10T08:41:47.000Z</time>
      </trkpt>
      <trkpt lat="49.26889" lon="1.10135">
        <ele>113</ele>
        <time>2016-07-10T08:41:48.000Z</time>
      </trkpt>
      <trkpt lat="49.26893" lon="1.10132">
        <ele>112</ele>
        <time>2016-07-10T08:41:49.000Z</time>
      </trkpt>
      <trkpt lat="49.26898" lon="1.10128">
        <ele>112</ele>
        <time>2016-07-10T08:41:50.000Z</time>
      </trkpt>
      <trkpt lat="49.26903" lon="1.10125">
        <ele>111</ele>
        <time>2016-07-10T08:41:51.000Z</time>
      </trkpt>
      <trkpt lat="49.26907" lon="1.10121">
        <ele>111</ele>
        <time>2016-07-10T08:41:52.000Z</time>
      </trkpt>
      <trkpt lat="49.26911" lon="1.10118">
        <ele>109</ele>
        <time>2016-07-10T08:41:53.000Z</time>
      </trkpt>
      <trkpt lat="49.26915" lon="1.10114">
        <ele>110</ele>
        <time>2016-07-10T08:41:54.000Z</time>
      </trkpt>
      <trkpt lat="49.2692" lon="1.1011">
        <ele>110</ele>
        <time>2016-07-10T08:41:55.000Z</time>
      </trkpt>
      <trkpt lat="49.26924" lon="1.10106">
        <ele>110</ele>
        <time>2016-07-10T08:41:56.000Z</time>
      </trkpt>
      <trkpt lat="49.26929" lon="1.10102">
        <ele>111</ele>
        <time>2016-07-10T08:41:57.000Z</time>
      </trkpt>
      <trkpt lat="49.26934" lon="1.10098">
        <ele>110</ele>
        <time>2016-07-10T08:41:58.000Z</time>
      </trkpt>
      <trkpt lat="49.2694" lon="1.10094">
        <ele>110</ele>
        <time>2016-07-10T08:41:59.000Z</time>
      </trkpt>
      <trkpt lat="49.26945" lon="1.10091">
        <ele>110</ele>
        <time>2016-07-10T08:42:00.000Z</time>
      </trkpt>
      <trkpt lat="49.2695" lon="1.10088">
        <ele>109</ele>
        <time>2016-07-10T08:42:01.000Z</time>
      </trkpt>
      <trkpt lat="49.26955" lon="1.10084">
        <ele>109</ele>
        <time>2016-07-10T08:42:02.000Z</time>
      </trkpt>
      <trkpt lat="49.2696" lon="1.10081">
        <ele>109</ele>
        <time>2016-07-10T08:42:03.000Z</time>
      </trkpt>
      <trkpt lat="49.26965" lon="1.10077">
        <ele>109</ele>
        <time>2016-07-10T08:42:04.000Z</time>
      </trkpt>
      <trkpt lat="49.26971" lon="1.10074">
        <ele>109</ele>
        <time>2016-07-10T08:42:05.000Z</time>
      </trkpt>
      <trkpt lat="49.26976" lon="1.10071">
        <ele>109</ele>
        <time>2016-07-10T08:42:06.000Z</time>
      </trkpt>
      <trkpt lat="49.26982" lon="1.10068">
        <ele>110</ele>
        <time>2016-07-10T08:42:07.000Z</time>
      </trkpt>
      <trkpt lat="49.26989" lon="1.10065">
        <ele>109</ele>
        <time>2016-07-10T08:42:08.000Z</time>
      </trkpt>
      <trkpt lat="49.26995" lon="1.10062">
        <ele>109</ele>
        <time>2016-07-10T08:42:09.000Z</time>
      </trkpt>
      <trkpt lat="49.27002" lon="1.1006">
        <ele>111</ele>
        <time>2016-07-10T08:42:10.000Z</time>
      </trkpt>
      <trkpt lat="49.2701" lon="1.10057">
        <ele>112</ele>
        <time>2016-07-10T08:42:11.000Z</time>
      </trkpt>
      <trkpt lat="49.27018" lon="1.10053">
        <ele>112</ele>
        <time>2016-07-10T08:42:12.000Z</time>
      </trkpt>
      <trkpt lat="49.27025" lon="1.1005">
        <ele>114</ele>
        <time>2016-07-10T08:42:13.000Z</time>
      </trkpt>
      <trkpt lat="49.27032" lon="1.10047">
        <ele>114</ele>
        <time>2016-07-10T08:42:14.000Z</time>
      </trkpt>
      <trkpt lat="49.27039" lon="1.10044">
        <ele>115</ele>
        <time>2016-07-10T08:42:15.000Z</time>
      </trkpt>
      <trkpt lat="49.27045" lon="1.10042">
        <ele>116</ele>
        <time>2016-07-10T08:42:16.000Z</time>
      </trkpt>
      <trkpt lat="49.27051" lon="1.10039">
        <ele>115</ele>
        <time>2016-07-10T08:42:17.000Z</time>
      </trkpt>
      <trkpt lat="49.27057" lon="1.10036">
        <ele>116</ele>
        <time>2016-07-10T08:42:18.000Z</time>
      </trkpt>
      <trkpt lat="49.27063" lon="1.10033">
        <ele>116</ele>
        <time>2016-07-10T08:42:19.000Z</time>
      </trkpt>
      <trkpt lat="49.2707" lon="1.10031">
        <ele>117</ele>
        <time>2016-07-10T08:42:20.000Z</time>
      </trkpt>
      <trkpt lat="49.27077" lon="1.10028">
        <ele>117</ele>
        <time>2016-07-10T08:42:21.000Z</time>
      </trkpt>
      <trkpt lat="49.27083" lon="1.10026">
        <ele>117</ele>
        <time>2016-07-10T08:42:22.000Z</time>
      </trkpt>
      <trkpt lat="49.2709" lon="1.10023">
        <ele>117</ele>
        <time>2016-07-10T08:42:23.000Z</time>
      </trkpt>
      <trkpt lat="49.27096" lon="1.1002">
        <ele>116</ele>
        <time>2016-07-10T08:42:24.000Z</time>
      </trkpt>
      <trkpt lat="49.27101" lon="1.10016">
        <ele>115</ele>
        <time>2016-07-10T08:42:25.000Z</time>
      </trkpt>
      <trkpt lat="49.27107" lon="1.10012">
        <ele>115</ele>
        <time>2016-07-10T08:42:26.000Z</time>
      </trkpt>
      <trkpt lat="49.27112" lon="1.10007">
        <ele>115</ele>
        <time>2016-07-10T08:42:27.000Z</time>
      </trkpt>
      <trkpt lat="49.27117" lon="1.10002">
        <ele>116</ele>
        <time>2016-07-10T08:42:28.000Z</time>
      </trkpt>
      <trkpt lat="49.27123" lon="1.09996">
        <ele>117</ele>
        <time>2016-07-10T08:42:29.000Z</time>
      </trkpt>
      <trkpt lat="49.27128" lon="1.0999">
        <ele>117</ele>
        <time>2016-07-10T08:42:30.000Z</time>
      </trkpt>
      <trkpt lat="49.27132" lon="1.09984">
        <ele>117</ele>
        <time>2016-07-10T08:42:31.000Z</time>
      </trkpt>
      <trkpt lat="49.27136" lon="1.09977">
        <ele>117</ele>
        <time>2016-07-10T08:42:32.000Z</time>
      </trkpt>
      <trkpt lat="49.2714" lon="1.0997">
        <ele>118</ele>
        <time>2016-07-10T08:42:33.000Z</time>
      </trkpt>
      <trkpt lat="49.27144" lon="1.09963">
        <ele>117</ele>
        <time>2016-07-10T08:42:34.000Z</time>
      </trkpt>
      <trkpt lat="49.27148" lon="1.09957">
        <ele>117</ele>
        <time>2016-07-10T08:42:35.000Z</time>
      </trkpt>
      <trkpt lat="49.27152" lon="1.09949">
        <ele>118</ele>
        <time>2016-07-10T08:42:36.000Z</time>
      </trkpt>
      <trkpt lat="49.27156" lon="1.09942">
        <ele>118</ele>
        <time>2016-07-10T08:42:37.000Z</time>
      </trkpt>
      <trkpt lat="49.2716" lon="1.09934">
        <ele>118</ele>
        <time>2016-07-10T08:42:38.000Z</time>
      </trkpt>
      <trkpt lat="49.27164" lon="1.09927">
        <ele>119</ele>
        <time>2016-07-10T08:42:39.000Z</time>
      </trkpt>
      <trkpt lat="49.27169" lon="1.09921">
        <ele>119</ele>
        <time>2016-07-10T08:42:40.000Z</time>
      </trkpt>
      <trkpt lat="49.27174" lon="1.09915">
        <ele>118</ele>
        <time>2016-07-10T08:42:41.000Z</time>
      </trkpt>
      <trkpt lat="49.27179" lon="1.09909">
        <ele>118</ele>
        <time>2016-07-10T08:42:42.000Z</time>
      </trkpt>
      <trkpt lat="49.27185" lon="1.09904">
        <ele>117</ele>
        <time>2016-07-10T08:42:43.000Z</time>
      </trkpt>
      <trkpt lat="49.2719" lon="1.09899">
        <ele>117</ele>
        <time>2016-07-10T08:42:44.000Z</time>
      </trkpt>
      <trkpt lat="49.27195" lon="1.09894">
        <ele>116</ele>
        <time>2016-07-10T08:42:45.000Z</time>
      </trkpt>
      <trkpt lat="49.27199" lon="1.0989">
        <ele>115</ele>
        <time>2016-07-10T08:42:46.000Z</time>
      </trkpt>
      <trkpt lat="49.27204" lon="1.09886">
        <ele>115</ele>
        <time>2016-07-10T08:42:47.000Z</time>
      </trkpt>
      <trkpt lat="49.27209" lon="1.09883">
        <ele>115</ele>
        <time>2016-07-10T08:42:48.000Z</time>
      </trkpt>
      <trkpt lat="49.27215" lon="1.0988">
        <ele>115</ele>
        <time>2016-07-10T08:42:49.000Z</time>
      </trkpt>
      <trkpt lat="49.2722" lon="1.09878">
        <ele>115</ele>
        <time>2016-07-10T08:42:50.000Z</time>
      </trkpt>
      <trkpt lat="49.27226" lon="1.09875">
        <ele>114</ele>
        <time>2016-07-10T08:42:51.000Z</time>
      </trkpt>
      <trkpt lat="49.27232" lon="1.09873">
        <ele>114</ele>
        <time>2016-07-10T08:42:52.000Z</time>
      </trkpt>
      <trkpt lat="49.27237" lon="1.09872">
        <ele>112</ele>
        <time>2016-07-10T08:42:53.000Z</time>
      </trkpt>
      <trkpt lat="49.27244" lon="1.09873">
        <ele>112</ele>
        <time>2016-07-10T08:42:54.000Z</time>
      </trkpt>
      <trkpt lat="49.27252" lon="1.09875">
        <ele>114</ele>
        <time>2016-07-10T08:42:55.000Z</time>
      </trkpt>
      <trkpt lat="49.27259" lon="1.09878">
        <ele>114</ele>
        <time>2016-07-10T08:42:56.000Z</time>
      </trkpt>
      <trkpt lat="49.27266" lon="1.09881">
        <ele>114</ele>
        <time>2016-07-10T08:42:57.000Z</time>
      </trkpt>
      <trkpt lat="49.27272" lon="1.09883">
        <ele>113</ele>
        <time>2016-07-10T08:42:58.000Z</time>
      </trkpt>
      <trkpt lat="49.27278" lon="1.09884">
        <ele>113</ele>
        <time>2016-07-10T08:42:59.000Z</time>
      </trkpt>
      <trkpt lat="49.27283" lon="1.09887">
        <ele>114</ele>
        <time>2016-07-10T08:43:00.000Z</time>
      </trkpt>
      <trkpt lat="49.27289" lon="1.09889">
        <ele>115</ele>
        <time>2016-07-10T08:43:01.000Z</time>
      </trkpt>
      <trkpt lat="49.27295" lon="1.09893">
        <ele>116</ele>
        <time>2016-07-10T08:43:02.000Z</time>
      </trkpt>
      <trkpt lat="49.27301" lon="1.09897">
        <ele>116</ele>
        <time>2016-07-10T08:43:03.000Z</time>
      </trkpt>
      <trkpt lat="49.27306" lon="1.09902">
        <ele>115</ele>
        <time>2016-07-10T08:43:04.000Z</time>
      </trkpt>
      <trkpt lat="49.27311" lon="1.09908">
        <ele>115</ele>
        <time>2016-07-10T08:43:05.000Z</time>
      </trkpt>
      <trkpt lat="49.27316" lon="1.09915">
        <ele>116</ele>
        <time>2016-07-10T08:43:06.000Z</time>
      </trkpt>
      <trkpt lat="49.27321" lon="1.09921">
        <ele>116</ele>
        <time>2016-07-10T08:43:07.000Z</time>
      </trkpt>
      <trkpt lat="49.27326" lon="1.09927">
        <ele>116</ele>
        <time>2016-07-10T08:43:08.000Z</time>
      </trkpt>
      <trkpt lat="49.27331" lon="1.09933">
        <ele>117</ele>
        <time>2016-07-10T08:43:09.000Z</time>
      </trkpt>
      <trkpt lat="49.27337" lon="1.0994">
        <ele>117</ele>
        <time>2016-07-10T08:43:10.000Z</time>
      </trkpt>
      <trkpt lat="49.27342" lon="1.09946">
        <ele>117</ele>
        <time>2016-07-10T08:43:11.000Z</time>
      </trkpt>
      <trkpt lat="49.27348" lon="1.09952">
        <ele>118</ele>
        <time>2016-07-10T08:43:12.000Z</time>
      </trkpt>
      <trkpt lat="49.27353" lon="1.09958">
        <ele>118</ele>
        <time>2016-07-10T08:43:13.000Z</time>
      </trkpt>
      <trkpt lat="49.27358" lon="1.09963">
        <ele>118</ele>
        <time>2016-07-10T08:43:14.000Z</time>
      </trkpt>
      <trkpt lat="49.27364" lon="1.09969">
        <ele>118</ele>
        <time>2016-07-10T08:43:15.000Z</time>
      </trkpt>
      <trkpt lat="49.27369" lon="1.09974">
        <ele>118</ele>
        <time>2016-07-10T08:43:16.000Z</time>
      </trkpt>
      <trkpt lat="49.27374" lon="1.0998">
        <ele>118</ele>
        <time>2016-07-10T08:43:17.000Z</time>
      </trkpt>
      <trkpt lat="49.27379" lon="1.09985">
        <ele>117</ele>
        <time>2016-07-10T08:43:18.000Z</time>
      </trkpt>
      <trkpt lat="49.27385" lon="1.09991">
        <ele>118</ele>
        <time>2016-07-10T08:43:19.000Z</time>
      </trkpt>
      <trkpt lat="49.2739" lon="1.09996">
        <ele>117</ele>
        <time>2016-07-10T08:43:20.000Z</time>
      </trkpt>
      <trkpt lat="49.27396" lon="1.10002">
        <ele>118</ele>
        <time>2016-07-10T08:43:21.000Z</time>
      </trkpt>
      <trkpt lat="49.27402" lon="1.10007">
        <ele>119</ele>
        <time>2016-07-10T08:43:22.000Z</time>
      </trkpt>
      <trkpt lat="49.27408" lon="1.10013">
        <ele>119</ele>
        <time>2016-07-10T08:43:23.000Z</time>
      </trkpt>
      <trkpt lat="49.27414" lon="1.10018">
        <ele>119</ele>
        <time>2016-07-10T08:43:24.000Z</time>
      </trkpt>
      <trkpt lat="49.2742" lon="1.10023">
        <ele>119</ele>
        <time>2016-07-10T08:43:25.000Z</time>
      </trkpt>
      <trkpt lat="49.27426" lon="1.10028">
        <ele>120</ele>
        <time>2016-07-10T08:43:26.000Z</time>
      </trkpt>
      <trkpt lat="49.27431" lon="1.10034">
        <ele>120</ele>
        <time>2016-07-10T08:43:27.000Z</time>
      </trkpt>
      <trkpt lat="49.27437" lon="1.10039">
        <ele>119</ele>
        <time>2016-07-10T08:43:28.000Z</time>
      </trkpt>
      <trkpt lat="49.27443" lon="1.10045">
        <ele>119</ele>
        <time>2016-07-10T08:43:29.000Z</time>
      </trkpt>
      <trkpt lat="49.27449" lon="1.1005">
        <ele>119</ele>
        <time>2016-07-10T08:43:30.000Z</time>
      </trkpt>
      <trkpt lat="49.27454" lon="1.10056">
        <ele>120</ele>
        <time>2016-07-10T08:43:31.000Z</time>
      </trkpt>
      <trkpt lat="49.27459" lon="1.10062">
        <ele>121</ele>
        <time>2016-07-10T08:43:32.000Z</time>
      </trkpt>
      <trkpt lat="49.27464" lon="1.10069">
        <ele>121</ele>
        <time>2016-07-10T08:43:33.000Z</time>
      </trkpt>
      <trkpt lat="49.27469" lon="1.10076">
        <ele>121</ele>
        <time>2016-07-10T08:43:34.000Z</time>
      </trkpt>
      <trkpt lat="49.27474" lon="1.10083">
        <ele>121</ele>
        <time>2016-07-10T08:43:35.000Z</time>
      </trkpt>
      <trkpt lat="49.27478" lon="1.1009">
        <ele>122</ele>
        <time>2016-07-10T08:43:36.000Z</time>
      </trkpt>
      <trkpt lat="49.27482" lon="1.10096">
        <ele>122</ele>
        <time>2016-07-10T08:43:37.000Z</time>
      </trkpt>
      <trkpt lat="49.27486" lon="1.10103">
        <ele>124</ele>
        <time>2016-07-10T08:43:38.000Z</time>
      </trkpt>
      <trkpt lat="49.27488" lon="1.1011">
        <ele>123</ele>
        <time>2016-07-10T08:43:39.000Z</time>
      </trkpt>
      <trkpt lat="49.2749" lon="1.10118">
        <ele>123</ele>
        <time>2016-07-10T08:43:40.000Z</time>
      </trkpt>
      <trkpt lat="49.27492" lon="1.10127">
        <ele>125</ele>
        <time>2016-07-10T08:43:41.000Z</time>
      </trkpt>
      <trkpt lat="49.27493" lon="1.10137">
        <ele>125</ele>
        <time>2016-07-10T08:43:42.000Z</time>
      </trkpt>
      <trkpt lat="49.27495" lon="1.10146">
        <ele>125</ele>
        <time>2016-07-10T08:43:43.000Z</time>
      </trkpt>
      <trkpt lat="49.27497" lon="1.10154">
        <ele>124</ele>
        <time>2016-07-10T08:43:44.000Z</time>
      </trkpt>
      <trkpt lat="49.275" lon="1.10163">
        <ele>124</ele>
        <time>2016-07-10T08:43:45.000Z</time>
      </trkpt>
      <trkpt lat="49.27501" lon="1.10173">
        <ele>125</ele>
        <time>2016-07-10T08:43:46.000Z</time>
      </trkpt>
      <trkpt lat="49.27503" lon="1.10183">
        <ele>125</ele>
        <time>2016-07-10T08:43:47.000Z</time>
      </trkpt>
      <trkpt lat="49.27505" lon="1.10192">
        <ele>125</ele>
        <time>2016-07-10T08:43:48.000Z</time>
      </trkpt>
      <trkpt lat="49.27507" lon="1.10202">
        <ele>125</ele>
        <time>2016-07-10T08:43:49.000Z</time>
      </trkpt>
      <trkpt lat="49.27509" lon="1.10211">
        <ele>125</ele>
        <time>2016-07-10T08:43:50.000Z</time>
      </trkpt>
      <trkpt lat="49.27512" lon="1.10221">
        <ele>125</ele>
        <time>2016-07-10T08:43:51.000Z</time>
      </trkpt>
      <trkpt lat="49.27514" lon="1.1023">
        <ele>125</ele>
        <time>2016-07-10T08:43:52.000Z</time>
      </trkpt>
      <trkpt lat="49.27516" lon="1.10239">
        <ele>125</ele>
        <time>2016-07-10T08:43:53.000Z</time>
      </trkpt>
      <trkpt lat="49.27518" lon="1.10248">
        <ele>126</ele>
        <time>2016-07-10T08:43:54.000Z</time>
      </trkpt>
      <trkpt lat="49.27521" lon="1.10257">
        <ele>126</ele>
        <time>2016-07-10T08:43:55.000Z</time>
      </trkpt>
      <trkpt lat="49.27524" lon="1.10266">
        <ele>128</ele>
        <time>2016-07-10T08:43:56.000Z</time>
      </trkpt>
      <trkpt lat="49.27528" lon="1.10275">
        <ele>129</ele>
        <time>2016-07-10T08:43:57.000Z</time>
      </trkpt>
      <trkpt lat="49.27531" lon="1.10283">
        <ele>129</ele>
        <time>2016-07-10T08:43:58.000Z</time>
      </trkpt>
      <trkpt lat="49.27534" lon="1.10291">
        <ele>128</ele>
        <time>2016-07-10T08:43:59.000Z</time>
      </trkpt>
      <trkpt lat="49.27537" lon="1.10299">
        <ele>128</ele>
        <time>2016-07-10T08:44:00.000Z</time>
      </trkpt>
      <trkpt lat="49.27541" lon="1.10307">
        <ele>129</ele>
        <time>2016-07-10T08:44:01.000Z</time>
      </trkpt>
      <trkpt lat="49.27544" lon="1.10314">
        <ele>129</ele>
        <time>2016-07-10T08:44:02.000Z</time>
      </trkpt>
      <trkpt lat="49.27547" lon="1.10321">
        <ele>128</ele>
        <time>2016-07-10T08:44:03.000Z</time>
      </trkpt>
      <trkpt lat="49.2755" lon="1.10328">
        <ele>128</ele>
        <time>2016-07-10T08:44:04.000Z</time>
      </trkpt>
      <trkpt lat="49.27553" lon="1.10334">
        <ele>127</ele>
        <time>2016-07-10T08:44:05.000Z</time>
      </trkpt>
      <trkpt lat="49.27557" lon="1.10341">
        <ele>126</ele>
        <time>2016-07-10T08:44:06.000Z</time>
      </trkpt>
      <trkpt lat="49.27561" lon="1.10347">
        <ele>126</ele>
        <time>2016-07-10T08:44:07.000Z</time>
      </trkpt>
      <trkpt lat="49.27565" lon="1.10352">
        <ele>126</ele>
        <time>2016-07-10T08:44:08.000Z</time>
      </trkpt>
      <trkpt lat="49.2757" lon="1.10358">
        <ele>126</ele>
        <time>2016-07-10T08:44:09.000Z</time>
      </trkpt>
      <trkpt lat="49.27574" lon="1.10363">
        <ele>126</ele>
        <time>2016-07-10T08:44:10.000Z</time>
      </trkpt>
      <trkpt lat="49.27579" lon="1.10368">
        <ele>125</ele>
        <time>2016-07-10T08:44:11.000Z</time>
      </trkpt>
      <trkpt lat="49.27584" lon="1.10373">
        <ele>125</ele>
        <time>2016-07-10T08:44:12.000Z</time>
      </trkpt>
      <trkpt lat="49.27588" lon="1.10377">
        <ele>124</ele>
        <time>2016-07-10T08:44:13.000Z</time>
      </trkpt>
      <trkpt lat="49.27593" lon="1.10383">
        <ele>124</ele>
        <time>2016-07-10T08:44:14.000Z</time>
      </trkpt>
      <trkpt lat="49.27598" lon="1.10388">
        <ele>124</ele>
        <time>2016-07-10T08:44:15.000Z</time>
      </trkpt>
      <trkpt lat="49.27602" lon="1.10393">
        <ele>124</ele>
        <time>2016-07-10T08:44:16.000Z</time>
      </trkpt>
      <trkpt lat="49.27607" lon="1.10399">
        <ele>124</ele>
        <time>2016-07-10T08:44:17.000Z</time>
      </trkpt>
      <trkpt lat="49.27611" lon="1.10404">
        <ele>124</ele>
        <time>2016-07-10T08:44:18.000Z</time>
      </trkpt>
      <trkpt lat="49.27616" lon="1.10409">
        <ele>124</ele>
        <time>2016-07-10T08:44:19.000Z</time>
      </trkpt>
      <trkpt lat="49.2762" lon="1.10415">
        <ele>124</ele>
        <time>2016-07-10T08:44:20.000Z</time>
      </trkpt>
      <trkpt lat="49.27624" lon="1.1042">
        <ele>124</ele>
        <time>2016-07-10T08:44:21.000Z</time>
      </trkpt>
      <trkpt lat="49.27628" lon="1.10427">
        <ele>123</ele>
        <time>2016-07-10T08:44:22.000Z</time>
      </trkpt>
      <trkpt lat="49.27633" lon="1.10433">
        <ele>123</ele>
        <time>2016-07-10T08:44:23.000Z</time>
      </trkpt>
      <trkpt lat="49.27637" lon="1.1044">
        <ele>122</ele>
        <time>2016-07-10T08:44:24.000Z</time>
      </trkpt>
      <trkpt lat="49.27641" lon="1.10446">
        <ele>122</ele>
        <time>2016-07-10T08:44:25.000Z</time>
      </trkpt>
      <trkpt lat="49.27644" lon="1.10454">
        <ele>123</ele>
        <time>2016-07-10T08:44:26.000Z</time>
      </trkpt>
      <trkpt lat="49.27648" lon="1.10461">
        <ele>123</ele>
        <time>2016-07-10T08:44:27.000Z</time>
      </trkpt>
      <trkpt lat="49.27651" lon="1.10468">
        <ele>124</ele>
        <time>2016-07-10T08:44:28.000Z</time>
      </trkpt>
      <trkpt lat="49.27654" lon="1.10476">
        <ele>124</ele>
        <time>2016-07-10T08:44:29.000Z</time>
      </trkpt>
      <trkpt lat="49.27657" lon="1.10483">
        <ele>124</ele>
        <time>2016-07-10T08:44:30.000Z</time>
      </trkpt>
      <trkpt lat="49.2766" lon="1.10489">
        <ele>123</ele>
        <time>2016-07-10T08:44:31.000Z</time>
      </trkpt>
      <trkpt lat="49.27663" lon="1.10496">
        <ele>124</ele>
        <time>2016-07-10T08:44:32.000Z</time>
      </trkpt>
      <trkpt lat="49.27666" lon="1.10503">
        <ele>124</ele>
        <time>2016-07-10T08:44:33.000Z</time>
      </trkpt>
      <trkpt lat="49.27669" lon="1.1051">
        <ele>125</ele>
        <time>2016-07-10T08:44:34.000Z</time>
      </trkpt>
      <trkpt lat="49.27673" lon="1.10517">
        <ele>125</ele>
        <time>2016-07-10T08:44:35.000Z</time>
      </trkpt>
      <trkpt lat="49.27676" lon="1.10524">
        <ele>125</ele>
        <time>2016-07-10T08:44:36.000Z</time>
      </trkpt>
      <trkpt lat="49.2768" lon="1.10531">
        <ele>126</ele>
        <time>2016-07-10T08:44:37.000Z</time>
      </trkpt>
      <trkpt lat="49.27684" lon="1.10538">
        <ele>124</ele>
        <time>2016-07-10T08:44:38.000Z</time>
      </trkpt>
      <trkpt lat="49.27687" lon="1.10543">
        <ele>124</ele>
        <time>2016-07-10T08:44:39.000Z</time>
      </trkpt>
      <trkpt lat="49.27691" lon="1.10549">
        <ele>125</ele>
        <time>2016-07-10T08:44:40.000Z</time>
      </trkpt>
      <trkpt lat="49.27694" lon="1.10555">
        <ele>125</ele>
        <time>2016-07-10T08:44:41.000Z</time>
      </trkpt>
      <trkpt lat="49.27698" lon="1.1056">
        <ele>125</ele>
        <time>2016-07-10T08:44:42.000Z</time>
      </trkpt>
      <trkpt lat="49.27702" lon="1.10565">
        <ele>125</ele>
        <time>2016-07-10T08:44:43.000Z</time>
      </trkpt>
      <trkpt lat="49.27706" lon="1.1057">
        <ele>125</ele>
        <time>2016-07-10T08:44:44.000Z</time>
      </trkpt>
      <trkpt lat="49.27711" lon="1.10575">
        <ele>125</ele>
        <time>2016-07-10T08:44:45.000Z</time>
      </trkpt>
      <trkpt lat="49.27715" lon="1.1058">
        <ele>125</ele>
        <time>2016-07-10T08:44:46.000Z</time>
      </trkpt>
      <trkpt lat="49.27719" lon="1.10586">
        <ele>124</ele>
        <time>2016-07-10T08:44:47.000Z</time>
      </trkpt>
      <trkpt lat="49.27723" lon="1.10591">
        <ele>125</ele>
        <time>2016-07-10T08:44:48.000Z</time>
      </trkpt>
      <trkpt lat="49.27727" lon="1.10597">
        <ele>125</ele>
        <time>2016-07-10T08:44:49.000Z</time>
      </trkpt>
      <trkpt lat="49.27731" lon="1.10602">
        <ele>125</ele>
        <time>2016-07-10T08:44:50.000Z</time>
      </trkpt>
      <trkpt lat="49.27734" lon="1.10608">
        <ele>125</ele>
        <time>2016-07-10T08:44:51.000Z</time>
      </trkpt>
      <trkpt lat="49.27738" lon="1.10614">
        <ele>124</ele>
        <time>2016-07-10T08:44:52.000Z</time>
      </trkpt>
      <trkpt lat="49.27742" lon="1.10619">
        <ele>124</ele>
        <time>2016-07-10T08:44:53.000Z</time>
      </trkpt>
      <trkpt lat="49.27747" lon="1.10625">
        <ele>124</ele>
        <time>2016-07-10T08:44:54.000Z</time>
      </trkpt>
      <trkpt lat="49.27751" lon="1.1063">
        <ele>124</ele>
        <time>2016-07-10T08:44:55.000Z</time>
      </trkpt>
      <trkpt lat="49.27756" lon="1.10635">
        <ele>124</ele>
        <time>2016-07-10T08:44:56.000Z</time>
      </trkpt>
      <trkpt lat="49.2776" lon="1.1064">
        <ele>123</ele>
        <time>2016-07-10T08:44:57.000Z</time>
      </trkpt>
      <trkpt lat="49.27765" lon="1.10645">
        <ele>123</ele>
        <time>2016-07-10T08:44:58.000Z</time>
      </trkpt>
      <trkpt lat="49.27771" lon="1.10649">
        <ele>123</ele>
        <time>2016-07-10T08:44:59.000Z</time>
      </trkpt>
      <trkpt lat="49.27776" lon="1.10654">
        <ele>124</ele>
        <time>2016-07-10T08:45:00.000Z</time>
      </trkpt>
      <trkpt lat="49.27781" lon="1.10659">
        <ele>124</ele>
        <time>2016-07-10T08:45:01.000Z</time>
      </trkpt>
      <trkpt lat="49.27784" lon="1.10665">
        <ele>123</ele>
        <time>2016-07-10T08:45:02.000Z</time>
      </trkpt>
      <trkpt lat="49.27786" lon="1.10671">
        <ele>123</ele>
        <time>2016-07-10T08:45:03.000Z</time>
      </trkpt>
      <trkpt lat="49.27787" lon="1.10675">
        <ele>122</ele>
        <time>2016-07-10T08:45:04.000Z</time>
      </trkpt>
      <trkpt lat="49.27787" lon="1.10679">
        <ele>122</ele>
        <time>2016-07-10T08:45:05.000Z</time>
      </trkpt>
      <trkpt lat="49.27786" lon="1.10681">
        <ele>121</ele>
        <time>2016-07-10T08:45:06.000Z</time>
      </trkpt>
      <trkpt lat="49.27785" lon="1.10682">
        <ele>122</ele>
        <time>2016-07-10T08:45:07.000Z</time>
      </trkpt>
      <trkpt lat="49.27785" lon="1.10682">
        <ele>121</ele>
        <time>2016-07-10T08:45:08.000Z</time>
      </trkpt>
      <trkpt lat="49.27785" lon="1.10682">
        <ele>120</ele>
        <time>2016-07-10T08:45:09.000Z</time>
      </trkpt>
      <trkpt lat="49.27785" lon="1.10683">
        <ele>120</ele>
        <time>2016-07-10T08:45:10.000Z</time>
      </trkpt>
      <trkpt lat="49.27785" lon="1.10683">
        <ele>120</ele>
        <time>2016-07-10T08:45:11.000Z</time>
      </trkpt>
      <trkpt lat="49.27785" lon="1.10683">
        <ele>120</ele>
        <time>2016-07-10T08:45:12.000Z</time>
      </trkpt>
      <trkpt lat="49.27785" lon="1.10683">
        <ele>119</ele>
        <time>2016-07-10T08:45:13.000Z</time>
      </trkpt>
      <trkpt lat="49.27785" lon="1.10683">
        <ele>120</ele>
        <time>2016-07-10T08:45:14.000Z</time>
      </trkpt>
      <trkpt lat="49.27785" lon="1.10683">
        <ele>121</ele>
        <time>2016-07-10T08:45:15.000Z</time>
      </trkpt>
      <trkpt lat="49.27785" lon="1.10683">
        <ele>121</ele>
        <time>2016-07-10T08:45:16.000Z</time>
      </trkpt>
      <trkpt lat="49.27785" lon="1.10683">
        <ele>121</ele>
        <time>2016-07-10T08:45:17.000Z</time>
      </trkpt>
      <trkpt lat="49.27785" lon="1.10683">
        <ele>121</ele>
        <time>2016-07-10T08:45:18.000Z</time>
      </trkpt>
      <trkpt lat="49.27785" lon="1.10683">
        <ele>121</ele>
        <time>2016-07-10T08:45:19.000Z</time>
      </trkpt>
      <trkpt lat="49.27786" lon="1.10683">
        <ele>121</ele>
        <time>2016-07-10T08:45:20.000Z</time>
      </trkpt>
      <trkpt lat="49.27786" lon="1.10683">
        <ele>121</ele>
        <time>2016-07-10T08:45:21.000Z</time>
      </trkpt>
      <trkpt lat="49.27786" lon="1.10683">
        <ele>121</ele>
        <time>2016-07-10T08:45:22.000Z</time>
      </trkpt>
      <trkpt lat="49.27786" lon="1.10683">
        <ele>122</ele>
        <time>2016-07-10T08:45:23.000Z</time>
      </trkpt>
      <trkpt lat="49.27786" lon="1.10683">
        <ele>122</ele>
        <time>2016-07-10T08:45:24.000Z</time>
      </trkpt>
      <trkpt lat="49.27787" lon="1.10683">
        <ele>122</ele>
        <time>2016-07-10T08:45:25.000Z</time>
      </trkpt>
      <trkpt lat="49.27787" lon="1.10683">
        <ele>123</ele>
        <time>2016-07-10T08:45:26.000Z</time>
      </trkpt>
      <trkpt lat="49.27787" lon="1.10683">
        <ele>123</ele>
        <time>2016-07-10T08:45:27.000Z</time>
      </trkpt>
      <trkpt lat="49.27787" lon="1.10683">
        <ele>123</ele>
        <time>2016-07-10T08:45:28.000Z</time>
      </trkpt>
      <trkpt lat="49.27787" lon="1.10684">
        <ele>123</ele>
        <time>2016-07-10T08:45:29.000Z</time>
      </trkpt>
      <trkpt lat="49.27787" lon="1.10684">
        <ele>123</ele>
        <time>2016-07-10T08:45:30.000Z</time>
      </trkpt>
      <trkpt lat="49.27787" lon="1.10684">
        <ele>123</ele>
        <time>2016-07-10T08:45:31.000Z</time>
      </trkpt>
      <trkpt lat="49.27787" lon="1.10684">
        <ele>123</ele>
        <time>2016-07-10T08:45:32.000Z</time>
      </trkpt>
      <trkpt lat="49.27787" lon="1.10684">
        <ele>123</ele>
        <time>2016-07-10T08:45:33.000Z</time>
      </trkpt>
      <trkpt lat="49.27787" lon="1.10684">
        <ele>123</ele>
        <time>2016-07-10T08:45:34.000Z</time>
      </trkpt>
      <trkpt lat="49.27787" lon="1.10684">
        <ele>122</ele>
        <time>2016-07-10T08:45:35.000Z</time>
      </trkpt>
      <trkpt lat="49.27787" lon="1.10684">
        <ele>122</ele>
        <time>2016-07-10T08:45:36.000Z</time>
      </trkpt>
      <trkpt lat="49.27787" lon="1.10684">
        <ele>122</ele>
        <time>2016-07-10T08:45:37.000Z</time>
      </trkpt>
      <trkpt lat="49.27787" lon="1.10684">
        <ele>122</ele>
        <time>2016-07-10T08:45:38.000Z</time>
      </trkpt>
      <trkpt lat="49.27787" lon="1.10684">
        <ele>122</ele>
        <time>2016-07-10T08:45:39.000Z</time>
      </trkpt>
      <trkpt lat="49.27787" lon="1.10684">
        <ele>122</ele>
        <time>2016-07-10T08:45:40.000Z</time>
      </trkpt>
      <trkpt lat="49.27787" lon="1.10684">
        <ele>122</ele>
        <time>2016-07-10T08:45:41.000Z</time>
      </trkpt>
      <trkpt lat="49.27787" lon="1.10684">
        <ele>122</ele>
        <time>2016-07-10T08:45:42.000Z</time>
      </trkpt>
      <trkpt lat="49.27787" lon="1.10684">
        <ele>122</ele>
        <time>2016-07-10T08:45:43.000Z</time>
      </trkpt>
      <trkpt lat="49.27787" lon="1.10684">
        <ele>122</ele>
        <time>2016-07-10T08:45:44.000Z</time>
      </trkpt>
      <trkpt lat="49.27787" lon="1.10684">
        <ele>121</ele>
        <time>2016-07-10T08:45:45.000Z</time>
      </trkpt>
      <trkpt lat="49.27787" lon="1.10684">
        <ele>121</ele>
        <time>2016-07-10T08:45:46.000Z</time>
      </trkpt>
      <trkpt lat="49.27787" lon="1.10684">
        <ele>121</ele>
        <time>2016-07-10T08:45:47.000Z</time>
      </trkpt>
      <trkpt lat="49.27787" lon="1.10684">
        <ele>121</ele>
        <time>2016-07-10T08:45:48.000Z</time>
      </trkpt>
      <trkpt lat="49.27787" lon="1.10684">
        <ele>121</ele>
        <time>2016-07-10T08:45:49.000Z</time>
      </trkpt>
      <trkpt lat="49.27787" lon="1.10684">
        <ele>121</ele>
        <time>2016-07-10T08:45:50.000Z</time>
      </trkpt>
      <trkpt lat="49.27787" lon="1.10684">
        <ele>121</ele>
        <time>2016-07-10T08:45:51.000Z</time>
      </trkpt>
      <trkpt lat="49.27787" lon="1.10684">
        <ele>121</ele>
        <time>2016-07-10T08:45:52.000Z</time>
      </trkpt>
      <trkpt lat="49.27787" lon="1.10684">
        <ele>121</ele>
        <time>2016-07-10T08:45:53.000Z</time>
      </trkpt>
      <trkpt lat="49.27787" lon="1.10684">
        <ele>121</ele>
        <time>2016-07-10T08:45:54.000Z</time>
      </trkpt>
      <trkpt lat="49.27787" lon="1.10684">
        <ele>121</ele>
        <time>2016-07-10T08:45:55.000Z</time>
      </trkpt>
      <trkpt lat="49.27787" lon="1.10684">
        <ele>121</ele>
        <time>2016-07-10T08:45:56.000Z</time>
      </trkpt>
      <trkpt lat="49.27787" lon="1.10684">
        <ele>121</ele>
        <time>2016-07-10T08:45:57.000Z</time>
      </trkpt>
      <trkpt lat="49.27787" lon="1.10684">
        <ele>121</ele>
        <time>2016-07-10T08:45:58.000Z</time>
      </trkpt>
      <trkpt lat="49.27787" lon="1.10684">
        <ele>122</ele>
        <time>2016-07-10T08:45:59.000Z</time>
      </trkpt>
      <trkpt lat="49.27787" lon="1.10685">
        <ele>121</ele>
        <time>2016-07-10T08:46:00.000Z</time>
      </trkpt>
      <trkpt lat="49.27787" lon="1.10685">
        <ele>121</ele>
        <time>2016-07-10T08:46:01.000Z</time>
      </trkpt>
      <trkpt lat="49.27787" lon="1.10685">
        <ele>121</ele>
        <time>2016-07-10T08:46:02.000Z</time>
      </trkpt>
      <trkpt lat="49.27787" lon="1.10685">
        <ele>121</ele>
        <time>2016-07-10T08:46:03.000Z</time>
      </trkpt>
      <trkpt lat="49.27787" lon="1.10685">
        <ele>122</ele>
        <time>2016-07-10T08:46:04.000Z</time>
      </trkpt>
      <trkpt lat="49.27787" lon="1.10685">
        <ele>122</ele>
        <time>2016-07-10T08:46:05.000Z</time>
      </trkpt>
      <trkpt lat="49.27787" lon="1.10685">
        <ele>121</ele>
        <time>2016-07-10T08:46:06.000Z</time>
      </trkpt>
      <trkpt lat="49.27787" lon="1.10685">
        <ele>121</ele>
        <time>2016-07-10T08:46:07.000Z</time>
      </trkpt>
      <trkpt lat="49.27787" lon="1.10685">
        <ele>121</ele>
        <time>2016-07-10T08:46:08.000Z</time>
      </trkpt>
      <trkpt lat="49.27787" lon="1.10684">
        <ele>121</ele>
        <time>2016-07-10T08:46:09.000Z</time>
      </trkpt>
      <trkpt lat="49.27787" lon="1.10684">
        <ele>121</ele>
        <time>2016-07-10T08:46:10.000Z</time>
      </trkpt>
      <trkpt lat="49.27787" lon="1.10684">
        <ele>121</ele>
        <time>2016-07-10T08:46:11.000Z</time>
      </trkpt>
      <trkpt lat="49.27787" lon="1.10684">
        <ele>121</ele>
        <time>2016-07-10T08:46:12.000Z</time>
      </trkpt>
      <trkpt lat="49.27787" lon="1.10684">
        <ele>121</ele>
        <time>2016-07-10T08:46:13.000Z</time>
      </trkpt>
      <trkpt lat="49.27787" lon="1.10685">
        <ele>121</ele>
        <time>2016-07-10T08:46:14.000Z</time>
      </trkpt>
      <trkpt lat="49.27787" lon="1.10685">
        <ele>121</ele>
        <time>2016-07-10T08:46:15.000Z</time>
      </trkpt>
      <trkpt lat="49.27787" lon="1.10685">
        <ele>121</ele>
        <time>2016-07-10T08:46:16.000Z</time>
      </trkpt>
      <trkpt lat="49.27787" lon="1.10684">
        <ele>121</ele>
        <time>2016-07-10T08:46:17.000Z</time>
      </trkpt>
      <trkpt lat="49.27787" lon="1.10684">
        <ele>121</ele>
        <time>2016-07-10T08:46:18.000Z</time>
      </trkpt>
      <trkpt lat="49.27787" lon="1.10684">
        <ele>121</ele>
        <time>2016-07-10T08:46:19.000Z</time>
      </trkpt>
      <trkpt lat="49.27787" lon="1.10685">
        <ele>121</ele>
        <time>2016-07-10T08:46:20.000Z</time>
      </trkpt>
      <trkpt lat="49.27787" lon="1.10685">
        <ele>121</ele>
        <time>2016-07-10T08:46:21.000Z</time>
      </trkpt>
      <trkpt lat="49.27787" lon="1.10685">
        <ele>120</ele>
        <time>2016-07-10T08:46:22.000Z</time>
      </trkpt>
      <trkpt lat="49.27786" lon="1.10685">
        <ele>120</ele>
        <time>2016-07-10T08:46:23.000Z</time>
      </trkpt>
      <trkpt lat="49.27786" lon="1.10685">
        <ele>120</ele>
        <time>2016-07-10T08:46:24.000Z</time>
      </trkpt>
      <trkpt lat="49.27786" lon="1.10685">
        <ele>121</ele>
        <time>2016-07-10T08:46:25.000Z</time>
      </trkpt>
      <trkpt lat="49.27787" lon="1.10685">
        <ele>121</ele>
        <time>2016-07-10T08:46:26.000Z</time>
      </trkpt>
      <trkpt lat="49.27787" lon="1.10685">
        <ele>122</ele>
        <time>2016-07-10T08:46:27.000Z</time>
      </trkpt>
      <trkpt lat="49.27787" lon="1.10685">
        <ele>122</ele>
        <time>2016-07-10T08:46:28.000Z</time>
      </trkpt>
      <trkpt lat="49.27786" lon="1.10685">
        <ele>122</ele>
        <time>2016-07-10T08:46:29.000Z</time>
      </trkpt>
      <trkpt lat="49.27786" lon="1.10685">
        <ele>122</ele>
        <time>2016-07-10T08:46:30.000Z</time>
      </trkpt>
      <trkpt lat="49.27787" lon="1.10685">
        <ele>122</ele>
        <time>2016-07-10T08:46:31.000Z</time>
      </trkpt>
      <trkpt lat="49.27787" lon="1.10685">
        <ele>122</ele>
        <time>2016-07-10T08:46:32.000Z</time>
      </trkpt>
      <trkpt lat="49.27787" lon="1.10685">
        <ele>122</ele>
        <time>2016-07-10T08:46:33.000Z</time>
      </trkpt>
      <trkpt lat="49.27786" lon="1.10684">
        <ele>122</ele>
        <time>2016-07-10T08:46:34.000Z</time>
      </trkpt>
      <trkpt lat="49.27786" lon="1.10684">
        <ele>122</ele>
        <time>2016-07-10T08:46:35.000Z</time>
      </trkpt>
      <trkpt lat="49.27786" lon="1.10684">
        <ele>122</ele>
        <time>2016-07-10T08:46:36.000Z</time>
      </trkpt>
      <trkpt lat="49.27787" lon="1.10684">
        <ele>122</ele>
        <time>2016-07-10T08:46:37.000Z</time>
      </trkpt>
      <trkpt lat="49.27787" lon="1.10683">
        <ele>122</ele>
        <time>2016-07-10T08:46:38.000Z</time>
      </trkpt>
      <trkpt lat="49.27787" lon="1.10683">
        <ele>122</ele>
        <time>2016-07-10T08:46:39.000Z</time>
      </trkpt>
      <trkpt lat="49.27787" lon="1.10683">
        <ele>121</ele>
        <time>2016-07-10T08:46:40.000Z</time>
      </trkpt>
      <trkpt lat="49.27787" lon="1.10682">
        <ele>121</ele>
        <time>2016-07-10T08:46:41.000Z</time>
      </trkpt>
      <trkpt lat="49.27787" lon="1.10681">
        <ele>121</ele>
        <time>2016-07-10T08:46:42.000Z</time>
      </trkpt>
      <trkpt lat="49.27788" lon="1.1068">
        <ele>121</ele>
        <time>2016-07-10T08:46:43.000Z</time>
      </trkpt>
      <trkpt lat="49.27788" lon="1.10679">
        <ele>121</ele>
        <time>2016-07-10T08:46:44.000Z</time>
      </trkpt>
      <trkpt lat="49.27788" lon="1.10678">
        <ele>120</ele>
        <time>2016-07-10T08:46:45.000Z</time>
      </trkpt>
      <trkpt lat="49.27788" lon="1.10678">
        <ele>120</ele>
        <time>2016-07-10T08:46:46.000Z</time>
      </trkpt>
      <trkpt lat="49.27788" lon="1.10678">
        <ele>119</ele>
        <time>2016-07-10T08:46:47.000Z</time>
      </trkpt>
      <trkpt lat="49.27787" lon="1.10678">
        <ele>120</ele>
        <time>2016-07-10T08:46:48.000Z</time>
      </trkpt>
      <trkpt lat="49.27787" lon="1.10678">
        <ele>120</ele>
        <time>2016-07-10T08:46:49.000Z</time>
      </trkpt>
      <trkpt lat="49.27787" lon="1.10678">
        <ele>119</ele>
        <time>2016-07-10T08:46:50.000Z</time>
      </trkpt>
      <trkpt lat="49.27787" lon="1.10678">
        <ele>120</ele>
        <time>2016-07-10T08:46:51.000Z</time>
      </trkpt>
      <trkpt lat="49.27787" lon="1.10678">
        <ele>119</ele>
        <time>2016-07-10T08:46:52.000Z</time>
      </trkpt>
      <trkpt lat="49.27787" lon="1.10678">
        <ele>119</ele>
        <time>2016-07-10T08:46:53.000Z</time>
      </trkpt>
      <trkpt lat="49.27787" lon="1.10678">
        <ele>119</ele>
        <time>2016-07-10T08:46:54.000Z</time>
      </trkpt>
      <trkpt lat="49.27787" lon="1.10678">
        <ele>119</ele>
        <time>2016-07-10T08:46:55.000Z</time>
      </trkpt>
      <trkpt lat="49.27787" lon="1.10678">
        <ele>120</ele>
        <time>2016-07-10T08:46:56.000Z</time>
      </trkpt>
      <trkpt lat="49.27787" lon="1.10678">
        <ele>120</ele>
        <time>2016-07-10T08:46:57.000Z</time>
      </trkpt>
      <trkpt lat="49.27787" lon="1.10678">
        <ele>120</ele>
        <time>2016-07-10T08:46:58.000Z</time>
      </trkpt>
      <trkpt lat="49.27787" lon="1.10678">
        <ele>120</ele>
        <time>2016-07-10T08:46:59.000Z</time>
      </trkpt>
      <trkpt lat="49.27787" lon="1.10678">
        <ele>120</ele>
        <time>2016-07-10T08:47:00.000Z</time>
      </trkpt>
      <trkpt lat="49.27787" lon="1.10678">
        <ele>121</ele>
        <time>2016-07-10T08:47:01.000Z</time>
      </trkpt>
      <trkpt lat="49.27787" lon="1.10678">
        <ele>121</ele>
        <time>2016-07-10T08:47:02.000Z</time>
      </trkpt>
      <trkpt lat="49.27787" lon="1.10678">
        <ele>121</ele>
        <time>2016-07-10T08:47:03.000Z</time>
      </trkpt>
      <trkpt lat="49.27787" lon="1.10679">
        <ele>121</ele>
        <time>2016-07-10T08:47:04.000Z</time>
      </trkpt>
      <trkpt lat="49.27787" lon="1.1068">
        <ele>120</ele>
        <time>2016-07-10T08:47:05.000Z</time>
      </trkpt>
      <trkpt lat="49.27787" lon="1.10681">
        <ele>120</ele>
        <time>2016-07-10T08:47:06.000Z</time>
      </trkpt>
      <trkpt lat="49.27787" lon="1.10681">
        <ele>120</ele>
        <time>2016-07-10T08:47:07.000Z</time>
      </trkpt>
      <trkpt lat="49.27787" lon="1.10682">
        <ele>120</ele>
        <time>2016-07-10T08:47:08.000Z</time>
      </trkpt>
      <trkpt lat="49.27787" lon="1.10682">
        <ele>120</ele>
        <time>2016-07-10T08:47:09.000Z</time>
      </trkpt>
      <trkpt lat="49.27786" lon="1.10682">
        <ele>120</ele>
        <time>2016-07-10T08:47:10.000Z</time>
      </trkpt>
      <trkpt lat="49.27786" lon="1.10682">
        <ele>120</ele>
        <time>2016-07-10T08:47:11.000Z</time>
      </trkpt>
      <trkpt lat="49.27786" lon="1.10682">
        <ele>120</ele>
        <time>2016-07-10T08:47:12.000Z</time>
      </trkpt>
      <trkpt lat="49.27786" lon="1.10682">
        <ele>120</ele>
        <time>2016-07-10T08:47:13.000Z</time>
      </trkpt>
      <trkpt lat="49.27786" lon="1.10682">
        <ele>119</ele>
        <time>2016-07-10T08:47:14.000Z</time>
      </trkpt>
      <trkpt lat="49.27786" lon="1.10682">
        <ele>119</ele>
        <time>2016-07-10T08:47:15.000Z</time>
      </trkpt>
      <trkpt lat="49.27786" lon="1.10682">
        <ele>119</ele>
        <time>2016-07-10T08:47:16.000Z</time>
      </trkpt>
      <trkpt lat="49.27786" lon="1.10682">
        <ele>119</ele>
        <time>2016-07-10T08:47:17.000Z</time>
      </trkpt>
      <trkpt lat="49.27786" lon="1.10682">
        <ele>119</ele>
        <time>2016-07-10T08:47:18.000Z</time>
      </trkpt>
      <trkpt lat="49.27786" lon="1.10682">
        <ele>119</ele>
        <time>2016-07-10T08:47:19.000Z</time>
      </trkpt>
      <trkpt lat="49.27786" lon="1.10682">
        <ele>119</ele>
        <time>2016-07-10T08:47:20.000Z</time>
      </trkpt>
      <trkpt lat="49.27786" lon="1.10681">
        <ele>119</ele>
        <time>2016-07-10T08:47:21.000Z</time>
      </trkpt>
      <trkpt lat="49.27786" lon="1.10681">
        <ele>119</ele>
        <time>2016-07-10T08:47:22.000Z</time>
      </trkpt>
      <trkpt lat="49.27786" lon="1.10681">
        <ele>119</ele>
        <time>2016-07-10T08:47:23.000Z</time>
      </trkpt>
      <trkpt lat="49.27786" lon="1.10682">
        <ele>120</ele>
        <time>2016-07-10T08:47:24.000Z</time>
      </trkpt>
      <trkpt lat="49.27786" lon="1.10682">
        <ele>120</ele>
        <time>2016-07-10T08:47:25.000Z</time>
      </trkpt>
      <trkpt lat="49.27786" lon="1.10682">
        <ele>120</ele>
        <time>2016-07-10T08:47:26.000Z</time>
      </trkpt>
      <trkpt lat="49.27786" lon="1.10682">
        <ele>120</ele>
        <time>2016-07-10T08:47:27.000Z</time>
      </trkpt>
      <trkpt lat="49.27786" lon="1.10682">
        <ele>120</ele>
        <time>2016-07-10T08:47:28.000Z</time>
      </trkpt>
      <trkpt lat="49.27786" lon="1.10682">
        <ele>120</ele>
        <time>2016-07-10T08:47:29.000Z</time>
      </trkpt>
      <trkpt lat="49.27786" lon="1.10681">
        <ele>120</ele>
        <time>2016-07-10T08:47:30.000Z</time>
      </trkpt>
      <trkpt lat="49.27786" lon="1.10681">
        <ele>120</ele>
        <time>2016-07-10T08:47:31.000Z</time>
      </trkpt>
      <trkpt lat="49.27786" lon="1.10681">
        <ele>120</ele>
        <time>2016-07-10T08:47:32.000Z</time>
      </trkpt>
      <trkpt lat="49.27786" lon="1.10681">
        <ele>120</ele>
        <time>2016-07-10T08:47:33.000Z</time>
      </trkpt>
      <trkpt lat="49.27786" lon="1.10681">
        <ele>120</ele>
        <time>2016-07-10T08:47:34.000Z</time>
      </trkpt>
      <trkpt lat="49.27786" lon="1.10681">
        <ele>120</ele>
        <time>2016-07-10T08:47:35.000Z</time>
      </trkpt>
      <trkpt lat="49.27786" lon="1.10681">
        <ele>120</ele>
        <time>2016-07-10T08:47:36.000Z</time>
      </trkpt>
      <trkpt lat="49.27786" lon="1.10681">
        <ele>120</ele>
        <time>2016-07-10T08:47:37.000Z</time>
      </trkpt>
      <trkpt lat="49.27786" lon="1.1068">
        <ele>119</ele>
        <time>2016-07-10T08:47:38.000Z</time>
      </trkpt>
      <trkpt lat="49.27786" lon="1.1068">
        <ele>119</ele>
        <time>2016-07-10T08:47:39.000Z</time>
      </trkpt>
      <trkpt lat="49.27786" lon="1.1068">
        <ele>120</ele>
        <time>2016-07-10T08:47:40.000Z</time>
      </trkpt>
      <trkpt lat="49.27786" lon="1.1068">
        <ele>120</ele>
        <time>2016-07-10T08:47:41.000Z</time>
      </trkpt>
      <trkpt lat="49.27786" lon="1.10679">
        <ele>120</ele>
        <time>2016-07-10T08:47:42.000Z</time>
      </trkpt>
      <trkpt lat="49.27786" lon="1.10679">
        <ele>120</ele>
        <time>2016-07-10T08:47:43.000Z</time>
      </trkpt>
      <trkpt lat="49.27786" lon="1.10678">
        <ele>119</ele>
        <time>2016-07-10T08:47:44.000Z</time>
      </trkpt>
      <trkpt lat="49.27786" lon="1.10677">
        <ele>119</ele>
        <time>2016-07-10T08:47:45.000Z</time>
      </trkpt>
      <trkpt lat="49.27786" lon="1.10677">
        <ele>119</ele>
        <time>2016-07-10T08:47:46.000Z</time>
      </trkpt>
      <trkpt lat="49.27785" lon="1.10687">
        <ele>122</ele>
        <time>2016-07-10T08:47:47.098Z</time>
      </trkpt>
      <trkpt lat="49.27785" lon="1.10687">
        <ele>122</ele>
        <time>2016-07-10T08:47:48.098Z</time>
      </trkpt>
      <trkpt lat="49.27785" lon="1.10687">
        <ele>122</ele>
        <time>2016-07-10T08:47:49.098Z</time>
      </trkpt>
      <trkpt lat="49.27785" lon="1.10687">
        <ele>121</ele>
        <time>2016-07-10T08:47:50.098Z</time>
      </trkpt>
      <trkpt lat="49.27785" lon="1.10687">
        <ele>121</ele>
        <time>2016-07-10T08:47:51.098Z</time>
      </trkpt>
      <trkpt lat="49.27785" lon="1.10687">
        <ele>121</ele>
        <time>2016-07-10T08:47:52.098Z</time>
      </trkpt>
      <trkpt lat="49.27785" lon="1.10688">
        <ele>122</ele>
        <time>2016-07-10T08:47:53.098Z</time>
      </trkpt>
      <trkpt lat="49.27785" lon="1.10688">
        <ele>122</ele>
        <time>2016-07-10T08:47:54.098Z</time>
      </trkpt>
      <trkpt lat="49.27785" lon="1.10688">
        <ele>122</ele>
        <time>2016-07-10T08:47:55.098Z</time>
      </trkpt>
      <trkpt lat="49.27785" lon="1.10688">
        <ele>122</ele>
        <time>2016-07-10T08:47:56.098Z</time>
      </trkpt>
      <trkpt lat="49.27785" lon="1.10688">
        <ele>122</ele>
        <time>2016-07-10T08:47:57.098Z</time>
      </trkpt>
      <trkpt lat="49.27785" lon="1.10688">
        <ele>122</ele>
        <time>2016-07-10T08:47:58.098Z</time>
      </trkpt>
      <trkpt lat="49.27785" lon="1.10688">
        <ele>121</ele>
        <time>2016-07-10T08:47:59.098Z</time>
      </trkpt>
      <trkpt lat="49.27785" lon="1.10688">
        <ele>121</ele>
        <time>2016-07-10T08:48:00.098Z</time>
      </trkpt>
      <trkpt lat="49.27785" lon="1.10687">
        <ele>120</ele>
        <time>2016-07-10T08:48:01.098Z</time>
      </trkpt>
      <trkpt lat="49.27784" lon="1.10687">
        <ele>120</ele>
        <time>2016-07-10T08:48:02.098Z</time>
      </trkpt>
      <trkpt lat="49.27784" lon="1.10687">
        <ele>120</ele>
        <time>2016-07-10T08:48:03.098Z</time>
      </trkpt>
      <trkpt lat="49.27784" lon="1.10687">
        <ele>121</ele>
        <time>2016-07-10T08:48:04.098Z</time>
      </trkpt>
      <trkpt lat="49.27784" lon="1.10687">
        <ele>121</ele>
        <time>2016-07-10T08:48:05.098Z</time>
      </trkpt>
      <trkpt lat="49.27784" lon="1.10687">
        <ele>121</ele>
        <time>2016-07-10T08:48:06.098Z</time>
      </trkpt>
      <trkpt lat="49.27785" lon="1.10687">
        <ele>121</ele>
        <time>2016-07-10T08:48:07.098Z</time>
      </trkpt>
      <trkpt lat="49.27785" lon="1.10687">
        <ele>120</ele>
        <time>2016-07-10T08:48:08.098Z</time>
      </trkpt>
      <trkpt lat="49.27785" lon="1.10687">
        <ele>120</ele>
        <time>2016-07-10T08:48:09.098Z</time>
      </trkpt>
      <trkpt lat="49.27784" lon="1.10687">
        <ele>120</ele>
        <time>2016-07-10T08:48:10.098Z</time>
      </trkpt>
      <trkpt lat="49.27784" lon="1.10687">
        <ele>120</ele>
        <time>2016-07-10T08:48:11.098Z</time>
      </trkpt>
      <trkpt lat="49.27785" lon="1.10687">
        <ele>120</ele>
        <time>2016-07-10T08:48:12.098Z</time>
      </trkpt>
      <trkpt lat="49.27785" lon="1.10687">
        <ele>120</ele>
        <time>2016-07-10T08:48:13.098Z</time>
      </trkpt>
      <trkpt lat="49.27785" lon="1.10687">
        <ele>120</ele>
        <time>2016-07-10T08:48:14.098Z</time>
      </trkpt>
      <trkpt lat="49.27785" lon="1.10687">
        <ele>120</ele>
        <time>2016-07-10T08:48:15.098Z</time>
      </trkpt>
      <trkpt lat="49.27785" lon="1.10687">
        <ele>120</ele>
        <time>2016-07-10T08:48:16.098Z</time>
      </trkpt>
      <trkpt lat="49.27785" lon="1.10686">
        <ele>120</ele>
        <time>2016-07-10T08:48:17.098Z</time>
      </trkpt>
      <trkpt lat="49.27785" lon="1.10686">
        <ele>120</ele>
        <time>2016-07-10T08:48:18.098Z</time>
      </trkpt>
      <trkpt lat="49.27785" lon="1.10686">
        <ele>119</ele>
        <time>2016-07-10T08:48:19.098Z</time>
      </trkpt>
      <trkpt lat="49.27785" lon="1.10686">
        <ele>120</ele>
        <time>2016-07-10T08:48:20.098Z</time>
      </trkpt>
      <trkpt lat="49.27785" lon="1.10686">
        <ele>120</ele>
        <time>2016-07-10T08:48:21.098Z</time>
      </trkpt>
      <trkpt lat="49.27785" lon="1.10687">
        <ele>120</ele>
        <time>2016-07-10T08:48:22.098Z</time>
      </trkpt>
      <trkpt lat="49.27785" lon="1.10687">
        <ele>120</ele>
        <time>2016-07-10T08:48:23.098Z</time>
      </trkpt>
      <trkpt lat="49.27785" lon="1.10687">
        <ele>120</ele>
        <time>2016-07-10T08:48:24.098Z</time>
      </trkpt>
      <trkpt lat="49.27785" lon="1.10687">
        <ele>120</ele>
        <time>2016-07-10T08:48:25.098Z</time>
      </trkpt>
      <trkpt lat="49.27785" lon="1.10687">
        <ele>120</ele>
        <time>2016-07-10T08:48:26.098Z</time>
      </trkpt>
      <trkpt lat="49.27785" lon="1.10687">
        <ele>120</ele>
        <time>2016-07-10T08:48:27.098Z</time>
      </trkpt>
      <trkpt lat="49.27785" lon="1.10688">
        <ele>120</ele>
        <time>2016-07-10T08:48:28.098Z</time>
      </trkpt>
      <trkpt lat="49.27785" lon="1.1069">
        <ele>119</ele>
        <time>2016-07-10T08:48:29.098Z</time>
      </trkpt>
      <trkpt lat="49.27785" lon="1.10693">
        <ele>119</ele>
        <time>2016-07-10T08:48:30.098Z</time>
      </trkpt>
      <trkpt lat="49.27784" lon="1.10696">
        <ele>119</ele>
        <time>2016-07-10T08:48:31.098Z</time>
      </trkpt>
      <trkpt lat="49.27784" lon="1.107">
        <ele>119</ele>
        <time>2016-07-10T08:48:32.098Z</time>
      </trkpt>
      <trkpt lat="49.27783" lon="1.10705">
        <ele>119</ele>
        <time>2016-07-10T08:48:33.098Z</time>
      </trkpt>
      <trkpt lat="49.27783" lon="1.1071">
        <ele>118</ele>
        <time>2016-07-10T08:48:34.098Z</time>
      </trkpt>
      <trkpt lat="49.27782" lon="1.10715">
        <ele>118</ele>
        <time>2016-07-10T08:48:35.098Z</time>
      </trkpt>
      <trkpt lat="49.27782" lon="1.1072">
        <ele>118</ele>
        <time>2016-07-10T08:48:36.098Z</time>
      </trkpt>
      <trkpt lat="49.27781" lon="1.10725">
        <ele>118</ele>
        <time>2016-07-10T08:48:37.098Z</time>
      </trkpt>
      <trkpt lat="49.27781" lon="1.1073">
        <ele>118</ele>
        <time>2016-07-10T08:48:38.098Z</time>
      </trkpt>
      <trkpt lat="49.2778" lon="1.10735">
        <ele>118</ele>
        <time>2016-07-10T08:48:39.098Z</time>
      </trkpt>
      <trkpt lat="49.2778" lon="1.10741">
        <ele>118</ele>
        <time>2016-07-10T08:48:40.098Z</time>
      </trkpt>
      <trkpt lat="49.27779" lon="1.10747">
        <ele>118</ele>
        <time>2016-07-10T08:48:41.098Z</time>
      </trkpt>
      <trkpt lat="49.27778" lon="1.10753">
        <ele>118</ele>
        <time>2016-07-10T08:48:42.098Z</time>
      </trkpt>
      <trkpt lat="49.27777" lon="1.10759">
        <ele>118</ele>
        <time>2016-07-10T08:48:43.098Z</time>
      </trkpt>
      <trkpt lat="49.27777" lon="1.10765">
        <ele>118</ele>
        <time>2016-07-10T08:48:44.098Z</time>
      </trkpt>
      <trkpt lat="49.27776" lon="1.10772">
        <ele>118</ele>
        <time>2016-07-10T08:48:45.098Z</time>
      </trkpt>
      <trkpt lat="49.27775" lon="1.10778">
        <ele>117</ele>
        <time>2016-07-10T08:48:46.098Z</time>
      </trkpt>
      <trkpt lat="49.27774" lon="1.10786">
        <ele>117</ele>
        <time>2016-07-10T08:48:47.098Z</time>
      </trkpt>
      <trkpt lat="49.27773" lon="1.10794">
        <ele>117</ele>
        <time>2016-07-10T08:48:48.098Z</time>
      </trkpt>
      <trkpt lat="49.27772" lon="1.10802">
        <ele>117</ele>
        <time>2016-07-10T08:48:49.098Z</time>
      </trkpt>
      <trkpt lat="49.27771" lon="1.1081">
        <ele>117</ele>
        <time>2016-07-10T08:48:50.098Z</time>
      </trkpt>
      <trkpt lat="49.27771" lon="1.10819">
        <ele>117</ele>
        <time>2016-07-10T08:48:51.098Z</time>
      </trkpt>
      <trkpt lat="49.2777" lon="1.10828">
        <ele>116</ele>
        <time>2016-07-10T08:48:52.098Z</time>
      </trkpt>
      <trkpt lat="49.27769" lon="1.10837">
        <ele>116</ele>
        <time>2016-07-10T08:48:53.098Z</time>
      </trkpt>
      <trkpt lat="49.27768" lon="1.10845">
        <ele>116</ele>
        <time>2016-07-10T08:48:54.098Z</time>
      </trkpt>
      <trkpt lat="49.27768" lon="1.10854">
        <ele>116</ele>
        <time>2016-07-10T08:48:55.098Z</time>
      </trkpt>
      <trkpt lat="49.27767" lon="1.10864">
        <ele>115</ele>
        <time>2016-07-10T08:48:56.098Z</time>
      </trkpt>
      <trkpt lat="49.27765" lon="1.10873">
        <ele>115</ele>
        <time>2016-07-10T08:48:57.098Z</time>
      </trkpt>
      <trkpt lat="49.27764" lon="1.10882">
        <ele>115</ele>
        <time>2016-07-10T08:48:58.098Z</time>
      </trkpt>
      <trkpt lat="49.27763" lon="1.10892">
        <ele>115</ele>
        <time>2016-07-10T08:48:59.098Z</time>
      </trkpt>
      <trkpt lat="49.27762" lon="1.10902">
        <ele>114</ele>
        <time>2016-07-10T08:49:00.098Z</time>
      </trkpt>
      <trkpt lat="49.27761" lon="1.10912">
        <ele>114</ele>
        <time>2016-07-10T08:49:01.098Z</time>
      </trkpt>
      <trkpt lat="49.2776" lon="1.10922">
        <ele>113</ele>
        <time>2016-07-10T08:49:02.098Z</time>
      </trkpt>
      <trkpt lat="49.27759" lon="1.10933">
        <ele>112</ele>
        <time>2016-07-10T08:49:03.098Z</time>
      </trkpt>
      <trkpt lat="49.27758" lon="1.10944">
        <ele>112</ele>
        <time>2016-07-10T08:49:04.098Z</time>
      </trkpt>
      <trkpt lat="49.27757" lon="1.10955">
        <ele>111</ele>
        <time>2016-07-10T08:49:05.098Z</time>
      </trkpt>
      <trkpt lat="49.27755" lon="1.10967">
        <ele>111</ele>
        <time>2016-07-10T08:49:06.098Z</time>
      </trkpt>
      <trkpt lat="49.27754" lon="1.10979">
        <ele>110</ele>
        <time>2016-07-10T08:49:07.098Z</time>
      </trkpt>
      <trkpt lat="49.27753" lon="1.10991">
        <ele>109</ele>
        <time>2016-07-10T08:49:08.098Z</time>
      </trkpt>
      <trkpt lat="49.27751" lon="1.11003">
        <ele>108</ele>
        <time>2016-07-10T08:49:09.098Z</time>
      </trkpt>
      <trkpt lat="49.2775" lon="1.11015">
        <ele>108</ele>
        <time>2016-07-10T08:49:10.098Z</time>
      </trkpt>
      <trkpt lat="49.27749" lon="1.11027">
        <ele>107</ele>
        <time>2016-07-10T08:49:11.098Z</time>
      </trkpt>
      <trkpt lat="49.27748" lon="1.11039">
        <ele>105</ele>
        <time>2016-07-10T08:49:12.098Z</time>
      </trkpt>
      <trkpt lat="49.27747" lon="1.11051">
        <ele>104</ele>
        <time>2016-07-10T08:49:13.098Z</time>
      </trkpt>
      <trkpt lat="49.27746" lon="1.11063">
        <ele>103</ele>
        <time>2016-07-10T08:49:14.098Z</time>
      </trkpt>
      <trkpt lat="49.27745" lon="1.11076">
        <ele>102</ele>
        <time>2016-07-10T08:49:15.098Z</time>
      </trkpt>
      <trkpt lat="49.27744" lon="1.11089">
        <ele>100</ele>
        <time>2016-07-10T08:49:16.098Z</time>
      </trkpt>
      <trkpt lat="49.27742" lon="1.11103">
        <ele>98</ele>
        <time>2016-07-10T08:49:17.098Z</time>
      </trkpt>
      <trkpt lat="49.27741" lon="1.11116">
        <ele>96</ele>
        <time>2016-07-10T08:49:18.098Z</time>
      </trkpt>
      <trkpt lat="49.27739" lon="1.11129">
        <ele>95</ele>
        <time>2016-07-10T08:49:19.098Z</time>
      </trkpt>
      <trkpt lat="49.27738" lon="1.11141">
        <ele>94</ele>
        <time>2016-07-10T08:49:20.098Z</time>
      </trkpt>
      <trkpt lat="49.27736" lon="1.11153">
        <ele>93</ele>
        <time>2016-07-10T08:49:21.098Z</time>
      </trkpt>
      <trkpt lat="49.27734" lon="1.11165">
        <ele>92</ele>
        <time>2016-07-10T08:49:22.098Z</time>
      </trkpt>
      <trkpt lat="49.27732" lon="1.11178">
        <ele>91</ele>
        <time>2016-07-10T08:49:23.098Z</time>
      </trkpt>
      <trkpt lat="49.27731" lon="1.1119">
        <ele>90</ele>
        <time>2016-07-10T08:49:24.098Z</time>
      </trkpt>
      <trkpt lat="49.27729" lon="1.11202">
        <ele>89</ele>
        <time>2016-07-10T08:49:25.098Z</time>
      </trkpt>
      <trkpt lat="49.27728" lon="1.11212">
        <ele>88</ele>
        <time>2016-07-10T08:49:26.098Z</time>
      </trkpt>
      <trkpt lat="49.27727" lon="1.11221">
        <ele>87</ele>
        <time>2016-07-10T08:49:27.098Z</time>
      </trkpt>
      <trkpt lat="49.27726" lon="1.1123">
        <ele>87</ele>
        <time>2016-07-10T08:49:28.098Z</time>
      </trkpt>
      <trkpt lat="49.27725" lon="1.11239">
        <ele>87</ele>
        <time>2016-07-10T08:49:29.098Z</time>
      </trkpt>
      <trkpt lat="49.27723" lon="1.11248">
        <ele>87</ele>
        <time>2016-07-10T08:49:30.098Z</time>
      </trkpt>
      <trkpt lat="49.27722" lon="1.11256">
        <ele>87</ele>
        <time>2016-07-10T08:49:31.098Z</time>
      </trkpt>
      <trkpt lat="49.27721" lon="1.11265">
        <ele>87</ele>
        <time>2016-07-10T08:49:32.098Z</time>
      </trkpt>
      <trkpt lat="49.27719" lon="1.11273">
        <ele>88</ele>
        <time>2016-07-10T08:49:33.098Z</time>
      </trkpt>
      <trkpt lat="49.27718" lon="1.11281">
        <ele>89</ele>
        <time>2016-07-10T08:49:34.098Z</time>
      </trkpt>
      <trkpt lat="49.27718" lon="1.1129">
        <ele>90</ele>
        <time>2016-07-10T08:49:35.098Z</time>
      </trkpt>
      <trkpt lat="49.27718" lon="1.11299">
        <ele>91</ele>
        <time>2016-07-10T08:49:36.098Z</time>
      </trkpt>
      <trkpt lat="49.27717" lon="1.11309">
        <ele>92</ele>
        <time>2016-07-10T08:49:37.098Z</time>
      </trkpt>
      <trkpt lat="49.27717" lon="1.11317">
        <ele>92</ele>
        <time>2016-07-10T08:49:38.098Z</time>
      </trkpt>
      <trkpt lat="49.27716" lon="1.11327">
        <ele>93</ele>
        <time>2016-07-10T08:49:39.098Z</time>
      </trkpt>
      <trkpt lat="49.27715" lon="1.11336">
        <ele>93</ele>
        <time>2016-07-10T08:49:40.098Z</time>
      </trkpt>
      <trkpt lat="49.27715" lon="1.11345">
        <ele>94</ele>
        <time>2016-07-10T08:49:41.098Z</time>
      </trkpt>
      <trkpt lat="49.27714" lon="1.11354">
        <ele>94</ele>
        <time>2016-07-10T08:49:42.098Z</time>
      </trkpt>
      <trkpt lat="49.27713" lon="1.11364">
        <ele>95</ele>
        <time>2016-07-10T08:49:43.098Z</time>
      </trkpt>
      <trkpt lat="49.27713" lon="1.11374">
        <ele>95</ele>
        <time>2016-07-10T08:49:44.098Z</time>
      </trkpt>
      <trkpt lat="49.27712" lon="1.11383">
        <ele>96</ele>
        <time>2016-07-10T08:49:45.098Z</time>
      </trkpt>
      <trkpt lat="49.27711" lon="1.11392">
        <ele>97</ele>
        <time>2016-07-10T08:49:46.098Z</time>
      </trkpt>
      <trkpt lat="49.2771" lon="1.11401">
        <ele>97</ele>
        <time>2016-07-10T08:49:47.098Z</time>
      </trkpt>
      <trkpt lat="49.27709" lon="1.1141">
        <ele>97</ele>
        <time>2016-07-10T08:49:48.098Z</time>
      </trkpt>
      <trkpt lat="49.27708" lon="1.11419">
        <ele>98</ele>
        <time>2016-07-10T08:49:49.098Z</time>
      </trkpt>
      <trkpt lat="49.27707" lon="1.11428">
        <ele>99</ele>
        <time>2016-07-10T08:49:50.098Z</time>
      </trkpt>
      <trkpt lat="49.27706" lon="1.11436">
        <ele>100</ele>
        <time>2016-07-10T08:49:51.098Z</time>
      </trkpt>
      <trkpt lat="49.27705" lon="1.11444">
        <ele>100</ele>
        <time>2016-07-10T08:49:52.098Z</time>
      </trkpt>
      <trkpt lat="49.27705" lon="1.11452">
        <ele>100</ele>
        <time>2016-07-10T08:49:53.098Z</time>
      </trkpt>
      <trkpt lat="49.27704" lon="1.11461">
        <ele>100</ele>
        <time>2016-07-10T08:49:54.098Z</time>
      </trkpt>
      <trkpt lat="49.27703" lon="1.11469">
        <ele>99</ele>
        <time>2016-07-10T08:49:55.098Z</time>
      </trkpt>
      <trkpt lat="49.27702" lon="1.11478">
        <ele>98</ele>
        <time>2016-07-10T08:49:56.098Z</time>
      </trkpt>
      <trkpt lat="49.277" lon="1.11486">
        <ele>97</ele>
        <time>2016-07-10T08:49:57.098Z</time>
      </trkpt>
      <trkpt lat="49.27699" lon="1.11494">
        <ele>97</ele>
        <time>2016-07-10T08:49:58.098Z</time>
      </trkpt>
      <trkpt lat="49.27699" lon="1.11502">
        <ele>96</ele>
        <time>2016-07-10T08:49:59.098Z</time>
      </trkpt>
      <trkpt lat="49.27698" lon="1.11509">
        <ele>95</ele>
        <time>2016-07-10T08:50:00.098Z</time>
      </trkpt>
      <trkpt lat="49.27697" lon="1.11517">
        <ele>93</ele>
        <time>2016-07-10T08:50:01.098Z</time>
      </trkpt>
      <trkpt lat="49.27696" lon="1.11524">
        <ele>92</ele>
        <time>2016-07-10T08:50:02.098Z</time>
      </trkpt>
      <trkpt lat="49.27695" lon="1.11531">
        <ele>90</ele>
        <time>2016-07-10T08:50:03.098Z</time>
      </trkpt>
      <trkpt lat="49.27695" lon="1.11538">
        <ele>88</ele>
        <time>2016-07-10T08:50:04.098Z</time>
      </trkpt>
      <trkpt lat="49.27694" lon="1.11546">
        <ele>87</ele>
        <time>2016-07-10T08:50:05.098Z</time>
      </trkpt>
      <trkpt lat="49.27693" lon="1.11554">
        <ele>85</ele>
        <time>2016-07-10T08:50:06.098Z</time>
      </trkpt>
      <trkpt lat="49.27692" lon="1.11562">
        <ele>84</ele>
        <time>2016-07-10T08:50:07.098Z</time>
      </trkpt>
      <trkpt lat="49.27691" lon="1.1157">
        <ele>83</ele>
        <time>2016-07-10T08:50:08.098Z</time>
      </trkpt>
      <trkpt lat="49.2769" lon="1.11578">
        <ele>83</ele>
        <time>2016-07-10T08:50:09.098Z</time>
      </trkpt>
      <trkpt lat="49.27689" lon="1.11586">
        <ele>82</ele>
        <time>2016-07-10T08:50:10.098Z</time>
      </trkpt>
      <trkpt lat="49.27688" lon="1.11593">
        <ele>81</ele>
        <time>2016-07-10T08:50:11.098Z</time>
      </trkpt>
      <trkpt lat="49.27687" lon="1.11599">
        <ele>80</ele>
        <time>2016-07-10T08:50:12.098Z</time>
      </trkpt>
      <trkpt lat="49.27686" lon="1.11605">
        <ele>78</ele>
        <time>2016-07-10T08:50:13.098Z</time>
      </trkpt>
      <trkpt lat="49.27684" lon="1.11609">
        <ele>78</ele>
        <time>2016-07-10T08:50:14.098Z</time>
      </trkpt>
      <trkpt lat="49.27682" lon="1.11613">
        <ele>78</ele>
        <time>2016-07-10T08:50:15.098Z</time>
      </trkpt>
      <trkpt lat="49.2768" lon="1.11616">
        <ele>78</ele>
        <time>2016-07-10T08:50:16.098Z</time>
      </trkpt>
      <trkpt lat="49.27678" lon="1.11619">
        <ele>77</ele>
        <time>2016-07-10T08:50:17.098Z</time>
      </trkpt>
      <trkpt lat="49.27676" lon="1.11622">
        <ele>76</ele>
        <time>2016-07-10T08:50:18.098Z</time>
      </trkpt>
      <trkpt lat="49.27673" lon="1.11625">
        <ele>76</ele>
        <time>2016-07-10T08:50:19.098Z</time>
      </trkpt>
      <trkpt lat="49.2767" lon="1.11629">
        <ele>78</ele>
        <time>2016-07-10T08:50:20.098Z</time>
      </trkpt>
      <trkpt lat="49.27666" lon="1.11632">
        <ele>79</ele>
        <time>2016-07-10T08:50:21.098Z</time>
      </trkpt>
      <trkpt lat="49.27662" lon="1.11636">
        <ele>79</ele>
        <time>2016-07-10T08:50:22.098Z</time>
      </trkpt>
      <trkpt lat="49.27658" lon="1.1164">
        <ele>79</ele>
        <time>2016-07-10T08:50:23.098Z</time>
      </trkpt>
      <trkpt lat="49.27654" lon="1.11645">
        <ele>79</ele>
        <time>2016-07-10T08:50:24.098Z</time>
      </trkpt>
      <trkpt lat="49.2765" lon="1.1165">
        <ele>79</ele>
        <time>2016-07-10T08:50:25.098Z</time>
      </trkpt>
      <trkpt lat="49.27646" lon="1.11654">
        <ele>79</ele>
        <time>2016-07-10T08:50:26.098Z</time>
      </trkpt>
      <trkpt lat="49.27642" lon="1.11659">
        <ele>79</ele>
        <time>2016-07-10T08:50:27.098Z</time>
      </trkpt>
      <trkpt lat="49.27638" lon="1.11663">
        <ele>79</ele>
        <time>2016-07-10T08:50:28.098Z</time>
      </trkpt>
      <trkpt lat="49.27634" lon="1.11667">
        <ele>79</ele>
        <time>2016-07-10T08:50:29.098Z</time>
      </trkpt>
      <trkpt lat="49.27629" lon="1.1167">
        <ele>79</ele>
        <time>2016-07-10T08:50:30.098Z</time>
      </trkpt>
      <trkpt lat="49.27625" lon="1.11674">
        <ele>79</ele>
        <time>2016-07-10T08:50:31.098Z</time>
      </trkpt>
      <trkpt lat="49.27621" lon="1.11677">
        <ele>79</ele>
        <time>2016-07-10T08:50:32.098Z</time>
      </trkpt>
      <trkpt lat="49.27617" lon="1.1168">
        <ele>78</ele>
        <time>2016-07-10T08:50:33.098Z</time>
      </trkpt>
      <trkpt lat="49.27612" lon="1.11683">
        <ele>77</ele>
        <time>2016-07-10T08:50:34.098Z</time>
      </trkpt>
      <trkpt lat="49.27608" lon="1.11686">
        <ele>77</ele>
        <time>2016-07-10T08:50:35.098Z</time>
      </trkpt>
      <trkpt lat="49.27604" lon="1.11689">
        <ele>77</ele>
        <time>2016-07-10T08:50:36.098Z</time>
      </trkpt>
      <trkpt lat="49.27599" lon="1.11691">
        <ele>76</ele>
        <time>2016-07-10T08:50:37.098Z</time>
      </trkpt>
      <trkpt lat="49.27594" lon="1.11693">
        <ele>76</ele>
        <time>2016-07-10T08:50:38.098Z</time>
      </trkpt>
      <trkpt lat="49.2759" lon="1.11694">
        <ele>76</ele>
        <time>2016-07-10T08:50:39.098Z</time>
      </trkpt>
      <trkpt lat="49.27585" lon="1.11695">
        <ele>75</ele>
        <time>2016-07-10T08:50:40.098Z</time>
      </trkpt>
      <trkpt lat="49.2758" lon="1.11696">
        <ele>75</ele>
        <time>2016-07-10T08:50:41.098Z</time>
      </trkpt>
      <trkpt lat="49.27576" lon="1.11697">
        <ele>74</ele>
        <time>2016-07-10T08:50:42.098Z</time>
      </trkpt>
      <trkpt lat="49.27571" lon="1.11697">
        <ele>74</ele>
        <time>2016-07-10T08:50:43.098Z</time>
      </trkpt>
      <trkpt lat="49.27566" lon="1.11698">
        <ele>75</ele>
        <time>2016-07-10T08:50:44.098Z</time>
      </trkpt>
      <trkpt lat="49.27561" lon="1.11698">
        <ele>75</ele>
        <time>2016-07-10T08:50:45.098Z</time>
      </trkpt>
      <trkpt lat="49.27556" lon="1.117">
        <ele>75</ele>
        <time>2016-07-10T08:50:46.098Z</time>
      </trkpt>
      <trkpt lat="49.27551" lon="1.11701">
        <ele>75</ele>
        <time>2016-07-10T08:50:47.098Z</time>
      </trkpt>
      <trkpt lat="49.27546" lon="1.11703">
        <ele>75</ele>
        <time>2016-07-10T08:50:48.098Z</time>
      </trkpt>
      <trkpt lat="49.27541" lon="1.11705">
        <ele>75</ele>
        <time>2016-07-10T08:50:49.098Z</time>
      </trkpt>
      <trkpt lat="49.27536" lon="1.11707">
        <ele>75</ele>
        <time>2016-07-10T08:50:50.098Z</time>
      </trkpt>
      <trkpt lat="49.27531" lon="1.11709">
        <ele>75</ele>
        <time>2016-07-10T08:50:51.098Z</time>
      </trkpt>
      <trkpt lat="49.27526" lon="1.11711">
        <ele>74</ele>
        <time>2016-07-10T08:50:52.098Z</time>
      </trkpt>
      <trkpt lat="49.27522" lon="1.11714">
        <ele>74</ele>
        <time>2016-07-10T08:50:53.098Z</time>
      </trkpt>
      <trkpt lat="49.27517" lon="1.11716">
        <ele>73</ele>
        <time>2016-07-10T08:50:54.098Z</time>
      </trkpt>
      <trkpt lat="49.27513" lon="1.11719">
        <ele>73</ele>
        <time>2016-07-10T08:50:55.098Z</time>
      </trkpt>
      <trkpt lat="49.27509" lon="1.11722">
        <ele>72</ele>
        <time>2016-07-10T08:50:56.098Z</time>
      </trkpt>
      <trkpt lat="49.27505" lon="1.11727">
        <ele>72</ele>
        <time>2016-07-10T08:50:57.098Z</time>
      </trkpt>
      <trkpt lat="49.27502" lon="1.11733">
        <ele>71</ele>
        <time>2016-07-10T08:50:58.098Z</time>
      </trkpt>
      <trkpt lat="49.27499" lon="1.11741">
        <ele>69</ele>
        <time>2016-07-10T08:50:59.098Z</time>
      </trkpt>
      <trkpt lat="49.27496" lon="1.11747">
        <ele>70</ele>
        <time>2016-07-10T08:51:00.098Z</time>
      </trkpt>
      <trkpt lat="49.27493" lon="1.11753">
        <ele>70</ele>
        <time>2016-07-10T08:51:01.098Z</time>
      </trkpt>
      <trkpt lat="49.2749" lon="1.11759">
        <ele>71</ele>
        <time>2016-07-10T08:51:02.098Z</time>
      </trkpt>
      <trkpt lat="49.27487" lon="1.11765">
        <ele>72</ele>
        <time>2016-07-10T08:51:03.098Z</time>
      </trkpt>
      <trkpt lat="49.27484" lon="1.11771">
        <ele>72</ele>
        <time>2016-07-10T08:51:04.098Z</time>
      </trkpt>
      <trkpt lat="49.27481" lon="1.11777">
        <ele>72</ele>
        <time>2016-07-10T08:51:05.098Z</time>
      </trkpt>
      <trkpt lat="49.27478" lon="1.11783">
        <ele>71</ele>
        <time>2016-07-10T08:51:06.098Z</time>
      </trkpt>
      <trkpt lat="49.27475" lon="1.11788">
        <ele>72</ele>
        <time>2016-07-10T08:51:07.098Z</time>
      </trkpt>
      <trkpt lat="49.27472" lon="1.11794">
        <ele>72</ele>
        <time>2016-07-10T08:51:08.098Z</time>
      </trkpt>
      <trkpt lat="49.27469" lon="1.118">
        <ele>73</ele>
        <time>2016-07-10T08:51:09.098Z</time>
      </trkpt>
      <trkpt lat="49.27466" lon="1.11805">
        <ele>74</ele>
        <time>2016-07-10T08:51:10.098Z</time>
      </trkpt>
      <trkpt lat="49.27463" lon="1.1181">
        <ele>75</ele>
        <time>2016-07-10T08:51:11.098Z</time>
      </trkpt>
      <trkpt lat="49.27459" lon="1.11816">
        <ele>76</ele>
        <time>2016-07-10T08:51:12.098Z</time>
      </trkpt>
      <trkpt lat="49.27456" lon="1.11821">
        <ele>77</ele>
        <time>2016-07-10T08:51:13.098Z</time>
      </trkpt>
      <trkpt lat="49.27453" lon="1.11827">
        <ele>78</ele>
        <time>2016-07-10T08:51:14.098Z</time>
      </trkpt>
      <trkpt lat="49.27451" lon="1.11833">
        <ele>80</ele>
        <time>2016-07-10T08:51:15.098Z</time>
      </trkpt>
      <trkpt lat="49.27448" lon="1.11838">
        <ele>81</ele>
        <time>2016-07-10T08:51:16.098Z</time>
      </trkpt>
      <trkpt lat="49.27446" lon="1.11844">
        <ele>81</ele>
        <time>2016-07-10T08:51:17.098Z</time>
      </trkpt>
      <trkpt lat="49.27444" lon="1.11851">
        <ele>81</ele>
        <time>2016-07-10T08:51:18.098Z</time>
      </trkpt>
      <trkpt lat="49.27443" lon="1.11857">
        <ele>82</ele>
        <time>2016-07-10T08:51:19.098Z</time>
      </trkpt>
      <trkpt lat="49.27441" lon="1.11863">
        <ele>83</ele>
        <time>2016-07-10T08:51:20.098Z</time>
      </trkpt>
      <trkpt lat="49.27439" lon="1.1187">
        <ele>84</ele>
        <time>2016-07-10T08:51:21.098Z</time>
      </trkpt>
      <trkpt lat="49.27437" lon="1.11876">
        <ele>86</ele>
        <time>2016-07-10T08:51:22.098Z</time>
      </trkpt>
      <trkpt lat="49.27436" lon="1.11882">
        <ele>87</ele>
        <time>2016-07-10T08:51:23.098Z</time>
      </trkpt>
      <trkpt lat="49.27434" lon="1.11889">
        <ele>88</ele>
        <time>2016-07-10T08:51:24.098Z</time>
      </trkpt>
      <trkpt lat="49.27432" lon="1.11895">
        <ele>89</ele>
        <time>2016-07-10T08:51:25.098Z</time>
      </trkpt>
      <trkpt lat="49.27431" lon="1.11901">
        <ele>90</ele>
        <time>2016-07-10T08:51:26.098Z</time>
      </trkpt>
      <trkpt lat="49.27429" lon="1.11908">
        <ele>91</ele>
        <time>2016-07-10T08:51:27.098Z</time>
      </trkpt>
      <trkpt lat="49.27428" lon="1.11914">
        <ele>92</ele>
        <time>2016-07-10T08:51:28.098Z</time>
      </trkpt>
      <trkpt lat="49.27427" lon="1.11921">
        <ele>92</ele>
        <time>2016-07-10T08:51:29.098Z</time>
      </trkpt>
      <trkpt lat="49.27426" lon="1.11927">
        <ele>93</ele>
        <time>2016-07-10T08:51:30.098Z</time>
      </trkpt>
      <trkpt lat="49.27424" lon="1.11934">
        <ele>94</ele>
        <time>2016-07-10T08:51:31.098Z</time>
      </trkpt>
      <trkpt lat="49.27423" lon="1.1194">
        <ele>94</ele>
        <time>2016-07-10T08:51:32.098Z</time>
      </trkpt>
      <trkpt lat="49.27421" lon="1.11947">
        <ele>95</ele>
        <time>2016-07-10T08:51:33.098Z</time>
      </trkpt>
      <trkpt lat="49.2742" lon="1.11953">
        <ele>96</ele>
        <time>2016-07-10T08:51:34.098Z</time>
      </trkpt>
      <trkpt lat="49.27418" lon="1.11959">
        <ele>96</ele>
        <time>2016-07-10T08:51:35.098Z</time>
      </trkpt>
      <trkpt lat="49.27417" lon="1.11965">
        <ele>97</ele>
        <time>2016-07-10T08:51:36.098Z</time>
      </trkpt>
      <trkpt lat="49.27415" lon="1.11971">
        <ele>97</ele>
        <time>2016-07-10T08:51:37.098Z</time>
      </trkpt>
      <trkpt lat="49.27413" lon="1.11976">
        <ele>98</ele>
        <time>2016-07-10T08:51:38.098Z</time>
      </trkpt>
      <trkpt lat="49.27411" lon="1.11981">
        <ele>99</ele>
        <time>2016-07-10T08:51:39.098Z</time>
      </trkpt>
      <trkpt lat="49.2741" lon="1.11986">
        <ele>99</ele>
        <time>2016-07-10T08:51:40.098Z</time>
      </trkpt>
      <trkpt lat="49.27408" lon="1.11991">
        <ele>99</ele>
        <time>2016-07-10T08:51:41.098Z</time>
      </trkpt>
      <trkpt lat="49.27406" lon="1.11996">
        <ele>100</ele>
        <time>2016-07-10T08:51:42.098Z</time>
      </trkpt>
      <trkpt lat="49.27404" lon="1.12001">
        <ele>100</ele>
        <time>2016-07-10T08:51:43.098Z</time>
      </trkpt>
      <trkpt lat="49.27402" lon="1.12006">
        <ele>101</ele>
        <time>2016-07-10T08:51:44.098Z</time>
      </trkpt>
      <trkpt lat="49.274" lon="1.12011">
        <ele>101</ele>
        <time>2016-07-10T08:51:45.098Z</time>
      </trkpt>
      <trkpt lat="49.27399" lon="1.12016">
        <ele>101</ele>
        <time>2016-07-10T08:51:46.098Z</time>
      </trkpt>
      <trkpt lat="49.27397" lon="1.12021">
        <ele>101</ele>
        <time>2016-07-10T08:51:47.098Z</time>
      </trkpt>
      <trkpt lat="49.27396" lon="1.12025">
        <ele>102</ele>
        <time>2016-07-10T08:51:48.098Z</time>
      </trkpt>
      <trkpt lat="49.27394" lon="1.1203">
        <ele>102</ele>
        <time>2016-07-10T08:51:49.098Z</time>
      </trkpt>
      <trkpt lat="49.27393" lon="1.12034">
        <ele>103</ele>
        <time>2016-07-10T08:51:50.098Z</time>
      </trkpt>
      <trkpt lat="49.27391" lon="1.12038">
        <ele>103</ele>
        <time>2016-07-10T08:51:51.098Z</time>
      </trkpt>
      <trkpt lat="49.2739" lon="1.12042">
        <ele>103</ele>
        <time>2016-07-10T08:51:52.098Z</time>
      </trkpt>
      <trkpt lat="49.27389" lon="1.12047">
        <ele>104</ele>
        <time>2016-07-10T08:51:53.098Z</time>
      </trkpt>
      <trkpt lat="49.27387" lon="1.12051">
        <ele>104</ele>
        <time>2016-07-10T08:51:54.098Z</time>
      </trkpt>
      <trkpt lat="49.27386" lon="1.12055">
        <ele>104</ele>
        <time>2016-07-10T08:51:55.098Z</time>
      </trkpt>
      <trkpt lat="49.27384" lon="1.12059">
        <ele>104</ele>
        <time>2016-07-10T08:51:56.098Z</time>
      </trkpt>
      <trkpt lat="49.27383" lon="1.12063">
        <ele>104</ele>
        <time>2016-07-10T08:51:57.098Z</time>
      </trkpt>
      <trkpt lat="49.27381" lon="1.12067">
        <ele>104</ele>
        <time>2016-07-10T08:51:58.098Z</time>
      </trkpt>
      <trkpt lat="49.27379" lon="1.12071">
        <ele>105</ele>
        <time>2016-07-10T08:51:59.098Z</time>
      </trkpt>
      <trkpt lat="49.27378" lon="1.12075">
        <ele>105</ele>
        <time>2016-07-10T08:52:00.098Z</time>
      </trkpt>
      <trkpt lat="49.27376" lon="1.12079">
        <ele>105</ele>
        <time>2016-07-10T08:52:01.098Z</time>
      </trkpt>
      <trkpt lat="49.27374" lon="1.12083">
        <ele>105</ele>
        <time>2016-07-10T08:52:02.098Z</time>
      </trkpt>
      <trkpt lat="49.27373" lon="1.12087">
        <ele>105</ele>
        <time>2016-07-10T08:52:03.098Z</time>
      </trkpt>
      <trkpt lat="49.27371" lon="1.12091">
        <ele>105</ele>
        <time>2016-07-10T08:52:04.098Z</time>
      </trkpt>
      <trkpt lat="49.27369" lon="1.12095">
        <ele>106</ele>
        <time>2016-07-10T08:52:05.098Z</time>
      </trkpt>
      <trkpt lat="49.27368" lon="1.121">
        <ele>106</ele>
        <time>2016-07-10T08:52:06.098Z</time>
      </trkpt>
      <trkpt lat="49.27366" lon="1.12104">
        <ele>106</ele>
        <time>2016-07-10T08:52:07.098Z</time>
      </trkpt>
      <trkpt lat="49.27364" lon="1.12107">
        <ele>107</ele>
        <time>2016-07-10T08:52:08.098Z</time>
      </trkpt>
      <trkpt lat="49.27362" lon="1.12111">
        <ele>107</ele>
        <time>2016-07-10T08:52:09.098Z</time>
      </trkpt>
      <trkpt lat="49.2736" lon="1.12116">
        <ele>107</ele>
        <time>2016-07-10T08:52:10.098Z</time>
      </trkpt>
      <trkpt lat="49.27358" lon="1.1212">
        <ele>108</ele>
        <time>2016-07-10T08:52:11.098Z</time>
      </trkpt>
      <trkpt lat="49.27356" lon="1.12124">
        <ele>108</ele>
        <time>2016-07-10T08:52:12.098Z</time>
      </trkpt>
      <trkpt lat="49.27354" lon="1.12128">
        <ele>108</ele>
        <time>2016-07-10T08:52:13.098Z</time>
      </trkpt>
      <trkpt lat="49.27352" lon="1.12132">
        <ele>108</ele>
        <time>2016-07-10T08:52:14.098Z</time>
      </trkpt>
      <trkpt lat="49.2735" lon="1.12136">
        <ele>108</ele>
        <time>2016-07-10T08:52:15.098Z</time>
      </trkpt>
      <trkpt lat="49.27348" lon="1.1214">
        <ele>108</ele>
        <time>2016-07-10T08:52:16.098Z</time>
      </trkpt>
      <trkpt lat="49.27346" lon="1.12144">
        <ele>108</ele>
        <time>2016-07-10T08:52:17.098Z</time>
      </trkpt>
      <trkpt lat="49.27344" lon="1.12149">
        <ele>108</ele>
        <time>2016-07-10T08:52:18.098Z</time>
      </trkpt>
      <trkpt lat="49.27342" lon="1.12153">
        <ele>107</ele>
        <time>2016-07-10T08:52:19.098Z</time>
      </trkpt>
      <trkpt lat="49.2734" lon="1.12157">
        <ele>107</ele>
        <time>2016-07-10T08:52:20.098Z</time>
      </trkpt>
      <trkpt lat="49.27338" lon="1.12161">
        <ele>108</ele>
        <time>2016-07-10T08:52:21.098Z</time>
      </trkpt>
      <trkpt lat="49.27336" lon="1.12165">
        <ele>108</ele>
        <time>2016-07-10T08:52:22.098Z</time>
      </trkpt>
      <trkpt lat="49.27334" lon="1.12169">
        <ele>107</ele>
        <time>2016-07-10T08:52:23.098Z</time>
      </trkpt>
      <trkpt lat="49.27332" lon="1.12172">
        <ele>108</ele>
        <time>2016-07-10T08:52:24.098Z</time>
      </trkpt>
      <trkpt lat="49.2733" lon="1.12176">
        <ele>107</ele>
        <time>2016-07-10T08:52:25.098Z</time>
      </trkpt>
      <trkpt lat="49.27328" lon="1.12179">
        <ele>107</ele>
        <time>2016-07-10T08:52:26.098Z</time>
      </trkpt>
      <trkpt lat="49.27326" lon="1.12183">
        <ele>107</ele>
        <time>2016-07-10T08:52:27.098Z</time>
      </trkpt>
      <trkpt lat="49.27324" lon="1.12186">
        <ele>108</ele>
        <time>2016-07-10T08:52:28.098Z</time>
      </trkpt>
      <trkpt lat="49.27322" lon="1.1219">
        <ele>108</ele>
        <time>2016-07-10T08:52:29.098Z</time>
      </trkpt>
      <trkpt lat="49.2732" lon="1.12193">
        <ele>109</ele>
        <time>2016-07-10T08:52:30.098Z</time>
      </trkpt>
      <trkpt lat="49.27318" lon="1.12197">
        <ele>109</ele>
        <time>2016-07-10T08:52:31.098Z</time>
      </trkpt>
      <trkpt lat="49.27316" lon="1.122">
        <ele>109</ele>
        <time>2016-07-10T08:52:32.098Z</time>
      </trkpt>
      <trkpt lat="49.27314" lon="1.12203">
        <ele>109</ele>
        <time>2016-07-10T08:52:33.098Z</time>
      </trkpt>
      <trkpt lat="49.27312" lon="1.12207">
        <ele>109</ele>
        <time>2016-07-10T08:52:34.098Z</time>
      </trkpt>
      <trkpt lat="49.2731" lon="1.1221">
        <ele>109</ele>
        <time>2016-07-10T08:52:35.098Z</time>
      </trkpt>
      <trkpt lat="49.27308" lon="1.12213">
        <ele>109</ele>
        <time>2016-07-10T08:52:36.098Z</time>
      </trkpt>
      <trkpt lat="49.27306" lon="1.12216">
        <ele>109</ele>
        <time>2016-07-10T08:52:37.098Z</time>
      </trkpt>
      <trkpt lat="49.27305" lon="1.12218">
        <ele>109</ele>
        <time>2016-07-10T08:52:38.098Z</time>
      </trkpt>
      <trkpt lat="49.27304" lon="1.1222">
        <ele>109</ele>
        <time>2016-07-10T08:52:39.098Z</time>
      </trkpt>
      <trkpt lat="49.27303" lon="1.12222">
        <ele>110</ele>
        <time>2016-07-10T08:52:40.098Z</time>
      </trkpt>
      <trkpt lat="49.27302" lon="1.12224">
        <ele>110</ele>
        <time>2016-07-10T08:52:41.098Z</time>
      </trkpt>
      <trkpt lat="49.27301" lon="1.12227">
        <ele>110</ele>
        <time>2016-07-10T08:52:42.098Z</time>
      </trkpt>
      <trkpt lat="49.27299" lon="1.1223">
        <ele>111</ele>
        <time>2016-07-10T08:52:43.098Z</time>
      </trkpt>
      <trkpt lat="49.27297" lon="1.12234">
        <ele>111</ele>
        <time>2016-07-10T08:52:44.098Z</time>
      </trkpt>
      <trkpt lat="49.27295" lon="1.12238">
        <ele>111</ele>
        <time>2016-07-10T08:52:45.098Z</time>
      </trkpt>
      <trkpt lat="49.27293" lon="1.12242">
        <ele>111</ele>
        <time>2016-07-10T08:52:46.098Z</time>
      </trkpt>
      <trkpt lat="49.27292" lon="1.12247">
        <ele>111</ele>
        <time>2016-07-10T08:52:47.098Z</time>
      </trkpt>
      <trkpt lat="49.2729" lon="1.12252">
        <ele>111</ele>
        <time>2016-07-10T08:52:48.098Z</time>
      </trkpt>
      <trkpt lat="49.27289" lon="1.12256">
        <ele>112</ele>
        <time>2016-07-10T08:52:49.098Z</time>
      </trkpt>
      <trkpt lat="49.27287" lon="1.12261">
        <ele>112</ele>
        <time>2016-07-10T08:52:50.098Z</time>
      </trkpt>
      <trkpt lat="49.27286" lon="1.12266">
        <ele>112</ele>
        <time>2016-07-10T08:52:51.098Z</time>
      </trkpt>
      <trkpt lat="49.27285" lon="1.12271">
        <ele>112</ele>
        <time>2016-07-10T08:52:52.098Z</time>
      </trkpt>
      <trkpt lat="49.27284" lon="1.12276">
        <ele>113</ele>
        <time>2016-07-10T08:52:53.098Z</time>
      </trkpt>
      <trkpt lat="49.27283" lon="1.12281">
        <ele>113</ele>
        <time>2016-07-10T08:52:54.098Z</time>
      </trkpt>
      <trkpt lat="49.27283" lon="1.12286">
        <ele>113</ele>
        <time>2016-07-10T08:52:55.098Z</time>
      </trkpt>
      <trkpt lat="49.27282" lon="1.12291">
        <ele>113</ele>
        <time>2016-07-10T08:52:56.098Z</time>
      </trkpt>
      <trkpt lat="49.27282" lon="1.12296">
        <ele>114</ele>
        <time>2016-07-10T08:52:57.098Z</time>
      </trkpt>
      <trkpt lat="49.27281" lon="1.12301">
        <ele>114</ele>
        <time>2016-07-10T08:52:58.098Z</time>
      </trkpt>
      <trkpt lat="49.27281" lon="1.12306">
        <ele>114</ele>
        <time>2016-07-10T08:52:59.098Z</time>
      </trkpt>
      <trkpt lat="49.2728" lon="1.12311">
        <ele>114</ele>
        <time>2016-07-10T08:53:00.098Z</time>
      </trkpt>
      <trkpt lat="49.27279" lon="1.12317">
        <ele>114</ele>
        <time>2016-07-10T08:53:01.098Z</time>
      </trkpt>
      <trkpt lat="49.27278" lon="1.12322">
        <ele>115</ele>
        <time>2016-07-10T08:53:02.098Z</time>
      </trkpt>
      <trkpt lat="49.27277" lon="1.12327">
        <ele>115</ele>
        <time>2016-07-10T08:53:03.098Z</time>
      </trkpt>
      <trkpt lat="49.27277" lon="1.12332">
        <ele>115</ele>
        <time>2016-07-10T08:53:04.098Z</time>
      </trkpt>
      <trkpt lat="49.27276" lon="1.12337">
        <ele>115</ele>
        <time>2016-07-10T08:53:05.098Z</time>
      </trkpt>
      <trkpt lat="49.27275" lon="1.12342">
        <ele>115</ele>
        <time>2016-07-10T08:53:06.098Z</time>
      </trkpt>
      <trkpt lat="49.27274" lon="1.12347">
        <ele>115</ele>
        <time>2016-07-10T08:53:07.098Z</time>
      </trkpt>
      <trkpt lat="49.27273" lon="1.12351">
        <ele>115</ele>
        <time>2016-07-10T08:53:08.098Z</time>
      </trkpt>
      <trkpt lat="49.27272" lon="1.12356">
        <ele>115</ele>
        <time>2016-07-10T08:53:09.098Z</time>
      </trkpt>
      <trkpt lat="49.27271" lon="1.1236">
        <ele>116</ele>
        <time>2016-07-10T08:53:10.098Z</time>
      </trkpt>
      <trkpt lat="49.2727" lon="1.12364">
        <ele>116</ele>
        <time>2016-07-10T08:53:11.098Z</time>
      </trkpt>
      <trkpt lat="49.27269" lon="1.12368">
        <ele>116</ele>
        <time>2016-07-10T08:53:12.098Z</time>
      </trkpt>
      <trkpt lat="49.27269" lon="1.12372">
        <ele>115</ele>
        <time>2016-07-10T08:53:13.098Z</time>
      </trkpt>
      <trkpt lat="49.27269" lon="1.12375">
        <ele>116</ele>
        <time>2016-07-10T08:53:14.098Z</time>
      </trkpt>
      <trkpt lat="49.27269" lon="1.12378">
        <ele>116</ele>
        <time>2016-07-10T08:53:15.098Z</time>
      </trkpt>
      <trkpt lat="49.27269" lon="1.1238">
        <ele>115</ele>
        <time>2016-07-10T08:53:16.098Z</time>
      </trkpt>
      <trkpt lat="49.27268" lon="1.12382">
        <ele>115</ele>
        <time>2016-07-10T08:53:17.098Z</time>
      </trkpt>
      <trkpt lat="49.27267" lon="1.12385">
        <ele>115</ele>
        <time>2016-07-10T08:53:18.098Z</time>
      </trkpt>
      <trkpt lat="49.27266" lon="1.12388">
        <ele>115</ele>
        <time>2016-07-10T08:53:19.098Z</time>
      </trkpt>
      <trkpt lat="49.27265" lon="1.12392">
        <ele>115</ele>
        <time>2016-07-10T08:53:20.098Z</time>
      </trkpt>
      <trkpt lat="49.27264" lon="1.12397">
        <ele>115</ele>
        <time>2016-07-10T08:53:21.098Z</time>
      </trkpt>
      <trkpt lat="49.27263" lon="1.12402">
        <ele>115</ele>
        <time>2016-07-10T08:53:22.098Z</time>
      </trkpt>
      <trkpt lat="49.27262" lon="1.12407">
        <ele>115</ele>
        <time>2016-07-10T08:53:23.098Z</time>
      </trkpt>
      <trkpt lat="49.27261" lon="1.12413">
        <ele>115</ele>
        <time>2016-07-10T08:53:24.098Z</time>
      </trkpt>
      <trkpt lat="49.2726" lon="1.12418">
        <ele>115</ele>
        <time>2016-07-10T08:53:25.098Z</time>
      </trkpt>
      <trkpt lat="49.27258" lon="1.12423">
        <ele>115</ele>
        <time>2016-07-10T08:53:26.098Z</time>
      </trkpt>
      <trkpt lat="49.27257" lon="1.12427">
        <ele>115</ele>
        <time>2016-07-10T08:53:27.098Z</time>
      </trkpt>
      <trkpt lat="49.27256" lon="1.12432">
        <ele>115</ele>
        <time>2016-07-10T08:53:28.098Z</time>
      </trkpt>
      <trkpt lat="49.27255" lon="1.12435">
        <ele>116</ele>
        <time>2016-07-10T08:53:29.098Z</time>
      </trkpt>
      <trkpt lat="49.27254" lon="1.12439">
        <ele>116</ele>
        <time>2016-07-10T08:53:30.098Z</time>
      </trkpt>
      <trkpt lat="49.27252" lon="1.12442">
        <ele>116</ele>
        <time>2016-07-10T08:53:31.098Z</time>
      </trkpt>
      <trkpt lat="49.27251" lon="1.12446">
        <ele>116</ele>
        <time>2016-07-10T08:53:32.098Z</time>
      </trkpt>
      <trkpt lat="49.27251" lon="1.1245">
        <ele>116</ele>
        <time>2016-07-10T08:53:33.098Z</time>
      </trkpt>
      <trkpt lat="49.27251" lon="1.12453">
        <ele>116</ele>
        <time>2016-07-10T08:53:34.098Z</time>
      </trkpt>
      <trkpt lat="49.27251" lon="1.12457">
        <ele>116</ele>
        <time>2016-07-10T08:53:35.098Z</time>
      </trkpt>
      <trkpt lat="49.27251" lon="1.1246">
        <ele>114</ele>
        <time>2016-07-10T08:53:36.098Z</time>
      </trkpt>
      <trkpt lat="49.27251" lon="1.12463">
        <ele>113</ele>
        <time>2016-07-10T08:53:37.098Z</time>
      </trkpt>
      <trkpt lat="49.27249" lon="1.12465">
        <ele>112</ele>
        <time>2016-07-10T08:53:38.098Z</time>
      </trkpt>
      <trkpt lat="49.27248" lon="1.12466">
        <ele>111</ele>
        <time>2016-07-10T08:53:39.098Z</time>
      </trkpt>
      <trkpt lat="49.27247" lon="1.12466">
        <ele>110</ele>
        <time>2016-07-10T08:53:40.098Z</time>
      </trkpt>
      <trkpt lat="49.27246" lon="1.12465">
        <ele>110</ele>
        <time>2016-07-10T08:53:41.098Z</time>
      </trkpt>
      <trkpt lat="49.27246" lon="1.12464">
        <ele>110</ele>
        <time>2016-07-10T08:53:42.098Z</time>
      </trkpt>
      <trkpt lat="49.27245" lon="1.12464">
        <ele>111</ele>
        <time>2016-07-10T08:53:43.098Z</time>
      </trkpt>
      <trkpt lat="49.27245" lon="1.12464">
        <ele>111</ele>
        <time>2016-07-10T08:53:44.098Z</time>
      </trkpt>
      <trkpt lat="49.27245" lon="1.12464">
        <ele>111</ele>
        <time>2016-07-10T08:53:45.098Z</time>
      </trkpt>
      <trkpt lat="49.27245" lon="1.12464">
        <ele>111</ele>
        <time>2016-07-10T08:53:46.098Z</time>
      </trkpt>
      <trkpt lat="49.27245" lon="1.12464">
        <ele>111</ele>
        <time>2016-07-10T08:53:47.098Z</time>
      </trkpt>
      <trkpt lat="49.27245" lon="1.12464">
        <ele>111</ele>
        <time>2016-07-10T08:53:48.098Z</time>
      </trkpt>
      <trkpt lat="49.27245" lon="1.12464">
        <ele>111</ele>
        <time>2016-07-10T08:53:49.098Z</time>
      </trkpt>
      <trkpt lat="49.27246" lon="1.12464">
        <ele>111</ele>
        <time>2016-07-10T08:53:50.098Z</time>
      </trkpt>
      <trkpt lat="49.27246" lon="1.12464">
        <ele>111</ele>
        <time>2016-07-10T08:53:51.098Z</time>
      </trkpt>
      <trkpt lat="49.27245" lon="1.12463">
        <ele>112</ele>
        <time>2016-07-10T08:53:52.098Z</time>
      </trkpt>
      <trkpt lat="49.27245" lon="1.12463">
        <ele>112</ele>
        <time>2016-07-10T08:53:53.098Z</time>
      </trkpt>
      <trkpt lat="49.27245" lon="1.12463">
        <ele>112</ele>
        <time>2016-07-10T08:53:54.098Z</time>
      </trkpt>
      <trkpt lat="49.27245" lon="1.12463">
        <ele>113</ele>
        <time>2016-07-10T08:53:55.098Z</time>
      </trkpt>
      <trkpt lat="49.27245" lon="1.12463">
        <ele>113</ele>
        <time>2016-07-10T08:53:56.098Z</time>
      </trkpt>
      <trkpt lat="49.27245" lon="1.12463">
        <ele>113</ele>
        <time>2016-07-10T08:53:57.098Z</time>
      </trkpt>
      <trkpt lat="49.27245" lon="1.12463">
        <ele>113</ele>
        <time>2016-07-10T08:53:58.098Z</time>
      </trkpt>
      <trkpt lat="49.27246" lon="1.12463">
        <ele>114</ele>
        <time>2016-07-10T08:53:59.098Z</time>
      </trkpt>
      <trkpt lat="49.27246" lon="1.12463">
        <ele>114</ele>
        <time>2016-07-10T08:54:00.098Z</time>
      </trkpt>
      <trkpt lat="49.27246" lon="1.12463">
        <ele>114</ele>
        <time>2016-07-10T08:54:01.098Z</time>
      </trkpt>
      <trkpt lat="49.27246" lon="1.12463">
        <ele>114</ele>
        <time>2016-07-10T08:54:02.098Z</time>
      </trkpt>
      <trkpt lat="49.27246" lon="1.12463">
        <ele>114</ele>
        <time>2016-07-10T08:54:03.098Z</time>
      </trkpt>
      <trkpt lat="49.27246" lon="1.12463">
        <ele>115</ele>
        <time>2016-07-10T08:54:04.098Z</time>
      </trkpt>
      <trkpt lat="49.27246" lon="1.12463">
        <ele>115</ele>
        <time>2016-07-10T08:54:05.098Z</time>
      </trkpt>
      <trkpt lat="49.27246" lon="1.12463">
        <ele>115</ele>
        <time>2016-07-10T08:54:06.098Z</time>
      </trkpt>
      <trkpt lat="49.27246" lon="1.12463">
        <ele>115</ele>
        <time>2016-07-10T08:54:07.098Z</time>
      </trkpt>
      <trkpt lat="49.27246" lon="1.12463">
        <ele>115</ele>
        <time>2016-07-10T08:54:08.098Z</time>
      </trkpt>
      <trkpt lat="49.27246" lon="1.12463">
        <ele>115</ele>
        <time>2016-07-10T08:54:09.098Z</time>
      </trkpt>
      <trkpt lat="49.27246" lon="1.12463">
        <ele>116</ele>
        <time>2016-07-10T08:54:10.098Z</time>
      </trkpt>
      <trkpt lat="49.27246" lon="1.12463">
        <ele>116</ele>
        <time>2016-07-10T08:54:11.098Z</time>
      </trkpt>
      <trkpt lat="49.27246" lon="1.12463">
        <ele>116</ele>
        <time>2016-07-10T08:54:12.098Z</time>
      </trkpt>
      <trkpt lat="49.27246" lon="1.12463">
        <ele>116</ele>
        <time>2016-07-10T08:54:13.098Z</time>
      </trkpt>
      <trkpt lat="49.27246" lon="1.12463">
        <ele>116</ele>
        <time>2016-07-10T08:54:14.098Z</time>
      </trkpt>
      <trkpt lat="49.27246" lon="1.12463">
        <ele>116</ele>
        <time>2016-07-10T08:54:15.098Z</time>
      </trkpt>
      <trkpt lat="49.27246" lon="1.12463">
        <ele>116</ele>
        <time>2016-07-10T08:54:16.098Z</time>
      </trkpt>
      <trkpt lat="49.27246" lon="1.12463">
        <ele>116</ele>
        <time>2016-07-10T08:54:17.098Z</time>
      </trkpt>
      <trkpt lat="49.27246" lon="1.12463">
        <ele>116</ele>
        <time>2016-07-10T08:54:18.098Z</time>
      </trkpt>
      <trkpt lat="49.27246" lon="1.12463">
        <ele>116</ele>
        <time>2016-07-10T08:54:19.098Z</time>
      </trkpt>
      <trkpt lat="49.27246" lon="1.12462">
        <ele>116</ele>
        <time>2016-07-10T08:54:20.098Z</time>
      </trkpt>
      <trkpt lat="49.27246" lon="1.12462">
        <ele>116</ele>
        <time>2016-07-10T08:54:21.098Z</time>
      </trkpt>
      <trkpt lat="49.27246" lon="1.12463">
        <ele>116</ele>
        <time>2016-07-10T08:54:22.098Z</time>
      </trkpt>
      <trkpt lat="49.27246" lon="1.12463">
        <ele>116</ele>
        <time>2016-07-10T08:54:23.098Z</time>
      </trkpt>
      <trkpt lat="49.27246" lon="1.12462">
        <ele>116</ele>
        <time>2016-07-10T08:54:24.098Z</time>
      </trkpt>
      <trkpt lat="49.27246" lon="1.12462">
        <ele>116</ele>
        <time>2016-07-10T08:54:25.098Z</time>
      </trkpt>
      <trkpt lat="49.27246" lon="1.12462">
        <ele>116</ele>
        <time>2016-07-10T08:54:26.098Z</time>
      </trkpt>
      <trkpt lat="49.27246" lon="1.12463">
        <ele>115</ele>
        <time>2016-07-10T08:54:27.098Z</time>
      </trkpt>
      <trkpt lat="49.27246" lon="1.12463">
        <ele>116</ele>
        <time>2016-07-10T08:54:28.098Z</time>
      </trkpt>
      <trkpt lat="49.27246" lon="1.12463">
        <ele>116</ele>
        <time>2016-07-10T08:54:29.098Z</time>
      </trkpt>
      <trkpt lat="49.27246" lon="1.12463">
        <ele>116</ele>
        <time>2016-07-10T08:54:30.098Z</time>
      </trkpt>
      <trkpt lat="49.27246" lon="1.12463">
        <ele>116</ele>
        <time>2016-07-10T08:54:31.098Z</time>
      </trkpt>
      <trkpt lat="49.27246" lon="1.12463">
        <ele>116</ele>
        <time>2016-07-10T08:54:32.098Z</time>
      </trkpt>
      <trkpt lat="49.27246" lon="1.12463">
        <ele>116</ele>
        <time>2016-07-10T08:54:33.098Z</time>
      </trkpt>
      <trkpt lat="49.27246" lon="1.12463">
        <ele>116</ele>
        <time>2016-07-10T08:54:34.098Z</time>
      </trkpt>
      <trkpt lat="49.27246" lon="1.12462">
        <ele>117</ele>
        <time>2016-07-10T08:54:35.098Z</time>
      </trkpt>
      <trkpt lat="49.27246" lon="1.12462">
        <ele>117</ele>
        <time>2016-07-10T08:54:36.098Z</time>
      </trkpt>
      <trkpt lat="49.27246" lon="1.12462">
        <ele>117</ele>
        <time>2016-07-10T08:54:37.098Z</time>
      </trkpt>
      <trkpt lat="49.27246" lon="1.12462">
        <ele>118</ele>
        <time>2016-07-10T08:54:38.098Z</time>
      </trkpt>
      <trkpt lat="49.27246" lon="1.12462">
        <ele>118</ele>
        <time>2016-07-10T08:54:39.098Z</time>
      </trkpt>
      <trkpt lat="49.27245" lon="1.12462">
        <ele>118</ele>
        <time>2016-07-10T08:54:40.098Z</time>
      </trkpt>
      <trkpt lat="49.27245" lon="1.12462">
        <ele>118</ele>
        <time>2016-07-10T08:54:41.098Z</time>
      </trkpt>
      <trkpt lat="49.27245" lon="1.12462">
        <ele>119</ele>
        <time>2016-07-10T08:54:42.098Z</time>
      </trkpt>
      <trkpt lat="49.27245" lon="1.12462">
        <ele>119</ele>
        <time>2016-07-10T08:54:43.098Z</time>
      </trkpt>
      <trkpt lat="49.27245" lon="1.12462">
        <ele>119</ele>
        <time>2016-07-10T08:54:44.098Z</time>
      </trkpt>
      <trkpt lat="49.27245" lon="1.12462">
        <ele>118</ele>
        <time>2016-07-10T08:54:45.098Z</time>
      </trkpt>
      <trkpt lat="49.27245" lon="1.12462">
        <ele>118</ele>
        <time>2016-07-10T08:54:46.098Z</time>
      </trkpt>
      <trkpt lat="49.27245" lon="1.12462">
        <ele>118</ele>
        <time>2016-07-10T08:54:47.098Z</time>
      </trkpt>
      <trkpt lat="49.27246" lon="1.12462">
        <ele>118</ele>
        <time>2016-07-10T08:54:48.098Z</time>
      </trkpt>
      <trkpt lat="49.27246" lon="1.12462">
        <ele>118</ele>
        <time>2016-07-10T08:54:49.098Z</time>
      </trkpt>
      <trkpt lat="49.27246" lon="1.12462">
        <ele>118</ele>
        <time>2016-07-10T08:54:50.098Z</time>
      </trkpt>
      <trkpt lat="49.27246" lon="1.12462">
        <ele>118</ele>
        <time>2016-07-10T08:54:51.098Z</time>
      </trkpt>
      <trkpt lat="49.27246" lon="1.12462">
        <ele>118</ele>
        <time>2016-07-10T08:54:52.098Z</time>
      </trkpt>
      <trkpt lat="49.27246" lon="1.12462">
        <ele>118</ele>
        <time>2016-07-10T08:54:53.098Z</time>
      </trkpt>
      <trkpt lat="49.27246" lon="1.12462">
        <ele>119</ele>
        <time>2016-07-10T08:54:54.098Z</time>
      </trkpt>
      <trkpt lat="49.27246" lon="1.12462">
        <ele>119</ele>
        <time>2016-07-10T08:54:55.098Z</time>
      </trkpt>
      <trkpt lat="49.27246" lon="1.12462">
        <ele>119</ele>
        <time>2016-07-10T08:54:56.098Z</time>
      </trkpt>
      <trkpt lat="49.27246" lon="1.12462">
        <ele>119</ele>
        <time>2016-07-10T08:54:57.098Z</time>
      </trkpt>
      <trkpt lat="49.27246" lon="1.12462">
        <ele>119</ele>
        <time>2016-07-10T08:54:58.098Z</time>
      </trkpt>
      <trkpt lat="49.27246" lon="1.12462">
        <ele>119</ele>
        <time>2016-07-10T08:54:59.098Z</time>
      </trkpt>
      <trkpt lat="49.27246" lon="1.12462">
        <ele>119</ele>
        <time>2016-07-10T08:55:00.098Z</time>
      </trkpt>
      <trkpt lat="49.27246" lon="1.12462">
        <ele>118</ele>
        <time>2016-07-10T08:55:01.098Z</time>
      </trkpt>
      <trkpt lat="49.27246" lon="1.12462">
        <ele>117</ele>
        <time>2016-07-10T08:55:02.098Z</time>
      </trkpt>
      <trkpt lat="49.27246" lon="1.12462">
        <ele>118</ele>
        <time>2016-07-10T08:55:03.098Z</time>
      </trkpt>
      <trkpt lat="49.27246" lon="1.12462">
        <ele>118</ele>
        <time>2016-07-10T08:55:04.098Z</time>
      </trkpt>
      <trkpt lat="49.27246" lon="1.12462">
        <ele>118</ele>
        <time>2016-07-10T08:55:05.098Z</time>
      </trkpt>
      <trkpt lat="49.27246" lon="1.12462">
        <ele>118</ele>
        <time>2016-07-10T08:55:06.098Z</time>
      </trkpt>
      <trkpt lat="49.27246" lon="1.12462">
        <ele>118</ele>
        <time>2016-07-10T08:55:07.098Z</time>
      </trkpt>
      <trkpt lat="49.27246" lon="1.12462">
        <ele>118</ele>
        <time>2016-07-10T08:55:08.098Z</time>
      </trkpt>
      <trkpt lat="49.27246" lon="1.12462">
        <ele>118</ele>
        <time>2016-07-10T08:55:09.098Z</time>
      </trkpt>
      <trkpt lat="49.27246" lon="1.12462">
        <ele>118</ele>
        <time>2016-07-10T08:55:10.098Z</time>
      </trkpt>
      <trkpt lat="49.27246" lon="1.12462">
        <ele>118</ele>
        <time>2016-07-10T08:55:11.098Z</time>
      </trkpt>
      <trkpt lat="49.27246" lon="1.12462">
        <ele>118</ele>
        <time>2016-07-10T08:55:12.098Z</time>
      </trkpt>
      <trkpt lat="49.27246" lon="1.12462">
        <ele>118</ele>
        <time>2016-07-10T08:55:13.098Z</time>
      </trkpt>
      <trkpt lat="49.27246" lon="1.12462">
        <ele>118</ele>
        <time>2016-07-10T08:55:14.098Z</time>
      </trkpt>
      <trkpt lat="49.27246" lon="1.12462">
        <ele>118</ele>
        <time>2016-07-10T08:55:15.098Z</time>
      </trkpt>
      <trkpt lat="49.27246" lon="1.12462">
        <ele>118</ele>
        <time>2016-07-10T08:55:16.098Z</time>
      </trkpt>
      <trkpt lat="49.27246" lon="1.12462">
        <ele>117</ele>
        <time>2016-07-10T08:55:17.098Z</time>
      </trkpt>
      <trkpt lat="49.27246" lon="1.12462">
        <ele>117</ele>
        <time>2016-07-10T08:55:18.098Z</time>
      </trkpt>
      <trkpt lat="49.27246" lon="1.12462">
        <ele>117</ele>
        <time>2016-07-10T08:55:19.098Z</time>
      </trkpt>
      <trkpt lat="49.27246" lon="1.12462">
        <ele>117</ele>
        <time>2016-07-10T08:55:20.098Z</time>
      </trkpt>
      <trkpt lat="49.27246" lon="1.12462">
        <ele>117</ele>
        <time>2016-07-10T08:55:21.098Z</time>
      </trkpt>
      <trkpt lat="49.27246" lon="1.12462">
        <ele>117</ele>
        <time>2016-07-10T08:55:22.098Z</time>
      </trkpt>
      <trkpt lat="49.27246" lon="1.12462">
        <ele>117</ele>
        <time>2016-07-10T08:55:23.098Z</time>
      </trkpt>
      <trkpt lat="49.27246" lon="1.12462">
        <ele>117</ele>
        <time>2016-07-10T08:55:24.098Z</time>
      </trkpt>
      <trkpt lat="49.27246" lon="1.12462">
        <ele>117</ele>
        <time>2016-07-10T08:55:25.098Z</time>
      </trkpt>
      <trkpt lat="49.27246" lon="1.12462">
        <ele>117</ele>
        <time>2016-07-10T08:55:26.098Z</time>
      </trkpt>
      <trkpt lat="49.27246" lon="1.12462">
        <ele>117</ele>
        <time>2016-07-10T08:55:27.098Z</time>
      </trkpt>
      <trkpt lat="49.27246" lon="1.12462">
        <ele>117</ele>
        <time>2016-07-10T08:55:28.098Z</time>
      </trkpt>
      <trkpt lat="49.27246" lon="1.12462">
        <ele>117</ele>
        <time>2016-07-10T08:55:29.098Z</time>
      </trkpt>
      <trkpt lat="49.27246" lon="1.12462">
        <ele>116</ele>
        <time>2016-07-10T08:55:30.098Z</time>
      </trkpt>
      <trkpt lat="49.27246" lon="1.12462">
        <ele>116</ele>
        <time>2016-07-10T08:55:31.098Z</time>
      </trkpt>
      <trkpt lat="49.27246" lon="1.12462">
        <ele>117</ele>
        <time>2016-07-10T08:55:32.098Z</time>
      </trkpt>
      <trkpt lat="49.27246" lon="1.12462">
        <ele>116</ele>
        <time>2016-07-10T08:55:33.098Z</time>
      </trkpt>
      <trkpt lat="49.27246" lon="1.12462">
        <ele>116</ele>
        <time>2016-07-10T08:55:34.098Z</time>
      </trkpt>
      <trkpt lat="49.27246" lon="1.12462">
        <ele>116</ele>
        <time>2016-07-10T08:55:35.098Z</time>
      </trkpt>
      <trkpt lat="49.27246" lon="1.12462">
        <ele>116</ele>
        <time>2016-07-10T08:55:36.098Z</time>
      </trkpt>
      <trkpt lat="49.27246" lon="1.12463">
        <ele>116</ele>
        <time>2016-07-10T08:55:37.098Z</time>
      </trkpt>
      <trkpt lat="49.27246" lon="1.12463">
        <ele>116</ele>
        <time>2016-07-10T08:55:38.098Z</time>
      </trkpt>
      <trkpt lat="49.27246" lon="1.12463">
        <ele>116</ele>
        <time>2016-07-10T08:55:39.098Z</time>
      </trkpt>
      <trkpt lat="49.27246" lon="1.12463">
        <ele>116</ele>
        <time>2016-07-10T08:55:40.098Z</time>
      </trkpt>
      <trkpt lat="49.27246" lon="1.12462">
        <ele>116</ele>
        <time>2016-07-10T08:55:41.098Z</time>
      </trkpt>
      <trkpt lat="49.27246" lon="1.12462">
        <ele>117</ele>
        <time>2016-07-10T08:55:42.098Z</time>
      </trkpt>
      <trkpt lat="49.27246" lon="1.12462">
        <ele>117</ele>
        <time>2016-07-10T08:55:43.098Z</time>
      </trkpt>
      <trkpt lat="49.27246" lon="1.12462">
        <ele>117</ele>
        <time>2016-07-10T08:55:44.098Z</time>
      </trkpt>
      <trkpt lat="49.27246" lon="1.12462">
        <ele>117</ele>
        <time>2016-07-10T08:55:45.098Z</time>
      </trkpt>
      <trkpt lat="49.27246" lon="1.12463">
        <ele>117</ele>
        <time>2016-07-10T08:55:46.098Z</time>
      </trkpt>
      <trkpt lat="49.27246" lon="1.12463">
        <ele>116</ele>
        <time>2016-07-10T08:55:47.098Z</time>
      </trkpt>
      <trkpt lat="49.27246" lon="1.12463">
        <ele>116</ele>
        <time>2016-07-10T08:55:48.098Z</time>
      </trkpt>
      <trkpt lat="49.27246" lon="1.12463">
        <ele>116</ele>
        <time>2016-07-10T08:55:49.098Z</time>
      </trkpt>
      <trkpt lat="49.27246" lon="1.12463">
        <ele>116</ele>
        <time>2016-07-10T08:55:50.098Z</time>
      </trkpt>
      <trkpt lat="49.27247" lon="1.12464">
        <ele>116</ele>
        <time>2016-07-10T08:55:51.098Z</time>
      </trkpt>
      <trkpt lat="49.27247" lon="1.12464">
        <ele>116</ele>
        <time>2016-07-10T08:55:52.098Z</time>
      </trkpt>
      <trkpt lat="49.27247" lon="1.12464">
        <ele>116</ele>
        <time>2016-07-10T08:55:53.098Z</time>
      </trkpt>
      <trkpt lat="49.27247" lon="1.12464">
        <ele>116</ele>
        <time>2016-07-10T08:55:54.098Z</time>
      </trkpt>
      <trkpt lat="49.27247" lon="1.12464">
        <ele>116</ele>
        <time>2016-07-10T08:55:55.098Z</time>
      </trkpt>
      <trkpt lat="49.27247" lon="1.12464">
        <ele>116</ele>
        <time>2016-07-10T08:55:56.098Z</time>
      </trkpt>
      <trkpt lat="49.27247" lon="1.12464">
        <ele>116</ele>
        <time>2016-07-10T08:55:57.098Z</time>
      </trkpt>
      <trkpt lat="49.27247" lon="1.12464">
        <ele>116</ele>
        <time>2016-07-10T08:55:58.098Z</time>
      </trkpt>
      <trkpt lat="49.27247" lon="1.12464">
        <ele>116</ele>
        <time>2016-07-10T08:55:59.098Z</time>
      </trkpt>
      <trkpt lat="49.27247" lon="1.12464">
        <ele>116</ele>
        <time>2016-07-10T08:56:00.098Z</time>
      </trkpt>
      <trkpt lat="49.27247" lon="1.12464">
        <ele>116</ele>
        <time>2016-07-10T08:56:01.098Z</time>
      </trkpt>
      <trkpt lat="49.27247" lon="1.12464">
        <ele>116</ele>
        <time>2016-07-10T08:56:02.098Z</time>
      </trkpt>
      <trkpt lat="49.27247" lon="1.12464">
        <ele>116</ele>
        <time>2016-07-10T08:56:03.098Z</time>
      </trkpt>
      <trkpt lat="49.27247" lon="1.12464">
        <ele>116</ele>
        <time>2016-07-10T08:56:04.098Z</time>
      </trkpt>
      <trkpt lat="49.27247" lon="1.12464">
        <ele>117</ele>
        <time>2016-07-10T08:56:05.098Z</time>
      </trkpt>
      <trkpt lat="49.27247" lon="1.12464">
        <ele>117</ele>
        <time>2016-07-10T08:56:06.098Z</time>
      </trkpt>
      <trkpt lat="49.27247" lon="1.12464">
        <ele>116</ele>
        <time>2016-07-10T08:56:07.098Z</time>
      </trkpt>
      <trkpt lat="49.27247" lon="1.12464">
        <ele>116</ele>
        <time>2016-07-10T08:56:08.098Z</time>
      </trkpt>
      <trkpt lat="49.27247" lon="1.12464">
        <ele>117</ele>
        <time>2016-07-10T08:56:09.098Z</time>
      </trkpt>
      <trkpt lat="49.27247" lon="1.12464">
        <ele>117</ele>
        <time>2016-07-10T08:56:10.098Z</time>
      </trkpt>
      <trkpt lat="49.27247" lon="1.12464">
        <ele>117</ele>
        <time>2016-07-10T08:56:11.098Z</time>
      </trkpt>
      <trkpt lat="49.27247" lon="1.12464">
        <ele>117</ele>
        <time>2016-07-10T08:56:12.098Z</time>
      </trkpt>
      <trkpt lat="49.27247" lon="1.12464">
        <ele>117</ele>
        <time>2016-07-10T08:56:13.098Z</time>
      </trkpt>
      <trkpt lat="49.27247" lon="1.12464">
        <ele>117</ele>
        <time>2016-07-10T08:56:14.098Z</time>
      </trkpt>
      <trkpt lat="49.27247" lon="1.12463">
        <ele>116</ele>
        <time>2016-07-10T08:56:15.098Z</time>
      </trkpt>
      <trkpt lat="49.27246" lon="1.12463">
        <ele>116</ele>
        <time>2016-07-10T08:56:16.098Z</time>
      </trkpt>
      <trkpt lat="49.27246" lon="1.12463">
        <ele>116</ele>
        <time>2016-07-10T08:56:17.098Z</time>
      </trkpt>
      <trkpt lat="49.27246" lon="1.12463">
        <ele>116</ele>
        <time>2016-07-10T08:56:18.098Z</time>
      </trkpt>
      <trkpt lat="49.27246" lon="1.12463">
        <ele>115</ele>
        <time>2016-07-10T08:56:19.098Z</time>
      </trkpt>
      <trkpt lat="49.27246" lon="1.12462">
        <ele>115</ele>
        <time>2016-07-10T08:56:20.098Z</time>
      </trkpt>
      <trkpt lat="49.27246" lon="1.12462">
        <ele>115</ele>
        <time>2016-07-10T08:56:21.098Z</time>
      </trkpt>
      <trkpt lat="49.27246" lon="1.12462">
        <ele>115</ele>
        <time>2016-07-10T08:56:22.098Z</time>
      </trkpt>
      <trkpt lat="49.27246" lon="1.12462">
        <ele>114</ele>
        <time>2016-07-10T08:56:23.098Z</time>
      </trkpt>
      <trkpt lat="49.27246" lon="1.12462">
        <ele>114</ele>
        <time>2016-07-10T08:56:24.098Z</time>
      </trkpt>
      <trkpt lat="49.27246" lon="1.12462">
        <ele>114</ele>
        <time>2016-07-10T08:56:25.098Z</time>
      </trkpt>
      <trkpt lat="49.27246" lon="1.12462">
        <ele>114</ele>
        <time>2016-07-10T08:56:26.098Z</time>
      </trkpt>
      <trkpt lat="49.27246" lon="1.12462">
        <ele>113</ele>
        <time>2016-07-10T08:56:27.098Z</time>
      </trkpt>
      <trkpt lat="49.27246" lon="1.12462">
        <ele>113</ele>
        <time>2016-07-10T08:56:28.098Z</time>
      </trkpt>
      <trkpt lat="49.27246" lon="1.12462">
        <ele>113</ele>
        <time>2016-07-10T08:56:29.098Z</time>
      </trkpt>
      <trkpt lat="49.27246" lon="1.12462">
        <ele>113</ele>
        <time>2016-07-10T08:56:30.098Z</time>
      </trkpt>
      <trkpt lat="49.27246" lon="1.12462">
        <ele>113</ele>
        <time>2016-07-10T08:56:31.098Z</time>
      </trkpt>
      <trkpt lat="49.27246" lon="1.12462">
        <ele>113</ele>
        <time>2016-07-10T08:56:32.098Z</time>
      </trkpt>
      <trkpt lat="49.27245" lon="1.12462">
        <ele>113</ele>
        <time>2016-07-10T08:56:33.098Z</time>
      </trkpt>
      <trkpt lat="49.27245" lon="1.12462">
        <ele>113</ele>
        <time>2016-07-10T08:56:34.098Z</time>
      </trkpt>
      <trkpt lat="49.27246" lon="1.12462">
        <ele>113</ele>
        <time>2016-07-10T08:56:35.098Z</time>
      </trkpt>
      <trkpt lat="49.27246" lon="1.12462">
        <ele>113</ele>
        <time>2016-07-10T08:56:36.098Z</time>
      </trkpt>
      <trkpt lat="49.27246" lon="1.12462">
        <ele>113</ele>
        <time>2016-07-10T08:56:37.098Z</time>
      </trkpt>
      <trkpt lat="49.27246" lon="1.12462">
        <ele>113</ele>
        <time>2016-07-10T08:56:38.098Z</time>
      </trkpt>
      <trkpt lat="49.27246" lon="1.12462">
        <ele>113</ele>
        <time>2016-07-10T08:56:39.098Z</time>
      </trkpt>
      <trkpt lat="49.27246" lon="1.12462">
        <ele>113</ele>
        <time>2016-07-10T08:56:40.098Z</time>
      </trkpt>
      <trkpt lat="49.27245" lon="1.12462">
        <ele>114</ele>
        <time>2016-07-10T08:56:41.098Z</time>
      </trkpt>
      <trkpt lat="49.27245" lon="1.12462">
        <ele>114</ele>
        <time>2016-07-10T08:56:42.098Z</time>
      </trkpt>
      <trkpt lat="49.27245" lon="1.12462">
        <ele>114</ele>
        <time>2016-07-10T08:56:43.098Z</time>
      </trkpt>
      <trkpt lat="49.27245" lon="1.12462">
        <ele>114</ele>
        <time>2016-07-10T08:56:44.098Z</time>
      </trkpt>
      <trkpt lat="49.27245" lon="1.12462">
        <ele>114</ele>
        <time>2016-07-10T08:56:45.098Z</time>
      </trkpt>
      <trkpt lat="49.27245" lon="1.12462">
        <ele>115</ele>
        <time>2016-07-10T08:56:46.098Z</time>
      </trkpt>
      <trkpt lat="49.27245" lon="1.12462">
        <ele>115</ele>
        <time>2016-07-10T08:56:47.098Z</time>
      </trkpt>
      <trkpt lat="49.27245" lon="1.12462">
        <ele>115</ele>
        <time>2016-07-10T08:56:48.098Z</time>
      </trkpt>
      <trkpt lat="49.27245" lon="1.12462">
        <ele>115</ele>
        <time>2016-07-10T08:56:49.098Z</time>
      </trkpt>
      <trkpt lat="49.27245" lon="1.12462">
        <ele>116</ele>
        <time>2016-07-10T08:56:50.098Z</time>
      </trkpt>
      <trkpt lat="49.27245" lon="1.12462">
        <ele>116</ele>
        <time>2016-07-10T08:56:51.098Z</time>
      </trkpt>
      <trkpt lat="49.27245" lon="1.12462">
        <ele>116</ele>
        <time>2016-07-10T08:56:52.098Z</time>
      </trkpt>
      <trkpt lat="49.27245" lon="1.12462">
        <ele>117</ele>
        <time>2016-07-10T08:56:53.098Z</time>
      </trkpt>
      <trkpt lat="49.27245" lon="1.12462">
        <ele>117</ele>
        <time>2016-07-10T08:56:54.098Z</time>
      </trkpt>
      <trkpt lat="49.27245" lon="1.12462">
        <ele>117</ele>
        <time>2016-07-10T08:56:55.098Z</time>
      </trkpt>
      <trkpt lat="49.27245" lon="1.12462">
        <ele>117</ele>
        <time>2016-07-10T08:56:56.098Z</time>
      </trkpt>
      <trkpt lat="49.27245" lon="1.12462">
        <ele>117</ele>
        <time>2016-07-10T08:56:57.098Z</time>
      </trkpt>
      <trkpt lat="49.27245" lon="1.12462">
        <ele>117</ele>
        <time>2016-07-10T08:56:58.098Z</time>
      </trkpt>
      <trkpt lat="49.27245" lon="1.12462">
        <ele>117</ele>
        <time>2016-07-10T08:56:59.098Z</time>
      </trkpt>
      <trkpt lat="49.27245" lon="1.12462">
        <ele>117</ele>
        <time>2016-07-10T08:57:00.098Z</time>
      </trkpt>
      <trkpt lat="49.27245" lon="1.12462">
        <ele>117</ele>
        <time>2016-07-10T08:57:01.098Z</time>
      </trkpt>
      <trkpt lat="49.27244" lon="1.12462">
        <ele>117</ele>
        <time>2016-07-10T08:57:02.098Z</time>
      </trkpt>
      <trkpt lat="49.27244" lon="1.12462">
        <ele>117</ele>
        <time>2016-07-10T08:57:03.098Z</time>
      </trkpt>
      <trkpt lat="49.27244" lon="1.12462">
        <ele>117</ele>
        <time>2016-07-10T08:57:04.098Z</time>
      </trkpt>
      <trkpt lat="49.27244" lon="1.12462">
        <ele>117</ele>
        <time>2016-07-10T08:57:05.098Z</time>
      </trkpt>
      <trkpt lat="49.27244" lon="1.12462">
        <ele>117</ele>
        <time>2016-07-10T08:57:06.098Z</time>
      </trkpt>
      <trkpt lat="49.27244" lon="1.12462">
        <ele>117</ele>
        <time>2016-07-10T08:57:07.098Z</time>
      </trkpt>
      <trkpt lat="49.27244" lon="1.12462">
        <ele>117</ele>
        <time>2016-07-10T08:57:08.098Z</time>
      </trkpt>
      <trkpt lat="49.27244" lon="1.12462">
        <ele>116</ele>
        <time>2016-07-10T08:57:09.098Z</time>
      </trkpt>
      <trkpt lat="49.27244" lon="1.12462">
        <ele>116</ele>
        <time>2016-07-10T08:57:10.098Z</time>
      </trkpt>
      <trkpt lat="49.27244" lon="1.12462">
        <ele>116</ele>
        <time>2016-07-10T08:57:11.098Z</time>
      </trkpt>
      <trkpt lat="49.27244" lon="1.12462">
        <ele>117</ele>
        <time>2016-07-10T08:57:12.098Z</time>
      </trkpt>
      <trkpt lat="49.27244" lon="1.12461">
        <ele>117</ele>
        <time>2016-07-10T08:57:13.098Z</time>
      </trkpt>
      <trkpt lat="49.27244" lon="1.12461">
        <ele>117</ele>
        <time>2016-07-10T08:57:14.098Z</time>
      </trkpt>
      <trkpt lat="49.27244" lon="1.12461">
        <ele>116</ele>
        <time>2016-07-10T08:57:15.098Z</time>
      </trkpt>
      <trkpt lat="49.27244" lon="1.12461">
        <ele>116</ele>
        <time>2016-07-10T08:57:16.098Z</time>
      </trkpt>
      <trkpt lat="49.27244" lon="1.12461">
        <ele>117</ele>
        <time>2016-07-10T08:57:17.098Z</time>
      </trkpt>
      <trkpt lat="49.27244" lon="1.12461">
        <ele>117</ele>
        <time>2016-07-10T08:57:18.098Z</time>
      </trkpt>
      <trkpt lat="49.27244" lon="1.12461">
        <ele>117</ele>
        <time>2016-07-10T08:57:19.098Z</time>
      </trkpt>
      <trkpt lat="49.27244" lon="1.12461">
        <ele>117</ele>
        <time>2016-07-10T08:57:20.098Z</time>
      </trkpt>
      <trkpt lat="49.27244" lon="1.12461">
        <ele>117</ele>
        <time>2016-07-10T08:57:21.098Z</time>
      </trkpt>
      <trkpt lat="49.27244" lon="1.12461">
        <ele>117</ele>
        <time>2016-07-10T08:57:22.098Z</time>
      </trkpt>
      <trkpt lat="49.27244" lon="1.12461">
        <ele>117</ele>
        <time>2016-07-10T08:57:23.098Z</time>
      </trkpt>
      <trkpt lat="49.27244" lon="1.12461">
        <ele>117</ele>
        <time>2016-07-10T08:57:24.098Z</time>
      </trkpt>
      <trkpt lat="49.27244" lon="1.12461">
        <ele>117</ele>
        <time>2016-07-10T08:57:25.098Z</time>
      </trkpt>
      <trkpt lat="49.27244" lon="1.12461">
        <ele>117</ele>
        <time>2016-07-10T08:57:26.098Z</time>
      </trkpt>
      <trkpt lat="49.27244" lon="1.12461">
        <ele>117</ele>
        <time>2016-07-10T08:57:27.098Z</time>
      </trkpt>
      <trkpt lat="49.27244" lon="1.12461">
        <ele>117</ele>
        <time>2016-07-10T08:57:28.098Z</time>
      </trkpt>
      <trkpt lat="49.27244" lon="1.12461">
        <ele>117</ele>
        <time>2016-07-10T08:57:29.098Z</time>
      </trkpt>
      <trkpt lat="49.27245" lon="1.12461">
        <ele>117</ele>
        <time>2016-07-10T08:57:30.098Z</time>
      </trkpt>
      <trkpt lat="49.27245" lon="1.12461">
        <ele>117</ele>
        <time>2016-07-10T08:57:31.098Z</time>
      </trkpt>
      <trkpt lat="49.27245" lon="1.12461">
        <ele>116</ele>
        <time>2016-07-10T08:57:32.098Z</time>
      </trkpt>
      <trkpt lat="49.27245" lon="1.12461">
        <ele>116</ele>
        <time>2016-07-10T08:57:33.098Z</time>
      </trkpt>
      <trkpt lat="49.27245" lon="1.12461">
        <ele>116</ele>
        <time>2016-07-10T08:57:34.098Z</time>
      </trkpt>
      <trkpt lat="49.27245" lon="1.12461">
        <ele>115</ele>
        <time>2016-07-10T08:57:35.098Z</time>
      </trkpt>
      <trkpt lat="49.27245" lon="1.12461">
        <ele>115</ele>
        <time>2016-07-10T08:57:36.098Z</time>
      </trkpt>
      <trkpt lat="49.27245" lon="1.12461">
        <ele>115</ele>
        <time>2016-07-10T08:57:37.098Z</time>
      </trkpt>
      <trkpt lat="49.27245" lon="1.12461">
        <ele>115</ele>
        <time>2016-07-10T08:57:38.098Z</time>
      </trkpt>
      <trkpt lat="49.27245" lon="1.12461">
        <ele>115</ele>
        <time>2016-07-10T08:57:39.098Z</time>
      </trkpt>
      <trkpt lat="49.27246" lon="1.12461">
        <ele>115</ele>
        <time>2016-07-10T08:57:40.098Z</time>
      </trkpt>
      <trkpt lat="49.27246" lon="1.12461">
        <ele>115</ele>
        <time>2016-07-10T08:57:41.098Z</time>
      </trkpt>
      <trkpt lat="49.27246" lon="1.12461">
        <ele>115</ele>
        <time>2016-07-10T08:57:42.098Z</time>
      </trkpt>
      <trkpt lat="49.27245" lon="1.12461">
        <ele>115</ele>
        <time>2016-07-10T08:57:43.098Z</time>
      </trkpt>
      <trkpt lat="49.27245" lon="1.12461">
        <ele>115</ele>
        <time>2016-07-10T08:57:44.098Z</time>
      </trkpt>
      <trkpt lat="49.27245" lon="1.12461">
        <ele>115</ele>
        <time>2016-07-10T08:57:45.098Z</time>
      </trkpt>
      <trkpt lat="49.27245" lon="1.12461">
        <ele>115</ele>
        <time>2016-07-10T08:57:46.098Z</time>
      </trkpt>
      <trkpt lat="49.27245" lon="1.12461">
        <ele>115</ele>
        <time>2016-07-10T08:57:47.098Z</time>
      </trkpt>
      <trkpt lat="49.27245" lon="1.12461">
        <ele>115</ele>
        <time>2016-07-10T08:57:48.098Z</time>
      </trkpt>
      <trkpt lat="49.27245" lon="1.12461">
        <ele>115</ele>
        <time>2016-07-10T08:57:49.098Z</time>
      </trkpt>
      <trkpt lat="49.27245" lon="1.12461">
        <ele>115</ele>
        <time>2016-07-10T08:57:50.098Z</time>
      </trkpt>
      <trkpt lat="49.27245" lon="1.12461">
        <ele>115</ele>
        <time>2016-07-10T08:57:51.098Z</time>
      </trkpt>
      <trkpt lat="49.27245" lon="1.12461">
        <ele>115</ele>
        <time>2016-07-10T08:57:52.098Z</time>
      </trkpt>
      <trkpt lat="49.27245" lon="1.12461">
        <ele>115</ele>
        <time>2016-07-10T08:57:53.098Z</time>
      </trkpt>
      <trkpt lat="49.27245" lon="1.12461">
        <ele>115</ele>
        <time>2016-07-10T08:57:54.098Z</time>
      </trkpt>
      <trkpt lat="49.27245" lon="1.12462">
        <ele>115</ele>
        <time>2016-07-10T08:57:55.098Z</time>
      </trkpt>
      <trkpt lat="49.27245" lon="1.12461">
        <ele>116</ele>
        <time>2016-07-10T08:57:56.098Z</time>
      </trkpt>
      <trkpt lat="49.27245" lon="1.12462">
        <ele>116</ele>
        <time>2016-07-10T08:57:57.098Z</time>
      </trkpt>
      <trkpt lat="49.27245" lon="1.12462">
        <ele>116</ele>
        <time>2016-07-10T08:57:58.098Z</time>
      </trkpt>
      <trkpt lat="49.27245" lon="1.12462">
        <ele>116</ele>
        <time>2016-07-10T08:57:59.098Z</time>
      </trkpt>
      <trkpt lat="49.27245" lon="1.12462">
        <ele>116</ele>
        <time>2016-07-10T08:58:00.098Z</time>
      </trkpt>
      <trkpt lat="49.27245" lon="1.12462">
        <ele>116</ele>
        <time>2016-07-10T08:58:01.098Z</time>
      </trkpt>
      <trkpt lat="49.27245" lon="1.12462">
        <ele>116</ele>
        <time>2016-07-10T08:58:02.098Z</time>
      </trkpt>
      <trkpt lat="49.27245" lon="1.12462">
        <ele>117</ele>
        <time>2016-07-10T08:58:03.098Z</time>
      </trkpt>
      <trkpt lat="49.27245" lon="1.12462">
        <ele>116</ele>
        <time>2016-07-10T08:58:04.098Z</time>
      </trkpt>
      <trkpt lat="49.27245" lon="1.12462">
        <ele>116</ele>
        <time>2016-07-10T08:58:05.098Z</time>
      </trkpt>
      <trkpt lat="49.27246" lon="1.12463">
        <ele>117</ele>
        <time>2016-07-10T08:58:06.098Z</time>
      </trkpt>
      <trkpt lat="49.27245" lon="1.12463">
        <ele>117</ele>
        <time>2016-07-10T08:58:07.098Z</time>
      </trkpt>
      <trkpt lat="49.27246" lon="1.12463">
        <ele>117</ele>
        <time>2016-07-10T08:58:08.098Z</time>
      </trkpt>
      <trkpt lat="49.27246" lon="1.12463">
        <ele>117</ele>
        <time>2016-07-10T08:58:09.098Z</time>
      </trkpt>
      <trkpt lat="49.27246" lon="1.12463">
        <ele>117</ele>
        <time>2016-07-10T08:58:10.098Z</time>
      </trkpt>
      <trkpt lat="49.27246" lon="1.12463">
        <ele>117</ele>
        <time>2016-07-10T08:58:11.098Z</time>
      </trkpt>
      <trkpt lat="49.27246" lon="1.12463">
        <ele>117</ele>
        <time>2016-07-10T08:58:12.098Z</time>
      </trkpt>
      <trkpt lat="49.27246" lon="1.12463">
        <ele>117</ele>
        <time>2016-07-10T08:58:13.098Z</time>
      </trkpt>
      <trkpt lat="49.27246" lon="1.12463">
        <ele>117</ele>
        <time>2016-07-10T08:58:14.098Z</time>
      </trkpt>
      <trkpt lat="49.27245" lon="1.12463">
        <ele>118</ele>
        <time>2016-07-10T08:58:15.098Z</time>
      </trkpt>
      <trkpt lat="49.27245" lon="1.12463">
        <ele>118</ele>
        <time>2016-07-10T08:58:16.098Z</time>
      </trkpt>
      <trkpt lat="49.27245" lon="1.12463">
        <ele>118</ele>
        <time>2016-07-10T08:58:17.098Z</time>
      </trkpt>
      <trkpt lat="49.27245" lon="1.12463">
        <ele>118</ele>
        <time>2016-07-10T08:58:18.098Z</time>
      </trkpt>
      <trkpt lat="49.27245" lon="1.12463">
        <ele>118</ele>
        <time>2016-07-10T08:58:19.098Z</time>
      </trkpt>
      <trkpt lat="49.27245" lon="1.12463">
        <ele>118</ele>
        <time>2016-07-10T08:58:20.098Z</time>
      </trkpt>
      <trkpt lat="49.27245" lon="1.12463">
        <ele>118</ele>
        <time>2016-07-10T08:58:21.098Z</time>
      </trkpt>
      <trkpt lat="49.27246" lon="1.12463">
        <ele>118</ele>
        <time>2016-07-10T08:58:22.098Z</time>
      </trkpt>
      <trkpt lat="49.27246" lon="1.12463">
        <ele>118</ele>
        <time>2016-07-10T08:58:23.098Z</time>
      </trkpt>
      <trkpt lat="49.27246" lon="1.12463">
        <ele>118</ele>
        <time>2016-07-10T08:58:24.098Z</time>
      </trkpt>
      <trkpt lat="49.27246" lon="1.12463">
        <ele>119</ele>
        <time>2016-07-10T08:58:25.098Z</time>
      </trkpt>
      <trkpt lat="49.27245" lon="1.12464">
        <ele>119</ele>
        <time>2016-07-10T08:58:26.098Z</time>
      </trkpt>
      <trkpt lat="49.27245" lon="1.12464">
        <ele>119</ele>
        <time>2016-07-10T08:58:27.098Z</time>
      </trkpt>
      <trkpt lat="49.27245" lon="1.12464">
        <ele>119</ele>
        <time>2016-07-10T08:58:28.098Z</time>
      </trkpt>
      <trkpt lat="49.27245" lon="1.12464">
        <ele>119</ele>
        <time>2016-07-10T08:58:29.098Z</time>
      </trkpt>
      <trkpt lat="49.27245" lon="1.12464">
        <ele>120</ele>
        <time>2016-07-10T08:58:30.098Z</time>
      </trkpt>
      <trkpt lat="49.27245" lon="1.12464">
        <ele>119</ele>
        <time>2016-07-10T08:58:31.098Z</time>
      </trkpt>
      <trkpt lat="49.27245" lon="1.12464">
        <ele>118</ele>
        <time>2016-07-10T08:58:32.098Z</time>
      </trkpt>
      <trkpt lat="49.27245" lon="1.12464">
        <ele>118</ele>
        <time>2016-07-10T08:58:33.098Z</time>
      </trkpt>
      <trkpt lat="49.27245" lon="1.12464">
        <ele>119</ele>
        <time>2016-07-10T08:58:34.098Z</time>
      </trkpt>
      <trkpt lat="49.27246" lon="1.12464">
        <ele>118</ele>
        <time>2016-07-10T08:58:35.098Z</time>
      </trkpt>
      <trkpt lat="49.27246" lon="1.12464">
        <ele>118</ele>
        <time>2016-07-10T08:58:36.098Z</time>
      </trkpt>
      <trkpt lat="49.27246" lon="1.12464">
        <ele>118</ele>
        <time>2016-07-10T08:58:37.098Z</time>
      </trkpt>
      <trkpt lat="49.27246" lon="1.12464">
        <ele>118</ele>
        <time>2016-07-10T08:58:38.098Z</time>
      </trkpt>
      <trkpt lat="49.27246" lon="1.12464">
        <ele>118</ele>
        <time>2016-07-10T08:58:39.098Z</time>
      </trkpt>
      <trkpt lat="49.27246" lon="1.12464">
        <ele>117</ele>
        <time>2016-07-10T08:58:40.098Z</time>
      </trkpt>
      <trkpt lat="49.27246" lon="1.12464">
        <ele>117</ele>
        <time>2016-07-10T08:58:41.098Z</time>
      </trkpt>
      <trkpt lat="49.27247" lon="1.12464">
        <ele>118</ele>
        <time>2016-07-10T08:58:42.098Z</time>
      </trkpt>
      <trkpt lat="49.27247" lon="1.12465">
        <ele>118</ele>
        <time>2016-07-10T08:58:43.098Z</time>
      </trkpt>
      <trkpt lat="49.27247" lon="1.12465">
        <ele>118</ele>
        <time>2016-07-10T08:58:44.098Z</time>
      </trkpt>
      <trkpt lat="49.27247" lon="1.12466">
        <ele>118</ele>
        <time>2016-07-10T08:58:45.098Z</time>
      </trkpt>
      <trkpt lat="49.27248" lon="1.12466">
        <ele>118</ele>
        <time>2016-07-10T08:58:46.098Z</time>
      </trkpt>
      <trkpt lat="49.27248" lon="1.12466">
        <ele>118</ele>
        <time>2016-07-10T08:58:47.098Z</time>
      </trkpt>
      <trkpt lat="49.27248" lon="1.12466">
        <ele>118</ele>
        <time>2016-07-10T08:58:48.098Z</time>
      </trkpt>
      <trkpt lat="49.27248" lon="1.12466">
        <ele>118</ele>
        <time>2016-07-10T08:58:49.098Z</time>
      </trkpt>
      <trkpt lat="49.27247" lon="1.12466">
        <ele>119</ele>
        <time>2016-07-10T08:58:50.098Z</time>
      </trkpt>
      <trkpt lat="49.27247" lon="1.12466">
        <ele>119</ele>
        <time>2016-07-10T08:58:51.098Z</time>
      </trkpt>
      <trkpt lat="49.27247" lon="1.12466">
        <ele>119</ele>
        <time>2016-07-10T08:58:52.098Z</time>
      </trkpt>
      <trkpt lat="49.27247" lon="1.12466">
        <ele>119</ele>
        <time>2016-07-10T08:58:53.098Z</time>
      </trkpt>
      <trkpt lat="49.27247" lon="1.12466">
        <ele>120</ele>
        <time>2016-07-10T08:58:54.098Z</time>
      </trkpt>
      <trkpt lat="49.27247" lon="1.12465">
        <ele>120</ele>
        <time>2016-07-10T08:58:55.098Z</time>
      </trkpt>
      <trkpt lat="49.27247" lon="1.12465">
        <ele>120</ele>
        <time>2016-07-10T08:58:56.098Z</time>
      </trkpt>
      <trkpt lat="49.27247" lon="1.12465">
        <ele>120</ele>
        <time>2016-07-10T08:58:57.098Z</time>
      </trkpt>
      <trkpt lat="49.27246" lon="1.12465">
        <ele>120</ele>
        <time>2016-07-10T08:58:58.098Z</time>
      </trkpt>
      <trkpt lat="49.27246" lon="1.12464">
        <ele>119</ele>
        <time>2016-07-10T08:58:59.098Z</time>
      </trkpt>
      <trkpt lat="49.27246" lon="1.12464">
        <ele>119</ele>
        <time>2016-07-10T08:59:00.098Z</time>
      </trkpt>
      <trkpt lat="49.27246" lon="1.12464">
        <ele>119</ele>
        <time>2016-07-10T08:59:01.098Z</time>
      </trkpt>
      <trkpt lat="49.27246" lon="1.12464">
        <ele>119</ele>
        <time>2016-07-10T08:59:02.098Z</time>
      </trkpt>
      <trkpt lat="49.27246" lon="1.12464">
        <ele>119</ele>
        <time>2016-07-10T08:59:03.098Z</time>
      </trkpt>
      <trkpt lat="49.27246" lon="1.12464">
        <ele>119</ele>
        <time>2016-07-10T08:59:04.098Z</time>
      </trkpt>
      <trkpt lat="49.27246" lon="1.12464">
        <ele>119</ele>
        <time>2016-07-10T08:59:05.098Z</time>
      </trkpt>
      <trkpt lat="49.27246" lon="1.12464">
        <ele>119</ele>
        <time>2016-07-10T08:59:06.098Z</time>
      </trkpt>
      <trkpt lat="49.27246" lon="1.12463">
        <ele>119</ele>
        <time>2016-07-10T08:59:07.098Z</time>
      </trkpt>
      <trkpt lat="49.27246" lon="1.12463">
        <ele>119</ele>
        <time>2016-07-10T08:59:08.098Z</time>
      </trkpt>
      <trkpt lat="49.27246" lon="1.12463">
        <ele>119</ele>
        <time>2016-07-10T08:59:09.098Z</time>
      </trkpt>
      <trkpt lat="49.27246" lon="1.12463">
        <ele>119</ele>
        <time>2016-07-10T08:59:10.098Z</time>
      </trkpt>
      <trkpt lat="49.27246" lon="1.12464">
        <ele>119</ele>
        <time>2016-07-10T08:59:11.098Z</time>
      </trkpt>
      <trkpt lat="49.27246" lon="1.12464">
        <ele>119</ele>
        <time>2016-07-10T08:59:12.098Z</time>
      </trkpt>
      <trkpt lat="49.27246" lon="1.12464">
        <ele>119</ele>
        <time>2016-07-10T08:59:13.098Z</time>
      </trkpt>
      <trkpt lat="49.27246" lon="1.12464">
        <ele>119</ele>
        <time>2016-07-10T08:59:14.098Z</time>
      </trkpt>
      <trkpt lat="49.27246" lon="1.12464">
        <ele>119</ele>
        <time>2016-07-10T08:59:15.098Z</time>
      </trkpt>
      <trkpt lat="49.27246" lon="1.12464">
        <ele>119</ele>
        <time>2016-07-10T08:59:16.098Z</time>
      </trkpt>
      <trkpt lat="49.27246" lon="1.12464">
        <ele>118</ele>
        <time>2016-07-10T08:59:17.098Z</time>
      </trkpt>
      <trkpt lat="49.27246" lon="1.12464">
        <ele>118</ele>
        <time>2016-07-10T08:59:18.098Z</time>
      </trkpt>
      <trkpt lat="49.27246" lon="1.12464">
        <ele>118</ele>
        <time>2016-07-10T08:59:19.098Z</time>
      </trkpt>
      <trkpt lat="49.27246" lon="1.12464">
        <ele>118</ele>
        <time>2016-07-10T08:59:20.098Z</time>
      </trkpt>
      <trkpt lat="49.27246" lon="1.12464">
        <ele>118</ele>
        <time>2016-07-10T08:59:21.098Z</time>
      </trkpt>
      <trkpt lat="49.27246" lon="1.12464">
        <ele>119</ele>
        <time>2016-07-10T08:59:22.098Z</time>
      </trkpt>
      <trkpt lat="49.27246" lon="1.12464">
        <ele>119</ele>
        <time>2016-07-10T08:59:23.098Z</time>
      </trkpt>
      <trkpt lat="49.27246" lon="1.12465">
        <ele>119</ele>
        <time>2016-07-10T08:59:24.098Z</time>
      </trkpt>
      <trkpt lat="49.27246" lon="1.12465">
        <ele>119</ele>
        <time>2016-07-10T08:59:25.098Z</time>
      </trkpt>
      <trkpt lat="49.27246" lon="1.12465">
        <ele>119</ele>
        <time>2016-07-10T08:59:26.098Z</time>
      </trkpt>
      <trkpt lat="49.27246" lon="1.12465">
        <ele>119</ele>
        <time>2016-07-10T08:59:27.098Z</time>
      </trkpt>
      <trkpt lat="49.27246" lon="1.12465">
        <ele>119</ele>
        <time>2016-07-10T08:59:28.098Z</time>
      </trkpt>
      <trkpt lat="49.27246" lon="1.12465">
        <ele>119</ele>
        <time>2016-07-10T08:59:29.098Z</time>
      </trkpt>
      <trkpt lat="49.27246" lon="1.12465">
        <ele>119</ele>
        <time>2016-07-10T08:59:30.098Z</time>
      </trkpt>
      <trkpt lat="49.27246" lon="1.12465">
        <ele>119</ele>
        <time>2016-07-10T08:59:31.098Z</time>
      </trkpt>
      <trkpt lat="49.27246" lon="1.12465">
        <ele>119</ele>
        <time>2016-07-10T08:59:32.098Z</time>
      </trkpt>
      <trkpt lat="49.27246" lon="1.12465">
        <ele>119</ele>
        <time>2016-07-10T08:59:33.098Z</time>
      </trkpt>
      <trkpt lat="49.27246" lon="1.12465">
        <ele>119</ele>
        <time>2016-07-10T08:59:34.098Z</time>
      </trkpt>
      <trkpt lat="49.27246" lon="1.12465">
        <ele>119</ele>
        <time>2016-07-10T08:59:35.098Z</time>
      </trkpt>
      <trkpt lat="49.27246" lon="1.12465">
        <ele>119</ele>
        <time>2016-07-10T08:59:36.098Z</time>
      </trkpt>
      <trkpt lat="49.27246" lon="1.12465">
        <ele>119</ele>
        <time>2016-07-10T08:59:37.098Z</time>
      </trkpt>
      <trkpt lat="49.27246" lon="1.12465">
        <ele>119</ele>
        <time>2016-07-10T08:59:38.098Z</time>
      </trkpt>
      <trkpt lat="49.27246" lon="1.12465">
        <ele>119</ele>
        <time>2016-07-10T08:59:39.098Z</time>
      </trkpt>
      <trkpt lat="49.27246" lon="1.12465">
        <ele>119</ele>
        <time>2016-07-10T08:59:40.098Z</time>
      </trkpt>
      <trkpt lat="49.27246" lon="1.12465">
        <ele>119</ele>
        <time>2016-07-10T08:59:41.098Z</time>
      </trkpt>
      <trkpt lat="49.27246" lon="1.12464">
        <ele>119</ele>
        <time>2016-07-10T08:59:42.098Z</time>
      </trkpt>
      <trkpt lat="49.27246" lon="1.12464">
        <ele>119</ele>
        <time>2016-07-10T08:59:43.098Z</time>
      </trkpt>
      <trkpt lat="49.27246" lon="1.12464">
        <ele>118</ele>
        <time>2016-07-10T08:59:44.098Z</time>
      </trkpt>
      <trkpt lat="49.27246" lon="1.12464">
        <ele>118</ele>
        <time>2016-07-10T08:59:45.098Z</time>
      </trkpt>
      <trkpt lat="49.27246" lon="1.12464">
        <ele>118</ele>
        <time>2016-07-10T08:59:46.098Z</time>
      </trkpt>
      <trkpt lat="49.27246" lon="1.12464">
        <ele>118</ele>
        <time>2016-07-10T08:59:47.098Z</time>
      </trkpt>
      <trkpt lat="49.27246" lon="1.12464">
        <ele>118</ele>
        <time>2016-07-10T08:59:48.098Z</time>
      </trkpt>
      <trkpt lat="49.27246" lon="1.12464">
        <ele>118</ele>
        <time>2016-07-10T08:59:49.098Z</time>
      </trkpt>
      <trkpt lat="49.27246" lon="1.12464">
        <ele>118</ele>
        <time>2016-07-10T08:59:50.098Z</time>
      </trkpt>
      <trkpt lat="49.27246" lon="1.12464">
        <ele>118</ele>
        <time>2016-07-10T08:59:51.098Z</time>
      </trkpt>
      <trkpt lat="49.27246" lon="1.12464">
        <ele>118</ele>
        <time>2016-07-10T08:59:52.098Z</time>
      </trkpt>
      <trkpt lat="49.27246" lon="1.12464">
        <ele>118</ele>
        <time>2016-07-10T08:59:53.098Z</time>
      </trkpt>
      <trkpt lat="49.27246" lon="1.12464">
        <ele>118</ele>
        <time>2016-07-10T08:59:54.098Z</time>
      </trkpt>
      <trkpt lat="49.27246" lon="1.12464">
        <ele>118</ele>
        <time>2016-07-10T08:59:55.098Z</time>
      </trkpt>
      <trkpt lat="49.27246" lon="1.12464">
        <ele>118</ele>
        <time>2016-07-10T08:59:56.098Z</time>
      </trkpt>
      <trkpt lat="49.27246" lon="1.12464">
        <ele>118</ele>
        <time>2016-07-10T08:59:57.098Z</time>
      </trkpt>
      <trkpt lat="49.27246" lon="1.12464">
        <ele>118</ele>
        <time>2016-07-10T08:59:58.098Z</time>
      </trkpt>
      <trkpt lat="49.27245" lon="1.12464">
        <ele>118</ele>
        <time>2016-07-10T08:59:59.098Z</time>
      </trkpt>
      <trkpt lat="49.27245" lon="1.12464">
        <ele>118</ele>
        <time>2016-07-10T09:00:00.098Z</time>
      </trkpt>
      <trkpt lat="49.27245" lon="1.12464">
        <ele>118</ele>
        <time>2016-07-10T09:00:01.098Z</time>
      </trkpt>
      <trkpt lat="49.27245" lon="1.12464">
        <ele>118</ele>
        <time>2016-07-10T09:00:02.098Z</time>
      </trkpt>
      <trkpt lat="49.27245" lon="1.12464">
        <ele>118</ele>
        <time>2016-07-10T09:00:03.098Z</time>
      </trkpt>
      <trkpt lat="49.27245" lon="1.12464">
        <ele>118</ele>
        <time>2016-07-10T09:00:04.098Z</time>
      </trkpt>
      <trkpt lat="49.27245" lon="1.12463">
        <ele>117</ele>
        <time>2016-07-10T09:00:05.098Z</time>
      </trkpt>
      <trkpt lat="49.27245" lon="1.12463">
        <ele>117</ele>
        <time>2016-07-10T09:00:06.098Z</time>
      </trkpt>
      <trkpt lat="49.27245" lon="1.12463">
        <ele>117</ele>
        <time>2016-07-10T09:00:07.098Z</time>
      </trkpt>
      <trkpt lat="49.27245" lon="1.12463">
        <ele>117</ele>
        <time>2016-07-10T09:00:08.098Z</time>
      </trkpt>
      <trkpt lat="49.27245" lon="1.12463">
        <ele>117</ele>
        <time>2016-07-10T09:00:09.098Z</time>
      </trkpt>
      <trkpt lat="49.27245" lon="1.12463">
        <ele>117</ele>
        <time>2016-07-10T09:00:10.098Z</time>
      </trkpt>
      <trkpt lat="49.27245" lon="1.12463">
        <ele>118</ele>
        <time>2016-07-10T09:00:11.098Z</time>
      </trkpt>
      <trkpt lat="49.27245" lon="1.12463">
        <ele>118</ele>
        <time>2016-07-10T09:00:12.098Z</time>
      </trkpt>
      <trkpt lat="49.27245" lon="1.12463">
        <ele>118</ele>
        <time>2016-07-10T09:00:13.098Z</time>
      </trkpt>
      <trkpt lat="49.27245" lon="1.12463">
        <ele>119</ele>
        <time>2016-07-10T09:00:14.098Z</time>
      </trkpt>
      <trkpt lat="49.27246" lon="1.12463">
        <ele>120</ele>
        <time>2016-07-10T09:00:15.008Z</time>
      </trkpt>
      <trkpt lat="49.27246" lon="1.12463">
        <ele>120</ele>
        <time>2016-07-10T09:00:16.008Z</time>
      </trkpt>
      <trkpt lat="49.27246" lon="1.12463">
        <ele>120</ele>
        <time>2016-07-10T09:00:17.008Z</time>
      </trkpt>
      <trkpt lat="49.27246" lon="1.12463">
        <ele>120</ele>
        <time>2016-07-10T09:00:18.008Z</time>
      </trkpt>
      <trkpt lat="49.27246" lon="1.12463">
        <ele>120</ele>
        <time>2016-07-10T09:00:19.008Z</time>
      </trkpt>
      <trkpt lat="49.27246" lon="1.12463">
        <ele>120</ele>
        <time>2016-07-10T09:00:20.008Z</time>
      </trkpt>
      <trkpt lat="49.27246" lon="1.12463">
        <ele>120</ele>
        <time>2016-07-10T09:00:21.008Z</time>
      </trkpt>
      <trkpt lat="49.27246" lon="1.12463">
        <ele>121</ele>
        <time>2016-07-10T09:00:22.008Z</time>
      </trkpt>
      <trkpt lat="49.27246" lon="1.12463">
        <ele>121</ele>
        <time>2016-07-10T09:00:23.008Z</time>
      </trkpt>
      <trkpt lat="49.27246" lon="1.12463">
        <ele>121</ele>
        <time>2016-07-10T09:00:24.008Z</time>
      </trkpt>
      <trkpt lat="49.27246" lon="1.12463">
        <ele>120</ele>
        <time>2016-07-10T09:00:25.008Z</time>
      </trkpt>
      <trkpt lat="49.27246" lon="1.12463">
        <ele>120</ele>
        <time>2016-07-10T09:00:26.008Z</time>
      </trkpt>
      <trkpt lat="49.27246" lon="1.12463">
        <ele>120</ele>
        <time>2016-07-10T09:00:27.008Z</time>
      </trkpt>
      <trkpt lat="49.27246" lon="1.12463">
        <ele>119</ele>
        <time>2016-07-10T09:00:28.008Z</time>
      </trkpt>
      <trkpt lat="49.27246" lon="1.12464">
        <ele>120</ele>
        <time>2016-07-10T09:00:29.008Z</time>
      </trkpt>
      <trkpt lat="49.27246" lon="1.12464">
        <ele>120</ele>
        <time>2016-07-10T09:00:30.008Z</time>
      </trkpt>
      <trkpt lat="49.27246" lon="1.12464">
        <ele>120</ele>
        <time>2016-07-10T09:00:31.008Z</time>
      </trkpt>
      <trkpt lat="49.27246" lon="1.12464">
        <ele>120</ele>
        <time>2016-07-10T09:00:32.008Z</time>
      </trkpt>
      <trkpt lat="49.27246" lon="1.12464">
        <ele>120</ele>
        <time>2016-07-10T09:00:33.008Z</time>
      </trkpt>
      <trkpt lat="49.27246" lon="1.12464">
        <ele>120</ele>
        <time>2016-07-10T09:00:34.008Z</time>
      </trkpt>
      <trkpt lat="49.27246" lon="1.12464">
        <ele>120</ele>
        <time>2016-07-10T09:00:35.008Z</time>
      </trkpt>
      <trkpt lat="49.27246" lon="1.12464">
        <ele>120</ele>
        <time>2016-07-10T09:00:36.008Z</time>
      </trkpt>
      <trkpt lat="49.27246" lon="1.12464">
        <ele>120</ele>
        <time>2016-07-10T09:00:37.008Z</time>
      </trkpt>
      <trkpt lat="49.27246" lon="1.12464">
        <ele>120</ele>
        <time>2016-07-10T09:00:38.008Z</time>
      </trkpt>
      <trkpt lat="49.27246" lon="1.12464">
        <ele>120</ele>
        <time>2016-07-10T09:00:39.008Z</time>
      </trkpt>
      <trkpt lat="49.27247" lon="1.12464">
        <ele>120</ele>
        <time>2016-07-10T09:00:40.008Z</time>
      </trkpt>
      <trkpt lat="49.27246" lon="1.12465">
        <ele>121</ele>
        <time>2016-07-10T09:00:41.008Z</time>
      </trkpt>
      <trkpt lat="49.27246" lon="1.12467">
        <ele>121</ele>
        <time>2016-07-10T09:00:42.008Z</time>
      </trkpt>
      <trkpt lat="49.27246" lon="1.12469">
        <ele>121</ele>
        <time>2016-07-10T09:00:43.008Z</time>
      </trkpt>
      <trkpt lat="49.27246" lon="1.12471">
        <ele>121</ele>
        <time>2016-07-10T09:00:44.008Z</time>
      </trkpt>
      <trkpt lat="49.27245" lon="1.12473">
        <ele>120</ele>
        <time>2016-07-10T09:00:45.008Z</time>
      </trkpt>
      <trkpt lat="49.27245" lon="1.12475">
        <ele>120</ele>
        <time>2016-07-10T09:00:46.008Z</time>
      </trkpt>
      <trkpt lat="49.27245" lon="1.12477">
        <ele>120</ele>
        <time>2016-07-10T09:00:47.008Z</time>
      </trkpt>
      <trkpt lat="49.27245" lon="1.12479">
        <ele>120</ele>
        <time>2016-07-10T09:00:48.008Z</time>
      </trkpt>
      <trkpt lat="49.27244" lon="1.1248">
        <ele>119</ele>
        <time>2016-07-10T09:00:49.008Z</time>
      </trkpt>
      <trkpt lat="49.27244" lon="1.1248">
        <ele>119</ele>
        <time>2016-07-10T09:00:50.008Z</time>
      </trkpt>
      <trkpt lat="49.27244" lon="1.12481">
        <ele>119</ele>
        <time>2016-07-10T09:00:51.008Z</time>
      </trkpt>
      <trkpt lat="49.27244" lon="1.12482">
        <ele>119</ele>
        <time>2016-07-10T09:00:52.008Z</time>
      </trkpt>
      <trkpt lat="49.27243" lon="1.12482">
        <ele>119</ele>
        <time>2016-07-10T09:00:53.008Z</time>
      </trkpt>
      <trkpt lat="49.27243" lon="1.12483">
        <ele>119</ele>
        <time>2016-07-10T09:00:54.008Z</time>
      </trkpt>
      <trkpt lat="49.27243" lon="1.12484">
        <ele>119</ele>
        <time>2016-07-10T09:00:55.008Z</time>
      </trkpt>
      <trkpt lat="49.27243" lon="1.12484">
        <ele>119</ele>
        <time>2016-07-10T09:00:56.008Z</time>
      </trkpt>
      <trkpt lat="49.27243" lon="1.12485">
        <ele>119</ele>
        <time>2016-07-10T09:00:57.008Z</time>
      </trkpt>
      <trkpt lat="49.27243" lon="1.12486">
        <ele>119</ele>
        <time>2016-07-10T09:00:58.008Z</time>
      </trkpt>
      <trkpt lat="49.27243" lon="1.12486">
        <ele>119</ele>
        <time>2016-07-10T09:00:59.008Z</time>
      </trkpt>
      <trkpt lat="49.27243" lon="1.12486">
        <ele>119</ele>
        <time>2016-07-10T09:01:00.008Z</time>
      </trkpt>
      <trkpt lat="49.27243" lon="1.12487">
        <ele>119</ele>
        <time>2016-07-10T09:01:01.008Z</time>
      </trkpt>
      <trkpt lat="49.27243" lon="1.12487">
        <ele>119</ele>
        <time>2016-07-10T09:01:02.008Z</time>
      </trkpt>
      <trkpt lat="49.27243" lon="1.12487">
        <ele>119</ele>
        <time>2016-07-10T09:01:03.008Z</time>
      </trkpt>
      <trkpt lat="49.27243" lon="1.12487">
        <ele>119</ele>
        <time>2016-07-10T09:01:04.008Z</time>
      </trkpt>
      <trkpt lat="49.27243" lon="1.12488">
        <ele>119</ele>
        <time>2016-07-10T09:01:05.008Z</time>
      </trkpt>
      <trkpt lat="49.27243" lon="1.12488">
        <ele>120</ele>
        <time>2016-07-10T09:01:06.008Z</time>
      </trkpt>
      <trkpt lat="49.27243" lon="1.12489">
        <ele>120</ele>
        <time>2016-07-10T09:01:07.008Z</time>
      </trkpt>
      <trkpt lat="49.27244" lon="1.12489">
        <ele>120</ele>
        <time>2016-07-10T09:01:08.008Z</time>
      </trkpt>
      <trkpt lat="49.27244" lon="1.1249">
        <ele>120</ele>
        <time>2016-07-10T09:01:09.008Z</time>
      </trkpt>
      <trkpt lat="49.27244" lon="1.12491">
        <ele>120</ele>
        <time>2016-07-10T09:01:10.008Z</time>
      </trkpt>
      <trkpt lat="49.27244" lon="1.12492">
        <ele>120</ele>
        <time>2016-07-10T09:01:11.008Z</time>
      </trkpt>
      <trkpt lat="49.27244" lon="1.12493">
        <ele>120</ele>
        <time>2016-07-10T09:01:12.008Z</time>
      </trkpt>
      <trkpt lat="49.27243" lon="1.12495">
        <ele>120</ele>
        <time>2016-07-10T09:01:13.008Z</time>
      </trkpt>
      <trkpt lat="49.27242" lon="1.12496">
        <ele>120</ele>
        <time>2016-07-10T09:01:14.008Z</time>
      </trkpt>
      <trkpt lat="49.27242" lon="1.12497">
        <ele>121</ele>
        <time>2016-07-10T09:01:15.008Z</time>
      </trkpt>
      <trkpt lat="49.27242" lon="1.12498">
        <ele>121</ele>
        <time>2016-07-10T09:01:16.008Z</time>
      </trkpt>
      <trkpt lat="49.27241" lon="1.12499">
        <ele>120</ele>
        <time>2016-07-10T09:01:17.008Z</time>
      </trkpt>
      <trkpt lat="49.27241" lon="1.125">
        <ele>120</ele>
        <time>2016-07-10T09:01:18.008Z</time>
      </trkpt>
      <trkpt lat="49.27241" lon="1.12503">
        <ele>120</ele>
        <time>2016-07-10T09:01:19.008Z</time>
      </trkpt>
      <trkpt lat="49.2724" lon="1.12508">
        <ele>119</ele>
        <time>2016-07-10T09:01:20.008Z</time>
      </trkpt>
      <trkpt lat="49.2724" lon="1.12513">
        <ele>119</ele>
        <time>2016-07-10T09:01:21.008Z</time>
      </trkpt>
      <trkpt lat="49.27239" lon="1.12519">
        <ele>119</ele>
        <time>2016-07-10T09:01:22.008Z</time>
      </trkpt>
      <trkpt lat="49.27238" lon="1.12524">
        <ele>118</ele>
        <time>2016-07-10T09:01:23.008Z</time>
      </trkpt>
      <trkpt lat="49.27237" lon="1.1253">
        <ele>118</ele>
        <time>2016-07-10T09:01:24.008Z</time>
      </trkpt>
      <trkpt lat="49.27236" lon="1.12535">
        <ele>118</ele>
        <time>2016-07-10T09:01:25.008Z</time>
      </trkpt>
      <trkpt lat="49.27235" lon="1.1254">
        <ele>118</ele>
        <time>2016-07-10T09:01:26.008Z</time>
      </trkpt>
      <trkpt lat="49.27234" lon="1.12545">
        <ele>118</ele>
        <time>2016-07-10T09:01:27.008Z</time>
      </trkpt>
      <trkpt lat="49.27233" lon="1.1255">
        <ele>117</ele>
        <time>2016-07-10T09:01:28.008Z</time>
      </trkpt>
      <trkpt lat="49.27231" lon="1.12555">
        <ele>116</ele>
        <time>2016-07-10T09:01:29.008Z</time>
      </trkpt>
      <trkpt lat="49.27229" lon="1.1256">
        <ele>116</ele>
        <time>2016-07-10T09:01:30.008Z</time>
      </trkpt>
      <trkpt lat="49.27227" lon="1.12565">
        <ele>115</ele>
        <time>2016-07-10T09:01:31.008Z</time>
      </trkpt>
      <trkpt lat="49.27225" lon="1.12571">
        <ele>115</ele>
        <time>2016-07-10T09:01:32.008Z</time>
      </trkpt>
      <trkpt lat="49.27223" lon="1.12577">
        <ele>116</ele>
        <time>2016-07-10T09:01:33.008Z</time>
      </trkpt>
      <trkpt lat="49.27221" lon="1.12584">
        <ele>116</ele>
        <time>2016-07-10T09:01:34.008Z</time>
      </trkpt>
      <trkpt lat="49.27219" lon="1.12591">
        <ele>116</ele>
        <time>2016-07-10T09:01:35.008Z</time>
      </trkpt>
      <trkpt lat="49.27217" lon="1.12597">
        <ele>116</ele>
        <time>2016-07-10T09:01:36.008Z</time>
      </trkpt>
      <trkpt lat="49.27215" lon="1.12604">
        <ele>116</ele>
        <time>2016-07-10T09:01:37.008Z</time>
      </trkpt>
      <trkpt lat="49.27213" lon="1.12611">
        <ele>116</ele>
        <time>2016-07-10T09:01:38.008Z</time>
      </trkpt>
      <trkpt lat="49.27211" lon="1.12617">
        <ele>116</ele>
        <time>2016-07-10T09:01:39.008Z</time>
      </trkpt>
      <trkpt lat="49.27209" lon="1.12624">
        <ele>116</ele>
        <time>2016-07-10T09:01:40.008Z</time>
      </trkpt>
      <trkpt lat="49.27207" lon="1.12631">
        <ele>116</ele>
        <time>2016-07-10T09:01:41.008Z</time>
      </trkpt>
      <trkpt lat="49.27206" lon="1.12638">
        <ele>116</ele>
        <time>2016-07-10T09:01:42.008Z</time>
      </trkpt>
      <trkpt lat="49.27204" lon="1.12645">
        <ele>115</ele>
        <time>2016-07-10T09:01:43.008Z</time>
      </trkpt>
      <trkpt lat="49.27203" lon="1.12651">
        <ele>115</ele>
        <time>2016-07-10T09:01:44.008Z</time>
      </trkpt>
      <trkpt lat="49.27202" lon="1.12659">
        <ele>117</ele>
        <time>2016-07-10T09:01:45.008Z</time>
      </trkpt>
      <trkpt lat="49.27201" lon="1.12666">
        <ele>118</ele>
        <time>2016-07-10T09:01:46.008Z</time>
      </trkpt>
      <trkpt lat="49.27201" lon="1.12674">
        <ele>118</ele>
        <time>2016-07-10T09:01:47.008Z</time>
      </trkpt>
      <trkpt lat="49.272" lon="1.12682">
        <ele>119</ele>
        <time>2016-07-10T09:01:48.008Z</time>
      </trkpt>
      <trkpt lat="49.27199" lon="1.12689">
        <ele>119</ele>
        <time>2016-07-10T09:01:49.008Z</time>
      </trkpt>
      <trkpt lat="49.27199" lon="1.12697">
        <ele>119</ele>
        <time>2016-07-10T09:01:50.008Z</time>
      </trkpt>
      <trkpt lat="49.27198" lon="1.12705">
        <ele>119</ele>
        <time>2016-07-10T09:01:51.008Z</time>
      </trkpt>
      <trkpt lat="49.27197" lon="1.12712">
        <ele>119</ele>
        <time>2016-07-10T09:01:52.008Z</time>
      </trkpt>
      <trkpt lat="49.27196" lon="1.1272">
        <ele>120</ele>
        <time>2016-07-10T09:01:53.008Z</time>
      </trkpt>
      <trkpt lat="49.27196" lon="1.12727">
        <ele>120</ele>
        <time>2016-07-10T09:01:54.008Z</time>
      </trkpt>
      <trkpt lat="49.27195" lon="1.12735">
        <ele>120</ele>
        <time>2016-07-10T09:01:55.008Z</time>
      </trkpt>
      <trkpt lat="49.27194" lon="1.12743">
        <ele>120</ele>
        <time>2016-07-10T09:01:56.008Z</time>
      </trkpt>
      <trkpt lat="49.27194" lon="1.1275">
        <ele>120</ele>
        <time>2016-07-10T09:01:57.008Z</time>
      </trkpt>
      <trkpt lat="49.27193" lon="1.12758">
        <ele>120</ele>
        <time>2016-07-10T09:01:58.008Z</time>
      </trkpt>
      <trkpt lat="49.27193" lon="1.12766">
        <ele>121</ele>
        <time>2016-07-10T09:01:59.008Z</time>
      </trkpt>
      <trkpt lat="49.27192" lon="1.12774">
        <ele>121</ele>
        <time>2016-07-10T09:02:00.008Z</time>
      </trkpt>
      <trkpt lat="49.27191" lon="1.12783">
        <ele>121</ele>
        <time>2016-07-10T09:02:01.008Z</time>
      </trkpt>
      <trkpt lat="49.27191" lon="1.12791">
        <ele>121</ele>
        <time>2016-07-10T09:02:02.008Z</time>
      </trkpt>
      <trkpt lat="49.2719" lon="1.12799">
        <ele>121</ele>
        <time>2016-07-10T09:02:03.008Z</time>
      </trkpt>
      <trkpt lat="49.2719" lon="1.12808">
        <ele>121</ele>
        <time>2016-07-10T09:02:04.008Z</time>
      </trkpt>
      <trkpt lat="49.27189" lon="1.12816">
        <ele>121</ele>
        <time>2016-07-10T09:02:05.008Z</time>
      </trkpt>
      <trkpt lat="49.27189" lon="1.12825">
        <ele>121</ele>
        <time>2016-07-10T09:02:06.008Z</time>
      </trkpt>
      <trkpt lat="49.27188" lon="1.12833">
        <ele>122</ele>
        <time>2016-07-10T09:02:07.008Z</time>
      </trkpt>
      <trkpt lat="49.27188" lon="1.12841">
        <ele>122</ele>
        <time>2016-07-10T09:02:08.008Z</time>
      </trkpt>
      <trkpt lat="49.27187" lon="1.1285">
        <ele>122</ele>
        <time>2016-07-10T09:02:09.008Z</time>
      </trkpt>
      <trkpt lat="49.27186" lon="1.12858">
        <ele>122</ele>
        <time>2016-07-10T09:02:10.008Z</time>
      </trkpt>
      <trkpt lat="49.27184" lon="1.12867">
        <ele>122</ele>
        <time>2016-07-10T09:02:11.008Z</time>
      </trkpt>
      <trkpt lat="49.27183" lon="1.12875">
        <ele>122</ele>
        <time>2016-07-10T09:02:12.008Z</time>
      </trkpt>
      <trkpt lat="49.27181" lon="1.12884">
        <ele>122</ele>
        <time>2016-07-10T09:02:13.008Z</time>
      </trkpt>
      <trkpt lat="49.27179" lon="1.12892">
        <ele>123</ele>
        <time>2016-07-10T09:02:14.008Z</time>
      </trkpt>
      <trkpt lat="49.27177" lon="1.129">
        <ele>123</ele>
        <time>2016-07-10T09:02:15.008Z</time>
      </trkpt>
      <trkpt lat="49.27175" lon="1.12908">
        <ele>123</ele>
        <time>2016-07-10T09:02:16.008Z</time>
      </trkpt>
      <trkpt lat="49.27172" lon="1.12916">
        <ele>124</ele>
        <time>2016-07-10T09:02:17.008Z</time>
      </trkpt>
      <trkpt lat="49.2717" lon="1.12923">
        <ele>124</ele>
        <time>2016-07-10T09:02:18.008Z</time>
      </trkpt>
      <trkpt lat="49.27167" lon="1.12931">
        <ele>124</ele>
        <time>2016-07-10T09:02:19.008Z</time>
      </trkpt>
      <trkpt lat="49.27164" lon="1.12938">
        <ele>124</ele>
        <time>2016-07-10T09:02:20.008Z</time>
      </trkpt>
      <trkpt lat="49.27161" lon="1.12946">
        <ele>124</ele>
        <time>2016-07-10T09:02:21.008Z</time>
      </trkpt>
      <trkpt lat="49.27159" lon="1.12954">
        <ele>124</ele>
        <time>2016-07-10T09:02:22.008Z</time>
      </trkpt>
      <trkpt lat="49.27156" lon="1.12961">
        <ele>124</ele>
        <time>2016-07-10T09:02:23.008Z</time>
      </trkpt>
      <trkpt lat="49.27153" lon="1.12969">
        <ele>125</ele>
        <time>2016-07-10T09:02:24.008Z</time>
      </trkpt>
      <trkpt lat="49.27151" lon="1.12976">
        <ele>125</ele>
        <time>2016-07-10T09:02:25.008Z</time>
      </trkpt>
      <trkpt lat="49.27148" lon="1.12984">
        <ele>125</ele>
        <time>2016-07-10T09:02:26.008Z</time>
      </trkpt>
      <trkpt lat="49.27145" lon="1.12991">
        <ele>126</ele>
        <time>2016-07-10T09:02:27.008Z</time>
      </trkpt>
      <trkpt lat="49.27142" lon="1.12999">
        <ele>127</ele>
        <time>2016-07-10T09:02:28.008Z</time>
      </trkpt>
      <trkpt lat="49.2714" lon="1.13007">
        <ele>126</ele>
        <time>2016-07-10T09:02:29.008Z</time>
      </trkpt>
      <trkpt lat="49.27138" lon="1.13016">
        <ele>127</ele>
        <time>2016-07-10T09:02:30.008Z</time>
      </trkpt>
      <trkpt lat="49.27136" lon="1.13025">
        <ele>126</ele>
        <time>2016-07-10T09:02:31.008Z</time>
      </trkpt>
      <trkpt lat="49.27135" lon="1.13034">
        <ele>127</ele>
        <time>2016-07-10T09:02:32.008Z</time>
      </trkpt>
      <trkpt lat="49.27134" lon="1.13043">
        <ele>126</ele>
        <time>2016-07-10T09:02:33.008Z</time>
      </trkpt>
      <trkpt lat="49.27133" lon="1.13052">
        <ele>126</ele>
        <time>2016-07-10T09:02:34.008Z</time>
      </trkpt>
      <trkpt lat="49.27132" lon="1.13061">
        <ele>125</ele>
        <time>2016-07-10T09:02:35.008Z</time>
      </trkpt>
      <trkpt lat="49.27131" lon="1.1307">
        <ele>126</ele>
        <time>2016-07-10T09:02:36.008Z</time>
      </trkpt>
      <trkpt lat="49.2713" lon="1.13079">
        <ele>125</ele>
        <time>2016-07-10T09:02:37.008Z</time>
      </trkpt>
      <trkpt lat="49.27128" lon="1.13088">
        <ele>125</ele>
        <time>2016-07-10T09:02:38.008Z</time>
      </trkpt>
      <trkpt lat="49.27127" lon="1.13097">
        <ele>125</ele>
        <time>2016-07-10T09:02:39.008Z</time>
      </trkpt>
      <trkpt lat="49.27126" lon="1.13106">
        <ele>125</ele>
        <time>2016-07-10T09:02:40.008Z</time>
      </trkpt>
      <trkpt lat="49.27125" lon="1.13116">
        <ele>124</ele>
        <time>2016-07-10T09:02:41.008Z</time>
      </trkpt>
      <trkpt lat="49.27124" lon="1.13125">
        <ele>124</ele>
        <time>2016-07-10T09:02:42.008Z</time>
      </trkpt>
      <trkpt lat="49.27123" lon="1.13133">
        <ele>124</ele>
        <time>2016-07-10T09:02:43.008Z</time>
      </trkpt>
      <trkpt lat="49.27122" lon="1.13143">
        <ele>123</ele>
        <time>2016-07-10T09:02:44.008Z</time>
      </trkpt>
      <trkpt lat="49.2712" lon="1.13152">
        <ele>124</ele>
        <time>2016-07-10T09:02:45.008Z</time>
      </trkpt>
      <trkpt lat="49.27119" lon="1.13162">
        <ele>124</ele>
        <time>2016-07-10T09:02:46.008Z</time>
      </trkpt>
      <trkpt lat="49.27118" lon="1.13172">
        <ele>124</ele>
        <time>2016-07-10T09:02:47.008Z</time>
      </trkpt>
      <trkpt lat="49.27117" lon="1.13181">
        <ele>124</ele>
        <time>2016-07-10T09:02:48.008Z</time>
      </trkpt>
      <trkpt lat="49.27116" lon="1.13191">
        <ele>124</ele>
        <time>2016-07-10T09:02:49.008Z</time>
      </trkpt>
      <trkpt lat="49.27115" lon="1.13201">
        <ele>124</ele>
        <time>2016-07-10T09:02:50.008Z</time>
      </trkpt>
      <trkpt lat="49.27114" lon="1.13211">
        <ele>124</ele>
        <time>2016-07-10T09:02:51.008Z</time>
      </trkpt>
      <trkpt lat="49.27113" lon="1.13221">
        <ele>124</ele>
        <time>2016-07-10T09:02:52.008Z</time>
      </trkpt>
      <trkpt lat="49.27112" lon="1.13231">
        <ele>124</ele>
        <time>2016-07-10T09:02:53.008Z</time>
      </trkpt>
      <trkpt lat="49.27111" lon="1.13241">
        <ele>124</ele>
        <time>2016-07-10T09:02:54.008Z</time>
      </trkpt>
      <trkpt lat="49.2711" lon="1.13251">
        <ele>125</ele>
        <time>2016-07-10T09:02:55.008Z</time>
      </trkpt>
      <trkpt lat="49.27108" lon="1.13261">
        <ele>125</ele>
        <time>2016-07-10T09:02:56.008Z</time>
      </trkpt>
      <trkpt lat="49.27107" lon="1.13271">
        <ele>125</ele>
        <time>2016-07-10T09:02:57.008Z</time>
      </trkpt>
      <trkpt lat="49.27106" lon="1.13281">
        <ele>125</ele>
        <time>2016-07-10T09:02:58.008Z</time>
      </trkpt>
      <trkpt lat="49.27105" lon="1.1329">
        <ele>125</ele>
        <time>2016-07-10T09:02:59.008Z</time>
      </trkpt>
      <trkpt lat="49.27104" lon="1.133">
        <ele>125</ele>
        <time>2016-07-10T09:03:00.008Z</time>
      </trkpt>
      <trkpt lat="49.27103" lon="1.1331">
        <ele>125</ele>
        <time>2016-07-10T09:03:01.008Z</time>
      </trkpt>
      <trkpt lat="49.27102" lon="1.13319">
        <ele>125</ele>
        <time>2016-07-10T09:03:02.008Z</time>
      </trkpt>
      <trkpt lat="49.27101" lon="1.13328">
        <ele>125</ele>
        <time>2016-07-10T09:03:03.008Z</time>
      </trkpt>
      <trkpt lat="49.271" lon="1.13338">
        <ele>125</ele>
        <time>2016-07-10T09:03:04.008Z</time>
      </trkpt>
      <trkpt lat="49.27099" lon="1.13347">
        <ele>125</ele>
        <time>2016-07-10T09:03:05.008Z</time>
      </trkpt>
      <trkpt lat="49.27097" lon="1.13356">
        <ele>126</ele>
        <time>2016-07-10T09:03:06.008Z</time>
      </trkpt>
      <trkpt lat="49.27096" lon="1.13365">
        <ele>126</ele>
        <time>2016-07-10T09:03:07.008Z</time>
      </trkpt>
      <trkpt lat="49.27093" lon="1.13374">
        <ele>125</ele>
        <time>2016-07-10T09:03:08.008Z</time>
      </trkpt>
      <trkpt lat="49.27088" lon="1.13381">
        <ele>122</ele>
        <time>2016-07-10T09:03:09.008Z</time>
      </trkpt>
      <trkpt lat="49.27081" lon="1.13386">
        <ele>121</ele>
        <time>2016-07-10T09:03:10.008Z</time>
      </trkpt>
      <trkpt lat="49.27075" lon="1.13391">
        <ele>120</ele>
        <time>2016-07-10T09:03:11.008Z</time>
      </trkpt>
      <trkpt lat="49.27071" lon="1.13396">
        <ele>120</ele>
        <time>2016-07-10T09:03:12.008Z</time>
      </trkpt>
      <trkpt lat="49.27066" lon="1.13401">
        <ele>120</ele>
        <time>2016-07-10T09:03:13.008Z</time>
      </trkpt>
      <trkpt lat="49.27062" lon="1.13406">
        <ele>119</ele>
        <time>2016-07-10T09:03:14.008Z</time>
      </trkpt>
      <trkpt lat="49.27057" lon="1.13411">
        <ele>119</ele>
        <time>2016-07-10T09:03:15.008Z</time>
      </trkpt>
      <trkpt lat="49.27052" lon="1.13415">
        <ele>118</ele>
        <time>2016-07-10T09:03:16.008Z</time>
      </trkpt>
      <trkpt lat="49.27047" lon="1.13419">
        <ele>117</ele>
        <time>2016-07-10T09:03:17.008Z</time>
      </trkpt>
      <trkpt lat="49.27042" lon="1.13423">
        <ele>115</ele>
        <time>2016-07-10T09:03:18.008Z</time>
      </trkpt>
      <trkpt lat="49.27037" lon="1.13426">
        <ele>114</ele>
        <time>2016-07-10T09:03:19.008Z</time>
      </trkpt>
      <trkpt lat="49.27032" lon="1.1343">
        <ele>113</ele>
        <time>2016-07-10T09:03:20.008Z</time>
      </trkpt>
      <trkpt lat="49.27027" lon="1.13433">
        <ele>111</ele>
        <time>2016-07-10T09:03:21.008Z</time>
      </trkpt>
      <trkpt lat="49.27022" lon="1.13437">
        <ele>109</ele>
        <time>2016-07-10T09:03:22.008Z</time>
      </trkpt>
      <trkpt lat="49.27016" lon="1.1344">
        <ele>108</ele>
        <time>2016-07-10T09:03:23.008Z</time>
      </trkpt>
      <trkpt lat="49.2701" lon="1.13442">
        <ele>107</ele>
        <time>2016-07-10T09:03:24.008Z</time>
      </trkpt>
      <trkpt lat="49.27004" lon="1.13446">
        <ele>107</ele>
        <time>2016-07-10T09:03:25.008Z</time>
      </trkpt>
      <trkpt lat="49.26998" lon="1.13449">
        <ele>107</ele>
        <time>2016-07-10T09:03:26.008Z</time>
      </trkpt>
      <trkpt lat="49.26992" lon="1.13452">
        <ele>105</ele>
        <time>2016-07-10T09:03:27.008Z</time>
      </trkpt>
      <trkpt lat="49.26985" lon="1.13455">
        <ele>104</ele>
        <time>2016-07-10T09:03:28.008Z</time>
      </trkpt>
      <trkpt lat="49.26979" lon="1.13457">
        <ele>104</ele>
        <time>2016-07-10T09:03:29.008Z</time>
      </trkpt>
      <trkpt lat="49.26973" lon="1.13459">
        <ele>105</ele>
        <time>2016-07-10T09:03:30.008Z</time>
      </trkpt>
      <trkpt lat="49.26966" lon="1.13462">
        <ele>105</ele>
        <time>2016-07-10T09:03:31.008Z</time>
      </trkpt>
      <trkpt lat="49.26959" lon="1.13464">
        <ele>102</ele>
        <time>2016-07-10T09:03:32.008Z</time>
      </trkpt>
      <trkpt lat="49.26952" lon="1.13465">
        <ele>100</ele>
        <time>2016-07-10T09:03:33.008Z</time>
      </trkpt>
      <trkpt lat="49.26945" lon="1.13466">
        <ele>100</ele>
        <time>2016-07-10T09:03:34.008Z</time>
      </trkpt>
      <trkpt lat="49.26937" lon="1.13466">
        <ele>102</ele>
        <time>2016-07-10T09:03:35.008Z</time>
      </trkpt>
      <trkpt lat="49.2693" lon="1.13465">
        <ele>103</ele>
        <time>2016-07-10T09:03:36.008Z</time>
      </trkpt>
      <trkpt lat="49.26923" lon="1.13464">
        <ele>103</ele>
        <time>2016-07-10T09:03:37.008Z</time>
      </trkpt>
      <trkpt lat="49.26915" lon="1.13462">
        <ele>103</ele>
        <time>2016-07-10T09:03:38.008Z</time>
      </trkpt>
      <trkpt lat="49.26909" lon="1.1346">
        <ele>104</ele>
        <time>2016-07-10T09:03:39.008Z</time>
      </trkpt>
      <trkpt lat="49.26902" lon="1.13458">
        <ele>105</ele>
        <time>2016-07-10T09:03:40.008Z</time>
      </trkpt>
      <trkpt lat="49.26894" lon="1.13456">
        <ele>109</ele>
        <time>2016-07-10T09:03:41.008Z</time>
      </trkpt>
      <trkpt lat="49.26887" lon="1.13453">
        <ele>109</ele>
        <time>2016-07-10T09:03:42.008Z</time>
      </trkpt>
      <trkpt lat="49.26881" lon="1.13451">
        <ele>110</ele>
        <time>2016-07-10T09:03:43.008Z</time>
      </trkpt>
      <trkpt lat="49.26874" lon="1.13449">
        <ele>110</ele>
        <time>2016-07-10T09:03:44.008Z</time>
      </trkpt>
      <trkpt lat="49.26868" lon="1.13447">
        <ele>109</ele>
        <time>2016-07-10T09:03:45.008Z</time>
      </trkpt>
      <trkpt lat="49.26862" lon="1.13445">
        <ele>109</ele>
        <time>2016-07-10T09:03:46.008Z</time>
      </trkpt>
      <trkpt lat="49.26857" lon="1.13442">
        <ele>109</ele>
        <time>2016-07-10T09:03:47.008Z</time>
      </trkpt>
      <trkpt lat="49.26851" lon="1.13439">
        <ele>109</ele>
        <time>2016-07-10T09:03:48.008Z</time>
      </trkpt>
      <trkpt lat="49.26846" lon="1.13437">
        <ele>110</ele>
        <time>2016-07-10T09:03:49.008Z</time>
      </trkpt>
      <trkpt lat="49.2684" lon="1.13435">
        <ele>110</ele>
        <time>2016-07-10T09:03:50.008Z</time>
      </trkpt>
      <trkpt lat="49.26835" lon="1.13433">
        <ele>110</ele>
        <time>2016-07-10T09:03:51.008Z</time>
      </trkpt>
      <trkpt lat="49.2683" lon="1.1343">
        <ele>110</ele>
        <time>2016-07-10T09:03:52.008Z</time>
      </trkpt>
      <trkpt lat="49.26825" lon="1.13428">
        <ele>110</ele>
        <time>2016-07-10T09:03:53.008Z</time>
      </trkpt>
      <trkpt lat="49.2682" lon="1.13425">
        <ele>110</ele>
        <time>2016-07-10T09:03:54.008Z</time>
      </trkpt>
      <trkpt lat="49.26814" lon="1.13423">
        <ele>109</ele>
        <time>2016-07-10T09:03:55.008Z</time>
      </trkpt>
      <trkpt lat="49.26809" lon="1.1342">
        <ele>108</ele>
        <time>2016-07-10T09:03:56.008Z</time>
      </trkpt>
      <trkpt lat="49.26804" lon="1.13418">
        <ele>107</ele>
        <time>2016-07-10T09:03:57.008Z</time>
      </trkpt>
      <trkpt lat="49.26798" lon="1.13416">
        <ele>106</ele>
        <time>2016-07-10T09:03:58.008Z</time>
      </trkpt>
      <trkpt lat="49.26793" lon="1.13413">
        <ele>105</ele>
        <time>2016-07-10T09:03:59.008Z</time>
      </trkpt>
      <trkpt lat="49.26788" lon="1.13411">
        <ele>104</ele>
        <time>2016-07-10T09:04:00.008Z</time>
      </trkpt>
      <trkpt lat="49.26783" lon="1.13409">
        <ele>103</ele>
        <time>2016-07-10T09:04:01.008Z</time>
      </trkpt>
      <trkpt lat="49.26778" lon="1.13406">
        <ele>104</ele>
        <time>2016-07-10T09:04:02.008Z</time>
      </trkpt>
      <trkpt lat="49.26772" lon="1.13403">
        <ele>104</ele>
        <time>2016-07-10T09:04:03.008Z</time>
      </trkpt>
      <trkpt lat="49.26767" lon="1.13401">
        <ele>104</ele>
        <time>2016-07-10T09:04:04.008Z</time>
      </trkpt>
      <trkpt lat="49.26761" lon="1.13398">
        <ele>104</ele>
        <time>2016-07-10T09:04:05.008Z</time>
      </trkpt>
      <trkpt lat="49.26755" lon="1.13395">
        <ele>102</ele>
        <time>2016-07-10T09:04:06.008Z</time>
      </trkpt>
      <trkpt lat="49.2675" lon="1.13393">
        <ele>101</ele>
        <time>2016-07-10T09:04:07.008Z</time>
      </trkpt>
      <trkpt lat="49.26744" lon="1.1339">
        <ele>100</ele>
        <time>2016-07-10T09:04:08.008Z</time>
      </trkpt>
      <trkpt lat="49.26739" lon="1.13388">
        <ele>100</ele>
        <time>2016-07-10T09:04:09.008Z</time>
      </trkpt>
      <trkpt lat="49.26733" lon="1.13386">
        <ele>100</ele>
        <time>2016-07-10T09:04:10.008Z</time>
      </trkpt>
      <trkpt lat="49.26728" lon="1.13383">
        <ele>99</ele>
        <time>2016-07-10T09:04:11.008Z</time>
      </trkpt>
      <trkpt lat="49.26723" lon="1.13381">
        <ele>98</ele>
        <time>2016-07-10T09:04:12.008Z</time>
      </trkpt>
      <trkpt lat="49.26718" lon="1.13379">
        <ele>98</ele>
        <time>2016-07-10T09:04:13.008Z</time>
      </trkpt>
      <trkpt lat="49.26712" lon="1.13376">
        <ele>98</ele>
        <time>2016-07-10T09:04:14.008Z</time>
      </trkpt>
      <trkpt lat="49.26707" lon="1.13374">
        <ele>97</ele>
        <time>2016-07-10T09:04:15.008Z</time>
      </trkpt>
      <trkpt lat="49.26701" lon="1.13371">
        <ele>97</ele>
        <time>2016-07-10T09:04:16.008Z</time>
      </trkpt>
      <trkpt lat="49.26695" lon="1.13369">
        <ele>96</ele>
        <time>2016-07-10T09:04:17.008Z</time>
      </trkpt>
      <trkpt lat="49.26689" lon="1.13366">
        <ele>98</ele>
        <time>2016-07-10T09:04:18.008Z</time>
      </trkpt>
      <trkpt lat="49.26683" lon="1.13363">
        <ele>99</ele>
        <time>2016-07-10T09:04:19.008Z</time>
      </trkpt>
      <trkpt lat="49.26677" lon="1.13361">
        <ele>99</ele>
        <time>2016-07-10T09:04:20.008Z</time>
      </trkpt>
      <trkpt lat="49.2667" lon="1.13358">
        <ele>100</ele>
        <time>2016-07-10T09:04:21.008Z</time>
      </trkpt>
      <trkpt lat="49.26664" lon="1.13355">
        <ele>101</ele>
        <time>2016-07-10T09:04:22.008Z</time>
      </trkpt>
      <trkpt lat="49.26659" lon="1.13352">
        <ele>101</ele>
        <time>2016-07-10T09:04:23.008Z</time>
      </trkpt>
      <trkpt lat="49.26653" lon="1.13349">
        <ele>102</ele>
        <time>2016-07-10T09:04:24.008Z</time>
      </trkpt>
      <trkpt lat="49.26647" lon="1.13346">
        <ele>102</ele>
        <time>2016-07-10T09:04:25.008Z</time>
      </trkpt>
      <trkpt lat="49.26641" lon="1.13344">
        <ele>102</ele>
        <time>2016-07-10T09:04:26.008Z</time>
      </trkpt>
      <trkpt lat="49.26636" lon="1.13341">
        <ele>101</ele>
        <time>2016-07-10T09:04:27.008Z</time>
      </trkpt>
      <trkpt lat="49.2663" lon="1.13338">
        <ele>101</ele>
        <time>2016-07-10T09:04:28.008Z</time>
      </trkpt>
      <trkpt lat="49.26624" lon="1.13336">
        <ele>102</ele>
        <time>2016-07-10T09:04:29.008Z</time>
      </trkpt>
      <trkpt lat="49.26618" lon="1.13333">
        <ele>103</ele>
        <time>2016-07-10T09:04:30.008Z</time>
      </trkpt>
      <trkpt lat="49.26612" lon="1.13331">
        <ele>104</ele>
        <time>2016-07-10T09:04:31.008Z</time>
      </trkpt>
      <trkpt lat="49.26604" lon="1.13328">
        <ele>108</ele>
        <time>2016-07-10T09:04:32.008Z</time>
      </trkpt>
      <trkpt lat="49.26597" lon="1.13325">
        <ele>108</ele>
        <time>2016-07-10T09:04:33.008Z</time>
      </trkpt>
      <trkpt lat="49.2659" lon="1.13322">
        <ele>109</ele>
        <time>2016-07-10T09:04:34.008Z</time>
      </trkpt>
      <trkpt lat="49.26584" lon="1.13319">
        <ele>109</ele>
        <time>2016-07-10T09:04:35.008Z</time>
      </trkpt>
      <trkpt lat="49.26578" lon="1.13317">
        <ele>110</ele>
        <time>2016-07-10T09:04:36.008Z</time>
      </trkpt>
      <trkpt lat="49.26572" lon="1.13314">
        <ele>110</ele>
        <time>2016-07-10T09:04:37.008Z</time>
      </trkpt>
      <trkpt lat="49.26565" lon="1.13311">
        <ele>112</ele>
        <time>2016-07-10T09:04:38.008Z</time>
      </trkpt>
      <trkpt lat="49.26559" lon="1.13308">
        <ele>112</ele>
        <time>2016-07-10T09:04:39.008Z</time>
      </trkpt>
      <trkpt lat="49.26553" lon="1.13305">
        <ele>113</ele>
        <time>2016-07-10T09:04:40.008Z</time>
      </trkpt>
      <trkpt lat="49.26546" lon="1.13302">
        <ele>113</ele>
        <time>2016-07-10T09:04:41.008Z</time>
      </trkpt>
      <trkpt lat="49.2654" lon="1.13299">
        <ele>113</ele>
        <time>2016-07-10T09:04:42.008Z</time>
      </trkpt>
      <trkpt lat="49.26534" lon="1.13296">
        <ele>112</ele>
        <time>2016-07-10T09:04:43.008Z</time>
      </trkpt>
      <trkpt lat="49.26529" lon="1.13294">
        <ele>112</ele>
        <time>2016-07-10T09:04:44.008Z</time>
      </trkpt>
      <trkpt lat="49.26523" lon="1.13291">
        <ele>112</ele>
        <time>2016-07-10T09:04:45.008Z</time>
      </trkpt>
      <trkpt lat="49.26517" lon="1.13289">
        <ele>110</ele>
        <time>2016-07-10T09:04:46.008Z</time>
      </trkpt>
      <trkpt lat="49.26511" lon="1.13286">
        <ele>110</ele>
        <time>2016-07-10T09:04:47.008Z</time>
      </trkpt>
      <trkpt lat="49.26505" lon="1.13283">
        <ele>110</ele>
        <time>2016-07-10T09:04:48.008Z</time>
      </trkpt>
      <trkpt lat="49.26499" lon="1.1328">
        <ele>109</ele>
        <time>2016-07-10T09:04:49.008Z</time>
      </trkpt>
      <trkpt lat="49.26493" lon="1.13277">
        <ele>109</ele>
        <time>2016-07-10T09:04:50.008Z</time>
      </trkpt>
      <trkpt lat="49.26487" lon="1.13274">
        <ele>109</ele>
        <time>2016-07-10T09:04:51.008Z</time>
      </trkpt>
      <trkpt lat="49.2648" lon="1.13272">
        <ele>109</ele>
        <time>2016-07-10T09:04:52.008Z</time>
      </trkpt>
      <trkpt lat="49.26474" lon="1.13269">
        <ele>110</ele>
        <time>2016-07-10T09:04:53.008Z</time>
      </trkpt>
      <trkpt lat="49.26467" lon="1.13267">
        <ele>110</ele>
        <time>2016-07-10T09:04:54.008Z</time>
      </trkpt>
      <trkpt lat="49.26461" lon="1.13265">
        <ele>111</ele>
        <time>2016-07-10T09:04:55.008Z</time>
      </trkpt>
      <trkpt lat="49.26454" lon="1.13262">
        <ele>112</ele>
        <time>2016-07-10T09:04:56.008Z</time>
      </trkpt>
      <trkpt lat="49.26448" lon="1.13259">
        <ele>112</ele>
        <time>2016-07-10T09:04:57.008Z</time>
      </trkpt>
      <trkpt lat="49.26441" lon="1.13256">
        <ele>112</ele>
        <time>2016-07-10T09:04:58.008Z</time>
      </trkpt>
      <trkpt lat="49.26435" lon="1.13254">
        <ele>111</ele>
        <time>2016-07-10T09:04:59.008Z</time>
      </trkpt>
      <trkpt lat="49.26429" lon="1.13252">
        <ele>110</ele>
        <time>2016-07-10T09:05:00.008Z</time>
      </trkpt>
      <trkpt lat="49.26424" lon="1.13251">
        <ele>110</ele>
        <time>2016-07-10T09:05:01.008Z</time>
      </trkpt>
      <trkpt lat="49.26419" lon="1.13251">
        <ele>111</ele>
        <time>2016-07-10T09:05:02.008Z</time>
      </trkpt>
      <trkpt lat="49.26413" lon="1.13251">
        <ele>111</ele>
        <time>2016-07-10T09:05:03.008Z</time>
      </trkpt>
      <trkpt lat="49.26408" lon="1.13252">
        <ele>110</ele>
        <time>2016-07-10T09:05:04.008Z</time>
      </trkpt>
      <trkpt lat="49.26402" lon="1.13253">
        <ele>110</ele>
        <time>2016-07-10T09:05:05.008Z</time>
      </trkpt>
      <trkpt lat="49.26396" lon="1.13255">
        <ele>111</ele>
        <time>2016-07-10T09:05:06.008Z</time>
      </trkpt>
      <trkpt lat="49.2639" lon="1.13257">
        <ele>112</ele>
        <time>2016-07-10T09:05:07.008Z</time>
      </trkpt>
      <trkpt lat="49.26385" lon="1.1326">
        <ele>112</ele>
        <time>2016-07-10T09:05:08.008Z</time>
      </trkpt>
      <trkpt lat="49.26379" lon="1.13262">
        <ele>112</ele>
        <time>2016-07-10T09:05:09.008Z</time>
      </trkpt>
      <trkpt lat="49.26374" lon="1.13264">
        <ele>112</ele>
        <time>2016-07-10T09:05:10.008Z</time>
      </trkpt>
      <trkpt lat="49.26368" lon="1.13266">
        <ele>112</ele>
        <time>2016-07-10T09:05:11.008Z</time>
      </trkpt>
      <trkpt lat="49.26363" lon="1.13268">
        <ele>113</ele>
        <time>2016-07-10T09:05:12.008Z</time>
      </trkpt>
      <trkpt lat="49.26358" lon="1.1327">
        <ele>113</ele>
        <time>2016-07-10T09:05:13.008Z</time>
      </trkpt>
      <trkpt lat="49.26352" lon="1.13272">
        <ele>113</ele>
        <time>2016-07-10T09:05:14.008Z</time>
      </trkpt>
      <trkpt lat="49.26346" lon="1.13274">
        <ele>113</ele>
        <time>2016-07-10T09:05:15.008Z</time>
      </trkpt>
      <trkpt lat="49.2634" lon="1.13277">
        <ele>114</ele>
        <time>2016-07-10T09:05:16.008Z</time>
      </trkpt>
      <trkpt lat="49.26335" lon="1.13279">
        <ele>113</ele>
        <time>2016-07-10T09:05:17.008Z</time>
      </trkpt>
      <trkpt lat="49.26329" lon="1.13281">
        <ele>113</ele>
        <time>2016-07-10T09:05:18.008Z</time>
      </trkpt>
      <trkpt lat="49.26323" lon="1.13283">
        <ele>113</ele>
        <time>2016-07-10T09:05:19.008Z</time>
      </trkpt>
      <trkpt lat="49.26317" lon="1.13286">
        <ele>113</ele>
        <time>2016-07-10T09:05:20.008Z</time>
      </trkpt>
      <trkpt lat="49.26311" lon="1.13289">
        <ele>113</ele>
        <time>2016-07-10T09:05:21.008Z</time>
      </trkpt>
      <trkpt lat="49.26305" lon="1.13291">
        <ele>113</ele>
        <time>2016-07-10T09:05:22.008Z</time>
      </trkpt>
      <trkpt lat="49.26299" lon="1.13294">
        <ele>113</ele>
        <time>2016-07-10T09:05:23.008Z</time>
      </trkpt>
      <trkpt lat="49.26292" lon="1.13296">
        <ele>114</ele>
        <time>2016-07-10T09:05:24.008Z</time>
      </trkpt>
      <trkpt lat="49.26286" lon="1.13298">
        <ele>115</ele>
        <time>2016-07-10T09:05:25.008Z</time>
      </trkpt>
      <trkpt lat="49.2628" lon="1.133">
        <ele>114</ele>
        <time>2016-07-10T09:05:26.008Z</time>
      </trkpt>
      <trkpt lat="49.26274" lon="1.13303">
        <ele>114</ele>
        <time>2016-07-10T09:05:27.008Z</time>
      </trkpt>
      <trkpt lat="49.26268" lon="1.13306">
        <ele>114</ele>
        <time>2016-07-10T09:05:28.008Z</time>
      </trkpt>
      <trkpt lat="49.26262" lon="1.13309">
        <ele>114</ele>
        <time>2016-07-10T09:05:29.008Z</time>
      </trkpt>
      <trkpt lat="49.26257" lon="1.13313">
        <ele>114</ele>
        <time>2016-07-10T09:05:30.008Z</time>
      </trkpt>
      <trkpt lat="49.26252" lon="1.13317">
        <ele>114</ele>
        <time>2016-07-10T09:05:31.008Z</time>
      </trkpt>
      <trkpt lat="49.26248" lon="1.1332">
        <ele>114</ele>
        <time>2016-07-10T09:05:32.008Z</time>
      </trkpt>
      <trkpt lat="49.26245" lon="1.13322">
        <ele>115</ele>
        <time>2016-07-10T09:05:33.008Z</time>
      </trkpt>
      <trkpt lat="49.26243" lon="1.13325">
        <ele>115</ele>
        <time>2016-07-10T09:05:34.008Z</time>
      </trkpt>
      <trkpt lat="49.26241" lon="1.13328">
        <ele>115</ele>
        <time>2016-07-10T09:05:35.008Z</time>
      </trkpt>
      <trkpt lat="49.2624" lon="1.1333">
        <ele>115</ele>
        <time>2016-07-10T09:05:36.008Z</time>
      </trkpt>
      <trkpt lat="49.26238" lon="1.13333">
        <ele>114</ele>
        <time>2016-07-10T09:05:37.008Z</time>
      </trkpt>
      <trkpt lat="49.26237" lon="1.13335">
        <ele>115</ele>
        <time>2016-07-10T09:05:38.008Z</time>
      </trkpt>
      <trkpt lat="49.26236" lon="1.13335">
        <ele>115</ele>
        <time>2016-07-10T09:05:39.008Z</time>
      </trkpt>
      <trkpt lat="49.26235" lon="1.13336">
        <ele>116</ele>
        <time>2016-07-10T09:05:40.008Z</time>
      </trkpt>
      <trkpt lat="49.26233" lon="1.13337">
        <ele>115</ele>
        <time>2016-07-10T09:05:41.008Z</time>
      </trkpt>
      <trkpt lat="49.2623" lon="1.13338">
        <ele>116</ele>
        <time>2016-07-10T09:05:42.008Z</time>
      </trkpt>
      <trkpt lat="49.26227" lon="1.1334">
        <ele>116</ele>
        <time>2016-07-10T09:05:43.008Z</time>
      </trkpt>
      <trkpt lat="49.26224" lon="1.13343">
        <ele>115</ele>
        <time>2016-07-10T09:05:44.008Z</time>
      </trkpt>
      <trkpt lat="49.26221" lon="1.13347">
        <ele>115</ele>
        <time>2016-07-10T09:05:45.008Z</time>
      </trkpt>
      <trkpt lat="49.26218" lon="1.13352">
        <ele>115</ele>
        <time>2016-07-10T09:05:46.008Z</time>
      </trkpt>
      <trkpt lat="49.26215" lon="1.13358">
        <ele>115</ele>
        <time>2016-07-10T09:05:47.008Z</time>
      </trkpt>
      <trkpt lat="49.26213" lon="1.13365">
        <ele>115</ele>
        <time>2016-07-10T09:05:48.008Z</time>
      </trkpt>
      <trkpt lat="49.26212" lon="1.13371">
        <ele>116</ele>
        <time>2016-07-10T09:05:49.008Z</time>
      </trkpt>
      <trkpt lat="49.26211" lon="1.13378">
        <ele>117</ele>
        <time>2016-07-10T09:05:50.008Z</time>
      </trkpt>
      <trkpt lat="49.26211" lon="1.13384">
        <ele>117</ele>
        <time>2016-07-10T09:05:51.008Z</time>
      </trkpt>
      <trkpt lat="49.26211" lon="1.13391">
        <ele>117</ele>
        <time>2016-07-10T09:05:52.008Z</time>
      </trkpt>
      <trkpt lat="49.26211" lon="1.13397">
        <ele>117</ele>
        <time>2016-07-10T09:05:53.008Z</time>
      </trkpt>
      <trkpt lat="49.26211" lon="1.13404">
        <ele>118</ele>
        <time>2016-07-10T09:05:54.008Z</time>
      </trkpt>
      <trkpt lat="49.26211" lon="1.13411">
        <ele>118</ele>
        <time>2016-07-10T09:05:55.008Z</time>
      </trkpt>
      <trkpt lat="49.26212" lon="1.13418">
        <ele>118</ele>
        <time>2016-07-10T09:05:56.008Z</time>
      </trkpt>
      <trkpt lat="49.26212" lon="1.13425">
        <ele>118</ele>
        <time>2016-07-10T09:05:57.008Z</time>
      </trkpt>
      <trkpt lat="49.26212" lon="1.13432">
        <ele>118</ele>
        <time>2016-07-10T09:05:58.008Z</time>
      </trkpt>
      <trkpt lat="49.26213" lon="1.1344">
        <ele>118</ele>
        <time>2016-07-10T09:05:59.008Z</time>
      </trkpt>
      <trkpt lat="49.26213" lon="1.13448">
        <ele>117</ele>
        <time>2016-07-10T09:06:00.008Z</time>
      </trkpt>
      <trkpt lat="49.26213" lon="1.13456">
        <ele>117</ele>
        <time>2016-07-10T09:06:01.008Z</time>
      </trkpt>
      <trkpt lat="49.26214" lon="1.13463">
        <ele>118</ele>
        <time>2016-07-10T09:06:02.008Z</time>
      </trkpt>
      <trkpt lat="49.26214" lon="1.13471">
        <ele>118</ele>
        <time>2016-07-10T09:06:03.008Z</time>
      </trkpt>
      <trkpt lat="49.26214" lon="1.13478">
        <ele>118</ele>
        <time>2016-07-10T09:06:04.008Z</time>
      </trkpt>
      <trkpt lat="49.26215" lon="1.13485">
        <ele>118</ele>
        <time>2016-07-10T09:06:05.008Z</time>
      </trkpt>
      <trkpt lat="49.26215" lon="1.13493">
        <ele>118</ele>
        <time>2016-07-10T09:06:06.008Z</time>
      </trkpt>
      <trkpt lat="49.26216" lon="1.135">
        <ele>118</ele>
        <time>2016-07-10T09:06:07.008Z</time>
      </trkpt>
      <trkpt lat="49.26216" lon="1.13507">
        <ele>118</ele>
        <time>2016-07-10T09:06:08.008Z</time>
      </trkpt>
      <trkpt lat="49.26217" lon="1.13514">
        <ele>118</ele>
        <time>2016-07-10T09:06:09.008Z</time>
      </trkpt>
      <trkpt lat="49.26217" lon="1.13521">
        <ele>118</ele>
        <time>2016-07-10T09:06:10.008Z</time>
      </trkpt>
      <trkpt lat="49.26217" lon="1.13527">
        <ele>118</ele>
        <time>2016-07-10T09:06:11.008Z</time>
      </trkpt>
      <trkpt lat="49.26218" lon="1.13534">
        <ele>118</ele>
        <time>2016-07-10T09:06:12.008Z</time>
      </trkpt>
      <trkpt lat="49.26218" lon="1.13541">
        <ele>118</ele>
        <time>2016-07-10T09:06:13.008Z</time>
      </trkpt>
      <trkpt lat="49.26218" lon="1.13547">
        <ele>118</ele>
        <time>2016-07-10T09:06:14.008Z</time>
      </trkpt>
      <trkpt lat="49.26219" lon="1.13553">
        <ele>118</ele>
        <time>2016-07-10T09:06:15.008Z</time>
      </trkpt>
      <trkpt lat="49.26219" lon="1.13559">
        <ele>118</ele>
        <time>2016-07-10T09:06:16.008Z</time>
      </trkpt>
      <trkpt lat="49.2622" lon="1.13565">
        <ele>119</ele>
        <time>2016-07-10T09:06:17.008Z</time>
      </trkpt>
      <trkpt lat="49.2622" lon="1.13571">
        <ele>119</ele>
        <time>2016-07-10T09:06:18.008Z</time>
      </trkpt>
      <trkpt lat="49.2622" lon="1.13577">
        <ele>118</ele>
        <time>2016-07-10T09:06:19.008Z</time>
      </trkpt>
      <trkpt lat="49.2622" lon="1.13583">
        <ele>118</ele>
        <time>2016-07-10T09:06:20.008Z</time>
      </trkpt>
      <trkpt lat="49.26218" lon="1.13588">
        <ele>118</ele>
        <time>2016-07-10T09:06:21.008Z</time>
      </trkpt>
      <trkpt lat="49.26214" lon="1.13592">
        <ele>117</ele>
        <time>2016-07-10T09:06:22.008Z</time>
      </trkpt>
      <trkpt lat="49.2621" lon="1.13596">
        <ele>116</ele>
        <time>2016-07-10T09:06:23.008Z</time>
      </trkpt>
      <trkpt lat="49.26206" lon="1.13597">
        <ele>118</ele>
        <time>2016-07-10T09:06:24.008Z</time>
      </trkpt>
      <trkpt lat="49.26203" lon="1.13597">
        <ele>117</ele>
        <time>2016-07-10T09:06:25.008Z</time>
      </trkpt>
      <trkpt lat="49.26199" lon="1.13597">
        <ele>117</ele>
        <time>2016-07-10T09:06:26.008Z</time>
      </trkpt>
      <trkpt lat="49.26197" lon="1.13597">
        <ele>116</ele>
        <time>2016-07-10T09:06:27.008Z</time>
      </trkpt>
      <trkpt lat="49.26194" lon="1.13597">
        <ele>115</ele>
        <time>2016-07-10T09:06:28.008Z</time>
      </trkpt>
      <trkpt lat="49.26192" lon="1.13597">
        <ele>115</ele>
        <time>2016-07-10T09:06:29.008Z</time>
      </trkpt>
      <trkpt lat="49.2619" lon="1.13596">
        <ele>115</ele>
        <time>2016-07-10T09:06:30.008Z</time>
      </trkpt>
      <trkpt lat="49.26189" lon="1.13595">
        <ele>114</ele>
        <time>2016-07-10T09:06:31.008Z</time>
      </trkpt>
      <trkpt lat="49.26188" lon="1.13593">
        <ele>114</ele>
        <time>2016-07-10T09:06:32.008Z</time>
      </trkpt>
      <trkpt lat="49.26186" lon="1.13592">
        <ele>113</ele>
        <time>2016-07-10T09:06:33.008Z</time>
      </trkpt>
      <trkpt lat="49.26183" lon="1.1359">
        <ele>112</ele>
        <time>2016-07-10T09:06:34.008Z</time>
      </trkpt>
      <trkpt lat="49.2618" lon="1.13588">
        <ele>111</ele>
        <time>2016-07-10T09:06:35.008Z</time>
      </trkpt>
      <trkpt lat="49.26175" lon="1.13585">
        <ele>111</ele>
        <time>2016-07-10T09:06:36.008Z</time>
      </trkpt>
      <trkpt lat="49.2617" lon="1.13582">
        <ele>109</ele>
        <time>2016-07-10T09:06:37.008Z</time>
      </trkpt>
      <trkpt lat="49.26164" lon="1.1358">
        <ele>106</ele>
        <time>2016-07-10T09:06:38.008Z</time>
      </trkpt>
      <trkpt lat="49.26159" lon="1.13577">
        <ele>104</ele>
        <time>2016-07-10T09:06:39.008Z</time>
      </trkpt>
      <trkpt lat="49.26153" lon="1.13575">
        <ele>103</ele>
        <time>2016-07-10T09:06:40.008Z</time>
      </trkpt>
      <trkpt lat="49.26147" lon="1.13572">
        <ele>103</ele>
        <time>2016-07-10T09:06:41.008Z</time>
      </trkpt>
      <trkpt lat="49.26141" lon="1.1357">
        <ele>102</ele>
        <time>2016-07-10T09:06:42.008Z</time>
      </trkpt>
      <trkpt lat="49.26136" lon="1.13567">
        <ele>102</ele>
        <time>2016-07-10T09:06:43.008Z</time>
      </trkpt>
      <trkpt lat="49.2613" lon="1.13565">
        <ele>101</ele>
        <time>2016-07-10T09:06:44.008Z</time>
      </trkpt>
      <trkpt lat="49.26125" lon="1.13562">
        <ele>101</ele>
        <time>2016-07-10T09:06:45.008Z</time>
      </trkpt>
      <trkpt lat="49.2612" lon="1.1356">
        <ele>99</ele>
        <time>2016-07-10T09:06:46.008Z</time>
      </trkpt>
      <trkpt lat="49.26114" lon="1.13557">
        <ele>99</ele>
        <time>2016-07-10T09:06:47.008Z</time>
      </trkpt>
      <trkpt lat="49.26108" lon="1.13554">
        <ele>100</ele>
        <time>2016-07-10T09:06:48.008Z</time>
      </trkpt>
      <trkpt lat="49.26103" lon="1.13552">
        <ele>101</ele>
        <time>2016-07-10T09:06:49.008Z</time>
      </trkpt>
      <trkpt lat="49.26097" lon="1.13549">
        <ele>102</ele>
        <time>2016-07-10T09:06:50.008Z</time>
      </trkpt>
      <trkpt lat="49.26091" lon="1.13547">
        <ele>104</ele>
        <time>2016-07-10T09:06:51.008Z</time>
      </trkpt>
      <trkpt lat="49.26085" lon="1.13544">
        <ele>106</ele>
        <time>2016-07-10T09:06:52.008Z</time>
      </trkpt>
      <trkpt lat="49.26079" lon="1.13542">
        <ele>107</ele>
        <time>2016-07-10T09:06:53.008Z</time>
      </trkpt>
      <trkpt lat="49.26074" lon="1.1354">
        <ele>108</ele>
        <time>2016-07-10T09:06:54.008Z</time>
      </trkpt>
      <trkpt lat="49.26068" lon="1.13538">
        <ele>108</ele>
        <time>2016-07-10T09:06:55.008Z</time>
      </trkpt>
      <trkpt lat="49.26062" lon="1.13535">
        <ele>109</ele>
        <time>2016-07-10T09:06:56.008Z</time>
      </trkpt>
      <trkpt lat="49.26057" lon="1.13533">
        <ele>109</ele>
        <time>2016-07-10T09:06:57.008Z</time>
      </trkpt>
      <trkpt lat="49.26051" lon="1.1353">
        <ele>110</ele>
        <time>2016-07-10T09:06:58.008Z</time>
      </trkpt>
      <trkpt lat="49.26046" lon="1.13528">
        <ele>111</ele>
        <time>2016-07-10T09:06:59.008Z</time>
      </trkpt>
      <trkpt lat="49.2604" lon="1.13525">
        <ele>112</ele>
        <time>2016-07-10T09:07:00.008Z</time>
      </trkpt>
      <trkpt lat="49.26034" lon="1.13522">
        <ele>113</ele>
        <time>2016-07-10T09:07:01.008Z</time>
      </trkpt>
      <trkpt lat="49.26029" lon="1.1352">
        <ele>113</ele>
        <time>2016-07-10T09:07:02.008Z</time>
      </trkpt>
      <trkpt lat="49.26023" lon="1.13517">
        <ele>113</ele>
        <time>2016-07-10T09:07:03.008Z</time>
      </trkpt>
      <trkpt lat="49.26017" lon="1.13515">
        <ele>114</ele>
        <time>2016-07-10T09:07:04.008Z</time>
      </trkpt>
      <trkpt lat="49.26012" lon="1.13512">
        <ele>114</ele>
        <time>2016-07-10T09:07:05.008Z</time>
      </trkpt>
      <trkpt lat="49.26006" lon="1.1351">
        <ele>114</ele>
        <time>2016-07-10T09:07:06.008Z</time>
      </trkpt>
      <trkpt lat="49.26" lon="1.13507">
        <ele>115</ele>
        <time>2016-07-10T09:07:07.008Z</time>
      </trkpt>
      <trkpt lat="49.25994" lon="1.13504">
        <ele>115</ele>
        <time>2016-07-10T09:07:08.008Z</time>
      </trkpt>
      <trkpt lat="49.25988" lon="1.13501">
        <ele>115</ele>
        <time>2016-07-10T09:07:09.008Z</time>
      </trkpt>
      <trkpt lat="49.25982" lon="1.13498">
        <ele>115</ele>
        <time>2016-07-10T09:07:10.008Z</time>
      </trkpt>
      <trkpt lat="49.25977" lon="1.13496">
        <ele>115</ele>
        <time>2016-07-10T09:07:11.008Z</time>
      </trkpt>
      <trkpt lat="49.25971" lon="1.13493">
        <ele>116</ele>
        <time>2016-07-10T09:07:12.008Z</time>
      </trkpt>
      <trkpt lat="49.25967" lon="1.13491">
        <ele>116</ele>
        <time>2016-07-10T09:07:13.008Z</time>
      </trkpt>
      <trkpt lat="49.25962" lon="1.13489">
        <ele>115</ele>
        <time>2016-07-10T09:07:14.008Z</time>
      </trkpt>
      <trkpt lat="49.25957" lon="1.13487">
        <ele>115</ele>
        <time>2016-07-10T09:07:15.008Z</time>
      </trkpt>
      <trkpt lat="49.25952" lon="1.13485">
        <ele>115</ele>
        <time>2016-07-10T09:07:16.008Z</time>
      </trkpt>
      <trkpt lat="49.25946" lon="1.13483">
        <ele>115</ele>
        <time>2016-07-10T09:07:17.008Z</time>
      </trkpt>
      <trkpt lat="49.25941" lon="1.13481">
        <ele>114</ele>
        <time>2016-07-10T09:07:18.008Z</time>
      </trkpt>
      <trkpt lat="49.25937" lon="1.13479">
        <ele>114</ele>
        <time>2016-07-10T09:07:19.008Z</time>
      </trkpt>
      <trkpt lat="49.25932" lon="1.13477">
        <ele>114</ele>
        <time>2016-07-10T09:07:20.008Z</time>
      </trkpt>
      <trkpt lat="49.25927" lon="1.13474">
        <ele>114</ele>
        <time>2016-07-10T09:07:21.008Z</time>
      </trkpt>
      <trkpt lat="49.25922" lon="1.13472">
        <ele>113</ele>
        <time>2016-07-10T09:07:22.008Z</time>
      </trkpt>
      <trkpt lat="49.25917" lon="1.13469">
        <ele>114</ele>
        <time>2016-07-10T09:07:23.008Z</time>
      </trkpt>
      <trkpt lat="49.25912" lon="1.13467">
        <ele>115</ele>
        <time>2016-07-10T09:07:24.008Z</time>
      </trkpt>
      <trkpt lat="49.25907" lon="1.13464">
        <ele>114</ele>
        <time>2016-07-10T09:07:25.008Z</time>
      </trkpt>
      <trkpt lat="49.25902" lon="1.13461">
        <ele>114</ele>
        <time>2016-07-10T09:07:26.008Z</time>
      </trkpt>
      <trkpt lat="49.25897" lon="1.13459">
        <ele>115</ele>
        <time>2016-07-10T09:07:27.008Z</time>
      </trkpt>
      <trkpt lat="49.25892" lon="1.13457">
        <ele>115</ele>
        <time>2016-07-10T09:07:28.008Z</time>
      </trkpt>
      <trkpt lat="49.25887" lon="1.13454">
        <ele>115</ele>
        <time>2016-07-10T09:07:29.008Z</time>
      </trkpt>
      <trkpt lat="49.25882" lon="1.13452">
        <ele>115</ele>
        <time>2016-07-10T09:07:30.008Z</time>
      </trkpt>
      <trkpt lat="49.25877" lon="1.1345">
        <ele>115</ele>
        <time>2016-07-10T09:07:31.008Z</time>
      </trkpt>
      <trkpt lat="49.25872" lon="1.13448">
        <ele>114</ele>
        <time>2016-07-10T09:07:32.008Z</time>
      </trkpt>
      <trkpt lat="49.25867" lon="1.13446">
        <ele>114</ele>
        <time>2016-07-10T09:07:33.008Z</time>
      </trkpt>
      <trkpt lat="49.25863" lon="1.13444">
        <ele>114</ele>
        <time>2016-07-10T09:07:34.008Z</time>
      </trkpt>
      <trkpt lat="49.25858" lon="1.13442">
        <ele>114</ele>
        <time>2016-07-10T09:07:35.008Z</time>
      </trkpt>
      <trkpt lat="49.25853" lon="1.1344">
        <ele>114</ele>
        <time>2016-07-10T09:07:36.008Z</time>
      </trkpt>
      <trkpt lat="49.25848" lon="1.13437">
        <ele>114</ele>
        <time>2016-07-10T09:07:37.008Z</time>
      </trkpt>
      <trkpt lat="49.25843" lon="1.13435">
        <ele>114</ele>
        <time>2016-07-10T09:07:38.008Z</time>
      </trkpt>
      <trkpt lat="49.25838" lon="1.13433">
        <ele>113</ele>
        <time>2016-07-10T09:07:39.008Z</time>
      </trkpt>
      <trkpt lat="49.25834" lon="1.13431">
        <ele>112</ele>
        <time>2016-07-10T09:07:40.008Z</time>
      </trkpt>
      <trkpt lat="49.25829" lon="1.13429">
        <ele>111</ele>
        <time>2016-07-10T09:07:41.008Z</time>
      </trkpt>
      <trkpt lat="49.25824" lon="1.13426">
        <ele>111</ele>
        <time>2016-07-10T09:07:42.008Z</time>
      </trkpt>
      <trkpt lat="49.25819" lon="1.13424">
        <ele>111</ele>
        <time>2016-07-10T09:07:43.008Z</time>
      </trkpt>
      <trkpt lat="49.25815" lon="1.13422">
        <ele>111</ele>
        <time>2016-07-10T09:07:44.008Z</time>
      </trkpt>
      <trkpt lat="49.2581" lon="1.1342">
        <ele>110</ele>
        <time>2016-07-10T09:07:45.008Z</time>
      </trkpt>
      <trkpt lat="49.25805" lon="1.13418">
        <ele>109</ele>
        <time>2016-07-10T09:07:46.008Z</time>
      </trkpt>
      <trkpt lat="49.258" lon="1.13416">
        <ele>109</ele>
        <time>2016-07-10T09:07:47.008Z</time>
      </trkpt>
      <trkpt lat="49.25795" lon="1.13414">
        <ele>108</ele>
        <time>2016-07-10T09:07:48.008Z</time>
      </trkpt>
      <trkpt lat="49.2579" lon="1.13411">
        <ele>108</ele>
        <time>2016-07-10T09:07:49.008Z</time>
      </trkpt>
      <trkpt lat="49.25785" lon="1.13409">
        <ele>107</ele>
        <time>2016-07-10T09:07:50.008Z</time>
      </trkpt>
      <trkpt lat="49.2578" lon="1.13406">
        <ele>108</ele>
        <time>2016-07-10T09:07:51.008Z</time>
      </trkpt>
      <trkpt lat="49.25775" lon="1.13404">
        <ele>107</ele>
        <time>2016-07-10T09:07:52.008Z</time>
      </trkpt>
      <trkpt lat="49.25769" lon="1.13401">
        <ele>108</ele>
        <time>2016-07-10T09:07:53.008Z</time>
      </trkpt>
      <trkpt lat="49.25764" lon="1.13398">
        <ele>107</ele>
        <time>2016-07-10T09:07:54.008Z</time>
      </trkpt>
      <trkpt lat="49.25759" lon="1.13396">
        <ele>108</ele>
        <time>2016-07-10T09:07:55.008Z</time>
      </trkpt>
      <trkpt lat="49.25754" lon="1.13394">
        <ele>108</ele>
        <time>2016-07-10T09:07:56.008Z</time>
      </trkpt>
      <trkpt lat="49.25748" lon="1.13392">
        <ele>108</ele>
        <time>2016-07-10T09:07:57.008Z</time>
      </trkpt>
      <trkpt lat="49.25743" lon="1.1339">
        <ele>109</ele>
        <time>2016-07-10T09:07:58.008Z</time>
      </trkpt>
      <trkpt lat="49.25737" lon="1.13388">
        <ele>109</ele>
        <time>2016-07-10T09:07:59.008Z</time>
      </trkpt>
      <trkpt lat="49.25732" lon="1.13385">
        <ele>109</ele>
        <time>2016-07-10T09:08:00.008Z</time>
      </trkpt>
      <trkpt lat="49.25727" lon="1.13383">
        <ele>110</ele>
        <time>2016-07-10T09:08:01.008Z</time>
      </trkpt>
      <trkpt lat="49.25721" lon="1.13381">
        <ele>109</ele>
        <time>2016-07-10T09:08:02.008Z</time>
      </trkpt>
      <trkpt lat="49.25716" lon="1.13379">
        <ele>109</ele>
        <time>2016-07-10T09:08:03.008Z</time>
      </trkpt>
      <trkpt lat="49.2571" lon="1.13377">
        <ele>109</ele>
        <time>2016-07-10T09:08:04.008Z</time>
      </trkpt>
      <trkpt lat="49.25705" lon="1.13375">
        <ele>109</ele>
        <time>2016-07-10T09:08:05.008Z</time>
      </trkpt>
      <trkpt lat="49.257" lon="1.13372">
        <ele>109</ele>
        <time>2016-07-10T09:08:06.008Z</time>
      </trkpt>
      <trkpt lat="49.25694" lon="1.1337">
        <ele>108</ele>
        <time>2016-07-10T09:08:07.008Z</time>
      </trkpt>
      <trkpt lat="49.25689" lon="1.13367">
        <ele>109</ele>
        <time>2016-07-10T09:08:08.008Z</time>
      </trkpt>
      <trkpt lat="49.25683" lon="1.13365">
        <ele>108</ele>
        <time>2016-07-10T09:08:09.008Z</time>
      </trkpt>
      <trkpt lat="49.25678" lon="1.13363">
        <ele>107</ele>
        <time>2016-07-10T09:08:10.008Z</time>
      </trkpt>
      <trkpt lat="49.25673" lon="1.13362">
        <ele>107</ele>
        <time>2016-07-10T09:08:11.008Z</time>
      </trkpt>
      <trkpt lat="49.25668" lon="1.1336">
        <ele>106</ele>
        <time>2016-07-10T09:08:12.008Z</time>
      </trkpt>
      <trkpt lat="49.25663" lon="1.13358">
        <ele>105</ele>
        <time>2016-07-10T09:08:13.008Z</time>
      </trkpt>
      <trkpt lat="49.25658" lon="1.13355">
        <ele>105</ele>
        <time>2016-07-10T09:08:14.008Z</time>
      </trkpt>
      <trkpt lat="49.25652" lon="1.13353">
        <ele>104</ele>
        <time>2016-07-10T09:08:15.008Z</time>
      </trkpt>
      <trkpt lat="49.25647" lon="1.1335">
        <ele>103</ele>
        <time>2016-07-10T09:08:16.008Z</time>
      </trkpt>
      <trkpt lat="49.25642" lon="1.13347">
        <ele>103</ele>
        <time>2016-07-10T09:08:17.008Z</time>
      </trkpt>
      <trkpt lat="49.25637" lon="1.13344">
        <ele>102</ele>
        <time>2016-07-10T09:08:18.008Z</time>
      </trkpt>
      <trkpt lat="49.25631" lon="1.13341">
        <ele>99</ele>
        <time>2016-07-10T09:08:19.008Z</time>
      </trkpt>
      <trkpt lat="49.25625" lon="1.13338">
        <ele>97</ele>
        <time>2016-07-10T09:08:20.008Z</time>
      </trkpt>
      <trkpt lat="49.2562" lon="1.13335">
        <ele>95</ele>
        <time>2016-07-10T09:08:21.008Z</time>
      </trkpt>
      <trkpt lat="49.25614" lon="1.13333">
        <ele>94</ele>
        <time>2016-07-10T09:08:22.008Z</time>
      </trkpt>
      <trkpt lat="49.25608" lon="1.1333">
        <ele>93</ele>
        <time>2016-07-10T09:08:23.008Z</time>
      </trkpt>
      <trkpt lat="49.25603" lon="1.13327">
        <ele>92</ele>
        <time>2016-07-10T09:08:24.008Z</time>
      </trkpt>
      <trkpt lat="49.25597" lon="1.13325">
        <ele>92</ele>
        <time>2016-07-10T09:08:25.008Z</time>
      </trkpt>
      <trkpt lat="49.25591" lon="1.13323">
        <ele>92</ele>
        <time>2016-07-10T09:08:26.008Z</time>
      </trkpt>
      <trkpt lat="49.25585" lon="1.1332">
        <ele>91</ele>
        <time>2016-07-10T09:08:27.008Z</time>
      </trkpt>
      <trkpt lat="49.2558" lon="1.13318">
        <ele>92</ele>
        <time>2016-07-10T09:08:28.008Z</time>
      </trkpt>
      <trkpt lat="49.25574" lon="1.13316">
        <ele>91</ele>
        <time>2016-07-10T09:08:29.008Z</time>
      </trkpt>
      <trkpt lat="49.25569" lon="1.13314">
        <ele>93</ele>
        <time>2016-07-10T09:08:30.008Z</time>
      </trkpt>
      <trkpt lat="49.25564" lon="1.13311">
        <ele>92</ele>
        <time>2016-07-10T09:08:31.008Z</time>
      </trkpt>
      <trkpt lat="49.25559" lon="1.13308">
        <ele>93</ele>
        <time>2016-07-10T09:08:32.008Z</time>
      </trkpt>
      <trkpt lat="49.25554" lon="1.13305">
        <ele>93</ele>
        <time>2016-07-10T09:08:33.008Z</time>
      </trkpt>
      <trkpt lat="49.25549" lon="1.13302">
        <ele>92</ele>
        <time>2016-07-10T09:08:34.008Z</time>
      </trkpt>
      <trkpt lat="49.25544" lon="1.133">
        <ele>92</ele>
        <time>2016-07-10T09:08:35.008Z</time>
      </trkpt>
      <trkpt lat="49.2554" lon="1.13297">
        <ele>92</ele>
        <time>2016-07-10T09:08:36.008Z</time>
      </trkpt>
      <trkpt lat="49.25535" lon="1.13295">
        <ele>92</ele>
        <time>2016-07-10T09:08:37.008Z</time>
      </trkpt>
      <trkpt lat="49.25531" lon="1.13293">
        <ele>91</ele>
        <time>2016-07-10T09:08:38.008Z</time>
      </trkpt>
      <trkpt lat="49.25526" lon="1.13291">
        <ele>92</ele>
        <time>2016-07-10T09:08:39.008Z</time>
      </trkpt>
      <trkpt lat="49.25521" lon="1.13289">
        <ele>94</ele>
        <time>2016-07-10T09:08:40.008Z</time>
      </trkpt>
      <trkpt lat="49.25516" lon="1.13287">
        <ele>95</ele>
        <time>2016-07-10T09:08:41.008Z</time>
      </trkpt>
      <trkpt lat="49.25511" lon="1.13285">
        <ele>95</ele>
        <time>2016-07-10T09:08:42.008Z</time>
      </trkpt>
      <trkpt lat="49.25506" lon="1.13283">
        <ele>95</ele>
        <time>2016-07-10T09:08:43.008Z</time>
      </trkpt>
      <trkpt lat="49.25501" lon="1.13281">
        <ele>95</ele>
        <time>2016-07-10T09:08:44.008Z</time>
      </trkpt>
      <trkpt lat="49.25496" lon="1.1328">
        <ele>93</ele>
        <time>2016-07-10T09:08:45.008Z</time>
      </trkpt>
      <trkpt lat="49.25492" lon="1.13278">
        <ele>93</ele>
        <time>2016-07-10T09:08:46.008Z</time>
      </trkpt>
      <trkpt lat="49.25487" lon="1.13276">
        <ele>93</ele>
        <time>2016-07-10T09:08:47.008Z</time>
      </trkpt>
      <trkpt lat="49.25482" lon="1.13275">
        <ele>93</ele>
        <time>2016-07-10T09:08:48.008Z</time>
      </trkpt>
      <trkpt lat="49.25477" lon="1.13273">
        <ele>94</ele>
        <time>2016-07-10T09:08:49.008Z</time>
      </trkpt>
      <trkpt lat="49.25472" lon="1.13271">
        <ele>93</ele>
        <time>2016-07-10T09:08:50.008Z</time>
      </trkpt>
      <trkpt lat="49.25466" lon="1.13268">
        <ele>91</ele>
        <time>2016-07-10T09:08:51.008Z</time>
      </trkpt>
      <trkpt lat="49.2546" lon="1.13265">
        <ele>90</ele>
        <time>2016-07-10T09:08:52.008Z</time>
      </trkpt>
      <trkpt lat="49.25454" lon="1.13263">
        <ele>89</ele>
        <time>2016-07-10T09:08:53.008Z</time>
      </trkpt>
      <trkpt lat="49.25448" lon="1.1326">
        <ele>87</ele>
        <time>2016-07-10T09:08:54.008Z</time>
      </trkpt>
      <trkpt lat="49.25442" lon="1.13257">
        <ele>85</ele>
        <time>2016-07-10T09:08:55.008Z</time>
      </trkpt>
      <trkpt lat="49.25436" lon="1.13255">
        <ele>83</ele>
        <time>2016-07-10T09:08:56.008Z</time>
      </trkpt>
      <trkpt lat="49.2543" lon="1.13252">
        <ele>82</ele>
        <time>2016-07-10T09:08:57.008Z</time>
      </trkpt>
      <trkpt lat="49.25424" lon="1.13249">
        <ele>81</ele>
        <time>2016-07-10T09:08:58.008Z</time>
      </trkpt>
      <trkpt lat="49.25418" lon="1.13247">
        <ele>80</ele>
        <time>2016-07-10T09:08:59.008Z</time>
      </trkpt>
      <trkpt lat="49.25413" lon="1.13244">
        <ele>78</ele>
        <time>2016-07-10T09:09:00.008Z</time>
      </trkpt>
      <trkpt lat="49.25409" lon="1.13242">
        <ele>76</ele>
        <time>2016-07-10T09:09:01.008Z</time>
      </trkpt>
      <trkpt lat="49.25405" lon="1.13239">
        <ele>78</ele>
        <time>2016-07-10T09:09:02.008Z</time>
      </trkpt>
      <trkpt lat="49.25401" lon="1.13235">
        <ele>78</ele>
        <time>2016-07-10T09:09:03.008Z</time>
      </trkpt>
      <trkpt lat="49.25399" lon="1.1323">
        <ele>77</ele>
        <time>2016-07-10T09:09:04.008Z</time>
      </trkpt>
      <trkpt lat="49.25397" lon="1.13225">
        <ele>75</ele>
        <time>2016-07-10T09:09:05.008Z</time>
      </trkpt>
      <trkpt lat="49.25396" lon="1.13219">
        <ele>75</ele>
        <time>2016-07-10T09:09:06.008Z</time>
      </trkpt>
      <trkpt lat="49.25396" lon="1.13213">
        <ele>75</ele>
        <time>2016-07-10T09:09:07.008Z</time>
      </trkpt>
      <trkpt lat="49.25396" lon="1.13206">
        <ele>76</ele>
        <time>2016-07-10T09:09:08.008Z</time>
      </trkpt>
      <trkpt lat="49.25396" lon="1.13199">
        <ele>76</ele>
        <time>2016-07-10T09:09:09.008Z</time>
      </trkpt>
      <trkpt lat="49.25394" lon="1.13193">
        <ele>77</ele>
        <time>2016-07-10T09:09:10.008Z</time>
      </trkpt>
      <trkpt lat="49.25393" lon="1.13188">
        <ele>77</ele>
        <time>2016-07-10T09:09:11.008Z</time>
      </trkpt>
      <trkpt lat="49.25392" lon="1.13181">
        <ele>78</ele>
        <time>2016-07-10T09:09:12.008Z</time>
      </trkpt>
      <trkpt lat="49.25392" lon="1.13175">
        <ele>79</ele>
        <time>2016-07-10T09:09:13.008Z</time>
      </trkpt>
      <trkpt lat="49.25391" lon="1.13169">
        <ele>80</ele>
        <time>2016-07-10T09:09:14.008Z</time>
      </trkpt>
      <trkpt lat="49.25391" lon="1.13162">
        <ele>80</ele>
        <time>2016-07-10T09:09:15.008Z</time>
      </trkpt>
      <trkpt lat="49.2539" lon="1.13156">
        <ele>80</ele>
        <time>2016-07-10T09:09:16.008Z</time>
      </trkpt>
      <trkpt lat="49.25389" lon="1.1315">
        <ele>79</ele>
        <time>2016-07-10T09:09:17.008Z</time>
      </trkpt>
      <trkpt lat="49.25388" lon="1.13143">
        <ele>80</ele>
        <time>2016-07-10T09:09:18.008Z</time>
      </trkpt>
      <trkpt lat="49.25386" lon="1.13136">
        <ele>80</ele>
        <time>2016-07-10T09:09:19.008Z</time>
      </trkpt>
      <trkpt lat="49.25385" lon="1.13129">
        <ele>80</ele>
        <time>2016-07-10T09:09:20.008Z</time>
      </trkpt>
      <trkpt lat="49.25385" lon="1.13121">
        <ele>81</ele>
        <time>2016-07-10T09:09:21.008Z</time>
      </trkpt>
      <trkpt lat="49.25385" lon="1.13112">
        <ele>82</ele>
        <time>2016-07-10T09:09:22.008Z</time>
      </trkpt>
      <trkpt lat="49.25387" lon="1.13104">
        <ele>82</ele>
        <time>2016-07-10T09:09:23.008Z</time>
      </trkpt>
      <trkpt lat="49.25388" lon="1.13096">
        <ele>81</ele>
        <time>2016-07-10T09:09:24.008Z</time>
      </trkpt>
      <trkpt lat="49.25389" lon="1.13088">
        <ele>82</ele>
        <time>2016-07-10T09:09:25.008Z</time>
      </trkpt>
      <trkpt lat="49.25389" lon="1.13081">
        <ele>82</ele>
        <time>2016-07-10T09:09:26.008Z</time>
      </trkpt>
      <trkpt lat="49.25389" lon="1.13073">
        <ele>83</ele>
        <time>2016-07-10T09:09:27.008Z</time>
      </trkpt>
      <trkpt lat="49.25388" lon="1.13066">
        <ele>84</ele>
        <time>2016-07-10T09:09:28.008Z</time>
      </trkpt>
      <trkpt lat="49.25386" lon="1.13058">
        <ele>84</ele>
        <time>2016-07-10T09:09:29.008Z</time>
      </trkpt>
      <trkpt lat="49.25385" lon="1.1305">
        <ele>85</ele>
        <time>2016-07-10T09:09:30.008Z</time>
      </trkpt>
      <trkpt lat="49.25386" lon="1.13042">
        <ele>86</ele>
        <time>2016-07-10T09:09:31.008Z</time>
      </trkpt>
      <trkpt lat="49.25386" lon="1.13035">
        <ele>87</ele>
        <time>2016-07-10T09:09:32.008Z</time>
      </trkpt>
      <trkpt lat="49.25385" lon="1.13028">
        <ele>88</ele>
        <time>2016-07-10T09:09:33.008Z</time>
      </trkpt>
      <trkpt lat="49.25382" lon="1.13022">
        <ele>88</ele>
        <time>2016-07-10T09:09:34.008Z</time>
      </trkpt>
      <trkpt lat="49.25379" lon="1.13016">
        <ele>89</ele>
        <time>2016-07-10T09:09:35.008Z</time>
      </trkpt>
      <trkpt lat="49.25375" lon="1.13009">
        <ele>89</ele>
        <time>2016-07-10T09:09:36.008Z</time>
      </trkpt>
      <trkpt lat="49.2537" lon="1.13001">
        <ele>89</ele>
        <time>2016-07-10T09:09:37.008Z</time>
      </trkpt>
      <trkpt lat="49.25366" lon="1.12993">
        <ele>89</ele>
        <time>2016-07-10T09:09:38.008Z</time>
      </trkpt>
      <trkpt lat="49.25361" lon="1.12986">
        <ele>87</ele>
        <time>2016-07-10T09:09:39.008Z</time>
      </trkpt>
      <trkpt lat="49.25356" lon="1.12977">
        <ele>86</ele>
        <time>2016-07-10T09:09:40.008Z</time>
      </trkpt>
      <trkpt lat="49.25352" lon="1.12969">
        <ele>85</ele>
        <time>2016-07-10T09:09:41.008Z</time>
      </trkpt>
      <trkpt lat="49.25348" lon="1.12961">
        <ele>85</ele>
        <time>2016-07-10T09:09:42.008Z</time>
      </trkpt>
      <trkpt lat="49.25344" lon="1.12953">
        <ele>85</ele>
        <time>2016-07-10T09:09:43.008Z</time>
      </trkpt>
      <trkpt lat="49.2534" lon="1.12945">
        <ele>85</ele>
        <time>2016-07-10T09:09:44.008Z</time>
      </trkpt>
      <trkpt lat="49.25336" lon="1.12937">
        <ele>84</ele>
        <time>2016-07-10T09:09:45.008Z</time>
      </trkpt>
      <trkpt lat="49.25332" lon="1.12929">
        <ele>84</ele>
        <time>2016-07-10T09:09:46.008Z</time>
      </trkpt>
      <trkpt lat="49.25328" lon="1.1292">
        <ele>83</ele>
        <time>2016-07-10T09:09:47.008Z</time>
      </trkpt>
      <trkpt lat="49.25324" lon="1.12913">
        <ele>83</ele>
        <time>2016-07-10T09:09:48.008Z</time>
      </trkpt>
      <trkpt lat="49.25319" lon="1.12907">
        <ele>81</ele>
        <time>2016-07-10T09:09:49.008Z</time>
      </trkpt>
      <trkpt lat="49.25314" lon="1.12902">
        <ele>81</ele>
        <time>2016-07-10T09:09:50.008Z</time>
      </trkpt>
      <trkpt lat="49.25309" lon="1.12898">
        <ele>80</ele>
        <time>2016-07-10T09:09:51.008Z</time>
      </trkpt>
      <trkpt lat="49.25304" lon="1.12895">
        <ele>80</ele>
        <time>2016-07-10T09:09:52.008Z</time>
      </trkpt>
      <trkpt lat="49.25299" lon="1.12891">
        <ele>80</ele>
        <time>2016-07-10T09:09:53.008Z</time>
      </trkpt>
      <trkpt lat="49.25295" lon="1.12886">
        <ele>80</ele>
        <time>2016-07-10T09:09:54.008Z</time>
      </trkpt>
      <trkpt lat="49.25292" lon="1.12881">
        <ele>80</ele>
        <time>2016-07-10T09:09:55.008Z</time>
      </trkpt>
      <trkpt lat="49.2529" lon="1.12875">
        <ele>81</ele>
        <time>2016-07-10T09:09:56.008Z</time>
      </trkpt>
      <trkpt lat="49.25287" lon="1.1287">
        <ele>82</ele>
        <time>2016-07-10T09:09:57.008Z</time>
      </trkpt>
      <trkpt lat="49.25285" lon="1.12864">
        <ele>81</ele>
        <time>2016-07-10T09:09:58.008Z</time>
      </trkpt>
      <trkpt lat="49.25283" lon="1.12858">
        <ele>82</ele>
        <time>2016-07-10T09:09:59.008Z</time>
      </trkpt>
      <trkpt lat="49.25281" lon="1.12853">
        <ele>82</ele>
        <time>2016-07-10T09:10:00.008Z</time>
      </trkpt>
      <trkpt lat="49.25277" lon="1.12849">
        <ele>83</ele>
        <time>2016-07-10T09:10:01.008Z</time>
      </trkpt>
      <trkpt lat="49.25273" lon="1.12845">
        <ele>83</ele>
        <time>2016-07-10T09:10:02.008Z</time>
      </trkpt>
      <trkpt lat="49.25269" lon="1.12842">
        <ele>83</ele>
        <time>2016-07-10T09:10:03.008Z</time>
      </trkpt>
      <trkpt lat="49.25265" lon="1.12838">
        <ele>83</ele>
        <time>2016-07-10T09:10:04.008Z</time>
      </trkpt>
      <trkpt lat="49.25261" lon="1.12832">
        <ele>83</ele>
        <time>2016-07-10T09:10:05.008Z</time>
      </trkpt>
      <trkpt lat="49.25257" lon="1.12826">
        <ele>84</ele>
        <time>2016-07-10T09:10:06.008Z</time>
      </trkpt>
      <trkpt lat="49.25254" lon="1.12818">
        <ele>84</ele>
        <time>2016-07-10T09:10:07.008Z</time>
      </trkpt>
      <trkpt lat="49.25252" lon="1.12811">
        <ele>83</ele>
        <time>2016-07-10T09:10:08.008Z</time>
      </trkpt>
      <trkpt lat="49.25248" lon="1.12804">
        <ele>83</ele>
        <time>2016-07-10T09:10:09.008Z</time>
      </trkpt>
      <trkpt lat="49.25245" lon="1.12797">
        <ele>83</ele>
        <time>2016-07-10T09:10:10.008Z</time>
      </trkpt>
      <trkpt lat="49.25243" lon="1.12789">
        <ele>84</ele>
        <time>2016-07-10T09:10:11.008Z</time>
      </trkpt>
      <trkpt lat="49.2524" lon="1.12781">
        <ele>84</ele>
        <time>2016-07-10T09:10:12.008Z</time>
      </trkpt>
      <trkpt lat="49.25237" lon="1.12774">
        <ele>84</ele>
        <time>2016-07-10T09:10:13.008Z</time>
      </trkpt>
      <trkpt lat="49.25235" lon="1.12767">
        <ele>85</ele>
        <time>2016-07-10T09:10:14.008Z</time>
      </trkpt>
      <trkpt lat="49.25232" lon="1.1276">
        <ele>85</ele>
        <time>2016-07-10T09:10:15.008Z</time>
      </trkpt>
      <trkpt lat="49.2523" lon="1.12754">
        <ele>85</ele>
        <time>2016-07-10T09:10:16.008Z</time>
      </trkpt>
      <trkpt lat="49.25228" lon="1.12748">
        <ele>85</ele>
        <time>2016-07-10T09:10:17.008Z</time>
      </trkpt>
      <trkpt lat="49.25225" lon="1.12742">
        <ele>84</ele>
        <time>2016-07-10T09:10:18.008Z</time>
      </trkpt>
      <trkpt lat="49.25222" lon="1.12736">
        <ele>84</ele>
        <time>2016-07-10T09:10:19.008Z</time>
      </trkpt>
      <trkpt lat="49.2522" lon="1.12731">
        <ele>85</ele>
        <time>2016-07-10T09:10:20.008Z</time>
      </trkpt>
      <trkpt lat="49.25221" lon="1.12727">
        <ele>85</ele>
        <time>2016-07-10T09:10:21.008Z</time>
      </trkpt>
      <trkpt lat="49.25223" lon="1.12724">
        <ele>85</ele>
        <time>2016-07-10T09:10:22.008Z</time>
      </trkpt>
      <trkpt lat="49.25223" lon="1.12719">
        <ele>86</ele>
        <time>2016-07-10T09:10:23.008Z</time>
      </trkpt>
      <trkpt lat="49.25223" lon="1.12713">
        <ele>86</ele>
        <time>2016-07-10T09:10:24.008Z</time>
      </trkpt>
      <trkpt lat="49.25221" lon="1.12707">
        <ele>86</ele>
        <time>2016-07-10T09:10:25.008Z</time>
      </trkpt>
      <trkpt lat="49.25218" lon="1.12702">
        <ele>86</ele>
        <time>2016-07-10T09:10:26.008Z</time>
      </trkpt>
      <trkpt lat="49.25216" lon="1.12697">
        <ele>86</ele>
        <time>2016-07-10T09:10:27.008Z</time>
      </trkpt>
      <trkpt lat="49.25212" lon="1.12693">
        <ele>86</ele>
        <time>2016-07-10T09:10:28.008Z</time>
      </trkpt>
      <trkpt lat="49.2521" lon="1.12688">
        <ele>86</ele>
        <time>2016-07-10T09:10:29.008Z</time>
      </trkpt>
      <trkpt lat="49.25209" lon="1.12682">
        <ele>86</ele>
        <time>2016-07-10T09:10:30.008Z</time>
      </trkpt>
      <trkpt lat="49.25208" lon="1.12677">
        <ele>86</ele>
        <time>2016-07-10T09:10:31.008Z</time>
      </trkpt>
      <trkpt lat="49.25208" lon="1.1267">
        <ele>86</ele>
        <time>2016-07-10T09:10:32.008Z</time>
      </trkpt>
      <trkpt lat="49.25206" lon="1.12664">
        <ele>86</ele>
        <time>2016-07-10T09:10:33.008Z</time>
      </trkpt>
      <trkpt lat="49.25205" lon="1.12658">
        <ele>86</ele>
        <time>2016-07-10T09:10:34.008Z</time>
      </trkpt>
      <trkpt lat="49.25203" lon="1.12652">
        <ele>85</ele>
        <time>2016-07-10T09:10:35.008Z</time>
      </trkpt>
      <trkpt lat="49.252" lon="1.12645">
        <ele>84</ele>
        <time>2016-07-10T09:10:36.008Z</time>
      </trkpt>
      <trkpt lat="49.25198" lon="1.12638">
        <ele>84</ele>
        <time>2016-07-10T09:10:37.008Z</time>
      </trkpt>
      <trkpt lat="49.25197" lon="1.12632">
        <ele>84</ele>
        <time>2016-07-10T09:10:38.008Z</time>
      </trkpt>
      <trkpt lat="49.25197" lon="1.12628">
        <ele>85</ele>
        <time>2016-07-10T09:10:39.008Z</time>
      </trkpt>
      <trkpt lat="49.25198" lon="1.12624">
        <ele>86</ele>
        <time>2016-07-10T09:10:40.008Z</time>
      </trkpt>
      <trkpt lat="49.25198" lon="1.1262">
        <ele>86</ele>
        <time>2016-07-10T09:10:41.008Z</time>
      </trkpt>
      <trkpt lat="49.25198" lon="1.12615">
        <ele>88</ele>
        <time>2016-07-10T09:10:42.008Z</time>
      </trkpt>
      <trkpt lat="49.25196" lon="1.12611">
        <ele>87</ele>
        <time>2016-07-10T09:10:43.008Z</time>
      </trkpt>
      <trkpt lat="49.25194" lon="1.12606">
        <ele>87</ele>
        <time>2016-07-10T09:10:44.008Z</time>
      </trkpt>
      <trkpt lat="49.25191" lon="1.12601">
        <ele>88</ele>
        <time>2016-07-10T09:10:45.008Z</time>
      </trkpt>
      <trkpt lat="49.25189" lon="1.12595">
        <ele>88</ele>
        <time>2016-07-10T09:10:46.008Z</time>
      </trkpt>
      <trkpt lat="49.25187" lon="1.12588">
        <ele>89</ele>
        <time>2016-07-10T09:10:47.008Z</time>
      </trkpt>
      <trkpt lat="49.25187" lon="1.12581">
        <ele>89</ele>
        <time>2016-07-10T09:10:48.008Z</time>
      </trkpt>
      <trkpt lat="49.25186" lon="1.12575">
        <ele>88</ele>
        <time>2016-07-10T09:10:49.008Z</time>
      </trkpt>
      <trkpt lat="49.25184" lon="1.12568">
        <ele>88</ele>
        <time>2016-07-10T09:10:50.008Z</time>
      </trkpt>
      <trkpt lat="49.25182" lon="1.1256">
        <ele>87</ele>
        <time>2016-07-10T09:10:51.008Z</time>
      </trkpt>
      <trkpt lat="49.25179" lon="1.12552">
        <ele>86</ele>
        <time>2016-07-10T09:10:52.008Z</time>
      </trkpt>
      <trkpt lat="49.25175" lon="1.12545">
        <ele>85</ele>
        <time>2016-07-10T09:10:53.008Z</time>
      </trkpt>
      <trkpt lat="49.25171" lon="1.12539">
        <ele>85</ele>
        <time>2016-07-10T09:10:54.008Z</time>
      </trkpt>
      <trkpt lat="49.25167" lon="1.12534">
        <ele>85</ele>
        <time>2016-07-10T09:10:55.008Z</time>
      </trkpt>
      <trkpt lat="49.25162" lon="1.1253">
        <ele>84</ele>
        <time>2016-07-10T09:10:56.008Z</time>
      </trkpt>
      <trkpt lat="49.25157" lon="1.12527">
        <ele>84</ele>
        <time>2016-07-10T09:10:57.008Z</time>
      </trkpt>
      <trkpt lat="49.25152" lon="1.12523">
        <ele>84</ele>
        <time>2016-07-10T09:10:58.008Z</time>
      </trkpt>
      <trkpt lat="49.25146" lon="1.12519">
        <ele>83</ele>
        <time>2016-07-10T09:10:59.008Z</time>
      </trkpt>
      <trkpt lat="49.25141" lon="1.12515">
        <ele>83</ele>
        <time>2016-07-10T09:11:00.008Z</time>
      </trkpt>
      <trkpt lat="49.25137" lon="1.12512">
        <ele>83</ele>
        <time>2016-07-10T09:11:01.008Z</time>
      </trkpt>
      <trkpt lat="49.25133" lon="1.12509">
        <ele>82</ele>
        <time>2016-07-10T09:11:02.008Z</time>
      </trkpt>
      <trkpt lat="49.25128" lon="1.12508">
        <ele>82</ele>
        <time>2016-07-10T09:11:03.008Z</time>
      </trkpt>
      <trkpt lat="49.25124" lon="1.12507">
        <ele>81</ele>
        <time>2016-07-10T09:11:04.008Z</time>
      </trkpt>
      <trkpt lat="49.2512" lon="1.12504">
        <ele>81</ele>
        <time>2016-07-10T09:11:05.008Z</time>
      </trkpt>
      <trkpt lat="49.25116" lon="1.12499">
        <ele>80</ele>
        <time>2016-07-10T09:11:06.008Z</time>
      </trkpt>
      <trkpt lat="49.25111" lon="1.12494">
        <ele>79</ele>
        <time>2016-07-10T09:11:07.008Z</time>
      </trkpt>
      <trkpt lat="49.25106" lon="1.12489">
        <ele>79</ele>
        <time>2016-07-10T09:11:08.008Z</time>
      </trkpt>
      <trkpt lat="49.25101" lon="1.12484">
        <ele>78</ele>
        <time>2016-07-10T09:11:09.008Z</time>
      </trkpt>
      <trkpt lat="49.25096" lon="1.1248">
        <ele>78</ele>
        <time>2016-07-10T09:11:10.008Z</time>
      </trkpt>
      <trkpt lat="49.25092" lon="1.12476">
        <ele>77</ele>
        <time>2016-07-10T09:11:11.008Z</time>
      </trkpt>
      <trkpt lat="49.25088" lon="1.12471">
        <ele>76</ele>
        <time>2016-07-10T09:11:12.008Z</time>
      </trkpt>
      <trkpt lat="49.25084" lon="1.12465">
        <ele>76</ele>
        <time>2016-07-10T09:11:13.008Z</time>
      </trkpt>
      <trkpt lat="49.2508" lon="1.1246">
        <ele>75</ele>
        <time>2016-07-10T09:11:14.008Z</time>
      </trkpt>
      <trkpt lat="49.25077" lon="1.12455">
        <ele>74</ele>
        <time>2016-07-10T09:11:15.008Z</time>
      </trkpt>
      <trkpt lat="49.25074" lon="1.12451">
        <ele>75</ele>
        <time>2016-07-10T09:11:16.008Z</time>
      </trkpt>
      <trkpt lat="49.25071" lon="1.12446">
        <ele>74</ele>
        <time>2016-07-10T09:11:17.008Z</time>
      </trkpt>
      <trkpt lat="49.25069" lon="1.12442">
        <ele>74</ele>
        <time>2016-07-10T09:11:18.008Z</time>
      </trkpt>
      <trkpt lat="49.25065" lon="1.12437">
        <ele>71</ele>
        <time>2016-07-10T09:11:19.008Z</time>
      </trkpt>
      <trkpt lat="49.25061" lon="1.12432">
        <ele>70</ele>
        <time>2016-07-10T09:11:20.008Z</time>
      </trkpt>
      <trkpt lat="49.25056" lon="1.12426">
        <ele>69</ele>
        <time>2016-07-10T09:11:21.008Z</time>
      </trkpt>
      <trkpt lat="49.25052" lon="1.12421">
        <ele>69</ele>
        <time>2016-07-10T09:11:22.008Z</time>
      </trkpt>
      <trkpt lat="49.25046" lon="1.12416">
        <ele>68</ele>
        <time>2016-07-10T09:11:23.008Z</time>
      </trkpt>
      <trkpt lat="49.25041" lon="1.1241">
        <ele>68</ele>
        <time>2016-07-10T09:11:24.008Z</time>
      </trkpt>
      <trkpt lat="49.25035" lon="1.12403">
        <ele>67</ele>
        <time>2016-07-10T09:11:25.008Z</time>
      </trkpt>
      <trkpt lat="49.2503" lon="1.12396">
        <ele>67</ele>
        <time>2016-07-10T09:11:26.008Z</time>
      </trkpt>
      <trkpt lat="49.25024" lon="1.12389">
        <ele>66</ele>
        <time>2016-07-10T09:11:27.008Z</time>
      </trkpt>
      <trkpt lat="49.25019" lon="1.12383">
        <ele>64</ele>
        <time>2016-07-10T09:11:28.008Z</time>
      </trkpt>
      <trkpt lat="49.25014" lon="1.12379">
        <ele>62</ele>
        <time>2016-07-10T09:11:29.008Z</time>
      </trkpt>
      <trkpt lat="49.25009" lon="1.12376">
        <ele>61</ele>
        <time>2016-07-10T09:11:30.008Z</time>
      </trkpt>
      <trkpt lat="49.25004" lon="1.12375">
        <ele>61</ele>
        <time>2016-07-10T09:11:31.008Z</time>
      </trkpt>
      <trkpt lat="49.25" lon="1.12375">
        <ele>60</ele>
        <time>2016-07-10T09:11:32.008Z</time>
      </trkpt>
      <trkpt lat="49.24998" lon="1.12374">
        <ele>60</ele>
        <time>2016-07-10T09:11:33.008Z</time>
      </trkpt>
      <trkpt lat="49.24998" lon="1.12373">
        <ele>60</ele>
        <time>2016-07-10T09:11:34.008Z</time>
      </trkpt>
      <trkpt lat="49.24997" lon="1.12371">
        <ele>60</ele>
        <time>2016-07-10T09:11:35.008Z</time>
      </trkpt>
      <trkpt lat="49.24997" lon="1.1237">
        <ele>60</ele>
        <time>2016-07-10T09:11:36.008Z</time>
      </trkpt>
      <trkpt lat="49.24997" lon="1.12369">
        <ele>61</ele>
        <time>2016-07-10T09:11:37.008Z</time>
      </trkpt>
      <trkpt lat="49.24996" lon="1.12369">
        <ele>61</ele>
        <time>2016-07-10T09:11:38.008Z</time>
      </trkpt>
      <trkpt lat="49.24996" lon="1.12368">
        <ele>60</ele>
        <time>2016-07-10T09:11:39.008Z</time>
      </trkpt>
      <trkpt lat="49.24996" lon="1.12368">
        <ele>60</ele>
        <time>2016-07-10T09:11:40.008Z</time>
      </trkpt>
      <trkpt lat="49.24995" lon="1.12368">
        <ele>60</ele>
        <time>2016-07-10T09:11:41.008Z</time>
      </trkpt>
      <trkpt lat="49.24994" lon="1.12368">
        <ele>62</ele>
        <time>2016-07-10T09:11:42.008Z</time>
      </trkpt>
      <trkpt lat="49.24993" lon="1.12369">
        <ele>62</ele>
        <time>2016-07-10T09:11:43.008Z</time>
      </trkpt>
      <trkpt lat="49.24991" lon="1.1237">
        <ele>63</ele>
        <time>2016-07-10T09:11:44.008Z</time>
      </trkpt>
      <trkpt lat="49.24989" lon="1.12371">
        <ele>63</ele>
        <time>2016-07-10T09:11:45.008Z</time>
      </trkpt>
      <trkpt lat="49.24987" lon="1.12373">
        <ele>63</ele>
        <time>2016-07-10T09:11:46.008Z</time>
      </trkpt>
      <trkpt lat="49.24985" lon="1.12375">
        <ele>64</ele>
        <time>2016-07-10T09:11:47.008Z</time>
      </trkpt>
      <trkpt lat="49.24983" lon="1.12377">
        <ele>65</ele>
        <time>2016-07-10T09:11:48.008Z</time>
      </trkpt>
      <trkpt lat="49.24981" lon="1.12379">
        <ele>65</ele>
        <time>2016-07-10T09:11:49.008Z</time>
      </trkpt>
      <trkpt lat="49.24979" lon="1.12381">
        <ele>65</ele>
        <time>2016-07-10T09:11:50.008Z</time>
      </trkpt>
      <trkpt lat="49.24978" lon="1.12383">
        <ele>64</ele>
        <time>2016-07-10T09:11:51.008Z</time>
      </trkpt>
      <trkpt lat="49.24976" lon="1.12385">
        <ele>64</ele>
        <time>2016-07-10T09:11:52.008Z</time>
      </trkpt>
      <trkpt lat="49.24975" lon="1.12388">
        <ele>64</ele>
        <time>2016-07-10T09:11:53.008Z</time>
      </trkpt>
      <trkpt lat="49.24974" lon="1.12391">
        <ele>65</ele>
        <time>2016-07-10T09:11:54.008Z</time>
      </trkpt>
      <trkpt lat="49.24972" lon="1.12394">
        <ele>66</ele>
        <time>2016-07-10T09:11:55.008Z</time>
      </trkpt>
      <trkpt lat="49.24971" lon="1.12398">
        <ele>66</ele>
        <time>2016-07-10T09:11:56.008Z</time>
      </trkpt>
      <trkpt lat="49.2497" lon="1.12401">
        <ele>67</ele>
        <time>2016-07-10T09:11:57.008Z</time>
      </trkpt>
      <trkpt lat="49.24969" lon="1.12404">
        <ele>67</ele>
        <time>2016-07-10T09:11:58.008Z</time>
      </trkpt>
      <trkpt lat="49.24968" lon="1.12407">
        <ele>67</ele>
        <time>2016-07-10T09:11:59.008Z</time>
      </trkpt>
      <trkpt lat="49.24967" lon="1.12411">
        <ele>67</ele>
        <time>2016-07-10T09:12:00.008Z</time>
      </trkpt>
      <trkpt lat="49.24966" lon="1.12415">
        <ele>67</ele>
        <time>2016-07-10T09:12:01.008Z</time>
      </trkpt>
      <trkpt lat="49.24965" lon="1.1242">
        <ele>68</ele>
        <time>2016-07-10T09:12:02.008Z</time>
      </trkpt>
      <trkpt lat="49.24965" lon="1.12424">
        <ele>68</ele>
        <time>2016-07-10T09:12:03.008Z</time>
      </trkpt>
      <trkpt lat="49.24965" lon="1.12429">
        <ele>68</ele>
        <time>2016-07-10T09:12:04.008Z</time>
      </trkpt>
      <trkpt lat="49.24965" lon="1.12434">
        <ele>68</ele>
        <time>2016-07-10T09:12:05.008Z</time>
      </trkpt>
      <trkpt lat="49.24964" lon="1.12437">
        <ele>69</ele>
        <time>2016-07-10T09:12:06.008Z</time>
      </trkpt>
      <trkpt lat="49.24963" lon="1.1244">
        <ele>70</ele>
        <time>2016-07-10T09:12:07.008Z</time>
      </trkpt>
      <trkpt lat="49.24962" lon="1.12443">
        <ele>72</ele>
        <time>2016-07-10T09:12:08.008Z</time>
      </trkpt>
      <trkpt lat="49.24962" lon="1.12445">
        <ele>73</ele>
        <time>2016-07-10T09:12:09.008Z</time>
      </trkpt>
      <trkpt lat="49.24962" lon="1.12447">
        <ele>74</ele>
        <time>2016-07-10T09:12:10.008Z</time>
      </trkpt>
      <trkpt lat="49.24962" lon="1.1245">
        <ele>75</ele>
        <time>2016-07-10T09:12:11.008Z</time>
      </trkpt>
      <trkpt lat="49.24961" lon="1.12452">
        <ele>75</ele>
        <time>2016-07-10T09:12:12.008Z</time>
      </trkpt>
      <trkpt lat="49.24961" lon="1.12454">
        <ele>75</ele>
        <time>2016-07-10T09:12:13.008Z</time>
      </trkpt>
      <trkpt lat="49.24961" lon="1.12457">
        <ele>75</ele>
        <time>2016-07-10T09:12:14.008Z</time>
      </trkpt>
      <trkpt lat="49.24961" lon="1.12461">
        <ele>76</ele>
        <time>2016-07-10T09:12:15.008Z</time>
      </trkpt>
      <trkpt lat="49.24962" lon="1.12465">
        <ele>76</ele>
        <time>2016-07-10T09:12:16.008Z</time>
      </trkpt>
      <trkpt lat="49.24962" lon="1.1247">
        <ele>76</ele>
        <time>2016-07-10T09:12:17.008Z</time>
      </trkpt>
      <trkpt lat="49.24962" lon="1.12476">
        <ele>77</ele>
        <time>2016-07-10T09:12:18.008Z</time>
      </trkpt>
      <trkpt lat="49.24963" lon="1.12483">
        <ele>78</ele>
        <time>2016-07-10T09:12:19.008Z</time>
      </trkpt>
      <trkpt lat="49.24964" lon="1.12489">
        <ele>78</ele>
        <time>2016-07-10T09:12:20.008Z</time>
      </trkpt>
      <trkpt lat="49.24966" lon="1.12496">
        <ele>78</ele>
        <time>2016-07-10T09:12:21.008Z</time>
      </trkpt>
      <trkpt lat="49.24967" lon="1.12503">
        <ele>79</ele>
        <time>2016-07-10T09:12:22.008Z</time>
      </trkpt>
      <trkpt lat="49.24967" lon="1.12511">
        <ele>79</ele>
        <time>2016-07-10T09:12:23.008Z</time>
      </trkpt>
      <trkpt lat="49.24968" lon="1.12519">
        <ele>79</ele>
        <time>2016-07-10T09:12:24.008Z</time>
      </trkpt>
      <trkpt lat="49.24969" lon="1.12526">
        <ele>79</ele>
        <time>2016-07-10T09:12:25.008Z</time>
      </trkpt>
      <trkpt lat="49.2497" lon="1.12533">
        <ele>78</ele>
        <time>2016-07-10T09:12:26.008Z</time>
      </trkpt>
      <trkpt lat="49.2497" lon="1.1254">
        <ele>78</ele>
        <time>2016-07-10T09:12:27.008Z</time>
      </trkpt>
      <trkpt lat="49.24971" lon="1.12546">
        <ele>78</ele>
        <time>2016-07-10T09:12:28.008Z</time>
      </trkpt>
      <trkpt lat="49.24971" lon="1.12553">
        <ele>78</ele>
        <time>2016-07-10T09:12:29.008Z</time>
      </trkpt>
      <trkpt lat="49.24972" lon="1.12559">
        <ele>78</ele>
        <time>2016-07-10T09:12:30.008Z</time>
      </trkpt>
      <trkpt lat="49.24974" lon="1.12566">
        <ele>78</ele>
        <time>2016-07-10T09:12:31.008Z</time>
      </trkpt>
      <trkpt lat="49.24975" lon="1.12574">
        <ele>77</ele>
        <time>2016-07-10T09:12:32.008Z</time>
      </trkpt>
      <trkpt lat="49.24977" lon="1.12582">
        <ele>77</ele>
        <time>2016-07-10T09:12:33.008Z</time>
      </trkpt>
      <trkpt lat="49.24978" lon="1.12589">
        <ele>77</ele>
        <time>2016-07-10T09:12:34.008Z</time>
      </trkpt>
      <trkpt lat="49.24978" lon="1.12597">
        <ele>77</ele>
        <time>2016-07-10T09:12:35.008Z</time>
      </trkpt>
      <trkpt lat="49.24979" lon="1.12605">
        <ele>77</ele>
        <time>2016-07-10T09:12:36.008Z</time>
      </trkpt>
      <trkpt lat="49.24979" lon="1.12612">
        <ele>76</ele>
        <time>2016-07-10T09:12:37.008Z</time>
      </trkpt>
      <trkpt lat="49.2498" lon="1.1262">
        <ele>76</ele>
        <time>2016-07-10T09:12:38.008Z</time>
      </trkpt>
      <trkpt lat="49.2498" lon="1.12628">
        <ele>76</ele>
        <time>2016-07-10T09:12:39.008Z</time>
      </trkpt>
      <trkpt lat="49.2498" lon="1.12635">
        <ele>75</ele>
        <time>2016-07-10T09:12:40.008Z</time>
      </trkpt>
      <trkpt lat="49.24981" lon="1.12643">
        <ele>73</ele>
        <time>2016-07-10T09:12:41.008Z</time>
      </trkpt>
      <trkpt lat="49.24981" lon="1.1265">
        <ele>73</ele>
        <time>2016-07-10T09:12:42.008Z</time>
      </trkpt>
      <trkpt lat="49.24982" lon="1.12658">
        <ele>74</ele>
        <time>2016-07-10T09:12:43.008Z</time>
      </trkpt>
      <trkpt lat="49.24983" lon="1.12667">
        <ele>74</ele>
        <time>2016-07-10T09:12:44.008Z</time>
      </trkpt>
      <trkpt lat="49.24984" lon="1.12676">
        <ele>74</ele>
        <time>2016-07-10T09:12:45.008Z</time>
      </trkpt>
      <trkpt lat="49.24985" lon="1.12685">
        <ele>74</ele>
        <time>2016-07-10T09:12:46.008Z</time>
      </trkpt>
      <trkpt lat="49.24986" lon="1.12693">
        <ele>74</ele>
        <time>2016-07-10T09:12:47.008Z</time>
      </trkpt>
      <trkpt lat="49.24987" lon="1.12702">
        <ele>74</ele>
        <time>2016-07-10T09:12:48.008Z</time>
      </trkpt>
      <trkpt lat="49.24988" lon="1.12711">
        <ele>75</ele>
        <time>2016-07-10T09:12:49.008Z</time>
      </trkpt>
      <trkpt lat="49.24989" lon="1.12719">
        <ele>74</ele>
        <time>2016-07-10T09:12:50.008Z</time>
      </trkpt>
      <trkpt lat="49.2499" lon="1.12727">
        <ele>75</ele>
        <time>2016-07-10T09:12:51.008Z</time>
      </trkpt>
      <trkpt lat="49.24992" lon="1.12735">
        <ele>75</ele>
        <time>2016-07-10T09:12:52.008Z</time>
      </trkpt>
      <trkpt lat="49.24993" lon="1.12743">
        <ele>75</ele>
        <time>2016-07-10T09:12:53.008Z</time>
      </trkpt>
      <trkpt lat="49.24995" lon="1.1275">
        <ele>75</ele>
        <time>2016-07-10T09:12:54.008Z</time>
      </trkpt>
      <trkpt lat="49.24996" lon="1.12756">
        <ele>74</ele>
        <time>2016-07-10T09:12:55.008Z</time>
      </trkpt>
      <trkpt lat="49.24996" lon="1.12762">
        <ele>74</ele>
        <time>2016-07-10T09:12:56.008Z</time>
      </trkpt>
      <trkpt lat="49.24997" lon="1.12768">
        <ele>73</ele>
        <time>2016-07-10T09:12:57.008Z</time>
      </trkpt>
      <trkpt lat="49.24997" lon="1.12775">
        <ele>72</ele>
        <time>2016-07-10T09:12:58.008Z</time>
      </trkpt>
      <trkpt lat="49.24998" lon="1.12781">
        <ele>72</ele>
        <time>2016-07-10T09:12:59.008Z</time>
      </trkpt>
      <trkpt lat="49.24999" lon="1.12789">
        <ele>71</ele>
        <time>2016-07-10T09:13:00.008Z</time>
      </trkpt>
      <trkpt lat="49.25" lon="1.12797">
        <ele>71</ele>
        <time>2016-07-10T09:13:01.008Z</time>
      </trkpt>
      <trkpt lat="49.24999" lon="1.12805">
        <ele>70</ele>
        <time>2016-07-10T09:13:02.008Z</time>
      </trkpt>
      <trkpt lat="49.24999" lon="1.12813">
        <ele>70</ele>
        <time>2016-07-10T09:13:03.008Z</time>
      </trkpt>
      <trkpt lat="49.24997" lon="1.1282">
        <ele>70</ele>
        <time>2016-07-10T09:13:04.008Z</time>
      </trkpt>
      <trkpt lat="49.24995" lon="1.12828">
        <ele>69</ele>
        <time>2016-07-10T09:13:05.008Z</time>
      </trkpt>
      <trkpt lat="49.24993" lon="1.12835">
        <ele>69</ele>
        <time>2016-07-10T09:13:06.008Z</time>
      </trkpt>
      <trkpt lat="49.2499" lon="1.12842">
        <ele>69</ele>
        <time>2016-07-10T09:13:07.008Z</time>
      </trkpt>
      <trkpt lat="49.24988" lon="1.12849">
        <ele>69</ele>
        <time>2016-07-10T09:13:08.008Z</time>
      </trkpt>
      <trkpt lat="49.24986" lon="1.12856">
        <ele>69</ele>
        <time>2016-07-10T09:13:09.008Z</time>
      </trkpt>
      <trkpt lat="49.24983" lon="1.12864">
        <ele>68</ele>
        <time>2016-07-10T09:13:10.008Z</time>
      </trkpt>
      <trkpt lat="49.24981" lon="1.12871">
        <ele>67</ele>
        <time>2016-07-10T09:13:11.008Z</time>
      </trkpt>
      <trkpt lat="49.24978" lon="1.12879">
        <ele>67</ele>
        <time>2016-07-10T09:13:12.008Z</time>
      </trkpt>
      <trkpt lat="49.24976" lon="1.12886">
        <ele>67</ele>
        <time>2016-07-10T09:13:13.008Z</time>
      </trkpt>
      <trkpt lat="49.24974" lon="1.12893">
        <ele>66</ele>
        <time>2016-07-10T09:13:14.008Z</time>
      </trkpt>
      <trkpt lat="49.24971" lon="1.12899">
        <ele>66</ele>
        <time>2016-07-10T09:13:15.008Z</time>
      </trkpt>
      <trkpt lat="49.24969" lon="1.12906">
        <ele>65</ele>
        <time>2016-07-10T09:13:16.008Z</time>
      </trkpt>
      <trkpt lat="49.24966" lon="1.12913">
        <ele>63</ele>
        <time>2016-07-10T09:13:17.008Z</time>
      </trkpt>
      <trkpt lat="49.24964" lon="1.1292">
        <ele>61</ele>
        <time>2016-07-10T09:13:18.008Z</time>
      </trkpt>
      <trkpt lat="49.24961" lon="1.12928">
        <ele>61</ele>
        <time>2016-07-10T09:13:19.008Z</time>
      </trkpt>
      <trkpt lat="49.24957" lon="1.12936">
        <ele>61</ele>
        <time>2016-07-10T09:13:20.008Z</time>
      </trkpt>
      <trkpt lat="49.24954" lon="1.12943">
        <ele>60</ele>
        <time>2016-07-10T09:13:21.008Z</time>
      </trkpt>
      <trkpt lat="49.24951" lon="1.12951">
        <ele>60</ele>
        <time>2016-07-10T09:13:22.008Z</time>
      </trkpt>
      <trkpt lat="49.24947" lon="1.12957">
        <ele>58</ele>
        <time>2016-07-10T09:13:23.008Z</time>
      </trkpt>
      <trkpt lat="49.24942" lon="1.12963">
        <ele>57</ele>
        <time>2016-07-10T09:13:24.008Z</time>
      </trkpt>
      <trkpt lat="49.24939" lon="1.12969">
        <ele>56</ele>
        <time>2016-07-10T09:13:25.008Z</time>
      </trkpt>
      <trkpt lat="49.24935" lon="1.12974">
        <ele>55</ele>
        <time>2016-07-10T09:13:26.008Z</time>
      </trkpt>
      <trkpt lat="49.24932" lon="1.12979">
        <ele>53</ele>
        <time>2016-07-10T09:13:27.008Z</time>
      </trkpt>
      <trkpt lat="49.24928" lon="1.12985">
        <ele>52</ele>
        <time>2016-07-10T09:13:28.008Z</time>
      </trkpt>
      <trkpt lat="49.24924" lon="1.1299">
        <ele>51</ele>
        <time>2016-07-10T09:13:29.008Z</time>
      </trkpt>
      <trkpt lat="49.2492" lon="1.12995">
        <ele>51</ele>
        <time>2016-07-10T09:13:30.008Z</time>
      </trkpt>
      <trkpt lat="49.24917" lon="1.13">
        <ele>50</ele>
        <time>2016-07-10T09:13:31.008Z</time>
      </trkpt>
      <trkpt lat="49.24913" lon="1.13005">
        <ele>48</ele>
        <time>2016-07-10T09:13:32.008Z</time>
      </trkpt>
      <trkpt lat="49.24909" lon="1.13009">
        <ele>46</ele>
        <time>2016-07-10T09:13:33.008Z</time>
      </trkpt>
      <trkpt lat="49.24905" lon="1.13014">
        <ele>45</ele>
        <time>2016-07-10T09:13:34.008Z</time>
      </trkpt>
      <trkpt lat="49.24901" lon="1.1302">
        <ele>44</ele>
        <time>2016-07-10T09:13:35.008Z</time>
      </trkpt>
      <trkpt lat="49.24897" lon="1.13026">
        <ele>43</ele>
        <time>2016-07-10T09:13:36.008Z</time>
      </trkpt>
      <trkpt lat="49.24893" lon="1.13033">
        <ele>43</ele>
        <time>2016-07-10T09:13:37.008Z</time>
      </trkpt>
      <trkpt lat="49.24889" lon="1.1304">
        <ele>44</ele>
        <time>2016-07-10T09:13:38.008Z</time>
      </trkpt>
      <trkpt lat="49.24886" lon="1.13047">
        <ele>44</ele>
        <time>2016-07-10T09:13:39.008Z</time>
      </trkpt>
      <trkpt lat="49.24883" lon="1.13055">
        <ele>44</ele>
        <time>2016-07-10T09:13:40.008Z</time>
      </trkpt>
      <trkpt lat="49.24881" lon="1.13063">
        <ele>44</ele>
        <time>2016-07-10T09:13:41.008Z</time>
      </trkpt>
      <trkpt lat="49.24878" lon="1.13071">
        <ele>45</ele>
        <time>2016-07-10T09:13:42.008Z</time>
      </trkpt>
      <trkpt lat="49.24876" lon="1.13079">
        <ele>44</ele>
        <time>2016-07-10T09:13:43.008Z</time>
      </trkpt>
      <trkpt lat="49.24873" lon="1.13086">
        <ele>44</ele>
        <time>2016-07-10T09:13:44.008Z</time>
      </trkpt>
      <trkpt lat="49.24872" lon="1.13093">
        <ele>46</ele>
        <time>2016-07-10T09:13:45.008Z</time>
      </trkpt>
      <trkpt lat="49.2487" lon="1.13102">
        <ele>50</ele>
        <time>2016-07-10T09:13:46.008Z</time>
      </trkpt>
      <trkpt lat="49.24868" lon="1.13111">
        <ele>51</ele>
        <time>2016-07-10T09:13:47.008Z</time>
      </trkpt>
      <trkpt lat="49.24866" lon="1.13119">
        <ele>51</ele>
        <time>2016-07-10T09:13:48.008Z</time>
      </trkpt>
      <trkpt lat="49.24864" lon="1.13127">
        <ele>51</ele>
        <time>2016-07-10T09:13:49.008Z</time>
      </trkpt>
      <trkpt lat="49.24862" lon="1.13134">
        <ele>51</ele>
        <time>2016-07-10T09:13:50.008Z</time>
      </trkpt>
      <trkpt lat="49.24861" lon="1.13141">
        <ele>52</ele>
        <time>2016-07-10T09:13:51.008Z</time>
      </trkpt>
      <trkpt lat="49.24859" lon="1.13147">
        <ele>52</ele>
        <time>2016-07-10T09:13:52.008Z</time>
      </trkpt>
      <trkpt lat="49.24858" lon="1.13154">
        <ele>53</ele>
        <time>2016-07-10T09:13:53.008Z</time>
      </trkpt>
      <trkpt lat="49.24857" lon="1.13159">
        <ele>53</ele>
        <time>2016-07-10T09:13:54.008Z</time>
      </trkpt>
      <trkpt lat="49.24855" lon="1.13165">
        <ele>53</ele>
        <time>2016-07-10T09:13:55.008Z</time>
      </trkpt>
      <trkpt lat="49.24854" lon="1.13171">
        <ele>53</ele>
        <time>2016-07-10T09:13:56.008Z</time>
      </trkpt>
      <trkpt lat="49.24854" lon="1.13178">
        <ele>53</ele>
        <time>2016-07-10T09:13:57.008Z</time>
      </trkpt>
      <trkpt lat="49.24853" lon="1.13185">
        <ele>53</ele>
        <time>2016-07-10T09:13:58.008Z</time>
      </trkpt>
      <trkpt lat="49.24852" lon="1.13193">
        <ele>53</ele>
        <time>2016-07-10T09:13:59.008Z</time>
      </trkpt>
      <trkpt lat="49.24851" lon="1.132">
        <ele>51</ele>
        <time>2016-07-10T09:14:00.008Z</time>
      </trkpt>
      <trkpt lat="49.24849" lon="1.13208">
        <ele>52</ele>
        <time>2016-07-10T09:14:01.008Z</time>
      </trkpt>
      <trkpt lat="49.24848" lon="1.13216">
        <ele>51</ele>
        <time>2016-07-10T09:14:02.008Z</time>
      </trkpt>
      <trkpt lat="49.24847" lon="1.13223">
        <ele>51</ele>
        <time>2016-07-10T09:14:03.008Z</time>
      </trkpt>
      <trkpt lat="49.24846" lon="1.13231">
        <ele>51</ele>
        <time>2016-07-10T09:14:04.008Z</time>
      </trkpt>
      <trkpt lat="49.24846" lon="1.13239">
        <ele>52</ele>
        <time>2016-07-10T09:14:05.008Z</time>
      </trkpt>
      <trkpt lat="49.24845" lon="1.13247">
        <ele>51</ele>
        <time>2016-07-10T09:14:06.008Z</time>
      </trkpt>
      <trkpt lat="49.24845" lon="1.13255">
        <ele>52</ele>
        <time>2016-07-10T09:14:07.008Z</time>
      </trkpt>
      <trkpt lat="49.24844" lon="1.13263">
        <ele>52</ele>
        <time>2016-07-10T09:14:08.008Z</time>
      </trkpt>
      <trkpt lat="49.24843" lon="1.13269">
        <ele>53</ele>
        <time>2016-07-10T09:14:09.008Z</time>
      </trkpt>
      <trkpt lat="49.24843" lon="1.13275">
        <ele>54</ele>
        <time>2016-07-10T09:14:10.008Z</time>
      </trkpt>
      <trkpt lat="49.24843" lon="1.13279">
        <ele>54</ele>
        <time>2016-07-10T09:14:11.008Z</time>
      </trkpt>
      <trkpt lat="49.24843" lon="1.13283">
        <ele>54</ele>
        <time>2016-07-10T09:14:12.008Z</time>
      </trkpt>
      <trkpt lat="49.24843" lon="1.13286">
        <ele>54</ele>
        <time>2016-07-10T09:14:13.008Z</time>
      </trkpt>
      <trkpt lat="49.24844" lon="1.13289">
        <ele>55</ele>
        <time>2016-07-10T09:14:14.008Z</time>
      </trkpt>
      <trkpt lat="49.24844" lon="1.13291">
        <ele>56</ele>
        <time>2016-07-10T09:14:15.008Z</time>
      </trkpt>
      <trkpt lat="49.24844" lon="1.13293">
        <ele>57</ele>
        <time>2016-07-10T09:14:16.008Z</time>
      </trkpt>
      <trkpt lat="49.24844" lon="1.13294">
        <ele>59</ele>
        <time>2016-07-10T09:14:17.008Z</time>
      </trkpt>
      <trkpt lat="49.24844" lon="1.13296">
        <ele>60</ele>
        <time>2016-07-10T09:14:18.008Z</time>
      </trkpt>
      <trkpt lat="49.24845" lon="1.13297">
        <ele>61</ele>
        <time>2016-07-10T09:14:19.008Z</time>
      </trkpt>
      <trkpt lat="49.24845" lon="1.13299">
        <ele>62</ele>
        <time>2016-07-10T09:14:20.008Z</time>
      </trkpt>
      <trkpt lat="49.24846" lon="1.133">
        <ele>63</ele>
        <time>2016-07-10T09:14:21.008Z</time>
      </trkpt>
      <trkpt lat="49.24846" lon="1.13301">
        <ele>65</ele>
        <time>2016-07-10T09:14:22.008Z</time>
      </trkpt>
      <trkpt lat="49.24846" lon="1.13303">
        <ele>66</ele>
        <time>2016-07-10T09:14:23.008Z</time>
      </trkpt>
      <trkpt lat="49.24846" lon="1.13303">
        <ele>67</ele>
        <time>2016-07-10T09:14:24.008Z</time>
      </trkpt>
      <trkpt lat="49.24847" lon="1.13304">
        <ele>68</ele>
        <time>2016-07-10T09:14:25.008Z</time>
      </trkpt>
      <trkpt lat="49.24847" lon="1.13305">
        <ele>69</ele>
        <time>2016-07-10T09:14:26.008Z</time>
      </trkpt>
      <trkpt lat="49.24847" lon="1.13306">
        <ele>69</ele>
        <time>2016-07-10T09:14:27.008Z</time>
      </trkpt>
      <trkpt lat="49.24847" lon="1.13306">
        <ele>70</ele>
        <time>2016-07-10T09:14:28.008Z</time>
      </trkpt>
      <trkpt lat="49.24847" lon="1.13307">
        <ele>71</ele>
        <time>2016-07-10T09:14:29.008Z</time>
      </trkpt>
      <trkpt lat="49.24847" lon="1.13308">
        <ele>72</ele>
        <time>2016-07-10T09:14:30.008Z</time>
      </trkpt>
      <trkpt lat="49.24847" lon="1.13308">
        <ele>73</ele>
        <time>2016-07-10T09:14:31.008Z</time>
      </trkpt>
      <trkpt lat="49.24847" lon="1.13309">
        <ele>74</ele>
        <time>2016-07-10T09:14:32.008Z</time>
      </trkpt>
      <trkpt lat="49.24847" lon="1.1331">
        <ele>74</ele>
        <time>2016-07-10T09:14:33.008Z</time>
      </trkpt>
      <trkpt lat="49.24847" lon="1.1331">
        <ele>74</ele>
        <time>2016-07-10T09:14:34.008Z</time>
      </trkpt>
      <trkpt lat="49.24847" lon="1.13312">
        <ele>74</ele>
        <time>2016-07-10T09:14:35.008Z</time>
      </trkpt>
      <trkpt lat="49.24847" lon="1.13312">
        <ele>75</ele>
        <time>2016-07-10T09:14:36.008Z</time>
      </trkpt>
      <trkpt lat="49.24847" lon="1.13313">
        <ele>75</ele>
        <time>2016-07-10T09:14:37.008Z</time>
      </trkpt>
      <trkpt lat="49.24848" lon="1.13313">
        <ele>76</ele>
        <time>2016-07-10T09:14:38.008Z</time>
      </trkpt>
      <trkpt lat="49.24848" lon="1.13314">
        <ele>76</ele>
        <time>2016-07-10T09:14:39.008Z</time>
      </trkpt>
      <trkpt lat="49.24847" lon="1.13315">
        <ele>76</ele>
        <time>2016-07-10T09:14:40.008Z</time>
      </trkpt>
      <trkpt lat="49.24847" lon="1.13318">
        <ele>77</ele>
        <time>2016-07-10T09:14:41.008Z</time>
      </trkpt>
      <trkpt lat="49.24847" lon="1.13322">
        <ele>77</ele>
        <time>2016-07-10T09:14:42.008Z</time>
      </trkpt>
      <trkpt lat="49.24847" lon="1.13326">
        <ele>77</ele>
        <time>2016-07-10T09:14:43.008Z</time>
      </trkpt>
      <trkpt lat="49.24847" lon="1.13332">
        <ele>77</ele>
        <time>2016-07-10T09:14:44.008Z</time>
      </trkpt>
      <trkpt lat="49.24847" lon="1.13337">
        <ele>77</ele>
        <time>2016-07-10T09:14:45.008Z</time>
      </trkpt>
      <trkpt lat="49.24847" lon="1.13344">
        <ele>76</ele>
        <time>2016-07-10T09:14:46.008Z</time>
      </trkpt>
      <trkpt lat="49.24846" lon="1.13351">
        <ele>76</ele>
        <time>2016-07-10T09:14:47.008Z</time>
      </trkpt>
      <trkpt lat="49.24846" lon="1.13359">
        <ele>76</ele>
        <time>2016-07-10T09:14:48.008Z</time>
      </trkpt>
      <trkpt lat="49.24847" lon="1.13367">
        <ele>76</ele>
        <time>2016-07-10T09:14:49.008Z</time>
      </trkpt>
      <trkpt lat="49.24848" lon="1.13377">
        <ele>76</ele>
        <time>2016-07-10T09:14:50.008Z</time>
      </trkpt>
      <trkpt lat="49.24849" lon="1.13386">
        <ele>75</ele>
        <time>2016-07-10T09:14:51.008Z</time>
      </trkpt>
      <trkpt lat="49.2485" lon="1.13396">
        <ele>74</ele>
        <time>2016-07-10T09:14:52.008Z</time>
      </trkpt>
      <trkpt lat="49.24851" lon="1.13405">
        <ele>73</ele>
        <time>2016-07-10T09:14:53.008Z</time>
      </trkpt>
      <trkpt lat="49.24853" lon="1.13415">
        <ele>72</ele>
        <time>2016-07-10T09:14:54.008Z</time>
      </trkpt>
      <trkpt lat="49.24855" lon="1.13425">
        <ele>73</ele>
        <time>2016-07-10T09:14:55.008Z</time>
      </trkpt>
      <trkpt lat="49.24857" lon="1.13435">
        <ele>72</ele>
        <time>2016-07-10T09:14:56.008Z</time>
      </trkpt>
      <trkpt lat="49.24859" lon="1.13444">
        <ele>71</ele>
        <time>2016-07-10T09:14:57.008Z</time>
      </trkpt>
      <trkpt lat="49.24862" lon="1.13453">
        <ele>71</ele>
        <time>2016-07-10T09:14:58.008Z</time>
      </trkpt>
      <trkpt lat="49.24865" lon="1.13462">
        <ele>70</ele>
        <time>2016-07-10T09:14:59.008Z</time>
      </trkpt>
      <trkpt lat="49.2487" lon="1.13471">
        <ele>69</ele>
        <time>2016-07-10T09:15:00.008Z</time>
      </trkpt>
      <trkpt lat="49.24874" lon="1.13481">
        <ele>68</ele>
        <time>2016-07-10T09:15:01.008Z</time>
      </trkpt>
      <trkpt lat="49.24879" lon="1.1349">
        <ele>67</ele>
        <time>2016-07-10T09:15:02.008Z</time>
      </trkpt>
      <trkpt lat="49.24884" lon="1.13499">
        <ele>66</ele>
        <time>2016-07-10T09:15:03.008Z</time>
      </trkpt>
      <trkpt lat="49.24889" lon="1.13508">
        <ele>65</ele>
        <time>2016-07-10T09:15:04.008Z</time>
      </trkpt>
      <trkpt lat="49.24894" lon="1.13517">
        <ele>64</ele>
        <time>2016-07-10T09:15:05.008Z</time>
      </trkpt>
      <trkpt lat="49.24898" lon="1.13526">
        <ele>64</ele>
        <time>2016-07-10T09:15:06.008Z</time>
      </trkpt>
      <trkpt lat="49.24902" lon="1.13535">
        <ele>64</ele>
        <time>2016-07-10T09:15:07.008Z</time>
      </trkpt>
      <trkpt lat="49.24907" lon="1.13544">
        <ele>64</ele>
        <time>2016-07-10T09:15:08.008Z</time>
      </trkpt>
      <trkpt lat="49.2491" lon="1.13553">
        <ele>64</ele>
        <time>2016-07-10T09:15:09.008Z</time>
      </trkpt>
      <trkpt lat="49.24913" lon="1.13561">
        <ele>64</ele>
        <time>2016-07-10T09:15:10.008Z</time>
      </trkpt>
      <trkpt lat="49.24915" lon="1.13569">
        <ele>64</ele>
        <time>2016-07-10T09:15:11.008Z</time>
      </trkpt>
      <trkpt lat="49.24918" lon="1.13578">
        <ele>66</ele>
        <time>2016-07-10T09:15:12.008Z</time>
      </trkpt>
      <trkpt lat="49.24921" lon="1.13588">
        <ele>67</ele>
        <time>2016-07-10T09:15:13.008Z</time>
      </trkpt>
      <trkpt lat="49.24925" lon="1.13598">
        <ele>68</ele>
        <time>2016-07-10T09:15:14.008Z</time>
      </trkpt>
      <trkpt lat="49.24928" lon="1.13608">
        <ele>68</ele>
        <time>2016-07-10T09:15:15.008Z</time>
      </trkpt>
      <trkpt lat="49.24932" lon="1.13616">
        <ele>69</ele>
        <time>2016-07-10T09:15:16.008Z</time>
      </trkpt>
      <trkpt lat="49.24934" lon="1.13624">
        <ele>69</ele>
        <time>2016-07-10T09:15:17.008Z</time>
      </trkpt>
      <trkpt lat="49.24936" lon="1.13632">
        <ele>69</ele>
        <time>2016-07-10T09:15:18.008Z</time>
      </trkpt>
      <trkpt lat="49.24937" lon="1.13641">
        <ele>69</ele>
        <time>2016-07-10T09:15:19.008Z</time>
      </trkpt>
      <trkpt lat="49.24937" lon="1.1365">
        <ele>70</ele>
        <time>2016-07-10T09:15:20.008Z</time>
      </trkpt>
      <trkpt lat="49.24938" lon="1.13659">
        <ele>71</ele>
        <time>2016-07-10T09:15:21.008Z</time>
      </trkpt>
      <trkpt lat="49.24939" lon="1.13668">
        <ele>72</ele>
        <time>2016-07-10T09:15:22.008Z</time>
      </trkpt>
      <trkpt lat="49.24938" lon="1.13678">
        <ele>73</ele>
        <time>2016-07-10T09:15:23.008Z</time>
      </trkpt>
      <trkpt lat="49.24938" lon="1.13687">
        <ele>74</ele>
        <time>2016-07-10T09:15:24.008Z</time>
      </trkpt>
      <trkpt lat="49.24937" lon="1.13696">
        <ele>74</ele>
        <time>2016-07-10T09:15:25.008Z</time>
      </trkpt>
      <trkpt lat="49.24936" lon="1.13703">
        <ele>73</ele>
        <time>2016-07-10T09:15:26.008Z</time>
      </trkpt>
      <trkpt lat="49.24934" lon="1.1371">
        <ele>73</ele>
        <time>2016-07-10T09:15:27.008Z</time>
      </trkpt>
      <trkpt lat="49.24933" lon="1.13716">
        <ele>73</ele>
        <time>2016-07-10T09:15:28.008Z</time>
      </trkpt>
      <trkpt lat="49.2493" lon="1.13722">
        <ele>74</ele>
        <time>2016-07-10T09:15:29.008Z</time>
      </trkpt>
      <trkpt lat="49.24928" lon="1.13728">
        <ele>74</ele>
        <time>2016-07-10T09:15:30.008Z</time>
      </trkpt>
      <trkpt lat="49.24925" lon="1.13733">
        <ele>74</ele>
        <time>2016-07-10T09:15:31.008Z</time>
      </trkpt>
      <trkpt lat="49.24922" lon="1.13738">
        <ele>74</ele>
        <time>2016-07-10T09:15:32.008Z</time>
      </trkpt>
      <trkpt lat="49.2492" lon="1.13744">
        <ele>74</ele>
        <time>2016-07-10T09:15:33.008Z</time>
      </trkpt>
      <trkpt lat="49.24917" lon="1.13749">
        <ele>74</ele>
        <time>2016-07-10T09:15:34.008Z</time>
      </trkpt>
      <trkpt lat="49.24914" lon="1.13755">
        <ele>74</ele>
        <time>2016-07-10T09:15:35.008Z</time>
      </trkpt>
      <trkpt lat="49.24911" lon="1.13761">
        <ele>73</ele>
        <time>2016-07-10T09:15:36.008Z</time>
      </trkpt>
      <trkpt lat="49.24908" lon="1.13766">
        <ele>72</ele>
        <time>2016-07-10T09:15:37.008Z</time>
      </trkpt>
      <trkpt lat="49.24904" lon="1.1377">
        <ele>72</ele>
        <time>2016-07-10T09:15:38.008Z</time>
      </trkpt>
      <trkpt lat="49.24901" lon="1.13774">
        <ele>71</ele>
        <time>2016-07-10T09:15:39.008Z</time>
      </trkpt>
      <trkpt lat="49.24898" lon="1.13777">
        <ele>71</ele>
        <time>2016-07-10T09:15:40.008Z</time>
      </trkpt>
      <trkpt lat="49.24896" lon="1.13782">
        <ele>70</ele>
        <time>2016-07-10T09:15:41.008Z</time>
      </trkpt>
      <trkpt lat="49.24892" lon="1.13786">
        <ele>70</ele>
        <time>2016-07-10T09:15:42.008Z</time>
      </trkpt>
      <trkpt lat="49.24889" lon="1.13789">
        <ele>69</ele>
        <time>2016-07-10T09:15:43.008Z</time>
      </trkpt>
      <trkpt lat="49.24885" lon="1.13792">
        <ele>68</ele>
        <time>2016-07-10T09:15:44.008Z</time>
      </trkpt>
      <trkpt lat="49.24881" lon="1.13795">
        <ele>68</ele>
        <time>2016-07-10T09:15:45.008Z</time>
      </trkpt>
      <trkpt lat="49.24877" lon="1.13797">
        <ele>67</ele>
        <time>2016-07-10T09:15:46.008Z</time>
      </trkpt>
      <trkpt lat="49.24873" lon="1.138">
        <ele>66</ele>
        <time>2016-07-10T09:15:47.008Z</time>
      </trkpt>
      <trkpt lat="49.24868" lon="1.13802">
        <ele>65</ele>
        <time>2016-07-10T09:15:48.008Z</time>
      </trkpt>
      <trkpt lat="49.24863" lon="1.13804">
        <ele>65</ele>
        <time>2016-07-10T09:15:49.008Z</time>
      </trkpt>
      <trkpt lat="49.24858" lon="1.13806">
        <ele>64</ele>
        <time>2016-07-10T09:15:50.008Z</time>
      </trkpt>
      <trkpt lat="49.24853" lon="1.13808">
        <ele>63</ele>
        <time>2016-07-10T09:15:51.008Z</time>
      </trkpt>
      <trkpt lat="49.24848" lon="1.1381">
        <ele>63</ele>
        <time>2016-07-10T09:15:52.008Z</time>
      </trkpt>
      <trkpt lat="49.24842" lon="1.13813">
        <ele>62</ele>
        <time>2016-07-10T09:15:53.008Z</time>
      </trkpt>
      <trkpt lat="49.24836" lon="1.13815">
        <ele>62</ele>
        <time>2016-07-10T09:15:54.008Z</time>
      </trkpt>
      <trkpt lat="49.24831" lon="1.13815">
        <ele>62</ele>
        <time>2016-07-10T09:15:55.008Z</time>
      </trkpt>
      <trkpt lat="49.24826" lon="1.13814">
        <ele>61</ele>
        <time>2016-07-10T09:15:56.008Z</time>
      </trkpt>
      <trkpt lat="49.24821" lon="1.13812">
        <ele>60</ele>
        <time>2016-07-10T09:15:57.008Z</time>
      </trkpt>
      <trkpt lat="49.24816" lon="1.13809">
        <ele>59</ele>
        <time>2016-07-10T09:15:58.008Z</time>
      </trkpt>
      <trkpt lat="49.24811" lon="1.13806">
        <ele>59</ele>
        <time>2016-07-10T09:15:59.008Z</time>
      </trkpt>
      <trkpt lat="49.24806" lon="1.13804">
        <ele>58</ele>
        <time>2016-07-10T09:16:00.008Z</time>
      </trkpt>
      <trkpt lat="49.24801" lon="1.13802">
        <ele>58</ele>
        <time>2016-07-10T09:16:01.008Z</time>
      </trkpt>
      <trkpt lat="49.24795" lon="1.13801">
        <ele>58</ele>
        <time>2016-07-10T09:16:02.008Z</time>
      </trkpt>
      <trkpt lat="49.2479" lon="1.138">
        <ele>57</ele>
        <time>2016-07-10T09:16:03.008Z</time>
      </trkpt>
      <trkpt lat="49.24785" lon="1.138">
        <ele>57</ele>
        <time>2016-07-10T09:16:04.008Z</time>
      </trkpt>
      <trkpt lat="49.2478" lon="1.13802">
        <ele>57</ele>
        <time>2016-07-10T09:16:05.008Z</time>
      </trkpt>
      <trkpt lat="49.24776" lon="1.13806">
        <ele>58</ele>
        <time>2016-07-10T09:16:06.008Z</time>
      </trkpt>
      <trkpt lat="49.24772" lon="1.13812">
        <ele>57</ele>
        <time>2016-07-10T09:16:07.008Z</time>
      </trkpt>
      <trkpt lat="49.24769" lon="1.13818">
        <ele>58</ele>
        <time>2016-07-10T09:16:08.008Z</time>
      </trkpt>
      <trkpt lat="49.24767" lon="1.13824">
        <ele>59</ele>
        <time>2016-07-10T09:16:09.008Z</time>
      </trkpt>
      <trkpt lat="49.24764" lon="1.13831">
        <ele>59</ele>
        <time>2016-07-10T09:16:10.008Z</time>
      </trkpt>
      <trkpt lat="49.24762" lon="1.13838">
        <ele>60</ele>
        <time>2016-07-10T09:16:11.008Z</time>
      </trkpt>
      <trkpt lat="49.2476" lon="1.13845">
        <ele>61</ele>
        <time>2016-07-10T09:16:12.008Z</time>
      </trkpt>
      <trkpt lat="49.24757" lon="1.13851">
        <ele>63</ele>
        <time>2016-07-10T09:16:13.008Z</time>
      </trkpt>
      <trkpt lat="49.24755" lon="1.13857">
        <ele>65</ele>
        <time>2016-07-10T09:16:14.008Z</time>
      </trkpt>
      <trkpt lat="49.24752" lon="1.13862">
        <ele>66</ele>
        <time>2016-07-10T09:16:15.008Z</time>
      </trkpt>
      <trkpt lat="49.2475" lon="1.13867">
        <ele>67</ele>
        <time>2016-07-10T09:16:16.008Z</time>
      </trkpt>
      <trkpt lat="49.24747" lon="1.13871">
        <ele>67</ele>
        <time>2016-07-10T09:16:17.008Z</time>
      </trkpt>
      <trkpt lat="49.24744" lon="1.13874">
        <ele>67</ele>
        <time>2016-07-10T09:16:18.008Z</time>
      </trkpt>
      <trkpt lat="49.24742" lon="1.13876">
        <ele>68</ele>
        <time>2016-07-10T09:16:19.008Z</time>
      </trkpt>
      <trkpt lat="49.24739" lon="1.13877">
        <ele>68</ele>
        <time>2016-07-10T09:16:20.008Z</time>
      </trkpt>
      <trkpt lat="49.24737" lon="1.13878">
        <ele>68</ele>
        <time>2016-07-10T09:16:21.008Z</time>
      </trkpt>
      <trkpt lat="49.24735" lon="1.13878">
        <ele>68</ele>
        <time>2016-07-10T09:16:22.008Z</time>
      </trkpt>
      <trkpt lat="49.24732" lon="1.13878">
        <ele>69</ele>
        <time>2016-07-10T09:16:23.008Z</time>
      </trkpt>
      <trkpt lat="49.2473" lon="1.13877">
        <ele>70</ele>
        <time>2016-07-10T09:16:24.008Z</time>
      </trkpt>
      <trkpt lat="49.24728" lon="1.13876">
        <ele>71</ele>
        <time>2016-07-10T09:16:25.008Z</time>
      </trkpt>
      <trkpt lat="49.24726" lon="1.13873">
        <ele>71</ele>
        <time>2016-07-10T09:16:26.008Z</time>
      </trkpt>
      <trkpt lat="49.24724" lon="1.1387">
        <ele>72</ele>
        <time>2016-07-10T09:16:27.008Z</time>
      </trkpt>
      <trkpt lat="49.24722" lon="1.13867">
        <ele>72</ele>
        <time>2016-07-10T09:16:28.008Z</time>
      </trkpt>
      <trkpt lat="49.2472" lon="1.13863">
        <ele>73</ele>
        <time>2016-07-10T09:16:29.008Z</time>
      </trkpt>
      <trkpt lat="49.24719" lon="1.13859">
        <ele>73</ele>
        <time>2016-07-10T09:16:30.008Z</time>
      </trkpt>
      <trkpt lat="49.24718" lon="1.13854">
        <ele>73</ele>
        <time>2016-07-10T09:16:31.008Z</time>
      </trkpt>
      <trkpt lat="49.24718" lon="1.1385">
        <ele>73</ele>
        <time>2016-07-10T09:16:32.008Z</time>
      </trkpt>
      <trkpt lat="49.24717" lon="1.13845">
        <ele>73</ele>
        <time>2016-07-10T09:16:33.008Z</time>
      </trkpt>
      <trkpt lat="49.24717" lon="1.13841">
        <ele>74</ele>
        <time>2016-07-10T09:16:34.008Z</time>
      </trkpt>
      <trkpt lat="49.24716" lon="1.13837">
        <ele>74</ele>
        <time>2016-07-10T09:16:35.008Z</time>
      </trkpt>
      <trkpt lat="49.24715" lon="1.13834">
        <ele>74</ele>
        <time>2016-07-10T09:16:36.008Z</time>
      </trkpt>
      <trkpt lat="49.24714" lon="1.1383">
        <ele>75</ele>
        <time>2016-07-10T09:16:37.008Z</time>
      </trkpt>
      <trkpt lat="49.24714" lon="1.13827">
        <ele>75</ele>
        <time>2016-07-10T09:16:38.008Z</time>
      </trkpt>
      <trkpt lat="49.24713" lon="1.13824">
        <ele>76</ele>
        <time>2016-07-10T09:16:39.008Z</time>
      </trkpt>
      <trkpt lat="49.24713" lon="1.13822">
        <ele>76</ele>
        <time>2016-07-10T09:16:40.008Z</time>
      </trkpt>
      <trkpt lat="49.24713" lon="1.1382">
        <ele>77</ele>
        <time>2016-07-10T09:16:41.008Z</time>
      </trkpt>
      <trkpt lat="49.24712" lon="1.13818">
        <ele>77</ele>
        <time>2016-07-10T09:16:42.008Z</time>
      </trkpt>
      <trkpt lat="49.24711" lon="1.13817">
        <ele>77</ele>
        <time>2016-07-10T09:16:43.008Z</time>
      </trkpt>
      <trkpt lat="49.2471" lon="1.13816">
        <ele>77</ele>
        <time>2016-07-10T09:16:44.008Z</time>
      </trkpt>
      <trkpt lat="49.24709" lon="1.13815">
        <ele>78</ele>
        <time>2016-07-10T09:16:45.008Z</time>
      </trkpt>
      <trkpt lat="49.24708" lon="1.13815">
        <ele>78</ele>
        <time>2016-07-10T09:16:46.008Z</time>
      </trkpt>
      <trkpt lat="49.24706" lon="1.13815">
        <ele>78</ele>
        <time>2016-07-10T09:16:47.008Z</time>
      </trkpt>
      <trkpt lat="49.24704" lon="1.13816">
        <ele>78</ele>
        <time>2016-07-10T09:16:48.008Z</time>
      </trkpt>
      <trkpt lat="49.24702" lon="1.13815">
        <ele>79</ele>
        <time>2016-07-10T09:16:49.008Z</time>
      </trkpt>
      <trkpt lat="49.24699" lon="1.13815">
        <ele>79</ele>
        <time>2016-07-10T09:16:50.008Z</time>
      </trkpt>
      <trkpt lat="49.24697" lon="1.13814">
        <ele>79</ele>
        <time>2016-07-10T09:16:51.008Z</time>
      </trkpt>
      <trkpt lat="49.24694" lon="1.13813">
        <ele>79</ele>
        <time>2016-07-10T09:16:52.008Z</time>
      </trkpt>
      <trkpt lat="49.24692" lon="1.13812">
        <ele>79</ele>
        <time>2016-07-10T09:16:53.008Z</time>
      </trkpt>
      <trkpt lat="49.2469" lon="1.13811">
        <ele>79</ele>
        <time>2016-07-10T09:16:54.008Z</time>
      </trkpt>
      <trkpt lat="49.24688" lon="1.1381">
        <ele>80</ele>
        <time>2016-07-10T09:16:55.008Z</time>
      </trkpt>
      <trkpt lat="49.24687" lon="1.13809">
        <ele>81</ele>
        <time>2016-07-10T09:16:56.008Z</time>
      </trkpt>
      <trkpt lat="49.24685" lon="1.13808">
        <ele>81</ele>
        <time>2016-07-10T09:16:57.008Z</time>
      </trkpt>
      <trkpt lat="49.24683" lon="1.13807">
        <ele>81</ele>
        <time>2016-07-10T09:16:58.008Z</time>
      </trkpt>
      <trkpt lat="49.24681" lon="1.13806">
        <ele>81</ele>
        <time>2016-07-10T09:16:59.008Z</time>
      </trkpt>
      <trkpt lat="49.24679" lon="1.13805">
        <ele>81</ele>
        <time>2016-07-10T09:17:00.008Z</time>
      </trkpt>
      <trkpt lat="49.24676" lon="1.13804">
        <ele>81</ele>
        <time>2016-07-10T09:17:01.008Z</time>
      </trkpt>
      <trkpt lat="49.24674" lon="1.13803">
        <ele>81</ele>
        <time>2016-07-10T09:17:02.008Z</time>
      </trkpt>
      <trkpt lat="49.24671" lon="1.13802">
        <ele>81</ele>
        <time>2016-07-10T09:17:03.008Z</time>
      </trkpt>
      <trkpt lat="49.24669" lon="1.13801">
        <ele>81</ele>
        <time>2016-07-10T09:17:04.008Z</time>
      </trkpt>
      <trkpt lat="49.24668" lon="1.138">
        <ele>81</ele>
        <time>2016-07-10T09:17:05.008Z</time>
      </trkpt>
      <trkpt lat="49.24666" lon="1.13799">
        <ele>82</ele>
        <time>2016-07-10T09:17:06.008Z</time>
      </trkpt>
      <trkpt lat="49.24664" lon="1.13798">
        <ele>82</ele>
        <time>2016-07-10T09:17:07.008Z</time>
      </trkpt>
      <trkpt lat="49.24663" lon="1.13797">
        <ele>82</ele>
        <time>2016-07-10T09:17:08.008Z</time>
      </trkpt>
      <trkpt lat="49.24661" lon="1.13796">
        <ele>82</ele>
        <time>2016-07-10T09:17:09.008Z</time>
      </trkpt>
      <trkpt lat="49.24659" lon="1.13795">
        <ele>83</ele>
        <time>2016-07-10T09:17:10.008Z</time>
      </trkpt>
      <trkpt lat="49.24657" lon="1.13794">
        <ele>83</ele>
        <time>2016-07-10T09:17:11.008Z</time>
      </trkpt>
      <trkpt lat="49.24655" lon="1.13792">
        <ele>83</ele>
        <time>2016-07-10T09:17:12.008Z</time>
      </trkpt>
      <trkpt lat="49.24653" lon="1.13791">
        <ele>83</ele>
        <time>2016-07-10T09:17:13.008Z</time>
      </trkpt>
      <trkpt lat="49.2465" lon="1.1379">
        <ele>83</ele>
        <time>2016-07-10T09:17:14.008Z</time>
      </trkpt>
      <trkpt lat="49.24648" lon="1.1379">
        <ele>83</ele>
        <time>2016-07-10T09:17:15.008Z</time>
      </trkpt>
      <trkpt lat="49.24646" lon="1.13791">
        <ele>83</ele>
        <time>2016-07-10T09:17:16.008Z</time>
      </trkpt>
      <trkpt lat="49.24645" lon="1.13793">
        <ele>83</ele>
        <time>2016-07-10T09:17:17.008Z</time>
      </trkpt>
      <trkpt lat="49.24643" lon="1.13795">
        <ele>84</ele>
        <time>2016-07-10T09:17:18.008Z</time>
      </trkpt>
      <trkpt lat="49.24642" lon="1.13797">
        <ele>84</ele>
        <time>2016-07-10T09:17:19.008Z</time>
      </trkpt>
      <trkpt lat="49.2464" lon="1.13797">
        <ele>83</ele>
        <time>2016-07-10T09:17:20.008Z</time>
      </trkpt>
      <trkpt lat="49.24637" lon="1.13795">
        <ele>83</ele>
        <time>2016-07-10T09:17:21.008Z</time>
      </trkpt>
      <trkpt lat="49.24635" lon="1.13794">
        <ele>83</ele>
        <time>2016-07-10T09:17:22.008Z</time>
      </trkpt>
      <trkpt lat="49.24632" lon="1.13794">
        <ele>83</ele>
        <time>2016-07-10T09:17:23.008Z</time>
      </trkpt>
      <trkpt lat="49.2463" lon="1.13793">
        <ele>83</ele>
        <time>2016-07-10T09:17:24.008Z</time>
      </trkpt>
      <trkpt lat="49.24627" lon="1.13793">
        <ele>83</ele>
        <time>2016-07-10T09:17:25.008Z</time>
      </trkpt>
      <trkpt lat="49.24624" lon="1.13792">
        <ele>82</ele>
        <time>2016-07-10T09:17:26.008Z</time>
      </trkpt>
      <trkpt lat="49.24621" lon="1.13791">
        <ele>81</ele>
        <time>2016-07-10T09:17:27.008Z</time>
      </trkpt>
      <trkpt lat="49.24619" lon="1.13791">
        <ele>81</ele>
        <time>2016-07-10T09:17:28.008Z</time>
      </trkpt>
      <trkpt lat="49.24617" lon="1.1379">
        <ele>81</ele>
        <time>2016-07-10T09:17:29.008Z</time>
      </trkpt>
      <trkpt lat="49.24615" lon="1.1379">
        <ele>81</ele>
        <time>2016-07-10T09:17:30.008Z</time>
      </trkpt>
      <trkpt lat="49.24613" lon="1.1379">
        <ele>81</ele>
        <time>2016-07-10T09:17:31.008Z</time>
      </trkpt>
      <trkpt lat="49.24611" lon="1.13789">
        <ele>81</ele>
        <time>2016-07-10T09:17:32.008Z</time>
      </trkpt>
      <trkpt lat="49.24609" lon="1.13789">
        <ele>81</ele>
        <time>2016-07-10T09:17:33.008Z</time>
      </trkpt>
      <trkpt lat="49.24607" lon="1.13788">
        <ele>81</ele>
        <time>2016-07-10T09:17:34.008Z</time>
      </trkpt>
      <trkpt lat="49.24605" lon="1.13788">
        <ele>81</ele>
        <time>2016-07-10T09:17:35.008Z</time>
      </trkpt>
      <trkpt lat="49.24603" lon="1.13787">
        <ele>81</ele>
        <time>2016-07-10T09:17:36.008Z</time>
      </trkpt>
      <trkpt lat="49.24601" lon="1.13786">
        <ele>81</ele>
        <time>2016-07-10T09:17:37.008Z</time>
      </trkpt>
      <trkpt lat="49.24599" lon="1.13784">
        <ele>82</ele>
        <time>2016-07-10T09:17:38.008Z</time>
      </trkpt>
      <trkpt lat="49.24597" lon="1.13783">
        <ele>81</ele>
        <time>2016-07-10T09:17:39.008Z</time>
      </trkpt>
      <trkpt lat="49.24596" lon="1.13782">
        <ele>81</ele>
        <time>2016-07-10T09:17:40.008Z</time>
      </trkpt>
      <trkpt lat="49.24594" lon="1.13781">
        <ele>83</ele>
        <time>2016-07-10T09:17:41.008Z</time>
      </trkpt>
      <trkpt lat="49.24592" lon="1.1378">
        <ele>83</ele>
        <time>2016-07-10T09:17:42.008Z</time>
      </trkpt>
      <trkpt lat="49.24589" lon="1.13779">
        <ele>83</ele>
        <time>2016-07-10T09:17:43.008Z</time>
      </trkpt>
      <trkpt lat="49.24587" lon="1.13778">
        <ele>82</ele>
        <time>2016-07-10T09:17:44.008Z</time>
      </trkpt>
      <trkpt lat="49.24585" lon="1.13777">
        <ele>83</ele>
        <time>2016-07-10T09:17:45.008Z</time>
      </trkpt>
      <trkpt lat="49.24582" lon="1.13777">
        <ele>82</ele>
        <time>2016-07-10T09:17:46.008Z</time>
      </trkpt>
      <trkpt lat="49.2458" lon="1.13776">
        <ele>83</ele>
        <time>2016-07-10T09:17:47.008Z</time>
      </trkpt>
      <trkpt lat="49.24578" lon="1.13776">
        <ele>83</ele>
        <time>2016-07-10T09:17:48.008Z</time>
      </trkpt>
      <trkpt lat="49.24576" lon="1.13776">
        <ele>83</ele>
        <time>2016-07-10T09:17:49.008Z</time>
      </trkpt>
      <trkpt lat="49.24574" lon="1.13775">
        <ele>84</ele>
        <time>2016-07-10T09:17:50.008Z</time>
      </trkpt>
      <trkpt lat="49.24572" lon="1.13775">
        <ele>84</ele>
        <time>2016-07-10T09:17:51.008Z</time>
      </trkpt>
      <trkpt lat="49.2457" lon="1.13775">
        <ele>84</ele>
        <time>2016-07-10T09:17:52.008Z</time>
      </trkpt>
      <trkpt lat="49.24568" lon="1.13776">
        <ele>85</ele>
        <time>2016-07-10T09:17:53.008Z</time>
      </trkpt>
      <trkpt lat="49.24566" lon="1.13776">
        <ele>86</ele>
        <time>2016-07-10T09:17:54.008Z</time>
      </trkpt>
      <trkpt lat="49.24564" lon="1.13775">
        <ele>87</ele>
        <time>2016-07-10T09:17:55.008Z</time>
      </trkpt>
      <trkpt lat="49.24561" lon="1.13774">
        <ele>87</ele>
        <time>2016-07-10T09:17:56.008Z</time>
      </trkpt>
      <trkpt lat="49.24559" lon="1.13772">
        <ele>86</ele>
        <time>2016-07-10T09:17:57.008Z</time>
      </trkpt>
      <trkpt lat="49.24557" lon="1.1377">
        <ele>86</ele>
        <time>2016-07-10T09:17:58.008Z</time>
      </trkpt>
      <trkpt lat="49.24555" lon="1.13768">
        <ele>85</ele>
        <time>2016-07-10T09:17:59.008Z</time>
      </trkpt>
      <trkpt lat="49.24553" lon="1.13766">
        <ele>85</ele>
        <time>2016-07-10T09:18:00.008Z</time>
      </trkpt>
      <trkpt lat="49.2455" lon="1.13765">
        <ele>84</ele>
        <time>2016-07-10T09:18:01.008Z</time>
      </trkpt>
      <trkpt lat="49.24547" lon="1.13763">
        <ele>83</ele>
        <time>2016-07-10T09:18:02.008Z</time>
      </trkpt>
      <trkpt lat="49.24543" lon="1.13762">
        <ele>83</ele>
        <time>2016-07-10T09:18:03.008Z</time>
      </trkpt>
      <trkpt lat="49.2454" lon="1.13761">
        <ele>82</ele>
        <time>2016-07-10T09:18:04.008Z</time>
      </trkpt>
      <trkpt lat="49.24538" lon="1.1376">
        <ele>83</ele>
        <time>2016-07-10T09:18:05.008Z</time>
      </trkpt>
      <trkpt lat="49.24535" lon="1.13758">
        <ele>82</ele>
        <time>2016-07-10T09:18:06.008Z</time>
      </trkpt>
      <trkpt lat="49.24532" lon="1.13756">
        <ele>82</ele>
        <time>2016-07-10T09:18:07.008Z</time>
      </trkpt>
      <trkpt lat="49.2453" lon="1.13754">
        <ele>82</ele>
        <time>2016-07-10T09:18:08.008Z</time>
      </trkpt>
      <trkpt lat="49.24527" lon="1.13752">
        <ele>82</ele>
        <time>2016-07-10T09:18:09.008Z</time>
      </trkpt>
      <trkpt lat="49.24525" lon="1.1375">
        <ele>81</ele>
        <time>2016-07-10T09:18:10.008Z</time>
      </trkpt>
      <trkpt lat="49.24522" lon="1.13748">
        <ele>81</ele>
        <time>2016-07-10T09:18:11.008Z</time>
      </trkpt>
      <trkpt lat="49.2452" lon="1.13746">
        <ele>82</ele>
        <time>2016-07-10T09:18:12.008Z</time>
      </trkpt>
      <trkpt lat="49.24517" lon="1.13745">
        <ele>82</ele>
        <time>2016-07-10T09:18:13.008Z</time>
      </trkpt>
      <trkpt lat="49.24514" lon="1.13744">
        <ele>82</ele>
        <time>2016-07-10T09:18:14.008Z</time>
      </trkpt>
      <trkpt lat="49.24511" lon="1.13742">
        <ele>82</ele>
        <time>2016-07-10T09:18:15.008Z</time>
      </trkpt>
      <trkpt lat="49.24509" lon="1.1374">
        <ele>83</ele>
        <time>2016-07-10T09:18:16.008Z</time>
      </trkpt>
      <trkpt lat="49.24506" lon="1.13737">
        <ele>83</ele>
        <time>2016-07-10T09:18:17.008Z</time>
      </trkpt>
      <trkpt lat="49.24504" lon="1.13735">
        <ele>84</ele>
        <time>2016-07-10T09:18:18.008Z</time>
      </trkpt>
      <trkpt lat="49.24502" lon="1.13733">
        <ele>85</ele>
        <time>2016-07-10T09:18:19.008Z</time>
      </trkpt>
      <trkpt lat="49.245" lon="1.13731">
        <ele>85</ele>
        <time>2016-07-10T09:18:20.008Z</time>
      </trkpt>
      <trkpt lat="49.24499" lon="1.1373">
        <ele>85</ele>
        <time>2016-07-10T09:18:21.008Z</time>
      </trkpt>
      <trkpt lat="49.24497" lon="1.13729">
        <ele>85</ele>
        <time>2016-07-10T09:18:22.008Z</time>
      </trkpt>
      <trkpt lat="49.24494" lon="1.13728">
        <ele>85</ele>
        <time>2016-07-10T09:18:23.008Z</time>
      </trkpt>
      <trkpt lat="49.24492" lon="1.13727">
        <ele>87</ele>
        <time>2016-07-10T09:18:24.008Z</time>
      </trkpt>
      <trkpt lat="49.2449" lon="1.13726">
        <ele>88</ele>
        <time>2016-07-10T09:18:25.008Z</time>
      </trkpt>
      <trkpt lat="49.24487" lon="1.13725">
        <ele>88</ele>
        <time>2016-07-10T09:18:26.008Z</time>
      </trkpt>
      <trkpt lat="49.24484" lon="1.13724">
        <ele>88</ele>
        <time>2016-07-10T09:18:27.008Z</time>
      </trkpt>
      <trkpt lat="49.24481" lon="1.13724">
        <ele>89</ele>
        <time>2016-07-10T09:18:28.008Z</time>
      </trkpt>
      <trkpt lat="49.24477" lon="1.13722">
        <ele>87</ele>
        <time>2016-07-10T09:18:29.008Z</time>
      </trkpt>
      <trkpt lat="49.24473" lon="1.13721">
        <ele>87</ele>
        <time>2016-07-10T09:18:30.008Z</time>
      </trkpt>
      <trkpt lat="49.2447" lon="1.1372">
        <ele>87</ele>
        <time>2016-07-10T09:18:31.008Z</time>
      </trkpt>
      <trkpt lat="49.24466" lon="1.13719">
        <ele>87</ele>
        <time>2016-07-10T09:18:32.008Z</time>
      </trkpt>
      <trkpt lat="49.24463" lon="1.13717">
        <ele>86</ele>
        <time>2016-07-10T09:18:33.008Z</time>
      </trkpt>
      <trkpt lat="49.2446" lon="1.13714">
        <ele>87</ele>
        <time>2016-07-10T09:18:34.008Z</time>
      </trkpt>
      <trkpt lat="49.24458" lon="1.13712">
        <ele>88</ele>
        <time>2016-07-10T09:18:35.008Z</time>
      </trkpt>
      <trkpt lat="49.24456" lon="1.13709">
        <ele>86</ele>
        <time>2016-07-10T09:18:36.008Z</time>
      </trkpt>
      <trkpt lat="49.24453" lon="1.13706">
        <ele>84</ele>
        <time>2016-07-10T09:18:37.008Z</time>
      </trkpt>
      <trkpt lat="49.2445" lon="1.13703">
        <ele>84</ele>
        <time>2016-07-10T09:18:38.008Z</time>
      </trkpt>
      <trkpt lat="49.24447" lon="1.137">
        <ele>85</ele>
        <time>2016-07-10T09:18:39.008Z</time>
      </trkpt>
      <trkpt lat="49.24444" lon="1.13698">
        <ele>85</ele>
        <time>2016-07-10T09:18:40.008Z</time>
      </trkpt>
      <trkpt lat="49.2444" lon="1.13696">
        <ele>85</ele>
        <time>2016-07-10T09:18:41.008Z</time>
      </trkpt>
      <trkpt lat="49.24438" lon="1.13695">
        <ele>84</ele>
        <time>2016-07-10T09:18:42.008Z</time>
      </trkpt>
      <trkpt lat="49.24435" lon="1.13693">
        <ele>84</ele>
        <time>2016-07-10T09:18:43.008Z</time>
      </trkpt>
      <trkpt lat="49.24433" lon="1.13691">
        <ele>83</ele>
        <time>2016-07-10T09:18:44.008Z</time>
      </trkpt>
      <trkpt lat="49.24431" lon="1.13689">
        <ele>83</ele>
        <time>2016-07-10T09:18:45.008Z</time>
      </trkpt>
      <trkpt lat="49.24428" lon="1.13687">
        <ele>83</ele>
        <time>2016-07-10T09:18:46.008Z</time>
      </trkpt>
      <trkpt lat="49.24425" lon="1.13686">
        <ele>84</ele>
        <time>2016-07-10T09:18:47.008Z</time>
      </trkpt>
      <trkpt lat="49.24423" lon="1.13685">
        <ele>84</ele>
        <time>2016-07-10T09:18:48.008Z</time>
      </trkpt>
      <trkpt lat="49.2442" lon="1.13683">
        <ele>85</ele>
        <time>2016-07-10T09:18:49.008Z</time>
      </trkpt>
      <trkpt lat="49.24416" lon="1.13682">
        <ele>86</ele>
        <time>2016-07-10T09:18:50.008Z</time>
      </trkpt>
      <trkpt lat="49.24412" lon="1.1368">
        <ele>87</ele>
        <time>2016-07-10T09:18:51.008Z</time>
      </trkpt>
      <trkpt lat="49.24409" lon="1.13677">
        <ele>89</ele>
        <time>2016-07-10T09:18:52.008Z</time>
      </trkpt>
      <trkpt lat="49.24406" lon="1.13673">
        <ele>91</ele>
        <time>2016-07-10T09:18:53.008Z</time>
      </trkpt>
      <trkpt lat="49.24404" lon="1.13669">
        <ele>93</ele>
        <time>2016-07-10T09:18:54.008Z</time>
      </trkpt>
      <trkpt lat="49.24403" lon="1.13665">
        <ele>95</ele>
        <time>2016-07-10T09:18:55.008Z</time>
      </trkpt>
      <trkpt lat="49.24401" lon="1.13661">
        <ele>97</ele>
        <time>2016-07-10T09:18:56.008Z</time>
      </trkpt>
      <trkpt lat="49.244" lon="1.13657">
        <ele>97</ele>
        <time>2016-07-10T09:18:57.008Z</time>
      </trkpt>
      <trkpt lat="49.24398" lon="1.13655">
        <ele>99</ele>
        <time>2016-07-10T09:18:58.008Z</time>
      </trkpt>
      <trkpt lat="49.24396" lon="1.13653">
        <ele>99</ele>
        <time>2016-07-10T09:18:59.008Z</time>
      </trkpt>
      <trkpt lat="49.24394" lon="1.13652">
        <ele>99</ele>
        <time>2016-07-10T09:19:00.008Z</time>
      </trkpt>
      <trkpt lat="49.24393" lon="1.1365">
        <ele>99</ele>
        <time>2016-07-10T09:19:01.008Z</time>
      </trkpt>
      <trkpt lat="49.24391" lon="1.13649">
        <ele>99</ele>
        <time>2016-07-10T09:19:02.008Z</time>
      </trkpt>
      <trkpt lat="49.24389" lon="1.13648">
        <ele>99</ele>
        <time>2016-07-10T09:19:03.008Z</time>
      </trkpt>
      <trkpt lat="49.24387" lon="1.13647">
        <ele>99</ele>
        <time>2016-07-10T09:19:04.008Z</time>
      </trkpt>
      <trkpt lat="49.24385" lon="1.13647">
        <ele>99</ele>
        <time>2016-07-10T09:19:05.008Z</time>
      </trkpt>
      <trkpt lat="49.24383" lon="1.13646">
        <ele>99</ele>
        <time>2016-07-10T09:19:06.008Z</time>
      </trkpt>
      <trkpt lat="49.24382" lon="1.13646">
        <ele>100</ele>
        <time>2016-07-10T09:19:07.008Z</time>
      </trkpt>
      <trkpt lat="49.2438" lon="1.13646">
        <ele>99</ele>
        <time>2016-07-10T09:19:08.008Z</time>
      </trkpt>
      <trkpt lat="49.24379" lon="1.13647">
        <ele>100</ele>
        <time>2016-07-10T09:19:09.008Z</time>
      </trkpt>
      <trkpt lat="49.24379" lon="1.13649">
        <ele>101</ele>
        <time>2016-07-10T09:19:10.008Z</time>
      </trkpt>
      <trkpt lat="49.24378" lon="1.13651">
        <ele>101</ele>
        <time>2016-07-10T09:19:11.008Z</time>
      </trkpt>
      <trkpt lat="49.24377" lon="1.13654">
        <ele>101</ele>
        <time>2016-07-10T09:19:12.008Z</time>
      </trkpt>
      <trkpt lat="49.24377" lon="1.13657">
        <ele>102</ele>
        <time>2016-07-10T09:19:13.008Z</time>
      </trkpt>
      <trkpt lat="49.24375" lon="1.13658">
        <ele>103</ele>
        <time>2016-07-10T09:19:14.008Z</time>
      </trkpt>
      <trkpt lat="49.24374" lon="1.13658">
        <ele>103</ele>
        <time>2016-07-10T09:19:15.008Z</time>
      </trkpt>
      <trkpt lat="49.24373" lon="1.13656">
        <ele>104</ele>
        <time>2016-07-10T09:19:16.008Z</time>
      </trkpt>
      <trkpt lat="49.24372" lon="1.13654">
        <ele>103</ele>
        <time>2016-07-10T09:19:17.008Z</time>
      </trkpt>
      <trkpt lat="49.24372" lon="1.13652">
        <ele>103</ele>
        <time>2016-07-10T09:19:18.008Z</time>
      </trkpt>
      <trkpt lat="49.24372" lon="1.1365">
        <ele>104</ele>
        <time>2016-07-10T09:19:19.008Z</time>
      </trkpt>
      <trkpt lat="49.24373" lon="1.13648">
        <ele>104</ele>
        <time>2016-07-10T09:19:20.008Z</time>
      </trkpt>
      <trkpt lat="49.24373" lon="1.13646">
        <ele>104</ele>
        <time>2016-07-10T09:19:21.008Z</time>
      </trkpt>
      <trkpt lat="49.24374" lon="1.13644">
        <ele>104</ele>
        <time>2016-07-10T09:19:22.008Z</time>
      </trkpt>
      <trkpt lat="49.24374" lon="1.13642">
        <ele>104</ele>
        <time>2016-07-10T09:19:23.008Z</time>
      </trkpt>
      <trkpt lat="49.24374" lon="1.13641">
        <ele>105</ele>
        <time>2016-07-10T09:19:24.008Z</time>
      </trkpt>
      <trkpt lat="49.24374" lon="1.13639">
        <ele>105</ele>
        <time>2016-07-10T09:19:25.008Z</time>
      </trkpt>
      <trkpt lat="49.24373" lon="1.13638">
        <ele>104</ele>
        <time>2016-07-10T09:19:26.008Z</time>
      </trkpt>
      <trkpt lat="49.24372" lon="1.13638">
        <ele>104</ele>
        <time>2016-07-10T09:19:27.008Z</time>
      </trkpt>
      <trkpt lat="49.24371" lon="1.13638">
        <ele>104</ele>
        <time>2016-07-10T09:19:28.008Z</time>
      </trkpt>
      <trkpt lat="49.2437" lon="1.13638">
        <ele>104</ele>
        <time>2016-07-10T09:19:29.008Z</time>
      </trkpt>
      <trkpt lat="49.2437" lon="1.13639">
        <ele>103</ele>
        <time>2016-07-10T09:19:30.008Z</time>
      </trkpt>
      <trkpt lat="49.24369" lon="1.1364">
        <ele>104</ele>
        <time>2016-07-10T09:19:31.008Z</time>
      </trkpt>
      <trkpt lat="49.24369" lon="1.13642">
        <ele>103</ele>
        <time>2016-07-10T09:19:32.008Z</time>
      </trkpt>
      <trkpt lat="49.2437" lon="1.13643">
        <ele>103</ele>
        <time>2016-07-10T09:19:33.008Z</time>
      </trkpt>
      <trkpt lat="49.2437" lon="1.13643">
        <ele>103</ele>
        <time>2016-07-10T09:19:34.008Z</time>
      </trkpt>
      <trkpt lat="49.24371" lon="1.13643">
        <ele>102</ele>
        <time>2016-07-10T09:19:35.008Z</time>
      </trkpt>
      <trkpt lat="49.24372" lon="1.13643">
        <ele>102</ele>
        <time>2016-07-10T09:19:36.008Z</time>
      </trkpt>
      <trkpt lat="49.24372" lon="1.13641">
        <ele>101</ele>
        <time>2016-07-10T09:19:37.008Z</time>
      </trkpt>
      <trkpt lat="49.24372" lon="1.1364">
        <ele>101</ele>
        <time>2016-07-10T09:19:38.008Z</time>
      </trkpt>
      <trkpt lat="49.24371" lon="1.13639">
        <ele>99</ele>
        <time>2016-07-10T09:19:39.008Z</time>
      </trkpt>
      <trkpt lat="49.24371" lon="1.13639">
        <ele>98</ele>
        <time>2016-07-10T09:19:40.008Z</time>
      </trkpt>
      <trkpt lat="49.24371" lon="1.1364">
        <ele>98</ele>
        <time>2016-07-10T09:19:41.008Z</time>
      </trkpt>
      <trkpt lat="49.24371" lon="1.13642">
        <ele>100</ele>
        <time>2016-07-10T09:19:42.008Z</time>
      </trkpt>
      <trkpt lat="49.24371" lon="1.13646">
        <ele>100</ele>
        <time>2016-07-10T09:19:43.008Z</time>
      </trkpt>
      <trkpt lat="49.24371" lon="1.13651">
        <ele>100</ele>
        <time>2016-07-10T09:19:44.008Z</time>
      </trkpt>
      <trkpt lat="49.24371" lon="1.13656">
        <ele>100</ele>
        <time>2016-07-10T09:19:45.008Z</time>
      </trkpt>
      <trkpt lat="49.2437" lon="1.1366">
        <ele>100</ele>
        <time>2016-07-10T09:19:46.008Z</time>
      </trkpt>
      <trkpt lat="49.2437" lon="1.13665">
        <ele>101</ele>
        <time>2016-07-10T09:19:47.008Z</time>
      </trkpt>
      <trkpt lat="49.24369" lon="1.1367">
        <ele>101</ele>
        <time>2016-07-10T09:19:48.008Z</time>
      </trkpt>
      <trkpt lat="49.24368" lon="1.13675">
        <ele>101</ele>
        <time>2016-07-10T09:19:49.008Z</time>
      </trkpt>
      <trkpt lat="49.24367" lon="1.13679">
        <ele>100</ele>
        <time>2016-07-10T09:19:50.008Z</time>
      </trkpt>
      <trkpt lat="49.24366" lon="1.13683">
        <ele>100</ele>
        <time>2016-07-10T09:19:51.008Z</time>
      </trkpt>
      <trkpt lat="49.24365" lon="1.13688">
        <ele>101</ele>
        <time>2016-07-10T09:19:52.008Z</time>
      </trkpt>
      <trkpt lat="49.24364" lon="1.13693">
        <ele>100</ele>
        <time>2016-07-10T09:19:53.008Z</time>
      </trkpt>
      <trkpt lat="49.24363" lon="1.13697">
        <ele>100</ele>
        <time>2016-07-10T09:19:54.008Z</time>
      </trkpt>
      <trkpt lat="49.24362" lon="1.13701">
        <ele>100</ele>
        <time>2016-07-10T09:19:55.008Z</time>
      </trkpt>
      <trkpt lat="49.24362" lon="1.13704">
        <ele>100</ele>
        <time>2016-07-10T09:19:56.008Z</time>
      </trkpt>
      <trkpt lat="49.24361" lon="1.13708">
        <ele>101</ele>
        <time>2016-07-10T09:19:57.008Z</time>
      </trkpt>
      <trkpt lat="49.2436" lon="1.13713">
        <ele>101</ele>
        <time>2016-07-10T09:19:58.008Z</time>
      </trkpt>
      <trkpt lat="49.24359" lon="1.13718">
        <ele>101</ele>
        <time>2016-07-10T09:19:59.008Z</time>
      </trkpt>
      <trkpt lat="49.24358" lon="1.13723">
        <ele>101</ele>
        <time>2016-07-10T09:20:00.008Z</time>
      </trkpt>
      <trkpt lat="49.24356" lon="1.13728">
        <ele>100</ele>
        <time>2016-07-10T09:20:01.008Z</time>
      </trkpt>
      <trkpt lat="49.24355" lon="1.13733">
        <ele>100</ele>
        <time>2016-07-10T09:20:02.008Z</time>
      </trkpt>
      <trkpt lat="49.24354" lon="1.1374">
        <ele>100</ele>
        <time>2016-07-10T09:20:03.008Z</time>
      </trkpt>
      <trkpt lat="49.24353" lon="1.13746">
        <ele>100</ele>
        <time>2016-07-10T09:20:04.008Z</time>
      </trkpt>
      <trkpt lat="49.24352" lon="1.13753">
        <ele>99</ele>
        <time>2016-07-10T09:20:05.008Z</time>
      </trkpt>
      <trkpt lat="49.24351" lon="1.1376">
        <ele>98</ele>
        <time>2016-07-10T09:20:06.008Z</time>
      </trkpt>
      <trkpt lat="49.2435" lon="1.13767">
        <ele>99</ele>
        <time>2016-07-10T09:20:07.008Z</time>
      </trkpt>
      <trkpt lat="49.24349" lon="1.13774">
        <ele>99</ele>
        <time>2016-07-10T09:20:08.008Z</time>
      </trkpt>
      <trkpt lat="49.24348" lon="1.13782">
        <ele>98</ele>
        <time>2016-07-10T09:20:09.008Z</time>
      </trkpt>
      <trkpt lat="49.24346" lon="1.13788">
        <ele>98</ele>
        <time>2016-07-10T09:20:10.008Z</time>
      </trkpt>
      <trkpt lat="49.24345" lon="1.13795">
        <ele>98</ele>
        <time>2016-07-10T09:20:11.008Z</time>
      </trkpt>
      <trkpt lat="49.24344" lon="1.13802">
        <ele>98</ele>
        <time>2016-07-10T09:20:12.008Z</time>
      </trkpt>
      <trkpt lat="49.24343" lon="1.13809">
        <ele>97</ele>
        <time>2016-07-10T09:20:13.008Z</time>
      </trkpt>
      <trkpt lat="49.24342" lon="1.13816">
        <ele>97</ele>
        <time>2016-07-10T09:20:14.008Z</time>
      </trkpt>
      <trkpt lat="49.24341" lon="1.13823">
        <ele>97</ele>
        <time>2016-07-10T09:20:15.008Z</time>
      </trkpt>
      <trkpt lat="49.24339" lon="1.1383">
        <ele>97</ele>
        <time>2016-07-10T09:20:16.008Z</time>
      </trkpt>
      <trkpt lat="49.24338" lon="1.13837">
        <ele>97</ele>
        <time>2016-07-10T09:20:17.008Z</time>
      </trkpt>
      <trkpt lat="49.24337" lon="1.13844">
        <ele>96</ele>
        <time>2016-07-10T09:20:18.008Z</time>
      </trkpt>
      <trkpt lat="49.24336" lon="1.13851">
        <ele>97</ele>
        <time>2016-07-10T09:20:19.008Z</time>
      </trkpt>
      <trkpt lat="49.24335" lon="1.13858">
        <ele>98</ele>
        <time>2016-07-10T09:20:20.008Z</time>
      </trkpt>
      <trkpt lat="49.24334" lon="1.13865">
        <ele>98</ele>
        <time>2016-07-10T09:20:21.008Z</time>
      </trkpt>
      <trkpt lat="49.24333" lon="1.13872">
        <ele>98</ele>
        <time>2016-07-10T09:20:22.008Z</time>
      </trkpt>
      <trkpt lat="49.24332" lon="1.13879">
        <ele>100</ele>
        <time>2016-07-10T09:20:23.008Z</time>
      </trkpt>
      <trkpt lat="49.24331" lon="1.13886">
        <ele>101</ele>
        <time>2016-07-10T09:20:24.008Z</time>
      </trkpt>
      <trkpt lat="49.2433" lon="1.13892">
        <ele>102</ele>
        <time>2016-07-10T09:20:25.008Z</time>
      </trkpt>
      <trkpt lat="49.24329" lon="1.13899">
        <ele>102</ele>
        <time>2016-07-10T09:20:26.008Z</time>
      </trkpt>
      <trkpt lat="49.24329" lon="1.13906">
        <ele>103</ele>
        <time>2016-07-10T09:20:27.008Z</time>
      </trkpt>
      <trkpt lat="49.24328" lon="1.13913">
        <ele>103</ele>
        <time>2016-07-10T09:20:28.008Z</time>
      </trkpt>
      <trkpt lat="49.24327" lon="1.1392">
        <ele>104</ele>
        <time>2016-07-10T09:20:29.008Z</time>
      </trkpt>
      <trkpt lat="49.24325" lon="1.13927">
        <ele>104</ele>
        <time>2016-07-10T09:20:30.008Z</time>
      </trkpt>
      <trkpt lat="49.24324" lon="1.13934">
        <ele>104</ele>
        <time>2016-07-10T09:20:31.008Z</time>
      </trkpt>
      <trkpt lat="49.24323" lon="1.1394">
        <ele>103</ele>
        <time>2016-07-10T09:20:32.008Z</time>
      </trkpt>
      <trkpt lat="49.24322" lon="1.13947">
        <ele>103</ele>
        <time>2016-07-10T09:20:33.008Z</time>
      </trkpt>
      <trkpt lat="49.24321" lon="1.13954">
        <ele>103</ele>
        <time>2016-07-10T09:20:34.008Z</time>
      </trkpt>
      <trkpt lat="49.24319" lon="1.13961">
        <ele>102</ele>
        <time>2016-07-10T09:20:35.008Z</time>
      </trkpt>
      <trkpt lat="49.24318" lon="1.13968">
        <ele>103</ele>
        <time>2016-07-10T09:20:36.008Z</time>
      </trkpt>
      <trkpt lat="49.24317" lon="1.13974">
        <ele>103</ele>
        <time>2016-07-10T09:20:37.008Z</time>
      </trkpt>
      <trkpt lat="49.24316" lon="1.13982">
        <ele>105</ele>
        <time>2016-07-10T09:20:38.008Z</time>
      </trkpt>
      <trkpt lat="49.24315" lon="1.13989">
        <ele>106</ele>
        <time>2016-07-10T09:20:39.008Z</time>
      </trkpt>
      <trkpt lat="49.24313" lon="1.13996">
        <ele>106</ele>
        <time>2016-07-10T09:20:40.008Z</time>
      </trkpt>
      <trkpt lat="49.24312" lon="1.14004">
        <ele>107</ele>
        <time>2016-07-10T09:20:41.008Z</time>
      </trkpt>
      <trkpt lat="49.2431" lon="1.14011">
        <ele>106</ele>
        <time>2016-07-10T09:20:42.008Z</time>
      </trkpt>
      <trkpt lat="49.24308" lon="1.14019">
        <ele>106</ele>
        <time>2016-07-10T09:20:43.008Z</time>
      </trkpt>
      <trkpt lat="49.24307" lon="1.14026">
        <ele>106</ele>
        <time>2016-07-10T09:20:44.008Z</time>
      </trkpt>
      <trkpt lat="49.24305" lon="1.14034">
        <ele>106</ele>
        <time>2016-07-10T09:20:45.008Z</time>
      </trkpt>
      <trkpt lat="49.24304" lon="1.14042">
        <ele>107</ele>
        <time>2016-07-10T09:20:46.008Z</time>
      </trkpt>
      <trkpt lat="49.24303" lon="1.1405">
        <ele>107</ele>
        <time>2016-07-10T09:20:47.008Z</time>
      </trkpt>
      <trkpt lat="49.24301" lon="1.14058">
        <ele>107</ele>
        <time>2016-07-10T09:20:48.008Z</time>
      </trkpt>
      <trkpt lat="49.243" lon="1.14066">
        <ele>108</ele>
        <time>2016-07-10T09:20:49.008Z</time>
      </trkpt>
      <trkpt lat="49.24298" lon="1.14074">
        <ele>108</ele>
        <time>2016-07-10T09:20:50.008Z</time>
      </trkpt>
      <trkpt lat="49.24297" lon="1.14082">
        <ele>108</ele>
        <time>2016-07-10T09:20:51.008Z</time>
      </trkpt>
      <trkpt lat="49.24296" lon="1.1409">
        <ele>108</ele>
        <time>2016-07-10T09:20:52.008Z</time>
      </trkpt>
      <trkpt lat="49.24295" lon="1.14098">
        <ele>109</ele>
        <time>2016-07-10T09:20:53.008Z</time>
      </trkpt>
      <trkpt lat="49.24294" lon="1.14106">
        <ele>109</ele>
        <time>2016-07-10T09:20:54.008Z</time>
      </trkpt>
      <trkpt lat="49.24292" lon="1.14114">
        <ele>110</ele>
        <time>2016-07-10T09:20:55.008Z</time>
      </trkpt>
      <trkpt lat="49.24291" lon="1.14121">
        <ele>109</ele>
        <time>2016-07-10T09:20:56.008Z</time>
      </trkpt>
      <trkpt lat="49.2429" lon="1.14129">
        <ele>109</ele>
        <time>2016-07-10T09:20:57.008Z</time>
      </trkpt>
      <trkpt lat="49.24289" lon="1.14137">
        <ele>110</ele>
        <time>2016-07-10T09:20:58.008Z</time>
      </trkpt>
      <trkpt lat="49.24287" lon="1.14145">
        <ele>110</ele>
        <time>2016-07-10T09:20:59.008Z</time>
      </trkpt>
      <trkpt lat="49.24286" lon="1.14153">
        <ele>110</ele>
        <time>2016-07-10T09:21:00.008Z</time>
      </trkpt>
      <trkpt lat="49.24284" lon="1.14161">
        <ele>110</ele>
        <time>2016-07-10T09:21:01.008Z</time>
      </trkpt>
      <trkpt lat="49.24283" lon="1.14169">
        <ele>111</ele>
        <time>2016-07-10T09:21:02.008Z</time>
      </trkpt>
      <trkpt lat="49.24281" lon="1.14177">
        <ele>111</ele>
        <time>2016-07-10T09:21:03.008Z</time>
      </trkpt>
      <trkpt lat="49.24279" lon="1.14185">
        <ele>110</ele>
        <time>2016-07-10T09:21:04.008Z</time>
      </trkpt>
      <trkpt lat="49.24277" lon="1.14193">
        <ele>111</ele>
        <time>2016-07-10T09:21:05.008Z</time>
      </trkpt>
      <trkpt lat="49.24275" lon="1.14201">
        <ele>110</ele>
        <time>2016-07-10T09:21:06.008Z</time>
      </trkpt>
      <trkpt lat="49.24274" lon="1.14208">
        <ele>110</ele>
        <time>2016-07-10T09:21:07.008Z</time>
      </trkpt>
      <trkpt lat="49.24272" lon="1.14216">
        <ele>110</ele>
        <time>2016-07-10T09:21:08.008Z</time>
      </trkpt>
      <trkpt lat="49.2427" lon="1.14224">
        <ele>110</ele>
        <time>2016-07-10T09:21:09.008Z</time>
      </trkpt>
      <trkpt lat="49.24268" lon="1.14232">
        <ele>110</ele>
        <time>2016-07-10T09:21:10.008Z</time>
      </trkpt>
      <trkpt lat="49.24266" lon="1.14241">
        <ele>110</ele>
        <time>2016-07-10T09:21:11.008Z</time>
      </trkpt>
      <trkpt lat="49.24264" lon="1.14249">
        <ele>111</ele>
        <time>2016-07-10T09:21:12.008Z</time>
      </trkpt>
      <trkpt lat="49.24262" lon="1.14257">
        <ele>111</ele>
        <time>2016-07-10T09:21:13.008Z</time>
      </trkpt>
      <trkpt lat="49.2426" lon="1.14265">
        <ele>111</ele>
        <time>2016-07-10T09:21:14.008Z</time>
      </trkpt>
      <trkpt lat="49.24258" lon="1.14273">
        <ele>112</ele>
        <time>2016-07-10T09:21:15.008Z</time>
      </trkpt>
      <trkpt lat="49.24256" lon="1.14281">
        <ele>112</ele>
        <time>2016-07-10T09:21:16.008Z</time>
      </trkpt>
      <trkpt lat="49.24254" lon="1.14289">
        <ele>112</ele>
        <time>2016-07-10T09:21:17.008Z</time>
      </trkpt>
      <trkpt lat="49.24253" lon="1.14297">
        <ele>112</ele>
        <time>2016-07-10T09:21:18.008Z</time>
      </trkpt>
      <trkpt lat="49.24251" lon="1.14305">
        <ele>113</ele>
        <time>2016-07-10T09:21:19.008Z</time>
      </trkpt>
      <trkpt lat="49.2425" lon="1.14313">
        <ele>113</ele>
        <time>2016-07-10T09:21:20.008Z</time>
      </trkpt>
      <trkpt lat="49.24249" lon="1.14321">
        <ele>113</ele>
        <time>2016-07-10T09:21:21.008Z</time>
      </trkpt>
      <trkpt lat="49.24247" lon="1.14329">
        <ele>113</ele>
        <time>2016-07-10T09:21:22.008Z</time>
      </trkpt>
      <trkpt lat="49.24246" lon="1.14337">
        <ele>113</ele>
        <time>2016-07-10T09:21:23.008Z</time>
      </trkpt>
      <trkpt lat="49.24245" lon="1.14345">
        <ele>113</ele>
        <time>2016-07-10T09:21:24.008Z</time>
      </trkpt>
      <trkpt lat="49.24243" lon="1.14353">
        <ele>113</ele>
        <time>2016-07-10T09:21:25.008Z</time>
      </trkpt>
      <trkpt lat="49.24242" lon="1.14361">
        <ele>113</ele>
        <time>2016-07-10T09:21:26.008Z</time>
      </trkpt>
      <trkpt lat="49.2424" lon="1.14369">
        <ele>113</ele>
        <time>2016-07-10T09:21:27.008Z</time>
      </trkpt>
      <trkpt lat="49.24239" lon="1.14377">
        <ele>113</ele>
        <time>2016-07-10T09:21:28.008Z</time>
      </trkpt>
      <trkpt lat="49.24237" lon="1.14386">
        <ele>113</ele>
        <time>2016-07-10T09:21:29.008Z</time>
      </trkpt>
      <trkpt lat="49.24236" lon="1.14394">
        <ele>113</ele>
        <time>2016-07-10T09:21:30.008Z</time>
      </trkpt>
      <trkpt lat="49.24234" lon="1.14402">
        <ele>113</ele>
        <time>2016-07-10T09:21:31.008Z</time>
      </trkpt>
      <trkpt lat="49.24232" lon="1.14411">
        <ele>113</ele>
        <time>2016-07-10T09:21:32.008Z</time>
      </trkpt>
      <trkpt lat="49.24231" lon="1.1442">
        <ele>113</ele>
        <time>2016-07-10T09:21:33.008Z</time>
      </trkpt>
      <trkpt lat="49.24229" lon="1.14429">
        <ele>113</ele>
        <time>2016-07-10T09:21:34.008Z</time>
      </trkpt>
      <trkpt lat="49.24227" lon="1.14438">
        <ele>113</ele>
        <time>2016-07-10T09:21:35.008Z</time>
      </trkpt>
      <trkpt lat="49.24226" lon="1.14446">
        <ele>113</ele>
        <time>2016-07-10T09:21:36.008Z</time>
      </trkpt>
      <trkpt lat="49.24224" lon="1.14456">
        <ele>113</ele>
        <time>2016-07-10T09:21:37.008Z</time>
      </trkpt>
      <trkpt lat="49.24222" lon="1.14465">
        <ele>113</ele>
        <time>2016-07-10T09:21:38.008Z</time>
      </trkpt>
      <trkpt lat="49.2422" lon="1.14474">
        <ele>113</ele>
        <time>2016-07-10T09:21:39.008Z</time>
      </trkpt>
      <trkpt lat="49.24219" lon="1.14483">
        <ele>113</ele>
        <time>2016-07-10T09:21:40.008Z</time>
      </trkpt>
      <trkpt lat="49.24217" lon="1.14492">
        <ele>113</ele>
        <time>2016-07-10T09:21:41.008Z</time>
      </trkpt>
      <trkpt lat="49.24216" lon="1.14501">
        <ele>113</ele>
        <time>2016-07-10T09:21:42.008Z</time>
      </trkpt>
      <trkpt lat="49.24214" lon="1.1451">
        <ele>113</ele>
        <time>2016-07-10T09:21:43.008Z</time>
      </trkpt>
      <trkpt lat="49.24213" lon="1.14519">
        <ele>113</ele>
        <time>2016-07-10T09:21:44.008Z</time>
      </trkpt>
      <trkpt lat="49.24211" lon="1.14528">
        <ele>113</ele>
        <time>2016-07-10T09:21:45.008Z</time>
      </trkpt>
      <trkpt lat="49.24209" lon="1.14537">
        <ele>113</ele>
        <time>2016-07-10T09:21:46.008Z</time>
      </trkpt>
      <trkpt lat="49.24207" lon="1.14546">
        <ele>113</ele>
        <time>2016-07-10T09:21:47.008Z</time>
      </trkpt>
      <trkpt lat="49.24205" lon="1.14554">
        <ele>113</ele>
        <time>2016-07-10T09:21:48.008Z</time>
      </trkpt>
      <trkpt lat="49.24203" lon="1.14563">
        <ele>114</ele>
        <time>2016-07-10T09:21:49.008Z</time>
      </trkpt>
      <trkpt lat="49.24201" lon="1.14571">
        <ele>114</ele>
        <time>2016-07-10T09:21:50.008Z</time>
      </trkpt>
      <trkpt lat="49.242" lon="1.14579">
        <ele>114</ele>
        <time>2016-07-10T09:21:51.008Z</time>
      </trkpt>
      <trkpt lat="49.24198" lon="1.14587">
        <ele>114</ele>
        <time>2016-07-10T09:21:52.008Z</time>
      </trkpt>
      <trkpt lat="49.24196" lon="1.14595">
        <ele>113</ele>
        <time>2016-07-10T09:21:53.008Z</time>
      </trkpt>
      <trkpt lat="49.24193" lon="1.14602">
        <ele>114</ele>
        <time>2016-07-10T09:21:54.008Z</time>
      </trkpt>
      <trkpt lat="49.2419" lon="1.14609">
        <ele>113</ele>
        <time>2016-07-10T09:21:55.008Z</time>
      </trkpt>
      <trkpt lat="49.24187" lon="1.14615">
        <ele>113</ele>
        <time>2016-07-10T09:21:56.008Z</time>
      </trkpt>
      <trkpt lat="49.24183" lon="1.14619">
        <ele>113</ele>
        <time>2016-07-10T09:21:57.008Z</time>
      </trkpt>
      <trkpt lat="49.24178" lon="1.1462">
        <ele>110</ele>
        <time>2016-07-10T09:21:58.008Z</time>
      </trkpt>
      <trkpt lat="49.24172" lon="1.1462">
        <ele>108</ele>
        <time>2016-07-10T09:21:59.008Z</time>
      </trkpt>
      <trkpt lat="49.24166" lon="1.14618">
        <ele>107</ele>
        <time>2016-07-10T09:22:00.008Z</time>
      </trkpt>
      <trkpt lat="49.2416" lon="1.14617">
        <ele>107</ele>
        <time>2016-07-10T09:22:01.008Z</time>
      </trkpt>
      <trkpt lat="49.24155" lon="1.14618">
        <ele>107</ele>
        <time>2016-07-10T09:22:02.008Z</time>
      </trkpt>
      <trkpt lat="49.2415" lon="1.14618">
        <ele>106</ele>
        <time>2016-07-10T09:22:03.008Z</time>
      </trkpt>
      <trkpt lat="49.24145" lon="1.14618">
        <ele>105</ele>
        <time>2016-07-10T09:22:04.008Z</time>
      </trkpt>
      <trkpt lat="49.24141" lon="1.14618">
        <ele>105</ele>
        <time>2016-07-10T09:22:05.008Z</time>
      </trkpt>
      <trkpt lat="49.24136" lon="1.14618">
        <ele>104</ele>
        <time>2016-07-10T09:22:06.008Z</time>
      </trkpt>
      <trkpt lat="49.24132" lon="1.14618">
        <ele>102</ele>
        <time>2016-07-10T09:22:07.008Z</time>
      </trkpt>
      <trkpt lat="49.24127" lon="1.14618">
        <ele>101</ele>
        <time>2016-07-10T09:22:08.008Z</time>
      </trkpt>
      <trkpt lat="49.24123" lon="1.14617">
        <ele>101</ele>
        <time>2016-07-10T09:22:09.008Z</time>
      </trkpt>
      <trkpt lat="49.24119" lon="1.14617">
        <ele>100</ele>
        <time>2016-07-10T09:22:10.008Z</time>
      </trkpt>
      <trkpt lat="49.24115" lon="1.14617">
        <ele>99</ele>
        <time>2016-07-10T09:22:11.008Z</time>
      </trkpt>
      <trkpt lat="49.24111" lon="1.14617">
        <ele>98</ele>
        <time>2016-07-10T09:22:12.008Z</time>
      </trkpt>
      <trkpt lat="49.24107" lon="1.14617">
        <ele>97</ele>
        <time>2016-07-10T09:22:13.008Z</time>
      </trkpt>
      <trkpt lat="49.24103" lon="1.14617">
        <ele>97</ele>
        <time>2016-07-10T09:22:14.008Z</time>
      </trkpt>
      <trkpt lat="49.24098" lon="1.14617">
        <ele>95</ele>
        <time>2016-07-10T09:22:15.008Z</time>
      </trkpt>
      <trkpt lat="49.24093" lon="1.14617">
        <ele>95</ele>
        <time>2016-07-10T09:22:16.008Z</time>
      </trkpt>
      <trkpt lat="49.24088" lon="1.14618">
        <ele>94</ele>
        <time>2016-07-10T09:22:17.008Z</time>
      </trkpt>
      <trkpt lat="49.24084" lon="1.14618">
        <ele>93</ele>
        <time>2016-07-10T09:22:18.008Z</time>
      </trkpt>
      <trkpt lat="49.24079" lon="1.14618">
        <ele>91</ele>
        <time>2016-07-10T09:22:19.008Z</time>
      </trkpt>
      <trkpt lat="49.24075" lon="1.14618">
        <ele>89</ele>
        <time>2016-07-10T09:22:20.008Z</time>
      </trkpt>
      <trkpt lat="49.24071" lon="1.14618">
        <ele>89</ele>
        <time>2016-07-10T09:22:21.008Z</time>
      </trkpt>
      <trkpt lat="49.24066" lon="1.14618">
        <ele>88</ele>
        <time>2016-07-10T09:22:22.008Z</time>
      </trkpt>
      <trkpt lat="49.24062" lon="1.14618">
        <ele>89</ele>
        <time>2016-07-10T09:22:23.008Z</time>
      </trkpt>
      <trkpt lat="49.24057" lon="1.14618">
        <ele>89</ele>
        <time>2016-07-10T09:22:24.008Z</time>
      </trkpt>
      <trkpt lat="49.24053" lon="1.14617">
        <ele>88</ele>
        <time>2016-07-10T09:22:25.008Z</time>
      </trkpt>
      <trkpt lat="49.24049" lon="1.14617">
        <ele>87</ele>
        <time>2016-07-10T09:22:26.008Z</time>
      </trkpt>
      <trkpt lat="49.24044" lon="1.14616">
        <ele>87</ele>
        <time>2016-07-10T09:22:27.008Z</time>
      </trkpt>
      <trkpt lat="49.24041" lon="1.14616">
        <ele>87</ele>
        <time>2016-07-10T09:22:28.008Z</time>
      </trkpt>
      <trkpt lat="49.24037" lon="1.14616">
        <ele>87</ele>
        <time>2016-07-10T09:22:29.008Z</time>
      </trkpt>
      <trkpt lat="49.24034" lon="1.14616">
        <ele>87</ele>
        <time>2016-07-10T09:22:30.008Z</time>
      </trkpt>
      <trkpt lat="49.24031" lon="1.14616">
        <ele>87</ele>
        <time>2016-07-10T09:22:31.008Z</time>
      </trkpt>
      <trkpt lat="49.24028" lon="1.14617">
        <ele>86</ele>
        <time>2016-07-10T09:22:32.008Z</time>
      </trkpt>
      <trkpt lat="49.24025" lon="1.14617">
        <ele>86</ele>
        <time>2016-07-10T09:22:33.008Z</time>
      </trkpt>
      <trkpt lat="49.24022" lon="1.14618">
        <ele>86</ele>
        <time>2016-07-10T09:22:34.008Z</time>
      </trkpt>
      <trkpt lat="49.24019" lon="1.14618">
        <ele>85</ele>
        <time>2016-07-10T09:22:35.008Z</time>
      </trkpt>
      <trkpt lat="49.24015" lon="1.14619">
        <ele>83</ele>
        <time>2016-07-10T09:22:36.008Z</time>
      </trkpt>
      <trkpt lat="49.24012" lon="1.14619">
        <ele>81</ele>
        <time>2016-07-10T09:22:37.008Z</time>
      </trkpt>
      <trkpt lat="49.24008" lon="1.1462">
        <ele>78</ele>
        <time>2016-07-10T09:22:38.008Z</time>
      </trkpt>
      <trkpt lat="49.24004" lon="1.14621">
        <ele>76</ele>
        <time>2016-07-10T09:22:39.008Z</time>
      </trkpt>
      <trkpt lat="49.24" lon="1.14623">
        <ele>75</ele>
        <time>2016-07-10T09:22:40.008Z</time>
      </trkpt>
      <trkpt lat="49.23996" lon="1.14624">
        <ele>75</ele>
        <time>2016-07-10T09:22:41.008Z</time>
      </trkpt>
      <trkpt lat="49.23991" lon="1.14626">
        <ele>75</ele>
        <time>2016-07-10T09:22:42.008Z</time>
      </trkpt>
      <trkpt lat="49.23986" lon="1.14629">
        <ele>75</ele>
        <time>2016-07-10T09:22:43.008Z</time>
      </trkpt>
      <trkpt lat="49.23981" lon="1.14632">
        <ele>74</ele>
        <time>2016-07-10T09:22:44.008Z</time>
      </trkpt>
      <trkpt lat="49.23976" lon="1.14635">
        <ele>75</ele>
        <time>2016-07-10T09:22:45.008Z</time>
      </trkpt>
      <trkpt lat="49.23971" lon="1.14639">
        <ele>76</ele>
        <time>2016-07-10T09:22:46.008Z</time>
      </trkpt>
      <trkpt lat="49.23967" lon="1.14644">
        <ele>75</ele>
        <time>2016-07-10T09:22:47.008Z</time>
      </trkpt>
      <trkpt lat="49.23963" lon="1.14648">
        <ele>72</ele>
        <time>2016-07-10T09:22:48.008Z</time>
      </trkpt>
      <trkpt lat="49.23959" lon="1.14652">
        <ele>71</ele>
        <time>2016-07-10T09:22:49.008Z</time>
      </trkpt>
      <trkpt lat="49.23955" lon="1.14657">
        <ele>71</ele>
        <time>2016-07-10T09:22:50.008Z</time>
      </trkpt>
      <trkpt lat="49.23951" lon="1.14661">
        <ele>71</ele>
        <time>2016-07-10T09:22:51.008Z</time>
      </trkpt>
      <trkpt lat="49.23947" lon="1.14666">
        <ele>71</ele>
        <time>2016-07-10T09:22:52.008Z</time>
      </trkpt>
      <trkpt lat="49.23942" lon="1.14671">
        <ele>70</ele>
        <time>2016-07-10T09:22:53.008Z</time>
      </trkpt>
      <trkpt lat="49.23937" lon="1.14677">
        <ele>69</ele>
        <time>2016-07-10T09:22:54.008Z</time>
      </trkpt>
      <trkpt lat="49.23933" lon="1.14681">
        <ele>67</ele>
        <time>2016-07-10T09:22:55.008Z</time>
      </trkpt>
      <trkpt lat="49.23928" lon="1.14685">
        <ele>66</ele>
        <time>2016-07-10T09:22:56.008Z</time>
      </trkpt>
      <trkpt lat="49.23923" lon="1.14689">
        <ele>64</ele>
        <time>2016-07-10T09:22:57.008Z</time>
      </trkpt>
      <trkpt lat="49.23917" lon="1.14694">
        <ele>64</ele>
        <time>2016-07-10T09:22:58.008Z</time>
      </trkpt>
      <trkpt lat="49.23911" lon="1.14699">
        <ele>65</ele>
        <time>2016-07-10T09:22:59.008Z</time>
      </trkpt>
      <trkpt lat="49.23905" lon="1.14703">
        <ele>64</ele>
        <time>2016-07-10T09:23:00.008Z</time>
      </trkpt>
      <trkpt lat="49.23899" lon="1.14707">
        <ele>63</ele>
        <time>2016-07-10T09:23:01.008Z</time>
      </trkpt>
      <trkpt lat="49.23893" lon="1.1471">
        <ele>62</ele>
        <time>2016-07-10T09:23:02.008Z</time>
      </trkpt>
      <trkpt lat="49.23886" lon="1.14713">
        <ele>62</ele>
        <time>2016-07-10T09:23:03.008Z</time>
      </trkpt>
      <trkpt lat="49.2388" lon="1.14715">
        <ele>63</ele>
        <time>2016-07-10T09:23:04.008Z</time>
      </trkpt>
      <trkpt lat="49.23873" lon="1.14716">
        <ele>64</ele>
        <time>2016-07-10T09:23:05.008Z</time>
      </trkpt>
      <trkpt lat="49.23865" lon="1.14718">
        <ele>64</ele>
        <time>2016-07-10T09:23:06.008Z</time>
      </trkpt>
      <trkpt lat="49.23859" lon="1.14719">
        <ele>63</ele>
        <time>2016-07-10T09:23:07.008Z</time>
      </trkpt>
      <trkpt lat="49.23853" lon="1.1472">
        <ele>61</ele>
        <time>2016-07-10T09:23:08.008Z</time>
      </trkpt>
      <trkpt lat="49.23847" lon="1.14721">
        <ele>61</ele>
        <time>2016-07-10T09:23:09.008Z</time>
      </trkpt>
      <trkpt lat="49.23841" lon="1.14723">
        <ele>61</ele>
        <time>2016-07-10T09:23:10.008Z</time>
      </trkpt>
      <trkpt lat="49.23835" lon="1.14724">
        <ele>61</ele>
        <time>2016-07-10T09:23:11.008Z</time>
      </trkpt>
      <trkpt lat="49.23829" lon="1.14725">
        <ele>60</ele>
        <time>2016-07-10T09:23:12.008Z</time>
      </trkpt>
      <trkpt lat="49.23822" lon="1.14727">
        <ele>61</ele>
        <time>2016-07-10T09:23:13.008Z</time>
      </trkpt>
      <trkpt lat="49.23815" lon="1.14729">
        <ele>62</ele>
        <time>2016-07-10T09:23:14.008Z</time>
      </trkpt>
      <trkpt lat="49.23809" lon="1.14732">
        <ele>62</ele>
        <time>2016-07-10T09:23:15.008Z</time>
      </trkpt>
      <trkpt lat="49.23802" lon="1.14735">
        <ele>61</ele>
        <time>2016-07-10T09:23:16.008Z</time>
      </trkpt>
      <trkpt lat="49.23796" lon="1.14738">
        <ele>60</ele>
        <time>2016-07-10T09:23:17.008Z</time>
      </trkpt>
      <trkpt lat="49.2379" lon="1.1474">
        <ele>58</ele>
        <time>2016-07-10T09:23:18.008Z</time>
      </trkpt>
      <trkpt lat="49.23784" lon="1.14742">
        <ele>58</ele>
        <time>2016-07-10T09:23:19.008Z</time>
      </trkpt>
      <trkpt lat="49.23778" lon="1.14744">
        <ele>59</ele>
        <time>2016-07-10T09:23:20.008Z</time>
      </trkpt>
      <trkpt lat="49.23772" lon="1.14747">
        <ele>59</ele>
        <time>2016-07-10T09:23:21.008Z</time>
      </trkpt>
      <trkpt lat="49.23765" lon="1.1475">
        <ele>60</ele>
        <time>2016-07-10T09:23:22.008Z</time>
      </trkpt>
      <trkpt lat="49.23759" lon="1.14752">
        <ele>60</ele>
        <time>2016-07-10T09:23:23.008Z</time>
      </trkpt>
      <trkpt lat="49.23755" lon="1.14755">
        <ele>61</ele>
        <time>2016-07-10T09:23:24.008Z</time>
      </trkpt>
      <trkpt lat="49.23752" lon="1.14759">
        <ele>61</ele>
        <time>2016-07-10T09:23:25.008Z</time>
      </trkpt>
      <trkpt lat="49.2375" lon="1.14763">
        <ele>64</ele>
        <time>2016-07-10T09:23:26.008Z</time>
      </trkpt>
      <trkpt lat="49.23748" lon="1.1477">
        <ele>69</ele>
        <time>2016-07-10T09:23:27.008Z</time>
      </trkpt>
      <trkpt lat="49.23746" lon="1.14777">
        <ele>71</ele>
        <time>2016-07-10T09:23:28.008Z</time>
      </trkpt>
      <trkpt lat="49.23745" lon="1.14786">
        <ele>72</ele>
        <time>2016-07-10T09:23:29.008Z</time>
      </trkpt>
      <trkpt lat="49.23744" lon="1.14796">
        <ele>73</ele>
        <time>2016-07-10T09:23:30.008Z</time>
      </trkpt>
      <trkpt lat="49.23743" lon="1.14806">
        <ele>75</ele>
        <time>2016-07-10T09:23:31.008Z</time>
      </trkpt>
      <trkpt lat="49.23742" lon="1.14816">
        <ele>76</ele>
        <time>2016-07-10T09:23:32.008Z</time>
      </trkpt>
      <trkpt lat="49.23741" lon="1.14827">
        <ele>76</ele>
        <time>2016-07-10T09:23:33.008Z</time>
      </trkpt>
      <trkpt lat="49.2374" lon="1.14836">
        <ele>77</ele>
        <time>2016-07-10T09:23:34.008Z</time>
      </trkpt>
      <trkpt lat="49.23738" lon="1.14846">
        <ele>77</ele>
        <time>2016-07-10T09:23:35.008Z</time>
      </trkpt>
      <trkpt lat="49.23735" lon="1.14855">
        <ele>77</ele>
        <time>2016-07-10T09:23:36.008Z</time>
      </trkpt>
      <trkpt lat="49.23733" lon="1.14865">
        <ele>76</ele>
        <time>2016-07-10T09:23:37.008Z</time>
      </trkpt>
      <trkpt lat="49.23732" lon="1.14874">
        <ele>76</ele>
        <time>2016-07-10T09:23:38.008Z</time>
      </trkpt>
      <trkpt lat="49.2373" lon="1.14882">
        <ele>75</ele>
        <time>2016-07-10T09:23:39.008Z</time>
      </trkpt>
      <trkpt lat="49.23728" lon="1.14891">
        <ele>75</ele>
        <time>2016-07-10T09:23:40.008Z</time>
      </trkpt>
      <trkpt lat="49.23725" lon="1.14899">
        <ele>75</ele>
        <time>2016-07-10T09:23:41.008Z</time>
      </trkpt>
      <trkpt lat="49.23723" lon="1.14907">
        <ele>75</ele>
        <time>2016-07-10T09:23:42.008Z</time>
      </trkpt>
      <trkpt lat="49.2372" lon="1.14914">
        <ele>75</ele>
        <time>2016-07-10T09:23:43.008Z</time>
      </trkpt>
      <trkpt lat="49.23717" lon="1.14921">
        <ele>75</ele>
        <time>2016-07-10T09:23:44.008Z</time>
      </trkpt>
      <trkpt lat="49.23713" lon="1.14928">
        <ele>75</ele>
        <time>2016-07-10T09:23:45.008Z</time>
      </trkpt>
      <trkpt lat="49.23709" lon="1.14935">
        <ele>75</ele>
        <time>2016-07-10T09:23:46.008Z</time>
      </trkpt>
      <trkpt lat="49.23704" lon="1.14941">
        <ele>74</ele>
        <time>2016-07-10T09:23:47.008Z</time>
      </trkpt>
      <trkpt lat="49.237" lon="1.14946">
        <ele>74</ele>
        <time>2016-07-10T09:23:48.008Z</time>
      </trkpt>
      <trkpt lat="49.23695" lon="1.1495">
        <ele>74</ele>
        <time>2016-07-10T09:23:49.008Z</time>
      </trkpt>
      <trkpt lat="49.23691" lon="1.14954">
        <ele>73</ele>
        <time>2016-07-10T09:23:50.008Z</time>
      </trkpt>
      <trkpt lat="49.23686" lon="1.14959">
        <ele>73</ele>
        <time>2016-07-10T09:23:51.008Z</time>
      </trkpt>
      <trkpt lat="49.23682" lon="1.14967">
        <ele>72</ele>
        <time>2016-07-10T09:23:52.008Z</time>
      </trkpt>
      <trkpt lat="49.23678" lon="1.14975">
        <ele>71</ele>
        <time>2016-07-10T09:23:53.008Z</time>
      </trkpt>
      <trkpt lat="49.23674" lon="1.14982">
        <ele>71</ele>
        <time>2016-07-10T09:23:54.008Z</time>
      </trkpt>
      <trkpt lat="49.23671" lon="1.1499">
        <ele>71</ele>
        <time>2016-07-10T09:23:55.008Z</time>
      </trkpt>
      <trkpt lat="49.23667" lon="1.14999">
        <ele>71</ele>
        <time>2016-07-10T09:23:56.008Z</time>
      </trkpt>
      <trkpt lat="49.23663" lon="1.15009">
        <ele>70</ele>
        <time>2016-07-10T09:23:57.008Z</time>
      </trkpt>
      <trkpt lat="49.23659" lon="1.15019">
        <ele>69</ele>
        <time>2016-07-10T09:23:58.008Z</time>
      </trkpt>
      <trkpt lat="49.23655" lon="1.1503">
        <ele>67</ele>
        <time>2016-07-10T09:23:59.008Z</time>
      </trkpt>
      <trkpt lat="49.2365" lon="1.15041">
        <ele>66</ele>
        <time>2016-07-10T09:24:00.008Z</time>
      </trkpt>
      <trkpt lat="49.23646" lon="1.15052">
        <ele>64</ele>
        <time>2016-07-10T09:24:01.008Z</time>
      </trkpt>
      <trkpt lat="49.23641" lon="1.15062">
        <ele>64</ele>
        <time>2016-07-10T09:24:02.008Z</time>
      </trkpt>
      <trkpt lat="49.23637" lon="1.15072">
        <ele>63</ele>
        <time>2016-07-10T09:24:03.008Z</time>
      </trkpt>
      <trkpt lat="49.23633" lon="1.15082">
        <ele>61</ele>
        <time>2016-07-10T09:24:04.008Z</time>
      </trkpt>
      <trkpt lat="49.23629" lon="1.15092">
        <ele>61</ele>
        <time>2016-07-10T09:24:05.008Z</time>
      </trkpt>
      <trkpt lat="49.23626" lon="1.15102">
        <ele>60</ele>
        <time>2016-07-10T09:24:06.008Z</time>
      </trkpt>
      <trkpt lat="49.23623" lon="1.15111">
        <ele>59</ele>
        <time>2016-07-10T09:24:07.008Z</time>
      </trkpt>
      <trkpt lat="49.23619" lon="1.15121">
        <ele>58</ele>
        <time>2016-07-10T09:24:08.008Z</time>
      </trkpt>
      <trkpt lat="49.23615" lon="1.1513">
        <ele>57</ele>
        <time>2016-07-10T09:24:09.008Z</time>
      </trkpt>
      <trkpt lat="49.23611" lon="1.15141">
        <ele>55</ele>
        <time>2016-07-10T09:24:10.008Z</time>
      </trkpt>
      <trkpt lat="49.23607" lon="1.15152">
        <ele>55</ele>
        <time>2016-07-10T09:24:11.008Z</time>
      </trkpt>
      <trkpt lat="49.23604" lon="1.15165">
        <ele>56</ele>
        <time>2016-07-10T09:24:12.008Z</time>
      </trkpt>
      <trkpt lat="49.23601" lon="1.15179">
        <ele>55</ele>
        <time>2016-07-10T09:24:13.008Z</time>
      </trkpt>
      <trkpt lat="49.23598" lon="1.15194">
        <ele>57</ele>
        <time>2016-07-10T09:24:14.008Z</time>
      </trkpt>
      <trkpt lat="49.23595" lon="1.15208">
        <ele>58</ele>
        <time>2016-07-10T09:24:15.008Z</time>
      </trkpt>
      <trkpt lat="49.23592" lon="1.15222">
        <ele>58</ele>
        <time>2016-07-10T09:24:16.008Z</time>
      </trkpt>
      <trkpt lat="49.23588" lon="1.15236">
        <ele>58</ele>
        <time>2016-07-10T09:24:17.008Z</time>
      </trkpt>
      <trkpt lat="49.23585" lon="1.15249">
        <ele>58</ele>
        <time>2016-07-10T09:24:18.008Z</time>
      </trkpt>
      <trkpt lat="49.23582" lon="1.15263">
        <ele>58</ele>
        <time>2016-07-10T09:24:19.008Z</time>
      </trkpt>
      <trkpt lat="49.23579" lon="1.15276">
        <ele>58</ele>
        <time>2016-07-10T09:24:20.008Z</time>
      </trkpt>
      <trkpt lat="49.23575" lon="1.15289">
        <ele>57</ele>
        <time>2016-07-10T09:24:21.008Z</time>
      </trkpt>
      <trkpt lat="49.23572" lon="1.15301">
        <ele>55</ele>
        <time>2016-07-10T09:24:22.008Z</time>
      </trkpt>
      <trkpt lat="49.23569" lon="1.15312">
        <ele>55</ele>
        <time>2016-07-10T09:24:23.008Z</time>
      </trkpt>
      <trkpt lat="49.23565" lon="1.15323">
        <ele>54</ele>
        <time>2016-07-10T09:24:24.008Z</time>
      </trkpt>
      <trkpt lat="49.23561" lon="1.15334">
        <ele>53</ele>
        <time>2016-07-10T09:24:25.008Z</time>
      </trkpt>
      <trkpt lat="49.23558" lon="1.15346">
        <ele>54</ele>
        <time>2016-07-10T09:24:26.008Z</time>
      </trkpt>
      <trkpt lat="49.23555" lon="1.15357">
        <ele>54</ele>
        <time>2016-07-10T09:24:27.008Z</time>
      </trkpt>
      <trkpt lat="49.23552" lon="1.15369">
        <ele>55</ele>
        <time>2016-07-10T09:24:28.008Z</time>
      </trkpt>
      <trkpt lat="49.23549" lon="1.1538">
        <ele>55</ele>
        <time>2016-07-10T09:24:29.008Z</time>
      </trkpt>
      <trkpt lat="49.23545" lon="1.1539">
        <ele>55</ele>
        <time>2016-07-10T09:24:30.008Z</time>
      </trkpt>
      <trkpt lat="49.23542" lon="1.154">
        <ele>55</ele>
        <time>2016-07-10T09:24:31.008Z</time>
      </trkpt>
      <trkpt lat="49.23539" lon="1.15409">
        <ele>54</ele>
        <time>2016-07-10T09:24:32.008Z</time>
      </trkpt>
      <trkpt lat="49.23536" lon="1.15418">
        <ele>54</ele>
        <time>2016-07-10T09:24:33.008Z</time>
      </trkpt>
      <trkpt lat="49.23534" lon="1.15427">
        <ele>55</ele>
        <time>2016-07-10T09:24:34.008Z</time>
      </trkpt>
      <trkpt lat="49.23531" lon="1.15436">
        <ele>55</ele>
        <time>2016-07-10T09:24:35.008Z</time>
      </trkpt>
      <trkpt lat="49.23529" lon="1.15445">
        <ele>56</ele>
        <time>2016-07-10T09:24:36.008Z</time>
      </trkpt>
      <trkpt lat="49.23527" lon="1.15453">
        <ele>56</ele>
        <time>2016-07-10T09:24:37.008Z</time>
      </trkpt>
      <trkpt lat="49.23526" lon="1.15461">
        <ele>56</ele>
        <time>2016-07-10T09:24:38.008Z</time>
      </trkpt>
      <trkpt lat="49.23524" lon="1.15469">
        <ele>56</ele>
        <time>2016-07-10T09:24:39.008Z</time>
      </trkpt>
      <trkpt lat="49.23521" lon="1.15477">
        <ele>56</ele>
        <time>2016-07-10T09:24:40.008Z</time>
      </trkpt>
      <trkpt lat="49.23519" lon="1.15485">
        <ele>56</ele>
        <time>2016-07-10T09:24:41.008Z</time>
      </trkpt>
      <trkpt lat="49.23517" lon="1.15494">
        <ele>56</ele>
        <time>2016-07-10T09:24:42.008Z</time>
      </trkpt>
      <trkpt lat="49.23514" lon="1.15503">
        <ele>57</ele>
        <time>2016-07-10T09:24:43.008Z</time>
      </trkpt>
      <trkpt lat="49.23512" lon="1.15512">
        <ele>57</ele>
        <time>2016-07-10T09:24:44.008Z</time>
      </trkpt>
      <trkpt lat="49.2351" lon="1.15521">
        <ele>56</ele>
        <time>2016-07-10T09:24:45.008Z</time>
      </trkpt>
      <trkpt lat="49.23509" lon="1.15531">
        <ele>55</ele>
        <time>2016-07-10T09:24:46.008Z</time>
      </trkpt>
      <trkpt lat="49.23507" lon="1.15541">
        <ele>55</ele>
        <time>2016-07-10T09:24:47.008Z</time>
      </trkpt>
      <trkpt lat="49.23507" lon="1.15551">
        <ele>55</ele>
        <time>2016-07-10T09:24:48.008Z</time>
      </trkpt>
      <trkpt lat="49.23506" lon="1.1556">
        <ele>55</ele>
        <time>2016-07-10T09:24:49.008Z</time>
      </trkpt>
      <trkpt lat="49.23505" lon="1.1557">
        <ele>54</ele>
        <time>2016-07-10T09:24:50.008Z</time>
      </trkpt>
      <trkpt lat="49.23504" lon="1.15579">
        <ele>54</ele>
        <time>2016-07-10T09:24:51.008Z</time>
      </trkpt>
      <trkpt lat="49.23502" lon="1.1559">
        <ele>53</ele>
        <time>2016-07-10T09:24:52.008Z</time>
      </trkpt>
      <trkpt lat="49.23502" lon="1.156">
        <ele>52</ele>
        <time>2016-07-10T09:24:53.008Z</time>
      </trkpt>
      <trkpt lat="49.23501" lon="1.15611">
        <ele>51</ele>
        <time>2016-07-10T09:24:54.008Z</time>
      </trkpt>
      <trkpt lat="49.235" lon="1.1562">
        <ele>50</ele>
        <time>2016-07-10T09:24:55.008Z</time>
      </trkpt>
      <trkpt lat="49.23498" lon="1.15629">
        <ele>49</ele>
        <time>2016-07-10T09:24:56.008Z</time>
      </trkpt>
      <trkpt lat="49.23497" lon="1.15637">
        <ele>48</ele>
        <time>2016-07-10T09:24:57.008Z</time>
      </trkpt>
      <trkpt lat="49.23496" lon="1.15644">
        <ele>48</ele>
        <time>2016-07-10T09:24:58.008Z</time>
      </trkpt>
      <trkpt lat="49.23496" lon="1.1565">
        <ele>48</ele>
        <time>2016-07-10T09:24:59.008Z</time>
      </trkpt>
      <trkpt lat="49.23496" lon="1.15654">
        <ele>49</ele>
        <time>2016-07-10T09:25:00.008Z</time>
      </trkpt>
      <trkpt lat="49.23497" lon="1.15656">
        <ele>50</ele>
        <time>2016-07-10T09:25:01.008Z</time>
      </trkpt>
      <trkpt lat="49.23497" lon="1.15659">
        <ele>51</ele>
        <time>2016-07-10T09:25:02.008Z</time>
      </trkpt>
      <trkpt lat="49.23497" lon="1.15662">
        <ele>51</ele>
        <time>2016-07-10T09:25:03.008Z</time>
      </trkpt>
      <trkpt lat="49.23496" lon="1.15664">
        <ele>52</ele>
        <time>2016-07-10T09:25:04.008Z</time>
      </trkpt>
      <trkpt lat="49.23496" lon="1.15666">
        <ele>52</ele>
        <time>2016-07-10T09:25:05.008Z</time>
      </trkpt>
      <trkpt lat="49.23495" lon="1.15667">
        <ele>53</ele>
        <time>2016-07-10T09:25:06.008Z</time>
      </trkpt>
      <trkpt lat="49.23495" lon="1.15668">
        <ele>54</ele>
        <time>2016-07-10T09:25:07.008Z</time>
      </trkpt>
      <trkpt lat="49.23495" lon="1.15669">
        <ele>54</ele>
        <time>2016-07-10T09:25:08.008Z</time>
      </trkpt>
      <trkpt lat="49.23494" lon="1.1567">
        <ele>54</ele>
        <time>2016-07-10T09:25:09.008Z</time>
      </trkpt>
      <trkpt lat="49.23493" lon="1.15671">
        <ele>54</ele>
        <time>2016-07-10T09:25:10.008Z</time>
      </trkpt>
      <trkpt lat="49.23492" lon="1.15672">
        <ele>54</ele>
        <time>2016-07-10T09:25:11.008Z</time>
      </trkpt>
      <trkpt lat="49.23491" lon="1.15673">
        <ele>55</ele>
        <time>2016-07-10T09:25:12.008Z</time>
      </trkpt>
      <trkpt lat="49.2349" lon="1.15673">
        <ele>56</ele>
        <time>2016-07-10T09:25:13.008Z</time>
      </trkpt>
      <trkpt lat="49.23488" lon="1.15674">
        <ele>56</ele>
        <time>2016-07-10T09:25:14.008Z</time>
      </trkpt>
      <trkpt lat="49.23487" lon="1.15674">
        <ele>57</ele>
        <time>2016-07-10T09:25:15.008Z</time>
      </trkpt>
      <trkpt lat="49.23486" lon="1.15675">
        <ele>57</ele>
        <time>2016-07-10T09:25:16.008Z</time>
      </trkpt>
      <trkpt lat="49.23485" lon="1.15675">
        <ele>58</ele>
        <time>2016-07-10T09:25:17.008Z</time>
      </trkpt>
      <trkpt lat="49.23485" lon="1.15676">
        <ele>59</ele>
        <time>2016-07-10T09:25:18.008Z</time>
      </trkpt>
      <trkpt lat="49.23484" lon="1.15677">
        <ele>60</ele>
        <time>2016-07-10T09:25:19.008Z</time>
      </trkpt>
      <trkpt lat="49.23483" lon="1.15677">
        <ele>60</ele>
        <time>2016-07-10T09:25:20.008Z</time>
      </trkpt>
      <trkpt lat="49.23482" lon="1.15678">
        <ele>61</ele>
        <time>2016-07-10T09:25:21.008Z</time>
      </trkpt>
      <trkpt lat="49.23482" lon="1.15679">
        <ele>61</ele>
        <time>2016-07-10T09:25:22.008Z</time>
      </trkpt>
      <trkpt lat="49.23481" lon="1.1568">
        <ele>62</ele>
        <time>2016-07-10T09:25:23.008Z</time>
      </trkpt>
      <trkpt lat="49.23482" lon="1.15681">
        <ele>63</ele>
        <time>2016-07-10T09:25:24.008Z</time>
      </trkpt>
      <trkpt lat="49.23482" lon="1.15681">
        <ele>63</ele>
        <time>2016-07-10T09:25:25.008Z</time>
      </trkpt>
      <trkpt lat="49.23481" lon="1.15682">
        <ele>63</ele>
        <time>2016-07-10T09:25:26.008Z</time>
      </trkpt>
      <trkpt lat="49.23481" lon="1.15682">
        <ele>64</ele>
        <time>2016-07-10T09:25:27.008Z</time>
      </trkpt>
      <trkpt lat="49.23481" lon="1.15682">
        <ele>64</ele>
        <time>2016-07-10T09:25:28.008Z</time>
      </trkpt>
      <trkpt lat="49.2348" lon="1.15683">
        <ele>64</ele>
        <time>2016-07-10T09:25:29.008Z</time>
      </trkpt>
      <trkpt lat="49.2348" lon="1.15683">
        <ele>64</ele>
        <time>2016-07-10T09:25:30.008Z</time>
      </trkpt>
      <trkpt lat="49.23479" lon="1.15683">
        <ele>64</ele>
        <time>2016-07-10T09:25:31.008Z</time>
      </trkpt>
      <trkpt lat="49.23478" lon="1.15683">
        <ele>65</ele>
        <time>2016-07-10T09:25:32.008Z</time>
      </trkpt>
      <trkpt lat="49.23478" lon="1.15683">
        <ele>65</ele>
        <time>2016-07-10T09:25:33.008Z</time>
      </trkpt>
      <trkpt lat="49.23478" lon="1.15683">
        <ele>66</ele>
        <time>2016-07-10T09:25:34.008Z</time>
      </trkpt>
      <trkpt lat="49.23478" lon="1.15684">
        <ele>66</ele>
        <time>2016-07-10T09:25:35.008Z</time>
      </trkpt>
      <trkpt lat="49.23478" lon="1.15684">
        <ele>67</ele>
        <time>2016-07-10T09:25:36.008Z</time>
      </trkpt>
      <trkpt lat="49.23478" lon="1.15685">
        <ele>67</ele>
        <time>2016-07-10T09:25:37.008Z</time>
      </trkpt>
      <trkpt lat="49.23478" lon="1.15685">
        <ele>68</ele>
        <time>2016-07-10T09:25:38.008Z</time>
      </trkpt>
      <trkpt lat="49.23478" lon="1.15685">
        <ele>69</ele>
        <time>2016-07-10T09:25:39.008Z</time>
      </trkpt>
      <trkpt lat="49.23478" lon="1.15685">
        <ele>70</ele>
        <time>2016-07-10T09:25:40.008Z</time>
      </trkpt>
      <trkpt lat="49.23478" lon="1.15686">
        <ele>70</ele>
        <time>2016-07-10T09:25:41.008Z</time>
      </trkpt>
      <trkpt lat="49.23478" lon="1.15686">
        <ele>70</ele>
        <time>2016-07-10T09:25:42.008Z</time>
      </trkpt>
      <trkpt lat="49.23478" lon="1.15686">
        <ele>71</ele>
        <time>2016-07-10T09:25:43.008Z</time>
      </trkpt>
      <trkpt lat="49.23478" lon="1.15686">
        <ele>71</ele>
        <time>2016-07-10T09:25:44.008Z</time>
      </trkpt>
      <trkpt lat="49.23477" lon="1.15686">
        <ele>71</ele>
        <time>2016-07-10T09:25:45.008Z</time>
      </trkpt>
      <trkpt lat="49.23476" lon="1.15686">
        <ele>72</ele>
        <time>2016-07-10T09:25:46.008Z</time>
      </trkpt>
      <trkpt lat="49.23474" lon="1.15686">
        <ele>72</ele>
        <time>2016-07-10T09:25:47.008Z</time>
      </trkpt>
      <trkpt lat="49.23473" lon="1.15685">
        <ele>72</ele>
        <time>2016-07-10T09:25:48.008Z</time>
      </trkpt>
      <trkpt lat="49.23471" lon="1.15685">
        <ele>72</ele>
        <time>2016-07-10T09:25:49.008Z</time>
      </trkpt>
      <trkpt lat="49.2347" lon="1.15684">
        <ele>72</ele>
        <time>2016-07-10T09:25:50.008Z</time>
      </trkpt>
      <trkpt lat="49.23468" lon="1.15684">
        <ele>72</ele>
        <time>2016-07-10T09:25:51.008Z</time>
      </trkpt>
      <trkpt lat="49.23467" lon="1.15683">
        <ele>72</ele>
        <time>2016-07-10T09:25:52.008Z</time>
      </trkpt>
      <trkpt lat="49.23465" lon="1.15683">
        <ele>72</ele>
        <time>2016-07-10T09:25:53.008Z</time>
      </trkpt>
      <trkpt lat="49.23464" lon="1.15683">
        <ele>73</ele>
        <time>2016-07-10T09:25:54.008Z</time>
      </trkpt>
      <trkpt lat="49.23462" lon="1.15682">
        <ele>73</ele>
        <time>2016-07-10T09:25:55.008Z</time>
      </trkpt>
      <trkpt lat="49.23461" lon="1.15682">
        <ele>73</ele>
        <time>2016-07-10T09:25:56.008Z</time>
      </trkpt>
      <trkpt lat="49.2346" lon="1.15682">
        <ele>73</ele>
        <time>2016-07-10T09:25:57.008Z</time>
      </trkpt>
      <trkpt lat="49.23459" lon="1.15681">
        <ele>73</ele>
        <time>2016-07-10T09:25:58.008Z</time>
      </trkpt>
      <trkpt lat="49.23458" lon="1.15681">
        <ele>73</ele>
        <time>2016-07-10T09:25:59.008Z</time>
      </trkpt>
      <trkpt lat="49.23458" lon="1.15682">
        <ele>73</ele>
        <time>2016-07-10T09:26:00.008Z</time>
      </trkpt>
      <trkpt lat="49.23457" lon="1.15682">
        <ele>73</ele>
        <time>2016-07-10T09:26:01.008Z</time>
      </trkpt>
      <trkpt lat="49.23457" lon="1.15682">
        <ele>73</ele>
        <time>2016-07-10T09:26:02.008Z</time>
      </trkpt>
      <trkpt lat="49.23457" lon="1.15682">
        <ele>73</ele>
        <time>2016-07-10T09:26:03.008Z</time>
      </trkpt>
      <trkpt lat="49.23457" lon="1.15682">
        <ele>73</ele>
        <time>2016-07-10T09:26:04.008Z</time>
      </trkpt>
      <trkpt lat="49.23458" lon="1.15682">
        <ele>74</ele>
        <time>2016-07-10T09:26:05.008Z</time>
      </trkpt>
      <trkpt lat="49.23457" lon="1.15682">
        <ele>74</ele>
        <time>2016-07-10T09:26:06.008Z</time>
      </trkpt>
      <trkpt lat="49.23457" lon="1.15682">
        <ele>74</ele>
        <time>2016-07-10T09:26:07.008Z</time>
      </trkpt>
      <trkpt lat="49.23457" lon="1.15681">
        <ele>74</ele>
        <time>2016-07-10T09:26:08.008Z</time>
      </trkpt>
      <trkpt lat="49.23458" lon="1.15681">
        <ele>74</ele>
        <time>2016-07-10T09:26:09.008Z</time>
      </trkpt>
      <trkpt lat="49.23458" lon="1.1568">
        <ele>74</ele>
        <time>2016-07-10T09:26:10.008Z</time>
      </trkpt>
      <trkpt lat="49.23458" lon="1.1568">
        <ele>74</ele>
        <time>2016-07-10T09:26:11.008Z</time>
      </trkpt>
      <trkpt lat="49.23457" lon="1.15679">
        <ele>75</ele>
        <time>2016-07-10T09:26:12.008Z</time>
      </trkpt>
      <trkpt lat="49.23456" lon="1.15679">
        <ele>75</ele>
        <time>2016-07-10T09:26:13.008Z</time>
      </trkpt>
      <trkpt lat="49.23455" lon="1.15679">
        <ele>76</ele>
        <time>2016-07-10T09:26:14.008Z</time>
      </trkpt>
      <trkpt lat="49.23455" lon="1.15679">
        <ele>76</ele>
        <time>2016-07-10T09:26:15.008Z</time>
      </trkpt>
      <trkpt lat="49.23455" lon="1.15679">
        <ele>76</ele>
        <time>2016-07-10T09:26:16.008Z</time>
      </trkpt>
      <trkpt lat="49.23454" lon="1.15678">
        <ele>76</ele>
        <time>2016-07-10T09:26:17.008Z</time>
      </trkpt>
      <trkpt lat="49.23454" lon="1.15678">
        <ele>76</ele>
        <time>2016-07-10T09:26:18.008Z</time>
      </trkpt>
      <trkpt lat="49.23453" lon="1.15678">
        <ele>77</ele>
        <time>2016-07-10T09:26:19.008Z</time>
      </trkpt>
      <trkpt lat="49.23452" lon="1.15677">
        <ele>77</ele>
        <time>2016-07-10T09:26:20.008Z</time>
      </trkpt>
      <trkpt lat="49.23451" lon="1.15677">
        <ele>77</ele>
        <time>2016-07-10T09:26:21.008Z</time>
      </trkpt>
      <trkpt lat="49.2345" lon="1.15677">
        <ele>77</ele>
        <time>2016-07-10T09:26:22.008Z</time>
      </trkpt>
      <trkpt lat="49.2345" lon="1.15677">
        <ele>78</ele>
        <time>2016-07-10T09:26:23.008Z</time>
      </trkpt>
      <trkpt lat="49.23449" lon="1.15677">
        <ele>78</ele>
        <time>2016-07-10T09:26:24.008Z</time>
      </trkpt>
      <trkpt lat="49.23449" lon="1.15677">
        <ele>78</ele>
        <time>2016-07-10T09:26:25.008Z</time>
      </trkpt>
      <trkpt lat="49.23449" lon="1.15677">
        <ele>78</ele>
        <time>2016-07-10T09:26:26.008Z</time>
      </trkpt>
      <trkpt lat="49.23449" lon="1.15677">
        <ele>79</ele>
        <time>2016-07-10T09:26:27.008Z</time>
      </trkpt>
      <trkpt lat="49.23448" lon="1.15677">
        <ele>79</ele>
        <time>2016-07-10T09:26:28.008Z</time>
      </trkpt>
      <trkpt lat="49.23448" lon="1.15677">
        <ele>79</ele>
        <time>2016-07-10T09:26:29.008Z</time>
      </trkpt>
      <trkpt lat="49.23448" lon="1.15676">
        <ele>79</ele>
        <time>2016-07-10T09:26:30.008Z</time>
      </trkpt>
      <trkpt lat="49.23448" lon="1.15676">
        <ele>79</ele>
        <time>2016-07-10T09:26:31.008Z</time>
      </trkpt>
      <trkpt lat="49.23448" lon="1.15676">
        <ele>79</ele>
        <time>2016-07-10T09:26:32.008Z</time>
      </trkpt>
      <trkpt lat="49.23448" lon="1.15676">
        <ele>79</ele>
        <time>2016-07-10T09:26:33.008Z</time>
      </trkpt>
      <trkpt lat="49.23447" lon="1.15675">
        <ele>79</ele>
        <time>2016-07-10T09:26:34.008Z</time>
      </trkpt>
      <trkpt lat="49.23446" lon="1.15675">
        <ele>79</ele>
        <time>2016-07-10T09:26:35.008Z</time>
      </trkpt>
      <trkpt lat="49.23446" lon="1.15674">
        <ele>79</ele>
        <time>2016-07-10T09:26:36.008Z</time>
      </trkpt>
      <trkpt lat="49.23445" lon="1.15674">
        <ele>79</ele>
        <time>2016-07-10T09:26:37.008Z</time>
      </trkpt>
      <trkpt lat="49.23444" lon="1.15674">
        <ele>79</ele>
        <time>2016-07-10T09:26:38.008Z</time>
      </trkpt>
      <trkpt lat="49.23444" lon="1.15673">
        <ele>79</ele>
        <time>2016-07-10T09:26:39.008Z</time>
      </trkpt>
      <trkpt lat="49.23443" lon="1.15673">
        <ele>80</ele>
        <time>2016-07-10T09:26:40.008Z</time>
      </trkpt>
      <trkpt lat="49.23443" lon="1.15672">
        <ele>79</ele>
        <time>2016-07-10T09:26:41.008Z</time>
      </trkpt>
      <trkpt lat="49.23442" lon="1.15672">
        <ele>79</ele>
        <time>2016-07-10T09:26:42.008Z</time>
      </trkpt>
      <trkpt lat="49.23441" lon="1.15672">
        <ele>79</ele>
        <time>2016-07-10T09:26:43.008Z</time>
      </trkpt>
      <trkpt lat="49.2344" lon="1.15672">
        <ele>79</ele>
        <time>2016-07-10T09:26:44.008Z</time>
      </trkpt>
      <trkpt lat="49.2344" lon="1.15672">
        <ele>80</ele>
        <time>2016-07-10T09:26:45.008Z</time>
      </trkpt>
      <trkpt lat="49.23439" lon="1.15672">
        <ele>80</ele>
        <time>2016-07-10T09:26:46.008Z</time>
      </trkpt>
      <trkpt lat="49.23439" lon="1.15672">
        <ele>80</ele>
        <time>2016-07-10T09:26:47.008Z</time>
      </trkpt>
      <trkpt lat="49.23438" lon="1.15672">
        <ele>80</ele>
        <time>2016-07-10T09:26:48.008Z</time>
      </trkpt>
      <trkpt lat="49.23437" lon="1.15672">
        <ele>80</ele>
        <time>2016-07-10T09:26:49.008Z</time>
      </trkpt>
      <trkpt lat="49.23436" lon="1.15671">
        <ele>81</ele>
        <time>2016-07-10T09:26:50.008Z</time>
      </trkpt>
      <trkpt lat="49.23436" lon="1.15671">
        <ele>81</ele>
        <time>2016-07-10T09:26:51.008Z</time>
      </trkpt>
      <trkpt lat="49.23435" lon="1.15671">
        <ele>81</ele>
        <time>2016-07-10T09:26:52.008Z</time>
      </trkpt>
      <trkpt lat="49.23434" lon="1.15671">
        <ele>81</ele>
        <time>2016-07-10T09:26:53.008Z</time>
      </trkpt>
      <trkpt lat="49.23434" lon="1.15671">
        <ele>81</ele>
        <time>2016-07-10T09:26:54.008Z</time>
      </trkpt>
      <trkpt lat="49.23433" lon="1.1567">
        <ele>81</ele>
        <time>2016-07-10T09:26:55.008Z</time>
      </trkpt>
      <trkpt lat="49.23432" lon="1.1567">
        <ele>80</ele>
        <time>2016-07-10T09:26:56.008Z</time>
      </trkpt>
      <trkpt lat="49.23431" lon="1.1567">
        <ele>81</ele>
        <time>2016-07-10T09:26:57.008Z</time>
      </trkpt>
      <trkpt lat="49.23431" lon="1.15669">
        <ele>80</ele>
        <time>2016-07-10T09:26:58.008Z</time>
      </trkpt>
      <trkpt lat="49.2343" lon="1.15669">
        <ele>81</ele>
        <time>2016-07-10T09:26:59.008Z</time>
      </trkpt>
      <trkpt lat="49.23429" lon="1.15668">
        <ele>81</ele>
        <time>2016-07-10T09:27:00.008Z</time>
      </trkpt>
      <trkpt lat="49.23428" lon="1.15667">
        <ele>82</ele>
        <time>2016-07-10T09:27:01.008Z</time>
      </trkpt>
      <trkpt lat="49.23428" lon="1.15667">
        <ele>82</ele>
        <time>2016-07-10T09:27:02.008Z</time>
      </trkpt>
      <trkpt lat="49.23427" lon="1.15666">
        <ele>81</ele>
        <time>2016-07-10T09:27:03.008Z</time>
      </trkpt>
      <trkpt lat="49.23427" lon="1.15665">
        <ele>81</ele>
        <time>2016-07-10T09:27:04.008Z</time>
      </trkpt>
      <trkpt lat="49.23426" lon="1.15664">
        <ele>82</ele>
        <time>2016-07-10T09:27:05.008Z</time>
      </trkpt>
      <trkpt lat="49.23426" lon="1.15664">
        <ele>82</ele>
        <time>2016-07-10T09:27:06.008Z</time>
      </trkpt>
      <trkpt lat="49.23425" lon="1.15664">
        <ele>83</ele>
        <time>2016-07-10T09:27:07.008Z</time>
      </trkpt>
      <trkpt lat="49.23425" lon="1.15663">
        <ele>83</ele>
        <time>2016-07-10T09:27:08.008Z</time>
      </trkpt>
      <trkpt lat="49.23424" lon="1.15663">
        <ele>83</ele>
        <time>2016-07-10T09:27:09.008Z</time>
      </trkpt>
      <trkpt lat="49.23424" lon="1.15662">
        <ele>83</ele>
        <time>2016-07-10T09:27:10.008Z</time>
      </trkpt>
      <trkpt lat="49.23423" lon="1.15662">
        <ele>84</ele>
        <time>2016-07-10T09:27:11.008Z</time>
      </trkpt>
      <trkpt lat="49.23423" lon="1.15662">
        <ele>84</ele>
        <time>2016-07-10T09:27:12.008Z</time>
      </trkpt>
      <trkpt lat="49.23422" lon="1.15661">
        <ele>84</ele>
        <time>2016-07-10T09:27:13.008Z</time>
      </trkpt>
      <trkpt lat="49.23421" lon="1.15661">
        <ele>84</ele>
        <time>2016-07-10T09:27:14.008Z</time>
      </trkpt>
      <trkpt lat="49.23421" lon="1.15661">
        <ele>84</ele>
        <time>2016-07-10T09:27:15.008Z</time>
      </trkpt>
      <trkpt lat="49.2342" lon="1.1566">
        <ele>84</ele>
        <time>2016-07-10T09:27:16.008Z</time>
      </trkpt>
      <trkpt lat="49.23419" lon="1.1566">
        <ele>84</ele>
        <time>2016-07-10T09:27:17.008Z</time>
      </trkpt>
      <trkpt lat="49.23419" lon="1.1566">
        <ele>84</ele>
        <time>2016-07-10T09:27:18.008Z</time>
      </trkpt>
      <trkpt lat="49.23418" lon="1.1566">
        <ele>85</ele>
        <time>2016-07-10T09:27:19.008Z</time>
      </trkpt>
      <trkpt lat="49.23418" lon="1.15659">
        <ele>85</ele>
        <time>2016-07-10T09:27:20.008Z</time>
      </trkpt>
      <trkpt lat="49.23418" lon="1.15659">
        <ele>85</ele>
        <time>2016-07-10T09:27:21.008Z</time>
      </trkpt>
      <trkpt lat="49.23417" lon="1.15659">
        <ele>85</ele>
        <time>2016-07-10T09:27:22.008Z</time>
      </trkpt>
      <trkpt lat="49.23417" lon="1.15658">
        <ele>86</ele>
        <time>2016-07-10T09:27:23.008Z</time>
      </trkpt>
      <trkpt lat="49.23417" lon="1.15658">
        <ele>86</ele>
        <time>2016-07-10T09:27:24.008Z</time>
      </trkpt>
      <trkpt lat="49.23416" lon="1.15658">
        <ele>86</ele>
        <time>2016-07-10T09:27:25.008Z</time>
      </trkpt>
      <trkpt lat="49.23416" lon="1.15658">
        <ele>87</ele>
        <time>2016-07-10T09:27:26.008Z</time>
      </trkpt>
      <trkpt lat="49.23415" lon="1.15658">
        <ele>87</ele>
        <time>2016-07-10T09:27:27.008Z</time>
      </trkpt>
      <trkpt lat="49.23414" lon="1.15657">
        <ele>87</ele>
        <time>2016-07-10T09:27:28.008Z</time>
      </trkpt>
      <trkpt lat="49.23414" lon="1.15657">
        <ele>87</ele>
        <time>2016-07-10T09:27:29.008Z</time>
      </trkpt>
      <trkpt lat="49.23414" lon="1.15657">
        <ele>87</ele>
        <time>2016-07-10T09:27:30.008Z</time>
      </trkpt>
      <trkpt lat="49.23413" lon="1.15657">
        <ele>87</ele>
        <time>2016-07-10T09:27:31.008Z</time>
      </trkpt>
      <trkpt lat="49.23413" lon="1.15658">
        <ele>86</ele>
        <time>2016-07-10T09:27:32.008Z</time>
      </trkpt>
      <trkpt lat="49.23412" lon="1.15658">
        <ele>87</ele>
        <time>2016-07-10T09:27:33.008Z</time>
      </trkpt>
      <trkpt lat="49.23412" lon="1.15659">
        <ele>87</ele>
        <time>2016-07-10T09:27:34.008Z</time>
      </trkpt>
      <trkpt lat="49.23411" lon="1.15659">
        <ele>87</ele>
        <time>2016-07-10T09:27:35.008Z</time>
      </trkpt>
      <trkpt lat="49.23411" lon="1.15658">
        <ele>87</ele>
        <time>2016-07-10T09:27:36.008Z</time>
      </trkpt>
      <trkpt lat="49.2341" lon="1.15658">
        <ele>88</ele>
        <time>2016-07-10T09:27:37.008Z</time>
      </trkpt>
      <trkpt lat="49.2341" lon="1.15658">
        <ele>88</ele>
        <time>2016-07-10T09:27:38.008Z</time>
      </trkpt>
      <trkpt lat="49.23409" lon="1.15658">
        <ele>88</ele>
        <time>2016-07-10T09:27:39.008Z</time>
      </trkpt>
      <trkpt lat="49.23409" lon="1.15657">
        <ele>89</ele>
        <time>2016-07-10T09:27:40.008Z</time>
      </trkpt>
      <trkpt lat="49.23408" lon="1.15657">
        <ele>89</ele>
        <time>2016-07-10T09:27:41.008Z</time>
      </trkpt>
      <trkpt lat="49.23407" lon="1.15657">
        <ele>89</ele>
        <time>2016-07-10T09:27:42.008Z</time>
      </trkpt>
      <trkpt lat="49.23407" lon="1.15656">
        <ele>90</ele>
        <time>2016-07-10T09:27:43.008Z</time>
      </trkpt>
      <trkpt lat="49.23406" lon="1.15656">
        <ele>89</ele>
        <time>2016-07-10T09:27:44.008Z</time>
      </trkpt>
      <trkpt lat="49.23405" lon="1.15656">
        <ele>89</ele>
        <time>2016-07-10T09:27:45.008Z</time>
      </trkpt>
      <trkpt lat="49.23405" lon="1.15656">
        <ele>89</ele>
        <time>2016-07-10T09:27:46.008Z</time>
      </trkpt>
      <trkpt lat="49.23404" lon="1.15656">
        <ele>90</ele>
        <time>2016-07-10T09:27:47.008Z</time>
      </trkpt>
      <trkpt lat="49.23403" lon="1.15656">
        <ele>90</ele>
        <time>2016-07-10T09:27:48.008Z</time>
      </trkpt>
      <trkpt lat="49.23403" lon="1.15656">
        <ele>91</ele>
        <time>2016-07-10T09:27:49.008Z</time>
      </trkpt>
      <trkpt lat="49.23402" lon="1.15656">
        <ele>91</ele>
        <time>2016-07-10T09:27:50.008Z</time>
      </trkpt>
      <trkpt lat="49.23401" lon="1.15656">
        <ele>91</ele>
        <time>2016-07-10T09:27:51.008Z</time>
      </trkpt>
      <trkpt lat="49.23401" lon="1.15655">
        <ele>91</ele>
        <time>2016-07-10T09:27:52.008Z</time>
      </trkpt>
      <trkpt lat="49.234" lon="1.15655">
        <ele>92</ele>
        <time>2016-07-10T09:27:53.008Z</time>
      </trkpt>
      <trkpt lat="49.23399" lon="1.15655">
        <ele>92</ele>
        <time>2016-07-10T09:27:54.008Z</time>
      </trkpt>
      <trkpt lat="49.23399" lon="1.15655">
        <ele>92</ele>
        <time>2016-07-10T09:27:55.008Z</time>
      </trkpt>
      <trkpt lat="49.23399" lon="1.15655">
        <ele>92</ele>
        <time>2016-07-10T09:27:56.008Z</time>
      </trkpt>
      <trkpt lat="49.23399" lon="1.15654">
        <ele>92</ele>
        <time>2016-07-10T09:27:57.008Z</time>
      </trkpt>
      <trkpt lat="49.23399" lon="1.15654">
        <ele>93</ele>
        <time>2016-07-10T09:27:58.008Z</time>
      </trkpt>
      <trkpt lat="49.23399" lon="1.15654">
        <ele>93</ele>
        <time>2016-07-10T09:27:59.008Z</time>
      </trkpt>
      <trkpt lat="49.23399" lon="1.15654">
        <ele>93</ele>
        <time>2016-07-10T09:28:00.008Z</time>
      </trkpt>
      <trkpt lat="49.23399" lon="1.15654">
        <ele>93</ele>
        <time>2016-07-10T09:28:01.008Z</time>
      </trkpt>
      <trkpt lat="49.23398" lon="1.15654">
        <ele>94</ele>
        <time>2016-07-10T09:28:02.008Z</time>
      </trkpt>
      <trkpt lat="49.23398" lon="1.15654">
        <ele>94</ele>
        <time>2016-07-10T09:28:03.008Z</time>
      </trkpt>
      <trkpt lat="49.23397" lon="1.15653">
        <ele>94</ele>
        <time>2016-07-10T09:28:04.008Z</time>
      </trkpt>
      <trkpt lat="49.23396" lon="1.15653">
        <ele>94</ele>
        <time>2016-07-10T09:28:05.008Z</time>
      </trkpt>
      <trkpt lat="49.23396" lon="1.15652">
        <ele>95</ele>
        <time>2016-07-10T09:28:06.008Z</time>
      </trkpt>
      <trkpt lat="49.23395" lon="1.15651">
        <ele>95</ele>
        <time>2016-07-10T09:28:07.008Z</time>
      </trkpt>
      <trkpt lat="49.23394" lon="1.1565">
        <ele>97</ele>
        <time>2016-07-10T09:28:08.008Z</time>
      </trkpt>
      <trkpt lat="49.23394" lon="1.15649">
        <ele>97</ele>
        <time>2016-07-10T09:28:09.008Z</time>
      </trkpt>
      <trkpt lat="49.23393" lon="1.15649">
        <ele>96</ele>
        <time>2016-07-10T09:28:10.008Z</time>
      </trkpt>
      <trkpt lat="49.23392" lon="1.15649">
        <ele>96</ele>
        <time>2016-07-10T09:28:11.008Z</time>
      </trkpt>
      <trkpt lat="49.23392" lon="1.15648">
        <ele>96</ele>
        <time>2016-07-10T09:28:12.008Z</time>
      </trkpt>
      <trkpt lat="49.23391" lon="1.15648">
        <ele>96</ele>
        <time>2016-07-10T09:28:13.008Z</time>
      </trkpt>
      <trkpt lat="49.2339" lon="1.15647">
        <ele>97</ele>
        <time>2016-07-10T09:28:14.008Z</time>
      </trkpt>
      <trkpt lat="49.23389" lon="1.15646">
        <ele>97</ele>
        <time>2016-07-10T09:28:15.008Z</time>
      </trkpt>
      <trkpt lat="49.23388" lon="1.15646">
        <ele>97</ele>
        <time>2016-07-10T09:28:16.008Z</time>
      </trkpt>
      <trkpt lat="49.23387" lon="1.15646">
        <ele>98</ele>
        <time>2016-07-10T09:28:17.008Z</time>
      </trkpt>
      <trkpt lat="49.23386" lon="1.15646">
        <ele>98</ele>
        <time>2016-07-10T09:28:18.008Z</time>
      </trkpt>
      <trkpt lat="49.23384" lon="1.15645">
        <ele>97</ele>
        <time>2016-07-10T09:28:19.008Z</time>
      </trkpt>
      <trkpt lat="49.23383" lon="1.15645">
        <ele>98</ele>
        <time>2016-07-10T09:28:20.008Z</time>
      </trkpt>
      <trkpt lat="49.23382" lon="1.15645">
        <ele>97</ele>
        <time>2016-07-10T09:28:21.008Z</time>
      </trkpt>
      <trkpt lat="49.23381" lon="1.15644">
        <ele>98</ele>
        <time>2016-07-10T09:28:22.008Z</time>
      </trkpt>
      <trkpt lat="49.2338" lon="1.15644">
        <ele>98</ele>
        <time>2016-07-10T09:28:23.008Z</time>
      </trkpt>
      <trkpt lat="49.23379" lon="1.15643">
        <ele>99</ele>
        <time>2016-07-10T09:28:24.008Z</time>
      </trkpt>
      <trkpt lat="49.23378" lon="1.15643">
        <ele>99</ele>
        <time>2016-07-10T09:28:25.008Z</time>
      </trkpt>
      <trkpt lat="49.23377" lon="1.15643">
        <ele>99</ele>
        <time>2016-07-10T09:28:26.008Z</time>
      </trkpt>
      <trkpt lat="49.23376" lon="1.15643">
        <ele>99</ele>
        <time>2016-07-10T09:28:27.008Z</time>
      </trkpt>
      <trkpt lat="49.23374" lon="1.15643">
        <ele>99</ele>
        <time>2016-07-10T09:28:28.008Z</time>
      </trkpt>
      <trkpt lat="49.23373" lon="1.15643">
        <ele>100</ele>
        <time>2016-07-10T09:28:29.008Z</time>
      </trkpt>
      <trkpt lat="49.23372" lon="1.15643">
        <ele>100</ele>
        <time>2016-07-10T09:28:30.008Z</time>
      </trkpt>
      <trkpt lat="49.23371" lon="1.15643">
        <ele>100</ele>
        <time>2016-07-10T09:28:31.008Z</time>
      </trkpt>
      <trkpt lat="49.2337" lon="1.15643">
        <ele>100</ele>
        <time>2016-07-10T09:28:32.008Z</time>
      </trkpt>
      <trkpt lat="49.23369" lon="1.15643">
        <ele>101</ele>
        <time>2016-07-10T09:28:33.008Z</time>
      </trkpt>
      <trkpt lat="49.23367" lon="1.15642">
        <ele>101</ele>
        <time>2016-07-10T09:28:34.008Z</time>
      </trkpt>
      <trkpt lat="49.23366" lon="1.15642">
        <ele>101</ele>
        <time>2016-07-10T09:28:35.008Z</time>
      </trkpt>
      <trkpt lat="49.23365" lon="1.15641">
        <ele>101</ele>
        <time>2016-07-10T09:28:36.008Z</time>
      </trkpt>
      <trkpt lat="49.23364" lon="1.15641">
        <ele>101</ele>
        <time>2016-07-10T09:28:37.008Z</time>
      </trkpt>
      <trkpt lat="49.23364" lon="1.15641">
        <ele>101</ele>
        <time>2016-07-10T09:28:38.008Z</time>
      </trkpt>
      <trkpt lat="49.23364" lon="1.15641">
        <ele>100</ele>
        <time>2016-07-10T09:28:39.008Z</time>
      </trkpt>
      <trkpt lat="49.23364" lon="1.15641">
        <ele>100</ele>
        <time>2016-07-10T09:28:40.008Z</time>
      </trkpt>
      <trkpt lat="49.23363" lon="1.15641">
        <ele>100</ele>
        <time>2016-07-10T09:28:41.008Z</time>
      </trkpt>
      <trkpt lat="49.23363" lon="1.15641">
        <ele>99</ele>
        <time>2016-07-10T09:28:42.008Z</time>
      </trkpt>
      <trkpt lat="49.23362" lon="1.1564">
        <ele>99</ele>
        <time>2016-07-10T09:28:43.008Z</time>
      </trkpt>
      <trkpt lat="49.23361" lon="1.15639">
        <ele>98</ele>
        <time>2016-07-10T09:28:44.008Z</time>
      </trkpt>
      <trkpt lat="49.2336" lon="1.15639">
        <ele>99</ele>
        <time>2016-07-10T09:28:45.008Z</time>
      </trkpt>
      <trkpt lat="49.23358" lon="1.15638">
        <ele>98</ele>
        <time>2016-07-10T09:28:46.008Z</time>
      </trkpt>
      <trkpt lat="49.23357" lon="1.15637">
        <ele>98</ele>
        <time>2016-07-10T09:28:47.008Z</time>
      </trkpt>
      <trkpt lat="49.23356" lon="1.15636">
        <ele>97</ele>
        <time>2016-07-10T09:28:48.008Z</time>
      </trkpt>
      <trkpt lat="49.23354" lon="1.15635">
        <ele>97</ele>
        <time>2016-07-10T09:28:49.008Z</time>
      </trkpt>
      <trkpt lat="49.23353" lon="1.15634">
        <ele>97</ele>
        <time>2016-07-10T09:28:50.008Z</time>
      </trkpt>
      <trkpt lat="49.23351" lon="1.15633">
        <ele>97</ele>
        <time>2016-07-10T09:28:51.008Z</time>
      </trkpt>
      <trkpt lat="49.23349" lon="1.15633">
        <ele>97</ele>
        <time>2016-07-10T09:28:52.008Z</time>
      </trkpt>
      <trkpt lat="49.23347" lon="1.15632">
        <ele>97</ele>
        <time>2016-07-10T09:28:53.008Z</time>
      </trkpt>
      <trkpt lat="49.23346" lon="1.15631">
        <ele>97</ele>
        <time>2016-07-10T09:28:54.008Z</time>
      </trkpt>
      <trkpt lat="49.23344" lon="1.15631">
        <ele>96</ele>
        <time>2016-07-10T09:28:55.008Z</time>
      </trkpt>
      <trkpt lat="49.23343" lon="1.1563">
        <ele>97</ele>
        <time>2016-07-10T09:28:56.008Z</time>
      </trkpt>
      <trkpt lat="49.23341" lon="1.15629">
        <ele>97</ele>
        <time>2016-07-10T09:28:57.008Z</time>
      </trkpt>
      <trkpt lat="49.23339" lon="1.15628">
        <ele>97</ele>
        <time>2016-07-10T09:28:58.008Z</time>
      </trkpt>
      <trkpt lat="49.23338" lon="1.15627">
        <ele>97</ele>
        <time>2016-07-10T09:28:59.008Z</time>
      </trkpt>
      <trkpt lat="49.23338" lon="1.15626">
        <ele>96</ele>
        <time>2016-07-10T09:29:00.008Z</time>
      </trkpt>
      <trkpt lat="49.23337" lon="1.15625">
        <ele>96</ele>
        <time>2016-07-10T09:29:01.008Z</time>
      </trkpt>
      <trkpt lat="49.23337" lon="1.15625">
        <ele>97</ele>
        <time>2016-07-10T09:29:02.008Z</time>
      </trkpt>
      <trkpt lat="49.23337" lon="1.15625">
        <ele>98</ele>
        <time>2016-07-10T09:29:03.008Z</time>
      </trkpt>
      <trkpt lat="49.23337" lon="1.15625">
        <ele>98</ele>
        <time>2016-07-10T09:29:04.008Z</time>
      </trkpt>
      <trkpt lat="49.23337" lon="1.15625">
        <ele>99</ele>
        <time>2016-07-10T09:29:05.008Z</time>
      </trkpt>
      <trkpt lat="49.23337" lon="1.15625">
        <ele>98</ele>
        <time>2016-07-10T09:29:06.008Z</time>
      </trkpt>
      <trkpt lat="49.23336" lon="1.15625">
        <ele>98</ele>
        <time>2016-07-10T09:29:07.008Z</time>
      </trkpt>
      <trkpt lat="49.23336" lon="1.15624">
        <ele>98</ele>
        <time>2016-07-10T09:29:08.008Z</time>
      </trkpt>
      <trkpt lat="49.23336" lon="1.15624">
        <ele>98</ele>
        <time>2016-07-10T09:29:09.008Z</time>
      </trkpt>
      <trkpt lat="49.23336" lon="1.15625">
        <ele>99</ele>
        <time>2016-07-10T09:29:10.008Z</time>
      </trkpt>
      <trkpt lat="49.23336" lon="1.15625">
        <ele>100</ele>
        <time>2016-07-10T09:29:11.008Z</time>
      </trkpt>
      <trkpt lat="49.23336" lon="1.15625">
        <ele>100</ele>
        <time>2016-07-10T09:29:12.008Z</time>
      </trkpt>
      <trkpt lat="49.23336" lon="1.15625">
        <ele>100</ele>
        <time>2016-07-10T09:29:13.008Z</time>
      </trkpt>
      <trkpt lat="49.23336" lon="1.15625">
        <ele>101</ele>
        <time>2016-07-10T09:29:14.008Z</time>
      </trkpt>
      <trkpt lat="49.23335" lon="1.15625">
        <ele>102</ele>
        <time>2016-07-10T09:29:15.008Z</time>
      </trkpt>
      <trkpt lat="49.23335" lon="1.15625">
        <ele>102</ele>
        <time>2016-07-10T09:29:16.008Z</time>
      </trkpt>
      <trkpt lat="49.23335" lon="1.15625">
        <ele>103</ele>
        <time>2016-07-10T09:29:17.008Z</time>
      </trkpt>
      <trkpt lat="49.23335" lon="1.15626">
        <ele>103</ele>
        <time>2016-07-10T09:29:18.008Z</time>
      </trkpt>
      <trkpt lat="49.23335" lon="1.15626">
        <ele>103</ele>
        <time>2016-07-10T09:29:19.008Z</time>
      </trkpt>
      <trkpt lat="49.23335" lon="1.15626">
        <ele>104</ele>
        <time>2016-07-10T09:29:20.008Z</time>
      </trkpt>
      <trkpt lat="49.23336" lon="1.15626">
        <ele>104</ele>
        <time>2016-07-10T09:29:21.008Z</time>
      </trkpt>
      <trkpt lat="49.23336" lon="1.15626">
        <ele>105</ele>
        <time>2016-07-10T09:29:22.008Z</time>
      </trkpt>
      <trkpt lat="49.23336" lon="1.15626">
        <ele>104</ele>
        <time>2016-07-10T09:29:23.008Z</time>
      </trkpt>
      <trkpt lat="49.23336" lon="1.15626">
        <ele>104</ele>
        <time>2016-07-10T09:29:24.008Z</time>
      </trkpt>
      <trkpt lat="49.23336" lon="1.15626">
        <ele>104</ele>
        <time>2016-07-10T09:29:25.008Z</time>
      </trkpt>
      <trkpt lat="49.23336" lon="1.15626">
        <ele>104</ele>
        <time>2016-07-10T09:29:26.008Z</time>
      </trkpt>
      <trkpt lat="49.23337" lon="1.15626">
        <ele>104</ele>
        <time>2016-07-10T09:29:27.008Z</time>
      </trkpt>
      <trkpt lat="49.23337" lon="1.15626">
        <ele>104</ele>
        <time>2016-07-10T09:29:28.008Z</time>
      </trkpt>
      <trkpt lat="49.23337" lon="1.15627">
        <ele>103</ele>
        <time>2016-07-10T09:29:29.008Z</time>
      </trkpt>
      <trkpt lat="49.23337" lon="1.15628">
        <ele>103</ele>
        <time>2016-07-10T09:29:30.008Z</time>
      </trkpt>
      <trkpt lat="49.23337" lon="1.15629">
        <ele>103</ele>
        <time>2016-07-10T09:29:31.008Z</time>
      </trkpt>
      <trkpt lat="49.23336" lon="1.15631">
        <ele>103</ele>
        <time>2016-07-10T09:29:32.008Z</time>
      </trkpt>
      <trkpt lat="49.23336" lon="1.15634">
        <ele>102</ele>
        <time>2016-07-10T09:29:33.008Z</time>
      </trkpt>
      <trkpt lat="49.23335" lon="1.15637">
        <ele>101</ele>
        <time>2016-07-10T09:29:34.008Z</time>
      </trkpt>
      <trkpt lat="49.23334" lon="1.15641">
        <ele>101</ele>
        <time>2016-07-10T09:29:35.008Z</time>
      </trkpt>
      <trkpt lat="49.23333" lon="1.15645">
        <ele>101</ele>
        <time>2016-07-10T09:29:36.008Z</time>
      </trkpt>
      <trkpt lat="49.23333" lon="1.1565">
        <ele>100</ele>
        <time>2016-07-10T09:29:37.008Z</time>
      </trkpt>
      <trkpt lat="49.23332" lon="1.15655">
        <ele>100</ele>
        <time>2016-07-10T09:29:38.008Z</time>
      </trkpt>
      <trkpt lat="49.23331" lon="1.1566">
        <ele>99</ele>
        <time>2016-07-10T09:29:39.008Z</time>
      </trkpt>
      <trkpt lat="49.2333" lon="1.15664">
        <ele>99</ele>
        <time>2016-07-10T09:29:40.008Z</time>
      </trkpt>
      <trkpt lat="49.23329" lon="1.15669">
        <ele>99</ele>
        <time>2016-07-10T09:29:41.008Z</time>
      </trkpt>
      <trkpt lat="49.23328" lon="1.15675">
        <ele>99</ele>
        <time>2016-07-10T09:29:42.008Z</time>
      </trkpt>
      <trkpt lat="49.23327" lon="1.1568">
        <ele>99</ele>
        <time>2016-07-10T09:29:43.008Z</time>
      </trkpt>
      <trkpt lat="49.23326" lon="1.15686">
        <ele>99</ele>
        <time>2016-07-10T09:29:44.008Z</time>
      </trkpt>
      <trkpt lat="49.23325" lon="1.15691">
        <ele>98</ele>
        <time>2016-07-10T09:29:45.008Z</time>
      </trkpt>
      <trkpt lat="49.23325" lon="1.15697">
        <ele>96</ele>
        <time>2016-07-10T09:29:46.008Z</time>
      </trkpt>
      <trkpt lat="49.23324" lon="1.15703">
        <ele>94</ele>
        <time>2016-07-10T09:29:47.008Z</time>
      </trkpt>
      <trkpt lat="49.23323" lon="1.1571">
        <ele>94</ele>
        <time>2016-07-10T09:29:48.008Z</time>
      </trkpt>
      <trkpt lat="49.23322" lon="1.15716">
        <ele>93</ele>
        <time>2016-07-10T09:29:49.008Z</time>
      </trkpt>
      <trkpt lat="49.23321" lon="1.15724">
        <ele>91</ele>
        <time>2016-07-10T09:29:50.008Z</time>
      </trkpt>
      <trkpt lat="49.2332" lon="1.15731">
        <ele>90</ele>
        <time>2016-07-10T09:29:51.008Z</time>
      </trkpt>
      <trkpt lat="49.2332" lon="1.1574">
        <ele>89</ele>
        <time>2016-07-10T09:29:52.008Z</time>
      </trkpt>
      <trkpt lat="49.23319" lon="1.1575">
        <ele>88</ele>
        <time>2016-07-10T09:29:53.008Z</time>
      </trkpt>
      <trkpt lat="49.23318" lon="1.15759">
        <ele>87</ele>
        <time>2016-07-10T09:29:54.008Z</time>
      </trkpt>
      <trkpt lat="49.23317" lon="1.15769">
        <ele>88</ele>
        <time>2016-07-10T09:29:55.008Z</time>
      </trkpt>
      <trkpt lat="49.23317" lon="1.15779">
        <ele>88</ele>
        <time>2016-07-10T09:29:56.008Z</time>
      </trkpt>
      <trkpt lat="49.23316" lon="1.15789">
        <ele>86</ele>
        <time>2016-07-10T09:29:57.008Z</time>
      </trkpt>
      <trkpt lat="49.23315" lon="1.15798">
        <ele>85</ele>
        <time>2016-07-10T09:29:58.008Z</time>
      </trkpt>
      <trkpt lat="49.23315" lon="1.15808">
        <ele>84</ele>
        <time>2016-07-10T09:29:59.008Z</time>
      </trkpt>
      <trkpt lat="49.23314" lon="1.15817">
        <ele>83</ele>
        <time>2016-07-10T09:30:00.008Z</time>
      </trkpt>
      <trkpt lat="49.23314" lon="1.15826">
        <ele>82</ele>
        <time>2016-07-10T09:30:01.008Z</time>
      </trkpt>
      <trkpt lat="49.23313" lon="1.15836">
        <ele>80</ele>
        <time>2016-07-10T09:30:02.008Z</time>
      </trkpt>
      <trkpt lat="49.23313" lon="1.15846">
        <ele>79</ele>
        <time>2016-07-10T09:30:03.008Z</time>
      </trkpt>
      <trkpt lat="49.23312" lon="1.15856">
        <ele>77</ele>
        <time>2016-07-10T09:30:04.008Z</time>
      </trkpt>
      <trkpt lat="49.23311" lon="1.15866">
        <ele>76</ele>
        <time>2016-07-10T09:30:05.008Z</time>
      </trkpt>
      <trkpt lat="49.23311" lon="1.15876">
        <ele>74</ele>
        <time>2016-07-10T09:30:06.008Z</time>
      </trkpt>
      <trkpt lat="49.23311" lon="1.15887">
        <ele>74</ele>
        <time>2016-07-10T09:30:07.008Z</time>
      </trkpt>
      <trkpt lat="49.23313" lon="1.15899">
        <ele>74</ele>
        <time>2016-07-10T09:30:08.008Z</time>
      </trkpt>
      <trkpt lat="49.23315" lon="1.1591">
        <ele>72</ele>
        <time>2016-07-10T09:30:09.008Z</time>
      </trkpt>
      <trkpt lat="49.23319" lon="1.15921">
        <ele>69</ele>
        <time>2016-07-10T09:30:10.008Z</time>
      </trkpt>
      <trkpt lat="49.23322" lon="1.15932">
        <ele>68</ele>
        <time>2016-07-10T09:30:11.008Z</time>
      </trkpt>
      <trkpt lat="49.23327" lon="1.15942">
        <ele>69</ele>
        <time>2016-07-10T09:30:12.008Z</time>
      </trkpt>
      <trkpt lat="49.23331" lon="1.15953">
        <ele>70</ele>
        <time>2016-07-10T09:30:13.008Z</time>
      </trkpt>
      <trkpt lat="49.23335" lon="1.15964">
        <ele>70</ele>
        <time>2016-07-10T09:30:14.008Z</time>
      </trkpt>
      <trkpt lat="49.23338" lon="1.15975">
        <ele>70</ele>
        <time>2016-07-10T09:30:15.008Z</time>
      </trkpt>
      <trkpt lat="49.2334" lon="1.15987">
        <ele>69</ele>
        <time>2016-07-10T09:30:16.008Z</time>
      </trkpt>
      <trkpt lat="49.23341" lon="1.15998">
        <ele>69</ele>
        <time>2016-07-10T09:30:17.008Z</time>
      </trkpt>
      <trkpt lat="49.23342" lon="1.16008">
        <ele>69</ele>
        <time>2016-07-10T09:30:18.008Z</time>
      </trkpt>
      <trkpt lat="49.23342" lon="1.16017">
        <ele>68</ele>
        <time>2016-07-10T09:30:19.008Z</time>
      </trkpt>
      <trkpt lat="49.23343" lon="1.16024">
        <ele>67</ele>
        <time>2016-07-10T09:30:20.008Z</time>
      </trkpt>
      <trkpt lat="49.23344" lon="1.1603">
        <ele>67</ele>
        <time>2016-07-10T09:30:21.008Z</time>
      </trkpt>
      <trkpt lat="49.23346" lon="1.16035">
        <ele>66</ele>
        <time>2016-07-10T09:30:22.008Z</time>
      </trkpt>
      <trkpt lat="49.23349" lon="1.1604">
        <ele>66</ele>
        <time>2016-07-10T09:30:23.008Z</time>
      </trkpt>
      <trkpt lat="49.23352" lon="1.16044">
        <ele>65</ele>
        <time>2016-07-10T09:30:24.008Z</time>
      </trkpt>
      <trkpt lat="49.23354" lon="1.16048">
        <ele>66</ele>
        <time>2016-07-10T09:30:25.008Z</time>
      </trkpt>
      <trkpt lat="49.23357" lon="1.16051">
        <ele>67</ele>
        <time>2016-07-10T09:30:26.008Z</time>
      </trkpt>
      <trkpt lat="49.23358" lon="1.16053">
        <ele>68</ele>
        <time>2016-07-10T09:30:27.008Z</time>
      </trkpt>
      <trkpt lat="49.23359" lon="1.16055">
        <ele>69</ele>
        <time>2016-07-10T09:30:28.008Z</time>
      </trkpt>
      <trkpt lat="49.2336" lon="1.16056">
        <ele>69</ele>
        <time>2016-07-10T09:30:29.008Z</time>
      </trkpt>
      <trkpt lat="49.2336" lon="1.16058">
        <ele>70</ele>
        <time>2016-07-10T09:30:30.008Z</time>
      </trkpt>
      <trkpt lat="49.23361" lon="1.16059">
        <ele>70</ele>
        <time>2016-07-10T09:30:31.008Z</time>
      </trkpt>
      <trkpt lat="49.23362" lon="1.16061">
        <ele>71</ele>
        <time>2016-07-10T09:30:32.008Z</time>
      </trkpt>
      <trkpt lat="49.23363" lon="1.16063">
        <ele>71</ele>
        <time>2016-07-10T09:30:33.008Z</time>
      </trkpt>
      <trkpt lat="49.23364" lon="1.16064">
        <ele>71</ele>
        <time>2016-07-10T09:30:34.008Z</time>
      </trkpt>
      <trkpt lat="49.23364" lon="1.16065">
        <ele>71</ele>
        <time>2016-07-10T09:30:35.008Z</time>
      </trkpt>
      <trkpt lat="49.23366" lon="1.16067">
        <ele>72</ele>
        <time>2016-07-10T09:30:36.008Z</time>
      </trkpt>
      <trkpt lat="49.23367" lon="1.16068">
        <ele>71</ele>
        <time>2016-07-10T09:30:37.008Z</time>
      </trkpt>
      <trkpt lat="49.23368" lon="1.1607">
        <ele>72</ele>
        <time>2016-07-10T09:30:38.008Z</time>
      </trkpt>
      <trkpt lat="49.23369" lon="1.16072">
        <ele>72</ele>
        <time>2016-07-10T09:30:39.008Z</time>
      </trkpt>
      <trkpt lat="49.23371" lon="1.16074">
        <ele>72</ele>
        <time>2016-07-10T09:30:40.008Z</time>
      </trkpt>
      <trkpt lat="49.23373" lon="1.16077">
        <ele>72</ele>
        <time>2016-07-10T09:30:41.008Z</time>
      </trkpt>
      <trkpt lat="49.23376" lon="1.16079">
        <ele>71</ele>
        <time>2016-07-10T09:30:42.008Z</time>
      </trkpt>
      <trkpt lat="49.23379" lon="1.16081">
        <ele>71</ele>
        <time>2016-07-10T09:30:43.008Z</time>
      </trkpt>
      <trkpt lat="49.23383" lon="1.16084">
        <ele>71</ele>
        <time>2016-07-10T09:30:44.008Z</time>
      </trkpt>
      <trkpt lat="49.23387" lon="1.16086">
        <ele>71</ele>
        <time>2016-07-10T09:30:45.008Z</time>
      </trkpt>
      <trkpt lat="49.2339" lon="1.1609">
        <ele>71</ele>
        <time>2016-07-10T09:30:46.008Z</time>
      </trkpt>
      <trkpt lat="49.23394" lon="1.16094">
        <ele>71</ele>
        <time>2016-07-10T09:30:47.008Z</time>
      </trkpt>
      <trkpt lat="49.23398" lon="1.16099">
        <ele>71</ele>
        <time>2016-07-10T09:30:48.008Z</time>
      </trkpt>
      <trkpt lat="49.23401" lon="1.16104">
        <ele>70</ele>
        <time>2016-07-10T09:30:49.008Z</time>
      </trkpt>
      <trkpt lat="49.23405" lon="1.16109">
        <ele>70</ele>
        <time>2016-07-10T09:30:50.008Z</time>
      </trkpt>
      <trkpt lat="49.23408" lon="1.16114">
        <ele>70</ele>
        <time>2016-07-10T09:30:51.008Z</time>
      </trkpt>
      <trkpt lat="49.23411" lon="1.1612">
        <ele>71</ele>
        <time>2016-07-10T09:30:52.008Z</time>
      </trkpt>
      <trkpt lat="49.23414" lon="1.16126">
        <ele>69</ele>
        <time>2016-07-10T09:30:53.008Z</time>
      </trkpt>
      <trkpt lat="49.23416" lon="1.16134">
        <ele>67</ele>
        <time>2016-07-10T09:30:54.008Z</time>
      </trkpt>
      <trkpt lat="49.23417" lon="1.16141">
        <ele>66</ele>
        <time>2016-07-10T09:30:55.008Z</time>
      </trkpt>
      <trkpt lat="49.23418" lon="1.16148">
        <ele>66</ele>
        <time>2016-07-10T09:30:56.008Z</time>
      </trkpt>
      <trkpt lat="49.23419" lon="1.16154">
        <ele>65</ele>
        <time>2016-07-10T09:30:57.008Z</time>
      </trkpt>
      <trkpt lat="49.23421" lon="1.16158">
        <ele>65</ele>
        <time>2016-07-10T09:30:58.008Z</time>
      </trkpt>
      <trkpt lat="49.23423" lon="1.16162">
        <ele>68</ele>
        <time>2016-07-10T09:30:59.008Z</time>
      </trkpt>
      <trkpt lat="49.23426" lon="1.16165">
        <ele>68</ele>
        <time>2016-07-10T09:31:00.008Z</time>
      </trkpt>
      <trkpt lat="49.23429" lon="1.16168">
        <ele>67</ele>
        <time>2016-07-10T09:31:01.008Z</time>
      </trkpt>
      <trkpt lat="49.23432" lon="1.16171">
        <ele>67</ele>
        <time>2016-07-10T09:31:02.008Z</time>
      </trkpt>
      <trkpt lat="49.23435" lon="1.16174">
        <ele>66</ele>
        <time>2016-07-10T09:31:03.008Z</time>
      </trkpt>
      <trkpt lat="49.23439" lon="1.16178">
        <ele>63</ele>
        <time>2016-07-10T09:31:04.008Z</time>
      </trkpt>
      <trkpt lat="49.23442" lon="1.16183">
        <ele>64</ele>
        <time>2016-07-10T09:31:05.008Z</time>
      </trkpt>
      <trkpt lat="49.23445" lon="1.16188">
        <ele>62</ele>
        <time>2016-07-10T09:31:06.008Z</time>
      </trkpt>
      <trkpt lat="49.23448" lon="1.16194">
        <ele>61</ele>
        <time>2016-07-10T09:31:07.008Z</time>
      </trkpt>
      <trkpt lat="49.2345" lon="1.16201">
        <ele>59</ele>
        <time>2016-07-10T09:31:08.008Z</time>
      </trkpt>
      <trkpt lat="49.23453" lon="1.16208">
        <ele>58</ele>
        <time>2016-07-10T09:31:09.008Z</time>
      </trkpt>
      <trkpt lat="49.23455" lon="1.16217">
        <ele>58</ele>
        <time>2016-07-10T09:31:10.008Z</time>
      </trkpt>
      <trkpt lat="49.23456" lon="1.16226">
        <ele>58</ele>
        <time>2016-07-10T09:31:11.008Z</time>
      </trkpt>
      <trkpt lat="49.23458" lon="1.16235">
        <ele>57</ele>
        <time>2016-07-10T09:31:12.008Z</time>
      </trkpt>
      <trkpt lat="49.23459" lon="1.16243">
        <ele>55</ele>
        <time>2016-07-10T09:31:13.008Z</time>
      </trkpt>
      <trkpt lat="49.23461" lon="1.16252">
        <ele>54</ele>
        <time>2016-07-10T09:31:14.008Z</time>
      </trkpt>
      <trkpt lat="49.23462" lon="1.1626">
        <ele>54</ele>
        <time>2016-07-10T09:31:15.008Z</time>
      </trkpt>
      <trkpt lat="49.23464" lon="1.16269">
        <ele>53</ele>
        <time>2016-07-10T09:31:16.008Z</time>
      </trkpt>
      <trkpt lat="49.23467" lon="1.16278">
        <ele>52</ele>
        <time>2016-07-10T09:31:17.008Z</time>
      </trkpt>
      <trkpt lat="49.2347" lon="1.16286">
        <ele>49</ele>
        <time>2016-07-10T09:31:18.008Z</time>
      </trkpt>
      <trkpt lat="49.23473" lon="1.16294">
        <ele>47</ele>
        <time>2016-07-10T09:31:19.008Z</time>
      </trkpt>
      <trkpt lat="49.23477" lon="1.16303">
        <ele>46</ele>
        <time>2016-07-10T09:31:20.008Z</time>
      </trkpt>
      <trkpt lat="49.23481" lon="1.16314">
        <ele>45</ele>
        <time>2016-07-10T09:31:21.008Z</time>
      </trkpt>
      <trkpt lat="49.23486" lon="1.16325">
        <ele>45</ele>
        <time>2016-07-10T09:31:22.008Z</time>
      </trkpt>
      <trkpt lat="49.2349" lon="1.16337">
        <ele>45</ele>
        <time>2016-07-10T09:31:23.008Z</time>
      </trkpt>
      <trkpt lat="49.23494" lon="1.16348">
        <ele>44</ele>
        <time>2016-07-10T09:31:24.008Z</time>
      </trkpt>
      <trkpt lat="49.23498" lon="1.16359">
        <ele>42</ele>
        <time>2016-07-10T09:31:25.008Z</time>
      </trkpt>
      <trkpt lat="49.23502" lon="1.1637">
        <ele>41</ele>
        <time>2016-07-10T09:31:26.008Z</time>
      </trkpt>
      <trkpt lat="49.23506" lon="1.1638">
        <ele>39</ele>
        <time>2016-07-10T09:31:27.008Z</time>
      </trkpt>
      <trkpt lat="49.23509" lon="1.16388">
        <ele>38</ele>
        <time>2016-07-10T09:31:28.008Z</time>
      </trkpt>
      <trkpt lat="49.23512" lon="1.16394">
        <ele>38</ele>
        <time>2016-07-10T09:31:29.008Z</time>
      </trkpt>
      <trkpt lat="49.23515" lon="1.16398">
        <ele>39</ele>
        <time>2016-07-10T09:31:30.008Z</time>
      </trkpt>
      <trkpt lat="49.23516" lon="1.164">
        <ele>41</ele>
        <time>2016-07-10T09:31:31.008Z</time>
      </trkpt>
      <trkpt lat="49.23516" lon="1.16402">
        <ele>40</ele>
        <time>2016-07-10T09:31:32.008Z</time>
      </trkpt>
      <trkpt lat="49.23515" lon="1.16403">
        <ele>39</ele>
        <time>2016-07-10T09:31:33.008Z</time>
      </trkpt>
      <trkpt lat="49.23517" lon="1.16406">
        <ele>38</ele>
        <time>2016-07-10T09:31:34.008Z</time>
      </trkpt>
      <trkpt lat="49.23518" lon="1.16407">
        <ele>38</ele>
        <time>2016-07-10T09:31:35.008Z</time>
      </trkpt>
      <trkpt lat="49.23518" lon="1.16409">
        <ele>38</ele>
        <time>2016-07-10T09:31:36.008Z</time>
      </trkpt>
      <trkpt lat="49.23516" lon="1.16409">
        <ele>38</ele>
        <time>2016-07-10T09:31:37.008Z</time>
      </trkpt>
      <trkpt lat="49.23514" lon="1.16409">
        <ele>35</ele>
        <time>2016-07-10T09:31:38.008Z</time>
      </trkpt>
      <trkpt lat="49.23511" lon="1.16408">
        <ele>35</ele>
        <time>2016-07-10T09:31:39.008Z</time>
      </trkpt>
      <trkpt lat="49.23507" lon="1.16408">
        <ele>36</ele>
        <time>2016-07-10T09:31:40.008Z</time>
      </trkpt>
      <trkpt lat="49.23503" lon="1.16407">
        <ele>35</ele>
        <time>2016-07-10T09:31:41.008Z</time>
      </trkpt>
      <trkpt lat="49.23499" lon="1.16407">
        <ele>35</ele>
        <time>2016-07-10T09:31:42.008Z</time>
      </trkpt>
      <trkpt lat="49.23495" lon="1.16406">
        <ele>35</ele>
        <time>2016-07-10T09:31:43.008Z</time>
      </trkpt>
      <trkpt lat="49.23491" lon="1.16406">
        <ele>35</ele>
        <time>2016-07-10T09:31:44.008Z</time>
      </trkpt>
      <trkpt lat="49.23486" lon="1.16404">
        <ele>34</ele>
        <time>2016-07-10T09:31:45.008Z</time>
      </trkpt>
      <trkpt lat="49.23482" lon="1.16404">
        <ele>33</ele>
        <time>2016-07-10T09:31:46.008Z</time>
      </trkpt>
      <trkpt lat="49.23477" lon="1.16402">
        <ele>32</ele>
        <time>2016-07-10T09:31:47.008Z</time>
      </trkpt>
      <trkpt lat="49.23473" lon="1.16401">
        <ele>31</ele>
        <time>2016-07-10T09:31:48.008Z</time>
      </trkpt>
      <trkpt lat="49.23469" lon="1.164">
        <ele>30</ele>
        <time>2016-07-10T09:31:49.008Z</time>
      </trkpt>
      <trkpt lat="49.23464" lon="1.16399">
        <ele>30</ele>
        <time>2016-07-10T09:31:50.008Z</time>
      </trkpt>
      <trkpt lat="49.2346" lon="1.16398">
        <ele>30</ele>
        <time>2016-07-10T09:31:51.008Z</time>
      </trkpt>
      <trkpt lat="49.23455" lon="1.16397">
        <ele>30</ele>
        <time>2016-07-10T09:31:52.008Z</time>
      </trkpt>
      <trkpt lat="49.23451" lon="1.16396">
        <ele>31</ele>
        <time>2016-07-10T09:31:53.008Z</time>
      </trkpt>
      <trkpt lat="49.23446" lon="1.16395">
        <ele>32</ele>
        <time>2016-07-10T09:31:54.008Z</time>
      </trkpt>
      <trkpt lat="49.23441" lon="1.16394">
        <ele>31</ele>
        <time>2016-07-10T09:31:55.008Z</time>
      </trkpt>
      <trkpt lat="49.23436" lon="1.16393">
        <ele>29</ele>
        <time>2016-07-10T09:31:56.008Z</time>
      </trkpt>
      <trkpt lat="49.23431" lon="1.16391">
        <ele>28</ele>
        <time>2016-07-10T09:31:57.008Z</time>
      </trkpt>
      <trkpt lat="49.23426" lon="1.1639">
        <ele>29</ele>
        <time>2016-07-10T09:31:58.008Z</time>
      </trkpt>
      <trkpt lat="49.23421" lon="1.16389">
        <ele>29</ele>
        <time>2016-07-10T09:31:59.008Z</time>
      </trkpt>
      <trkpt lat="49.23415" lon="1.16389">
        <ele>29</ele>
        <time>2016-07-10T09:32:00.008Z</time>
      </trkpt>
      <trkpt lat="49.23411" lon="1.16388">
        <ele>29</ele>
        <time>2016-07-10T09:32:01.008Z</time>
      </trkpt>
      <trkpt lat="49.23406" lon="1.16389">
        <ele>29</ele>
        <time>2016-07-10T09:32:02.008Z</time>
      </trkpt>
      <trkpt lat="49.23401" lon="1.16388">
        <ele>28</ele>
        <time>2016-07-10T09:32:03.008Z</time>
      </trkpt>
      <trkpt lat="49.23396" lon="1.16388">
        <ele>27</ele>
        <time>2016-07-10T09:32:04.008Z</time>
      </trkpt>
      <trkpt lat="49.23391" lon="1.16386">
        <ele>27</ele>
        <time>2016-07-10T09:32:05.008Z</time>
      </trkpt>
      <trkpt lat="49.23387" lon="1.16384">
        <ele>26</ele>
        <time>2016-07-10T09:32:06.008Z</time>
      </trkpt>
      <trkpt lat="49.23383" lon="1.16383">
        <ele>26</ele>
        <time>2016-07-10T09:32:07.008Z</time>
      </trkpt>
      <trkpt lat="49.23379" lon="1.16382">
        <ele>25</ele>
        <time>2016-07-10T09:32:08.008Z</time>
      </trkpt>
      <trkpt lat="49.23375" lon="1.16381">
        <ele>25</ele>
        <time>2016-07-10T09:32:09.008Z</time>
      </trkpt>
      <trkpt lat="49.2337" lon="1.16381">
        <ele>25</ele>
        <time>2016-07-10T09:32:10.008Z</time>
      </trkpt>
      <trkpt lat="49.23365" lon="1.16381">
        <ele>23</ele>
        <time>2016-07-10T09:32:11.008Z</time>
      </trkpt>
      <trkpt lat="49.2336" lon="1.16381">
        <ele>22</ele>
        <time>2016-07-10T09:32:12.008Z</time>
      </trkpt>
      <trkpt lat="49.23355" lon="1.1638">
        <ele>23</ele>
        <time>2016-07-10T09:32:13.008Z</time>
      </trkpt>
      <trkpt lat="49.2335" lon="1.16378">
        <ele>22</ele>
        <time>2016-07-10T09:32:14.008Z</time>
      </trkpt>
      <trkpt lat="49.23345" lon="1.16377">
        <ele>23</ele>
        <time>2016-07-10T09:32:15.008Z</time>
      </trkpt>
      <trkpt lat="49.2334" lon="1.16376">
        <ele>23</ele>
        <time>2016-07-10T09:32:16.008Z</time>
      </trkpt>
      <trkpt lat="49.23335" lon="1.16375">
        <ele>23</ele>
        <time>2016-07-10T09:32:17.008Z</time>
      </trkpt>
      <trkpt lat="49.2333" lon="1.16373">
        <ele>23</ele>
        <time>2016-07-10T09:32:18.008Z</time>
      </trkpt>
      <trkpt lat="49.23325" lon="1.16371">
        <ele>23</ele>
        <time>2016-07-10T09:32:19.008Z</time>
      </trkpt>
      <trkpt lat="49.23321" lon="1.1637">
        <ele>22</ele>
        <time>2016-07-10T09:32:20.008Z</time>
      </trkpt>
      <trkpt lat="49.23316" lon="1.16368">
        <ele>21</ele>
        <time>2016-07-10T09:32:21.008Z</time>
      </trkpt>
      <trkpt lat="49.23312" lon="1.16367">
        <ele>20</ele>
        <time>2016-07-10T09:32:22.008Z</time>
      </trkpt>
      <trkpt lat="49.23307" lon="1.16367">
        <ele>18</ele>
        <time>2016-07-10T09:32:23.008Z</time>
      </trkpt>
      <trkpt lat="49.23302" lon="1.16367">
        <ele>16</ele>
        <time>2016-07-10T09:32:24.008Z</time>
      </trkpt>
      <trkpt lat="49.23297" lon="1.16367">
        <ele>13</ele>
        <time>2016-07-10T09:32:25.008Z</time>
      </trkpt>
      <trkpt lat="49.2329" lon="1.16365">
        <ele>12</ele>
        <time>2016-07-10T09:32:26.008Z</time>
      </trkpt>
      <trkpt lat="49.23283" lon="1.16362">
        <ele>11</ele>
        <time>2016-07-10T09:32:27.008Z</time>
      </trkpt>
      <trkpt lat="49.23276" lon="1.16358">
        <ele>12</ele>
        <time>2016-07-10T09:32:28.008Z</time>
      </trkpt>
      <trkpt lat="49.2327" lon="1.16355">
        <ele>15</ele>
        <time>2016-07-10T09:32:29.008Z</time>
      </trkpt>
      <trkpt lat="49.23263" lon="1.16353">
        <ele>16</ele>
        <time>2016-07-10T09:32:30.008Z</time>
      </trkpt>
      <trkpt lat="49.23256" lon="1.16354">
        <ele>18</ele>
        <time>2016-07-10T09:32:31.008Z</time>
      </trkpt>
      <trkpt lat="49.2325" lon="1.16354">
        <ele>19</ele>
        <time>2016-07-10T09:32:32.008Z</time>
      </trkpt>
      <trkpt lat="49.23243" lon="1.16352">
        <ele>20</ele>
        <time>2016-07-10T09:32:33.008Z</time>
      </trkpt>
      <trkpt lat="49.23237" lon="1.1635">
        <ele>22</ele>
        <time>2016-07-10T09:32:34.008Z</time>
      </trkpt>
      <trkpt lat="49.23231" lon="1.16346">
        <ele>20</ele>
        <time>2016-07-10T09:32:35.008Z</time>
      </trkpt>
      <trkpt lat="49.23227" lon="1.16341">
        <ele>19</ele>
        <time>2016-07-10T09:32:36.008Z</time>
      </trkpt>
      <trkpt lat="49.23222" lon="1.16337">
        <ele>20</ele>
        <time>2016-07-10T09:32:37.008Z</time>
      </trkpt>
      <trkpt lat="49.23218" lon="1.16333">
        <ele>20</ele>
        <time>2016-07-10T09:32:38.008Z</time>
      </trkpt>
      <trkpt lat="49.23214" lon="1.16329">
        <ele>19</ele>
        <time>2016-07-10T09:32:39.008Z</time>
      </trkpt>
      <trkpt lat="49.2321" lon="1.16326">
        <ele>19</ele>
        <time>2016-07-10T09:32:40.008Z</time>
      </trkpt>
      <trkpt lat="49.23205" lon="1.16323">
        <ele>18</ele>
        <time>2016-07-10T09:32:41.008Z</time>
      </trkpt>
      <trkpt lat="49.232" lon="1.16321">
        <ele>18</ele>
        <time>2016-07-10T09:32:42.008Z</time>
      </trkpt>
      <trkpt lat="49.23195" lon="1.16319">
        <ele>18</ele>
        <time>2016-07-10T09:32:43.008Z</time>
      </trkpt>
      <trkpt lat="49.2319" lon="1.16317">
        <ele>18</ele>
        <time>2016-07-10T09:32:44.008Z</time>
      </trkpt>
      <trkpt lat="49.23185" lon="1.16315">
        <ele>19</ele>
        <time>2016-07-10T09:32:45.008Z</time>
      </trkpt>
      <trkpt lat="49.23181" lon="1.16312">
        <ele>18</ele>
        <time>2016-07-10T09:32:46.008Z</time>
      </trkpt>
      <trkpt lat="49.23176" lon="1.16308">
        <ele>18</ele>
        <time>2016-07-10T09:32:47.008Z</time>
      </trkpt>
      <trkpt lat="49.23171" lon="1.16304">
        <ele>18</ele>
        <time>2016-07-10T09:32:48.008Z</time>
      </trkpt>
      <trkpt lat="49.23166" lon="1.16299">
        <ele>16</ele>
        <time>2016-07-10T09:32:49.008Z</time>
      </trkpt>
      <trkpt lat="49.23162" lon="1.16294">
        <ele>15</ele>
        <time>2016-07-10T09:32:50.008Z</time>
      </trkpt>
      <trkpt lat="49.23157" lon="1.16288">
        <ele>14</ele>
        <time>2016-07-10T09:32:51.008Z</time>
      </trkpt>
      <trkpt lat="49.23152" lon="1.16282">
        <ele>14</ele>
        <time>2016-07-10T09:32:52.008Z</time>
      </trkpt>
      <trkpt lat="49.23148" lon="1.16278">
        <ele>13</ele>
        <time>2016-07-10T09:32:53.008Z</time>
      </trkpt>
      <trkpt lat="49.23143" lon="1.16274">
        <ele>12</ele>
        <time>2016-07-10T09:32:54.008Z</time>
      </trkpt>
      <trkpt lat="49.23138" lon="1.16273">
        <ele>12</ele>
        <time>2016-07-10T09:32:55.008Z</time>
      </trkpt>
      <trkpt lat="49.23132" lon="1.16271">
        <ele>11</ele>
        <time>2016-07-10T09:32:56.008Z</time>
      </trkpt>
      <trkpt lat="49.23125" lon="1.16269">
        <ele>11</ele>
        <time>2016-07-10T09:32:57.008Z</time>
      </trkpt>
      <trkpt lat="49.23119" lon="1.16267">
        <ele>11</ele>
        <time>2016-07-10T09:32:58.008Z</time>
      </trkpt>
      <trkpt lat="49.23112" lon="1.16265">
        <ele>9</ele>
        <time>2016-07-10T09:32:59.008Z</time>
      </trkpt>
      <trkpt lat="49.23105" lon="1.16261">
        <ele>10</ele>
        <time>2016-07-10T09:33:00.008Z</time>
      </trkpt>
      <trkpt lat="49.23098" lon="1.16257">
        <ele>10</ele>
        <time>2016-07-10T09:33:01.008Z</time>
      </trkpt>
      <trkpt lat="49.2309" lon="1.16252">
        <ele>6</ele>
        <time>2016-07-10T09:33:02.008Z</time>
      </trkpt>
      <trkpt lat="49.23082" lon="1.16246">
        <ele>6</ele>
        <time>2016-07-10T09:33:03.008Z</time>
      </trkpt>
      <trkpt lat="49.23074" lon="1.16241">
        <ele>7</ele>
        <time>2016-07-10T09:33:04.008Z</time>
      </trkpt>
      <trkpt lat="49.23066" lon="1.16236">
        <ele>6</ele>
        <time>2016-07-10T09:33:05.008Z</time>
      </trkpt>
      <trkpt lat="49.23058" lon="1.16231">
        <ele>6</ele>
        <time>2016-07-10T09:33:06.008Z</time>
      </trkpt>
      <trkpt lat="49.23051" lon="1.16226">
        <ele>6</ele>
        <time>2016-07-10T09:33:07.008Z</time>
      </trkpt>
      <trkpt lat="49.23043" lon="1.1622">
        <ele>7</ele>
        <time>2016-07-10T09:33:08.008Z</time>
      </trkpt>
      <trkpt lat="49.23035" lon="1.16214">
        <ele>7</ele>
        <time>2016-07-10T09:33:09.008Z</time>
      </trkpt>
      <trkpt lat="49.23028" lon="1.16208">
        <ele>9</ele>
        <time>2016-07-10T09:33:10.008Z</time>
      </trkpt>
      <trkpt lat="49.23021" lon="1.16201">
        <ele>8</ele>
        <time>2016-07-10T09:33:11.008Z</time>
      </trkpt>
      <trkpt lat="49.23016" lon="1.16194">
        <ele>5</ele>
        <time>2016-07-10T09:33:12.008Z</time>
      </trkpt>
      <trkpt lat="49.23011" lon="1.16186">
        <ele>6</ele>
        <time>2016-07-10T09:33:13.008Z</time>
      </trkpt>
      <trkpt lat="49.23007" lon="1.16179">
        <ele>7</ele>
        <time>2016-07-10T09:33:14.008Z</time>
      </trkpt>
      <trkpt lat="49.23002" lon="1.16172">
        <ele>7</ele>
        <time>2016-07-10T09:33:15.008Z</time>
      </trkpt>
      <trkpt lat="49.22996" lon="1.16165">
        <ele>8</ele>
        <time>2016-07-10T09:33:16.008Z</time>
      </trkpt>
      <trkpt lat="49.22991" lon="1.16159">
        <ele>8</ele>
        <time>2016-07-10T09:33:17.008Z</time>
      </trkpt>
      <trkpt lat="49.22986" lon="1.16153">
        <ele>8</ele>
        <time>2016-07-10T09:33:18.008Z</time>
      </trkpt>
      <trkpt lat="49.22982" lon="1.16146">
        <ele>10</ele>
        <time>2016-07-10T09:33:19.008Z</time>
      </trkpt>
      <trkpt lat="49.22977" lon="1.16139">
        <ele>11</ele>
        <time>2016-07-10T09:33:20.008Z</time>
      </trkpt>
      <trkpt lat="49.22973" lon="1.16132">
        <ele>12</ele>
        <time>2016-07-10T09:33:21.008Z</time>
      </trkpt>
      <trkpt lat="49.22969" lon="1.16125">
        <ele>12</ele>
        <time>2016-07-10T09:33:22.008Z</time>
      </trkpt>
      <trkpt lat="49.22965" lon="1.16118">
        <ele>10</ele>
        <time>2016-07-10T09:33:23.008Z</time>
      </trkpt>
      <trkpt lat="49.22961" lon="1.16111">
        <ele>11</ele>
        <time>2016-07-10T09:33:24.008Z</time>
      </trkpt>
      <trkpt lat="49.22957" lon="1.16104">
        <ele>12</ele>
        <time>2016-07-10T09:33:25.008Z</time>
      </trkpt>
      <trkpt lat="49.22953" lon="1.16098">
        <ele>12</ele>
        <time>2016-07-10T09:33:26.008Z</time>
      </trkpt>
      <trkpt lat="49.2295" lon="1.16091">
        <ele>12</ele>
        <time>2016-07-10T09:33:27.008Z</time>
      </trkpt>
      <trkpt lat="49.22947" lon="1.16085">
        <ele>12</ele>
        <time>2016-07-10T09:33:28.008Z</time>
      </trkpt>
      <trkpt lat="49.22944" lon="1.16079">
        <ele>13</ele>
        <time>2016-07-10T09:33:29.008Z</time>
      </trkpt>
      <trkpt lat="49.2294" lon="1.16073">
        <ele>13</ele>
        <time>2016-07-10T09:33:30.008Z</time>
      </trkpt>
      <trkpt lat="49.22936" lon="1.16068">
        <ele>13</ele>
        <time>2016-07-10T09:33:31.008Z</time>
      </trkpt>
      <trkpt lat="49.22933" lon="1.16063">
        <ele>14</ele>
        <time>2016-07-10T09:33:32.008Z</time>
      </trkpt>
      <trkpt lat="49.22929" lon="1.16058">
        <ele>15</ele>
        <time>2016-07-10T09:33:33.008Z</time>
      </trkpt>
      <trkpt lat="49.22925" lon="1.16054">
        <ele>15</ele>
        <time>2016-07-10T09:33:34.008Z</time>
      </trkpt>
      <trkpt lat="49.22922" lon="1.16049">
        <ele>15</ele>
        <time>2016-07-10T09:33:35.008Z</time>
      </trkpt>
      <trkpt lat="49.22919" lon="1.16046">
        <ele>13</ele>
        <time>2016-07-10T09:33:36.008Z</time>
      </trkpt>
      <trkpt lat="49.22916" lon="1.16042">
        <ele>12</ele>
        <time>2016-07-10T09:33:37.008Z</time>
      </trkpt>
      <trkpt lat="49.22913" lon="1.16038">
        <ele>13</ele>
        <time>2016-07-10T09:33:38.008Z</time>
      </trkpt>
      <trkpt lat="49.22909" lon="1.16034">
        <ele>13</ele>
        <time>2016-07-10T09:33:39.008Z</time>
      </trkpt>
      <trkpt lat="49.22904" lon="1.1603">
        <ele>16</ele>
        <time>2016-07-10T09:33:40.008Z</time>
      </trkpt>
      <trkpt lat="49.22898" lon="1.16026">
        <ele>16</ele>
        <time>2016-07-10T09:33:41.008Z</time>
      </trkpt>
      <trkpt lat="49.22892" lon="1.16021">
        <ele>12</ele>
        <time>2016-07-10T09:33:42.008Z</time>
      </trkpt>
      <trkpt lat="49.22887" lon="1.16015">
        <ele>10</ele>
        <time>2016-07-10T09:33:43.008Z</time>
      </trkpt>
      <trkpt lat="49.22882" lon="1.16008">
        <ele>4</ele>
        <time>2016-07-10T09:33:44.008Z</time>
      </trkpt>
      <trkpt lat="49.22876" lon="1.16">
        <ele>3</ele>
        <time>2016-07-10T09:33:45.008Z</time>
      </trkpt>
      <trkpt lat="49.2287" lon="1.15993">
        <ele>2</ele>
        <time>2016-07-10T09:33:46.008Z</time>
      </trkpt>
      <trkpt lat="49.22865" lon="1.15986">
        <ele>2</ele>
        <time>2016-07-10T09:33:47.008Z</time>
      </trkpt>
      <trkpt lat="49.22859" lon="1.1598">
        <ele>2</ele>
        <time>2016-07-10T09:33:48.008Z</time>
      </trkpt>
      <trkpt lat="49.22854" lon="1.15972">
        <ele>2</ele>
        <time>2016-07-10T09:33:49.008Z</time>
      </trkpt>
      <trkpt lat="49.22848" lon="1.15965">
        <ele>1</ele>
        <time>2016-07-10T09:33:50.008Z</time>
      </trkpt>
      <trkpt lat="49.22842" lon="1.15958">
        <ele>2</ele>
        <time>2016-07-10T09:33:51.008Z</time>
      </trkpt>
      <trkpt lat="49.22836" lon="1.15951">
        <ele>1</ele>
        <time>2016-07-10T09:33:52.008Z</time>
      </trkpt>
      <trkpt lat="49.2283" lon="1.15944">
        <ele>35.6</ele>
        <time>2016-07-10T09:33:53.008Z</time>
      </trkpt>
      <trkpt lat="49.22825" lon="1.15936">
        <ele>3</ele>
        <time>2016-07-10T09:33:54.008Z</time>
      </trkpt>
      <trkpt lat="49.2282" lon="1.15926">
        <ele>5</ele>
        <time>2016-07-10T09:33:55.008Z</time>
      </trkpt>
      <trkpt lat="49.22816" lon="1.15915">
        <ele>7</ele>
        <time>2016-07-10T09:33:56.008Z</time>
      </trkpt>
      <trkpt lat="49.22813" lon="1.15904">
        <ele>8</ele>
        <time>2016-07-10T09:33:57.008Z</time>
      </trkpt>
      <trkpt lat="49.2281" lon="1.15895">
        <ele>12</ele>
        <time>2016-07-10T09:33:58.008Z</time>
      </trkpt>
      <trkpt lat="49.22807" lon="1.15885">
        <ele>14</ele>
        <time>2016-07-10T09:33:59.008Z</time>
      </trkpt>
      <trkpt lat="49.22804" lon="1.15876">
        <ele>15</ele>
        <time>2016-07-10T09:34:00.008Z</time>
      </trkpt>
      <trkpt lat="49.228" lon="1.15866">
        <ele>16</ele>
        <time>2016-07-10T09:34:01.008Z</time>
      </trkpt>
      <trkpt lat="49.22797" lon="1.15857">
        <ele>17</ele>
        <time>2016-07-10T09:34:02.008Z</time>
      </trkpt>
      <trkpt lat="49.22794" lon="1.15849">
        <ele>18</ele>
        <time>2016-07-10T09:34:03.008Z</time>
      </trkpt>
      <trkpt lat="49.22791" lon="1.15841">
        <ele>20</ele>
        <time>2016-07-10T09:34:04.008Z</time>
      </trkpt>
      <trkpt lat="49.22788" lon="1.15834">
        <ele>23</ele>
        <time>2016-07-10T09:34:05.008Z</time>
      </trkpt>
      <trkpt lat="49.22784" lon="1.15828">
        <ele>23</ele>
        <time>2016-07-10T09:34:06.008Z</time>
      </trkpt>
      <trkpt lat="49.2278" lon="1.15823">
        <ele>24</ele>
        <time>2016-07-10T09:34:07.008Z</time>
      </trkpt>
      <trkpt lat="49.22775" lon="1.15818">
        <ele>23</ele>
        <time>2016-07-10T09:34:08.008Z</time>
      </trkpt>
      <trkpt lat="49.2277" lon="1.15815">
        <ele>26</ele>
        <time>2016-07-10T09:34:09.008Z</time>
      </trkpt>
      <trkpt lat="49.22765" lon="1.15814">
        <ele>27</ele>
        <time>2016-07-10T09:34:10.008Z</time>
      </trkpt>
      <trkpt lat="49.2276" lon="1.15813">
        <ele>27</ele>
        <time>2016-07-10T09:34:11.008Z</time>
      </trkpt>
      <trkpt lat="49.22757" lon="1.15813">
        <ele>26</ele>
        <time>2016-07-10T09:34:12.008Z</time>
      </trkpt>
      <trkpt lat="49.22754" lon="1.15814">
        <ele>27</ele>
        <time>2016-07-10T09:34:13.008Z</time>
      </trkpt>
      <trkpt lat="49.22752" lon="1.15815">
        <ele>28</ele>
        <time>2016-07-10T09:34:14.008Z</time>
      </trkpt>
      <trkpt lat="49.2275" lon="1.15817">
        <ele>29</ele>
        <time>2016-07-10T09:34:15.008Z</time>
      </trkpt>
      <trkpt lat="49.22748" lon="1.15819">
        <ele>29</ele>
        <time>2016-07-10T09:34:16.008Z</time>
      </trkpt>
      <trkpt lat="49.22745" lon="1.15821">
        <ele>29</ele>
        <time>2016-07-10T09:34:17.008Z</time>
      </trkpt>
      <trkpt lat="49.22742" lon="1.15825">
        <ele>30</ele>
        <time>2016-07-10T09:34:18.008Z</time>
      </trkpt>
      <trkpt lat="49.2274" lon="1.15829">
        <ele>31</ele>
        <time>2016-07-10T09:34:19.008Z</time>
      </trkpt>
      <trkpt lat="49.22738" lon="1.15834">
        <ele>31</ele>
        <time>2016-07-10T09:34:20.008Z</time>
      </trkpt>
      <trkpt lat="49.22737" lon="1.15839">
        <ele>31</ele>
        <time>2016-07-10T09:34:21.008Z</time>
      </trkpt>
      <trkpt lat="49.22736" lon="1.15844">
        <ele>30</ele>
        <time>2016-07-10T09:34:22.008Z</time>
      </trkpt>
      <trkpt lat="49.22735" lon="1.15849">
        <ele>30</ele>
        <time>2016-07-10T09:34:23.008Z</time>
      </trkpt>
      <trkpt lat="49.22733" lon="1.15853">
        <ele>30</ele>
        <time>2016-07-10T09:34:24.008Z</time>
      </trkpt>
      <trkpt lat="49.22732" lon="1.15857">
        <ele>30</ele>
        <time>2016-07-10T09:34:25.008Z</time>
      </trkpt>
      <trkpt lat="49.22731" lon="1.1586">
        <ele>30</ele>
        <time>2016-07-10T09:34:26.008Z</time>
      </trkpt>
      <trkpt lat="49.2273" lon="1.15863">
        <ele>30</ele>
        <time>2016-07-10T09:34:27.008Z</time>
      </trkpt>
      <trkpt lat="49.22729" lon="1.15866">
        <ele>30</ele>
        <time>2016-07-10T09:34:28.008Z</time>
      </trkpt>
      <trkpt lat="49.22728" lon="1.15869">
        <ele>30</ele>
        <time>2016-07-10T09:34:29.008Z</time>
      </trkpt>
      <trkpt lat="49.22726" lon="1.15872">
        <ele>29</ele>
        <time>2016-07-10T09:34:30.008Z</time>
      </trkpt>
      <trkpt lat="49.22724" lon="1.15874">
        <ele>29</ele>
        <time>2016-07-10T09:34:31.008Z</time>
      </trkpt>
      <trkpt lat="49.22722" lon="1.15877">
        <ele>29</ele>
        <time>2016-07-10T09:34:32.008Z</time>
      </trkpt>
      <trkpt lat="49.22718" lon="1.1588">
        <ele>29</ele>
        <time>2016-07-10T09:34:33.008Z</time>
      </trkpt>
      <trkpt lat="49.22714" lon="1.15883">
        <ele>29</ele>
        <time>2016-07-10T09:34:34.008Z</time>
      </trkpt>
      <trkpt lat="49.2271" lon="1.15888">
        <ele>29</ele>
        <time>2016-07-10T09:34:35.008Z</time>
      </trkpt>
      <trkpt lat="49.22705" lon="1.15893">
        <ele>28</ele>
        <time>2016-07-10T09:34:36.008Z</time>
      </trkpt>
      <trkpt lat="49.227" lon="1.15898">
        <ele>27</ele>
        <time>2016-07-10T09:34:37.008Z</time>
      </trkpt>
      <trkpt lat="49.22695" lon="1.15904">
        <ele>27</ele>
        <time>2016-07-10T09:34:38.008Z</time>
      </trkpt>
      <trkpt lat="49.2269" lon="1.15909">
        <ele>26</ele>
        <time>2016-07-10T09:34:39.008Z</time>
      </trkpt>
      <trkpt lat="49.22685" lon="1.15915">
        <ele>25</ele>
        <time>2016-07-10T09:34:40.008Z</time>
      </trkpt>
      <trkpt lat="49.2268" lon="1.15921">
        <ele>25</ele>
        <time>2016-07-10T09:34:41.008Z</time>
      </trkpt>
      <trkpt lat="49.22676" lon="1.15927">
        <ele>25</ele>
        <time>2016-07-10T09:34:42.008Z</time>
      </trkpt>
      <trkpt lat="49.22671" lon="1.15934">
        <ele>24</ele>
        <time>2016-07-10T09:34:43.008Z</time>
      </trkpt>
      <trkpt lat="49.22665" lon="1.1594">
        <ele>24</ele>
        <time>2016-07-10T09:34:44.008Z</time>
      </trkpt>
      <trkpt lat="49.2266" lon="1.15946">
        <ele>23</ele>
        <time>2016-07-10T09:34:45.008Z</time>
      </trkpt>
      <trkpt lat="49.22654" lon="1.15953">
        <ele>22</ele>
        <time>2016-07-10T09:34:46.008Z</time>
      </trkpt>
      <trkpt lat="49.22649" lon="1.15959">
        <ele>22</ele>
        <time>2016-07-10T09:34:47.008Z</time>
      </trkpt>
      <trkpt lat="49.22643" lon="1.15965">
        <ele>21</ele>
        <time>2016-07-10T09:34:48.008Z</time>
      </trkpt>
      <trkpt lat="49.22638" lon="1.15971">
        <ele>21</ele>
        <time>2016-07-10T09:34:49.008Z</time>
      </trkpt>
      <trkpt lat="49.22633" lon="1.15976">
        <ele>20</ele>
        <time>2016-07-10T09:34:50.008Z</time>
      </trkpt>
      <trkpt lat="49.22628" lon="1.15981">
        <ele>19</ele>
        <time>2016-07-10T09:34:51.008Z</time>
      </trkpt>
      <trkpt lat="49.22623" lon="1.15985">
        <ele>19</ele>
        <time>2016-07-10T09:34:52.008Z</time>
      </trkpt>
      <trkpt lat="49.22619" lon="1.1599">
        <ele>18</ele>
        <time>2016-07-10T09:34:53.008Z</time>
      </trkpt>
      <trkpt lat="49.22615" lon="1.15995">
        <ele>17</ele>
        <time>2016-07-10T09:34:54.008Z</time>
      </trkpt>
      <trkpt lat="49.22613" lon="1.16002">
        <ele>16</ele>
        <time>2016-07-10T09:34:55.008Z</time>
      </trkpt>
      <trkpt lat="49.2261" lon="1.16011">
        <ele>18</ele>
        <time>2016-07-10T09:34:56.008Z</time>
      </trkpt>
      <trkpt lat="49.22608" lon="1.1602">
        <ele>18</ele>
        <time>2016-07-10T09:34:57.008Z</time>
      </trkpt>
      <trkpt lat="49.22606" lon="1.16028">
        <ele>18</ele>
        <time>2016-07-10T09:34:58.008Z</time>
      </trkpt>
      <trkpt lat="49.22603" lon="1.16036">
        <ele>18</ele>
        <time>2016-07-10T09:34:59.008Z</time>
      </trkpt>
      <trkpt lat="49.22601" lon="1.16044">
        <ele>17</ele>
        <time>2016-07-10T09:35:00.008Z</time>
      </trkpt>
      <trkpt lat="49.22598" lon="1.16052">
        <ele>17</ele>
        <time>2016-07-10T09:35:01.008Z</time>
      </trkpt>
      <trkpt lat="49.22596" lon="1.1606">
        <ele>17</ele>
        <time>2016-07-10T09:35:02.008Z</time>
      </trkpt>
      <trkpt lat="49.22593" lon="1.16069">
        <ele>17</ele>
        <time>2016-07-10T09:35:03.008Z</time>
      </trkpt>
      <trkpt lat="49.2259" lon="1.16077">
        <ele>17</ele>
        <time>2016-07-10T09:35:04.008Z</time>
      </trkpt>
      <trkpt lat="49.22587" lon="1.16085">
        <ele>17</ele>
        <time>2016-07-10T09:35:05.008Z</time>
      </trkpt>
      <trkpt lat="49.22583" lon="1.16093">
        <ele>18</ele>
        <time>2016-07-10T09:35:06.008Z</time>
      </trkpt>
      <trkpt lat="49.22579" lon="1.16101">
        <ele>17</ele>
        <time>2016-07-10T09:35:07.008Z</time>
      </trkpt>
      <trkpt lat="49.22575" lon="1.16108">
        <ele>17</ele>
        <time>2016-07-10T09:35:08.008Z</time>
      </trkpt>
      <trkpt lat="49.22572" lon="1.16116">
        <ele>17</ele>
        <time>2016-07-10T09:35:09.008Z</time>
      </trkpt>
      <trkpt lat="49.22567" lon="1.16123">
        <ele>17</ele>
        <time>2016-07-10T09:35:10.008Z</time>
      </trkpt>
      <trkpt lat="49.22563" lon="1.1613">
        <ele>18</ele>
        <time>2016-07-10T09:35:11.008Z</time>
      </trkpt>
      <trkpt lat="49.22559" lon="1.16137">
        <ele>18</ele>
        <time>2016-07-10T09:35:12.008Z</time>
      </trkpt>
      <trkpt lat="49.22554" lon="1.16143">
        <ele>18</ele>
        <time>2016-07-10T09:35:13.008Z</time>
      </trkpt>
      <trkpt lat="49.22549" lon="1.16148">
        <ele>19</ele>
        <time>2016-07-10T09:35:14.008Z</time>
      </trkpt>
      <trkpt lat="49.22543" lon="1.16153">
        <ele>19</ele>
        <time>2016-07-10T09:35:15.008Z</time>
      </trkpt>
      <trkpt lat="49.22538" lon="1.16158">
        <ele>19</ele>
        <time>2016-07-10T09:35:16.008Z</time>
      </trkpt>
      <trkpt lat="49.22532" lon="1.16162">
        <ele>19</ele>
        <time>2016-07-10T09:35:17.008Z</time>
      </trkpt>
      <trkpt lat="49.22527" lon="1.16167">
        <ele>19</ele>
        <time>2016-07-10T09:35:18.008Z</time>
      </trkpt>
      <trkpt lat="49.22522" lon="1.16172">
        <ele>19</ele>
        <time>2016-07-10T09:35:19.008Z</time>
      </trkpt>
      <trkpt lat="49.22517" lon="1.16177">
        <ele>19</ele>
        <time>2016-07-10T09:35:20.008Z</time>
      </trkpt>
      <trkpt lat="49.22511" lon="1.16181">
        <ele>19</ele>
        <time>2016-07-10T09:35:21.008Z</time>
      </trkpt>
      <trkpt lat="49.22506" lon="1.16186">
        <ele>19</ele>
        <time>2016-07-10T09:35:22.008Z</time>
      </trkpt>
      <trkpt lat="49.225" lon="1.16191">
        <ele>19</ele>
        <time>2016-07-10T09:35:23.008Z</time>
      </trkpt>
      <trkpt lat="49.22495" lon="1.16196">
        <ele>18</ele>
        <time>2016-07-10T09:35:24.008Z</time>
      </trkpt>
      <trkpt lat="49.22489" lon="1.162">
        <ele>18</ele>
        <time>2016-07-10T09:35:25.008Z</time>
      </trkpt>
      <trkpt lat="49.22483" lon="1.16205">
        <ele>18</ele>
        <time>2016-07-10T09:35:26.008Z</time>
      </trkpt>
      <trkpt lat="49.22478" lon="1.1621">
        <ele>18</ele>
        <time>2016-07-10T09:35:27.008Z</time>
      </trkpt>
      <trkpt lat="49.22472" lon="1.16215">
        <ele>18</ele>
        <time>2016-07-10T09:35:28.008Z</time>
      </trkpt>
      <trkpt lat="49.22467" lon="1.16219">
        <ele>18</ele>
        <time>2016-07-10T09:35:29.008Z</time>
      </trkpt>
      <trkpt lat="49.22461" lon="1.16224">
        <ele>18</ele>
        <time>2016-07-10T09:35:30.008Z</time>
      </trkpt>
      <trkpt lat="49.22456" lon="1.16229">
        <ele>18</ele>
        <time>2016-07-10T09:35:31.008Z</time>
      </trkpt>
      <trkpt lat="49.2245" lon="1.16234">
        <ele>18</ele>
        <time>2016-07-10T09:35:32.008Z</time>
      </trkpt>
      <trkpt lat="49.22445" lon="1.16238">
        <ele>18</ele>
        <time>2016-07-10T09:35:33.008Z</time>
      </trkpt>
      <trkpt lat="49.22439" lon="1.16243">
        <ele>18</ele>
        <time>2016-07-10T09:35:34.008Z</time>
      </trkpt>
      <trkpt lat="49.22434" lon="1.16248">
        <ele>18</ele>
        <time>2016-07-10T09:35:35.008Z</time>
      </trkpt>
      <trkpt lat="49.22429" lon="1.16252">
        <ele>18</ele>
        <time>2016-07-10T09:35:36.008Z</time>
      </trkpt>
      <trkpt lat="49.22424" lon="1.16257">
        <ele>18</ele>
        <time>2016-07-10T09:35:37.008Z</time>
      </trkpt>
      <trkpt lat="49.22419" lon="1.16262">
        <ele>18</ele>
        <time>2016-07-10T09:35:38.008Z</time>
      </trkpt>
      <trkpt lat="49.22414" lon="1.16267">
        <ele>19</ele>
        <time>2016-07-10T09:35:39.008Z</time>
      </trkpt>
      <trkpt lat="49.22409" lon="1.16272">
        <ele>19</ele>
        <time>2016-07-10T09:35:40.008Z</time>
      </trkpt>
      <trkpt lat="49.22404" lon="1.16277">
        <ele>19</ele>
        <time>2016-07-10T09:35:41.008Z</time>
      </trkpt>
      <trkpt lat="49.22399" lon="1.16282">
        <ele>19</ele>
        <time>2016-07-10T09:35:42.008Z</time>
      </trkpt>
      <trkpt lat="49.22394" lon="1.16287">
        <ele>19</ele>
        <time>2016-07-10T09:35:43.008Z</time>
      </trkpt>
      <trkpt lat="49.2239" lon="1.16292">
        <ele>19</ele>
        <time>2016-07-10T09:35:44.008Z</time>
      </trkpt>
      <trkpt lat="49.22385" lon="1.16298">
        <ele>19</ele>
        <time>2016-07-10T09:35:45.008Z</time>
      </trkpt>
      <trkpt lat="49.2238" lon="1.16303">
        <ele>19</ele>
        <time>2016-07-10T09:35:46.008Z</time>
      </trkpt>
      <trkpt lat="49.22375" lon="1.16309">
        <ele>20</ele>
        <time>2016-07-10T09:35:47.008Z</time>
      </trkpt>
      <trkpt lat="49.22371" lon="1.16315">
        <ele>19</ele>
        <time>2016-07-10T09:35:48.008Z</time>
      </trkpt>
      <trkpt lat="49.22366" lon="1.16321">
        <ele>20</ele>
        <time>2016-07-10T09:35:49.008Z</time>
      </trkpt>
      <trkpt lat="49.22362" lon="1.16327">
        <ele>20</ele>
        <time>2016-07-10T09:35:50.008Z</time>
      </trkpt>
      <trkpt lat="49.22358" lon="1.16333">
        <ele>20</ele>
        <time>2016-07-10T09:35:51.008Z</time>
      </trkpt>
      <trkpt lat="49.22354" lon="1.1634">
        <ele>20</ele>
        <time>2016-07-10T09:35:52.008Z</time>
      </trkpt>
      <trkpt lat="49.22349" lon="1.16346">
        <ele>20</ele>
        <time>2016-07-10T09:35:53.008Z</time>
      </trkpt>
      <trkpt lat="49.22345" lon="1.16353">
        <ele>19</ele>
        <time>2016-07-10T09:35:54.008Z</time>
      </trkpt>
      <trkpt lat="49.22341" lon="1.16359">
        <ele>19</ele>
        <time>2016-07-10T09:35:55.008Z</time>
      </trkpt>
      <trkpt lat="49.22337" lon="1.16365">
        <ele>19</ele>
        <time>2016-07-10T09:35:56.008Z</time>
      </trkpt>
      <trkpt lat="49.22333" lon="1.16371">
        <ele>19</ele>
        <time>2016-07-10T09:35:57.008Z</time>
      </trkpt>
      <trkpt lat="49.22329" lon="1.16378">
        <ele>19</ele>
        <time>2016-07-10T09:35:58.008Z</time>
      </trkpt>
      <trkpt lat="49.22325" lon="1.16384">
        <ele>19</ele>
        <time>2016-07-10T09:35:59.008Z</time>
      </trkpt>
      <trkpt lat="49.2232" lon="1.16391">
        <ele>19</ele>
        <time>2016-07-10T09:36:00.008Z</time>
      </trkpt>
      <trkpt lat="49.22316" lon="1.16397">
        <ele>19</ele>
        <time>2016-07-10T09:36:01.008Z</time>
      </trkpt>
      <trkpt lat="49.22312" lon="1.16404">
        <ele>19</ele>
        <time>2016-07-10T09:36:02.008Z</time>
      </trkpt>
      <trkpt lat="49.22308" lon="1.1641">
        <ele>19</ele>
        <time>2016-07-10T09:36:03.008Z</time>
      </trkpt>
      <trkpt lat="49.22304" lon="1.16417">
        <ele>18</ele>
        <time>2016-07-10T09:36:04.008Z</time>
      </trkpt>
      <trkpt lat="49.22299" lon="1.16424">
        <ele>18</ele>
        <time>2016-07-10T09:36:05.008Z</time>
      </trkpt>
      <trkpt lat="49.22295" lon="1.1643">
        <ele>18</ele>
        <time>2016-07-10T09:36:06.008Z</time>
      </trkpt>
      <trkpt lat="49.22291" lon="1.16437">
        <ele>18</ele>
        <time>2016-07-10T09:36:07.008Z</time>
      </trkpt>
      <trkpt lat="49.22286" lon="1.16444">
        <ele>18</ele>
        <time>2016-07-10T09:36:08.008Z</time>
      </trkpt>
      <trkpt lat="49.22282" lon="1.1645">
        <ele>18</ele>
        <time>2016-07-10T09:36:09.008Z</time>
      </trkpt>
      <trkpt lat="49.22278" lon="1.16457">
        <ele>18</ele>
        <time>2016-07-10T09:36:10.008Z</time>
      </trkpt>
      <trkpt lat="49.22273" lon="1.16463">
        <ele>18</ele>
        <time>2016-07-10T09:36:11.008Z</time>
      </trkpt>
      <trkpt lat="49.22269" lon="1.16469">
        <ele>18</ele>
        <time>2016-07-10T09:36:12.008Z</time>
      </trkpt>
      <trkpt lat="49.22264" lon="1.16475">
        <ele>18</ele>
        <time>2016-07-10T09:36:13.008Z</time>
      </trkpt>
      <trkpt lat="49.22259" lon="1.16481">
        <ele>19</ele>
        <time>2016-07-10T09:36:14.008Z</time>
      </trkpt>
      <trkpt lat="49.22255" lon="1.16487">
        <ele>19</ele>
        <time>2016-07-10T09:36:15.008Z</time>
      </trkpt>
      <trkpt lat="49.2225" lon="1.16492">
        <ele>19</ele>
        <time>2016-07-10T09:36:16.008Z</time>
      </trkpt>
      <trkpt lat="49.22245" lon="1.16497">
        <ele>19</ele>
        <time>2016-07-10T09:36:17.008Z</time>
      </trkpt>
      <trkpt lat="49.2224" lon="1.16503">
        <ele>19</ele>
        <time>2016-07-10T09:36:18.008Z</time>
      </trkpt>
      <trkpt lat="49.22234" lon="1.16508">
        <ele>19</ele>
        <time>2016-07-10T09:36:19.008Z</time>
      </trkpt>
      <trkpt lat="49.22229" lon="1.16513">
        <ele>19</ele>
        <time>2016-07-10T09:36:20.008Z</time>
      </trkpt>
      <trkpt lat="49.22224" lon="1.16517">
        <ele>18</ele>
        <time>2016-07-10T09:36:21.008Z</time>
      </trkpt>
      <trkpt lat="49.22219" lon="1.16522">
        <ele>18</ele>
        <time>2016-07-10T09:36:22.008Z</time>
      </trkpt>
      <trkpt lat="49.22214" lon="1.16527">
        <ele>18</ele>
        <time>2016-07-10T09:36:23.008Z</time>
      </trkpt>
      <trkpt lat="49.22208" lon="1.16531">
        <ele>18</ele>
        <time>2016-07-10T09:36:24.008Z</time>
      </trkpt>
      <trkpt lat="49.22203" lon="1.16536">
        <ele>18</ele>
        <time>2016-07-10T09:36:25.008Z</time>
      </trkpt>
      <trkpt lat="49.22198" lon="1.1654">
        <ele>18</ele>
        <time>2016-07-10T09:36:26.008Z</time>
      </trkpt>
      <trkpt lat="49.22193" lon="1.16544">
        <ele>18</ele>
        <time>2016-07-10T09:36:27.008Z</time>
      </trkpt>
      <trkpt lat="49.22188" lon="1.16548">
        <ele>18</ele>
        <time>2016-07-10T09:36:28.008Z</time>
      </trkpt>
      <trkpt lat="49.22183" lon="1.16552">
        <ele>18</ele>
        <time>2016-07-10T09:36:29.008Z</time>
      </trkpt>
      <trkpt lat="49.22178" lon="1.16557">
        <ele>18</ele>
        <time>2016-07-10T09:36:30.008Z</time>
      </trkpt>
      <trkpt lat="49.22173" lon="1.16561">
        <ele>18</ele>
        <time>2016-07-10T09:36:31.008Z</time>
      </trkpt>
      <trkpt lat="49.22168" lon="1.16565">
        <ele>17</ele>
        <time>2016-07-10T09:36:32.008Z</time>
      </trkpt>
      <trkpt lat="49.22162" lon="1.16568">
        <ele>17</ele>
        <time>2016-07-10T09:36:33.008Z</time>
      </trkpt>
      <trkpt lat="49.22157" lon="1.16571">
        <ele>17</ele>
        <time>2016-07-10T09:36:34.008Z</time>
      </trkpt>
      <trkpt lat="49.22152" lon="1.16574">
        <ele>17</ele>
        <time>2016-07-10T09:36:35.008Z</time>
      </trkpt>
      <trkpt lat="49.22146" lon="1.16578">
        <ele>17</ele>
        <time>2016-07-10T09:36:36.008Z</time>
      </trkpt>
      <trkpt lat="49.22141" lon="1.16581">
        <ele>17</ele>
        <time>2016-07-10T09:36:37.008Z</time>
      </trkpt>
      <trkpt lat="49.22136" lon="1.16584">
        <ele>16</ele>
        <time>2016-07-10T09:36:38.008Z</time>
      </trkpt>
      <trkpt lat="49.2213" lon="1.16587">
        <ele>16</ele>
        <time>2016-07-10T09:36:39.008Z</time>
      </trkpt>
      <trkpt lat="49.22125" lon="1.1659">
        <ele>16</ele>
        <time>2016-07-10T09:36:40.008Z</time>
      </trkpt>
      <trkpt lat="49.22119" lon="1.16594">
        <ele>16</ele>
        <time>2016-07-10T09:36:41.008Z</time>
      </trkpt>
      <trkpt lat="49.22114" lon="1.16597">
        <ele>15</ele>
        <time>2016-07-10T09:36:42.008Z</time>
      </trkpt>
      <trkpt lat="49.22108" lon="1.166">
        <ele>15</ele>
        <time>2016-07-10T09:36:43.008Z</time>
      </trkpt>
      <trkpt lat="49.22103" lon="1.16604">
        <ele>15</ele>
        <time>2016-07-10T09:36:44.008Z</time>
      </trkpt>
      <trkpt lat="49.22097" lon="1.16607">
        <ele>15</ele>
        <time>2016-07-10T09:36:45.008Z</time>
      </trkpt>
      <trkpt lat="49.22092" lon="1.1661">
        <ele>16</ele>
        <time>2016-07-10T09:36:46.008Z</time>
      </trkpt>
      <trkpt lat="49.22087" lon="1.16613">
        <ele>16</ele>
        <time>2016-07-10T09:36:47.008Z</time>
      </trkpt>
      <trkpt lat="49.22081" lon="1.16617">
        <ele>16</ele>
        <time>2016-07-10T09:36:48.008Z</time>
      </trkpt>
      <trkpt lat="49.22076" lon="1.16621">
        <ele>17</ele>
        <time>2016-07-10T09:36:49.008Z</time>
      </trkpt>
      <trkpt lat="49.2207" lon="1.16624">
        <ele>17</ele>
        <time>2016-07-10T09:36:50.008Z</time>
      </trkpt>
      <trkpt lat="49.22065" lon="1.16628">
        <ele>16</ele>
        <time>2016-07-10T09:36:51.008Z</time>
      </trkpt>
      <trkpt lat="49.22059" lon="1.16631">
        <ele>17</ele>
        <time>2016-07-10T09:36:52.008Z</time>
      </trkpt>
      <trkpt lat="49.22054" lon="1.16634">
        <ele>16</ele>
        <time>2016-07-10T09:36:53.008Z</time>
      </trkpt>
      <trkpt lat="49.22048" lon="1.16637">
        <ele>16</ele>
        <time>2016-07-10T09:36:54.008Z</time>
      </trkpt>
      <trkpt lat="49.22043" lon="1.1664">
        <ele>16</ele>
        <time>2016-07-10T09:36:55.008Z</time>
      </trkpt>
      <trkpt lat="49.22037" lon="1.16642">
        <ele>16</ele>
        <time>2016-07-10T09:36:56.008Z</time>
      </trkpt>
      <trkpt lat="49.22032" lon="1.16643">
        <ele>17</ele>
        <time>2016-07-10T09:36:57.008Z</time>
      </trkpt>
      <trkpt lat="49.22026" lon="1.16644">
        <ele>17</ele>
        <time>2016-07-10T09:36:58.008Z</time>
      </trkpt>
      <trkpt lat="49.2202" lon="1.16644">
        <ele>17</ele>
        <time>2016-07-10T09:36:59.008Z</time>
      </trkpt>
      <trkpt lat="49.22014" lon="1.16644">
        <ele>17</ele>
        <time>2016-07-10T09:37:00.008Z</time>
      </trkpt>
      <trkpt lat="49.22008" lon="1.16643">
        <ele>17</ele>
        <time>2016-07-10T09:37:01.008Z</time>
      </trkpt>
      <trkpt lat="49.22002" lon="1.16643">
        <ele>17</ele>
        <time>2016-07-10T09:37:02.008Z</time>
      </trkpt>
      <trkpt lat="49.21996" lon="1.16642">
        <ele>17</ele>
        <time>2016-07-10T09:37:03.008Z</time>
      </trkpt>
      <trkpt lat="49.2199" lon="1.16642">
        <ele>17</ele>
        <time>2016-07-10T09:37:04.008Z</time>
      </trkpt>
      <trkpt lat="49.21984" lon="1.16642">
        <ele>16</ele>
        <time>2016-07-10T09:37:05.008Z</time>
      </trkpt>
      <trkpt lat="49.21979" lon="1.16641">
        <ele>16</ele>
        <time>2016-07-10T09:37:06.008Z</time>
      </trkpt>
      <trkpt lat="49.21973" lon="1.16641">
        <ele>16</ele>
        <time>2016-07-10T09:37:07.008Z</time>
      </trkpt>
      <trkpt lat="49.21968" lon="1.16641">
        <ele>15</ele>
        <time>2016-07-10T09:37:08.008Z</time>
      </trkpt>
      <trkpt lat="49.21963" lon="1.16641">
        <ele>15</ele>
        <time>2016-07-10T09:37:09.008Z</time>
      </trkpt>
      <trkpt lat="49.21959" lon="1.1664">
        <ele>15</ele>
        <time>2016-07-10T09:37:10.008Z</time>
      </trkpt>
      <trkpt lat="49.21955" lon="1.1664">
        <ele>15</ele>
        <time>2016-07-10T09:37:11.008Z</time>
      </trkpt>
      <trkpt lat="49.21951" lon="1.1664">
        <ele>14</ele>
        <time>2016-07-10T09:37:12.008Z</time>
      </trkpt>
      <trkpt lat="49.21948" lon="1.1664">
        <ele>14</ele>
        <time>2016-07-10T09:37:13.008Z</time>
      </trkpt>
      <trkpt lat="49.21946" lon="1.1664">
        <ele>13</ele>
        <time>2016-07-10T09:37:14.008Z</time>
      </trkpt>
      <trkpt lat="49.21944" lon="1.1664">
        <ele>13</ele>
        <time>2016-07-10T09:37:15.008Z</time>
      </trkpt>
      <trkpt lat="49.21943" lon="1.1664">
        <ele>14</ele>
        <time>2016-07-10T09:37:16.008Z</time>
      </trkpt>
      <trkpt lat="49.21942" lon="1.1664">
        <ele>14</ele>
        <time>2016-07-10T09:37:17.008Z</time>
      </trkpt>
      <trkpt lat="49.21941" lon="1.16639">
        <ele>13</ele>
        <time>2016-07-10T09:37:18.008Z</time>
      </trkpt>
      <trkpt lat="49.21941" lon="1.16639">
        <ele>13</ele>
        <time>2016-07-10T09:37:19.008Z</time>
      </trkpt>
      <trkpt lat="49.21941" lon="1.16638">
        <ele>12</ele>
        <time>2016-07-10T09:37:20.008Z</time>
      </trkpt>
      <trkpt lat="49.21941" lon="1.16638">
        <ele>13</ele>
        <time>2016-07-10T09:37:21.008Z</time>
      </trkpt>
      <trkpt lat="49.21941" lon="1.16638">
        <ele>13</ele>
        <time>2016-07-10T09:37:22.008Z</time>
      </trkpt>
      <trkpt lat="49.21941" lon="1.16638">
        <ele>15</ele>
        <time>2016-07-10T09:37:23.008Z</time>
      </trkpt>
      <trkpt lat="49.21941" lon="1.16639">
        <ele>15</ele>
        <time>2016-07-10T09:37:24.008Z</time>
      </trkpt>
      <trkpt lat="49.2194" lon="1.16639">
        <ele>15</ele>
        <time>2016-07-10T09:37:25.008Z</time>
      </trkpt>
      <trkpt lat="49.2194" lon="1.16639">
        <ele>15</ele>
        <time>2016-07-10T09:37:26.008Z</time>
      </trkpt>
      <trkpt lat="49.2194" lon="1.1664">
        <ele>16</ele>
        <time>2016-07-10T09:37:27.008Z</time>
      </trkpt>
      <trkpt lat="49.21939" lon="1.1664">
        <ele>17</ele>
        <time>2016-07-10T09:37:28.008Z</time>
      </trkpt>
      <trkpt lat="49.21937" lon="1.16641">
        <ele>18</ele>
        <time>2016-07-10T09:37:29.008Z</time>
      </trkpt>
      <trkpt lat="49.21936" lon="1.16641">
        <ele>18</ele>
        <time>2016-07-10T09:37:30.008Z</time>
      </trkpt>
      <trkpt lat="49.21934" lon="1.16642">
        <ele>17</ele>
        <time>2016-07-10T09:37:31.008Z</time>
      </trkpt>
      <trkpt lat="49.21931" lon="1.16642">
        <ele>17</ele>
        <time>2016-07-10T09:37:32.008Z</time>
      </trkpt>
      <trkpt lat="49.21928" lon="1.16641">
        <ele>16</ele>
        <time>2016-07-10T09:37:33.008Z</time>
      </trkpt>
      <trkpt lat="49.21925" lon="1.1664">
        <ele>16</ele>
        <time>2016-07-10T09:37:34.008Z</time>
      </trkpt>
      <trkpt lat="49.21921" lon="1.1664">
        <ele>17</ele>
        <time>2016-07-10T09:37:35.008Z</time>
      </trkpt>
      <trkpt lat="49.21916" lon="1.16641">
        <ele>18</ele>
        <time>2016-07-10T09:37:36.008Z</time>
      </trkpt>
      <trkpt lat="49.21911" lon="1.16642">
        <ele>19</ele>
        <time>2016-07-10T09:37:37.008Z</time>
      </trkpt>
      <trkpt lat="49.21905" lon="1.16642">
        <ele>18</ele>
        <time>2016-07-10T09:37:38.008Z</time>
      </trkpt>
      <trkpt lat="49.21899" lon="1.16643">
        <ele>17</ele>
        <time>2016-07-10T09:37:39.008Z</time>
      </trkpt>
      <trkpt lat="49.21893" lon="1.16645">
        <ele>17</ele>
        <time>2016-07-10T09:37:40.008Z</time>
      </trkpt>
      <trkpt lat="49.21888" lon="1.16647">
        <ele>17</ele>
        <time>2016-07-10T09:37:41.008Z</time>
      </trkpt>
      <trkpt lat="49.21883" lon="1.1665">
        <ele>17</ele>
        <time>2016-07-10T09:37:42.008Z</time>
      </trkpt>
      <trkpt lat="49.21878" lon="1.16653">
        <ele>16</ele>
        <time>2016-07-10T09:37:43.008Z</time>
      </trkpt>
      <trkpt lat="49.21872" lon="1.16656">
        <ele>16</ele>
        <time>2016-07-10T09:37:44.008Z</time>
      </trkpt>
      <trkpt lat="49.21867" lon="1.16659">
        <ele>16</ele>
        <time>2016-07-10T09:37:45.008Z</time>
      </trkpt>
      <trkpt lat="49.21861" lon="1.16661">
        <ele>17</ele>
        <time>2016-07-10T09:37:46.008Z</time>
      </trkpt>
      <trkpt lat="49.21855" lon="1.16663">
        <ele>17</ele>
        <time>2016-07-10T09:37:47.008Z</time>
      </trkpt>
      <trkpt lat="49.21849" lon="1.16665">
        <ele>17</ele>
        <time>2016-07-10T09:37:48.008Z</time>
      </trkpt>
      <trkpt lat="49.21844" lon="1.16667">
        <ele>17</ele>
        <time>2016-07-10T09:37:49.008Z</time>
      </trkpt>
      <trkpt lat="49.21838" lon="1.16669">
        <ele>17</ele>
        <time>2016-07-10T09:37:50.008Z</time>
      </trkpt>
      <trkpt lat="49.21833" lon="1.16671">
        <ele>17</ele>
        <time>2016-07-10T09:37:51.008Z</time>
      </trkpt>
      <trkpt lat="49.21827" lon="1.16674">
        <ele>17</ele>
        <time>2016-07-10T09:37:52.008Z</time>
      </trkpt>
      <trkpt lat="49.21822" lon="1.16676">
        <ele>17</ele>
        <time>2016-07-10T09:37:53.008Z</time>
      </trkpt>
      <trkpt lat="49.21817" lon="1.16679">
        <ele>17</ele>
        <time>2016-07-10T09:37:54.008Z</time>
      </trkpt>
      <trkpt lat="49.21811" lon="1.16682">
        <ele>18</ele>
        <time>2016-07-10T09:37:55.008Z</time>
      </trkpt>
      <trkpt lat="49.21806" lon="1.16685">
        <ele>17</ele>
        <time>2016-07-10T09:37:56.008Z</time>
      </trkpt>
      <trkpt lat="49.21801" lon="1.16689">
        <ele>17</ele>
        <time>2016-07-10T09:37:57.008Z</time>
      </trkpt>
      <trkpt lat="49.21796" lon="1.16692">
        <ele>17</ele>
        <time>2016-07-10T09:37:58.008Z</time>
      </trkpt>
      <trkpt lat="49.21791" lon="1.16695">
        <ele>17</ele>
        <time>2016-07-10T09:37:59.008Z</time>
      </trkpt>
      <trkpt lat="49.21786" lon="1.16698">
        <ele>16</ele>
        <time>2016-07-10T09:38:00.008Z</time>
      </trkpt>
      <trkpt lat="49.2178" lon="1.16701">
        <ele>17</ele>
        <time>2016-07-10T09:38:01.008Z</time>
      </trkpt>
      <trkpt lat="49.21775" lon="1.16704">
        <ele>17</ele>
        <time>2016-07-10T09:38:02.008Z</time>
      </trkpt>
      <trkpt lat="49.2177" lon="1.16707">
        <ele>17</ele>
        <time>2016-07-10T09:38:03.008Z</time>
      </trkpt>
      <trkpt lat="49.21764" lon="1.1671">
        <ele>17</ele>
        <time>2016-07-10T09:38:04.008Z</time>
      </trkpt>
      <trkpt lat="49.21759" lon="1.16713">
        <ele>18</ele>
        <time>2016-07-10T09:38:05.008Z</time>
      </trkpt>
      <trkpt lat="49.21753" lon="1.16716">
        <ele>18</ele>
        <time>2016-07-10T09:38:06.008Z</time>
      </trkpt>
      <trkpt lat="49.21748" lon="1.16719">
        <ele>18</ele>
        <time>2016-07-10T09:38:07.008Z</time>
      </trkpt>
      <trkpt lat="49.21742" lon="1.16723">
        <ele>18</ele>
        <time>2016-07-10T09:38:08.008Z</time>
      </trkpt>
      <trkpt lat="49.21737" lon="1.16726">
        <ele>18</ele>
        <time>2016-07-10T09:38:09.008Z</time>
      </trkpt>
      <trkpt lat="49.21732" lon="1.16729">
        <ele>18</ele>
        <time>2016-07-10T09:38:10.008Z</time>
      </trkpt>
      <trkpt lat="49.21727" lon="1.16732">
        <ele>18</ele>
        <time>2016-07-10T09:38:11.008Z</time>
      </trkpt>
      <trkpt lat="49.21721" lon="1.16735">
        <ele>18</ele>
        <time>2016-07-10T09:38:12.008Z</time>
      </trkpt>
      <trkpt lat="49.21716" lon="1.16738">
        <ele>17</ele>
        <time>2016-07-10T09:38:13.008Z</time>
      </trkpt>
      <trkpt lat="49.21711" lon="1.16741">
        <ele>17</ele>
        <time>2016-07-10T09:38:14.008Z</time>
      </trkpt>
      <trkpt lat="49.21706" lon="1.16744">
        <ele>17</ele>
        <time>2016-07-10T09:38:15.008Z</time>
      </trkpt>
      <trkpt lat="49.217" lon="1.16747">
        <ele>17</ele>
        <time>2016-07-10T09:38:16.008Z</time>
      </trkpt>
      <trkpt lat="49.21695" lon="1.1675">
        <ele>18</ele>
        <time>2016-07-10T09:38:17.008Z</time>
      </trkpt>
      <trkpt lat="49.2169" lon="1.16753">
        <ele>18</ele>
        <time>2016-07-10T09:38:18.008Z</time>
      </trkpt>
      <trkpt lat="49.21684" lon="1.16756">
        <ele>18</ele>
        <time>2016-07-10T09:38:19.008Z</time>
      </trkpt>
      <trkpt lat="49.21679" lon="1.16759">
        <ele>18</ele>
        <time>2016-07-10T09:38:20.008Z</time>
      </trkpt>
      <trkpt lat="49.21674" lon="1.16763">
        <ele>19</ele>
        <time>2016-07-10T09:38:21.008Z</time>
      </trkpt>
      <trkpt lat="49.21668" lon="1.16766">
        <ele>19</ele>
        <time>2016-07-10T09:38:22.008Z</time>
      </trkpt>
      <trkpt lat="49.21663" lon="1.16769">
        <ele>19</ele>
        <time>2016-07-10T09:38:23.008Z</time>
      </trkpt>
      <trkpt lat="49.21657" lon="1.16772">
        <ele>18</ele>
        <time>2016-07-10T09:38:24.008Z</time>
      </trkpt>
      <trkpt lat="49.21652" lon="1.16775">
        <ele>18</ele>
        <time>2016-07-10T09:38:25.008Z</time>
      </trkpt>
      <trkpt lat="49.21647" lon="1.16778">
        <ele>18</ele>
        <time>2016-07-10T09:38:26.008Z</time>
      </trkpt>
      <trkpt lat="49.21641" lon="1.16781">
        <ele>18</ele>
        <time>2016-07-10T09:38:27.008Z</time>
      </trkpt>
      <trkpt lat="49.21636" lon="1.16784">
        <ele>18</ele>
        <time>2016-07-10T09:38:28.008Z</time>
      </trkpt>
      <trkpt lat="49.21631" lon="1.16788">
        <ele>18</ele>
        <time>2016-07-10T09:38:29.008Z</time>
      </trkpt>
      <trkpt lat="49.21626" lon="1.16791">
        <ele>18</ele>
        <time>2016-07-10T09:38:30.008Z</time>
      </trkpt>
      <trkpt lat="49.21621" lon="1.16794">
        <ele>18</ele>
        <time>2016-07-10T09:38:31.008Z</time>
      </trkpt>
      <trkpt lat="49.21616" lon="1.16797">
        <ele>19</ele>
        <time>2016-07-10T09:38:32.008Z</time>
      </trkpt>
      <trkpt lat="49.21611" lon="1.16801">
        <ele>19</ele>
        <time>2016-07-10T09:38:33.008Z</time>
      </trkpt>
      <trkpt lat="49.21606" lon="1.16804">
        <ele>19</ele>
        <time>2016-07-10T09:38:34.008Z</time>
      </trkpt>
      <trkpt lat="49.21602" lon="1.16807">
        <ele>19</ele>
        <time>2016-07-10T09:38:35.008Z</time>
      </trkpt>
      <trkpt lat="49.21597" lon="1.1681">
        <ele>19</ele>
        <time>2016-07-10T09:38:36.008Z</time>
      </trkpt>
      <trkpt lat="49.21592" lon="1.16813">
        <ele>19</ele>
        <time>2016-07-10T09:38:37.008Z</time>
      </trkpt>
      <trkpt lat="49.21587" lon="1.16816">
        <ele>19</ele>
        <time>2016-07-10T09:38:38.008Z</time>
      </trkpt>
      <trkpt lat="49.21582" lon="1.16819">
        <ele>20</ele>
        <time>2016-07-10T09:38:39.008Z</time>
      </trkpt>
      <trkpt lat="49.21578" lon="1.16822">
        <ele>20</ele>
        <time>2016-07-10T09:38:40.008Z</time>
      </trkpt>
      <trkpt lat="49.21573" lon="1.16824">
        <ele>20</ele>
        <time>2016-07-10T09:38:41.008Z</time>
      </trkpt>
      <trkpt lat="49.2157" lon="1.16825">
        <ele>20</ele>
        <time>2016-07-10T09:38:42.008Z</time>
      </trkpt>
      <trkpt lat="49.21566" lon="1.16825">
        <ele>17</ele>
        <time>2016-07-10T09:38:43.008Z</time>
      </trkpt>
      <trkpt lat="49.21562" lon="1.16823">
        <ele>18</ele>
        <time>2016-07-10T09:38:44.008Z</time>
      </trkpt>
      <trkpt lat="49.21557" lon="1.16821">
        <ele>18</ele>
        <time>2016-07-10T09:38:45.008Z</time>
      </trkpt>
      <trkpt lat="49.21552" lon="1.16818">
        <ele>19</ele>
        <time>2016-07-10T09:38:46.008Z</time>
      </trkpt>
      <trkpt lat="49.21547" lon="1.16817">
        <ele>20</ele>
        <time>2016-07-10T09:38:47.008Z</time>
      </trkpt>
      <trkpt lat="49.21541" lon="1.16816">
        <ele>20</ele>
        <time>2016-07-10T09:38:48.008Z</time>
      </trkpt>
      <trkpt lat="49.21536" lon="1.16816">
        <ele>20</ele>
        <time>2016-07-10T09:38:49.008Z</time>
      </trkpt>
      <trkpt lat="49.21531" lon="1.16817">
        <ele>20</ele>
        <time>2016-07-10T09:38:50.008Z</time>
      </trkpt>
      <trkpt lat="49.21526" lon="1.16819">
        <ele>20</ele>
        <time>2016-07-10T09:38:51.008Z</time>
      </trkpt>
      <trkpt lat="49.21521" lon="1.16822">
        <ele>20</ele>
        <time>2016-07-10T09:38:52.008Z</time>
      </trkpt>
      <trkpt lat="49.21516" lon="1.16825">
        <ele>20</ele>
        <time>2016-07-10T09:38:53.008Z</time>
      </trkpt>
      <trkpt lat="49.21511" lon="1.16829">
        <ele>20</ele>
        <time>2016-07-10T09:38:54.008Z</time>
      </trkpt>
      <trkpt lat="49.21506" lon="1.16834">
        <ele>20</ele>
        <time>2016-07-10T09:38:55.008Z</time>
      </trkpt>
      <trkpt lat="49.21501" lon="1.16839">
        <ele>20</ele>
        <time>2016-07-10T09:38:56.008Z</time>
      </trkpt>
      <trkpt lat="49.21497" lon="1.16846">
        <ele>20</ele>
        <time>2016-07-10T09:38:57.008Z</time>
      </trkpt>
      <trkpt lat="49.21493" lon="1.16853">
        <ele>20</ele>
        <time>2016-07-10T09:38:58.008Z</time>
      </trkpt>
      <trkpt lat="49.21491" lon="1.16861">
        <ele>20</ele>
        <time>2016-07-10T09:38:59.008Z</time>
      </trkpt>
      <trkpt lat="49.21488" lon="1.1687">
        <ele>20</ele>
        <time>2016-07-10T09:39:00.008Z</time>
      </trkpt>
      <trkpt lat="49.21485" lon="1.16878">
        <ele>20</ele>
        <time>2016-07-10T09:39:01.008Z</time>
      </trkpt>
      <trkpt lat="49.21483" lon="1.16886">
        <ele>20</ele>
        <time>2016-07-10T09:39:02.008Z</time>
      </trkpt>
      <trkpt lat="49.2148" lon="1.16893">
        <ele>20</ele>
        <time>2016-07-10T09:39:03.008Z</time>
      </trkpt>
      <trkpt lat="49.21476" lon="1.169">
        <ele>19</ele>
        <time>2016-07-10T09:39:04.008Z</time>
      </trkpt>
      <trkpt lat="49.21473" lon="1.16905">
        <ele>19</ele>
        <time>2016-07-10T09:39:05.008Z</time>
      </trkpt>
      <trkpt lat="49.21469" lon="1.16909">
        <ele>18</ele>
        <time>2016-07-10T09:39:06.008Z</time>
      </trkpt>
      <trkpt lat="49.21465" lon="1.16912">
        <ele>18</ele>
        <time>2016-07-10T09:39:07.008Z</time>
      </trkpt>
      <trkpt lat="49.21461" lon="1.16915">
        <ele>17</ele>
        <time>2016-07-10T09:39:08.008Z</time>
      </trkpt>
      <trkpt lat="49.21457" lon="1.16917">
        <ele>16</ele>
        <time>2016-07-10T09:39:09.008Z</time>
      </trkpt>
      <trkpt lat="49.21453" lon="1.1692">
        <ele>16</ele>
        <time>2016-07-10T09:39:10.008Z</time>
      </trkpt>
      <trkpt lat="49.21449" lon="1.16922">
        <ele>15</ele>
        <time>2016-07-10T09:39:11.008Z</time>
      </trkpt>
      <trkpt lat="49.21445" lon="1.16924">
        <ele>15</ele>
        <time>2016-07-10T09:39:12.008Z</time>
      </trkpt>
      <trkpt lat="49.21441" lon="1.16926">
        <ele>14</ele>
        <time>2016-07-10T09:39:13.008Z</time>
      </trkpt>
      <trkpt lat="49.21437" lon="1.16929">
        <ele>14</ele>
        <time>2016-07-10T09:39:14.008Z</time>
      </trkpt>
      <trkpt lat="49.21432" lon="1.16931">
        <ele>14</ele>
        <time>2016-07-10T09:39:15.008Z</time>
      </trkpt>
      <trkpt lat="49.21427" lon="1.16933">
        <ele>14</ele>
        <time>2016-07-10T09:39:16.008Z</time>
      </trkpt>
      <trkpt lat="49.21423" lon="1.16935">
        <ele>14</ele>
        <time>2016-07-10T09:39:17.008Z</time>
      </trkpt>
      <trkpt lat="49.21418" lon="1.16937">
        <ele>13</ele>
        <time>2016-07-10T09:39:18.008Z</time>
      </trkpt>
      <trkpt lat="49.21414" lon="1.16939">
        <ele>13</ele>
        <time>2016-07-10T09:39:19.008Z</time>
      </trkpt>
      <trkpt lat="49.21409" lon="1.16941">
        <ele>13</ele>
        <time>2016-07-10T09:39:20.008Z</time>
      </trkpt>
      <trkpt lat="49.21405" lon="1.16943">
        <ele>13</ele>
        <time>2016-07-10T09:39:21.008Z</time>
      </trkpt>
      <trkpt lat="49.214" lon="1.16944">
        <ele>15</ele>
        <time>2016-07-10T09:39:22.008Z</time>
      </trkpt>
      <trkpt lat="49.21395" lon="1.16945">
        <ele>15</ele>
        <time>2016-07-10T09:39:23.008Z</time>
      </trkpt>
      <trkpt lat="49.2139" lon="1.16947">
        <ele>15</ele>
        <time>2016-07-10T09:39:24.008Z</time>
      </trkpt>
      <trkpt lat="49.21384" lon="1.16948">
        <ele>15</ele>
        <time>2016-07-10T09:39:25.008Z</time>
      </trkpt>
      <trkpt lat="49.2138" lon="1.16949">
        <ele>14</ele>
        <time>2016-07-10T09:39:26.008Z</time>
      </trkpt>
      <trkpt lat="49.21375" lon="1.1695">
        <ele>15</ele>
        <time>2016-07-10T09:39:27.008Z</time>
      </trkpt>
      <trkpt lat="49.21371" lon="1.1695">
        <ele>14</ele>
        <time>2016-07-10T09:39:28.008Z</time>
      </trkpt>
      <trkpt lat="49.21367" lon="1.16951">
        <ele>14</ele>
        <time>2016-07-10T09:39:29.008Z</time>
      </trkpt>
      <trkpt lat="49.21363" lon="1.16952">
        <ele>14</ele>
        <time>2016-07-10T09:39:30.008Z</time>
      </trkpt>
      <trkpt lat="49.21359" lon="1.16953">
        <ele>13</ele>
        <time>2016-07-10T09:39:31.008Z</time>
      </trkpt>
      <trkpt lat="49.21355" lon="1.16954">
        <ele>10</ele>
        <time>2016-07-10T09:39:32.008Z</time>
      </trkpt>
      <trkpt lat="49.21351" lon="1.16955">
        <ele>10</ele>
        <time>2016-07-10T09:39:33.008Z</time>
      </trkpt>
      <trkpt lat="49.21347" lon="1.16957">
        <ele>9</ele>
        <time>2016-07-10T09:39:34.008Z</time>
      </trkpt>
      <trkpt lat="49.21343" lon="1.16958">
        <ele>9</ele>
        <time>2016-07-10T09:39:35.008Z</time>
      </trkpt>
      <trkpt lat="49.21339" lon="1.16959">
        <ele>9</ele>
        <time>2016-07-10T09:39:36.008Z</time>
      </trkpt>
      <trkpt lat="49.21335" lon="1.1696">
        <ele>9</ele>
        <time>2016-07-10T09:39:37.008Z</time>
      </trkpt>
      <trkpt lat="49.21332" lon="1.16961">
        <ele>9</ele>
        <time>2016-07-10T09:39:38.008Z</time>
      </trkpt>
      <trkpt lat="49.21329" lon="1.16962">
        <ele>11</ele>
        <time>2016-07-10T09:39:39.008Z</time>
      </trkpt>
      <trkpt lat="49.21327" lon="1.16962">
        <ele>12</ele>
        <time>2016-07-10T09:39:40.008Z</time>
      </trkpt>
      <trkpt lat="49.21325" lon="1.16962">
        <ele>12</ele>
        <time>2016-07-10T09:39:41.008Z</time>
      </trkpt>
      <trkpt lat="49.21324" lon="1.16962">
        <ele>14</ele>
        <time>2016-07-10T09:39:42.008Z</time>
      </trkpt>
      <trkpt lat="49.21322" lon="1.16962">
        <ele>15</ele>
        <time>2016-07-10T09:39:43.008Z</time>
      </trkpt>
      <trkpt lat="49.2132" lon="1.16963">
        <ele>16</ele>
        <time>2016-07-10T09:39:44.008Z</time>
      </trkpt>
      <trkpt lat="49.21317" lon="1.16963">
        <ele>16</ele>
        <time>2016-07-10T09:39:45.008Z</time>
      </trkpt>
      <trkpt lat="49.21315" lon="1.16964">
        <ele>17</ele>
        <time>2016-07-10T09:39:46.008Z</time>
      </trkpt>
      <trkpt lat="49.21311" lon="1.16964">
        <ele>18</ele>
        <time>2016-07-10T09:39:47.008Z</time>
      </trkpt>
      <trkpt lat="49.21308" lon="1.16965">
        <ele>18</ele>
        <time>2016-07-10T09:39:48.008Z</time>
      </trkpt>
      <trkpt lat="49.21305" lon="1.16966">
        <ele>18</ele>
        <time>2016-07-10T09:39:49.008Z</time>
      </trkpt>
      <trkpt lat="49.21301" lon="1.16966">
        <ele>18</ele>
        <time>2016-07-10T09:39:50.008Z</time>
      </trkpt>
      <trkpt lat="49.21298" lon="1.16967">
        <ele>17</ele>
        <time>2016-07-10T09:39:51.008Z</time>
      </trkpt>
      <trkpt lat="49.21295" lon="1.16968">
        <ele>16</ele>
        <time>2016-07-10T09:39:52.008Z</time>
      </trkpt>
      <trkpt lat="49.21293" lon="1.16969">
        <ele>17</ele>
        <time>2016-07-10T09:39:53.008Z</time>
      </trkpt>
      <trkpt lat="49.2129" lon="1.16969">
        <ele>17</ele>
        <time>2016-07-10T09:39:54.008Z</time>
      </trkpt>
      <trkpt lat="49.21288" lon="1.1697">
        <ele>18</ele>
        <time>2016-07-10T09:39:55.008Z</time>
      </trkpt>
      <trkpt lat="49.21286" lon="1.16971">
        <ele>17</ele>
        <time>2016-07-10T09:39:56.008Z</time>
      </trkpt>
      <trkpt lat="49.21283" lon="1.16973">
        <ele>16</ele>
        <time>2016-07-10T09:39:57.008Z</time>
      </trkpt>
      <trkpt lat="49.21281" lon="1.16974">
        <ele>16</ele>
        <time>2016-07-10T09:39:58.008Z</time>
      </trkpt>
      <trkpt lat="49.21278" lon="1.16976">
        <ele>15</ele>
        <time>2016-07-10T09:39:59.008Z</time>
      </trkpt>
      <trkpt lat="49.21276" lon="1.16977">
        <ele>15</ele>
        <time>2016-07-10T09:40:00.008Z</time>
      </trkpt>
      <trkpt lat="49.21273" lon="1.16979">
        <ele>15</ele>
        <time>2016-07-10T09:40:01.008Z</time>
      </trkpt>
      <trkpt lat="49.21271" lon="1.16981">
        <ele>15</ele>
        <time>2016-07-10T09:40:02.008Z</time>
      </trkpt>
      <trkpt lat="49.21268" lon="1.16983">
        <ele>15</ele>
        <time>2016-07-10T09:40:03.008Z</time>
      </trkpt>
      <trkpt lat="49.21265" lon="1.16985">
        <ele>14</ele>
        <time>2016-07-10T09:40:04.008Z</time>
      </trkpt>
      <trkpt lat="49.21263" lon="1.16987">
        <ele>13</ele>
        <time>2016-07-10T09:40:05.008Z</time>
      </trkpt>
      <trkpt lat="49.2126" lon="1.16989">
        <ele>12</ele>
        <time>2016-07-10T09:40:06.008Z</time>
      </trkpt>
      <trkpt lat="49.21258" lon="1.16991">
        <ele>10</ele>
        <time>2016-07-10T09:40:07.008Z</time>
      </trkpt>
      <trkpt lat="49.21256" lon="1.16993">
        <ele>9</ele>
        <time>2016-07-10T09:40:08.008Z</time>
      </trkpt>
      <trkpt lat="49.21253" lon="1.16995">
        <ele>9</ele>
        <time>2016-07-10T09:40:09.008Z</time>
      </trkpt>
      <trkpt lat="49.21251" lon="1.16996">
        <ele>8</ele>
        <time>2016-07-10T09:40:10.008Z</time>
      </trkpt>
      <trkpt lat="49.2125" lon="1.16997">
        <ele>10</ele>
        <time>2016-07-10T09:40:11.008Z</time>
      </trkpt>
      <trkpt lat="49.21248" lon="1.16998">
        <ele>10</ele>
        <time>2016-07-10T09:40:12.008Z</time>
      </trkpt>
      <trkpt lat="49.21247" lon="1.16999">
        <ele>11</ele>
        <time>2016-07-10T09:40:13.008Z</time>
      </trkpt>
      <trkpt lat="49.21247" lon="1.16999">
        <ele>11</ele>
        <time>2016-07-10T09:40:14.008Z</time>
      </trkpt>
      <trkpt lat="49.21247" lon="1.17">
        <ele>11</ele>
        <time>2016-07-10T09:40:15.008Z</time>
      </trkpt>
      <trkpt lat="49.21247" lon="1.17">
        <ele>11</ele>
        <time>2016-07-10T09:40:16.008Z</time>
      </trkpt>
      <trkpt lat="49.21247" lon="1.17">
        <ele>11</ele>
        <time>2016-07-10T09:40:17.008Z</time>
      </trkpt>
      <trkpt lat="49.21246" lon="1.17">
        <ele>11</ele>
        <time>2016-07-10T09:40:18.008Z</time>
      </trkpt>
      <trkpt lat="49.21246" lon="1.17">
        <ele>10</ele>
        <time>2016-07-10T09:40:19.008Z</time>
      </trkpt>
      <trkpt lat="49.21246" lon="1.17">
        <ele>11</ele>
        <time>2016-07-10T09:40:20.008Z</time>
      </trkpt>
      <trkpt lat="49.21246" lon="1.17001">
        <ele>11</ele>
        <time>2016-07-10T09:40:21.008Z</time>
      </trkpt>
      <trkpt lat="49.21246" lon="1.17001">
        <ele>12</ele>
        <time>2016-07-10T09:40:22.008Z</time>
      </trkpt>
      <trkpt lat="49.21246" lon="1.17002">
        <ele>12</ele>
        <time>2016-07-10T09:40:23.008Z</time>
      </trkpt>
      <trkpt lat="49.21246" lon="1.17002">
        <ele>13</ele>
        <time>2016-07-10T09:40:24.008Z</time>
      </trkpt>
      <trkpt lat="49.21246" lon="1.17003">
        <ele>13</ele>
        <time>2016-07-10T09:40:25.008Z</time>
      </trkpt>
      <trkpt lat="49.21245" lon="1.17003">
        <ele>14</ele>
        <time>2016-07-10T09:40:26.008Z</time>
      </trkpt>
      <trkpt lat="49.21245" lon="1.17003">
        <ele>14</ele>
        <time>2016-07-10T09:40:27.008Z</time>
      </trkpt>
      <trkpt lat="49.21245" lon="1.17004">
        <ele>14</ele>
        <time>2016-07-10T09:40:28.008Z</time>
      </trkpt>
      <trkpt lat="49.21245" lon="1.17004">
        <ele>14</ele>
        <time>2016-07-10T09:40:29.008Z</time>
      </trkpt>
      <trkpt lat="49.21245" lon="1.17004">
        <ele>14</ele>
        <time>2016-07-10T09:40:30.008Z</time>
      </trkpt>
      <trkpt lat="49.21245" lon="1.17005">
        <ele>15</ele>
        <time>2016-07-10T09:40:31.008Z</time>
      </trkpt>
      <trkpt lat="49.21245" lon="1.17005">
        <ele>16</ele>
        <time>2016-07-10T09:40:32.008Z</time>
      </trkpt>
      <trkpt lat="49.21245" lon="1.17006">
        <ele>16</ele>
        <time>2016-07-10T09:40:33.008Z</time>
      </trkpt>
      <trkpt lat="49.21245" lon="1.17006">
        <ele>16</ele>
        <time>2016-07-10T09:40:34.008Z</time>
      </trkpt>
      <trkpt lat="49.21245" lon="1.17006">
        <ele>16</ele>
        <time>2016-07-10T09:40:35.008Z</time>
      </trkpt>
      <trkpt lat="49.21245" lon="1.17007">
        <ele>17</ele>
        <time>2016-07-10T09:40:36.008Z</time>
      </trkpt>
      <trkpt lat="49.21245" lon="1.17007">
        <ele>17</ele>
        <time>2016-07-10T09:40:37.008Z</time>
      </trkpt>
      <trkpt lat="49.21245" lon="1.17007">
        <ele>17</ele>
        <time>2016-07-10T09:40:38.008Z</time>
      </trkpt>
      <trkpt lat="49.21245" lon="1.17008">
        <ele>17</ele>
        <time>2016-07-10T09:40:39.008Z</time>
      </trkpt>
      <trkpt lat="49.21244" lon="1.17008">
        <ele>16</ele>
        <time>2016-07-10T09:40:40.008Z</time>
      </trkpt>
      <trkpt lat="49.21243" lon="1.17009">
        <ele>17</ele>
        <time>2016-07-10T09:40:41.008Z</time>
      </trkpt>
      <trkpt lat="49.21242" lon="1.17011">
        <ele>16</ele>
        <time>2016-07-10T09:40:42.008Z</time>
      </trkpt>
      <trkpt lat="49.2124" lon="1.17012">
        <ele>15</ele>
        <time>2016-07-10T09:40:43.008Z</time>
      </trkpt>
      <trkpt lat="49.21238" lon="1.17013">
        <ele>14</ele>
        <time>2016-07-10T09:40:44.008Z</time>
      </trkpt>
      <trkpt lat="49.21236" lon="1.17014">
        <ele>15</ele>
        <time>2016-07-10T09:40:45.008Z</time>
      </trkpt>
      <trkpt lat="49.21235" lon="1.17016">
        <ele>15</ele>
        <time>2016-07-10T09:40:46.008Z</time>
      </trkpt>
      <trkpt lat="49.21233" lon="1.17018">
        <ele>14</ele>
        <time>2016-07-10T09:40:47.008Z</time>
      </trkpt>
      <trkpt lat="49.21231" lon="1.1702">
        <ele>14</ele>
        <time>2016-07-10T09:40:48.008Z</time>
      </trkpt>
      <trkpt lat="49.21229" lon="1.17022">
        <ele>14</ele>
        <time>2016-07-10T09:40:49.008Z</time>
      </trkpt>
      <trkpt lat="49.21226" lon="1.17024">
        <ele>14</ele>
        <time>2016-07-10T09:40:50.008Z</time>
      </trkpt>
      <trkpt lat="49.21223" lon="1.17026">
        <ele>14</ele>
        <time>2016-07-10T09:40:51.008Z</time>
      </trkpt>
      <trkpt lat="49.21219" lon="1.17028">
        <ele>14</ele>
        <time>2016-07-10T09:40:52.008Z</time>
      </trkpt>
      <trkpt lat="49.21215" lon="1.1703">
        <ele>13</ele>
        <time>2016-07-10T09:40:53.008Z</time>
      </trkpt>
      <trkpt lat="49.21211" lon="1.17031">
        <ele>12</ele>
        <time>2016-07-10T09:40:54.008Z</time>
      </trkpt>
      <trkpt lat="49.21207" lon="1.17033">
        <ele>12</ele>
        <time>2016-07-10T09:40:55.008Z</time>
      </trkpt>
      <trkpt lat="49.21202" lon="1.17035">
        <ele>12</ele>
        <time>2016-07-10T09:40:56.008Z</time>
      </trkpt>
      <trkpt lat="49.21198" lon="1.17037">
        <ele>11</ele>
        <time>2016-07-10T09:40:57.008Z</time>
      </trkpt>
      <trkpt lat="49.21193" lon="1.17039">
        <ele>11</ele>
        <time>2016-07-10T09:40:58.008Z</time>
      </trkpt>
      <trkpt lat="49.21188" lon="1.17042">
        <ele>11</ele>
        <time>2016-07-10T09:40:59.008Z</time>
      </trkpt>
      <trkpt lat="49.21184" lon="1.17044">
        <ele>10</ele>
        <time>2016-07-10T09:41:00.008Z</time>
      </trkpt>
      <trkpt lat="49.21179" lon="1.17045">
        <ele>9</ele>
        <time>2016-07-10T09:41:01.008Z</time>
      </trkpt>
      <trkpt lat="49.21175" lon="1.17047">
        <ele>7</ele>
        <time>2016-07-10T09:41:02.008Z</time>
      </trkpt>
      <trkpt lat="49.21171" lon="1.17048">
        <ele>7</ele>
        <time>2016-07-10T09:41:03.008Z</time>
      </trkpt>
      <trkpt lat="49.21167" lon="1.17049">
        <ele>10</ele>
        <time>2016-07-10T09:41:04.008Z</time>
      </trkpt>
      <trkpt lat="49.21162" lon="1.17051">
        <ele>9</ele>
        <time>2016-07-10T09:41:05.008Z</time>
      </trkpt>
      <trkpt lat="49.21157" lon="1.17052">
        <ele>10</ele>
        <time>2016-07-10T09:41:06.008Z</time>
      </trkpt>
      <trkpt lat="49.21152" lon="1.17054">
        <ele>11</ele>
        <time>2016-07-10T09:41:07.008Z</time>
      </trkpt>
      <trkpt lat="49.21148" lon="1.17055">
        <ele>11</ele>
        <time>2016-07-10T09:41:08.008Z</time>
      </trkpt>
      <trkpt lat="49.21143" lon="1.17057">
        <ele>12</ele>
        <time>2016-07-10T09:41:09.008Z</time>
      </trkpt>
      <trkpt lat="49.21138" lon="1.17059">
        <ele>15</ele>
        <time>2016-07-10T09:41:10.008Z</time>
      </trkpt>
      <trkpt lat="49.21133" lon="1.17061">
        <ele>16</ele>
        <time>2016-07-10T09:41:11.008Z</time>
      </trkpt>
      <trkpt lat="49.21128" lon="1.17063">
        <ele>17</ele>
        <time>2016-07-10T09:41:12.008Z</time>
      </trkpt>
      <trkpt lat="49.21123" lon="1.17064">
        <ele>18</ele>
        <time>2016-07-10T09:41:13.008Z</time>
      </trkpt>
      <trkpt lat="49.21118" lon="1.17066">
        <ele>18</ele>
        <time>2016-07-10T09:41:14.008Z</time>
      </trkpt>
      <trkpt lat="49.21113" lon="1.17067">
        <ele>17</ele>
        <time>2016-07-10T09:41:15.008Z</time>
      </trkpt>
      <trkpt lat="49.21109" lon="1.17067">
        <ele>17</ele>
        <time>2016-07-10T09:41:16.008Z</time>
      </trkpt>
      <trkpt lat="49.21104" lon="1.17068">
        <ele>19</ele>
        <time>2016-07-10T09:41:17.008Z</time>
      </trkpt>
      <trkpt lat="49.211" lon="1.17068">
        <ele>19</ele>
        <time>2016-07-10T09:41:18.008Z</time>
      </trkpt>
      <trkpt lat="49.21095" lon="1.17069">
        <ele>19</ele>
        <time>2016-07-10T09:41:19.008Z</time>
      </trkpt>
      <trkpt lat="49.2109" lon="1.17069">
        <ele>19</ele>
        <time>2016-07-10T09:41:20.008Z</time>
      </trkpt>
      <trkpt lat="49.21086" lon="1.17069">
        <ele>19</ele>
        <time>2016-07-10T09:41:21.008Z</time>
      </trkpt>
      <trkpt lat="49.21081" lon="1.1707">
        <ele>21</ele>
        <time>2016-07-10T09:41:22.008Z</time>
      </trkpt>
      <trkpt lat="49.21076" lon="1.17071">
        <ele>21</ele>
        <time>2016-07-10T09:41:23.008Z</time>
      </trkpt>
      <trkpt lat="49.21071" lon="1.17071">
        <ele>21</ele>
        <time>2016-07-10T09:41:24.008Z</time>
      </trkpt>
      <trkpt lat="49.21066" lon="1.17072">
        <ele>22</ele>
        <time>2016-07-10T09:41:25.008Z</time>
      </trkpt>
      <trkpt lat="49.21061" lon="1.17072">
        <ele>23</ele>
        <time>2016-07-10T09:41:26.008Z</time>
      </trkpt>
      <trkpt lat="49.21057" lon="1.17073">
        <ele>23</ele>
        <time>2016-07-10T09:41:27.008Z</time>
      </trkpt>
      <trkpt lat="49.21052" lon="1.17074">
        <ele>24</ele>
        <time>2016-07-10T09:41:28.008Z</time>
      </trkpt>
      <trkpt lat="49.21048" lon="1.17075">
        <ele>24</ele>
        <time>2016-07-10T09:41:29.008Z</time>
      </trkpt>
      <trkpt lat="49.21044" lon="1.17075">
        <ele>25</ele>
        <time>2016-07-10T09:41:30.008Z</time>
      </trkpt>
      <trkpt lat="49.21041" lon="1.17075">
        <ele>24</ele>
        <time>2016-07-10T09:41:31.008Z</time>
      </trkpt>
      <trkpt lat="49.21038" lon="1.17075">
        <ele>23</ele>
        <time>2016-07-10T09:41:32.008Z</time>
      </trkpt>
      <trkpt lat="49.21036" lon="1.17074">
        <ele>22</ele>
        <time>2016-07-10T09:41:33.008Z</time>
      </trkpt>
      <trkpt lat="49.21033" lon="1.17074">
        <ele>22</ele>
        <time>2016-07-10T09:41:34.008Z</time>
      </trkpt>
      <trkpt lat="49.21031" lon="1.17073">
        <ele>21</ele>
        <time>2016-07-10T09:41:35.008Z</time>
      </trkpt>
      <trkpt lat="49.21027" lon="1.17072">
        <ele>21</ele>
        <time>2016-07-10T09:41:36.008Z</time>
      </trkpt>
      <trkpt lat="49.21023" lon="1.17071">
        <ele>19</ele>
        <time>2016-07-10T09:41:37.008Z</time>
      </trkpt>
      <trkpt lat="49.21019" lon="1.17071">
        <ele>15</ele>
        <time>2016-07-10T09:41:38.008Z</time>
      </trkpt>
      <trkpt lat="49.21017" lon="1.17075">
        <ele>16</ele>
        <time>2016-07-10T09:41:39.008Z</time>
      </trkpt>
      <trkpt lat="49.21016" lon="1.1708">
        <ele>16</ele>
        <time>2016-07-10T09:41:40.008Z</time>
      </trkpt>
      <trkpt lat="49.21016" lon="1.17087">
        <ele>15</ele>
        <time>2016-07-10T09:41:41.008Z</time>
      </trkpt>
      <trkpt lat="49.21018" lon="1.17092">
        <ele>15</ele>
        <time>2016-07-10T09:41:42.008Z</time>
      </trkpt>
      <trkpt lat="49.2102" lon="1.17099">
        <ele>15</ele>
        <time>2016-07-10T09:41:43.008Z</time>
      </trkpt>
      <trkpt lat="49.21021" lon="1.17106">
        <ele>15</ele>
        <time>2016-07-10T09:41:44.008Z</time>
      </trkpt>
      <trkpt lat="49.21022" lon="1.17112">
        <ele>15</ele>
        <time>2016-07-10T09:41:45.008Z</time>
      </trkpt>
      <trkpt lat="49.21023" lon="1.1712">
        <ele>15</ele>
        <time>2016-07-10T09:41:46.008Z</time>
      </trkpt>
      <trkpt lat="49.21024" lon="1.17127">
        <ele>15</ele>
        <time>2016-07-10T09:41:47.008Z</time>
      </trkpt>
      <trkpt lat="49.21025" lon="1.17134">
        <ele>16</ele>
        <time>2016-07-10T09:41:48.008Z</time>
      </trkpt>
      <trkpt lat="49.21026" lon="1.1714">
        <ele>16</ele>
        <time>2016-07-10T09:41:49.008Z</time>
      </trkpt>
      <trkpt lat="49.21027" lon="1.17147">
        <ele>16</ele>
        <time>2016-07-10T09:41:50.008Z</time>
      </trkpt>
      <trkpt lat="49.21027" lon="1.17153">
        <ele>16</ele>
        <time>2016-07-10T09:41:51.008Z</time>
      </trkpt>
      <trkpt lat="49.21026" lon="1.17159">
        <ele>16</ele>
        <time>2016-07-10T09:41:52.008Z</time>
      </trkpt>
      <trkpt lat="49.21024" lon="1.17164">
        <ele>16</ele>
        <time>2016-07-10T09:41:53.008Z</time>
      </trkpt>
      <trkpt lat="49.21021" lon="1.17169">
        <ele>17</ele>
        <time>2016-07-10T09:41:54.008Z</time>
      </trkpt>
      <trkpt lat="49.21017" lon="1.17172">
        <ele>16</ele>
        <time>2016-07-10T09:41:55.008Z</time>
      </trkpt>
      <trkpt lat="49.21013" lon="1.17173">
        <ele>14</ele>
        <time>2016-07-10T09:41:56.008Z</time>
      </trkpt>
      <trkpt lat="49.21008" lon="1.17174">
        <ele>14</ele>
        <time>2016-07-10T09:41:57.008Z</time>
      </trkpt>
      <trkpt lat="49.21004" lon="1.17174">
        <ele>14</ele>
        <time>2016-07-10T09:41:58.008Z</time>
      </trkpt>
      <trkpt lat="49.21" lon="1.17176">
        <ele>14</ele>
        <time>2016-07-10T09:41:59.008Z</time>
      </trkpt>
      <trkpt lat="49.20996" lon="1.17177">
        <ele>14</ele>
        <time>2016-07-10T09:42:00.008Z</time>
      </trkpt>
      <trkpt lat="49.20993" lon="1.17179">
        <ele>14</ele>
        <time>2016-07-10T09:42:01.008Z</time>
      </trkpt>
      <trkpt lat="49.20989" lon="1.17181">
        <ele>14</ele>
        <time>2016-07-10T09:42:02.008Z</time>
      </trkpt>
    </trkseg>
  </trk>
</gpx>